<?xml version="1.0" encoding="UTF-8" standalone="no" ?>
<gpx xmlns="http://www.topografix.com/GPX/1/1" xmlns:xsi="http://www.w3.org/2001/XMLSchema-instance" xsi:schemaLocation="http://www.topografix.com/GPX/1/1 http://www.topografix.com/GPX/1/1/gpx.xsd" version="1.1" creator="VisuGPX - https://www.visugpx.com">
  <metadata>
    <name>lundi 2015 01</name>
    <desc><![CDATA[cumul janvier 2015]]></desc>
  </metadata>
  <trk>
    <name><![CDATA[05/01/2015 20:18]]></name>
    <extensions>
      <line xmlns="http://www.topografix.com/GPX/gpx_style/0/2">
        <color>000000</color>
      </line>
    </extensions>
    <trkseg>
      <trkpt lat="48.85758" lon="2.34709">
        <ele>107.7</ele>
        <time>2015-01-05T19:18:27.665Z</time>
      </trkpt>
      <trkpt lat="48.85755" lon="2.34712">
        <ele>109.3</ele>
        <time>2015-01-05T19:18:56.806Z</time>
      </trkpt>
      <trkpt lat="48.85755" lon="2.34712">
        <ele>109.1</ele>
        <time>2015-01-05T19:18:57.818Z</time>
      </trkpt>
      <trkpt lat="48.85753" lon="2.34712">
        <ele>109.1</ele>
        <time>2015-01-05T19:18:58.656Z</time>
      </trkpt>
      <trkpt lat="48.8575" lon="2.3471">
        <ele>109.3</ele>
        <time>2015-01-05T19:19:01.677Z</time>
      </trkpt>
      <trkpt lat="48.8575" lon="2.3471">
        <ele>109.5</ele>
        <time>2015-01-05T19:19:02.699Z</time>
      </trkpt>
      <trkpt lat="48.85749" lon="2.3471">
        <ele>109.6</ele>
        <time>2015-01-05T19:19:23.699Z</time>
      </trkpt>
      <trkpt lat="48.8575" lon="2.34712">
        <ele>111.8</ele>
        <time>2015-01-05T19:19:24.721Z</time>
      </trkpt>
      <trkpt lat="48.8575" lon="2.34713">
        <ele>111.9</ele>
        <time>2015-01-05T19:19:25.662Z</time>
      </trkpt>
      <trkpt lat="48.8575" lon="2.34713">
        <ele>111.8</ele>
        <time>2015-01-05T19:19:26.701Z</time>
      </trkpt>
      <trkpt lat="48.8575" lon="2.34712">
        <ele>111.8</ele>
        <time>2015-01-05T19:19:27.735Z</time>
      </trkpt>
      <trkpt lat="48.8575" lon="2.34712">
        <ele>111.8</ele>
        <time>2015-01-05T19:20:52.800Z</time>
      </trkpt>
      <trkpt lat="48.85741" lon="2.34734">
        <ele>109.7</ele>
        <time>2015-01-05T19:20:53.796Z</time>
      </trkpt>
      <trkpt lat="48.85741" lon="2.34735">
        <ele>109.7</ele>
        <time>2015-01-05T19:20:54.677Z</time>
      </trkpt>
      <trkpt lat="48.85741" lon="2.34735">
        <ele>109.9</ele>
        <time>2015-01-05T19:20:55.704Z</time>
      </trkpt>
      <trkpt lat="48.85741" lon="2.34734">
        <ele>109.7</ele>
        <time>2015-01-05T19:21:12.716Z</time>
      </trkpt>
      <trkpt lat="48.85744" lon="2.34735">
        <ele>110.3</ele>
        <time>2015-01-05T19:21:13.813Z</time>
      </trkpt>
      <trkpt lat="48.85745" lon="2.34736">
        <ele>110.3</ele>
        <time>2015-01-05T19:21:15.726Z</time>
      </trkpt>
      <trkpt lat="48.85746" lon="2.34737">
        <ele>110.4</ele>
        <time>2015-01-05T19:21:16.724Z</time>
      </trkpt>
      <trkpt lat="48.85747" lon="2.3474">
        <ele>111.2</ele>
        <time>2015-01-05T19:21:19.674Z</time>
      </trkpt>
      <trkpt lat="48.85747" lon="2.34742">
        <ele>111.8</ele>
        <time>2015-01-05T19:21:20.717Z</time>
      </trkpt>
      <trkpt lat="48.85746" lon="2.34743">
        <ele>112.2</ele>
        <time>2015-01-05T19:21:21.732Z</time>
      </trkpt>
      <trkpt lat="48.85746" lon="2.34743">
        <ele>112.5</ele>
        <time>2015-01-05T19:21:22.735Z</time>
      </trkpt>
      <trkpt lat="48.85746" lon="2.34741">
        <ele>112.2</ele>
        <time>2015-01-05T19:21:23.753Z</time>
      </trkpt>
      <trkpt lat="48.85746" lon="2.34739">
        <ele>112</ele>
        <time>2015-01-05T19:21:24.658Z</time>
      </trkpt>
      <trkpt lat="48.85745" lon="2.34728">
        <ele>110.3</ele>
        <time>2015-01-05T19:21:28.684Z</time>
      </trkpt>
      <trkpt lat="48.85745" lon="2.34725">
        <ele>109.7</ele>
        <time>2015-01-05T19:21:29.689Z</time>
      </trkpt>
      <trkpt lat="48.85745" lon="2.34712">
        <ele>108.2</ele>
        <time>2015-01-05T19:21:35.730Z</time>
      </trkpt>
      <trkpt lat="48.85744" lon="2.3471">
        <ele>107.9</ele>
        <time>2015-01-05T19:21:36.684Z</time>
      </trkpt>
      <trkpt lat="48.85743" lon="2.34706">
        <ele>107.4</ele>
        <time>2015-01-05T19:21:38.720Z</time>
      </trkpt>
      <trkpt lat="48.85742" lon="2.34705">
        <ele>107.2</ele>
        <time>2015-01-05T19:21:39.841Z</time>
      </trkpt>
      <trkpt lat="48.85741" lon="2.34706">
        <ele>105.8</ele>
        <time>2015-01-05T19:21:57.750Z</time>
      </trkpt>
      <trkpt lat="48.8574" lon="2.34708">
        <ele>101.1</ele>
        <time>2015-01-05T19:21:58.665Z</time>
      </trkpt>
      <trkpt lat="48.8574" lon="2.34707">
        <ele>100.6</ele>
        <time>2015-01-05T19:22:00.687Z</time>
      </trkpt>
      <trkpt lat="48.85739" lon="2.34707">
        <ele>100.1</ele>
        <time>2015-01-05T19:22:01.713Z</time>
      </trkpt>
      <trkpt lat="48.85739" lon="2.34707">
        <ele>100.1</ele>
        <time>2015-01-05T19:22:07.712Z</time>
      </trkpt>
      <trkpt lat="48.85739" lon="2.34707">
        <ele>99.4</ele>
        <time>2015-01-05T19:22:08.762Z</time>
      </trkpt>
      <trkpt lat="48.85732" lon="2.34706">
        <ele>97.7</ele>
        <time>2015-01-05T19:22:13.739Z</time>
      </trkpt>
      <trkpt lat="48.85729" lon="2.34705">
        <ele>97.4</ele>
        <time>2015-01-05T19:22:14.766Z</time>
      </trkpt>
      <trkpt lat="48.85721" lon="2.347">
        <ele>96.7</ele>
        <time>2015-01-05T19:22:17.685Z</time>
      </trkpt>
      <trkpt lat="48.85718" lon="2.34699">
        <ele>96.6</ele>
        <time>2015-01-05T19:22:18.698Z</time>
      </trkpt>
      <trkpt lat="48.8571" lon="2.34695">
        <ele>95.8</ele>
        <time>2015-01-05T19:22:21.694Z</time>
      </trkpt>
      <trkpt lat="48.85706" lon="2.34693">
        <ele>95.6</ele>
        <time>2015-01-05T19:22:22.707Z</time>
      </trkpt>
      <trkpt lat="48.857" lon="2.34689">
        <ele>95.2</ele>
        <time>2015-01-05T19:22:24.657Z</time>
      </trkpt>
      <trkpt lat="48.85697" lon="2.34686">
        <ele>94.8</ele>
        <time>2015-01-05T19:22:25.677Z</time>
      </trkpt>
      <trkpt lat="48.85692" lon="2.34682">
        <ele>94.5</ele>
        <time>2015-01-05T19:22:27.718Z</time>
      </trkpt>
      <trkpt lat="48.85689" lon="2.3468">
        <ele>94.2</ele>
        <time>2015-01-05T19:22:28.731Z</time>
      </trkpt>
      <trkpt lat="48.85684" lon="2.34676">
        <ele>93.6</ele>
        <time>2015-01-05T19:22:30.666Z</time>
      </trkpt>
      <trkpt lat="48.85681" lon="2.34674">
        <ele>93.4</ele>
        <time>2015-01-05T19:22:31.677Z</time>
      </trkpt>
      <trkpt lat="48.85674" lon="2.3467">
        <ele>92.9</ele>
        <time>2015-01-05T19:22:33.753Z</time>
      </trkpt>
      <trkpt lat="48.8567" lon="2.34668">
        <ele>92.9</ele>
        <time>2015-01-05T19:22:34.633Z</time>
      </trkpt>
      <trkpt lat="48.85664" lon="2.34664">
        <ele>92.9</ele>
        <time>2015-01-05T19:22:36.693Z</time>
      </trkpt>
      <trkpt lat="48.85662" lon="2.34663">
        <ele>92.9</ele>
        <time>2015-01-05T19:22:37.712Z</time>
      </trkpt>
      <trkpt lat="48.85655" lon="2.34658">
        <ele>92.7</ele>
        <time>2015-01-05T19:22:39.731Z</time>
      </trkpt>
      <trkpt lat="48.85652" lon="2.34656">
        <ele>92.6</ele>
        <time>2015-01-05T19:22:40.776Z</time>
      </trkpt>
      <trkpt lat="48.85646" lon="2.34652">
        <ele>92.6</ele>
        <time>2015-01-05T19:22:42.668Z</time>
      </trkpt>
      <trkpt lat="48.85644" lon="2.3465">
        <ele>92.3</ele>
        <time>2015-01-05T19:22:43.677Z</time>
      </trkpt>
      <trkpt lat="48.85636" lon="2.34644">
        <ele>92</ele>
        <time>2015-01-05T19:22:46.758Z</time>
      </trkpt>
      <trkpt lat="48.85632" lon="2.34643">
        <ele>91.5</ele>
        <time>2015-01-05T19:22:47.667Z</time>
      </trkpt>
      <trkpt lat="48.85626" lon="2.3464">
        <ele>91</ele>
        <time>2015-01-05T19:22:49.692Z</time>
      </trkpt>
      <trkpt lat="48.85622" lon="2.34638">
        <ele>90.6</ele>
        <time>2015-01-05T19:22:50.696Z</time>
      </trkpt>
      <trkpt lat="48.85617" lon="2.34633">
        <ele>90.6</ele>
        <time>2015-01-05T19:22:52.790Z</time>
      </trkpt>
      <trkpt lat="48.85614" lon="2.34631">
        <ele>90.5</ele>
        <time>2015-01-05T19:22:53.652Z</time>
      </trkpt>
      <trkpt lat="48.85609" lon="2.34627">
        <ele>90.3</ele>
        <time>2015-01-05T19:22:56.406Z</time>
      </trkpt>
      <trkpt lat="48.85606" lon="2.34625">
        <ele>90.3</ele>
        <time>2015-01-05T19:22:56.816Z</time>
      </trkpt>
      <trkpt lat="48.85598" lon="2.34621">
        <ele>90.5</ele>
        <time>2015-01-05T19:22:59.779Z</time>
      </trkpt>
      <trkpt lat="48.85595" lon="2.34619">
        <ele>90.6</ele>
        <time>2015-01-05T19:23:00.669Z</time>
      </trkpt>
      <trkpt lat="48.85587" lon="2.34613">
        <ele>90.8</ele>
        <time>2015-01-05T19:23:04.725Z</time>
      </trkpt>
      <trkpt lat="48.85584" lon="2.34611">
        <ele>90.9</ele>
        <time>2015-01-05T19:23:05.741Z</time>
      </trkpt>
      <trkpt lat="48.85575" lon="2.34608">
        <ele>91</ele>
        <time>2015-01-05T19:23:07.662Z</time>
      </trkpt>
      <trkpt lat="48.85571" lon="2.34607">
        <ele>91</ele>
        <time>2015-01-05T19:23:08.684Z</time>
      </trkpt>
      <trkpt lat="48.85567" lon="2.34605">
        <ele>91.1</ele>
        <time>2015-01-05T19:23:09.721Z</time>
      </trkpt>
      <trkpt lat="48.85562" lon="2.34601">
        <ele>91.4</ele>
        <time>2015-01-05T19:23:10.732Z</time>
      </trkpt>
      <trkpt lat="48.85555" lon="2.34594">
        <ele>91.5</ele>
        <time>2015-01-05T19:23:12.647Z</time>
      </trkpt>
      <trkpt lat="48.85552" lon="2.34589">
        <ele>91.6</ele>
        <time>2015-01-05T19:23:13.685Z</time>
      </trkpt>
      <trkpt lat="48.85547" lon="2.34581">
        <ele>91.9</ele>
        <time>2015-01-05T19:23:15.722Z</time>
      </trkpt>
      <trkpt lat="48.85544" lon="2.34578">
        <ele>91.9</ele>
        <time>2015-01-05T19:23:16.778Z</time>
      </trkpt>
      <trkpt lat="48.85538" lon="2.34573">
        <ele>92.2</ele>
        <time>2015-01-05T19:23:18.679Z</time>
      </trkpt>
      <trkpt lat="48.85534" lon="2.3457">
        <ele>92.2</ele>
        <time>2015-01-05T19:23:19.697Z</time>
      </trkpt>
      <trkpt lat="48.85529" lon="2.34566">
        <ele>92.3</ele>
        <time>2015-01-05T19:23:20.729Z</time>
      </trkpt>
      <trkpt lat="48.85525" lon="2.34562">
        <ele>92.4</ele>
        <time>2015-01-05T19:23:21.732Z</time>
      </trkpt>
      <trkpt lat="48.8552" lon="2.34559">
        <ele>92.4</ele>
        <time>2015-01-05T19:23:22.741Z</time>
      </trkpt>
      <trkpt lat="48.85517" lon="2.34556">
        <ele>92.5</ele>
        <time>2015-01-05T19:23:23.746Z</time>
      </trkpt>
      <trkpt lat="48.85512" lon="2.34552">
        <ele>92.5</ele>
        <time>2015-01-05T19:23:24.642Z</time>
      </trkpt>
      <trkpt lat="48.85508" lon="2.34548">
        <ele>92.5</ele>
        <time>2015-01-05T19:23:25.678Z</time>
      </trkpt>
      <trkpt lat="48.85502" lon="2.34543">
        <ele>92.5</ele>
        <time>2015-01-05T19:23:27.841Z</time>
      </trkpt>
      <trkpt lat="48.85499" lon="2.3454">
        <ele>92.5</ele>
        <time>2015-01-05T19:23:28.734Z</time>
      </trkpt>
      <trkpt lat="48.85494" lon="2.34537">
        <ele>92.6</ele>
        <time>2015-01-05T19:23:29.669Z</time>
      </trkpt>
      <trkpt lat="48.8549" lon="2.34533">
        <ele>92.7</ele>
        <time>2015-01-05T19:23:30.671Z</time>
      </trkpt>
      <trkpt lat="48.85486" lon="2.3453">
        <ele>92.7</ele>
        <time>2015-01-05T19:23:31.683Z</time>
      </trkpt>
      <trkpt lat="48.85481" lon="2.34527">
        <ele>92.7</ele>
        <time>2015-01-05T19:23:32.727Z</time>
      </trkpt>
      <trkpt lat="48.85476" lon="2.34523">
        <ele>92.7</ele>
        <time>2015-01-05T19:23:33.645Z</time>
      </trkpt>
      <trkpt lat="48.85471" lon="2.34517">
        <ele>92.5</ele>
        <time>2015-01-05T19:23:34.676Z</time>
      </trkpt>
      <trkpt lat="48.85467" lon="2.34512">
        <ele>92.4</ele>
        <time>2015-01-05T19:23:35.695Z</time>
      </trkpt>
      <trkpt lat="48.85463" lon="2.34507">
        <ele>92.3</ele>
        <time>2015-01-05T19:23:36.726Z</time>
      </trkpt>
      <trkpt lat="48.85458" lon="2.34501">
        <ele>92.2</ele>
        <time>2015-01-05T19:23:37.926Z</time>
      </trkpt>
      <trkpt lat="48.85453" lon="2.34496">
        <ele>92.3</ele>
        <time>2015-01-05T19:23:38.693Z</time>
      </trkpt>
      <trkpt lat="48.85447" lon="2.34492">
        <ele>92.2</ele>
        <time>2015-01-05T19:23:39.692Z</time>
      </trkpt>
      <trkpt lat="48.85443" lon="2.34487">
        <ele>92</ele>
        <time>2015-01-05T19:23:40.701Z</time>
      </trkpt>
      <trkpt lat="48.85438" lon="2.34483">
        <ele>92</ele>
        <time>2015-01-05T19:23:41.725Z</time>
      </trkpt>
      <trkpt lat="48.85433" lon="2.34478">
        <ele>92.3</ele>
        <time>2015-01-05T19:23:42.745Z</time>
      </trkpt>
      <trkpt lat="48.85427" lon="2.34473">
        <ele>92.4</ele>
        <time>2015-01-05T19:23:43.685Z</time>
      </trkpt>
      <trkpt lat="48.85422" lon="2.34469">
        <ele>92.5</ele>
        <time>2015-01-05T19:23:44.803Z</time>
      </trkpt>
      <trkpt lat="48.85415" lon="2.34462">
        <ele>92.2</ele>
        <time>2015-01-05T19:23:46.678Z</time>
      </trkpt>
      <trkpt lat="48.85411" lon="2.3446">
        <ele>91.9</ele>
        <time>2015-01-05T19:23:47.690Z</time>
      </trkpt>
      <trkpt lat="48.85405" lon="2.34454">
        <ele>91.2</ele>
        <time>2015-01-05T19:23:49.691Z</time>
      </trkpt>
      <trkpt lat="48.85402" lon="2.34452">
        <ele>91</ele>
        <time>2015-01-05T19:23:50.725Z</time>
      </trkpt>
      <trkpt lat="48.85396" lon="2.34447">
        <ele>90.4</ele>
        <time>2015-01-05T19:23:52.683Z</time>
      </trkpt>
      <trkpt lat="48.85394" lon="2.34444">
        <ele>90.3</ele>
        <time>2015-01-05T19:23:53.682Z</time>
      </trkpt>
      <trkpt lat="48.85388" lon="2.34439">
        <ele>89.5</ele>
        <time>2015-01-05T19:23:58.695Z</time>
      </trkpt>
      <trkpt lat="48.85388" lon="2.34439">
        <ele>89.5</ele>
        <time>2015-01-05T19:23:59.704Z</time>
      </trkpt>
      <trkpt lat="48.85388" lon="2.34439">
        <ele>89.3</ele>
        <time>2015-01-05T19:24:10.665Z</time>
      </trkpt>
      <trkpt lat="48.85385" lon="2.34441">
        <ele>84.9</ele>
        <time>2015-01-05T19:24:11.677Z</time>
      </trkpt>
      <trkpt lat="48.85384" lon="2.34442">
        <ele>85.3</ele>
        <time>2015-01-05T19:24:12.710Z</time>
      </trkpt>
      <trkpt lat="48.85383" lon="2.34443">
        <ele>86.2</ele>
        <time>2015-01-05T19:24:13.737Z</time>
      </trkpt>
      <trkpt lat="48.85383" lon="2.34444">
        <ele>86.4</ele>
        <time>2015-01-05T19:24:14.772Z</time>
      </trkpt>
      <trkpt lat="48.85382" lon="2.34444">
        <ele>87</ele>
        <time>2015-01-05T19:24:15.685Z</time>
      </trkpt>
      <trkpt lat="48.85378" lon="2.34438">
        <ele>86</ele>
        <time>2015-01-05T19:24:18.736Z</time>
      </trkpt>
      <trkpt lat="48.85375" lon="2.34434">
        <ele>85.4</ele>
        <time>2015-01-05T19:24:19.756Z</time>
      </trkpt>
      <trkpt lat="48.85372" lon="2.34425">
        <ele>84.3</ele>
        <time>2015-01-05T19:24:21.669Z</time>
      </trkpt>
      <trkpt lat="48.85369" lon="2.3442">
        <ele>83.9</ele>
        <time>2015-01-05T19:24:22.678Z</time>
      </trkpt>
      <trkpt lat="48.85366" lon="2.34416">
        <ele>84</ele>
        <time>2015-01-05T19:24:23.685Z</time>
      </trkpt>
      <trkpt lat="48.85362" lon="2.34411">
        <ele>84.1</ele>
        <time>2015-01-05T19:24:24.696Z</time>
      </trkpt>
      <trkpt lat="48.85355" lon="2.34401">
        <ele>84.3</ele>
        <time>2015-01-05T19:24:26.727Z</time>
      </trkpt>
      <trkpt lat="48.8535" lon="2.34395">
        <ele>83.9</ele>
        <time>2015-01-05T19:24:27.744Z</time>
      </trkpt>
      <trkpt lat="48.85343" lon="2.34388">
        <ele>83.5</ele>
        <time>2015-01-05T19:24:28.749Z</time>
      </trkpt>
      <trkpt lat="48.85338" lon="2.34381">
        <ele>83.1</ele>
        <time>2015-01-05T19:24:29.766Z</time>
      </trkpt>
      <trkpt lat="48.85333" lon="2.34374">
        <ele>83</ele>
        <time>2015-01-05T19:24:30.690Z</time>
      </trkpt>
      <trkpt lat="48.85329" lon="2.34368">
        <ele>82.8</ele>
        <time>2015-01-05T19:24:31.678Z</time>
      </trkpt>
      <trkpt lat="48.85327" lon="2.34362">
        <ele>82.8</ele>
        <time>2015-01-05T19:24:32.731Z</time>
      </trkpt>
      <trkpt lat="48.85323" lon="2.34356">
        <ele>83.1</ele>
        <time>2015-01-05T19:24:33.732Z</time>
      </trkpt>
      <trkpt lat="48.85319" lon="2.3435">
        <ele>83.2</ele>
        <time>2015-01-05T19:24:34.675Z</time>
      </trkpt>
      <trkpt lat="48.85316" lon="2.34345">
        <ele>83.3</ele>
        <time>2015-01-05T19:24:35.678Z</time>
      </trkpt>
      <trkpt lat="48.8531" lon="2.34335">
        <ele>83.3</ele>
        <time>2015-01-05T19:24:37.696Z</time>
      </trkpt>
      <trkpt lat="48.85307" lon="2.34332">
        <ele>83.1</ele>
        <time>2015-01-05T19:24:38.776Z</time>
      </trkpt>
      <trkpt lat="48.85301" lon="2.34324">
        <ele>82.7</ele>
        <time>2015-01-05T19:24:41.684Z</time>
      </trkpt>
      <trkpt lat="48.85302" lon="2.3432">
        <ele>82.2</ele>
        <time>2015-01-05T19:24:42.696Z</time>
      </trkpt>
      <trkpt lat="48.853" lon="2.34311">
        <ele>81.7</ele>
        <time>2015-01-05T19:24:44.720Z</time>
      </trkpt>
      <trkpt lat="48.85298" lon="2.34306">
        <ele>81.6</ele>
        <time>2015-01-05T19:24:45.734Z</time>
      </trkpt>
      <trkpt lat="48.85295" lon="2.34295">
        <ele>81.4</ele>
        <time>2015-01-05T19:24:48.693Z</time>
      </trkpt>
      <trkpt lat="48.85292" lon="2.3429">
        <ele>81.6</ele>
        <time>2015-01-05T19:24:49.707Z</time>
      </trkpt>
      <trkpt lat="48.85288" lon="2.34282">
        <ele>81.8</ele>
        <time>2015-01-05T19:24:51.655Z</time>
      </trkpt>
      <trkpt lat="48.85286" lon="2.3428">
        <ele>81.9</ele>
        <time>2015-01-05T19:24:52.669Z</time>
      </trkpt>
      <trkpt lat="48.8528" lon="2.34273">
        <ele>82</ele>
        <time>2015-01-05T19:24:55.697Z</time>
      </trkpt>
      <trkpt lat="48.85278" lon="2.34271">
        <ele>82.1</ele>
        <time>2015-01-05T19:24:56.711Z</time>
      </trkpt>
      <trkpt lat="48.85275" lon="2.34264">
        <ele>82.2</ele>
        <time>2015-01-05T19:24:58.657Z</time>
      </trkpt>
      <trkpt lat="48.85272" lon="2.3426">
        <ele>82.3</ele>
        <time>2015-01-05T19:24:59.776Z</time>
      </trkpt>
      <trkpt lat="48.85269" lon="2.34252">
        <ele>82.6</ele>
        <time>2015-01-05T19:25:01.656Z</time>
      </trkpt>
      <trkpt lat="48.85267" lon="2.34246">
        <ele>83.3</ele>
        <time>2015-01-05T19:25:02.731Z</time>
      </trkpt>
      <trkpt lat="48.85264" lon="2.34239">
        <ele>83.7</ele>
        <time>2015-01-05T19:25:03.728Z</time>
      </trkpt>
      <trkpt lat="48.85261" lon="2.34233">
        <ele>84.1</ele>
        <time>2015-01-05T19:25:04.733Z</time>
      </trkpt>
      <trkpt lat="48.85256" lon="2.34223">
        <ele>84.5</ele>
        <time>2015-01-05T19:25:06.655Z</time>
      </trkpt>
      <trkpt lat="48.85252" lon="2.3422">
        <ele>84.7</ele>
        <time>2015-01-05T19:25:07.666Z</time>
      </trkpt>
      <trkpt lat="48.85252" lon="2.34215">
        <ele>84.7</ele>
        <time>2015-01-05T19:25:08.721Z</time>
      </trkpt>
      <trkpt lat="48.85253" lon="2.34205">
        <ele>84</ele>
        <time>2015-01-05T19:25:09.724Z</time>
      </trkpt>
      <trkpt lat="48.85253" lon="2.34194">
        <ele>83.6</ele>
        <time>2015-01-05T19:25:10.740Z</time>
      </trkpt>
      <trkpt lat="48.8525" lon="2.34185">
        <ele>83.4</ele>
        <time>2015-01-05T19:25:11.652Z</time>
      </trkpt>
      <trkpt lat="48.85244" lon="2.34172">
        <ele>82.8</ele>
        <time>2015-01-05T19:25:12.665Z</time>
      </trkpt>
      <trkpt lat="48.85239" lon="2.34165">
        <ele>82.6</ele>
        <time>2015-01-05T19:25:13.669Z</time>
      </trkpt>
      <trkpt lat="48.85236" lon="2.34157">
        <ele>82.3</ele>
        <time>2015-01-05T19:25:14.691Z</time>
      </trkpt>
      <trkpt lat="48.85235" lon="2.3415">
        <ele>82</ele>
        <time>2015-01-05T19:25:15.690Z</time>
      </trkpt>
      <trkpt lat="48.85234" lon="2.34143">
        <ele>82.1</ele>
        <time>2015-01-05T19:25:16.698Z</time>
      </trkpt>
      <trkpt lat="48.85233" lon="2.34136">
        <ele>81.9</ele>
        <time>2015-01-05T19:25:17.733Z</time>
      </trkpt>
      <trkpt lat="48.85231" lon="2.34129">
        <ele>81.7</ele>
        <time>2015-01-05T19:25:18.725Z</time>
      </trkpt>
      <trkpt lat="48.8523" lon="2.34117">
        <ele>81.9</ele>
        <time>2015-01-05T19:25:20.767Z</time>
      </trkpt>
      <trkpt lat="48.8523" lon="2.3411">
        <ele>82.1</ele>
        <time>2015-01-05T19:25:21.666Z</time>
      </trkpt>
      <trkpt lat="48.85231" lon="2.34098">
        <ele>82.4</ele>
        <time>2015-01-05T19:25:23.743Z</time>
      </trkpt>
      <trkpt lat="48.85232" lon="2.34091">
        <ele>82.4</ele>
        <time>2015-01-05T19:25:24.752Z</time>
      </trkpt>
      <trkpt lat="48.85232" lon="2.34085">
        <ele>82.5</ele>
        <time>2015-01-05T19:25:25.667Z</time>
      </trkpt>
      <trkpt lat="48.85233" lon="2.34074">
        <ele>84.3</ele>
        <time>2015-01-05T19:25:26.697Z</time>
      </trkpt>
      <trkpt lat="48.8523" lon="2.34064">
        <ele>84.4</ele>
        <time>2015-01-05T19:25:28.724Z</time>
      </trkpt>
      <trkpt lat="48.85228" lon="2.34061">
        <ele>84.1</ele>
        <time>2015-01-05T19:25:29.683Z</time>
      </trkpt>
      <trkpt lat="48.85224" lon="2.34051">
        <ele>83.6</ele>
        <time>2015-01-05T19:25:33.707Z</time>
      </trkpt>
      <trkpt lat="48.85223" lon="2.34048">
        <ele>83.6</ele>
        <time>2015-01-05T19:25:34.688Z</time>
      </trkpt>
      <trkpt lat="48.85218" lon="2.3404">
        <ele>84</ele>
        <time>2015-01-05T19:25:38.800Z</time>
      </trkpt>
      <trkpt lat="48.85217" lon="2.34039">
        <ele>83.9</ele>
        <time>2015-01-05T19:25:39.665Z</time>
      </trkpt>
      <trkpt lat="48.85216" lon="2.34038">
        <ele>84</ele>
        <time>2015-01-05T19:25:40.701Z</time>
      </trkpt>
      <trkpt lat="48.85215" lon="2.34039">
        <ele>84.1</ele>
        <time>2015-01-05T19:25:41.710Z</time>
      </trkpt>
      <trkpt lat="48.85215" lon="2.34039">
        <ele>84</ele>
        <time>2015-01-05T19:25:42.726Z</time>
      </trkpt>
      <trkpt lat="48.85215" lon="2.34039">
        <ele>83.7</ele>
        <time>2015-01-05T19:25:43.741Z</time>
      </trkpt>
      <trkpt lat="48.8521" lon="2.34037">
        <ele>83.9</ele>
        <time>2015-01-05T19:25:53.708Z</time>
      </trkpt>
      <trkpt lat="48.85199" lon="2.34031">
        <ele>85</ele>
        <time>2015-01-05T19:25:54.721Z</time>
      </trkpt>
      <trkpt lat="48.85198" lon="2.34021">
        <ele>84.3</ele>
        <time>2015-01-05T19:25:58.658Z</time>
      </trkpt>
      <trkpt lat="48.85197" lon="2.34018">
        <ele>84.1</ele>
        <time>2015-01-05T19:25:59.661Z</time>
      </trkpt>
      <trkpt lat="48.85194" lon="2.34006">
        <ele>83.5</ele>
        <time>2015-01-05T19:26:02.725Z</time>
      </trkpt>
      <trkpt lat="48.85192" lon="2.34004">
        <ele>83.5</ele>
        <time>2015-01-05T19:26:03.663Z</time>
      </trkpt>
      <trkpt lat="48.85187" lon="2.34001">
        <ele>83.5</ele>
        <time>2015-01-05T19:26:07.771Z</time>
      </trkpt>
      <trkpt lat="48.85182" lon="2.33998">
        <ele>83.5</ele>
        <time>2015-01-05T19:26:08.776Z</time>
      </trkpt>
      <trkpt lat="48.85179" lon="2.33986">
        <ele>86.3</ele>
        <time>2015-01-05T19:26:20.769Z</time>
      </trkpt>
      <trkpt lat="48.85179" lon="2.33982">
        <ele>86.1</ele>
        <time>2015-01-05T19:26:21.654Z</time>
      </trkpt>
      <trkpt lat="48.8518" lon="2.33971">
        <ele>86</ele>
        <time>2015-01-05T19:26:24.710Z</time>
      </trkpt>
      <trkpt lat="48.8518" lon="2.33968">
        <ele>86</ele>
        <time>2015-01-05T19:26:25.757Z</time>
      </trkpt>
      <trkpt lat="48.8518" lon="2.33955">
        <ele>86.8</ele>
        <time>2015-01-05T19:26:32.719Z</time>
      </trkpt>
      <trkpt lat="48.85178" lon="2.33953">
        <ele>87.4</ele>
        <time>2015-01-05T19:26:33.652Z</time>
      </trkpt>
      <trkpt lat="48.85173" lon="2.33952">
        <ele>87.5</ele>
        <time>2015-01-05T19:26:34.677Z</time>
      </trkpt>
      <trkpt lat="48.85168" lon="2.33952">
        <ele>87.5</ele>
        <time>2015-01-05T19:26:35.682Z</time>
      </trkpt>
      <trkpt lat="48.85115" lon="2.33955">
        <ele>87.4</ele>
        <time>2015-01-05T19:26:51.690Z</time>
      </trkpt>
      <trkpt lat="48.85076" lon="2.33974">
        <ele>88.2</ele>
        <time>2015-01-05T19:27:03.653Z</time>
      </trkpt>
      <trkpt lat="48.85072" lon="2.33979">
        <ele>88.4</ele>
        <time>2015-01-05T19:27:06.538Z</time>
      </trkpt>
      <trkpt lat="48.85068" lon="2.33981">
        <ele>88.5</ele>
        <time>2015-01-05T19:27:06.685Z</time>
      </trkpt>
      <trkpt lat="48.8506" lon="2.33983">
        <ele>88.8</ele>
        <time>2015-01-05T19:27:08.680Z</time>
      </trkpt>
      <trkpt lat="48.85054" lon="2.33984">
        <ele>88.8</ele>
        <time>2015-01-05T19:27:09.720Z</time>
      </trkpt>
      <trkpt lat="48.85049" lon="2.33985">
        <ele>88.8</ele>
        <time>2015-01-05T19:27:10.649Z</time>
      </trkpt>
      <trkpt lat="48.85044" lon="2.33985">
        <ele>88.9</ele>
        <time>2015-01-05T19:27:11.668Z</time>
      </trkpt>
      <trkpt lat="48.85036" lon="2.33985">
        <ele>88.8</ele>
        <time>2015-01-05T19:27:12.669Z</time>
      </trkpt>
      <trkpt lat="48.8503" lon="2.33987">
        <ele>88.9</ele>
        <time>2015-01-05T19:27:13.679Z</time>
      </trkpt>
      <trkpt lat="48.85024" lon="2.33996">
        <ele>89</ele>
        <time>2015-01-05T19:27:16.698Z</time>
      </trkpt>
      <trkpt lat="48.85023" lon="2.33998">
        <ele>89</ele>
        <time>2015-01-05T19:27:17.650Z</time>
      </trkpt>
      <trkpt lat="48.85017" lon="2.34003">
        <ele>88.9</ele>
        <time>2015-01-05T19:27:19.693Z</time>
      </trkpt>
      <trkpt lat="48.85014" lon="2.34006">
        <ele>88.9</ele>
        <time>2015-01-05T19:27:20.699Z</time>
      </trkpt>
      <trkpt lat="48.85009" lon="2.34015">
        <ele>89.4</ele>
        <time>2015-01-05T19:27:23.729Z</time>
      </trkpt>
      <trkpt lat="48.85009" lon="2.34019">
        <ele>89.9</ele>
        <time>2015-01-05T19:27:24.644Z</time>
      </trkpt>
      <trkpt lat="48.85008" lon="2.3403">
        <ele>90.5</ele>
        <time>2015-01-05T19:27:27.779Z</time>
      </trkpt>
      <trkpt lat="48.85008" lon="2.34033">
        <ele>90.7</ele>
        <time>2015-01-05T19:27:28.694Z</time>
      </trkpt>
      <trkpt lat="48.85009" lon="2.34046">
        <ele>91</ele>
        <time>2015-01-05T19:27:32.866Z</time>
      </trkpt>
      <trkpt lat="48.8501" lon="2.34049">
        <ele>91.1</ele>
        <time>2015-01-05T19:27:33.633Z</time>
      </trkpt>
      <trkpt lat="48.85012" lon="2.3406">
        <ele>91.2</ele>
        <time>2015-01-05T19:27:36.654Z</time>
      </trkpt>
      <trkpt lat="48.85013" lon="2.34064">
        <ele>91.1</ele>
        <time>2015-01-05T19:27:37.682Z</time>
      </trkpt>
      <trkpt lat="48.85015" lon="2.34077">
        <ele>91</ele>
        <time>2015-01-05T19:27:40.706Z</time>
      </trkpt>
      <trkpt lat="48.85015" lon="2.3408">
        <ele>91</ele>
        <time>2015-01-05T19:27:41.725Z</time>
      </trkpt>
      <trkpt lat="48.85016" lon="2.34093">
        <ele>91.4</ele>
        <time>2015-01-05T19:27:44.839Z</time>
      </trkpt>
      <trkpt lat="48.85016" lon="2.34098">
        <ele>91.5</ele>
        <time>2015-01-05T19:27:45.652Z</time>
      </trkpt>
      <trkpt lat="48.85017" lon="2.34108">
        <ele>91.5</ele>
        <time>2015-01-05T19:27:48.143Z</time>
      </trkpt>
      <trkpt lat="48.85017" lon="2.34113">
        <ele>91.5</ele>
        <time>2015-01-05T19:27:48.652Z</time>
      </trkpt>
      <trkpt lat="48.85018" lon="2.34122">
        <ele>91.5</ele>
        <time>2015-01-05T19:27:50.666Z</time>
      </trkpt>
      <trkpt lat="48.8502" lon="2.34127">
        <ele>91.3</ele>
        <time>2015-01-05T19:27:51.661Z</time>
      </trkpt>
      <trkpt lat="48.85024" lon="2.34137">
        <ele>91</ele>
        <time>2015-01-05T19:27:53.710Z</time>
      </trkpt>
      <trkpt lat="48.85026" lon="2.34141">
        <ele>91</ele>
        <time>2015-01-05T19:27:54.730Z</time>
      </trkpt>
      <trkpt lat="48.85025" lon="2.34148">
        <ele>90.8</ele>
        <time>2015-01-05T19:27:56.719Z</time>
      </trkpt>
      <trkpt lat="48.85024" lon="2.34154">
        <ele>91</ele>
        <time>2015-01-05T19:27:57.698Z</time>
      </trkpt>
      <trkpt lat="48.85023" lon="2.34166">
        <ele>91.1</ele>
        <time>2015-01-05T19:27:59.648Z</time>
      </trkpt>
      <trkpt lat="48.85024" lon="2.34171">
        <ele>90.9</ele>
        <time>2015-01-05T19:28:00.652Z</time>
      </trkpt>
      <trkpt lat="48.85024" lon="2.34183">
        <ele>89.5</ele>
        <time>2015-01-05T19:28:02.741Z</time>
      </trkpt>
      <trkpt lat="48.85025" lon="2.3419">
        <ele>88.5</ele>
        <time>2015-01-05T19:28:03.697Z</time>
      </trkpt>
      <trkpt lat="48.85025" lon="2.34197">
        <ele>87.6</ele>
        <time>2015-01-05T19:28:05.428Z</time>
      </trkpt>
      <trkpt lat="48.85026" lon="2.34204">
        <ele>86.2</ele>
        <time>2015-01-05T19:28:05.641Z</time>
      </trkpt>
      <trkpt lat="48.85028" lon="2.34211">
        <ele>85.4</ele>
        <time>2015-01-05T19:28:06.652Z</time>
      </trkpt>
      <trkpt lat="48.85028" lon="2.34217">
        <ele>84.7</ele>
        <time>2015-01-05T19:28:07.687Z</time>
      </trkpt>
      <trkpt lat="48.85029" lon="2.34231">
        <ele>85.3</ele>
        <time>2015-01-05T19:28:09.706Z</time>
      </trkpt>
      <trkpt lat="48.85029" lon="2.34236">
        <ele>85.2</ele>
        <time>2015-01-05T19:28:10.720Z</time>
      </trkpt>
      <trkpt lat="48.85028" lon="2.34245">
        <ele>84.7</ele>
        <time>2015-01-05T19:28:13.514Z</time>
      </trkpt>
      <trkpt lat="48.85026" lon="2.3425">
        <ele>84.5</ele>
        <time>2015-01-05T19:28:13.659Z</time>
      </trkpt>
      <trkpt lat="48.85024" lon="2.34259">
        <ele>84.5</ele>
        <time>2015-01-05T19:28:15.727Z</time>
      </trkpt>
      <trkpt lat="48.85022" lon="2.34263">
        <ele>84.6</ele>
        <time>2015-01-05T19:28:16.741Z</time>
      </trkpt>
      <trkpt lat="48.85019" lon="2.34272">
        <ele>85</ele>
        <time>2015-01-05T19:28:18.661Z</time>
      </trkpt>
      <trkpt lat="48.85017" lon="2.34277">
        <ele>85.3</ele>
        <time>2015-01-05T19:28:19.677Z</time>
      </trkpt>
      <trkpt lat="48.85014" lon="2.34284">
        <ele>85.3</ele>
        <time>2015-01-05T19:28:21.727Z</time>
      </trkpt>
      <trkpt lat="48.85011" lon="2.34287">
        <ele>85.3</ele>
        <time>2015-01-05T19:28:22.737Z</time>
      </trkpt>
      <trkpt lat="48.85006" lon="2.34298">
        <ele>85.2</ele>
        <time>2015-01-05T19:28:25.687Z</time>
      </trkpt>
      <trkpt lat="48.85006" lon="2.34302">
        <ele>85.2</ele>
        <time>2015-01-05T19:28:26.702Z</time>
      </trkpt>
      <trkpt lat="48.85005" lon="2.34312">
        <ele>84.4</ele>
        <time>2015-01-05T19:28:28.717Z</time>
      </trkpt>
      <trkpt lat="48.85003" lon="2.34317">
        <ele>84.3</ele>
        <time>2015-01-05T19:28:29.728Z</time>
      </trkpt>
      <trkpt lat="48.85001" lon="2.34327">
        <ele>83.8</ele>
        <time>2015-01-05T19:28:31.660Z</time>
      </trkpt>
      <trkpt lat="48.85" lon="2.34331">
        <ele>83.5</ele>
        <time>2015-01-05T19:28:32.827Z</time>
      </trkpt>
      <trkpt lat="48.84997" lon="2.34339">
        <ele>82.9</ele>
        <time>2015-01-05T19:28:34.671Z</time>
      </trkpt>
      <trkpt lat="48.84995" lon="2.34343">
        <ele>82.4</ele>
        <time>2015-01-05T19:28:35.676Z</time>
      </trkpt>
      <trkpt lat="48.84991" lon="2.34355">
        <ele>81.9</ele>
        <time>2015-01-05T19:28:38.744Z</time>
      </trkpt>
      <trkpt lat="48.84989" lon="2.34359">
        <ele>81.8</ele>
        <time>2015-01-05T19:28:39.657Z</time>
      </trkpt>
      <trkpt lat="48.84986" lon="2.34367">
        <ele>81.4</ele>
        <time>2015-01-05T19:28:41.797Z</time>
      </trkpt>
      <trkpt lat="48.84984" lon="2.34372">
        <ele>81.2</ele>
        <time>2015-01-05T19:28:42.694Z</time>
      </trkpt>
      <trkpt lat="48.84981" lon="2.34381">
        <ele>81.2</ele>
        <time>2015-01-05T19:28:44.798Z</time>
      </trkpt>
      <trkpt lat="48.8498" lon="2.34386">
        <ele>81.3</ele>
        <time>2015-01-05T19:28:45.665Z</time>
      </trkpt>
      <trkpt lat="48.84978" lon="2.34397">
        <ele>81.2</ele>
        <time>2015-01-05T19:28:47.980Z</time>
      </trkpt>
      <trkpt lat="48.84976" lon="2.34402">
        <ele>81.1</ele>
        <time>2015-01-05T19:28:48.713Z</time>
      </trkpt>
      <trkpt lat="48.84973" lon="2.34411">
        <ele>81.3</ele>
        <time>2015-01-05T19:28:50.697Z</time>
      </trkpt>
      <trkpt lat="48.84971" lon="2.34416">
        <ele>81.5</ele>
        <time>2015-01-05T19:28:51.696Z</time>
      </trkpt>
      <trkpt lat="48.84968" lon="2.34427">
        <ele>81.7</ele>
        <time>2015-01-05T19:28:53.650Z</time>
      </trkpt>
      <trkpt lat="48.84966" lon="2.34433">
        <ele>81.6</ele>
        <time>2015-01-05T19:28:54.678Z</time>
      </trkpt>
      <trkpt lat="48.84963" lon="2.34443">
        <ele>81.4</ele>
        <time>2015-01-05T19:28:56.740Z</time>
      </trkpt>
      <trkpt lat="48.84962" lon="2.34449">
        <ele>81</ele>
        <time>2015-01-05T19:28:57.689Z</time>
      </trkpt>
      <trkpt lat="48.84959" lon="2.34461">
        <ele>80.4</ele>
        <time>2015-01-05T19:28:59.703Z</time>
      </trkpt>
      <trkpt lat="48.84957" lon="2.34466">
        <ele>80.3</ele>
        <time>2015-01-05T19:29:00.713Z</time>
      </trkpt>
      <trkpt lat="48.84955" lon="2.34477">
        <ele>79.9</ele>
        <time>2015-01-05T19:29:03.166Z</time>
      </trkpt>
      <trkpt lat="48.84954" lon="2.34482">
        <ele>79.9</ele>
        <time>2015-01-05T19:29:03.672Z</time>
      </trkpt>
      <trkpt lat="48.84952" lon="2.34494">
        <ele>80.7</ele>
        <time>2015-01-05T19:29:05.717Z</time>
      </trkpt>
      <trkpt lat="48.84951" lon="2.34499">
        <ele>80.7</ele>
        <time>2015-01-05T19:29:06.636Z</time>
      </trkpt>
      <trkpt lat="48.84948" lon="2.3451">
        <ele>80.9</ele>
        <time>2015-01-05T19:29:08.691Z</time>
      </trkpt>
      <trkpt lat="48.84947" lon="2.34515">
        <ele>81</ele>
        <time>2015-01-05T19:29:09.700Z</time>
      </trkpt>
      <trkpt lat="48.84944" lon="2.34526">
        <ele>81</ele>
        <time>2015-01-05T19:29:11.669Z</time>
      </trkpt>
      <trkpt lat="48.84943" lon="2.34532">
        <ele>80.9</ele>
        <time>2015-01-05T19:29:12.660Z</time>
      </trkpt>
      <trkpt lat="48.8494" lon="2.34544">
        <ele>81</ele>
        <time>2015-01-05T19:29:14.691Z</time>
      </trkpt>
      <trkpt lat="48.84939" lon="2.3455">
        <ele>81.4</ele>
        <time>2015-01-05T19:29:15.697Z</time>
      </trkpt>
      <trkpt lat="48.84935" lon="2.34561">
        <ele>81.2</ele>
        <time>2015-01-05T19:29:18.439Z</time>
      </trkpt>
      <trkpt lat="48.84934" lon="2.34567">
        <ele>81.4</ele>
        <time>2015-01-05T19:29:18.640Z</time>
      </trkpt>
      <trkpt lat="48.84932" lon="2.34578">
        <ele>81.2</ele>
        <time>2015-01-05T19:29:20.728Z</time>
      </trkpt>
      <trkpt lat="48.84931" lon="2.34583">
        <ele>81.1</ele>
        <time>2015-01-05T19:29:21.729Z</time>
      </trkpt>
      <trkpt lat="48.84929" lon="2.34593">
        <ele>80.9</ele>
        <time>2015-01-05T19:29:23.843Z</time>
      </trkpt>
      <trkpt lat="48.84928" lon="2.34598">
        <ele>81</ele>
        <time>2015-01-05T19:29:24.658Z</time>
      </trkpt>
      <trkpt lat="48.84927" lon="2.34608">
        <ele>81</ele>
        <time>2015-01-05T19:29:26.676Z</time>
      </trkpt>
      <trkpt lat="48.84926" lon="2.34613">
        <ele>81</ele>
        <time>2015-01-05T19:29:27.682Z</time>
      </trkpt>
      <trkpt lat="48.84924" lon="2.34624">
        <ele>81.3</ele>
        <time>2015-01-05T19:29:29.698Z</time>
      </trkpt>
      <trkpt lat="48.84922" lon="2.34629">
        <ele>81.5</ele>
        <time>2015-01-05T19:29:30.712Z</time>
      </trkpt>
      <trkpt lat="48.84918" lon="2.34638">
        <ele>81</ele>
        <time>2015-01-05T19:29:32.748Z</time>
      </trkpt>
      <trkpt lat="48.84915" lon="2.34641">
        <ele>81</ele>
        <time>2015-01-05T19:29:33.643Z</time>
      </trkpt>
      <trkpt lat="48.84908" lon="2.34644">
        <ele>82.5</ele>
        <time>2015-01-05T19:29:36.704Z</time>
      </trkpt>
      <trkpt lat="48.84906" lon="2.34643">
        <ele>83.1</ele>
        <time>2015-01-05T19:29:37.734Z</time>
      </trkpt>
      <trkpt lat="48.84897" lon="2.34641">
        <ele>86</ele>
        <time>2015-01-05T19:29:43.416Z</time>
      </trkpt>
      <trkpt lat="48.84895" lon="2.34641">
        <ele>85.7</ele>
        <time>2015-01-05T19:29:43.711Z</time>
      </trkpt>
      <trkpt lat="48.84887" lon="2.34643">
        <ele>86.4</ele>
        <time>2015-01-05T19:29:48.469Z</time>
      </trkpt>
      <trkpt lat="48.84885" lon="2.34644">
        <ele>86.3</ele>
        <time>2015-01-05T19:29:48.670Z</time>
      </trkpt>
      <trkpt lat="48.84878" lon="2.34647">
        <ele>87.6</ele>
        <time>2015-01-05T19:29:55.676Z</time>
      </trkpt>
      <trkpt lat="48.84876" lon="2.34648">
        <ele>87.4</ele>
        <time>2015-01-05T19:29:56.799Z</time>
      </trkpt>
      <trkpt lat="48.84867" lon="2.3465">
        <ele>87.3</ele>
        <time>2015-01-05T19:29:59.666Z</time>
      </trkpt>
      <trkpt lat="48.84864" lon="2.3465">
        <ele>87.4</ele>
        <time>2015-01-05T19:30:00.678Z</time>
      </trkpt>
      <trkpt lat="48.84857" lon="2.34649">
        <ele>87.4</ele>
        <time>2015-01-05T19:30:03.644Z</time>
      </trkpt>
      <trkpt lat="48.84854" lon="2.34648">
        <ele>87.4</ele>
        <time>2015-01-05T19:30:03.686Z</time>
      </trkpt>
      <trkpt lat="48.84845" lon="2.34648">
        <ele>87.4</ele>
        <time>2015-01-05T19:30:06.648Z</time>
      </trkpt>
      <trkpt lat="48.84824" lon="2.34664">
        <ele>86.1</ele>
        <time>2015-01-05T19:30:15.702Z</time>
      </trkpt>
      <trkpt lat="48.84817" lon="2.34671">
        <ele>86.2</ele>
        <time>2015-01-05T19:30:18.790Z</time>
      </trkpt>
      <trkpt lat="48.84816" lon="2.34673">
        <ele>86.2</ele>
        <time>2015-01-05T19:30:19.646Z</time>
      </trkpt>
      <trkpt lat="48.84814" lon="2.34685">
        <ele>86.4</ele>
        <time>2015-01-05T19:30:23.817Z</time>
      </trkpt>
      <trkpt lat="48.84813" lon="2.34686">
        <ele>86.4</ele>
        <time>2015-01-05T19:30:24.645Z</time>
      </trkpt>
      <trkpt lat="48.8481" lon="2.34691">
        <ele>86.6</ele>
        <time>2015-01-05T19:30:28.813Z</time>
      </trkpt>
      <trkpt lat="48.8481" lon="2.34692">
        <ele>86.8</ele>
        <time>2015-01-05T19:30:30.650Z</time>
      </trkpt>
      <trkpt lat="48.8481" lon="2.34693">
        <ele>86.7</ele>
        <time>2015-01-05T19:30:31.666Z</time>
      </trkpt>
      <trkpt lat="48.84805" lon="2.34695">
        <ele>87.1</ele>
        <time>2015-01-05T19:30:39.728Z</time>
      </trkpt>
      <trkpt lat="48.84802" lon="2.34702">
        <ele>87.7</ele>
        <time>2015-01-05T19:30:40.739Z</time>
      </trkpt>
      <trkpt lat="48.84795" lon="2.3471">
        <ele>88.6</ele>
        <time>2015-01-05T19:30:45.792Z</time>
      </trkpt>
      <trkpt lat="48.84794" lon="2.34711">
        <ele>88.9</ele>
        <time>2015-01-05T19:30:46.672Z</time>
      </trkpt>
      <trkpt lat="48.84792" lon="2.34723">
        <ele>87</ele>
        <time>2015-01-05T19:31:13.364Z</time>
      </trkpt>
      <trkpt lat="48.84792" lon="2.34724">
        <ele>86.9</ele>
        <time>2015-01-05T19:31:13.770Z</time>
      </trkpt>
      <trkpt lat="48.84792" lon="2.34735">
        <ele>87.1</ele>
        <time>2015-01-05T19:31:26.682Z</time>
      </trkpt>
      <trkpt lat="48.84791" lon="2.34738">
        <ele>87.2</ele>
        <time>2015-01-05T19:31:27.621Z</time>
      </trkpt>
      <trkpt lat="48.84786" lon="2.34749">
        <ele>87.2</ele>
        <time>2015-01-05T19:31:32.935Z</time>
      </trkpt>
      <trkpt lat="48.84785" lon="2.34752">
        <ele>87.2</ele>
        <time>2015-01-05T19:31:33.708Z</time>
      </trkpt>
      <trkpt lat="48.84781" lon="2.3476">
        <ele>86.7</ele>
        <time>2015-01-05T19:31:36.722Z</time>
      </trkpt>
      <trkpt lat="48.8478" lon="2.34763">
        <ele>86.5</ele>
        <time>2015-01-05T19:31:37.722Z</time>
      </trkpt>
      <trkpt lat="48.84775" lon="2.34768">
        <ele>86.1</ele>
        <time>2015-01-05T19:31:39.650Z</time>
      </trkpt>
      <trkpt lat="48.84771" lon="2.34769">
        <ele>85.8</ele>
        <time>2015-01-05T19:31:40.657Z</time>
      </trkpt>
      <trkpt lat="48.84763" lon="2.34771">
        <ele>85.6</ele>
        <time>2015-01-05T19:31:43.101Z</time>
      </trkpt>
      <trkpt lat="48.8476" lon="2.34772">
        <ele>85.3</ele>
        <time>2015-01-05T19:31:43.685Z</time>
      </trkpt>
      <trkpt lat="48.84754" lon="2.34776">
        <ele>84.7</ele>
        <time>2015-01-05T19:31:45.728Z</time>
      </trkpt>
      <trkpt lat="48.84751" lon="2.34779">
        <ele>84.2</ele>
        <time>2015-01-05T19:31:46.679Z</time>
      </trkpt>
      <trkpt lat="48.84745" lon="2.34785">
        <ele>83.8</ele>
        <time>2015-01-05T19:31:48.701Z</time>
      </trkpt>
      <trkpt lat="48.84743" lon="2.34788">
        <ele>83.7</ele>
        <time>2015-01-05T19:31:49.705Z</time>
      </trkpt>
      <trkpt lat="48.84741" lon="2.34792">
        <ele>83.4</ele>
        <time>2015-01-05T19:31:50.723Z</time>
      </trkpt>
      <trkpt lat="48.84745" lon="2.34802">
        <ele>82.8</ele>
        <time>2015-01-05T19:31:51.733Z</time>
      </trkpt>
      <trkpt lat="48.84739" lon="2.34806">
        <ele>82.7</ele>
        <time>2015-01-05T19:31:53.248Z</time>
      </trkpt>
      <trkpt lat="48.84735" lon="2.34807">
        <ele>82.4</ele>
        <time>2015-01-05T19:31:54.652Z</time>
      </trkpt>
      <trkpt lat="48.84732" lon="2.34818">
        <ele>81.4</ele>
        <time>2015-01-05T19:31:58.310Z</time>
      </trkpt>
      <trkpt lat="48.8473" lon="2.34821">
        <ele>81.5</ele>
        <time>2015-01-05T19:31:58.645Z</time>
      </trkpt>
      <trkpt lat="48.84725" lon="2.34829">
        <ele>81.8</ele>
        <time>2015-01-05T19:32:01.792Z</time>
      </trkpt>
      <trkpt lat="48.84722" lon="2.34837">
        <ele>83.5</ele>
        <time>2015-01-05T19:32:02.719Z</time>
      </trkpt>
      <trkpt lat="48.84717" lon="2.34845">
        <ele>84.8</ele>
        <time>2015-01-05T19:32:04.669Z</time>
      </trkpt>
      <trkpt lat="48.84715" lon="2.34848">
        <ele>84.8</ele>
        <time>2015-01-05T19:32:05.652Z</time>
      </trkpt>
      <trkpt lat="48.8471" lon="2.34853">
        <ele>84.9</ele>
        <time>2015-01-05T19:32:08.440Z</time>
      </trkpt>
      <trkpt lat="48.84707" lon="2.34855">
        <ele>84.8</ele>
        <time>2015-01-05T19:32:08.776Z</time>
      </trkpt>
      <trkpt lat="48.84699" lon="2.3486">
        <ele>84.6</ele>
        <time>2015-01-05T19:32:11.715Z</time>
      </trkpt>
      <trkpt lat="48.84697" lon="2.34861">
        <ele>84.5</ele>
        <time>2015-01-05T19:32:12.612Z</time>
      </trkpt>
      <trkpt lat="48.84689" lon="2.34865">
        <ele>84.3</ele>
        <time>2015-01-05T19:32:15.680Z</time>
      </trkpt>
      <trkpt lat="48.84687" lon="2.34867">
        <ele>84.4</ele>
        <time>2015-01-05T19:32:16.688Z</time>
      </trkpt>
      <trkpt lat="48.8468" lon="2.34869">
        <ele>84.6</ele>
        <time>2015-01-05T19:32:18.614Z</time>
      </trkpt>
      <trkpt lat="48.84677" lon="2.34871">
        <ele>84.7</ele>
        <time>2015-01-05T19:32:19.682Z</time>
      </trkpt>
      <trkpt lat="48.8467" lon="2.34876">
        <ele>84.9</ele>
        <time>2015-01-05T19:32:21.707Z</time>
      </trkpt>
      <trkpt lat="48.84666" lon="2.34881">
        <ele>85.2</ele>
        <time>2015-01-05T19:32:22.721Z</time>
      </trkpt>
      <trkpt lat="48.8466" lon="2.34883">
        <ele>85.4</ele>
        <time>2015-01-05T19:32:23.617Z</time>
      </trkpt>
      <trkpt lat="48.84655" lon="2.34885">
        <ele>85.7</ele>
        <time>2015-01-05T19:32:24.652Z</time>
      </trkpt>
      <trkpt lat="48.84647" lon="2.34888">
        <ele>86</ele>
        <time>2015-01-05T19:32:26.752Z</time>
      </trkpt>
      <trkpt lat="48.84642" lon="2.34889">
        <ele>85.8</ele>
        <time>2015-01-05T19:32:27.649Z</time>
      </trkpt>
      <trkpt lat="48.84636" lon="2.34892">
        <ele>85.9</ele>
        <time>2015-01-05T19:32:29.670Z</time>
      </trkpt>
      <trkpt lat="48.84632" lon="2.34893">
        <ele>86</ele>
        <time>2015-01-05T19:32:30.700Z</time>
      </trkpt>
      <trkpt lat="48.84626" lon="2.34896">
        <ele>87</ele>
        <time>2015-01-05T19:32:32.803Z</time>
      </trkpt>
      <trkpt lat="48.84622" lon="2.34901">
        <ele>87.4</ele>
        <time>2015-01-05T19:32:33.751Z</time>
      </trkpt>
      <trkpt lat="48.84616" lon="2.34907">
        <ele>88.1</ele>
        <time>2015-01-05T19:32:35.653Z</time>
      </trkpt>
      <trkpt lat="48.84614" lon="2.3491">
        <ele>87.9</ele>
        <time>2015-01-05T19:32:36.671Z</time>
      </trkpt>
      <trkpt lat="48.84609" lon="2.34921">
        <ele>87.8</ele>
        <time>2015-01-05T19:32:39.706Z</time>
      </trkpt>
      <trkpt lat="48.84608" lon="2.34925">
        <ele>87.7</ele>
        <time>2015-01-05T19:32:40.612Z</time>
      </trkpt>
      <trkpt lat="48.84605" lon="2.34934">
        <ele>87.5</ele>
        <time>2015-01-05T19:32:42.926Z</time>
      </trkpt>
      <trkpt lat="48.84604" lon="2.34939">
        <ele>87.4</ele>
        <time>2015-01-05T19:32:43.683Z</time>
      </trkpt>
      <trkpt lat="48.84601" lon="2.34949">
        <ele>87.4</ele>
        <time>2015-01-05T19:32:45.693Z</time>
      </trkpt>
      <trkpt lat="48.846" lon="2.34954">
        <ele>87.5</ele>
        <time>2015-01-05T19:32:46.694Z</time>
      </trkpt>
      <trkpt lat="48.84596" lon="2.34966">
        <ele>87.5</ele>
        <time>2015-01-05T19:32:48.712Z</time>
      </trkpt>
      <trkpt lat="48.84596" lon="2.34972">
        <ele>87.6</ele>
        <time>2015-01-05T19:32:49.713Z</time>
      </trkpt>
      <trkpt lat="48.84595" lon="2.34985">
        <ele>87.6</ele>
        <time>2015-01-05T19:32:51.616Z</time>
      </trkpt>
      <trkpt lat="48.84595" lon="2.34993">
        <ele>87.6</ele>
        <time>2015-01-05T19:32:52.643Z</time>
      </trkpt>
      <trkpt lat="48.84595" lon="2.35">
        <ele>87.6</ele>
        <time>2015-01-05T19:32:53.660Z</time>
      </trkpt>
      <trkpt lat="48.84595" lon="2.35008">
        <ele>87.6</ele>
        <time>2015-01-05T19:32:54.674Z</time>
      </trkpt>
      <trkpt lat="48.84594" lon="2.35015">
        <ele>87.7</ele>
        <time>2015-01-05T19:32:55.695Z</time>
      </trkpt>
      <trkpt lat="48.84594" lon="2.35022">
        <ele>87.8</ele>
        <time>2015-01-05T19:32:56.711Z</time>
      </trkpt>
      <trkpt lat="48.84597" lon="2.35033">
        <ele>88.4</ele>
        <time>2015-01-05T19:32:58.657Z</time>
      </trkpt>
      <trkpt lat="48.84599" lon="2.35037">
        <ele>88.7</ele>
        <time>2015-01-05T19:32:59.666Z</time>
      </trkpt>
      <trkpt lat="48.84603" lon="2.35046">
        <ele>93.6</ele>
        <time>2015-01-05T19:33:04.730Z</time>
      </trkpt>
      <trkpt lat="48.84602" lon="2.35047">
        <ele>94.8</ele>
        <time>2015-01-05T19:33:05.743Z</time>
      </trkpt>
      <trkpt lat="48.84602" lon="2.35048">
        <ele>95.9</ele>
        <time>2015-01-05T19:33:06.685Z</time>
      </trkpt>
      <trkpt lat="48.84602" lon="2.3506">
        <ele>99.1</ele>
        <time>2015-01-05T19:33:17.656Z</time>
      </trkpt>
      <trkpt lat="48.84605" lon="2.35064">
        <ele>99.1</ele>
        <time>2015-01-05T19:33:18.685Z</time>
      </trkpt>
      <trkpt lat="48.84611" lon="2.35072">
        <ele>99.5</ele>
        <time>2015-01-05T19:33:20.716Z</time>
      </trkpt>
      <trkpt lat="48.84615" lon="2.35077">
        <ele>99.8</ele>
        <time>2015-01-05T19:33:21.646Z</time>
      </trkpt>
      <trkpt lat="48.84621" lon="2.35084">
        <ele>100</ele>
        <time>2015-01-05T19:33:23.640Z</time>
      </trkpt>
      <trkpt lat="48.84625" lon="2.35088">
        <ele>100.4</ele>
        <time>2015-01-05T19:33:24.741Z</time>
      </trkpt>
      <trkpt lat="48.84632" lon="2.35096">
        <ele>100.6</ele>
        <time>2015-01-05T19:33:26.681Z</time>
      </trkpt>
      <trkpt lat="48.84636" lon="2.351">
        <ele>100.8</ele>
        <time>2015-01-05T19:33:27.708Z</time>
      </trkpt>
      <trkpt lat="48.84641" lon="2.35106">
        <ele>100.8</ele>
        <time>2015-01-05T19:33:29.647Z</time>
      </trkpt>
      <trkpt lat="48.84643" lon="2.3511">
        <ele>100.9</ele>
        <time>2015-01-05T19:33:30.673Z</time>
      </trkpt>
      <trkpt lat="48.84649" lon="2.35117">
        <ele>101.5</ele>
        <time>2015-01-05T19:33:33.730Z</time>
      </trkpt>
      <trkpt lat="48.84651" lon="2.35121">
        <ele>102.1</ele>
        <time>2015-01-05T19:33:34.673Z</time>
      </trkpt>
      <trkpt lat="48.84657" lon="2.35131">
        <ele>102.7</ele>
        <time>2015-01-05T19:33:37.643Z</time>
      </trkpt>
      <trkpt lat="48.84659" lon="2.35133">
        <ele>102.9</ele>
        <time>2015-01-05T19:33:38.662Z</time>
      </trkpt>
      <trkpt lat="48.84659" lon="2.35145">
        <ele>101.3</ele>
        <time>2015-01-05T19:33:46.688Z</time>
      </trkpt>
      <trkpt lat="48.84659" lon="2.35147">
        <ele>101.1</ele>
        <time>2015-01-05T19:33:47.690Z</time>
      </trkpt>
      <trkpt lat="48.84659" lon="2.35147">
        <ele>100.8</ele>
        <time>2015-01-05T19:33:48.644Z</time>
      </trkpt>
      <trkpt lat="48.84658" lon="2.3515">
        <ele>100.5</ele>
        <time>2015-01-05T19:33:53.811Z</time>
      </trkpt>
      <trkpt lat="48.84656" lon="2.35155">
        <ele>100.5</ele>
        <time>2015-01-05T19:33:54.666Z</time>
      </trkpt>
      <trkpt lat="48.84661" lon="2.35163">
        <ele>101.7</ele>
        <time>2015-01-05T19:33:59.681Z</time>
      </trkpt>
      <trkpt lat="48.84662" lon="2.35165">
        <ele>102</ele>
        <time>2015-01-05T19:34:00.700Z</time>
      </trkpt>
      <trkpt lat="48.84668" lon="2.35171">
        <ele>102.8</ele>
        <time>2015-01-05T19:34:03.666Z</time>
      </trkpt>
      <trkpt lat="48.8467" lon="2.35173">
        <ele>102.8</ele>
        <time>2015-01-05T19:34:04.703Z</time>
      </trkpt>
      <trkpt lat="48.84675" lon="2.3518">
        <ele>102.8</ele>
        <time>2015-01-05T19:34:06.733Z</time>
      </trkpt>
      <trkpt lat="48.84677" lon="2.35183">
        <ele>102.5</ele>
        <time>2015-01-05T19:34:07.746Z</time>
      </trkpt>
      <trkpt lat="48.84682" lon="2.35189">
        <ele>103.3</ele>
        <time>2015-01-05T19:34:09.653Z</time>
      </trkpt>
      <trkpt lat="48.84685" lon="2.35192">
        <ele>103.5</ele>
        <time>2015-01-05T19:34:10.672Z</time>
      </trkpt>
      <trkpt lat="48.84692" lon="2.35199">
        <ele>104.1</ele>
        <time>2015-01-05T19:34:13.724Z</time>
      </trkpt>
      <trkpt lat="48.84695" lon="2.35201">
        <ele>104.3</ele>
        <time>2015-01-05T19:34:14.740Z</time>
      </trkpt>
      <trkpt lat="48.84702" lon="2.35209">
        <ele>104.9</ele>
        <time>2015-01-05T19:34:17.695Z</time>
      </trkpt>
      <trkpt lat="48.84704" lon="2.35211">
        <ele>104.9</ele>
        <time>2015-01-05T19:34:18.709Z</time>
      </trkpt>
      <trkpt lat="48.8471" lon="2.35219">
        <ele>105.1</ele>
        <time>2015-01-05T19:34:21.701Z</time>
      </trkpt>
      <trkpt lat="48.84712" lon="2.35222">
        <ele>105.1</ele>
        <time>2015-01-05T19:34:22.714Z</time>
      </trkpt>
      <trkpt lat="48.84717" lon="2.35229">
        <ele>105.6</ele>
        <time>2015-01-05T19:34:24.653Z</time>
      </trkpt>
      <trkpt lat="48.84719" lon="2.35233">
        <ele>105.7</ele>
        <time>2015-01-05T19:34:25.668Z</time>
      </trkpt>
      <trkpt lat="48.84724" lon="2.3524">
        <ele>107</ele>
        <time>2015-01-05T19:34:27.675Z</time>
      </trkpt>
      <trkpt lat="48.84726" lon="2.35242">
        <ele>107.3</ele>
        <time>2015-01-05T19:34:28.705Z</time>
      </trkpt>
      <trkpt lat="48.8473" lon="2.3525">
        <ele>108.5</ele>
        <time>2015-01-05T19:34:30.656Z</time>
      </trkpt>
      <trkpt lat="48.84733" lon="2.35253">
        <ele>109.1</ele>
        <time>2015-01-05T19:34:31.663Z</time>
      </trkpt>
      <trkpt lat="48.84739" lon="2.35259">
        <ele>109.4</ele>
        <time>2015-01-05T19:34:33.737Z</time>
      </trkpt>
      <trkpt lat="48.84742" lon="2.35262">
        <ele>109.4</ele>
        <time>2015-01-05T19:34:34.663Z</time>
      </trkpt>
      <trkpt lat="48.84747" lon="2.35268">
        <ele>108.7</ele>
        <time>2015-01-05T19:34:36.662Z</time>
      </trkpt>
      <trkpt lat="48.84747" lon="2.35274">
        <ele>107.9</ele>
        <time>2015-01-05T19:34:37.700Z</time>
      </trkpt>
      <trkpt lat="48.84746" lon="2.35283">
        <ele>108.1</ele>
        <time>2015-01-05T19:34:38.721Z</time>
      </trkpt>
      <trkpt lat="48.84746" lon="2.35292">
        <ele>108</ele>
        <time>2015-01-05T19:34:39.667Z</time>
      </trkpt>
      <trkpt lat="48.84748" lon="2.353">
        <ele>108.3</ele>
        <time>2015-01-05T19:34:40.682Z</time>
      </trkpt>
      <trkpt lat="48.84749" lon="2.35306">
        <ele>108.7</ele>
        <time>2015-01-05T19:34:41.697Z</time>
      </trkpt>
      <trkpt lat="48.84753" lon="2.35318">
        <ele>109.4</ele>
        <time>2015-01-05T19:34:43.751Z</time>
      </trkpt>
      <trkpt lat="48.84755" lon="2.35323">
        <ele>109.9</ele>
        <time>2015-01-05T19:34:44.761Z</time>
      </trkpt>
      <trkpt lat="48.84758" lon="2.35329">
        <ele>110.3</ele>
        <time>2015-01-05T19:34:45.652Z</time>
      </trkpt>
      <trkpt lat="48.84761" lon="2.35334">
        <ele>110.7</ele>
        <time>2015-01-05T19:34:46.663Z</time>
      </trkpt>
      <trkpt lat="48.84766" lon="2.35345">
        <ele>111.2</ele>
        <time>2015-01-05T19:34:48.674Z</time>
      </trkpt>
      <trkpt lat="48.84769" lon="2.35351">
        <ele>111.5</ele>
        <time>2015-01-05T19:34:49.725Z</time>
      </trkpt>
      <trkpt lat="48.84772" lon="2.35356">
        <ele>111.8</ele>
        <time>2015-01-05T19:34:50.776Z</time>
      </trkpt>
      <trkpt lat="48.84775" lon="2.35361">
        <ele>112.2</ele>
        <time>2015-01-05T19:34:51.654Z</time>
      </trkpt>
      <trkpt lat="48.84779" lon="2.35366">
        <ele>112.4</ele>
        <time>2015-01-05T19:34:52.661Z</time>
      </trkpt>
      <trkpt lat="48.84783" lon="2.35371">
        <ele>112.4</ele>
        <time>2015-01-05T19:34:53.668Z</time>
      </trkpt>
      <trkpt lat="48.84787" lon="2.35377">
        <ele>112.9</ele>
        <time>2015-01-05T19:34:54.685Z</time>
      </trkpt>
      <trkpt lat="48.8479" lon="2.35382">
        <ele>113.2</ele>
        <time>2015-01-05T19:34:55.689Z</time>
      </trkpt>
      <trkpt lat="48.84794" lon="2.35386">
        <ele>113.6</ele>
        <time>2015-01-05T19:34:56.704Z</time>
      </trkpt>
      <trkpt lat="48.84798" lon="2.3539">
        <ele>113.8</ele>
        <time>2015-01-05T19:34:57.720Z</time>
      </trkpt>
      <trkpt lat="48.848" lon="2.35395">
        <ele>114.1</ele>
        <time>2015-01-05T19:34:58.736Z</time>
      </trkpt>
      <trkpt lat="48.84803" lon="2.35402">
        <ele>114.5</ele>
        <time>2015-01-05T19:34:59.654Z</time>
      </trkpt>
      <trkpt lat="48.84805" lon="2.35409">
        <ele>114.7</ele>
        <time>2015-01-05T19:35:00.656Z</time>
      </trkpt>
      <trkpt lat="48.84808" lon="2.35415">
        <ele>115</ele>
        <time>2015-01-05T19:35:01.662Z</time>
      </trkpt>
      <trkpt lat="48.84811" lon="2.35421">
        <ele>115.2</ele>
        <time>2015-01-05T19:35:02.733Z</time>
      </trkpt>
      <trkpt lat="48.84814" lon="2.35426">
        <ele>115.3</ele>
        <time>2015-01-05T19:35:03.728Z</time>
      </trkpt>
      <trkpt lat="48.84817" lon="2.35432">
        <ele>115.5</ele>
        <time>2015-01-05T19:35:04.736Z</time>
      </trkpt>
      <trkpt lat="48.8482" lon="2.35437">
        <ele>115.6</ele>
        <time>2015-01-05T19:35:05.740Z</time>
      </trkpt>
      <trkpt lat="48.84825" lon="2.35446">
        <ele>115.7</ele>
        <time>2015-01-05T19:35:07.653Z</time>
      </trkpt>
      <trkpt lat="48.84827" lon="2.3545">
        <ele>115.9</ele>
        <time>2015-01-05T19:35:08.886Z</time>
      </trkpt>
      <trkpt lat="48.8483" lon="2.35455">
        <ele>115.9</ele>
        <time>2015-01-05T19:35:09.694Z</time>
      </trkpt>
      <trkpt lat="48.84833" lon="2.3546">
        <ele>116.2</ele>
        <time>2015-01-05T19:35:10.705Z</time>
      </trkpt>
      <trkpt lat="48.84837" lon="2.35464">
        <ele>116.2</ele>
        <time>2015-01-05T19:35:11.712Z</time>
      </trkpt>
      <trkpt lat="48.8484" lon="2.35468">
        <ele>116.2</ele>
        <time>2015-01-05T19:35:12.713Z</time>
      </trkpt>
      <trkpt lat="48.84843" lon="2.35473">
        <ele>116.3</ele>
        <time>2015-01-05T19:35:13.683Z</time>
      </trkpt>
      <trkpt lat="48.84847" lon="2.35479">
        <ele>116.4</ele>
        <time>2015-01-05T19:35:14.709Z</time>
      </trkpt>
      <trkpt lat="48.8485" lon="2.35484">
        <ele>116.4</ele>
        <time>2015-01-05T19:35:15.835Z</time>
      </trkpt>
      <trkpt lat="48.84854" lon="2.35488">
        <ele>116.6</ele>
        <time>2015-01-05T19:35:16.667Z</time>
      </trkpt>
      <trkpt lat="48.84859" lon="2.35495">
        <ele>116.7</ele>
        <time>2015-01-05T19:35:18.979Z</time>
      </trkpt>
      <trkpt lat="48.84861" lon="2.35499">
        <ele>116.9</ele>
        <time>2015-01-05T19:35:19.669Z</time>
      </trkpt>
      <trkpt lat="48.84866" lon="2.35508">
        <ele>117.4</ele>
        <time>2015-01-05T19:35:21.796Z</time>
      </trkpt>
      <trkpt lat="48.84869" lon="2.35512">
        <ele>117.6</ele>
        <time>2015-01-05T19:35:22.698Z</time>
      </trkpt>
      <trkpt lat="48.84875" lon="2.35518">
        <ele>117.9</ele>
        <time>2015-01-05T19:35:24.670Z</time>
      </trkpt>
      <trkpt lat="48.84878" lon="2.35522">
        <ele>118</ele>
        <time>2015-01-05T19:35:25.732Z</time>
      </trkpt>
      <trkpt lat="48.84885" lon="2.3553">
        <ele>117.6</ele>
        <time>2015-01-05T19:35:27.771Z</time>
      </trkpt>
      <trkpt lat="48.84888" lon="2.35536">
        <ele>117.4</ele>
        <time>2015-01-05T19:35:28.700Z</time>
      </trkpt>
      <trkpt lat="48.84891" lon="2.35541">
        <ele>117.2</ele>
        <time>2015-01-05T19:35:29.717Z</time>
      </trkpt>
      <trkpt lat="48.84894" lon="2.35545">
        <ele>116.9</ele>
        <time>2015-01-05T19:35:30.728Z</time>
      </trkpt>
      <trkpt lat="48.84898" lon="2.35554">
        <ele>116.2</ele>
        <time>2015-01-05T19:35:32.822Z</time>
      </trkpt>
      <trkpt lat="48.84899" lon="2.35559">
        <ele>115.7</ele>
        <time>2015-01-05T19:35:33.735Z</time>
      </trkpt>
      <trkpt lat="48.84902" lon="2.35569">
        <ele>115.5</ele>
        <time>2015-01-05T19:35:35.660Z</time>
      </trkpt>
      <trkpt lat="48.84904" lon="2.35574">
        <ele>115.4</ele>
        <time>2015-01-05T19:35:36.662Z</time>
      </trkpt>
      <trkpt lat="48.84907" lon="2.3558">
        <ele>115.5</ele>
        <time>2015-01-05T19:35:38.003Z</time>
      </trkpt>
      <trkpt lat="48.8491" lon="2.35586">
        <ele>115.3</ele>
        <time>2015-01-05T19:35:38.699Z</time>
      </trkpt>
      <trkpt lat="48.84913" lon="2.35595">
        <ele>115.2</ele>
        <time>2015-01-05T19:35:40.720Z</time>
      </trkpt>
      <trkpt lat="48.84916" lon="2.356">
        <ele>115</ele>
        <time>2015-01-05T19:35:41.728Z</time>
      </trkpt>
      <trkpt lat="48.84922" lon="2.35608">
        <ele>115</ele>
        <time>2015-01-05T19:35:44.968Z</time>
      </trkpt>
      <trkpt lat="48.84923" lon="2.35609">
        <ele>114.4</ele>
        <time>2015-01-05T19:35:45.679Z</time>
      </trkpt>
      <trkpt lat="48.84931" lon="2.3561">
        <ele>110.1</ele>
        <time>2015-01-05T19:35:51.635Z</time>
      </trkpt>
      <trkpt lat="48.84933" lon="2.35609">
        <ele>109</ele>
        <time>2015-01-05T19:35:52.663Z</time>
      </trkpt>
      <trkpt lat="48.84938" lon="2.35606">
        <ele>105.5</ele>
        <time>2015-01-05T19:36:03.738Z</time>
      </trkpt>
      <trkpt lat="48.84938" lon="2.35607">
        <ele>104.6</ele>
        <time>2015-01-05T19:36:04.813Z</time>
      </trkpt>
      <trkpt lat="48.84937" lon="2.35608">
        <ele>101.2</ele>
        <time>2015-01-05T19:36:06.655Z</time>
      </trkpt>
      <trkpt lat="48.84937" lon="2.35609">
        <ele>101.2</ele>
        <time>2015-01-05T19:36:07.672Z</time>
      </trkpt>
      <trkpt lat="48.84937" lon="2.3561">
        <ele>101.3</ele>
        <time>2015-01-05T19:36:08.735Z</time>
      </trkpt>
      <trkpt lat="48.84936" lon="2.3561">
        <ele>101.3</ele>
        <time>2015-01-05T19:36:09.731Z</time>
      </trkpt>
      <trkpt lat="48.84937" lon="2.3561">
        <ele>101.2</ele>
        <time>2015-01-05T19:36:10.745Z</time>
      </trkpt>
      <trkpt lat="48.8494" lon="2.3562">
        <ele>99.4</ele>
        <time>2015-01-05T19:36:14.747Z</time>
      </trkpt>
      <trkpt lat="48.84942" lon="2.35625">
        <ele>99.2</ele>
        <time>2015-01-05T19:36:15.681Z</time>
      </trkpt>
      <trkpt lat="48.84941" lon="2.35635">
        <ele>98.5</ele>
        <time>2015-01-05T19:36:18.568Z</time>
      </trkpt>
      <trkpt lat="48.84941" lon="2.3564">
        <ele>98.3</ele>
        <time>2015-01-05T19:36:18.689Z</time>
      </trkpt>
      <trkpt lat="48.84941" lon="2.35649">
        <ele>98</ele>
        <time>2015-01-05T19:36:20.746Z</time>
      </trkpt>
      <trkpt lat="48.84941" lon="2.35655">
        <ele>97.6</ele>
        <time>2015-01-05T19:36:21.647Z</time>
      </trkpt>
      <trkpt lat="48.84941" lon="2.35666">
        <ele>97.1</ele>
        <time>2015-01-05T19:36:23.655Z</time>
      </trkpt>
      <trkpt lat="48.84942" lon="2.35671">
        <ele>96.9</ele>
        <time>2015-01-05T19:36:24.716Z</time>
      </trkpt>
      <trkpt lat="48.84945" lon="2.35683">
        <ele>96.7</ele>
        <time>2015-01-05T19:36:26.749Z</time>
      </trkpt>
      <trkpt lat="48.84947" lon="2.35689">
        <ele>96.7</ele>
        <time>2015-01-05T19:36:27.677Z</time>
      </trkpt>
      <trkpt lat="48.84951" lon="2.35701">
        <ele>96.7</ele>
        <time>2015-01-05T19:36:29.709Z</time>
      </trkpt>
      <trkpt lat="48.84952" lon="2.35707">
        <ele>96.2</ele>
        <time>2015-01-05T19:36:30.712Z</time>
      </trkpt>
      <trkpt lat="48.84953" lon="2.35715">
        <ele>96.3</ele>
        <time>2015-01-05T19:36:31.712Z</time>
      </trkpt>
      <trkpt lat="48.84955" lon="2.35721">
        <ele>96.3</ele>
        <time>2015-01-05T19:36:32.832Z</time>
      </trkpt>
      <trkpt lat="48.84957" lon="2.35728">
        <ele>96</ele>
        <time>2015-01-05T19:36:33.684Z</time>
      </trkpt>
      <trkpt lat="48.84959" lon="2.35735">
        <ele>95.7</ele>
        <time>2015-01-05T19:36:34.698Z</time>
      </trkpt>
      <trkpt lat="48.8496" lon="2.35741">
        <ele>95.7</ele>
        <time>2015-01-05T19:36:35.717Z</time>
      </trkpt>
      <trkpt lat="48.84962" lon="2.35747">
        <ele>95.4</ele>
        <time>2015-01-05T19:36:36.718Z</time>
      </trkpt>
      <trkpt lat="48.84966" lon="2.35759">
        <ele>94.9</ele>
        <time>2015-01-05T19:36:38.701Z</time>
      </trkpt>
      <trkpt lat="48.84967" lon="2.35766">
        <ele>94.7</ele>
        <time>2015-01-05T19:36:39.695Z</time>
      </trkpt>
      <trkpt lat="48.84971" lon="2.35778">
        <ele>94.4</ele>
        <time>2015-01-05T19:36:41.659Z</time>
      </trkpt>
      <trkpt lat="48.84972" lon="2.35784">
        <ele>94.3</ele>
        <time>2015-01-05T19:36:42.654Z</time>
      </trkpt>
      <trkpt lat="48.84974" lon="2.35791">
        <ele>94.1</ele>
        <time>2015-01-05T19:36:43.681Z</time>
      </trkpt>
      <trkpt lat="48.84976" lon="2.35797">
        <ele>93.9</ele>
        <time>2015-01-05T19:36:44.695Z</time>
      </trkpt>
      <trkpt lat="48.84978" lon="2.35804">
        <ele>93.9</ele>
        <time>2015-01-05T19:36:45.699Z</time>
      </trkpt>
      <trkpt lat="48.84981" lon="2.3581">
        <ele>93.6</ele>
        <time>2015-01-05T19:36:46.708Z</time>
      </trkpt>
      <trkpt lat="48.84983" lon="2.35816">
        <ele>93.7</ele>
        <time>2015-01-05T19:36:47.720Z</time>
      </trkpt>
      <trkpt lat="48.84985" lon="2.35822">
        <ele>93.6</ele>
        <time>2015-01-05T19:36:48.725Z</time>
      </trkpt>
      <trkpt lat="48.84989" lon="2.35834">
        <ele>93.5</ele>
        <time>2015-01-05T19:36:50.743Z</time>
      </trkpt>
      <trkpt lat="48.8499" lon="2.35841">
        <ele>93.2</ele>
        <time>2015-01-05T19:36:51.752Z</time>
      </trkpt>
      <trkpt lat="48.84994" lon="2.35853">
        <ele>92.7</ele>
        <time>2015-01-05T19:36:53.659Z</time>
      </trkpt>
      <trkpt lat="48.84995" lon="2.35859">
        <ele>92.9</ele>
        <time>2015-01-05T19:36:54.683Z</time>
      </trkpt>
      <trkpt lat="48.85" lon="2.3587">
        <ele>93.3</ele>
        <time>2015-01-05T19:36:56.711Z</time>
      </trkpt>
      <trkpt lat="48.85002" lon="2.35875">
        <ele>93.3</ele>
        <time>2015-01-05T19:36:57.724Z</time>
      </trkpt>
      <trkpt lat="48.85005" lon="2.35887">
        <ele>93.2</ele>
        <time>2015-01-05T19:36:59.650Z</time>
      </trkpt>
      <trkpt lat="48.85007" lon="2.35894">
        <ele>93.3</ele>
        <time>2015-01-05T19:37:00.680Z</time>
      </trkpt>
      <trkpt lat="48.85009" lon="2.359">
        <ele>93.2</ele>
        <time>2015-01-05T19:37:01.688Z</time>
      </trkpt>
      <trkpt lat="48.85011" lon="2.35907">
        <ele>93</ele>
        <time>2015-01-05T19:37:02.779Z</time>
      </trkpt>
      <trkpt lat="48.85013" lon="2.35913">
        <ele>93.2</ele>
        <time>2015-01-05T19:37:03.706Z</time>
      </trkpt>
      <trkpt lat="48.85016" lon="2.35919">
        <ele>93.3</ele>
        <time>2015-01-05T19:37:04.719Z</time>
      </trkpt>
      <trkpt lat="48.85018" lon="2.35926">
        <ele>93.3</ele>
        <time>2015-01-05T19:37:05.683Z</time>
      </trkpt>
      <trkpt lat="48.8502" lon="2.35932">
        <ele>93.3</ele>
        <time>2015-01-05T19:37:06.651Z</time>
      </trkpt>
      <trkpt lat="48.85023" lon="2.35944">
        <ele>93.1</ele>
        <time>2015-01-05T19:37:08.677Z</time>
      </trkpt>
      <trkpt lat="48.85025" lon="2.3595">
        <ele>93.1</ele>
        <time>2015-01-05T19:37:09.693Z</time>
      </trkpt>
      <trkpt lat="48.85029" lon="2.35962">
        <ele>93</ele>
        <time>2015-01-05T19:37:11.641Z</time>
      </trkpt>
      <trkpt lat="48.85031" lon="2.35967">
        <ele>92.8</ele>
        <time>2015-01-05T19:37:12.659Z</time>
      </trkpt>
      <trkpt lat="48.85035" lon="2.35979">
        <ele>92.7</ele>
        <time>2015-01-05T19:37:14.686Z</time>
      </trkpt>
      <trkpt lat="48.85036" lon="2.35986">
        <ele>92.3</ele>
        <time>2015-01-05T19:37:15.696Z</time>
      </trkpt>
      <trkpt lat="48.85037" lon="2.35992">
        <ele>92</ele>
        <time>2015-01-05T19:37:16.649Z</time>
      </trkpt>
      <trkpt lat="48.85039" lon="2.35998">
        <ele>91.8</ele>
        <time>2015-01-05T19:37:17.652Z</time>
      </trkpt>
      <trkpt lat="48.8504" lon="2.36005">
        <ele>91.5</ele>
        <time>2015-01-05T19:37:18.665Z</time>
      </trkpt>
      <trkpt lat="48.85042" lon="2.36013">
        <ele>91.5</ele>
        <time>2015-01-05T19:37:19.670Z</time>
      </trkpt>
      <trkpt lat="48.85043" lon="2.36019">
        <ele>91.6</ele>
        <time>2015-01-05T19:37:20.696Z</time>
      </trkpt>
      <trkpt lat="48.85045" lon="2.36026">
        <ele>91.6</ele>
        <time>2015-01-05T19:37:21.691Z</time>
      </trkpt>
      <trkpt lat="48.85049" lon="2.36038">
        <ele>91.5</ele>
        <time>2015-01-05T19:37:23.657Z</time>
      </trkpt>
      <trkpt lat="48.8505" lon="2.36043">
        <ele>91.4</ele>
        <time>2015-01-05T19:37:24.658Z</time>
      </trkpt>
      <trkpt lat="48.85053" lon="2.36055">
        <ele>91.2</ele>
        <time>2015-01-05T19:37:26.705Z</time>
      </trkpt>
      <trkpt lat="48.85055" lon="2.3606">
        <ele>91.1</ele>
        <time>2015-01-05T19:37:27.767Z</time>
      </trkpt>
      <trkpt lat="48.85057" lon="2.36069">
        <ele>90.4</ele>
        <time>2015-01-05T19:37:29.629Z</time>
      </trkpt>
      <trkpt lat="48.85059" lon="2.36073">
        <ele>90.3</ele>
        <time>2015-01-05T19:37:30.741Z</time>
      </trkpt>
      <trkpt lat="48.85062" lon="2.36081">
        <ele>90</ele>
        <time>2015-01-05T19:37:32.947Z</time>
      </trkpt>
      <trkpt lat="48.85063" lon="2.36085">
        <ele>89.9</ele>
        <time>2015-01-05T19:37:33.729Z</time>
      </trkpt>
      <trkpt lat="48.85066" lon="2.36093">
        <ele>89.8</ele>
        <time>2015-01-05T19:37:35.669Z</time>
      </trkpt>
      <trkpt lat="48.85068" lon="2.36098">
        <ele>89.7</ele>
        <time>2015-01-05T19:37:36.790Z</time>
      </trkpt>
      <trkpt lat="48.85071" lon="2.36108">
        <ele>89.5</ele>
        <time>2015-01-05T19:37:38.711Z</time>
      </trkpt>
      <trkpt lat="48.85072" lon="2.36113">
        <ele>89.4</ele>
        <time>2015-01-05T19:37:39.716Z</time>
      </trkpt>
      <trkpt lat="48.85076" lon="2.36123">
        <ele>89</ele>
        <time>2015-01-05T19:37:41.734Z</time>
      </trkpt>
      <trkpt lat="48.85077" lon="2.36128">
        <ele>88.8</ele>
        <time>2015-01-05T19:37:42.763Z</time>
      </trkpt>
      <trkpt lat="48.8508" lon="2.36139">
        <ele>88.7</ele>
        <time>2015-01-05T19:37:44.701Z</time>
      </trkpt>
      <trkpt lat="48.85081" lon="2.36144">
        <ele>88.6</ele>
        <time>2015-01-05T19:37:45.699Z</time>
      </trkpt>
      <trkpt lat="48.85084" lon="2.36152">
        <ele>88.6</ele>
        <time>2015-01-05T19:37:48.263Z</time>
      </trkpt>
      <trkpt lat="48.85086" lon="2.36157">
        <ele>88.4</ele>
        <time>2015-01-05T19:37:48.631Z</time>
      </trkpt>
      <trkpt lat="48.85089" lon="2.36167">
        <ele>88.1</ele>
        <time>2015-01-05T19:37:50.740Z</time>
      </trkpt>
      <trkpt lat="48.85091" lon="2.36173">
        <ele>88</ele>
        <time>2015-01-05T19:37:51.762Z</time>
      </trkpt>
      <trkpt lat="48.85094" lon="2.36184">
        <ele>87.6</ele>
        <time>2015-01-05T19:37:53.662Z</time>
      </trkpt>
      <trkpt lat="48.85095" lon="2.3619">
        <ele>87.1</ele>
        <time>2015-01-05T19:37:54.696Z</time>
      </trkpt>
      <trkpt lat="48.85099" lon="2.36202">
        <ele>86.2</ele>
        <time>2015-01-05T19:37:56.743Z</time>
      </trkpt>
      <trkpt lat="48.85101" lon="2.36207">
        <ele>86</ele>
        <time>2015-01-05T19:37:57.762Z</time>
      </trkpt>
      <trkpt lat="48.85107" lon="2.36215">
        <ele>86.2</ele>
        <time>2015-01-05T19:38:00.677Z</time>
      </trkpt>
      <trkpt lat="48.85109" lon="2.36218">
        <ele>86.1</ele>
        <time>2015-01-05T19:38:01.725Z</time>
      </trkpt>
      <trkpt lat="48.85115" lon="2.36223">
        <ele>86</ele>
        <time>2015-01-05T19:38:04.667Z</time>
      </trkpt>
      <trkpt lat="48.8512" lon="2.36228">
        <ele>85.9</ele>
        <time>2015-01-05T19:38:05.661Z</time>
      </trkpt>
      <trkpt lat="48.85124" lon="2.36232">
        <ele>86.1</ele>
        <time>2015-01-05T19:38:06.728Z</time>
      </trkpt>
      <trkpt lat="48.85128" lon="2.36237">
        <ele>86.1</ele>
        <time>2015-01-05T19:38:07.729Z</time>
      </trkpt>
      <trkpt lat="48.85132" lon="2.36242">
        <ele>86</ele>
        <time>2015-01-05T19:38:08.653Z</time>
      </trkpt>
      <trkpt lat="48.85136" lon="2.36246">
        <ele>85.9</ele>
        <time>2015-01-05T19:38:09.657Z</time>
      </trkpt>
      <trkpt lat="48.85141" lon="2.36251">
        <ele>85.8</ele>
        <time>2015-01-05T19:38:10.675Z</time>
      </trkpt>
      <trkpt lat="48.85144" lon="2.36256">
        <ele>85.8</ele>
        <time>2015-01-05T19:38:11.741Z</time>
      </trkpt>
      <trkpt lat="48.85148" lon="2.36261">
        <ele>85.8</ele>
        <time>2015-01-05T19:38:13.602Z</time>
      </trkpt>
      <trkpt lat="48.85156" lon="2.36272">
        <ele>85.6</ele>
        <time>2015-01-05T19:38:14.637Z</time>
      </trkpt>
      <trkpt lat="48.8516" lon="2.36278">
        <ele>85.6</ele>
        <time>2015-01-05T19:38:15.661Z</time>
      </trkpt>
      <trkpt lat="48.85186" lon="2.36303">
        <ele>85.6</ele>
        <time>2015-01-05T19:38:22.712Z</time>
      </trkpt>
      <trkpt lat="48.85193" lon="2.36297">
        <ele>86.3</ele>
        <time>2015-01-05T19:38:25.655Z</time>
      </trkpt>
      <trkpt lat="48.85197" lon="2.36292">
        <ele>86.2</ele>
        <time>2015-01-05T19:38:26.722Z</time>
      </trkpt>
      <trkpt lat="48.85203" lon="2.36282">
        <ele>86.5</ele>
        <time>2015-01-05T19:38:28.630Z</time>
      </trkpt>
      <trkpt lat="48.85205" lon="2.36278">
        <ele>86.6</ele>
        <time>2015-01-05T19:38:29.634Z</time>
      </trkpt>
      <trkpt lat="48.85211" lon="2.3627">
        <ele>86.6</ele>
        <time>2015-01-05T19:38:32.747Z</time>
      </trkpt>
      <trkpt lat="48.85218" lon="2.36273">
        <ele>86.7</ele>
        <time>2015-01-05T19:38:33.638Z</time>
      </trkpt>
      <trkpt lat="48.85224" lon="2.36276">
        <ele>86.7</ele>
        <time>2015-01-05T19:38:34.650Z</time>
      </trkpt>
      <trkpt lat="48.85231" lon="2.36279">
        <ele>86.7</ele>
        <time>2015-01-05T19:38:35.656Z</time>
      </trkpt>
      <trkpt lat="48.85236" lon="2.3628">
        <ele>86.7</ele>
        <time>2015-01-05T19:38:36.690Z</time>
      </trkpt>
      <trkpt lat="48.85243" lon="2.3628">
        <ele>86.8</ele>
        <time>2015-01-05T19:38:37.704Z</time>
      </trkpt>
      <trkpt lat="48.8525" lon="2.3628">
        <ele>86.8</ele>
        <time>2015-01-05T19:38:38.725Z</time>
      </trkpt>
      <trkpt lat="48.85256" lon="2.36281">
        <ele>86.7</ele>
        <time>2015-01-05T19:38:39.637Z</time>
      </trkpt>
      <trkpt lat="48.85261" lon="2.36282">
        <ele>86.5</ele>
        <time>2015-01-05T19:38:40.656Z</time>
      </trkpt>
      <trkpt lat="48.85267" lon="2.36283">
        <ele>86.4</ele>
        <time>2015-01-05T19:38:41.710Z</time>
      </trkpt>
      <trkpt lat="48.85273" lon="2.36284">
        <ele>86.3</ele>
        <time>2015-01-05T19:38:42.761Z</time>
      </trkpt>
      <trkpt lat="48.85278" lon="2.36286">
        <ele>86.1</ele>
        <time>2015-01-05T19:38:43.746Z</time>
      </trkpt>
      <trkpt lat="48.85282" lon="2.36289">
        <ele>85.9</ele>
        <time>2015-01-05T19:38:44.773Z</time>
      </trkpt>
      <trkpt lat="48.85286" lon="2.36291">
        <ele>85.7</ele>
        <time>2015-01-05T19:38:45.653Z</time>
      </trkpt>
      <trkpt lat="48.85293" lon="2.36297">
        <ele>85.4</ele>
        <time>2015-01-05T19:38:47.676Z</time>
      </trkpt>
      <trkpt lat="48.85297" lon="2.36301">
        <ele>85.3</ele>
        <time>2015-01-05T19:38:48.684Z</time>
      </trkpt>
      <trkpt lat="48.85301" lon="2.36305">
        <ele>85.4</ele>
        <time>2015-01-05T19:38:49.706Z</time>
      </trkpt>
      <trkpt lat="48.85305" lon="2.36308">
        <ele>85.4</ele>
        <time>2015-01-05T19:38:50.713Z</time>
      </trkpt>
      <trkpt lat="48.8531" lon="2.36311">
        <ele>85.5</ele>
        <time>2015-01-05T19:38:51.625Z</time>
      </trkpt>
      <trkpt lat="48.85313" lon="2.36314">
        <ele>85.5</ele>
        <time>2015-01-05T19:38:52.654Z</time>
      </trkpt>
      <trkpt lat="48.8532" lon="2.36324">
        <ele>85</ele>
        <time>2015-01-05T19:38:54.683Z</time>
      </trkpt>
      <trkpt lat="48.85323" lon="2.36329">
        <ele>84.8</ele>
        <time>2015-01-05T19:38:55.746Z</time>
      </trkpt>
      <trkpt lat="48.85327" lon="2.36338">
        <ele>84.8</ele>
        <time>2015-01-05T19:38:57.622Z</time>
      </trkpt>
      <trkpt lat="48.85328" lon="2.36344">
        <ele>84.6</ele>
        <time>2015-01-05T19:38:58.714Z</time>
      </trkpt>
      <trkpt lat="48.85329" lon="2.3635">
        <ele>84.6</ele>
        <time>2015-01-05T19:38:59.721Z</time>
      </trkpt>
      <trkpt lat="48.85331" lon="2.36359">
        <ele>84.3</ele>
        <time>2015-01-05T19:39:00.620Z</time>
      </trkpt>
      <trkpt lat="48.85335" lon="2.36367">
        <ele>84.5</ele>
        <time>2015-01-05T19:39:03.660Z</time>
      </trkpt>
      <trkpt lat="48.85337" lon="2.36371">
        <ele>84.6</ele>
        <time>2015-01-05T19:39:03.697Z</time>
      </trkpt>
      <trkpt lat="48.85343" lon="2.3638">
        <ele>84.6</ele>
        <time>2015-01-05T19:39:05.639Z</time>
      </trkpt>
      <trkpt lat="48.85345" lon="2.36389">
        <ele>84.7</ele>
        <time>2015-01-05T19:39:06.713Z</time>
      </trkpt>
      <trkpt lat="48.85347" lon="2.36395">
        <ele>84.6</ele>
        <time>2015-01-05T19:39:07.657Z</time>
      </trkpt>
      <trkpt lat="48.85349" lon="2.36402">
        <ele>84.7</ele>
        <time>2015-01-05T19:39:08.666Z</time>
      </trkpt>
      <trkpt lat="48.85348" lon="2.36417">
        <ele>85.7</ele>
        <time>2015-01-05T19:39:09.680Z</time>
      </trkpt>
      <trkpt lat="48.85354" lon="2.36425">
        <ele>85.7</ele>
        <time>2015-01-05T19:39:12.474Z</time>
      </trkpt>
      <trkpt lat="48.85357" lon="2.36429">
        <ele>85.7</ele>
        <time>2015-01-05T19:39:12.705Z</time>
      </trkpt>
      <trkpt lat="48.85361" lon="2.36435">
        <ele>85.7</ele>
        <time>2015-01-05T19:39:14.723Z</time>
      </trkpt>
      <trkpt lat="48.85364" lon="2.36439">
        <ele>85.6</ele>
        <time>2015-01-05T19:39:15.637Z</time>
      </trkpt>
      <trkpt lat="48.85372" lon="2.36447">
        <ele>85.3</ele>
        <time>2015-01-05T19:39:17.665Z</time>
      </trkpt>
      <trkpt lat="48.85375" lon="2.3645">
        <ele>85.4</ele>
        <time>2015-01-05T19:39:18.683Z</time>
      </trkpt>
      <trkpt lat="48.85382" lon="2.36457">
        <ele>85.3</ele>
        <time>2015-01-05T19:39:21.714Z</time>
      </trkpt>
      <trkpt lat="48.85385" lon="2.36458">
        <ele>85.3</ele>
        <time>2015-01-05T19:39:22.662Z</time>
      </trkpt>
      <trkpt lat="48.85391" lon="2.36465">
        <ele>86.7</ele>
        <time>2015-01-05T19:39:28.669Z</time>
      </trkpt>
      <trkpt lat="48.8539" lon="2.36467">
        <ele>86.6</ele>
        <time>2015-01-05T19:39:29.667Z</time>
      </trkpt>
      <trkpt lat="48.8539" lon="2.36469">
        <ele>86.3</ele>
        <time>2015-01-05T19:39:49.676Z</time>
      </trkpt>
      <trkpt lat="48.85397" lon="2.36473">
        <ele>87.8</ele>
        <time>2015-01-05T19:39:50.707Z</time>
      </trkpt>
      <trkpt lat="48.85405" lon="2.36473">
        <ele>88.4</ele>
        <time>2015-01-05T19:39:56.704Z</time>
      </trkpt>
      <trkpt lat="48.85407" lon="2.3647">
        <ele>88.3</ele>
        <time>2015-01-05T19:39:57.701Z</time>
      </trkpt>
      <trkpt lat="48.8541" lon="2.36462">
        <ele>88</ele>
        <time>2015-01-05T19:39:59.730Z</time>
      </trkpt>
      <trkpt lat="48.85412" lon="2.36457">
        <ele>87.8</ele>
        <time>2015-01-05T19:40:00.655Z</time>
      </trkpt>
      <trkpt lat="48.85417" lon="2.36445">
        <ele>87.3</ele>
        <time>2015-01-05T19:40:02.737Z</time>
      </trkpt>
      <trkpt lat="48.8542" lon="2.36439">
        <ele>87.1</ele>
        <time>2015-01-05T19:40:03.656Z</time>
      </trkpt>
      <trkpt lat="48.85422" lon="2.36433">
        <ele>87.1</ele>
        <time>2015-01-05T19:40:04.654Z</time>
      </trkpt>
      <trkpt lat="48.85425" lon="2.36427">
        <ele>87.2</ele>
        <time>2015-01-05T19:40:05.682Z</time>
      </trkpt>
      <trkpt lat="48.85428" lon="2.36421">
        <ele>87.2</ele>
        <time>2015-01-05T19:40:06.699Z</time>
      </trkpt>
      <trkpt lat="48.85432" lon="2.36415">
        <ele>87.3</ele>
        <time>2015-01-05T19:40:07.738Z</time>
      </trkpt>
      <trkpt lat="48.85434" lon="2.36409">
        <ele>87.3</ele>
        <time>2015-01-05T19:40:08.752Z</time>
      </trkpt>
      <trkpt lat="48.85437" lon="2.36403">
        <ele>87.3</ele>
        <time>2015-01-05T19:40:09.648Z</time>
      </trkpt>
      <trkpt lat="48.85438" lon="2.36396">
        <ele>87.2</ele>
        <time>2015-01-05T19:40:10.650Z</time>
      </trkpt>
      <trkpt lat="48.8544" lon="2.36388">
        <ele>87.1</ele>
        <time>2015-01-05T19:40:11.670Z</time>
      </trkpt>
      <trkpt lat="48.85441" lon="2.3638">
        <ele>86.6</ele>
        <time>2015-01-05T19:40:12.684Z</time>
      </trkpt>
      <trkpt lat="48.85443" lon="2.36373">
        <ele>86.5</ele>
        <time>2015-01-05T19:40:13.691Z</time>
      </trkpt>
      <trkpt lat="48.85445" lon="2.36366">
        <ele>86.4</ele>
        <time>2015-01-05T19:40:14.696Z</time>
      </trkpt>
      <trkpt lat="48.85447" lon="2.36359">
        <ele>86.3</ele>
        <time>2015-01-05T19:40:15.707Z</time>
      </trkpt>
      <trkpt lat="48.85449" lon="2.36352">
        <ele>86.3</ele>
        <time>2015-01-05T19:40:16.720Z</time>
      </trkpt>
      <trkpt lat="48.85451" lon="2.36344">
        <ele>86.2</ele>
        <time>2015-01-05T19:40:17.643Z</time>
      </trkpt>
      <trkpt lat="48.85452" lon="2.36337">
        <ele>86.2</ele>
        <time>2015-01-05T19:40:18.650Z</time>
      </trkpt>
      <trkpt lat="48.85454" lon="2.36331">
        <ele>86.2</ele>
        <time>2015-01-05T19:40:19.650Z</time>
      </trkpt>
      <trkpt lat="48.85457" lon="2.3632">
        <ele>86.3</ele>
        <time>2015-01-05T19:40:21.711Z</time>
      </trkpt>
      <trkpt lat="48.85459" lon="2.36315">
        <ele>86.5</ele>
        <time>2015-01-05T19:40:22.736Z</time>
      </trkpt>
      <trkpt lat="48.85461" lon="2.36303">
        <ele>86.9</ele>
        <time>2015-01-05T19:40:25.662Z</time>
      </trkpt>
      <trkpt lat="48.85462" lon="2.363">
        <ele>87.1</ele>
        <time>2015-01-05T19:40:26.708Z</time>
      </trkpt>
      <trkpt lat="48.85462" lon="2.36297">
        <ele>87.1</ele>
        <time>2015-01-05T19:40:28.667Z</time>
      </trkpt>
      <trkpt lat="48.8546" lon="2.36297">
        <ele>86.5</ele>
        <time>2015-01-05T19:40:29.694Z</time>
      </trkpt>
      <trkpt lat="48.85457" lon="2.36296">
        <ele>85.7</ele>
        <time>2015-01-05T19:40:53.685Z</time>
      </trkpt>
      <trkpt lat="48.85451" lon="2.36294">
        <ele>85.3</ele>
        <time>2015-01-05T19:40:54.697Z</time>
      </trkpt>
      <trkpt lat="48.85459" lon="2.36299">
        <ele>86.3</ele>
        <time>2015-01-05T19:40:59.665Z</time>
      </trkpt>
      <trkpt lat="48.85461" lon="2.363">
        <ele>86.7</ele>
        <time>2015-01-05T19:41:00.685Z</time>
      </trkpt>
      <trkpt lat="48.8547" lon="2.36304">
        <ele>87.5</ele>
        <time>2015-01-05T19:41:03.714Z</time>
      </trkpt>
      <trkpt lat="48.85473" lon="2.36306">
        <ele>87.7</ele>
        <time>2015-01-05T19:41:04.747Z</time>
      </trkpt>
      <trkpt lat="48.85481" lon="2.36309">
        <ele>88.5</ele>
        <time>2015-01-05T19:41:07.675Z</time>
      </trkpt>
      <trkpt lat="48.85483" lon="2.3631">
        <ele>88.7</ele>
        <time>2015-01-05T19:41:08.719Z</time>
      </trkpt>
      <trkpt lat="48.85489" lon="2.36313">
        <ele>89.5</ele>
        <time>2015-01-05T19:41:11.666Z</time>
      </trkpt>
      <trkpt lat="48.85492" lon="2.36314">
        <ele>89.6</ele>
        <time>2015-01-05T19:41:12.671Z</time>
      </trkpt>
      <trkpt lat="48.85499" lon="2.3632">
        <ele>89.8</ele>
        <time>2015-01-05T19:41:14.749Z</time>
      </trkpt>
      <trkpt lat="48.85503" lon="2.36325">
        <ele>89.9</ele>
        <time>2015-01-05T19:41:15.712Z</time>
      </trkpt>
      <trkpt lat="48.85508" lon="2.36329">
        <ele>90</ele>
        <time>2015-01-05T19:41:16.660Z</time>
      </trkpt>
      <trkpt lat="48.85511" lon="2.36333">
        <ele>90.2</ele>
        <time>2015-01-05T19:41:17.664Z</time>
      </trkpt>
      <trkpt lat="48.85517" lon="2.3634">
        <ele>90.4</ele>
        <time>2015-01-05T19:41:19.725Z</time>
      </trkpt>
      <trkpt lat="48.8552" lon="2.36345">
        <ele>90.5</ele>
        <time>2015-01-05T19:41:20.738Z</time>
      </trkpt>
      <trkpt lat="48.85527" lon="2.36351">
        <ele>90.6</ele>
        <time>2015-01-05T19:41:22.656Z</time>
      </trkpt>
      <trkpt lat="48.85531" lon="2.36356">
        <ele>90.6</ele>
        <time>2015-01-05T19:41:23.675Z</time>
      </trkpt>
      <trkpt lat="48.85537" lon="2.36362">
        <ele>90.9</ele>
        <time>2015-01-05T19:41:25.614Z</time>
      </trkpt>
      <trkpt lat="48.85541" lon="2.36365">
        <ele>90.8</ele>
        <time>2015-01-05T19:41:26.667Z</time>
      </trkpt>
      <trkpt lat="48.85548" lon="2.36371">
        <ele>90.9</ele>
        <time>2015-01-05T19:41:28.690Z</time>
      </trkpt>
      <trkpt lat="48.85552" lon="2.36372">
        <ele>91</ele>
        <time>2015-01-05T19:41:29.693Z</time>
      </trkpt>
      <trkpt lat="48.85558" lon="2.36376">
        <ele>90.9</ele>
        <time>2015-01-05T19:41:31.716Z</time>
      </trkpt>
      <trkpt lat="48.85561" lon="2.3638">
        <ele>90.9</ele>
        <time>2015-01-05T19:41:32.741Z</time>
      </trkpt>
      <trkpt lat="48.85566" lon="2.36387">
        <ele>90.9</ele>
        <time>2015-01-05T19:41:34.665Z</time>
      </trkpt>
      <trkpt lat="48.85568" lon="2.3639">
        <ele>90.8</ele>
        <time>2015-01-05T19:41:35.672Z</time>
      </trkpt>
      <trkpt lat="48.85572" lon="2.36396">
        <ele>90.7</ele>
        <time>2015-01-05T19:41:38.569Z</time>
      </trkpt>
      <trkpt lat="48.85578" lon="2.36395">
        <ele>91.3</ele>
        <time>2015-01-05T19:41:38.738Z</time>
      </trkpt>
      <trkpt lat="48.85586" lon="2.36399">
        <ele>91.5</ele>
        <time>2015-01-05T19:41:40.641Z</time>
      </trkpt>
      <trkpt lat="48.85591" lon="2.364">
        <ele>91.8</ele>
        <time>2015-01-05T19:41:41.646Z</time>
      </trkpt>
      <trkpt lat="48.85599" lon="2.36404">
        <ele>91.5</ele>
        <time>2015-01-05T19:41:43.664Z</time>
      </trkpt>
      <trkpt lat="48.85604" lon="2.36408">
        <ele>91</ele>
        <time>2015-01-05T19:41:44.712Z</time>
      </trkpt>
      <trkpt lat="48.85609" lon="2.36412">
        <ele>90.6</ele>
        <time>2015-01-05T19:41:45.618Z</time>
      </trkpt>
      <trkpt lat="48.85614" lon="2.36415">
        <ele>91.2</ele>
        <time>2015-01-05T19:41:46.643Z</time>
      </trkpt>
      <trkpt lat="48.85621" lon="2.3642">
        <ele>91</ele>
        <time>2015-01-05T19:41:48.757Z</time>
      </trkpt>
      <trkpt lat="48.85625" lon="2.36422">
        <ele>90.8</ele>
        <time>2015-01-05T19:41:49.697Z</time>
      </trkpt>
      <trkpt lat="48.85631" lon="2.36427">
        <ele>90.6</ele>
        <time>2015-01-05T19:41:51.642Z</time>
      </trkpt>
      <trkpt lat="48.85633" lon="2.36428">
        <ele>90.6</ele>
        <time>2015-01-05T19:41:52.650Z</time>
      </trkpt>
      <trkpt lat="48.8564" lon="2.36428">
        <ele>90.1</ele>
        <time>2015-01-05T19:41:55.705Z</time>
      </trkpt>
      <trkpt lat="48.85643" lon="2.3643">
        <ele>90.2</ele>
        <time>2015-01-05T19:41:56.866Z</time>
      </trkpt>
      <trkpt lat="48.85651" lon="2.36435">
        <ele>90.7</ele>
        <time>2015-01-05T19:42:01.713Z</time>
      </trkpt>
      <trkpt lat="48.85652" lon="2.36437">
        <ele>90.9</ele>
        <time>2015-01-05T19:42:02.760Z</time>
      </trkpt>
      <trkpt lat="48.85659" lon="2.3644">
        <ele>91.1</ele>
        <time>2015-01-05T19:42:07.683Z</time>
      </trkpt>
      <trkpt lat="48.85661" lon="2.3644">
        <ele>91.1</ele>
        <time>2015-01-05T19:42:08.786Z</time>
      </trkpt>
      <trkpt lat="48.85667" lon="2.36444">
        <ele>91.4</ele>
        <time>2015-01-05T19:42:11.648Z</time>
      </trkpt>
      <trkpt lat="48.8567" lon="2.36446">
        <ele>91.4</ele>
        <time>2015-01-05T19:42:12.652Z</time>
      </trkpt>
      <trkpt lat="48.85677" lon="2.36449">
        <ele>91.4</ele>
        <time>2015-01-05T19:42:14.704Z</time>
      </trkpt>
      <trkpt lat="48.85681" lon="2.36451">
        <ele>91.5</ele>
        <time>2015-01-05T19:42:15.709Z</time>
      </trkpt>
      <trkpt lat="48.85687" lon="2.36456">
        <ele>91.6</ele>
        <time>2015-01-05T19:42:17.642Z</time>
      </trkpt>
      <trkpt lat="48.85691" lon="2.36459">
        <ele>91.6</ele>
        <time>2015-01-05T19:42:18.673Z</time>
      </trkpt>
      <trkpt lat="48.85697" lon="2.36465">
        <ele>91.8</ele>
        <time>2015-01-05T19:42:20.728Z</time>
      </trkpt>
      <trkpt lat="48.857" lon="2.36467">
        <ele>91.9</ele>
        <time>2015-01-05T19:42:21.747Z</time>
      </trkpt>
      <trkpt lat="48.85709" lon="2.36469">
        <ele>91.9</ele>
        <time>2015-01-05T19:42:24.285Z</time>
      </trkpt>
      <trkpt lat="48.85712" lon="2.36471">
        <ele>91.9</ele>
        <time>2015-01-05T19:42:24.704Z</time>
      </trkpt>
      <trkpt lat="48.8572" lon="2.36476">
        <ele>91.8</ele>
        <time>2015-01-05T19:42:26.713Z</time>
      </trkpt>
      <trkpt lat="48.85724" lon="2.36477">
        <ele>91.9</ele>
        <time>2015-01-05T19:42:27.775Z</time>
      </trkpt>
      <trkpt lat="48.85728" lon="2.36478">
        <ele>91.8</ele>
        <time>2015-01-05T19:42:28.699Z</time>
      </trkpt>
      <trkpt lat="48.85733" lon="2.36478">
        <ele>91.7</ele>
        <time>2015-01-05T19:42:29.700Z</time>
      </trkpt>
      <trkpt lat="48.85738" lon="2.36477">
        <ele>91.5</ele>
        <time>2015-01-05T19:42:30.714Z</time>
      </trkpt>
      <trkpt lat="48.85742" lon="2.36477">
        <ele>91.4</ele>
        <time>2015-01-05T19:42:31.723Z</time>
      </trkpt>
      <trkpt lat="48.8575" lon="2.36478">
        <ele>91.2</ele>
        <time>2015-01-05T19:42:33.630Z</time>
      </trkpt>
      <trkpt lat="48.85753" lon="2.36477">
        <ele>90.9</ele>
        <time>2015-01-05T19:42:34.658Z</time>
      </trkpt>
      <trkpt lat="48.85761" lon="2.36469">
        <ele>89.1</ele>
        <time>2015-01-05T19:42:35.677Z</time>
      </trkpt>
      <trkpt lat="48.85766" lon="2.36466">
        <ele>88.6</ele>
        <time>2015-01-05T19:42:36.685Z</time>
      </trkpt>
      <trkpt lat="48.8577" lon="2.36465">
        <ele>88.5</ele>
        <time>2015-01-05T19:42:37.735Z</time>
      </trkpt>
      <trkpt lat="48.85775" lon="2.36464">
        <ele>88.5</ele>
        <time>2015-01-05T19:42:38.755Z</time>
      </trkpt>
      <trkpt lat="48.8578" lon="2.36463">
        <ele>88.4</ele>
        <time>2015-01-05T19:42:39.629Z</time>
      </trkpt>
      <trkpt lat="48.85785" lon="2.36463">
        <ele>88.5</ele>
        <time>2015-01-05T19:42:40.630Z</time>
      </trkpt>
      <trkpt lat="48.8579" lon="2.36463">
        <ele>88.5</ele>
        <time>2015-01-05T19:42:41.637Z</time>
      </trkpt>
      <trkpt lat="48.85795" lon="2.36462">
        <ele>88.5</ele>
        <time>2015-01-05T19:42:42.660Z</time>
      </trkpt>
      <trkpt lat="48.858" lon="2.36462">
        <ele>88.5</ele>
        <time>2015-01-05T19:42:43.666Z</time>
      </trkpt>
      <trkpt lat="48.85805" lon="2.36463">
        <ele>88.5</ele>
        <time>2015-01-05T19:42:44.675Z</time>
      </trkpt>
      <trkpt lat="48.85812" lon="2.36466">
        <ele>88.4</ele>
        <time>2015-01-05T19:42:45.678Z</time>
      </trkpt>
      <trkpt lat="48.85818" lon="2.36467">
        <ele>88.4</ele>
        <time>2015-01-05T19:42:46.688Z</time>
      </trkpt>
      <trkpt lat="48.85823" lon="2.36468">
        <ele>88.5</ele>
        <time>2015-01-05T19:42:47.697Z</time>
      </trkpt>
      <trkpt lat="48.85828" lon="2.36469">
        <ele>88.6</ele>
        <time>2015-01-05T19:42:48.711Z</time>
      </trkpt>
      <trkpt lat="48.85832" lon="2.36469">
        <ele>88.8</ele>
        <time>2015-01-05T19:42:49.732Z</time>
      </trkpt>
      <trkpt lat="48.85841" lon="2.36471">
        <ele>88.9</ele>
        <time>2015-01-05T19:42:51.749Z</time>
      </trkpt>
      <trkpt lat="48.85845" lon="2.36471">
        <ele>89</ele>
        <time>2015-01-05T19:42:52.639Z</time>
      </trkpt>
      <trkpt lat="48.8585" lon="2.36472">
        <ele>89.1</ele>
        <time>2015-01-05T19:42:53.680Z</time>
      </trkpt>
      <trkpt lat="48.85855" lon="2.36474">
        <ele>89.1</ele>
        <time>2015-01-05T19:42:54.685Z</time>
      </trkpt>
      <trkpt lat="48.8586" lon="2.36474">
        <ele>89.2</ele>
        <time>2015-01-05T19:42:55.707Z</time>
      </trkpt>
      <trkpt lat="48.85865" lon="2.36474">
        <ele>89.3</ele>
        <time>2015-01-05T19:42:56.717Z</time>
      </trkpt>
      <trkpt lat="48.85871" lon="2.36474">
        <ele>89.5</ele>
        <time>2015-01-05T19:42:58.210Z</time>
      </trkpt>
      <trkpt lat="48.85877" lon="2.36474">
        <ele>89.6</ele>
        <time>2015-01-05T19:42:58.615Z</time>
      </trkpt>
      <trkpt lat="48.85883" lon="2.36475">
        <ele>89.6</ele>
        <time>2015-01-05T19:42:59.676Z</time>
      </trkpt>
      <trkpt lat="48.85889" lon="2.36475">
        <ele>89.6</ele>
        <time>2015-01-05T19:43:00.699Z</time>
      </trkpt>
      <trkpt lat="48.85894" lon="2.36475">
        <ele>89.6</ele>
        <time>2015-01-05T19:43:01.765Z</time>
      </trkpt>
      <trkpt lat="48.85899" lon="2.36475">
        <ele>89.6</ele>
        <time>2015-01-05T19:43:02.739Z</time>
      </trkpt>
      <trkpt lat="48.85906" lon="2.36472">
        <ele>89</ele>
        <time>2015-01-05T19:43:03.636Z</time>
      </trkpt>
      <trkpt lat="48.85913" lon="2.36471">
        <ele>88.5</ele>
        <time>2015-01-05T19:43:04.645Z</time>
      </trkpt>
      <trkpt lat="48.85918" lon="2.3647">
        <ele>88.7</ele>
        <time>2015-01-05T19:43:05.715Z</time>
      </trkpt>
      <trkpt lat="48.85924" lon="2.36469">
        <ele>88.7</ele>
        <time>2015-01-05T19:43:06.715Z</time>
      </trkpt>
      <trkpt lat="48.85931" lon="2.36469">
        <ele>88.8</ele>
        <time>2015-01-05T19:43:07.615Z</time>
      </trkpt>
      <trkpt lat="48.85938" lon="2.36469">
        <ele>88.8</ele>
        <time>2015-01-05T19:43:08.671Z</time>
      </trkpt>
      <trkpt lat="48.85945" lon="2.36468">
        <ele>89</ele>
        <time>2015-01-05T19:43:09.677Z</time>
      </trkpt>
      <trkpt lat="48.85951" lon="2.36467">
        <ele>89.1</ele>
        <time>2015-01-05T19:43:10.699Z</time>
      </trkpt>
      <trkpt lat="48.85957" lon="2.36467">
        <ele>89.2</ele>
        <time>2015-01-05T19:43:11.721Z</time>
      </trkpt>
      <trkpt lat="48.85963" lon="2.36466">
        <ele>89.6</ele>
        <time>2015-01-05T19:43:12.612Z</time>
      </trkpt>
      <trkpt lat="48.85968" lon="2.36466">
        <ele>89.9</ele>
        <time>2015-01-05T19:43:13.652Z</time>
      </trkpt>
      <trkpt lat="48.85974" lon="2.36464">
        <ele>89.4</ele>
        <time>2015-01-05T19:43:14.684Z</time>
      </trkpt>
      <trkpt lat="48.85981" lon="2.3646">
        <ele>88.6</ele>
        <time>2015-01-05T19:43:15.714Z</time>
      </trkpt>
      <trkpt lat="48.85984" lon="2.3646">
        <ele>88.8</ele>
        <time>2015-01-05T19:43:16.721Z</time>
      </trkpt>
      <trkpt lat="48.85991" lon="2.3646">
        <ele>89.2</ele>
        <time>2015-01-05T19:43:18.634Z</time>
      </trkpt>
      <trkpt lat="48.85995" lon="2.3646">
        <ele>89.4</ele>
        <time>2015-01-05T19:43:19.651Z</time>
      </trkpt>
      <trkpt lat="48.86003" lon="2.36461">
        <ele>89.6</ele>
        <time>2015-01-05T19:43:21.643Z</time>
      </trkpt>
      <trkpt lat="48.86008" lon="2.36461">
        <ele>89.3</ele>
        <time>2015-01-05T19:43:22.665Z</time>
      </trkpt>
      <trkpt lat="48.86013" lon="2.36459">
        <ele>89</ele>
        <time>2015-01-05T19:43:23.667Z</time>
      </trkpt>
      <trkpt lat="48.86017" lon="2.36459">
        <ele>89</ele>
        <time>2015-01-05T19:43:24.690Z</time>
      </trkpt>
      <trkpt lat="48.86025" lon="2.36459">
        <ele>88.9</ele>
        <time>2015-01-05T19:43:26.747Z</time>
      </trkpt>
      <trkpt lat="48.86029" lon="2.36459">
        <ele>89</ele>
        <time>2015-01-05T19:43:27.613Z</time>
      </trkpt>
      <trkpt lat="48.86037" lon="2.36459">
        <ele>89.1</ele>
        <time>2015-01-05T19:43:29.646Z</time>
      </trkpt>
      <trkpt lat="48.86043" lon="2.36459">
        <ele>89.2</ele>
        <time>2015-01-05T19:43:30.674Z</time>
      </trkpt>
      <trkpt lat="48.86048" lon="2.3646">
        <ele>89.2</ele>
        <time>2015-01-05T19:43:32.516Z</time>
      </trkpt>
      <trkpt lat="48.86053" lon="2.3646">
        <ele>89.3</ele>
        <time>2015-01-05T19:43:32.761Z</time>
      </trkpt>
      <trkpt lat="48.86059" lon="2.36461">
        <ele>89.4</ele>
        <time>2015-01-05T19:43:34.183Z</time>
      </trkpt>
      <trkpt lat="48.86064" lon="2.3646">
        <ele>89.6</ele>
        <time>2015-01-05T19:43:34.620Z</time>
      </trkpt>
      <trkpt lat="48.8607" lon="2.36459">
        <ele>89.7</ele>
        <time>2015-01-05T19:43:35.637Z</time>
      </trkpt>
      <trkpt lat="48.86076" lon="2.36456">
        <ele>89.8</ele>
        <time>2015-01-05T19:43:36.719Z</time>
      </trkpt>
      <trkpt lat="48.86081" lon="2.36455">
        <ele>90.1</ele>
        <time>2015-01-05T19:43:37.734Z</time>
      </trkpt>
      <trkpt lat="48.86086" lon="2.36453">
        <ele>90.4</ele>
        <time>2015-01-05T19:43:38.802Z</time>
      </trkpt>
      <trkpt lat="48.86091" lon="2.36453">
        <ele>90.6</ele>
        <time>2015-01-05T19:43:39.712Z</time>
      </trkpt>
      <trkpt lat="48.86095" lon="2.36453">
        <ele>90.8</ele>
        <time>2015-01-05T19:43:40.672Z</time>
      </trkpt>
      <trkpt lat="48.86103" lon="2.36454">
        <ele>91.2</ele>
        <time>2015-01-05T19:43:42.746Z</time>
      </trkpt>
      <trkpt lat="48.86105" lon="2.36453">
        <ele>91.3</ele>
        <time>2015-01-05T19:43:43.670Z</time>
      </trkpt>
      <trkpt lat="48.86112" lon="2.3645">
        <ele>91.6</ele>
        <time>2015-01-05T19:43:45.646Z</time>
      </trkpt>
      <trkpt lat="48.86117" lon="2.36449">
        <ele>91.7</ele>
        <time>2015-01-05T19:43:46.861Z</time>
      </trkpt>
      <trkpt lat="48.86125" lon="2.36448">
        <ele>91.7</ele>
        <time>2015-01-05T19:43:48.633Z</time>
      </trkpt>
      <trkpt lat="48.8613" lon="2.36448">
        <ele>92</ele>
        <time>2015-01-05T19:43:49.658Z</time>
      </trkpt>
      <trkpt lat="48.86133" lon="2.36448">
        <ele>92.2</ele>
        <time>2015-01-05T19:43:50.669Z</time>
      </trkpt>
      <trkpt lat="48.86141" lon="2.36451">
        <ele>92.5</ele>
        <time>2015-01-05T19:43:51.674Z</time>
      </trkpt>
      <trkpt lat="48.86147" lon="2.36454">
        <ele>92.6</ele>
        <time>2015-01-05T19:43:52.685Z</time>
      </trkpt>
      <trkpt lat="48.86151" lon="2.36454">
        <ele>92.9</ele>
        <time>2015-01-05T19:43:53.720Z</time>
      </trkpt>
      <trkpt lat="48.86159" lon="2.36454">
        <ele>93.6</ele>
        <time>2015-01-05T19:43:55.638Z</time>
      </trkpt>
      <trkpt lat="48.86162" lon="2.36455">
        <ele>94.2</ele>
        <time>2015-01-05T19:43:56.673Z</time>
      </trkpt>
      <trkpt lat="48.8617" lon="2.36455">
        <ele>95</ele>
        <time>2015-01-05T19:43:58.710Z</time>
      </trkpt>
      <trkpt lat="48.86174" lon="2.36454">
        <ele>95.4</ele>
        <time>2015-01-05T19:43:59.720Z</time>
      </trkpt>
      <trkpt lat="48.86182" lon="2.36451">
        <ele>96</ele>
        <time>2015-01-05T19:44:01.678Z</time>
      </trkpt>
      <trkpt lat="48.86185" lon="2.36449">
        <ele>96.4</ele>
        <time>2015-01-05T19:44:02.690Z</time>
      </trkpt>
      <trkpt lat="48.86193" lon="2.36446">
        <ele>98.8</ele>
        <time>2015-01-05T19:44:06.772Z</time>
      </trkpt>
      <trkpt lat="48.86196" lon="2.36446">
        <ele>99.6</ele>
        <time>2015-01-05T19:44:07.658Z</time>
      </trkpt>
      <trkpt lat="48.86203" lon="2.36446">
        <ele>101.6</ele>
        <time>2015-01-05T19:44:09.716Z</time>
      </trkpt>
      <trkpt lat="48.86208" lon="2.36449">
        <ele>102.7</ele>
        <time>2015-01-05T19:44:10.742Z</time>
      </trkpt>
      <trkpt lat="48.86216" lon="2.36453">
        <ele>103.7</ele>
        <time>2015-01-05T19:44:12.662Z</time>
      </trkpt>
      <trkpt lat="48.86218" lon="2.36455">
        <ele>104.2</ele>
        <time>2015-01-05T19:44:13.672Z</time>
      </trkpt>
      <trkpt lat="48.86225" lon="2.36459">
        <ele>104.6</ele>
        <time>2015-01-05T19:44:18.657Z</time>
      </trkpt>
      <trkpt lat="48.86227" lon="2.36459">
        <ele>104.7</ele>
        <time>2015-01-05T19:44:19.679Z</time>
      </trkpt>
      <trkpt lat="48.86235" lon="2.36458">
        <ele>104.7</ele>
        <time>2015-01-05T19:44:22.630Z</time>
      </trkpt>
      <trkpt lat="48.86237" lon="2.36458">
        <ele>104.7</ele>
        <time>2015-01-05T19:44:23.705Z</time>
      </trkpt>
      <trkpt lat="48.86246" lon="2.36458">
        <ele>104.1</ele>
        <time>2015-01-05T19:44:26.676Z</time>
      </trkpt>
      <trkpt lat="48.8625" lon="2.36456">
        <ele>104.2</ele>
        <time>2015-01-05T19:44:27.715Z</time>
      </trkpt>
      <trkpt lat="48.86259" lon="2.36458">
        <ele>104.4</ele>
        <time>2015-01-05T19:44:29.732Z</time>
      </trkpt>
      <trkpt lat="48.86262" lon="2.36461">
        <ele>104.5</ele>
        <time>2015-01-05T19:44:30.737Z</time>
      </trkpt>
      <trkpt lat="48.86269" lon="2.36462">
        <ele>104.7</ele>
        <time>2015-01-05T19:44:33.712Z</time>
      </trkpt>
      <trkpt lat="48.86273" lon="2.36462">
        <ele>104.8</ele>
        <time>2015-01-05T19:44:34.755Z</time>
      </trkpt>
      <trkpt lat="48.86281" lon="2.36462">
        <ele>105</ele>
        <time>2015-01-05T19:44:36.627Z</time>
      </trkpt>
      <trkpt lat="48.86286" lon="2.36462">
        <ele>105.1</ele>
        <time>2015-01-05T19:44:37.641Z</time>
      </trkpt>
      <trkpt lat="48.86291" lon="2.36464">
        <ele>105.3</ele>
        <time>2015-01-05T19:44:38.658Z</time>
      </trkpt>
      <trkpt lat="48.86297" lon="2.36465">
        <ele>105.5</ele>
        <time>2015-01-05T19:44:39.675Z</time>
      </trkpt>
      <trkpt lat="48.86305" lon="2.36469">
        <ele>105.6</ele>
        <time>2015-01-05T19:44:40.682Z</time>
      </trkpt>
      <trkpt lat="48.86309" lon="2.36468">
        <ele>106</ele>
        <time>2015-01-05T19:44:41.681Z</time>
      </trkpt>
      <trkpt lat="48.86314" lon="2.3647">
        <ele>106.2</ele>
        <time>2015-01-05T19:44:42.608Z</time>
      </trkpt>
      <trkpt lat="48.86321" lon="2.36471">
        <ele>106.8</ele>
        <time>2015-01-05T19:44:43.656Z</time>
      </trkpt>
      <trkpt lat="48.86329" lon="2.36471">
        <ele>107.3</ele>
        <time>2015-01-05T19:44:44.665Z</time>
      </trkpt>
      <trkpt lat="48.86336" lon="2.36472">
        <ele>107.8</ele>
        <time>2015-01-05T19:44:45.670Z</time>
      </trkpt>
      <trkpt lat="48.86343" lon="2.36473">
        <ele>108.2</ele>
        <time>2015-01-05T19:44:46.670Z</time>
      </trkpt>
      <trkpt lat="48.86349" lon="2.36474">
        <ele>108.4</ele>
        <time>2015-01-05T19:44:47.730Z</time>
      </trkpt>
      <trkpt lat="48.86353" lon="2.36476">
        <ele>108.6</ele>
        <time>2015-01-05T19:44:49.404Z</time>
      </trkpt>
      <trkpt lat="48.86362" lon="2.36481">
        <ele>108.4</ele>
        <time>2015-01-05T19:44:49.680Z</time>
      </trkpt>
      <trkpt lat="48.86366" lon="2.36482">
        <ele>108.4</ele>
        <time>2015-01-05T19:44:50.694Z</time>
      </trkpt>
      <trkpt lat="48.86371" lon="2.36481">
        <ele>108.2</ele>
        <time>2015-01-05T19:44:51.700Z</time>
      </trkpt>
      <trkpt lat="48.8638" lon="2.36483">
        <ele>108.2</ele>
        <time>2015-01-05T19:44:53.961Z</time>
      </trkpt>
      <trkpt lat="48.86385" lon="2.36483">
        <ele>108.1</ele>
        <time>2015-01-05T19:44:54.636Z</time>
      </trkpt>
      <trkpt lat="48.86393" lon="2.36481">
        <ele>108</ele>
        <time>2015-01-05T19:44:56.649Z</time>
      </trkpt>
      <trkpt lat="48.86398" lon="2.3648">
        <ele>108</ele>
        <time>2015-01-05T19:44:57.742Z</time>
      </trkpt>
      <trkpt lat="48.86406" lon="2.36476">
        <ele>108</ele>
        <time>2015-01-05T19:44:59.638Z</time>
      </trkpt>
      <trkpt lat="48.86409" lon="2.36474">
        <ele>108</ele>
        <time>2015-01-05T19:45:00.639Z</time>
      </trkpt>
      <trkpt lat="48.86417" lon="2.36469">
        <ele>108</ele>
        <time>2015-01-05T19:45:02.766Z</time>
      </trkpt>
      <trkpt lat="48.86421" lon="2.36467">
        <ele>107.9</ele>
        <time>2015-01-05T19:45:03.606Z</time>
      </trkpt>
      <trkpt lat="48.86427" lon="2.36465">
        <ele>107.9</ele>
        <time>2015-01-05T19:45:05.650Z</time>
      </trkpt>
      <trkpt lat="48.86431" lon="2.36464">
        <ele>108</ele>
        <time>2015-01-05T19:45:06.661Z</time>
      </trkpt>
      <trkpt lat="48.86436" lon="2.36463">
        <ele>108</ele>
        <time>2015-01-05T19:45:07.776Z</time>
      </trkpt>
      <trkpt lat="48.86442" lon="2.36461">
        <ele>107.9</ele>
        <time>2015-01-05T19:45:08.706Z</time>
      </trkpt>
      <trkpt lat="48.86446" lon="2.36459">
        <ele>107.9</ele>
        <time>2015-01-05T19:45:09.716Z</time>
      </trkpt>
      <trkpt lat="48.86455" lon="2.36457">
        <ele>106.5</ele>
        <time>2015-01-05T19:45:10.727Z</time>
      </trkpt>
      <trkpt lat="48.86461" lon="2.36456">
        <ele>106.8</ele>
        <time>2015-01-05T19:45:11.646Z</time>
      </trkpt>
      <trkpt lat="48.86467" lon="2.36454">
        <ele>107</ele>
        <time>2015-01-05T19:45:12.722Z</time>
      </trkpt>
      <trkpt lat="48.86473" lon="2.36447">
        <ele>106</ele>
        <time>2015-01-05T19:45:17.716Z</time>
      </trkpt>
      <trkpt lat="48.86474" lon="2.36446">
        <ele>106.1</ele>
        <time>2015-01-05T19:45:18.764Z</time>
      </trkpt>
      <trkpt lat="48.86481" lon="2.36443">
        <ele>105.8</ele>
        <time>2015-01-05T19:45:21.687Z</time>
      </trkpt>
      <trkpt lat="48.86483" lon="2.36441">
        <ele>105.9</ele>
        <time>2015-01-05T19:45:22.700Z</time>
      </trkpt>
      <trkpt lat="48.8649" lon="2.36436">
        <ele>105.4</ele>
        <time>2015-01-05T19:45:25.660Z</time>
      </trkpt>
      <trkpt lat="48.86493" lon="2.36435">
        <ele>105.3</ele>
        <time>2015-01-05T19:45:26.730Z</time>
      </trkpt>
      <trkpt lat="48.86501" lon="2.36431">
        <ele>104.8</ele>
        <time>2015-01-05T19:45:29.686Z</time>
      </trkpt>
      <trkpt lat="48.86504" lon="2.3643">
        <ele>104.7</ele>
        <time>2015-01-05T19:45:30.708Z</time>
      </trkpt>
      <trkpt lat="48.86511" lon="2.36423">
        <ele>105.2</ele>
        <time>2015-01-05T19:45:32.784Z</time>
      </trkpt>
      <trkpt lat="48.86514" lon="2.36421">
        <ele>105.3</ele>
        <time>2015-01-05T19:45:33.708Z</time>
      </trkpt>
      <trkpt lat="48.86522" lon="2.36421">
        <ele>105.4</ele>
        <time>2015-01-05T19:45:35.640Z</time>
      </trkpt>
      <trkpt lat="48.86525" lon="2.36421">
        <ele>105.4</ele>
        <time>2015-01-05T19:45:36.650Z</time>
      </trkpt>
      <trkpt lat="48.86533" lon="2.3642">
        <ele>105.4</ele>
        <time>2015-01-05T19:45:38.664Z</time>
      </trkpt>
      <trkpt lat="48.86536" lon="2.36417">
        <ele>105.3</ele>
        <time>2015-01-05T19:45:39.662Z</time>
      </trkpt>
      <trkpt lat="48.86543" lon="2.36412">
        <ele>105.2</ele>
        <time>2015-01-05T19:45:41.687Z</time>
      </trkpt>
      <trkpt lat="48.86546" lon="2.36411">
        <ele>105.2</ele>
        <time>2015-01-05T19:45:42.682Z</time>
      </trkpt>
      <trkpt lat="48.86551" lon="2.36407">
        <ele>105.2</ele>
        <time>2015-01-05T19:45:44.732Z</time>
      </trkpt>
      <trkpt lat="48.86554" lon="2.36404">
        <ele>105.2</ele>
        <time>2015-01-05T19:45:45.820Z</time>
      </trkpt>
      <trkpt lat="48.86559" lon="2.36397">
        <ele>105.2</ele>
        <time>2015-01-05T19:45:48.201Z</time>
      </trkpt>
      <trkpt lat="48.86563" lon="2.36395">
        <ele>105.3</ele>
        <time>2015-01-05T19:45:48.859Z</time>
      </trkpt>
      <trkpt lat="48.86569" lon="2.36394">
        <ele>105.4</ele>
        <time>2015-01-05T19:45:50.694Z</time>
      </trkpt>
      <trkpt lat="48.86572" lon="2.36395">
        <ele>105.4</ele>
        <time>2015-01-05T19:45:51.733Z</time>
      </trkpt>
      <trkpt lat="48.86581" lon="2.36397">
        <ele>105.4</ele>
        <time>2015-01-05T19:45:54.698Z</time>
      </trkpt>
      <trkpt lat="48.86583" lon="2.36397">
        <ele>105.5</ele>
        <time>2015-01-05T19:45:55.716Z</time>
      </trkpt>
      <trkpt lat="48.86591" lon="2.36398">
        <ele>105.5</ele>
        <time>2015-01-05T19:45:58.625Z</time>
      </trkpt>
      <trkpt lat="48.86594" lon="2.36398">
        <ele>105.5</ele>
        <time>2015-01-05T19:45:59.714Z</time>
      </trkpt>
      <trkpt lat="48.866" lon="2.36397">
        <ele>105.4</ele>
        <time>2015-01-05T19:46:01.675Z</time>
      </trkpt>
      <trkpt lat="48.86603" lon="2.36397">
        <ele>105.3</ele>
        <time>2015-01-05T19:46:02.725Z</time>
      </trkpt>
      <trkpt lat="48.86612" lon="2.36395">
        <ele>105</ele>
        <time>2015-01-05T19:46:04.640Z</time>
      </trkpt>
      <trkpt lat="48.86617" lon="2.36393">
        <ele>104.7</ele>
        <time>2015-01-05T19:46:05.649Z</time>
      </trkpt>
      <trkpt lat="48.86624" lon="2.36392">
        <ele>104.8</ele>
        <time>2015-01-05T19:46:08.480Z</time>
      </trkpt>
      <trkpt lat="48.86628" lon="2.36391">
        <ele>104.8</ele>
        <time>2015-01-05T19:46:08.729Z</time>
      </trkpt>
      <trkpt lat="48.86636" lon="2.36391">
        <ele>104.8</ele>
        <time>2015-01-05T19:46:10.643Z</time>
      </trkpt>
      <trkpt lat="48.8664" lon="2.36392">
        <ele>104.8</ele>
        <time>2015-01-05T19:46:11.682Z</time>
      </trkpt>
      <trkpt lat="48.86648" lon="2.36394">
        <ele>104.9</ele>
        <time>2015-01-05T19:46:13.703Z</time>
      </trkpt>
      <trkpt lat="48.86651" lon="2.36394">
        <ele>105</ele>
        <time>2015-01-05T19:46:14.741Z</time>
      </trkpt>
      <trkpt lat="48.86659" lon="2.36395">
        <ele>105</ele>
        <time>2015-01-05T19:46:16.647Z</time>
      </trkpt>
      <trkpt lat="48.86664" lon="2.36395">
        <ele>105.1</ele>
        <time>2015-01-05T19:46:17.677Z</time>
      </trkpt>
      <trkpt lat="48.86672" lon="2.36394">
        <ele>105.1</ele>
        <time>2015-01-05T19:46:19.705Z</time>
      </trkpt>
      <trkpt lat="48.86678" lon="2.36392">
        <ele>104.2</ele>
        <time>2015-01-05T19:46:20.782Z</time>
      </trkpt>
      <trkpt lat="48.86682" lon="2.36389">
        <ele>103.5</ele>
        <time>2015-01-05T19:46:21.639Z</time>
      </trkpt>
      <trkpt lat="48.86686" lon="2.36386">
        <ele>102.9</ele>
        <time>2015-01-05T19:46:22.648Z</time>
      </trkpt>
      <trkpt lat="48.86691" lon="2.36383">
        <ele>102.5</ele>
        <time>2015-01-05T19:46:23.695Z</time>
      </trkpt>
      <trkpt lat="48.86696" lon="2.36378">
        <ele>100.6</ele>
        <time>2015-01-05T19:46:24.655Z</time>
      </trkpt>
      <trkpt lat="48.86703" lon="2.36375">
        <ele>98.9</ele>
        <time>2015-01-05T19:46:25.673Z</time>
      </trkpt>
      <trkpt lat="48.86709" lon="2.36372">
        <ele>97.7</ele>
        <time>2015-01-05T19:46:26.680Z</time>
      </trkpt>
      <trkpt lat="48.86714" lon="2.36366">
        <ele>96.5</ele>
        <time>2015-01-05T19:46:28.162Z</time>
      </trkpt>
      <trkpt lat="48.8672" lon="2.36362">
        <ele>95.7</ele>
        <time>2015-01-05T19:46:28.705Z</time>
      </trkpt>
      <trkpt lat="48.86726" lon="2.36356">
        <ele>95.8</ele>
        <time>2015-01-05T19:46:29.706Z</time>
      </trkpt>
      <trkpt lat="48.86732" lon="2.36349">
        <ele>96.1</ele>
        <time>2015-01-05T19:46:30.711Z</time>
      </trkpt>
      <trkpt lat="48.86738" lon="2.36344">
        <ele>96.2</ele>
        <time>2015-01-05T19:46:31.719Z</time>
      </trkpt>
      <trkpt lat="48.86743" lon="2.36339">
        <ele>96.2</ele>
        <time>2015-01-05T19:46:32.725Z</time>
      </trkpt>
      <trkpt lat="48.86749" lon="2.36336">
        <ele>96.1</ele>
        <time>2015-01-05T19:46:33.642Z</time>
      </trkpt>
      <trkpt lat="48.86752" lon="2.3633">
        <ele>96</ele>
        <time>2015-01-05T19:46:34.648Z</time>
      </trkpt>
      <trkpt lat="48.86751" lon="2.36317">
        <ele>92.5</ele>
        <time>2015-01-05T19:46:36.665Z</time>
      </trkpt>
      <trkpt lat="48.86749" lon="2.3631">
        <ele>90.5</ele>
        <time>2015-01-05T19:46:37.673Z</time>
      </trkpt>
      <trkpt lat="48.86753" lon="2.36307">
        <ele>90.3</ele>
        <time>2015-01-05T19:46:38.683Z</time>
      </trkpt>
      <trkpt lat="48.86758" lon="2.36303">
        <ele>90.6</ele>
        <time>2015-01-05T19:46:39.686Z</time>
      </trkpt>
      <trkpt lat="48.86763" lon="2.36301">
        <ele>90.6</ele>
        <time>2015-01-05T19:46:40.706Z</time>
      </trkpt>
      <trkpt lat="48.86769" lon="2.36297">
        <ele>91.1</ele>
        <time>2015-01-05T19:46:41.727Z</time>
      </trkpt>
      <trkpt lat="48.86775" lon="2.36293">
        <ele>91.1</ele>
        <time>2015-01-05T19:46:42.626Z</time>
      </trkpt>
      <trkpt lat="48.8678" lon="2.36289">
        <ele>91.3</ele>
        <time>2015-01-05T19:46:43.633Z</time>
      </trkpt>
      <trkpt lat="48.86785" lon="2.36285">
        <ele>91.1</ele>
        <time>2015-01-05T19:46:44.666Z</time>
      </trkpt>
      <trkpt lat="48.86789" lon="2.36281">
        <ele>91.3</ele>
        <time>2015-01-05T19:46:45.665Z</time>
      </trkpt>
      <trkpt lat="48.86793" lon="2.36275">
        <ele>90.9</ele>
        <time>2015-01-05T19:46:46.701Z</time>
      </trkpt>
      <trkpt lat="48.86796" lon="2.36268">
        <ele>91.2</ele>
        <time>2015-01-05T19:46:47.721Z</time>
      </trkpt>
      <trkpt lat="48.86801" lon="2.36261">
        <ele>91.9</ele>
        <time>2015-01-05T19:46:48.645Z</time>
      </trkpt>
      <trkpt lat="48.86808" lon="2.36256">
        <ele>92.3</ele>
        <time>2015-01-05T19:46:49.672Z</time>
      </trkpt>
      <trkpt lat="48.86815" lon="2.36251">
        <ele>92.9</ele>
        <time>2015-01-05T19:46:50.696Z</time>
      </trkpt>
      <trkpt lat="48.86821" lon="2.36247">
        <ele>92.8</ele>
        <time>2015-01-05T19:46:51.714Z</time>
      </trkpt>
      <trkpt lat="48.86826" lon="2.36243">
        <ele>93.2</ele>
        <time>2015-01-05T19:46:52.631Z</time>
      </trkpt>
      <trkpt lat="48.86832" lon="2.36239">
        <ele>93.7</ele>
        <time>2015-01-05T19:46:53.644Z</time>
      </trkpt>
      <trkpt lat="48.86837" lon="2.36237">
        <ele>94.1</ele>
        <time>2015-01-05T19:46:54.657Z</time>
      </trkpt>
      <trkpt lat="48.86842" lon="2.36233">
        <ele>94.1</ele>
        <time>2015-01-05T19:46:55.665Z</time>
      </trkpt>
      <trkpt lat="48.86846" lon="2.36229">
        <ele>94.1</ele>
        <time>2015-01-05T19:46:56.687Z</time>
      </trkpt>
      <trkpt lat="48.86849" lon="2.36223">
        <ele>94.3</ele>
        <time>2015-01-05T19:46:57.715Z</time>
      </trkpt>
      <trkpt lat="48.86854" lon="2.36219">
        <ele>94.3</ele>
        <time>2015-01-05T19:46:58.641Z</time>
      </trkpt>
      <trkpt lat="48.86859" lon="2.36215">
        <ele>94.3</ele>
        <time>2015-01-05T19:46:59.646Z</time>
      </trkpt>
      <trkpt lat="48.86862" lon="2.36209">
        <ele>94.3</ele>
        <time>2015-01-05T19:47:00.658Z</time>
      </trkpt>
      <trkpt lat="48.86865" lon="2.36203">
        <ele>94.5</ele>
        <time>2015-01-05T19:47:01.661Z</time>
      </trkpt>
      <trkpt lat="48.8687" lon="2.36192">
        <ele>94.7</ele>
        <time>2015-01-05T19:47:03.701Z</time>
      </trkpt>
      <trkpt lat="48.86872" lon="2.36186">
        <ele>94.4</ele>
        <time>2015-01-05T19:47:04.707Z</time>
      </trkpt>
      <trkpt lat="48.86877" lon="2.36175">
        <ele>93.8</ele>
        <time>2015-01-05T19:47:06.634Z</time>
      </trkpt>
      <trkpt lat="48.86879" lon="2.3617">
        <ele>93.5</ele>
        <time>2015-01-05T19:47:07.645Z</time>
      </trkpt>
      <trkpt lat="48.86884" lon="2.3616">
        <ele>93.3</ele>
        <time>2015-01-05T19:47:09.675Z</time>
      </trkpt>
      <trkpt lat="48.86887" lon="2.36156">
        <ele>93.4</ele>
        <time>2015-01-05T19:47:10.687Z</time>
      </trkpt>
      <trkpt lat="48.86895" lon="2.36149">
        <ele>93.1</ele>
        <time>2015-01-05T19:47:12.636Z</time>
      </trkpt>
      <trkpt lat="48.869" lon="2.36146">
        <ele>92.8</ele>
        <time>2015-01-05T19:47:13.640Z</time>
      </trkpt>
      <trkpt lat="48.86904" lon="2.36143">
        <ele>93</ele>
        <time>2015-01-05T19:47:14.666Z</time>
      </trkpt>
      <trkpt lat="48.86909" lon="2.36138">
        <ele>93.1</ele>
        <time>2015-01-05T19:47:15.677Z</time>
      </trkpt>
      <trkpt lat="48.86911" lon="2.36125">
        <ele>92.6</ele>
        <time>2015-01-05T19:47:17.712Z</time>
      </trkpt>
      <trkpt lat="48.86913" lon="2.36121">
        <ele>92.5</ele>
        <time>2015-01-05T19:47:18.643Z</time>
      </trkpt>
      <trkpt lat="48.86919" lon="2.36118">
        <ele>92.7</ele>
        <time>2015-01-05T19:47:19.636Z</time>
      </trkpt>
      <trkpt lat="48.86923" lon="2.36114">
        <ele>92.9</ele>
        <time>2015-01-05T19:47:20.666Z</time>
      </trkpt>
      <trkpt lat="48.86929" lon="2.36111">
        <ele>93</ele>
        <time>2015-01-05T19:47:21.740Z</time>
      </trkpt>
      <trkpt lat="48.86934" lon="2.36108">
        <ele>93.2</ele>
        <time>2015-01-05T19:47:22.632Z</time>
      </trkpt>
      <trkpt lat="48.86941" lon="2.36105">
        <ele>93.3</ele>
        <time>2015-01-05T19:47:23.664Z</time>
      </trkpt>
      <trkpt lat="48.86948" lon="2.36102">
        <ele>93.5</ele>
        <time>2015-01-05T19:47:24.685Z</time>
      </trkpt>
      <trkpt lat="48.86954" lon="2.36099">
        <ele>93.7</ele>
        <time>2015-01-05T19:47:25.624Z</time>
      </trkpt>
      <trkpt lat="48.86959" lon="2.36095">
        <ele>93.8</ele>
        <time>2015-01-05T19:47:26.725Z</time>
      </trkpt>
      <trkpt lat="48.86965" lon="2.36091">
        <ele>93.8</ele>
        <time>2015-01-05T19:47:27.633Z</time>
      </trkpt>
      <trkpt lat="48.86971" lon="2.36088">
        <ele>94</ele>
        <time>2015-01-05T19:47:28.648Z</time>
      </trkpt>
      <trkpt lat="48.86976" lon="2.36085">
        <ele>94.2</ele>
        <time>2015-01-05T19:47:29.652Z</time>
      </trkpt>
      <trkpt lat="48.86983" lon="2.36083">
        <ele>94.4</ele>
        <time>2015-01-05T19:47:30.657Z</time>
      </trkpt>
      <trkpt lat="48.86989" lon="2.36081">
        <ele>94.6</ele>
        <time>2015-01-05T19:47:31.668Z</time>
      </trkpt>
      <trkpt lat="48.86996" lon="2.3608">
        <ele>94.9</ele>
        <time>2015-01-05T19:47:32.689Z</time>
      </trkpt>
      <trkpt lat="48.87002" lon="2.36078">
        <ele>95</ele>
        <time>2015-01-05T19:47:33.720Z</time>
      </trkpt>
      <trkpt lat="48.87009" lon="2.36077">
        <ele>95.4</ele>
        <time>2015-01-05T19:47:34.636Z</time>
      </trkpt>
      <trkpt lat="48.87015" lon="2.36075">
        <ele>95.5</ele>
        <time>2015-01-05T19:47:35.636Z</time>
      </trkpt>
      <trkpt lat="48.87022" lon="2.36074">
        <ele>95.6</ele>
        <time>2015-01-05T19:47:36.667Z</time>
      </trkpt>
      <trkpt lat="48.87029" lon="2.36073">
        <ele>95.9</ele>
        <time>2015-01-05T19:47:37.700Z</time>
      </trkpt>
      <trkpt lat="48.87035" lon="2.36071">
        <ele>96</ele>
        <time>2015-01-05T19:47:38.703Z</time>
      </trkpt>
      <trkpt lat="48.87042" lon="2.36069">
        <ele>96.7</ele>
        <time>2015-01-05T19:47:39.710Z</time>
      </trkpt>
      <trkpt lat="48.87048" lon="2.36067">
        <ele>97.3</ele>
        <time>2015-01-05T19:47:40.726Z</time>
      </trkpt>
      <trkpt lat="48.87054" lon="2.36065">
        <ele>98.3</ele>
        <time>2015-01-05T19:47:41.615Z</time>
      </trkpt>
      <trkpt lat="48.8706" lon="2.36063">
        <ele>99.2</ele>
        <time>2015-01-05T19:47:42.623Z</time>
      </trkpt>
      <trkpt lat="48.87065" lon="2.36061">
        <ele>99.9</ele>
        <time>2015-01-05T19:47:43.636Z</time>
      </trkpt>
      <trkpt lat="48.87069" lon="2.36058">
        <ele>100.4</ele>
        <time>2015-01-05T19:47:44.655Z</time>
      </trkpt>
      <trkpt lat="48.87077" lon="2.36052">
        <ele>101.7</ele>
        <time>2015-01-05T19:47:46.710Z</time>
      </trkpt>
      <trkpt lat="48.87079" lon="2.36049">
        <ele>101.4</ele>
        <time>2015-01-05T19:47:47.614Z</time>
      </trkpt>
      <trkpt lat="48.87086" lon="2.36043">
        <ele>101.6</ele>
        <time>2015-01-05T19:47:49.636Z</time>
      </trkpt>
      <trkpt lat="48.87089" lon="2.3604">
        <ele>102.2</ele>
        <time>2015-01-05T19:47:50.669Z</time>
      </trkpt>
      <trkpt lat="48.87093" lon="2.36038">
        <ele>102.4</ele>
        <time>2015-01-05T19:47:51.672Z</time>
      </trkpt>
      <trkpt lat="48.87098" lon="2.36036">
        <ele>102.7</ele>
        <time>2015-01-05T19:47:52.681Z</time>
      </trkpt>
      <trkpt lat="48.87107" lon="2.36034">
        <ele>102.8</ele>
        <time>2015-01-05T19:47:54.720Z</time>
      </trkpt>
      <trkpt lat="48.87112" lon="2.36033">
        <ele>103.4</ele>
        <time>2015-01-05T19:47:55.630Z</time>
      </trkpt>
      <trkpt lat="48.87119" lon="2.36028">
        <ele>103.5</ele>
        <time>2015-01-05T19:47:57.658Z</time>
      </trkpt>
      <trkpt lat="48.87125" lon="2.36027">
        <ele>103.8</ele>
        <time>2015-01-05T19:47:58.679Z</time>
      </trkpt>
      <trkpt lat="48.8713" lon="2.36025">
        <ele>104.1</ele>
        <time>2015-01-05T19:47:59.691Z</time>
      </trkpt>
      <trkpt lat="48.87144" lon="2.36024">
        <ele>105.1</ele>
        <time>2015-01-05T19:48:01.631Z</time>
      </trkpt>
      <trkpt lat="48.87149" lon="2.36022">
        <ele>105.5</ele>
        <time>2015-01-05T19:48:02.665Z</time>
      </trkpt>
      <trkpt lat="48.87138" lon="2.35925">
        <ele>107.4</ele>
        <time>2015-01-05T19:48:13.668Z</time>
      </trkpt>
      <trkpt lat="48.87122" lon="2.35901">
        <ele>107.3</ele>
        <time>2015-01-05T19:48:14.658Z</time>
      </trkpt>
      <trkpt lat="48.87103" lon="2.35874">
        <ele>107.1</ele>
        <time>2015-01-05T19:48:15.663Z</time>
      </trkpt>
      <trkpt lat="48.87086" lon="2.35849">
        <ele>106.6</ele>
        <time>2015-01-05T19:48:16.673Z</time>
      </trkpt>
      <trkpt lat="48.87066" lon="2.35822">
        <ele>106</ele>
        <time>2015-01-05T19:48:17.680Z</time>
      </trkpt>
      <trkpt lat="48.87045" lon="2.35793">
        <ele>105.5</ele>
        <time>2015-01-05T19:48:18.590Z</time>
      </trkpt>
      <trkpt lat="48.87019" lon="2.35758">
        <ele>105.1</ele>
        <time>2015-01-05T19:48:19.611Z</time>
      </trkpt>
      <trkpt lat="48.86985" lon="2.35716">
        <ele>104.9</ele>
        <time>2015-01-05T19:48:20.625Z</time>
      </trkpt>
      <trkpt lat="48.86947" lon="2.3567">
        <ele>104.5</ele>
        <time>2015-01-05T19:48:21.637Z</time>
      </trkpt>
      <trkpt lat="48.86906" lon="2.35622">
        <ele>103.9</ele>
        <time>2015-01-05T19:48:22.654Z</time>
      </trkpt>
      <trkpt lat="48.86872" lon="2.35581">
        <ele>103.9</ele>
        <time>2015-01-05T19:48:23.731Z</time>
      </trkpt>
      <trkpt lat="48.86863" lon="2.35565">
        <ele>104</ele>
        <time>2015-01-05T19:48:24.689Z</time>
      </trkpt>
      <trkpt lat="48.86857" lon="2.35548">
        <ele>105.2</ele>
        <time>2015-01-05T19:48:25.608Z</time>
      </trkpt>
      <trkpt lat="48.86853" lon="2.35531">
        <ele>108.4</ele>
        <time>2015-01-05T19:48:26.621Z</time>
      </trkpt>
      <trkpt lat="48.86849" lon="2.35518">
        <ele>109.1</ele>
        <time>2015-01-05T19:48:27.641Z</time>
      </trkpt>
      <trkpt lat="48.86849" lon="2.35508">
        <ele>110.4</ele>
        <time>2015-01-05T19:48:28.660Z</time>
      </trkpt>
      <trkpt lat="48.86854" lon="2.35504">
        <ele>110.3</ele>
        <time>2015-01-05T19:48:29.666Z</time>
      </trkpt>
      <trkpt lat="48.86854" lon="2.35492">
        <ele>103.1</ele>
        <time>2015-01-05T19:48:32.773Z</time>
      </trkpt>
      <trkpt lat="48.86859" lon="2.35493">
        <ele>101.5</ele>
        <time>2015-01-05T19:48:33.638Z</time>
      </trkpt>
      <trkpt lat="48.86866" lon="2.35491">
        <ele>99.6</ele>
        <time>2015-01-05T19:48:35.626Z</time>
      </trkpt>
      <trkpt lat="48.86869" lon="2.35487">
        <ele>100</ele>
        <time>2015-01-05T19:48:36.654Z</time>
      </trkpt>
      <trkpt lat="48.86876" lon="2.3548">
        <ele>99.6</ele>
        <time>2015-01-05T19:48:38.726Z</time>
      </trkpt>
      <trkpt lat="48.8688" lon="2.35478">
        <ele>99.6</ele>
        <time>2015-01-05T19:48:39.631Z</time>
      </trkpt>
      <trkpt lat="48.86886" lon="2.35471">
        <ele>100</ele>
        <time>2015-01-05T19:48:41.703Z</time>
      </trkpt>
      <trkpt lat="48.8689" lon="2.35467">
        <ele>100.2</ele>
        <time>2015-01-05T19:48:42.720Z</time>
      </trkpt>
      <trkpt lat="48.86898" lon="2.35462">
        <ele>100.2</ele>
        <time>2015-01-05T19:48:44.639Z</time>
      </trkpt>
      <trkpt lat="48.86902" lon="2.35459">
        <ele>100.2</ele>
        <time>2015-01-05T19:48:45.696Z</time>
      </trkpt>
      <trkpt lat="48.86907" lon="2.35457">
        <ele>100.3</ele>
        <time>2015-01-05T19:48:46.630Z</time>
      </trkpt>
      <trkpt lat="48.86912" lon="2.35454">
        <ele>100.5</ele>
        <time>2015-01-05T19:48:47.643Z</time>
      </trkpt>
      <trkpt lat="48.86918" lon="2.35448">
        <ele>101.1</ele>
        <time>2015-01-05T19:48:49.676Z</time>
      </trkpt>
      <trkpt lat="48.86918" lon="2.35442">
        <ele>101.4</ele>
        <time>2015-01-05T19:48:50.700Z</time>
      </trkpt>
      <trkpt lat="48.86913" lon="2.35431">
        <ele>100.4</ele>
        <time>2015-01-05T19:48:52.609Z</time>
      </trkpt>
      <trkpt lat="48.86905" lon="2.35423">
        <ele>98.7</ele>
        <time>2015-01-05T19:48:53.639Z</time>
      </trkpt>
      <trkpt lat="48.86902" lon="2.35414">
        <ele>98.9</ele>
        <time>2015-01-05T19:48:55.676Z</time>
      </trkpt>
      <trkpt lat="48.86901" lon="2.3541">
        <ele>99.4</ele>
        <time>2015-01-05T19:48:56.693Z</time>
      </trkpt>
      <trkpt lat="48.86895" lon="2.35402">
        <ele>93.8</ele>
        <time>2015-01-05T19:49:29.719Z</time>
      </trkpt>
      <trkpt lat="48.86895" lon="2.35394">
        <ele>94.4</ele>
        <time>2015-01-05T19:49:30.727Z</time>
      </trkpt>
      <trkpt lat="48.86896" lon="2.35384">
        <ele>95.5</ele>
        <time>2015-01-05T19:49:32.965Z</time>
      </trkpt>
      <trkpt lat="48.86896" lon="2.3538">
        <ele>95.8</ele>
        <time>2015-01-05T19:49:33.715Z</time>
      </trkpt>
      <trkpt lat="48.869" lon="2.35369">
        <ele>95.5</ele>
        <time>2015-01-05T19:49:38.100Z</time>
      </trkpt>
      <trkpt lat="48.86901" lon="2.35367">
        <ele>95.3</ele>
        <time>2015-01-05T19:49:38.682Z</time>
      </trkpt>
      <trkpt lat="48.86909" lon="2.35362">
        <ele>95</ele>
        <time>2015-01-05T19:49:41.677Z</time>
      </trkpt>
      <trkpt lat="48.86912" lon="2.35361">
        <ele>95.2</ele>
        <time>2015-01-05T19:49:42.769Z</time>
      </trkpt>
      <trkpt lat="48.8692" lon="2.35353">
        <ele>95.8</ele>
        <time>2015-01-05T19:49:45.746Z</time>
      </trkpt>
      <trkpt lat="48.86922" lon="2.35351">
        <ele>95.8</ele>
        <time>2015-01-05T19:49:46.609Z</time>
      </trkpt>
      <trkpt lat="48.86929" lon="2.35348">
        <ele>96</ele>
        <time>2015-01-05T19:49:48.636Z</time>
      </trkpt>
      <trkpt lat="48.86933" lon="2.35346">
        <ele>96.1</ele>
        <time>2015-01-05T19:49:49.660Z</time>
      </trkpt>
      <trkpt lat="48.86942" lon="2.35343">
        <ele>96.5</ele>
        <time>2015-01-05T19:49:51.662Z</time>
      </trkpt>
      <trkpt lat="48.86946" lon="2.35342">
        <ele>96.8</ele>
        <time>2015-01-05T19:49:52.686Z</time>
      </trkpt>
      <trkpt lat="48.86953" lon="2.35339">
        <ele>97</ele>
        <time>2015-01-05T19:49:54.632Z</time>
      </trkpt>
      <trkpt lat="48.86956" lon="2.35337">
        <ele>97.2</ele>
        <time>2015-01-05T19:49:55.645Z</time>
      </trkpt>
      <trkpt lat="48.86962" lon="2.35333">
        <ele>97.2</ele>
        <time>2015-01-05T19:49:57.693Z</time>
      </trkpt>
      <trkpt lat="48.86964" lon="2.3533">
        <ele>97.2</ele>
        <time>2015-01-05T19:49:58.613Z</time>
      </trkpt>
      <trkpt lat="48.86967" lon="2.35319">
        <ele>96.6</ele>
        <time>2015-01-05T19:50:02.696Z</time>
      </trkpt>
      <trkpt lat="48.86968" lon="2.35316">
        <ele>96.5</ele>
        <time>2015-01-05T19:50:03.602Z</time>
      </trkpt>
      <trkpt lat="48.8697" lon="2.35306">
        <ele>95.7</ele>
        <time>2015-01-05T19:50:06.692Z</time>
      </trkpt>
      <trkpt lat="48.86969" lon="2.35301">
        <ele>95.5</ele>
        <time>2015-01-05T19:50:07.630Z</time>
      </trkpt>
      <trkpt lat="48.86966" lon="2.3529">
        <ele>95.2</ele>
        <time>2015-01-05T19:50:10.650Z</time>
      </trkpt>
      <trkpt lat="48.86966" lon="2.35286">
        <ele>95.3</ele>
        <time>2015-01-05T19:50:11.692Z</time>
      </trkpt>
      <trkpt lat="48.86964" lon="2.35281">
        <ele>95.4</ele>
        <time>2015-01-05T19:50:13.760Z</time>
      </trkpt>
      <trkpt lat="48.86958" lon="2.35276">
        <ele>94.4</ele>
        <time>2015-01-05T19:50:14.675Z</time>
      </trkpt>
      <trkpt lat="48.86958" lon="2.35276">
        <ele>94.4</ele>
        <time>2015-01-05T19:50:23.773Z</time>
      </trkpt>
      <trkpt lat="48.86938" lon="2.35251">
        <ele>90.6</ele>
        <time>2015-01-05T19:50:24.637Z</time>
      </trkpt>
      <trkpt lat="48.86944" lon="2.35257">
        <ele>90</ele>
        <time>2015-01-05T19:50:26.661Z</time>
      </trkpt>
      <trkpt lat="48.86946" lon="2.35258">
        <ele>90</ele>
        <time>2015-01-05T19:50:27.666Z</time>
      </trkpt>
      <trkpt lat="48.86953" lon="2.35252">
        <ele>89.8</ele>
        <time>2015-01-05T19:50:29.657Z</time>
      </trkpt>
      <trkpt lat="48.86961" lon="2.35245">
        <ele>89.7</ele>
        <time>2015-01-05T19:50:30.668Z</time>
      </trkpt>
      <trkpt lat="48.86968" lon="2.3524">
        <ele>89.7</ele>
        <time>2015-01-05T19:50:31.724Z</time>
      </trkpt>
      <trkpt lat="48.86972" lon="2.35236">
        <ele>90</ele>
        <time>2015-01-05T19:50:32.851Z</time>
      </trkpt>
      <trkpt lat="48.86978" lon="2.35225">
        <ele>90.5</ele>
        <time>2015-01-05T19:50:34.666Z</time>
      </trkpt>
      <trkpt lat="48.8698" lon="2.35217">
        <ele>90.1</ele>
        <time>2015-01-05T19:50:35.683Z</time>
      </trkpt>
      <trkpt lat="48.86981" lon="2.35209">
        <ele>89.9</ele>
        <time>2015-01-05T19:50:36.695Z</time>
      </trkpt>
      <trkpt lat="48.86982" lon="2.35201">
        <ele>89.9</ele>
        <time>2015-01-05T19:50:37.703Z</time>
      </trkpt>
      <trkpt lat="48.86983" lon="2.35193">
        <ele>89.6</ele>
        <time>2015-01-05T19:50:38.725Z</time>
      </trkpt>
      <trkpt lat="48.86984" lon="2.35187">
        <ele>89.7</ele>
        <time>2015-01-05T19:50:39.735Z</time>
      </trkpt>
      <trkpt lat="48.8699" lon="2.35178">
        <ele>90.3</ele>
        <time>2015-01-05T19:50:41.649Z</time>
      </trkpt>
      <trkpt lat="48.86993" lon="2.35173">
        <ele>90.8</ele>
        <time>2015-01-05T19:50:42.661Z</time>
      </trkpt>
      <trkpt lat="48.86997" lon="2.35168">
        <ele>91.4</ele>
        <time>2015-01-05T19:50:44.207Z</time>
      </trkpt>
      <trkpt lat="48.87001" lon="2.35163">
        <ele>91.8</ele>
        <time>2015-01-05T19:50:44.687Z</time>
      </trkpt>
      <trkpt lat="48.87008" lon="2.35155">
        <ele>92.8</ele>
        <time>2015-01-05T19:50:46.627Z</time>
      </trkpt>
      <trkpt lat="48.87008" lon="2.35151">
        <ele>94.1</ele>
        <time>2015-01-05T19:50:47.772Z</time>
      </trkpt>
      <trkpt lat="48.87009" lon="2.35141">
        <ele>95.9</ele>
        <time>2015-01-05T19:50:49.673Z</time>
      </trkpt>
      <trkpt lat="48.87011" lon="2.35132">
        <ele>96.9</ele>
        <time>2015-01-05T19:50:50.756Z</time>
      </trkpt>
      <trkpt lat="48.87014" lon="2.35123">
        <ele>97.3</ele>
        <time>2015-01-05T19:50:51.724Z</time>
      </trkpt>
      <trkpt lat="48.87017" lon="2.35115">
        <ele>97.7</ele>
        <time>2015-01-05T19:50:52.744Z</time>
      </trkpt>
      <trkpt lat="48.87021" lon="2.35103">
        <ele>98.6</ele>
        <time>2015-01-05T19:50:54.782Z</time>
      </trkpt>
      <trkpt lat="48.87021" lon="2.35099">
        <ele>99.1</ele>
        <time>2015-01-05T19:50:55.727Z</time>
      </trkpt>
      <trkpt lat="48.8702" lon="2.35089">
        <ele>99.7</ele>
        <time>2015-01-05T19:50:57.615Z</time>
      </trkpt>
      <trkpt lat="48.87019" lon="2.35085">
        <ele>99.9</ele>
        <time>2015-01-05T19:50:58.635Z</time>
      </trkpt>
      <trkpt lat="48.87016" lon="2.35073">
        <ele>100.1</ele>
        <time>2015-01-05T19:51:02.586Z</time>
      </trkpt>
      <trkpt lat="48.87014" lon="2.35068">
        <ele>100.3</ele>
        <time>2015-01-05T19:51:02.761Z</time>
      </trkpt>
      <trkpt lat="48.87012" lon="2.35058">
        <ele>100.4</ele>
        <time>2015-01-05T19:51:04.684Z</time>
      </trkpt>
      <trkpt lat="48.8701" lon="2.35054">
        <ele>100.6</ele>
        <time>2015-01-05T19:51:05.715Z</time>
      </trkpt>
      <trkpt lat="48.87007" lon="2.35045">
        <ele>101.8</ele>
        <time>2015-01-05T19:51:08.705Z</time>
      </trkpt>
      <trkpt lat="48.87006" lon="2.35041">
        <ele>102</ele>
        <time>2015-01-05T19:51:09.710Z</time>
      </trkpt>
      <trkpt lat="48.87005" lon="2.35036">
        <ele>102</ele>
        <time>2015-01-05T19:51:10.625Z</time>
      </trkpt>
      <trkpt lat="48.87004" lon="2.35024">
        <ele>103</ele>
        <time>2015-01-05T19:51:13.667Z</time>
      </trkpt>
      <trkpt lat="48.87008" lon="2.35013">
        <ele>103.9</ele>
        <time>2015-01-05T19:51:16.602Z</time>
      </trkpt>
      <trkpt lat="48.87008" lon="2.35009">
        <ele>104.1</ele>
        <time>2015-01-05T19:51:17.624Z</time>
      </trkpt>
      <trkpt lat="48.87006" lon="2.34999">
        <ele>105.7</ele>
        <time>2015-01-05T19:51:22.963Z</time>
      </trkpt>
      <trkpt lat="48.87004" lon="2.34996">
        <ele>106.2</ele>
        <time>2015-01-05T19:51:23.675Z</time>
      </trkpt>
      <trkpt lat="48.86997" lon="2.34991">
        <ele>107.2</ele>
        <time>2015-01-05T19:51:30.770Z</time>
      </trkpt>
      <trkpt lat="48.8699" lon="2.34986">
        <ele>109.9</ele>
        <time>2015-01-05T19:51:31.623Z</time>
      </trkpt>
      <trkpt lat="48.86998" lon="2.34991">
        <ele>112.5</ele>
        <time>2015-01-05T19:51:37.901Z</time>
      </trkpt>
      <trkpt lat="48.86998" lon="2.34995">
        <ele>112.7</ele>
        <time>2015-01-05T19:51:38.638Z</time>
      </trkpt>
      <trkpt lat="48.87004" lon="2.35003">
        <ele>113.1</ele>
        <time>2015-01-05T19:51:42.887Z</time>
      </trkpt>
      <trkpt lat="48.87006" lon="2.35006">
        <ele>113.4</ele>
        <time>2015-01-05T19:51:43.605Z</time>
      </trkpt>
      <trkpt lat="48.87008" lon="2.35009">
        <ele>113.4</ele>
        <time>2015-01-05T19:51:44.678Z</time>
      </trkpt>
      <trkpt lat="48.87016" lon="2.35016">
        <ele>111.5</ele>
        <time>2015-01-05T19:51:54.677Z</time>
      </trkpt>
      <trkpt lat="48.8701" lon="2.3501">
        <ele>111.5</ele>
        <time>2015-01-05T19:51:55.684Z</time>
      </trkpt>
      <trkpt lat="48.87004" lon="2.35004">
        <ele>111.7</ele>
        <time>2015-01-05T19:51:58.672Z</time>
      </trkpt>
      <trkpt lat="48.87004" lon="2.35004">
        <ele>111.7</ele>
        <time>2015-01-05T19:52:26.706Z</time>
      </trkpt>
      <trkpt lat="48.86971" lon="2.3498">
        <ele>115.8</ele>
        <time>2015-01-05T19:52:27.680Z</time>
      </trkpt>
      <trkpt lat="48.86969" lon="2.3498">
        <ele>115.7</ele>
        <time>2015-01-05T19:53:48.463Z</time>
      </trkpt>
      <trkpt lat="48.86981" lon="2.35004">
        <ele>139.2</ele>
        <time>2015-01-05T19:53:48.706Z</time>
      </trkpt>
      <trkpt lat="48.86984" lon="2.34992">
        <ele>142.1</ele>
        <time>2015-01-05T19:54:45.613Z</time>
      </trkpt>
      <trkpt lat="48.86986" lon="2.34991">
        <ele>142</ele>
        <time>2015-01-05T19:54:46.655Z</time>
      </trkpt>
      <trkpt lat="48.86991" lon="2.34988">
        <ele>142.4</ele>
        <time>2015-01-05T19:56:36.597Z</time>
      </trkpt>
      <trkpt lat="48.86992" lon="2.35006">
        <ele>155.3</ele>
        <time>2015-01-05T19:56:37.625Z</time>
      </trkpt>
      <trkpt lat="48.86986" lon="2.34998">
        <ele>154.2</ele>
        <time>2015-01-05T19:56:45.624Z</time>
      </trkpt>
      <trkpt lat="48.86985" lon="2.34994">
        <ele>154.2</ele>
        <time>2015-01-05T19:56:46.621Z</time>
      </trkpt>
      <trkpt lat="48.86983" lon="2.34994">
        <ele>154.9</ele>
        <time>2015-01-05T19:56:54.664Z</time>
      </trkpt>
      <trkpt lat="48.86988" lon="2.34979">
        <ele>146.8</ele>
        <time>2015-01-05T19:56:55.780Z</time>
      </trkpt>
      <trkpt lat="48.8699" lon="2.3497">
        <ele>143.4</ele>
        <time>2015-01-05T19:56:58.291Z</time>
      </trkpt>
      <trkpt lat="48.86992" lon="2.34964">
        <ele>142</ele>
        <time>2015-01-05T19:56:58.701Z</time>
      </trkpt>
      <trkpt lat="48.86993" lon="2.34957">
        <ele>140.6</ele>
        <time>2015-01-05T19:56:59.626Z</time>
      </trkpt>
      <trkpt lat="48.86994" lon="2.3495">
        <ele>139.2</ele>
        <time>2015-01-05T19:57:00.626Z</time>
      </trkpt>
      <trkpt lat="48.86994" lon="2.34941">
        <ele>137.9</ele>
        <time>2015-01-05T19:57:01.656Z</time>
      </trkpt>
      <trkpt lat="48.86993" lon="2.34932">
        <ele>136.8</ele>
        <time>2015-01-05T19:57:02.683Z</time>
      </trkpt>
      <trkpt lat="48.86993" lon="2.34923">
        <ele>136.1</ele>
        <time>2015-01-05T19:57:03.623Z</time>
      </trkpt>
      <trkpt lat="48.86996" lon="2.34914">
        <ele>135.1</ele>
        <time>2015-01-05T19:57:04.628Z</time>
      </trkpt>
      <trkpt lat="48.86996" lon="2.34901">
        <ele>133</ele>
        <time>2015-01-05T19:57:06.651Z</time>
      </trkpt>
      <trkpt lat="48.86995" lon="2.34895">
        <ele>132.2</ele>
        <time>2015-01-05T19:57:07.661Z</time>
      </trkpt>
      <trkpt lat="48.87003" lon="2.34902">
        <ele>129.9</ele>
        <time>2015-01-05T19:57:12.606Z</time>
      </trkpt>
      <trkpt lat="48.87007" lon="2.34907">
        <ele>129.4</ele>
        <time>2015-01-05T19:57:13.626Z</time>
      </trkpt>
      <trkpt lat="48.87013" lon="2.34912">
        <ele>128.7</ele>
        <time>2015-01-05T19:57:14.654Z</time>
      </trkpt>
      <trkpt lat="48.87018" lon="2.34916">
        <ele>128</ele>
        <time>2015-01-05T19:57:15.667Z</time>
      </trkpt>
      <trkpt lat="48.87023" lon="2.3492">
        <ele>127.6</ele>
        <time>2015-01-05T19:57:16.697Z</time>
      </trkpt>
      <trkpt lat="48.87027" lon="2.34921">
        <ele>127.3</ele>
        <time>2015-01-05T19:57:17.728Z</time>
      </trkpt>
      <trkpt lat="48.87031" lon="2.34922">
        <ele>126.7</ele>
        <time>2015-01-05T19:57:18.635Z</time>
      </trkpt>
      <trkpt lat="48.87036" lon="2.34921">
        <ele>125.4</ele>
        <time>2015-01-05T19:57:19.653Z</time>
      </trkpt>
      <trkpt lat="48.87041" lon="2.34914">
        <ele>124.6</ele>
        <time>2015-01-05T19:57:40.647Z</time>
      </trkpt>
      <trkpt lat="48.8706" lon="2.34907">
        <ele>116.3</ele>
        <time>2015-01-05T19:57:41.675Z</time>
      </trkpt>
      <trkpt lat="48.87063" lon="2.34897">
        <ele>114.9</ele>
        <time>2015-01-05T19:57:44.691Z</time>
      </trkpt>
      <trkpt lat="48.87064" lon="2.34893">
        <ele>114.3</ele>
        <time>2015-01-05T19:57:45.635Z</time>
      </trkpt>
      <trkpt lat="48.87064" lon="2.34882">
        <ele>113</ele>
        <time>2015-01-05T19:57:47.669Z</time>
      </trkpt>
      <trkpt lat="48.87065" lon="2.34877">
        <ele>112.9</ele>
        <time>2015-01-05T19:57:48.858Z</time>
      </trkpt>
      <trkpt lat="48.87065" lon="2.34865">
        <ele>111.6</ele>
        <time>2015-01-05T19:57:50.707Z</time>
      </trkpt>
      <trkpt lat="48.87064" lon="2.34859">
        <ele>111</ele>
        <time>2015-01-05T19:57:51.717Z</time>
      </trkpt>
      <trkpt lat="48.87062" lon="2.34852">
        <ele>110.5</ele>
        <time>2015-01-05T19:57:52.606Z</time>
      </trkpt>
      <trkpt lat="48.87059" lon="2.34844">
        <ele>110.4</ele>
        <time>2015-01-05T19:57:53.608Z</time>
      </trkpt>
      <trkpt lat="48.87058" lon="2.34834">
        <ele>109.4</ele>
        <time>2015-01-05T19:57:55.633Z</time>
      </trkpt>
      <trkpt lat="48.87058" lon="2.3483">
        <ele>109.1</ele>
        <time>2015-01-05T19:57:56.649Z</time>
      </trkpt>
      <trkpt lat="48.87057" lon="2.34818">
        <ele>107.1</ele>
        <time>2015-01-05T19:57:59.682Z</time>
      </trkpt>
      <trkpt lat="48.87057" lon="2.34814">
        <ele>106.6</ele>
        <time>2015-01-05T19:58:00.642Z</time>
      </trkpt>
      <trkpt lat="48.87058" lon="2.34804">
        <ele>105.9</ele>
        <time>2015-01-05T19:58:03.660Z</time>
      </trkpt>
      <trkpt lat="48.87059" lon="2.348">
        <ele>105.8</ele>
        <time>2015-01-05T19:58:04.672Z</time>
      </trkpt>
      <trkpt lat="48.87062" lon="2.34787">
        <ele>105.4</ele>
        <time>2015-01-05T19:58:07.684Z</time>
      </trkpt>
      <trkpt lat="48.87062" lon="2.34783">
        <ele>105.2</ele>
        <time>2015-01-05T19:58:08.699Z</time>
      </trkpt>
      <trkpt lat="48.87064" lon="2.34773">
        <ele>105</ele>
        <time>2015-01-05T19:58:10.640Z</time>
      </trkpt>
      <trkpt lat="48.87065" lon="2.34768">
        <ele>105.2</ele>
        <time>2015-01-05T19:58:11.654Z</time>
      </trkpt>
      <trkpt lat="48.87068" lon="2.34758">
        <ele>105.8</ele>
        <time>2015-01-05T19:58:13.715Z</time>
      </trkpt>
      <trkpt lat="48.87069" lon="2.34753">
        <ele>105.8</ele>
        <time>2015-01-05T19:58:14.715Z</time>
      </trkpt>
      <trkpt lat="48.87069" lon="2.34742">
        <ele>105.1</ele>
        <time>2015-01-05T19:58:16.697Z</time>
      </trkpt>
      <trkpt lat="48.87069" lon="2.34736">
        <ele>104.9</ele>
        <time>2015-01-05T19:58:17.709Z</time>
      </trkpt>
      <trkpt lat="48.87068" lon="2.34723">
        <ele>104.1</ele>
        <time>2015-01-05T19:58:19.728Z</time>
      </trkpt>
      <trkpt lat="48.87069" lon="2.34719">
        <ele>103.7</ele>
        <time>2015-01-05T19:58:20.680Z</time>
      </trkpt>
      <trkpt lat="48.87072" lon="2.34708">
        <ele>103.5</ele>
        <time>2015-01-05T19:58:22.618Z</time>
      </trkpt>
      <trkpt lat="48.87073" lon="2.34702">
        <ele>103.6</ele>
        <time>2015-01-05T19:58:23.643Z</time>
      </trkpt>
      <trkpt lat="48.87075" lon="2.34692">
        <ele>103.9</ele>
        <time>2015-01-05T19:58:25.645Z</time>
      </trkpt>
      <trkpt lat="48.87076" lon="2.34686">
        <ele>103.7</ele>
        <time>2015-01-05T19:58:26.712Z</time>
      </trkpt>
      <trkpt lat="48.87078" lon="2.3468">
        <ele>103.7</ele>
        <time>2015-01-05T19:58:27.692Z</time>
      </trkpt>
      <trkpt lat="48.87081" lon="2.34675">
        <ele>104.3</ele>
        <time>2015-01-05T19:58:28.698Z</time>
      </trkpt>
      <trkpt lat="48.87085" lon="2.34664">
        <ele>104.6</ele>
        <time>2015-01-05T19:58:30.619Z</time>
      </trkpt>
      <trkpt lat="48.87085" lon="2.34659">
        <ele>104.9</ele>
        <time>2015-01-05T19:58:31.640Z</time>
      </trkpt>
      <trkpt lat="48.87089" lon="2.34647">
        <ele>104.9</ele>
        <time>2015-01-05T19:58:33.688Z</time>
      </trkpt>
      <trkpt lat="48.8709" lon="2.34639">
        <ele>105.2</ele>
        <time>2015-01-05T19:58:34.775Z</time>
      </trkpt>
      <trkpt lat="48.8709" lon="2.34631">
        <ele>105.5</ele>
        <time>2015-01-05T19:58:35.630Z</time>
      </trkpt>
      <trkpt lat="48.87089" lon="2.34624">
        <ele>105.7</ele>
        <time>2015-01-05T19:58:36.639Z</time>
      </trkpt>
      <trkpt lat="48.87089" lon="2.34617">
        <ele>105.8</ele>
        <time>2015-01-05T19:58:37.647Z</time>
      </trkpt>
      <trkpt lat="48.8709" lon="2.34609">
        <ele>106</ele>
        <time>2015-01-05T19:58:38.650Z</time>
      </trkpt>
      <trkpt lat="48.87091" lon="2.34602">
        <ele>106.1</ele>
        <time>2015-01-05T19:58:39.658Z</time>
      </trkpt>
      <trkpt lat="48.87093" lon="2.34596">
        <ele>106.1</ele>
        <time>2015-01-05T19:58:40.664Z</time>
      </trkpt>
      <trkpt lat="48.87093" lon="2.34587">
        <ele>106.3</ele>
        <time>2015-01-05T19:58:41.675Z</time>
      </trkpt>
      <trkpt lat="48.87093" lon="2.34578">
        <ele>105.9</ele>
        <time>2015-01-05T19:58:42.608Z</time>
      </trkpt>
      <trkpt lat="48.87093" lon="2.3457">
        <ele>105.8</ele>
        <time>2015-01-05T19:58:43.643Z</time>
      </trkpt>
      <trkpt lat="48.87094" lon="2.34562">
        <ele>105.6</ele>
        <time>2015-01-05T19:58:44.679Z</time>
      </trkpt>
      <trkpt lat="48.87094" lon="2.34555">
        <ele>105.2</ele>
        <time>2015-01-05T19:58:45.689Z</time>
      </trkpt>
      <trkpt lat="48.87095" lon="2.34548">
        <ele>104.9</ele>
        <time>2015-01-05T19:58:46.710Z</time>
      </trkpt>
      <trkpt lat="48.87096" lon="2.34535">
        <ele>104.3</ele>
        <time>2015-01-05T19:58:48.707Z</time>
      </trkpt>
      <trkpt lat="48.87096" lon="2.34527">
        <ele>104.2</ele>
        <time>2015-01-05T19:58:49.721Z</time>
      </trkpt>
      <trkpt lat="48.87097" lon="2.34519">
        <ele>104.3</ele>
        <time>2015-01-05T19:58:50.741Z</time>
      </trkpt>
      <trkpt lat="48.87097" lon="2.34511">
        <ele>104</ele>
        <time>2015-01-05T19:58:51.636Z</time>
      </trkpt>
      <trkpt lat="48.87097" lon="2.34502">
        <ele>103.8</ele>
        <time>2015-01-05T19:58:52.641Z</time>
      </trkpt>
      <trkpt lat="48.87098" lon="2.34494">
        <ele>103.9</ele>
        <time>2015-01-05T19:58:53.659Z</time>
      </trkpt>
      <trkpt lat="48.87101" lon="2.34486">
        <ele>104</ele>
        <time>2015-01-05T19:58:54.683Z</time>
      </trkpt>
      <trkpt lat="48.87104" lon="2.3448">
        <ele>104.1</ele>
        <time>2015-01-05T19:58:55.689Z</time>
      </trkpt>
      <trkpt lat="48.87107" lon="2.34474">
        <ele>104.2</ele>
        <time>2015-01-05T19:58:56.699Z</time>
      </trkpt>
      <trkpt lat="48.87108" lon="2.34467">
        <ele>103.9</ele>
        <time>2015-01-05T19:58:57.712Z</time>
      </trkpt>
      <trkpt lat="48.87108" lon="2.34459">
        <ele>103.7</ele>
        <time>2015-01-05T19:58:58.628Z</time>
      </trkpt>
      <trkpt lat="48.87109" lon="2.34453">
        <ele>103.1</ele>
        <time>2015-01-05T19:58:59.703Z</time>
      </trkpt>
      <trkpt lat="48.87109" lon="2.34439">
        <ele>102.2</ele>
        <time>2015-01-05T19:59:01.690Z</time>
      </trkpt>
      <trkpt lat="48.87109" lon="2.34432">
        <ele>102.2</ele>
        <time>2015-01-05T19:59:02.697Z</time>
      </trkpt>
      <trkpt lat="48.87109" lon="2.34425">
        <ele>101.9</ele>
        <time>2015-01-05T19:59:03.713Z</time>
      </trkpt>
      <trkpt lat="48.87109" lon="2.34418">
        <ele>101.6</ele>
        <time>2015-01-05T19:59:04.624Z</time>
      </trkpt>
      <trkpt lat="48.87109" lon="2.34411">
        <ele>101.5</ele>
        <time>2015-01-05T19:59:05.637Z</time>
      </trkpt>
      <trkpt lat="48.8711" lon="2.34404">
        <ele>100.9</ele>
        <time>2015-01-05T19:59:06.638Z</time>
      </trkpt>
      <trkpt lat="48.87111" lon="2.34398">
        <ele>100.4</ele>
        <time>2015-01-05T19:59:07.656Z</time>
      </trkpt>
      <trkpt lat="48.87112" lon="2.34391">
        <ele>100.1</ele>
        <time>2015-01-05T19:59:08.754Z</time>
      </trkpt>
      <trkpt lat="48.87113" lon="2.34384">
        <ele>99.6</ele>
        <time>2015-01-05T19:59:09.685Z</time>
      </trkpt>
      <trkpt lat="48.87114" lon="2.34377">
        <ele>99.3</ele>
        <time>2015-01-05T19:59:10.688Z</time>
      </trkpt>
      <trkpt lat="48.87116" lon="2.34369">
        <ele>99.1</ele>
        <time>2015-01-05T19:59:11.694Z</time>
      </trkpt>
      <trkpt lat="48.87117" lon="2.34362">
        <ele>99.2</ele>
        <time>2015-01-05T19:59:12.705Z</time>
      </trkpt>
      <trkpt lat="48.87119" lon="2.34355">
        <ele>98.5</ele>
        <time>2015-01-05T19:59:13.617Z</time>
      </trkpt>
      <trkpt lat="48.87121" lon="2.34348">
        <ele>98.3</ele>
        <time>2015-01-05T19:59:14.657Z</time>
      </trkpt>
      <trkpt lat="48.87122" lon="2.34341">
        <ele>98.1</ele>
        <time>2015-01-05T19:59:15.625Z</time>
      </trkpt>
      <trkpt lat="48.87124" lon="2.34334">
        <ele>97.5</ele>
        <time>2015-01-05T19:59:16.628Z</time>
      </trkpt>
      <trkpt lat="48.87124" lon="2.3432">
        <ele>97.1</ele>
        <time>2015-01-05T19:59:18.639Z</time>
      </trkpt>
      <trkpt lat="48.87124" lon="2.34314">
        <ele>96.8</ele>
        <time>2015-01-05T19:59:19.649Z</time>
      </trkpt>
      <trkpt lat="48.87125" lon="2.34307">
        <ele>96.7</ele>
        <time>2015-01-05T19:59:20.701Z</time>
      </trkpt>
      <trkpt lat="48.87129" lon="2.34302">
        <ele>96.9</ele>
        <time>2015-01-05T19:59:21.715Z</time>
      </trkpt>
      <trkpt lat="48.87133" lon="2.34296">
        <ele>96.9</ele>
        <time>2015-01-05T19:59:22.619Z</time>
      </trkpt>
      <trkpt lat="48.87135" lon="2.34289">
        <ele>97</ele>
        <time>2015-01-05T19:59:23.617Z</time>
      </trkpt>
      <trkpt lat="48.87136" lon="2.34281">
        <ele>97.2</ele>
        <time>2015-01-05T19:59:24.625Z</time>
      </trkpt>
      <trkpt lat="48.87138" lon="2.34274">
        <ele>97.4</ele>
        <time>2015-01-05T19:59:25.628Z</time>
      </trkpt>
      <trkpt lat="48.87139" lon="2.34261">
        <ele>97.1</ele>
        <time>2015-01-05T19:59:27.665Z</time>
      </trkpt>
      <trkpt lat="48.8714" lon="2.34255">
        <ele>97.2</ele>
        <time>2015-01-05T19:59:28.676Z</time>
      </trkpt>
      <trkpt lat="48.8714" lon="2.34242">
        <ele>96.9</ele>
        <time>2015-01-05T19:59:30.623Z</time>
      </trkpt>
      <trkpt lat="48.8714" lon="2.34235">
        <ele>96.9</ele>
        <time>2015-01-05T19:59:31.645Z</time>
      </trkpt>
      <trkpt lat="48.87142" lon="2.34222">
        <ele>96.1</ele>
        <time>2015-01-05T19:59:33.663Z</time>
      </trkpt>
      <trkpt lat="48.87142" lon="2.34216">
        <ele>96</ele>
        <time>2015-01-05T19:59:34.641Z</time>
      </trkpt>
      <trkpt lat="48.87146" lon="2.34206">
        <ele>95.5</ele>
        <time>2015-01-05T19:59:36.657Z</time>
      </trkpt>
      <trkpt lat="48.87147" lon="2.34201">
        <ele>95.2</ele>
        <time>2015-01-05T19:59:37.718Z</time>
      </trkpt>
      <trkpt lat="48.8715" lon="2.34188">
        <ele>95.4</ele>
        <time>2015-01-05T19:59:39.679Z</time>
      </trkpt>
      <trkpt lat="48.8715" lon="2.34182">
        <ele>95.5</ele>
        <time>2015-01-05T19:59:40.703Z</time>
      </trkpt>
      <trkpt lat="48.87152" lon="2.34169">
        <ele>95.3</ele>
        <time>2015-01-05T19:59:42.635Z</time>
      </trkpt>
      <trkpt lat="48.87152" lon="2.34163">
        <ele>95.5</ele>
        <time>2015-01-05T19:59:43.645Z</time>
      </trkpt>
      <trkpt lat="48.87155" lon="2.34153">
        <ele>96.5</ele>
        <time>2015-01-05T19:59:45.679Z</time>
      </trkpt>
      <trkpt lat="48.87158" lon="2.34149">
        <ele>96.8</ele>
        <time>2015-01-05T19:59:46.689Z</time>
      </trkpt>
      <trkpt lat="48.8716" lon="2.3414">
        <ele>96</ele>
        <time>2015-01-05T19:59:48.625Z</time>
      </trkpt>
      <trkpt lat="48.87161" lon="2.34135">
        <ele>95.4</ele>
        <time>2015-01-05T19:59:49.662Z</time>
      </trkpt>
      <trkpt lat="48.87163" lon="2.34123">
        <ele>94.8</ele>
        <time>2015-01-05T19:59:51.671Z</time>
      </trkpt>
      <trkpt lat="48.87163" lon="2.34117">
        <ele>94.8</ele>
        <time>2015-01-05T19:59:52.679Z</time>
      </trkpt>
      <trkpt lat="48.87164" lon="2.34104">
        <ele>94.6</ele>
        <time>2015-01-05T19:59:54.626Z</time>
      </trkpt>
      <trkpt lat="48.87164" lon="2.34097">
        <ele>94.2</ele>
        <time>2015-01-05T19:59:55.638Z</time>
      </trkpt>
      <trkpt lat="48.87164" lon="2.3409">
        <ele>94</ele>
        <time>2015-01-05T19:59:56.758Z</time>
      </trkpt>
      <trkpt lat="48.87164" lon="2.34082">
        <ele>94</ele>
        <time>2015-01-05T19:59:57.625Z</time>
      </trkpt>
      <trkpt lat="48.87164" lon="2.34074">
        <ele>94.4</ele>
        <time>2015-01-05T19:59:58.634Z</time>
      </trkpt>
      <trkpt lat="48.87164" lon="2.34067">
        <ele>94.5</ele>
        <time>2015-01-05T19:59:59.642Z</time>
      </trkpt>
      <trkpt lat="48.87165" lon="2.3406">
        <ele>94.3</ele>
        <time>2015-01-05T20:00:00.680Z</time>
      </trkpt>
      <trkpt lat="48.87165" lon="2.34053">
        <ele>94.1</ele>
        <time>2015-01-05T20:00:01.688Z</time>
      </trkpt>
      <trkpt lat="48.87166" lon="2.34046">
        <ele>93.7</ele>
        <time>2015-01-05T20:00:02.703Z</time>
      </trkpt>
      <trkpt lat="48.87166" lon="2.34038">
        <ele>93.8</ele>
        <time>2015-01-05T20:00:03.600Z</time>
      </trkpt>
      <trkpt lat="48.87167" lon="2.3403">
        <ele>93.6</ele>
        <time>2015-01-05T20:00:04.666Z</time>
      </trkpt>
      <trkpt lat="48.87167" lon="2.34023">
        <ele>93</ele>
        <time>2015-01-05T20:00:05.688Z</time>
      </trkpt>
      <trkpt lat="48.87168" lon="2.34015">
        <ele>93</ele>
        <time>2015-01-05T20:00:06.703Z</time>
      </trkpt>
      <trkpt lat="48.87169" lon="2.34007">
        <ele>92.8</ele>
        <time>2015-01-05T20:00:07.714Z</time>
      </trkpt>
      <trkpt lat="48.8717" lon="2.33999">
        <ele>92.4</ele>
        <time>2015-01-05T20:00:08.722Z</time>
      </trkpt>
      <trkpt lat="48.87174" lon="2.33993">
        <ele>91.9</ele>
        <time>2015-01-05T20:00:09.639Z</time>
      </trkpt>
      <trkpt lat="48.87176" lon="2.33986">
        <ele>91.8</ele>
        <time>2015-01-05T20:00:10.691Z</time>
      </trkpt>
      <trkpt lat="48.87178" lon="2.33978">
        <ele>91.6</ele>
        <time>2015-01-05T20:00:11.700Z</time>
      </trkpt>
      <trkpt lat="48.87179" lon="2.33971">
        <ele>91.6</ele>
        <time>2015-01-05T20:00:12.737Z</time>
      </trkpt>
      <trkpt lat="48.8718" lon="2.33963">
        <ele>91.9</ele>
        <time>2015-01-05T20:00:13.733Z</time>
      </trkpt>
      <trkpt lat="48.8718" lon="2.33955">
        <ele>92.3</ele>
        <time>2015-01-05T20:00:14.771Z</time>
      </trkpt>
      <trkpt lat="48.87183" lon="2.3395">
        <ele>93.1</ele>
        <time>2015-01-05T20:00:15.638Z</time>
      </trkpt>
      <trkpt lat="48.87187" lon="2.33945">
        <ele>93.7</ele>
        <time>2015-01-05T20:00:16.652Z</time>
      </trkpt>
      <trkpt lat="48.87188" lon="2.33938">
        <ele>94.5</ele>
        <time>2015-01-05T20:00:17.741Z</time>
      </trkpt>
      <trkpt lat="48.8719" lon="2.33932">
        <ele>95</ele>
        <time>2015-01-05T20:00:18.641Z</time>
      </trkpt>
      <trkpt lat="48.87192" lon="2.33925">
        <ele>95.2</ele>
        <time>2015-01-05T20:00:19.661Z</time>
      </trkpt>
      <trkpt lat="48.87194" lon="2.33918">
        <ele>95.3</ele>
        <time>2015-01-05T20:00:20.684Z</time>
      </trkpt>
      <trkpt lat="48.87197" lon="2.33912">
        <ele>95.6</ele>
        <time>2015-01-05T20:00:21.780Z</time>
      </trkpt>
      <trkpt lat="48.87198" lon="2.33904">
        <ele>95.6</ele>
        <time>2015-01-05T20:00:22.627Z</time>
      </trkpt>
      <trkpt lat="48.87199" lon="2.33896">
        <ele>95.8</ele>
        <time>2015-01-05T20:00:23.630Z</time>
      </trkpt>
      <trkpt lat="48.872" lon="2.33888">
        <ele>95.8</ele>
        <time>2015-01-05T20:00:24.656Z</time>
      </trkpt>
      <trkpt lat="48.87201" lon="2.3388">
        <ele>95.9</ele>
        <time>2015-01-05T20:00:25.679Z</time>
      </trkpt>
      <trkpt lat="48.872" lon="2.33871">
        <ele>95.7</ele>
        <time>2015-01-05T20:00:26.700Z</time>
      </trkpt>
      <trkpt lat="48.872" lon="2.33863">
        <ele>95.6</ele>
        <time>2015-01-05T20:00:27.708Z</time>
      </trkpt>
      <trkpt lat="48.872" lon="2.33855">
        <ele>95.4</ele>
        <time>2015-01-05T20:00:28.641Z</time>
      </trkpt>
      <trkpt lat="48.872" lon="2.33847">
        <ele>95</ele>
        <time>2015-01-05T20:00:29.662Z</time>
      </trkpt>
      <trkpt lat="48.87202" lon="2.3384">
        <ele>94.8</ele>
        <time>2015-01-05T20:00:30.678Z</time>
      </trkpt>
      <trkpt lat="48.87203" lon="2.33833">
        <ele>94.7</ele>
        <time>2015-01-05T20:00:31.684Z</time>
      </trkpt>
      <trkpt lat="48.87207" lon="2.33827">
        <ele>94.7</ele>
        <time>2015-01-05T20:00:32.706Z</time>
      </trkpt>
      <trkpt lat="48.8721" lon="2.3382">
        <ele>95</ele>
        <time>2015-01-05T20:00:33.722Z</time>
      </trkpt>
      <trkpt lat="48.87212" lon="2.33811">
        <ele>95.1</ele>
        <time>2015-01-05T20:00:34.635Z</time>
      </trkpt>
      <trkpt lat="48.87213" lon="2.33802">
        <ele>95.3</ele>
        <time>2015-01-05T20:00:35.636Z</time>
      </trkpt>
      <trkpt lat="48.87215" lon="2.33793">
        <ele>95.3</ele>
        <time>2015-01-05T20:00:36.670Z</time>
      </trkpt>
      <trkpt lat="48.87218" lon="2.33785">
        <ele>95.6</ele>
        <time>2015-01-05T20:00:37.722Z</time>
      </trkpt>
      <trkpt lat="48.87221" lon="2.33778">
        <ele>95.5</ele>
        <time>2015-01-05T20:00:38.674Z</time>
      </trkpt>
      <trkpt lat="48.87222" lon="2.33768">
        <ele>95.4</ele>
        <time>2015-01-05T20:00:39.675Z</time>
      </trkpt>
      <trkpt lat="48.87223" lon="2.33761">
        <ele>95.8</ele>
        <time>2015-01-05T20:00:40.681Z</time>
      </trkpt>
      <trkpt lat="48.87225" lon="2.33754">
        <ele>95.8</ele>
        <time>2015-01-05T20:00:41.696Z</time>
      </trkpt>
      <trkpt lat="48.87226" lon="2.33744">
        <ele>95.9</ele>
        <time>2015-01-05T20:00:42.637Z</time>
      </trkpt>
      <trkpt lat="48.87228" lon="2.33735">
        <ele>96.6</ele>
        <time>2015-01-05T20:00:43.632Z</time>
      </trkpt>
      <trkpt lat="48.8723" lon="2.33726">
        <ele>96.7</ele>
        <time>2015-01-05T20:00:44.670Z</time>
      </trkpt>
      <trkpt lat="48.87232" lon="2.33717">
        <ele>96.7</ele>
        <time>2015-01-05T20:00:45.678Z</time>
      </trkpt>
      <trkpt lat="48.87232" lon="2.33707">
        <ele>97.2</ele>
        <time>2015-01-05T20:00:46.627Z</time>
      </trkpt>
      <trkpt lat="48.87233" lon="2.33698">
        <ele>97.1</ele>
        <time>2015-01-05T20:00:47.623Z</time>
      </trkpt>
      <trkpt lat="48.87236" lon="2.33691">
        <ele>96.8</ele>
        <time>2015-01-05T20:00:48.633Z</time>
      </trkpt>
      <trkpt lat="48.87239" lon="2.33685">
        <ele>96.1</ele>
        <time>2015-01-05T20:00:49.637Z</time>
      </trkpt>
      <trkpt lat="48.87241" lon="2.33679">
        <ele>95.7</ele>
        <time>2015-01-05T20:00:50.684Z</time>
      </trkpt>
      <trkpt lat="48.87245" lon="2.33671">
        <ele>95.3</ele>
        <time>2015-01-05T20:00:51.688Z</time>
      </trkpt>
      <trkpt lat="48.87247" lon="2.33664">
        <ele>95.4</ele>
        <time>2015-01-05T20:00:52.708Z</time>
      </trkpt>
      <trkpt lat="48.87249" lon="2.33656">
        <ele>95.3</ele>
        <time>2015-01-05T20:00:53.605Z</time>
      </trkpt>
      <trkpt lat="48.87251" lon="2.33648">
        <ele>95.3</ele>
        <time>2015-01-05T20:00:54.664Z</time>
      </trkpt>
      <trkpt lat="48.87253" lon="2.33639">
        <ele>95.2</ele>
        <time>2015-01-05T20:00:55.667Z</time>
      </trkpt>
      <trkpt lat="48.87255" lon="2.33629">
        <ele>95.3</ele>
        <time>2015-01-05T20:00:56.674Z</time>
      </trkpt>
      <trkpt lat="48.87253" lon="2.33616">
        <ele>95.6</ele>
        <time>2015-01-05T20:00:57.691Z</time>
      </trkpt>
      <trkpt lat="48.87253" lon="2.33604">
        <ele>96</ele>
        <time>2015-01-05T20:00:58.625Z</time>
      </trkpt>
      <trkpt lat="48.87254" lon="2.33593">
        <ele>96.7</ele>
        <time>2015-01-05T20:00:59.620Z</time>
      </trkpt>
      <trkpt lat="48.87255" lon="2.33583">
        <ele>97.2</ele>
        <time>2015-01-05T20:01:00.653Z</time>
      </trkpt>
      <trkpt lat="48.87255" lon="2.3357">
        <ele>97.6</ele>
        <time>2015-01-05T20:01:01.660Z</time>
      </trkpt>
      <trkpt lat="48.87256" lon="2.3356">
        <ele>97.8</ele>
        <time>2015-01-05T20:01:02.711Z</time>
      </trkpt>
      <trkpt lat="48.87254" lon="2.3355">
        <ele>97.8</ele>
        <time>2015-01-05T20:01:03.633Z</time>
      </trkpt>
      <trkpt lat="48.87253" lon="2.33541">
        <ele>98</ele>
        <time>2015-01-05T20:01:04.635Z</time>
      </trkpt>
      <trkpt lat="48.87253" lon="2.33532">
        <ele>98.5</ele>
        <time>2015-01-05T20:01:05.617Z</time>
      </trkpt>
      <trkpt lat="48.87255" lon="2.33523">
        <ele>98.6</ele>
        <time>2015-01-05T20:01:06.635Z</time>
      </trkpt>
      <trkpt lat="48.87258" lon="2.33515">
        <ele>98.7</ele>
        <time>2015-01-05T20:01:07.643Z</time>
      </trkpt>
      <trkpt lat="48.87259" lon="2.33507">
        <ele>98.7</ele>
        <time>2015-01-05T20:01:08.661Z</time>
      </trkpt>
      <trkpt lat="48.8726" lon="2.335">
        <ele>98.8</ele>
        <time>2015-01-05T20:01:09.664Z</time>
      </trkpt>
      <trkpt lat="48.87263" lon="2.33494">
        <ele>98.7</ele>
        <time>2015-01-05T20:01:10.689Z</time>
      </trkpt>
      <trkpt lat="48.87266" lon="2.33487">
        <ele>98.4</ele>
        <time>2015-01-05T20:01:11.816Z</time>
      </trkpt>
      <trkpt lat="48.87269" lon="2.33479">
        <ele>98.5</ele>
        <time>2015-01-05T20:01:12.665Z</time>
      </trkpt>
      <trkpt lat="48.87271" lon="2.33471">
        <ele>98.3</ele>
        <time>2015-01-05T20:01:13.676Z</time>
      </trkpt>
      <trkpt lat="48.87272" lon="2.33462">
        <ele>98.3</ele>
        <time>2015-01-05T20:01:14.686Z</time>
      </trkpt>
      <trkpt lat="48.87274" lon="2.33453">
        <ele>98.6</ele>
        <time>2015-01-05T20:01:15.788Z</time>
      </trkpt>
      <trkpt lat="48.87275" lon="2.33444">
        <ele>98.6</ele>
        <time>2015-01-05T20:01:16.621Z</time>
      </trkpt>
      <trkpt lat="48.87277" lon="2.33435">
        <ele>98.4</ele>
        <time>2015-01-05T20:01:17.623Z</time>
      </trkpt>
      <trkpt lat="48.87279" lon="2.33426">
        <ele>98.3</ele>
        <time>2015-01-05T20:01:18.643Z</time>
      </trkpt>
      <trkpt lat="48.87281" lon="2.33418">
        <ele>98.2</ele>
        <time>2015-01-05T20:01:19.658Z</time>
      </trkpt>
      <trkpt lat="48.87283" lon="2.3341">
        <ele>98.2</ele>
        <time>2015-01-05T20:01:20.716Z</time>
      </trkpt>
      <trkpt lat="48.87285" lon="2.33401">
        <ele>98.5</ele>
        <time>2015-01-05T20:01:21.693Z</time>
      </trkpt>
      <trkpt lat="48.87286" lon="2.33393">
        <ele>98.5</ele>
        <time>2015-01-05T20:01:22.706Z</time>
      </trkpt>
      <trkpt lat="48.87287" lon="2.33385">
        <ele>98.5</ele>
        <time>2015-01-05T20:01:23.715Z</time>
      </trkpt>
      <trkpt lat="48.87287" lon="2.33378">
        <ele>98.1</ele>
        <time>2015-01-05T20:01:24.625Z</time>
      </trkpt>
      <trkpt lat="48.87287" lon="2.33371">
        <ele>98.3</ele>
        <time>2015-01-05T20:01:25.623Z</time>
      </trkpt>
      <trkpt lat="48.87287" lon="2.33363">
        <ele>98.7</ele>
        <time>2015-01-05T20:01:26.668Z</time>
      </trkpt>
      <trkpt lat="48.87288" lon="2.33355">
        <ele>99.2</ele>
        <time>2015-01-05T20:01:27.671Z</time>
      </trkpt>
      <trkpt lat="48.87289" lon="2.33343">
        <ele>100.5</ele>
        <time>2015-01-05T20:01:29.630Z</time>
      </trkpt>
      <trkpt lat="48.87288" lon="2.33336">
        <ele>101.2</ele>
        <time>2015-01-05T20:01:30.643Z</time>
      </trkpt>
      <trkpt lat="48.87291" lon="2.33324">
        <ele>102.5</ele>
        <time>2015-01-05T20:01:32.702Z</time>
      </trkpt>
      <trkpt lat="48.87291" lon="2.33317">
        <ele>103.6</ele>
        <time>2015-01-05T20:01:33.725Z</time>
      </trkpt>
      <trkpt lat="48.8729" lon="2.33308">
        <ele>103.7</ele>
        <time>2015-01-05T20:01:35.642Z</time>
      </trkpt>
      <trkpt lat="48.8729" lon="2.33302">
        <ele>103.9</ele>
        <time>2015-01-05T20:01:36.668Z</time>
      </trkpt>
      <trkpt lat="48.87291" lon="2.3329">
        <ele>105.1</ele>
        <time>2015-01-05T20:01:38.665Z</time>
      </trkpt>
      <trkpt lat="48.87291" lon="2.33285">
        <ele>104.9</ele>
        <time>2015-01-05T20:01:39.659Z</time>
      </trkpt>
      <trkpt lat="48.87291" lon="2.33275">
        <ele>103.2</ele>
        <time>2015-01-05T20:01:41.856Z</time>
      </trkpt>
      <trkpt lat="48.87292" lon="2.3327">
        <ele>102.3</ele>
        <time>2015-01-05T20:01:42.646Z</time>
      </trkpt>
      <trkpt lat="48.87292" lon="2.33258">
        <ele>101.1</ele>
        <time>2015-01-05T20:01:44.706Z</time>
      </trkpt>
      <trkpt lat="48.87292" lon="2.33253">
        <ele>100.9</ele>
        <time>2015-01-05T20:01:45.715Z</time>
      </trkpt>
      <trkpt lat="48.87292" lon="2.33242">
        <ele>100.3</ele>
        <time>2015-01-05T20:01:47.621Z</time>
      </trkpt>
      <trkpt lat="48.87294" lon="2.33237">
        <ele>99.8</ele>
        <time>2015-01-05T20:01:48.635Z</time>
      </trkpt>
      <trkpt lat="48.87297" lon="2.33228">
        <ele>98.8</ele>
        <time>2015-01-05T20:01:50.678Z</time>
      </trkpt>
      <trkpt lat="48.87298" lon="2.33223">
        <ele>98.4</ele>
        <time>2015-01-05T20:01:51.676Z</time>
      </trkpt>
      <trkpt lat="48.873" lon="2.33211">
        <ele>98.3</ele>
        <time>2015-01-05T20:01:53.711Z</time>
      </trkpt>
      <trkpt lat="48.87302" lon="2.33205">
        <ele>98</ele>
        <time>2015-01-05T20:01:54.668Z</time>
      </trkpt>
      <trkpt lat="48.87304" lon="2.33192">
        <ele>98</ele>
        <time>2015-01-05T20:01:56.712Z</time>
      </trkpt>
      <trkpt lat="48.87304" lon="2.33186">
        <ele>97.9</ele>
        <time>2015-01-05T20:01:57.672Z</time>
      </trkpt>
      <trkpt lat="48.87305" lon="2.33179">
        <ele>98.1</ele>
        <time>2015-01-05T20:01:58.652Z</time>
      </trkpt>
      <trkpt lat="48.87307" lon="2.33172">
        <ele>98.4</ele>
        <time>2015-01-05T20:01:59.646Z</time>
      </trkpt>
      <trkpt lat="48.87309" lon="2.33165">
        <ele>98.6</ele>
        <time>2015-01-05T20:02:00.676Z</time>
      </trkpt>
      <trkpt lat="48.8731" lon="2.33159">
        <ele>98.7</ele>
        <time>2015-01-05T20:02:01.680Z</time>
      </trkpt>
      <trkpt lat="48.87312" lon="2.33147">
        <ele>98.9</ele>
        <time>2015-01-05T20:02:03.707Z</time>
      </trkpt>
      <trkpt lat="48.87313" lon="2.33141">
        <ele>98.7</ele>
        <time>2015-01-05T20:02:04.614Z</time>
      </trkpt>
      <trkpt lat="48.87315" lon="2.33128">
        <ele>98.7</ele>
        <time>2015-01-05T20:02:06.754Z</time>
      </trkpt>
      <trkpt lat="48.87316" lon="2.33123">
        <ele>98.5</ele>
        <time>2015-01-05T20:02:07.608Z</time>
      </trkpt>
      <trkpt lat="48.87318" lon="2.33112">
        <ele>98.4</ele>
        <time>2015-01-05T20:02:09.745Z</time>
      </trkpt>
      <trkpt lat="48.87319" lon="2.33106">
        <ele>98.5</ele>
        <time>2015-01-05T20:02:10.615Z</time>
      </trkpt>
      <trkpt lat="48.8732" lon="2.33093">
        <ele>99</ele>
        <time>2015-01-05T20:02:12.643Z</time>
      </trkpt>
      <trkpt lat="48.8732" lon="2.33088">
        <ele>98.6</ele>
        <time>2015-01-05T20:02:13.667Z</time>
      </trkpt>
      <trkpt lat="48.87322" lon="2.33078">
        <ele>98</ele>
        <time>2015-01-05T20:02:15.695Z</time>
      </trkpt>
      <trkpt lat="48.87322" lon="2.33071">
        <ele>97.8</ele>
        <time>2015-01-05T20:02:16.705Z</time>
      </trkpt>
      <trkpt lat="48.8732" lon="2.33058">
        <ele>96.9</ele>
        <time>2015-01-05T20:02:18.637Z</time>
      </trkpt>
      <trkpt lat="48.8732" lon="2.33051">
        <ele>96.5</ele>
        <time>2015-01-05T20:02:19.667Z</time>
      </trkpt>
      <trkpt lat="48.87321" lon="2.33044">
        <ele>96.2</ele>
        <time>2015-01-05T20:02:20.694Z</time>
      </trkpt>
      <trkpt lat="48.87322" lon="2.33038">
        <ele>96.1</ele>
        <time>2015-01-05T20:02:21.695Z</time>
      </trkpt>
      <trkpt lat="48.87323" lon="2.33031">
        <ele>95.6</ele>
        <time>2015-01-05T20:02:22.710Z</time>
      </trkpt>
      <trkpt lat="48.87324" lon="2.33024">
        <ele>95.7</ele>
        <time>2015-01-05T20:02:23.722Z</time>
      </trkpt>
      <trkpt lat="48.87325" lon="2.33016">
        <ele>95.7</ele>
        <time>2015-01-05T20:02:24.637Z</time>
      </trkpt>
      <trkpt lat="48.87327" lon="2.33009">
        <ele>95.8</ele>
        <time>2015-01-05T20:02:25.647Z</time>
      </trkpt>
      <trkpt lat="48.87328" lon="2.33001">
        <ele>95.7</ele>
        <time>2015-01-05T20:02:26.730Z</time>
      </trkpt>
      <trkpt lat="48.8733" lon="2.32994">
        <ele>95.7</ele>
        <time>2015-01-05T20:02:27.628Z</time>
      </trkpt>
      <trkpt lat="48.87332" lon="2.32986">
        <ele>95.7</ele>
        <time>2015-01-05T20:02:28.631Z</time>
      </trkpt>
      <trkpt lat="48.87333" lon="2.32978">
        <ele>95.6</ele>
        <time>2015-01-05T20:02:29.634Z</time>
      </trkpt>
      <trkpt lat="48.87334" lon="2.3297">
        <ele>95.8</ele>
        <time>2015-01-05T20:02:30.638Z</time>
      </trkpt>
      <trkpt lat="48.87336" lon="2.32961">
        <ele>96.2</ele>
        <time>2015-01-05T20:02:31.642Z</time>
      </trkpt>
      <trkpt lat="48.87336" lon="2.32953">
        <ele>96.6</ele>
        <time>2015-01-05T20:02:32.696Z</time>
      </trkpt>
      <trkpt lat="48.87336" lon="2.32944">
        <ele>97.1</ele>
        <time>2015-01-05T20:02:33.695Z</time>
      </trkpt>
      <trkpt lat="48.87337" lon="2.32936">
        <ele>97.2</ele>
        <time>2015-01-05T20:02:34.634Z</time>
      </trkpt>
      <trkpt lat="48.87338" lon="2.32929">
        <ele>97.2</ele>
        <time>2015-01-05T20:02:35.647Z</time>
      </trkpt>
      <trkpt lat="48.8734" lon="2.32921">
        <ele>97.3</ele>
        <time>2015-01-05T20:02:36.705Z</time>
      </trkpt>
      <trkpt lat="48.87342" lon="2.32913">
        <ele>97.3</ele>
        <time>2015-01-05T20:02:37.621Z</time>
      </trkpt>
      <trkpt lat="48.87343" lon="2.32905">
        <ele>97.6</ele>
        <time>2015-01-05T20:02:38.661Z</time>
      </trkpt>
      <trkpt lat="48.87346" lon="2.32898">
        <ele>97.7</ele>
        <time>2015-01-05T20:02:39.660Z</time>
      </trkpt>
      <trkpt lat="48.87347" lon="2.3289">
        <ele>97.4</ele>
        <time>2015-01-05T20:02:40.665Z</time>
      </trkpt>
      <trkpt lat="48.87349" lon="2.32882">
        <ele>97.5</ele>
        <time>2015-01-05T20:02:41.667Z</time>
      </trkpt>
      <trkpt lat="48.8735" lon="2.32874">
        <ele>97.5</ele>
        <time>2015-01-05T20:02:42.700Z</time>
      </trkpt>
      <trkpt lat="48.87351" lon="2.32867">
        <ele>97.6</ele>
        <time>2015-01-05T20:02:43.636Z</time>
      </trkpt>
      <trkpt lat="48.87352" lon="2.32858">
        <ele>97.8</ele>
        <time>2015-01-05T20:02:44.663Z</time>
      </trkpt>
      <trkpt lat="48.87353" lon="2.32849">
        <ele>98.2</ele>
        <time>2015-01-05T20:02:45.674Z</time>
      </trkpt>
      <trkpt lat="48.87354" lon="2.32841">
        <ele>98.7</ele>
        <time>2015-01-05T20:02:46.708Z</time>
      </trkpt>
      <trkpt lat="48.87356" lon="2.32833">
        <ele>98.5</ele>
        <time>2015-01-05T20:02:47.622Z</time>
      </trkpt>
      <trkpt lat="48.87359" lon="2.32825">
        <ele>99.1</ele>
        <time>2015-01-05T20:02:48.635Z</time>
      </trkpt>
      <trkpt lat="48.87362" lon="2.32817">
        <ele>99.6</ele>
        <time>2015-01-05T20:02:49.642Z</time>
      </trkpt>
      <trkpt lat="48.87363" lon="2.32809">
        <ele>99.5</ele>
        <time>2015-01-05T20:02:50.661Z</time>
      </trkpt>
      <trkpt lat="48.87363" lon="2.32801">
        <ele>99.8</ele>
        <time>2015-01-05T20:02:51.618Z</time>
      </trkpt>
      <trkpt lat="48.87364" lon="2.32793">
        <ele>99.9</ele>
        <time>2015-01-05T20:02:52.637Z</time>
      </trkpt>
      <trkpt lat="48.87366" lon="2.32786">
        <ele>99.8</ele>
        <time>2015-01-05T20:02:53.726Z</time>
      </trkpt>
      <trkpt lat="48.87367" lon="2.3278">
        <ele>99.8</ele>
        <time>2015-01-05T20:02:54.714Z</time>
      </trkpt>
      <trkpt lat="48.87367" lon="2.32773">
        <ele>99.6</ele>
        <time>2015-01-05T20:02:55.626Z</time>
      </trkpt>
      <trkpt lat="48.87368" lon="2.32766">
        <ele>99.6</ele>
        <time>2015-01-05T20:02:56.683Z</time>
      </trkpt>
      <trkpt lat="48.87368" lon="2.32758">
        <ele>99.6</ele>
        <time>2015-01-05T20:02:57.699Z</time>
      </trkpt>
      <trkpt lat="48.87369" lon="2.32751">
        <ele>99.2</ele>
        <time>2015-01-05T20:02:58.623Z</time>
      </trkpt>
      <trkpt lat="48.87369" lon="2.32744">
        <ele>99.5</ele>
        <time>2015-01-05T20:02:59.619Z</time>
      </trkpt>
      <trkpt lat="48.87369" lon="2.32737">
        <ele>100.1</ele>
        <time>2015-01-05T20:03:00.648Z</time>
      </trkpt>
      <trkpt lat="48.87369" lon="2.3273">
        <ele>100.3</ele>
        <time>2015-01-05T20:03:01.652Z</time>
      </trkpt>
      <trkpt lat="48.87371" lon="2.32717">
        <ele>97.9</ele>
        <time>2015-01-05T20:03:05.625Z</time>
      </trkpt>
      <trkpt lat="48.87372" lon="2.32716">
        <ele>97.4</ele>
        <time>2015-01-05T20:03:06.634Z</time>
      </trkpt>
      <trkpt lat="48.87373" lon="2.32715">
        <ele>96</ele>
        <time>2015-01-05T20:03:38.687Z</time>
      </trkpt>
      <trkpt lat="48.8738" lon="2.327">
        <ele>91.6</ele>
        <time>2015-01-05T20:03:39.635Z</time>
      </trkpt>
      <trkpt lat="48.8738" lon="2.32688">
        <ele>92.3</ele>
        <time>2015-01-05T20:03:44.700Z</time>
      </trkpt>
      <trkpt lat="48.8738" lon="2.32686">
        <ele>92.4</ele>
        <time>2015-01-05T20:03:45.728Z</time>
      </trkpt>
      <trkpt lat="48.8738" lon="2.32679">
        <ele>92.7</ele>
        <time>2015-01-05T20:03:47.622Z</time>
      </trkpt>
      <trkpt lat="48.87377" lon="2.32672">
        <ele>93.4</ele>
        <time>2015-01-05T20:03:48.765Z</time>
      </trkpt>
      <trkpt lat="48.87374" lon="2.32661">
        <ele>94</ele>
        <time>2015-01-05T20:03:50.667Z</time>
      </trkpt>
      <trkpt lat="48.87374" lon="2.32656">
        <ele>93.9</ele>
        <time>2015-01-05T20:03:51.717Z</time>
      </trkpt>
      <trkpt lat="48.87376" lon="2.32646">
        <ele>93.8</ele>
        <time>2015-01-05T20:03:53.634Z</time>
      </trkpt>
      <trkpt lat="48.87376" lon="2.32641">
        <ele>93.6</ele>
        <time>2015-01-05T20:03:54.666Z</time>
      </trkpt>
      <trkpt lat="48.87377" lon="2.32628">
        <ele>93.3</ele>
        <time>2015-01-05T20:03:56.697Z</time>
      </trkpt>
      <trkpt lat="48.87377" lon="2.32622">
        <ele>93.1</ele>
        <time>2015-01-05T20:03:57.723Z</time>
      </trkpt>
      <trkpt lat="48.87377" lon="2.32614">
        <ele>93</ele>
        <time>2015-01-05T20:03:58.627Z</time>
      </trkpt>
      <trkpt lat="48.87381" lon="2.32607">
        <ele>92.1</ele>
        <time>2015-01-05T20:03:59.627Z</time>
      </trkpt>
      <trkpt lat="48.87383" lon="2.32599">
        <ele>91.6</ele>
        <time>2015-01-05T20:04:00.644Z</time>
      </trkpt>
      <trkpt lat="48.87386" lon="2.32592">
        <ele>91</ele>
        <time>2015-01-05T20:04:01.652Z</time>
      </trkpt>
      <trkpt lat="48.87389" lon="2.32585">
        <ele>90.4</ele>
        <time>2015-01-05T20:04:02.708Z</time>
      </trkpt>
      <trkpt lat="48.87392" lon="2.32578">
        <ele>90.1</ele>
        <time>2015-01-05T20:04:03.629Z</time>
      </trkpt>
      <trkpt lat="48.87394" lon="2.3257">
        <ele>90.1</ele>
        <time>2015-01-05T20:04:04.620Z</time>
      </trkpt>
      <trkpt lat="48.87395" lon="2.32562">
        <ele>90.4</ele>
        <time>2015-01-05T20:04:05.632Z</time>
      </trkpt>
      <trkpt lat="48.87396" lon="2.32554">
        <ele>90.8</ele>
        <time>2015-01-05T20:04:06.661Z</time>
      </trkpt>
      <trkpt lat="48.87398" lon="2.32546">
        <ele>91.1</ele>
        <time>2015-01-05T20:04:07.668Z</time>
      </trkpt>
      <trkpt lat="48.87398" lon="2.32538">
        <ele>91.2</ele>
        <time>2015-01-05T20:04:08.672Z</time>
      </trkpt>
      <trkpt lat="48.87399" lon="2.3253">
        <ele>91.3</ele>
        <time>2015-01-05T20:04:09.679Z</time>
      </trkpt>
      <trkpt lat="48.874" lon="2.32523">
        <ele>91.5</ele>
        <time>2015-01-05T20:04:10.688Z</time>
      </trkpt>
      <trkpt lat="48.87401" lon="2.32516">
        <ele>91.8</ele>
        <time>2015-01-05T20:04:11.702Z</time>
      </trkpt>
      <trkpt lat="48.87402" lon="2.32509">
        <ele>91.9</ele>
        <time>2015-01-05T20:04:12.631Z</time>
      </trkpt>
      <trkpt lat="48.87403" lon="2.32501">
        <ele>92</ele>
        <time>2015-01-05T20:04:13.650Z</time>
      </trkpt>
      <trkpt lat="48.87403" lon="2.32493">
        <ele>92.4</ele>
        <time>2015-01-05T20:04:14.662Z</time>
      </trkpt>
      <trkpt lat="48.87403" lon="2.32485">
        <ele>93.1</ele>
        <time>2015-01-05T20:04:15.674Z</time>
      </trkpt>
      <trkpt lat="48.87404" lon="2.32476">
        <ele>93.5</ele>
        <time>2015-01-05T20:04:16.695Z</time>
      </trkpt>
      <trkpt lat="48.87403" lon="2.32468">
        <ele>94</ele>
        <time>2015-01-05T20:04:17.699Z</time>
      </trkpt>
      <trkpt lat="48.87403" lon="2.32459">
        <ele>94.6</ele>
        <time>2015-01-05T20:04:18.632Z</time>
      </trkpt>
      <trkpt lat="48.87403" lon="2.32449">
        <ele>94.9</ele>
        <time>2015-01-05T20:04:19.633Z</time>
      </trkpt>
      <trkpt lat="48.87404" lon="2.3244">
        <ele>95.3</ele>
        <time>2015-01-05T20:04:20.687Z</time>
      </trkpt>
      <trkpt lat="48.87403" lon="2.32431">
        <ele>95.7</ele>
        <time>2015-01-05T20:04:21.688Z</time>
      </trkpt>
      <trkpt lat="48.87404" lon="2.32423">
        <ele>96.3</ele>
        <time>2015-01-05T20:04:22.791Z</time>
      </trkpt>
      <trkpt lat="48.87406" lon="2.32416">
        <ele>96.5</ele>
        <time>2015-01-05T20:04:23.636Z</time>
      </trkpt>
      <trkpt lat="48.87407" lon="2.32409">
        <ele>96.7</ele>
        <time>2015-01-05T20:04:24.653Z</time>
      </trkpt>
      <trkpt lat="48.87408" lon="2.32401">
        <ele>96.8</ele>
        <time>2015-01-05T20:04:25.661Z</time>
      </trkpt>
      <trkpt lat="48.8741" lon="2.32389">
        <ele>96.7</ele>
        <time>2015-01-05T20:04:27.691Z</time>
      </trkpt>
      <trkpt lat="48.87412" lon="2.32383">
        <ele>97</ele>
        <time>2015-01-05T20:04:28.707Z</time>
      </trkpt>
      <trkpt lat="48.87414" lon="2.32376">
        <ele>97.3</ele>
        <time>2015-01-05T20:04:29.722Z</time>
      </trkpt>
      <trkpt lat="48.87416" lon="2.32369">
        <ele>97.6</ele>
        <time>2015-01-05T20:04:30.595Z</time>
      </trkpt>
      <trkpt lat="48.87418" lon="2.32362">
        <ele>97.9</ele>
        <time>2015-01-05T20:04:31.647Z</time>
      </trkpt>
      <trkpt lat="48.87419" lon="2.32355">
        <ele>98.2</ele>
        <time>2015-01-05T20:04:32.705Z</time>
      </trkpt>
      <trkpt lat="48.87419" lon="2.32348">
        <ele>98.5</ele>
        <time>2015-01-05T20:04:33.616Z</time>
      </trkpt>
      <trkpt lat="48.87421" lon="2.3234">
        <ele>98.9</ele>
        <time>2015-01-05T20:04:34.619Z</time>
      </trkpt>
      <trkpt lat="48.87422" lon="2.32329">
        <ele>98.5</ele>
        <time>2015-01-05T20:04:36.691Z</time>
      </trkpt>
      <trkpt lat="48.87424" lon="2.32322">
        <ele>98.9</ele>
        <time>2015-01-05T20:04:37.707Z</time>
      </trkpt>
      <trkpt lat="48.87425" lon="2.32316">
        <ele>99</ele>
        <time>2015-01-05T20:04:38.726Z</time>
      </trkpt>
      <trkpt lat="48.87427" lon="2.32309">
        <ele>99.1</ele>
        <time>2015-01-05T20:04:39.617Z</time>
      </trkpt>
      <trkpt lat="48.87427" lon="2.32302">
        <ele>98.6</ele>
        <time>2015-01-05T20:04:40.632Z</time>
      </trkpt>
      <trkpt lat="48.87429" lon="2.32295">
        <ele>98.5</ele>
        <time>2015-01-05T20:04:41.638Z</time>
      </trkpt>
      <trkpt lat="48.87431" lon="2.32288">
        <ele>98.5</ele>
        <time>2015-01-05T20:04:42.654Z</time>
      </trkpt>
      <trkpt lat="48.87431" lon="2.3228">
        <ele>98.3</ele>
        <time>2015-01-05T20:04:43.666Z</time>
      </trkpt>
      <trkpt lat="48.87433" lon="2.32269">
        <ele>97.3</ele>
        <time>2015-01-05T20:04:45.727Z</time>
      </trkpt>
      <trkpt lat="48.87433" lon="2.32262">
        <ele>96.8</ele>
        <time>2015-01-05T20:04:46.688Z</time>
      </trkpt>
      <trkpt lat="48.87433" lon="2.32256">
        <ele>96.8</ele>
        <time>2015-01-05T20:04:47.621Z</time>
      </trkpt>
      <trkpt lat="48.87434" lon="2.32248">
        <ele>96.3</ele>
        <time>2015-01-05T20:04:48.621Z</time>
      </trkpt>
      <trkpt lat="48.87434" lon="2.32236">
        <ele>95.9</ele>
        <time>2015-01-05T20:04:50.753Z</time>
      </trkpt>
      <trkpt lat="48.87434" lon="2.32229">
        <ele>95.7</ele>
        <time>2015-01-05T20:04:51.711Z</time>
      </trkpt>
      <trkpt lat="48.87439" lon="2.32218">
        <ele>95</ele>
        <time>2015-01-05T20:04:53.619Z</time>
      </trkpt>
      <trkpt lat="48.8744" lon="2.32212">
        <ele>94.9</ele>
        <time>2015-01-05T20:04:54.653Z</time>
      </trkpt>
      <trkpt lat="48.87442" lon="2.32205">
        <ele>94.8</ele>
        <time>2015-01-05T20:04:55.680Z</time>
      </trkpt>
      <trkpt lat="48.87443" lon="2.32197">
        <ele>94.8</ele>
        <time>2015-01-05T20:04:56.689Z</time>
      </trkpt>
      <trkpt lat="48.87444" lon="2.3219">
        <ele>94.9</ele>
        <time>2015-01-05T20:04:57.703Z</time>
      </trkpt>
      <trkpt lat="48.87446" lon="2.32182">
        <ele>94.8</ele>
        <time>2015-01-05T20:04:58.633Z</time>
      </trkpt>
      <trkpt lat="48.87447" lon="2.32174">
        <ele>94.9</ele>
        <time>2015-01-05T20:04:59.639Z</time>
      </trkpt>
      <trkpt lat="48.87448" lon="2.32167">
        <ele>95.1</ele>
        <time>2015-01-05T20:05:00.638Z</time>
      </trkpt>
      <trkpt lat="48.8745" lon="2.3216">
        <ele>95.4</ele>
        <time>2015-01-05T20:05:01.657Z</time>
      </trkpt>
      <trkpt lat="48.8745" lon="2.32151">
        <ele>95.5</ele>
        <time>2015-01-05T20:05:02.790Z</time>
      </trkpt>
      <trkpt lat="48.87449" lon="2.32142">
        <ele>95.8</ele>
        <time>2015-01-05T20:05:03.621Z</time>
      </trkpt>
      <trkpt lat="48.87449" lon="2.32133">
        <ele>96.2</ele>
        <time>2015-01-05T20:05:04.614Z</time>
      </trkpt>
      <trkpt lat="48.87449" lon="2.32124">
        <ele>96.6</ele>
        <time>2015-01-05T20:05:05.632Z</time>
      </trkpt>
      <trkpt lat="48.8745" lon="2.32116">
        <ele>96.9</ele>
        <time>2015-01-05T20:05:06.677Z</time>
      </trkpt>
      <trkpt lat="48.87451" lon="2.32107">
        <ele>97.5</ele>
        <time>2015-01-05T20:05:07.716Z</time>
      </trkpt>
      <trkpt lat="48.87451" lon="2.32098">
        <ele>97.7</ele>
        <time>2015-01-05T20:05:08.734Z</time>
      </trkpt>
      <trkpt lat="48.87451" lon="2.3209">
        <ele>98</ele>
        <time>2015-01-05T20:05:09.619Z</time>
      </trkpt>
      <trkpt lat="48.87451" lon="2.32082">
        <ele>98.1</ele>
        <time>2015-01-05T20:05:10.619Z</time>
      </trkpt>
      <trkpt lat="48.87451" lon="2.32074">
        <ele>98.2</ele>
        <time>2015-01-05T20:05:11.628Z</time>
      </trkpt>
      <trkpt lat="48.87451" lon="2.32067">
        <ele>98.3</ele>
        <time>2015-01-05T20:05:12.634Z</time>
      </trkpt>
      <trkpt lat="48.87452" lon="2.32054">
        <ele>98.3</ele>
        <time>2015-01-05T20:05:14.672Z</time>
      </trkpt>
      <trkpt lat="48.87453" lon="2.32048">
        <ele>98.2</ele>
        <time>2015-01-05T20:05:15.691Z</time>
      </trkpt>
      <trkpt lat="48.87455" lon="2.32037">
        <ele>98.3</ele>
        <time>2015-01-05T20:05:17.687Z</time>
      </trkpt>
      <trkpt lat="48.87456" lon="2.32032">
        <ele>98.3</ele>
        <time>2015-01-05T20:05:18.636Z</time>
      </trkpt>
      <trkpt lat="48.87459" lon="2.32027">
        <ele>97.5</ele>
        <time>2015-01-05T20:05:19.704Z</time>
      </trkpt>
      <trkpt lat="48.87464" lon="2.32024">
        <ele>96.8</ele>
        <time>2015-01-05T20:05:20.716Z</time>
      </trkpt>
      <trkpt lat="48.87469" lon="2.32016">
        <ele>96.9</ele>
        <time>2015-01-05T20:05:22.625Z</time>
      </trkpt>
      <trkpt lat="48.87471" lon="2.32013">
        <ele>96.6</ele>
        <time>2015-01-05T20:05:23.642Z</time>
      </trkpt>
      <trkpt lat="48.87477" lon="2.32004">
        <ele>95.2</ele>
        <time>2015-01-05T20:05:28.708Z</time>
      </trkpt>
      <trkpt lat="48.87478" lon="2.32003">
        <ele>94.8</ele>
        <time>2015-01-05T20:05:29.700Z</time>
      </trkpt>
      <trkpt lat="48.87486" lon="2.32005">
        <ele>89.5</ele>
        <time>2015-01-05T20:06:07.731Z</time>
      </trkpt>
      <trkpt lat="48.87488" lon="2.32003">
        <ele>89.1</ele>
        <time>2015-01-05T20:06:08.756Z</time>
      </trkpt>
      <trkpt lat="48.87494" lon="2.31994">
        <ele>88.2</ele>
        <time>2015-01-05T20:06:12.641Z</time>
      </trkpt>
      <trkpt lat="48.87496" lon="2.31992">
        <ele>88</ele>
        <time>2015-01-05T20:06:13.654Z</time>
      </trkpt>
      <trkpt lat="48.87503" lon="2.31987">
        <ele>87.4</ele>
        <time>2015-01-05T20:06:16.662Z</time>
      </trkpt>
      <trkpt lat="48.87505" lon="2.31988">
        <ele>87.3</ele>
        <time>2015-01-05T20:06:17.693Z</time>
      </trkpt>
      <trkpt lat="48.87512" lon="2.31993">
        <ele>87.2</ele>
        <time>2015-01-05T20:06:21.685Z</time>
      </trkpt>
      <trkpt lat="48.87514" lon="2.31993">
        <ele>87.2</ele>
        <time>2015-01-05T20:06:22.674Z</time>
      </trkpt>
      <trkpt lat="48.87522" lon="2.31992">
        <ele>87.3</ele>
        <time>2015-01-05T20:06:25.653Z</time>
      </trkpt>
      <trkpt lat="48.87524" lon="2.3199">
        <ele>87.5</ele>
        <time>2015-01-05T20:06:26.669Z</time>
      </trkpt>
      <trkpt lat="48.87532" lon="2.31985">
        <ele>88.4</ele>
        <time>2015-01-05T20:06:30.634Z</time>
      </trkpt>
      <trkpt lat="48.87533" lon="2.31983">
        <ele>88.6</ele>
        <time>2015-01-05T20:06:31.650Z</time>
      </trkpt>
      <trkpt lat="48.87539" lon="2.31978">
        <ele>89</ele>
        <time>2015-01-05T20:06:37.678Z</time>
      </trkpt>
      <trkpt lat="48.87547" lon="2.31976">
        <ele>89.4</ele>
        <time>2015-01-05T20:06:38.704Z</time>
      </trkpt>
      <trkpt lat="48.87554" lon="2.3197">
        <ele>90.1</ele>
        <time>2015-01-05T20:06:41.630Z</time>
      </trkpt>
      <trkpt lat="48.87556" lon="2.31965">
        <ele>90.8</ele>
        <time>2015-01-05T20:06:42.650Z</time>
      </trkpt>
      <trkpt lat="48.87564" lon="2.31963">
        <ele>91.2</ele>
        <time>2015-01-05T20:06:45.698Z</time>
      </trkpt>
      <trkpt lat="48.87567" lon="2.31963">
        <ele>90.8</ele>
        <time>2015-01-05T20:06:46.621Z</time>
      </trkpt>
      <trkpt lat="48.87569" lon="2.31966">
        <ele>90.5</ele>
        <time>2015-01-05T20:06:51.595Z</time>
      </trkpt>
      <trkpt lat="48.87578" lon="2.31968">
        <ele>90.8</ele>
        <time>2015-01-05T20:06:52.605Z</time>
      </trkpt>
      <trkpt lat="48.87583" lon="2.31967">
        <ele>91.4</ele>
        <time>2015-01-05T20:06:54.619Z</time>
      </trkpt>
      <trkpt lat="48.87587" lon="2.31966">
        <ele>91.7</ele>
        <time>2015-01-05T20:06:55.639Z</time>
      </trkpt>
      <trkpt lat="48.87592" lon="2.31963">
        <ele>92</ele>
        <time>2015-01-05T20:06:57.659Z</time>
      </trkpt>
      <trkpt lat="48.87597" lon="2.31961">
        <ele>92.5</ele>
        <time>2015-01-05T20:06:58.595Z</time>
      </trkpt>
      <trkpt lat="48.87604" lon="2.31955">
        <ele>93.6</ele>
        <time>2015-01-05T20:07:00.660Z</time>
      </trkpt>
      <trkpt lat="48.87606" lon="2.31953">
        <ele>93.9</ele>
        <time>2015-01-05T20:07:01.687Z</time>
      </trkpt>
      <trkpt lat="48.87611" lon="2.31953">
        <ele>93.7</ele>
        <time>2015-01-05T20:07:07.640Z</time>
      </trkpt>
      <trkpt lat="48.87619" lon="2.31946">
        <ele>94.1</ele>
        <time>2015-01-05T20:07:08.728Z</time>
      </trkpt>
      <trkpt lat="48.87627" lon="2.31943">
        <ele>93.9</ele>
        <time>2015-01-05T20:07:11.709Z</time>
      </trkpt>
      <trkpt lat="48.8763" lon="2.31942">
        <ele>94.4</ele>
        <time>2015-01-05T20:07:12.661Z</time>
      </trkpt>
      <trkpt lat="48.87635" lon="2.31942">
        <ele>93.2</ele>
        <time>2015-01-05T20:07:13.666Z</time>
      </trkpt>
      <trkpt lat="48.8764" lon="2.31942">
        <ele>92.3</ele>
        <time>2015-01-05T20:07:14.673Z</time>
      </trkpt>
      <trkpt lat="48.87646" lon="2.31941">
        <ele>91.5</ele>
        <time>2015-01-05T20:07:15.687Z</time>
      </trkpt>
      <trkpt lat="48.8765" lon="2.31941">
        <ele>91.4</ele>
        <time>2015-01-05T20:07:16.624Z</time>
      </trkpt>
      <trkpt lat="48.87659" lon="2.31939">
        <ele>92.8</ele>
        <time>2015-01-05T20:07:19.629Z</time>
      </trkpt>
      <trkpt lat="48.87661" lon="2.31938">
        <ele>93.1</ele>
        <time>2015-01-05T20:07:20.666Z</time>
      </trkpt>
      <trkpt lat="48.8767" lon="2.3194">
        <ele>93.8</ele>
        <time>2015-01-05T20:07:24.615Z</time>
      </trkpt>
      <trkpt lat="48.87672" lon="2.31941">
        <ele>94.6</ele>
        <time>2015-01-05T20:07:25.638Z</time>
      </trkpt>
      <trkpt lat="48.87681" lon="2.31944">
        <ele>96.6</ele>
        <time>2015-01-05T20:07:28.716Z</time>
      </trkpt>
      <trkpt lat="48.87683" lon="2.31944">
        <ele>97</ele>
        <time>2015-01-05T20:07:29.596Z</time>
      </trkpt>
      <trkpt lat="48.8769" lon="2.31949">
        <ele>99.2</ele>
        <time>2015-01-05T20:07:37.920Z</time>
      </trkpt>
      <trkpt lat="48.87701" lon="2.31951">
        <ele>101.5</ele>
        <time>2015-01-05T20:07:38.669Z</time>
      </trkpt>
      <trkpt lat="48.87709" lon="2.31952">
        <ele>102.8</ele>
        <time>2015-01-05T20:07:41.664Z</time>
      </trkpt>
      <trkpt lat="48.87711" lon="2.31951">
        <ele>103.3</ele>
        <time>2015-01-05T20:07:42.668Z</time>
      </trkpt>
      <trkpt lat="48.8772" lon="2.31952">
        <ele>104.5</ele>
        <time>2015-01-05T20:07:46.591Z</time>
      </trkpt>
      <trkpt lat="48.87722" lon="2.31953">
        <ele>104.7</ele>
        <time>2015-01-05T20:07:47.598Z</time>
      </trkpt>
      <trkpt lat="48.87728" lon="2.31956">
        <ele>105.7</ele>
        <time>2015-01-05T20:07:50.703Z</time>
      </trkpt>
      <trkpt lat="48.87732" lon="2.31957">
        <ele>106</ele>
        <time>2015-01-05T20:07:51.702Z</time>
      </trkpt>
      <trkpt lat="48.8774" lon="2.31962">
        <ele>107</ele>
        <time>2015-01-05T20:07:54.691Z</time>
      </trkpt>
      <trkpt lat="48.87742" lon="2.31964">
        <ele>107.2</ele>
        <time>2015-01-05T20:07:55.605Z</time>
      </trkpt>
      <trkpt lat="48.87748" lon="2.31969">
        <ele>107.8</ele>
        <time>2015-01-05T20:07:58.378Z</time>
      </trkpt>
      <trkpt lat="48.87751" lon="2.3197">
        <ele>108.1</ele>
        <time>2015-01-05T20:07:58.657Z</time>
      </trkpt>
      <trkpt lat="48.87754" lon="2.31972">
        <ele>108.6</ele>
        <time>2015-01-05T20:08:36.640Z</time>
      </trkpt>
      <trkpt lat="48.8779" lon="2.31975">
        <ele>111.8</ele>
        <time>2015-01-05T20:08:37.697Z</time>
      </trkpt>
      <trkpt lat="48.87795" lon="2.31976">
        <ele>111</ele>
        <time>2015-01-05T20:09:48.692Z</time>
      </trkpt>
      <trkpt lat="48.87826" lon="2.31979">
        <ele>109.6</ele>
        <time>2015-01-05T20:09:49.709Z</time>
      </trkpt>
      <trkpt lat="48.87832" lon="2.31975">
        <ele>108.5</ele>
        <time>2015-01-05T20:09:53.365Z</time>
      </trkpt>
      <trkpt lat="48.87835" lon="2.31973">
        <ele>108</ele>
        <time>2015-01-05T20:09:53.834Z</time>
      </trkpt>
      <trkpt lat="48.87842" lon="2.31967">
        <ele>106.6</ele>
        <time>2015-01-05T20:09:56.820Z</time>
      </trkpt>
      <trkpt lat="48.87845" lon="2.31965">
        <ele>106.3</ele>
        <time>2015-01-05T20:09:57.656Z</time>
      </trkpt>
      <trkpt lat="48.87853" lon="2.31962">
        <ele>105.6</ele>
        <time>2015-01-05T20:09:59.703Z</time>
      </trkpt>
      <trkpt lat="48.87856" lon="2.31959">
        <ele>105.2</ele>
        <time>2015-01-05T20:10:00.616Z</time>
      </trkpt>
      <trkpt lat="48.87863" lon="2.31956">
        <ele>104.9</ele>
        <time>2015-01-05T20:10:02.734Z</time>
      </trkpt>
      <trkpt lat="48.87867" lon="2.31955">
        <ele>104.9</ele>
        <time>2015-01-05T20:10:03.678Z</time>
      </trkpt>
      <trkpt lat="48.87873" lon="2.3195">
        <ele>105.1</ele>
        <time>2015-01-05T20:10:05.714Z</time>
      </trkpt>
      <trkpt lat="48.87876" lon="2.31947">
        <ele>105</ele>
        <time>2015-01-05T20:10:06.610Z</time>
      </trkpt>
      <trkpt lat="48.87881" lon="2.31946">
        <ele>104.8</ele>
        <time>2015-01-05T20:10:08.568Z</time>
      </trkpt>
      <trkpt lat="48.87886" lon="2.31945">
        <ele>105</ele>
        <time>2015-01-05T20:10:08.643Z</time>
      </trkpt>
      <trkpt lat="48.87891" lon="2.31939">
        <ele>105.6</ele>
        <time>2015-01-05T20:10:10.668Z</time>
      </trkpt>
      <trkpt lat="48.87893" lon="2.31935">
        <ele>105.9</ele>
        <time>2015-01-05T20:10:11.678Z</time>
      </trkpt>
      <trkpt lat="48.87897" lon="2.31925">
        <ele>106.1</ele>
        <time>2015-01-05T20:10:13.654Z</time>
      </trkpt>
      <trkpt lat="48.87899" lon="2.3192">
        <ele>106.2</ele>
        <time>2015-01-05T20:10:14.684Z</time>
      </trkpt>
      <trkpt lat="48.87905" lon="2.31912">
        <ele>106.6</ele>
        <time>2015-01-05T20:10:16.615Z</time>
      </trkpt>
      <trkpt lat="48.87907" lon="2.31908">
        <ele>106.3</ele>
        <time>2015-01-05T20:10:17.626Z</time>
      </trkpt>
      <trkpt lat="48.87911" lon="2.31899">
        <ele>106.8</ele>
        <time>2015-01-05T20:10:19.648Z</time>
      </trkpt>
      <trkpt lat="48.87914" lon="2.31895">
        <ele>106.8</ele>
        <time>2015-01-05T20:10:20.661Z</time>
      </trkpt>
      <trkpt lat="48.87918" lon="2.31885">
        <ele>107.2</ele>
        <time>2015-01-05T20:10:22.612Z</time>
      </trkpt>
      <trkpt lat="48.87919" lon="2.31877">
        <ele>107.3</ele>
        <time>2015-01-05T20:10:23.624Z</time>
      </trkpt>
      <trkpt lat="48.87922" lon="2.31865">
        <ele>107.7</ele>
        <time>2015-01-05T20:10:25.631Z</time>
      </trkpt>
      <trkpt lat="48.87924" lon="2.3186">
        <ele>107.7</ele>
        <time>2015-01-05T20:10:26.668Z</time>
      </trkpt>
      <trkpt lat="48.87928" lon="2.3185">
        <ele>107.7</ele>
        <time>2015-01-05T20:10:28.686Z</time>
      </trkpt>
      <trkpt lat="48.87931" lon="2.31846">
        <ele>107.8</ele>
        <time>2015-01-05T20:10:29.698Z</time>
      </trkpt>
      <trkpt lat="48.87935" lon="2.31839">
        <ele>107.9</ele>
        <time>2015-01-05T20:10:31.621Z</time>
      </trkpt>
      <trkpt lat="48.87937" lon="2.31836">
        <ele>108.1</ele>
        <time>2015-01-05T20:10:32.665Z</time>
      </trkpt>
      <trkpt lat="48.87941" lon="2.31828">
        <ele>107.2</ele>
        <time>2015-01-05T20:10:34.684Z</time>
      </trkpt>
      <trkpt lat="48.87943" lon="2.31826">
        <ele>107.5</ele>
        <time>2015-01-05T20:10:35.775Z</time>
      </trkpt>
      <trkpt lat="48.87949" lon="2.3182">
        <ele>108.7</ele>
        <time>2015-01-05T20:10:39.677Z</time>
      </trkpt>
      <trkpt lat="48.87952" lon="2.31818">
        <ele>109</ele>
        <time>2015-01-05T20:10:40.645Z</time>
      </trkpt>
      <trkpt lat="48.87957" lon="2.31813">
        <ele>109.5</ele>
        <time>2015-01-05T20:10:42.606Z</time>
      </trkpt>
      <trkpt lat="48.87961" lon="2.31812">
        <ele>109.4</ele>
        <time>2015-01-05T20:10:43.623Z</time>
      </trkpt>
      <trkpt lat="48.87966" lon="2.31808">
        <ele>109.3</ele>
        <time>2015-01-05T20:10:45.585Z</time>
      </trkpt>
      <trkpt lat="48.87969" lon="2.31807">
        <ele>109.3</ele>
        <time>2015-01-05T20:10:46.769Z</time>
      </trkpt>
      <trkpt lat="48.87974" lon="2.31806">
        <ele>109.3</ele>
        <time>2015-01-05T20:10:47.596Z</time>
      </trkpt>
      <trkpt lat="48.87979" lon="2.31805">
        <ele>109.4</ele>
        <time>2015-01-05T20:10:48.608Z</time>
      </trkpt>
      <trkpt lat="48.87984" lon="2.31805">
        <ele>109.5</ele>
        <time>2015-01-05T20:10:49.642Z</time>
      </trkpt>
      <trkpt lat="48.87989" lon="2.31807">
        <ele>109.5</ele>
        <time>2015-01-05T20:10:50.660Z</time>
      </trkpt>
      <trkpt lat="48.87995" lon="2.31808">
        <ele>109.3</ele>
        <time>2015-01-05T20:10:51.685Z</time>
      </trkpt>
      <trkpt lat="48.88" lon="2.31809">
        <ele>109.4</ele>
        <time>2015-01-05T20:10:52.703Z</time>
      </trkpt>
      <trkpt lat="48.88006" lon="2.31808">
        <ele>109.1</ele>
        <time>2015-01-05T20:10:53.617Z</time>
      </trkpt>
      <trkpt lat="48.88011" lon="2.31806">
        <ele>108.8</ele>
        <time>2015-01-05T20:10:54.683Z</time>
      </trkpt>
      <trkpt lat="48.88015" lon="2.31804">
        <ele>108.8</ele>
        <time>2015-01-05T20:10:55.632Z</time>
      </trkpt>
      <trkpt lat="48.88019" lon="2.31801">
        <ele>108.8</ele>
        <time>2015-01-05T20:10:56.688Z</time>
      </trkpt>
      <trkpt lat="48.88026" lon="2.31794">
        <ele>108.8</ele>
        <time>2015-01-05T20:10:58.615Z</time>
      </trkpt>
      <trkpt lat="48.8803" lon="2.31789">
        <ele>109</ele>
        <time>2015-01-05T20:10:59.609Z</time>
      </trkpt>
      <trkpt lat="48.88033" lon="2.31785">
        <ele>109.1</ele>
        <time>2015-01-05T20:11:00.614Z</time>
      </trkpt>
      <trkpt lat="48.88038" lon="2.31783">
        <ele>109.4</ele>
        <time>2015-01-05T20:11:01.627Z</time>
      </trkpt>
      <trkpt lat="48.88044" lon="2.31782">
        <ele>109.8</ele>
        <time>2015-01-05T20:11:02.628Z</time>
      </trkpt>
      <trkpt lat="48.88048" lon="2.3178">
        <ele>110.2</ele>
        <time>2015-01-05T20:11:03.589Z</time>
      </trkpt>
      <trkpt lat="48.88051" lon="2.31769">
        <ele>111.5</ele>
        <time>2015-01-05T20:11:05.831Z</time>
      </trkpt>
      <trkpt lat="48.88052" lon="2.3176">
        <ele>112.3</ele>
        <time>2015-01-05T20:11:06.773Z</time>
      </trkpt>
      <trkpt lat="48.88057" lon="2.31754">
        <ele>112.5</ele>
        <time>2015-01-05T20:11:08.658Z</time>
      </trkpt>
      <trkpt lat="48.88063" lon="2.31751">
        <ele>111</ele>
        <time>2015-01-05T20:11:09.710Z</time>
      </trkpt>
      <trkpt lat="48.88068" lon="2.31747">
        <ele>110.4</ele>
        <time>2015-01-05T20:11:10.604Z</time>
      </trkpt>
      <trkpt lat="48.88072" lon="2.31744">
        <ele>110.1</ele>
        <time>2015-01-05T20:11:11.602Z</time>
      </trkpt>
      <trkpt lat="48.88075" lon="2.31733">
        <ele>110.6</ele>
        <time>2015-01-05T20:11:13.666Z</time>
      </trkpt>
      <trkpt lat="48.88075" lon="2.31725">
        <ele>111.3</ele>
        <time>2015-01-05T20:11:14.654Z</time>
      </trkpt>
      <trkpt lat="48.88073" lon="2.31714">
        <ele>111.9</ele>
        <time>2015-01-05T20:11:16.685Z</time>
      </trkpt>
      <trkpt lat="48.88072" lon="2.31708">
        <ele>112.7</ele>
        <time>2015-01-05T20:11:17.707Z</time>
      </trkpt>
      <trkpt lat="48.88068" lon="2.31695">
        <ele>113</ele>
        <time>2015-01-05T20:11:19.595Z</time>
      </trkpt>
      <trkpt lat="48.88065" lon="2.31688">
        <ele>113.1</ele>
        <time>2015-01-05T20:11:20.653Z</time>
      </trkpt>
      <trkpt lat="48.88061" lon="2.31678">
        <ele>112.4</ele>
        <time>2015-01-05T20:11:22.611Z</time>
      </trkpt>
      <trkpt lat="48.88058" lon="2.31676">
        <ele>111.8</ele>
        <time>2015-01-05T20:11:23.615Z</time>
      </trkpt>
      <trkpt lat="48.88053" lon="2.31666">
        <ele>110.9</ele>
        <time>2015-01-05T20:11:26.631Z</time>
      </trkpt>
      <trkpt lat="48.88053" lon="2.31661">
        <ele>110.5</ele>
        <time>2015-01-05T20:11:27.656Z</time>
      </trkpt>
      <trkpt lat="48.8805" lon="2.31648">
        <ele>109.9</ele>
        <time>2015-01-05T20:11:30.656Z</time>
      </trkpt>
      <trkpt lat="48.88048" lon="2.31645">
        <ele>109.2</ele>
        <time>2015-01-05T20:11:31.702Z</time>
      </trkpt>
      <trkpt lat="48.88042" lon="2.31635">
        <ele>108.6</ele>
        <time>2015-01-05T20:11:34.743Z</time>
      </trkpt>
      <trkpt lat="48.88039" lon="2.31632">
        <ele>108.4</ele>
        <time>2015-01-05T20:11:35.628Z</time>
      </trkpt>
      <trkpt lat="48.88035" lon="2.31624">
        <ele>108.3</ele>
        <time>2015-01-05T20:11:37.677Z</time>
      </trkpt>
      <trkpt lat="48.88033" lon="2.3162">
        <ele>108.4</ele>
        <time>2015-01-05T20:11:38.688Z</time>
      </trkpt>
      <trkpt lat="48.88027" lon="2.31611">
        <ele>107.6</ele>
        <time>2015-01-05T20:11:43.690Z</time>
      </trkpt>
      <trkpt lat="48.88026" lon="2.31608">
        <ele>107.5</ele>
        <time>2015-01-05T20:11:44.756Z</time>
      </trkpt>
      <trkpt lat="48.8802" lon="2.31598">
        <ele>106.5</ele>
        <time>2015-01-05T20:11:48.626Z</time>
      </trkpt>
      <trkpt lat="48.88018" lon="2.31596">
        <ele>106.2</ele>
        <time>2015-01-05T20:11:49.657Z</time>
      </trkpt>
      <trkpt lat="48.88013" lon="2.3159">
        <ele>105.8</ele>
        <time>2015-01-05T20:11:51.683Z</time>
      </trkpt>
      <trkpt lat="48.88011" lon="2.31587">
        <ele>105.4</ele>
        <time>2015-01-05T20:11:52.695Z</time>
      </trkpt>
      <trkpt lat="48.88006" lon="2.31581">
        <ele>105.7</ele>
        <time>2015-01-05T20:11:54.621Z</time>
      </trkpt>
      <trkpt lat="48.88004" lon="2.31578">
        <ele>105.7</ele>
        <time>2015-01-05T20:11:55.714Z</time>
      </trkpt>
      <trkpt lat="48.87998" lon="2.3157">
        <ele>105.2</ele>
        <time>2015-01-05T20:11:58.682Z</time>
      </trkpt>
      <trkpt lat="48.87996" lon="2.31568">
        <ele>105.2</ele>
        <time>2015-01-05T20:11:59.820Z</time>
      </trkpt>
      <trkpt lat="48.8799" lon="2.31559">
        <ele>106.2</ele>
        <time>2015-01-05T20:12:11.615Z</time>
      </trkpt>
      <trkpt lat="48.87984" lon="2.31557">
        <ele>106.6</ele>
        <time>2015-01-05T20:12:12.614Z</time>
      </trkpt>
      <trkpt lat="48.87977" lon="2.3155">
        <ele>106.3</ele>
        <time>2015-01-05T20:12:15.643Z</time>
      </trkpt>
      <trkpt lat="48.87976" lon="2.31546">
        <ele>106.6</ele>
        <time>2015-01-05T20:12:16.650Z</time>
      </trkpt>
      <trkpt lat="48.87973" lon="2.31537">
        <ele>105.7</ele>
        <time>2015-01-05T20:12:18.686Z</time>
      </trkpt>
      <trkpt lat="48.87972" lon="2.31532">
        <ele>105.6</ele>
        <time>2015-01-05T20:12:19.700Z</time>
      </trkpt>
      <trkpt lat="48.8797" lon="2.31522">
        <ele>104.7</ele>
        <time>2015-01-05T20:12:21.594Z</time>
      </trkpt>
      <trkpt lat="48.87968" lon="2.31517">
        <ele>104.1</ele>
        <time>2015-01-05T20:12:22.633Z</time>
      </trkpt>
      <trkpt lat="48.87963" lon="2.31507">
        <ele>102</ele>
        <time>2015-01-05T20:12:25.685Z</time>
      </trkpt>
      <trkpt lat="48.87961" lon="2.31503">
        <ele>101.2</ele>
        <time>2015-01-05T20:12:26.698Z</time>
      </trkpt>
      <trkpt lat="48.87957" lon="2.31495">
        <ele>100.7</ele>
        <time>2015-01-05T20:12:28.610Z</time>
      </trkpt>
      <trkpt lat="48.87956" lon="2.31491">
        <ele>100.3</ele>
        <time>2015-01-05T20:12:29.625Z</time>
      </trkpt>
      <trkpt lat="48.87953" lon="2.31479">
        <ele>99.7</ele>
        <time>2015-01-05T20:12:32.699Z</time>
      </trkpt>
      <trkpt lat="48.87952" lon="2.31475">
        <ele>99.6</ele>
        <time>2015-01-05T20:12:33.627Z</time>
      </trkpt>
      <trkpt lat="48.87951" lon="2.31466">
        <ele>98.9</ele>
        <time>2015-01-05T20:12:35.631Z</time>
      </trkpt>
      <trkpt lat="48.87952" lon="2.3146">
        <ele>98.9</ele>
        <time>2015-01-05T20:12:36.691Z</time>
      </trkpt>
      <trkpt lat="48.87952" lon="2.31448">
        <ele>98.7</ele>
        <time>2015-01-05T20:13:11.632Z</time>
      </trkpt>
      <trkpt lat="48.87942" lon="2.31439">
        <ele>97.9</ele>
        <time>2015-01-05T20:13:12.663Z</time>
      </trkpt>
      <trkpt lat="48.8794" lon="2.31426">
        <ele>96.4</ele>
        <time>2015-01-05T20:13:15.628Z</time>
      </trkpt>
      <trkpt lat="48.87938" lon="2.31423">
        <ele>96.6</ele>
        <time>2015-01-05T20:13:16.626Z</time>
      </trkpt>
      <trkpt lat="48.87933" lon="2.31414">
        <ele>96.8</ele>
        <time>2015-01-05T20:13:18.609Z</time>
      </trkpt>
      <trkpt lat="48.8793" lon="2.31411">
        <ele>96.8</ele>
        <time>2015-01-05T20:13:19.613Z</time>
      </trkpt>
      <trkpt lat="48.87924" lon="2.31401">
        <ele>96.8</ele>
        <time>2015-01-05T20:13:22.675Z</time>
      </trkpt>
      <trkpt lat="48.87922" lon="2.31398">
        <ele>96.8</ele>
        <time>2015-01-05T20:13:23.679Z</time>
      </trkpt>
      <trkpt lat="48.87918" lon="2.3139">
        <ele>96.2</ele>
        <time>2015-01-05T20:13:25.609Z</time>
      </trkpt>
      <trkpt lat="48.87916" lon="2.31387">
        <ele>96</ele>
        <time>2015-01-05T20:13:26.666Z</time>
      </trkpt>
      <trkpt lat="48.8791" lon="2.3138">
        <ele>95.9</ele>
        <time>2015-01-05T20:13:28.631Z</time>
      </trkpt>
      <trkpt lat="48.87908" lon="2.31375">
        <ele>96.1</ele>
        <time>2015-01-05T20:13:29.679Z</time>
      </trkpt>
      <trkpt lat="48.87905" lon="2.3137">
        <ele>96.6</ele>
        <time>2015-01-05T20:13:30.701Z</time>
      </trkpt>
      <trkpt lat="48.87902" lon="2.31362">
        <ele>97.2</ele>
        <time>2015-01-05T20:13:31.627Z</time>
      </trkpt>
      <trkpt lat="48.879" lon="2.31355">
        <ele>97.7</ele>
        <time>2015-01-05T20:13:32.753Z</time>
      </trkpt>
      <trkpt lat="48.87897" lon="2.31349">
        <ele>98.1</ele>
        <time>2015-01-05T20:13:33.583Z</time>
      </trkpt>
      <trkpt lat="48.87893" lon="2.31341">
        <ele>98.4</ele>
        <time>2015-01-05T20:13:35.623Z</time>
      </trkpt>
      <trkpt lat="48.87891" lon="2.31336">
        <ele>98.3</ele>
        <time>2015-01-05T20:13:36.700Z</time>
      </trkpt>
      <trkpt lat="48.87887" lon="2.31328">
        <ele>98.1</ele>
        <time>2015-01-05T20:13:38.654Z</time>
      </trkpt>
      <trkpt lat="48.87885" lon="2.31324">
        <ele>98.2</ele>
        <time>2015-01-05T20:13:39.718Z</time>
      </trkpt>
      <trkpt lat="48.8788" lon="2.31317">
        <ele>98.8</ele>
        <time>2015-01-05T20:13:41.613Z</time>
      </trkpt>
      <trkpt lat="48.87878" lon="2.31314">
        <ele>98.7</ele>
        <time>2015-01-05T20:13:42.721Z</time>
      </trkpt>
      <trkpt lat="48.87873" lon="2.31304">
        <ele>98.3</ele>
        <time>2015-01-05T20:13:45.681Z</time>
      </trkpt>
      <trkpt lat="48.87871" lon="2.31301">
        <ele>98.1</ele>
        <time>2015-01-05T20:13:46.690Z</time>
      </trkpt>
      <trkpt lat="48.87868" lon="2.31292">
        <ele>98.3</ele>
        <time>2015-01-05T20:13:48.618Z</time>
      </trkpt>
      <trkpt lat="48.87865" lon="2.31289">
        <ele>98.6</ele>
        <time>2015-01-05T20:13:49.646Z</time>
      </trkpt>
      <trkpt lat="48.87862" lon="2.31281">
        <ele>98.6</ele>
        <time>2015-01-05T20:13:51.689Z</time>
      </trkpt>
      <trkpt lat="48.8786" lon="2.31275">
        <ele>99</ele>
        <time>2015-01-05T20:13:52.602Z</time>
      </trkpt>
      <trkpt lat="48.87856" lon="2.31265">
        <ele>99.4</ele>
        <time>2015-01-05T20:13:54.620Z</time>
      </trkpt>
      <trkpt lat="48.87853" lon="2.3126">
        <ele>99.6</ele>
        <time>2015-01-05T20:13:55.631Z</time>
      </trkpt>
      <trkpt lat="48.87849" lon="2.31251">
        <ele>99.9</ele>
        <time>2015-01-05T20:13:57.689Z</time>
      </trkpt>
      <trkpt lat="48.87846" lon="2.31247">
        <ele>99.9</ele>
        <time>2015-01-05T20:13:58.608Z</time>
      </trkpt>
      <trkpt lat="48.87842" lon="2.31238">
        <ele>100.4</ele>
        <time>2015-01-05T20:14:01.062Z</time>
      </trkpt>
      <trkpt lat="48.8784" lon="2.31233">
        <ele>100.7</ele>
        <time>2015-01-05T20:14:01.690Z</time>
      </trkpt>
      <trkpt lat="48.87836" lon="2.31223">
        <ele>101.9</ele>
        <time>2015-01-05T20:14:03.603Z</time>
      </trkpt>
      <trkpt lat="48.87834" lon="2.31218">
        <ele>102.6</ele>
        <time>2015-01-05T20:14:04.639Z</time>
      </trkpt>
      <trkpt lat="48.87828" lon="2.31209">
        <ele>102.8</ele>
        <time>2015-01-05T20:14:06.677Z</time>
      </trkpt>
      <trkpt lat="48.87826" lon="2.31204">
        <ele>103</ele>
        <time>2015-01-05T20:14:07.703Z</time>
      </trkpt>
      <trkpt lat="48.87821" lon="2.31195">
        <ele>102.9</ele>
        <time>2015-01-05T20:14:09.605Z</time>
      </trkpt>
      <trkpt lat="48.87818" lon="2.31191">
        <ele>102.6</ele>
        <time>2015-01-05T20:14:10.606Z</time>
      </trkpt>
      <trkpt lat="48.87815" lon="2.3118">
        <ele>102.4</ele>
        <time>2015-01-05T20:14:12.640Z</time>
      </trkpt>
      <trkpt lat="48.87813" lon="2.31174">
        <ele>102.6</ele>
        <time>2015-01-05T20:14:13.664Z</time>
      </trkpt>
      <trkpt lat="48.87811" lon="2.31167">
        <ele>102.8</ele>
        <time>2015-01-05T20:14:14.681Z</time>
      </trkpt>
      <trkpt lat="48.87809" lon="2.31161">
        <ele>103.2</ele>
        <time>2015-01-05T20:14:15.687Z</time>
      </trkpt>
      <trkpt lat="48.87806" lon="2.31148">
        <ele>103.9</ele>
        <time>2015-01-05T20:14:17.588Z</time>
      </trkpt>
      <trkpt lat="48.87803" lon="2.31143">
        <ele>103.9</ele>
        <time>2015-01-05T20:14:18.604Z</time>
      </trkpt>
      <trkpt lat="48.87798" lon="2.31134">
        <ele>104.2</ele>
        <time>2015-01-05T20:14:20.674Z</time>
      </trkpt>
      <trkpt lat="48.87795" lon="2.31129">
        <ele>104</ele>
        <time>2015-01-05T20:14:21.605Z</time>
      </trkpt>
      <trkpt lat="48.87791" lon="2.31119">
        <ele>104.3</ele>
        <time>2015-01-05T20:14:23.640Z</time>
      </trkpt>
      <trkpt lat="48.87789" lon="2.31114">
        <ele>104.5</ele>
        <time>2015-01-05T20:14:24.638Z</time>
      </trkpt>
      <trkpt lat="48.87785" lon="2.31106">
        <ele>105</ele>
        <time>2015-01-05T20:14:27.020Z</time>
      </trkpt>
      <trkpt lat="48.87782" lon="2.31102">
        <ele>105</ele>
        <time>2015-01-05T20:14:27.662Z</time>
      </trkpt>
      <trkpt lat="48.87777" lon="2.31094">
        <ele>105</ele>
        <time>2015-01-05T20:14:29.688Z</time>
      </trkpt>
      <trkpt lat="48.87775" lon="2.31089">
        <ele>105.2</ele>
        <time>2015-01-05T20:14:30.578Z</time>
      </trkpt>
      <trkpt lat="48.8777" lon="2.3108">
        <ele>105.6</ele>
        <time>2015-01-05T20:14:32.861Z</time>
      </trkpt>
      <trkpt lat="48.87768" lon="2.31076">
        <ele>105.9</ele>
        <time>2015-01-05T20:14:33.685Z</time>
      </trkpt>
      <trkpt lat="48.87764" lon="2.31068">
        <ele>106.5</ele>
        <time>2015-01-05T20:14:35.599Z</time>
      </trkpt>
      <trkpt lat="48.87762" lon="2.31062">
        <ele>107.4</ele>
        <time>2015-01-05T20:14:36.613Z</time>
      </trkpt>
      <trkpt lat="48.87755" lon="2.31053">
        <ele>108.8</ele>
        <time>2015-01-05T20:14:39.580Z</time>
      </trkpt>
      <trkpt lat="48.87754" lon="2.3105">
        <ele>109.1</ele>
        <time>2015-01-05T20:14:40.607Z</time>
      </trkpt>
      <trkpt lat="48.87752" lon="2.31046">
        <ele>109.9</ele>
        <time>2015-01-05T20:15:18.840Z</time>
      </trkpt>
      <trkpt lat="48.87761" lon="2.31062">
        <ele>110</ele>
        <time>2015-01-05T20:15:19.695Z</time>
      </trkpt>
      <trkpt lat="48.87761" lon="2.31051">
        <ele>107.9</ele>
        <time>2015-01-05T20:15:21.701Z</time>
      </trkpt>
      <trkpt lat="48.87761" lon="2.31045">
        <ele>107.4</ele>
        <time>2015-01-05T20:15:22.587Z</time>
      </trkpt>
      <trkpt lat="48.87758" lon="2.31036">
        <ele>106.9</ele>
        <time>2015-01-05T20:15:24.613Z</time>
      </trkpt>
      <trkpt lat="48.87757" lon="2.31031">
        <ele>107.3</ele>
        <time>2015-01-05T20:15:25.612Z</time>
      </trkpt>
      <trkpt lat="48.87752" lon="2.3102">
        <ele>108.8</ele>
        <time>2015-01-05T20:15:29.685Z</time>
      </trkpt>
      <trkpt lat="48.87752" lon="2.31019">
        <ele>108.7</ele>
        <time>2015-01-05T20:15:30.707Z</time>
      </trkpt>
      <trkpt lat="48.87753" lon="2.3102">
        <ele>108.8</ele>
        <time>2015-01-05T20:15:42.942Z</time>
      </trkpt>
      <trkpt lat="48.87764" lon="2.3102">
        <ele>112.8</ele>
        <time>2015-01-05T20:15:43.661Z</time>
      </trkpt>
      <trkpt lat="48.87771" lon="2.31017">
        <ele>113.5</ele>
        <time>2015-01-05T20:15:46.610Z</time>
      </trkpt>
      <trkpt lat="48.87774" lon="2.31015">
        <ele>113.6</ele>
        <time>2015-01-05T20:15:47.630Z</time>
      </trkpt>
      <trkpt lat="48.87779" lon="2.31009">
        <ele>111.9</ele>
        <time>2015-01-05T20:15:49.650Z</time>
      </trkpt>
      <trkpt lat="48.87781" lon="2.31004">
        <ele>110.7</ele>
        <time>2015-01-05T20:15:50.657Z</time>
      </trkpt>
      <trkpt lat="48.87785" lon="2.30994">
        <ele>109.3</ele>
        <time>2015-01-05T20:15:53.014Z</time>
      </trkpt>
      <trkpt lat="48.87787" lon="2.30988">
        <ele>108.1</ele>
        <time>2015-01-05T20:15:53.701Z</time>
      </trkpt>
      <trkpt lat="48.87789" lon="2.30977">
        <ele>107.7</ele>
        <time>2015-01-05T20:15:55.648Z</time>
      </trkpt>
      <trkpt lat="48.87788" lon="2.30971">
        <ele>107.4</ele>
        <time>2015-01-05T20:15:56.660Z</time>
      </trkpt>
      <trkpt lat="48.87787" lon="2.30959">
        <ele>107</ele>
        <time>2015-01-05T20:15:58.677Z</time>
      </trkpt>
      <trkpt lat="48.87786" lon="2.30952">
        <ele>106.7</ele>
        <time>2015-01-05T20:15:59.690Z</time>
      </trkpt>
      <trkpt lat="48.87786" lon="2.3094">
        <ele>106.2</ele>
        <time>2015-01-05T20:16:01.681Z</time>
      </trkpt>
      <trkpt lat="48.87786" lon="2.30935">
        <ele>106</ele>
        <time>2015-01-05T20:16:02.823Z</time>
      </trkpt>
      <trkpt lat="48.87788" lon="2.30925">
        <ele>105.3</ele>
        <time>2015-01-05T20:16:04.596Z</time>
      </trkpt>
      <trkpt lat="48.87789" lon="2.3092">
        <ele>105.4</ele>
        <time>2015-01-05T20:16:05.607Z</time>
      </trkpt>
      <trkpt lat="48.87791" lon="2.30909">
        <ele>104.9</ele>
        <time>2015-01-05T20:16:08.214Z</time>
      </trkpt>
      <trkpt lat="48.87792" lon="2.30904">
        <ele>104.6</ele>
        <time>2015-01-05T20:16:08.651Z</time>
      </trkpt>
      <trkpt lat="48.87792" lon="2.30892">
        <ele>104.7</ele>
        <time>2015-01-05T20:16:10.589Z</time>
      </trkpt>
      <trkpt lat="48.87792" lon="2.30886">
        <ele>104.8</ele>
        <time>2015-01-05T20:16:11.608Z</time>
      </trkpt>
      <trkpt lat="48.87792" lon="2.30876">
        <ele>104.4</ele>
        <time>2015-01-05T20:16:13.583Z</time>
      </trkpt>
      <trkpt lat="48.87792" lon="2.30871">
        <ele>104.1</ele>
        <time>2015-01-05T20:16:14.665Z</time>
      </trkpt>
      <trkpt lat="48.87789" lon="2.30858">
        <ele>104.7</ele>
        <time>2015-01-05T20:16:16.606Z</time>
      </trkpt>
      <trkpt lat="48.87789" lon="2.30851">
        <ele>105.1</ele>
        <time>2015-01-05T20:16:17.646Z</time>
      </trkpt>
      <trkpt lat="48.8779" lon="2.30838">
        <ele>105.4</ele>
        <time>2015-01-05T20:16:19.677Z</time>
      </trkpt>
      <trkpt lat="48.87788" lon="2.30831">
        <ele>105.3</ele>
        <time>2015-01-05T20:16:20.696Z</time>
      </trkpt>
      <trkpt lat="48.87788" lon="2.30824">
        <ele>105.5</ele>
        <time>2015-01-05T20:16:21.611Z</time>
      </trkpt>
      <trkpt lat="48.87786" lon="2.30818">
        <ele>105.4</ele>
        <time>2015-01-05T20:16:22.617Z</time>
      </trkpt>
      <trkpt lat="48.87785" lon="2.30806">
        <ele>105.4</ele>
        <time>2015-01-05T20:16:24.685Z</time>
      </trkpt>
      <trkpt lat="48.87785" lon="2.308">
        <ele>105.1</ele>
        <time>2015-01-05T20:16:25.719Z</time>
      </trkpt>
      <trkpt lat="48.87781" lon="2.3079">
        <ele>104.6</ele>
        <time>2015-01-05T20:16:27.754Z</time>
      </trkpt>
      <trkpt lat="48.87779" lon="2.30784">
        <ele>104.7</ele>
        <time>2015-01-05T20:16:28.626Z</time>
      </trkpt>
      <trkpt lat="48.87776" lon="2.30775">
        <ele>104.3</ele>
        <time>2015-01-05T20:16:30.683Z</time>
      </trkpt>
      <trkpt lat="48.87777" lon="2.3077">
        <ele>104.4</ele>
        <time>2015-01-05T20:16:31.680Z</time>
      </trkpt>
      <trkpt lat="48.87778" lon="2.30758">
        <ele>104.7</ele>
        <time>2015-01-05T20:16:33.605Z</time>
      </trkpt>
      <trkpt lat="48.87779" lon="2.30752">
        <ele>104.7</ele>
        <time>2015-01-05T20:16:34.663Z</time>
      </trkpt>
      <trkpt lat="48.87779" lon="2.30745">
        <ele>104.7</ele>
        <time>2015-01-05T20:16:35.665Z</time>
      </trkpt>
      <trkpt lat="48.87779" lon="2.30738">
        <ele>104.8</ele>
        <time>2015-01-05T20:16:36.677Z</time>
      </trkpt>
      <trkpt lat="48.87779" lon="2.30725">
        <ele>104.9</ele>
        <time>2015-01-05T20:16:38.689Z</time>
      </trkpt>
      <trkpt lat="48.87778" lon="2.3072">
        <ele>104.6</ele>
        <time>2015-01-05T20:16:39.716Z</time>
      </trkpt>
      <trkpt lat="48.87778" lon="2.30711">
        <ele>104.3</ele>
        <time>2015-01-05T20:16:41.614Z</time>
      </trkpt>
      <trkpt lat="48.87777" lon="2.30707">
        <ele>104.4</ele>
        <time>2015-01-05T20:16:42.626Z</time>
      </trkpt>
      <trkpt lat="48.87775" lon="2.30697">
        <ele>104.4</ele>
        <time>2015-01-05T20:16:44.682Z</time>
      </trkpt>
      <trkpt lat="48.87775" lon="2.30692">
        <ele>104.3</ele>
        <time>2015-01-05T20:16:45.681Z</time>
      </trkpt>
      <trkpt lat="48.87776" lon="2.30682">
        <ele>104.3</ele>
        <time>2015-01-05T20:16:48.078Z</time>
      </trkpt>
      <trkpt lat="48.87776" lon="2.30676">
        <ele>104.2</ele>
        <time>2015-01-05T20:16:48.649Z</time>
      </trkpt>
      <trkpt lat="48.87776" lon="2.30665">
        <ele>104.4</ele>
        <time>2015-01-05T20:16:50.692Z</time>
      </trkpt>
      <trkpt lat="48.87777" lon="2.30659">
        <ele>104.4</ele>
        <time>2015-01-05T20:16:51.705Z</time>
      </trkpt>
      <trkpt lat="48.87778" lon="2.30648">
        <ele>104.5</ele>
        <time>2015-01-05T20:16:53.607Z</time>
      </trkpt>
      <trkpt lat="48.87778" lon="2.30643">
        <ele>104.4</ele>
        <time>2015-01-05T20:16:54.631Z</time>
      </trkpt>
      <trkpt lat="48.87776" lon="2.3063">
        <ele>104.6</ele>
        <time>2015-01-05T20:16:56.670Z</time>
      </trkpt>
      <trkpt lat="48.87776" lon="2.30625">
        <ele>104.6</ele>
        <time>2015-01-05T20:16:57.674Z</time>
      </trkpt>
      <trkpt lat="48.87776" lon="2.30619">
        <ele>104.9</ele>
        <time>2015-01-05T20:16:58.573Z</time>
      </trkpt>
      <trkpt lat="48.87775" lon="2.3061">
        <ele>106.7</ele>
        <time>2015-01-05T20:16:59.602Z</time>
      </trkpt>
      <trkpt lat="48.87773" lon="2.30601">
        <ele>109.1</ele>
        <time>2015-01-05T20:17:00.606Z</time>
      </trkpt>
      <trkpt lat="48.87772" lon="2.30594">
        <ele>110.6</ele>
        <time>2015-01-05T20:17:01.621Z</time>
      </trkpt>
      <trkpt lat="48.87769" lon="2.30584">
        <ele>110.8</ele>
        <time>2015-01-05T20:17:03.683Z</time>
      </trkpt>
      <trkpt lat="48.87766" lon="2.30581">
        <ele>110.1</ele>
        <time>2015-01-05T20:17:04.704Z</time>
      </trkpt>
      <trkpt lat="48.87772" lon="2.30572">
        <ele>107.3</ele>
        <time>2015-01-05T20:17:11.682Z</time>
      </trkpt>
      <trkpt lat="48.87774" lon="2.3057">
        <ele>106.4</ele>
        <time>2015-01-05T20:17:12.701Z</time>
      </trkpt>
      <trkpt lat="48.87783" lon="2.30565">
        <ele>105.5</ele>
        <time>2015-01-05T20:17:15.674Z</time>
      </trkpt>
      <trkpt lat="48.87787" lon="2.30564">
        <ele>105.1</ele>
        <time>2015-01-05T20:17:16.587Z</time>
      </trkpt>
      <trkpt lat="48.87792" lon="2.30564">
        <ele>105</ele>
        <time>2015-01-05T20:17:17.653Z</time>
      </trkpt>
      <trkpt lat="48.87796" lon="2.30563">
        <ele>104.9</ele>
        <time>2015-01-05T20:17:18.678Z</time>
      </trkpt>
      <trkpt lat="48.87802" lon="2.30554">
        <ele>104.3</ele>
        <time>2015-01-05T20:17:21.700Z</time>
      </trkpt>
      <trkpt lat="48.87803" lon="2.3055">
        <ele>104.1</ele>
        <time>2015-01-05T20:17:22.769Z</time>
      </trkpt>
      <trkpt lat="48.87807" lon="2.30541">
        <ele>103.8</ele>
        <time>2015-01-05T20:17:24.620Z</time>
      </trkpt>
      <trkpt lat="48.87808" lon="2.30536">
        <ele>103.5</ele>
        <time>2015-01-05T20:17:25.593Z</time>
      </trkpt>
      <trkpt lat="48.87812" lon="2.30524">
        <ele>103.3</ele>
        <time>2015-01-05T20:17:28.650Z</time>
      </trkpt>
      <trkpt lat="48.87812" lon="2.3052">
        <ele>102.9</ele>
        <time>2015-01-05T20:17:29.656Z</time>
      </trkpt>
      <trkpt lat="48.87812" lon="2.30517">
        <ele>103.2</ele>
        <time>2015-01-05T20:17:41.605Z</time>
      </trkpt>
      <trkpt lat="48.87801" lon="2.30503">
        <ele>101.3</ele>
        <time>2015-01-05T20:17:42.618Z</time>
      </trkpt>
      <trkpt lat="48.87795" lon="2.30497">
        <ele>100.9</ele>
        <time>2015-01-05T20:17:44.663Z</time>
      </trkpt>
      <trkpt lat="48.87792" lon="2.30493">
        <ele>100.6</ele>
        <time>2015-01-05T20:17:45.685Z</time>
      </trkpt>
      <trkpt lat="48.87788" lon="2.30486">
        <ele>100.5</ele>
        <time>2015-01-05T20:17:48.156Z</time>
      </trkpt>
      <trkpt lat="48.87785" lon="2.30482">
        <ele>100.5</ele>
        <time>2015-01-05T20:17:48.625Z</time>
      </trkpt>
      <trkpt lat="48.8778" lon="2.30472">
        <ele>100.7</ele>
        <time>2015-01-05T20:17:50.631Z</time>
      </trkpt>
      <trkpt lat="48.87778" lon="2.30467">
        <ele>100.6</ele>
        <time>2015-01-05T20:17:51.645Z</time>
      </trkpt>
      <trkpt lat="48.87772" lon="2.30459">
        <ele>100.7</ele>
        <time>2015-01-05T20:17:53.709Z</time>
      </trkpt>
      <trkpt lat="48.87768" lon="2.30453">
        <ele>101</ele>
        <time>2015-01-05T20:17:54.712Z</time>
      </trkpt>
      <trkpt lat="48.87765" lon="2.30445">
        <ele>101.3</ele>
        <time>2015-01-05T20:17:55.880Z</time>
      </trkpt>
      <trkpt lat="48.87762" lon="2.30435">
        <ele>101.7</ele>
        <time>2015-01-05T20:17:56.719Z</time>
      </trkpt>
      <trkpt lat="48.87758" lon="2.30429">
        <ele>102.4</ele>
        <time>2015-01-05T20:17:58.350Z</time>
      </trkpt>
      <trkpt lat="48.87753" lon="2.30423">
        <ele>102.6</ele>
        <time>2015-01-05T20:17:58.651Z</time>
      </trkpt>
      <trkpt lat="48.8775" lon="2.30417">
        <ele>102.8</ele>
        <time>2015-01-05T20:17:59.661Z</time>
      </trkpt>
      <trkpt lat="48.87746" lon="2.30409">
        <ele>103.2</ele>
        <time>2015-01-05T20:18:00.670Z</time>
      </trkpt>
      <trkpt lat="48.87742" lon="2.30403">
        <ele>103.5</ele>
        <time>2015-01-05T20:18:01.911Z</time>
      </trkpt>
      <trkpt lat="48.87739" lon="2.30395">
        <ele>103.5</ele>
        <time>2015-01-05T20:18:02.673Z</time>
      </trkpt>
      <trkpt lat="48.87735" lon="2.30387">
        <ele>103.5</ele>
        <time>2015-01-05T20:18:03.595Z</time>
      </trkpt>
      <trkpt lat="48.87732" lon="2.3038">
        <ele>103.5</ele>
        <time>2015-01-05T20:18:04.626Z</time>
      </trkpt>
      <trkpt lat="48.87729" lon="2.30373">
        <ele>103.7</ele>
        <time>2015-01-05T20:18:05.735Z</time>
      </trkpt>
      <trkpt lat="48.87724" lon="2.30367">
        <ele>104.1</ele>
        <time>2015-01-05T20:18:06.646Z</time>
      </trkpt>
      <trkpt lat="48.8772" lon="2.3036">
        <ele>104.1</ele>
        <time>2015-01-05T20:18:07.654Z</time>
      </trkpt>
      <trkpt lat="48.87715" lon="2.30353">
        <ele>104.1</ele>
        <time>2015-01-05T20:18:08.665Z</time>
      </trkpt>
      <trkpt lat="48.87711" lon="2.30344">
        <ele>103.8</ele>
        <time>2015-01-05T20:18:09.615Z</time>
      </trkpt>
      <trkpt lat="48.87706" lon="2.30335">
        <ele>103.9</ele>
        <time>2015-01-05T20:18:10.615Z</time>
      </trkpt>
      <trkpt lat="48.87703" lon="2.30327">
        <ele>104.4</ele>
        <time>2015-01-05T20:18:11.625Z</time>
      </trkpt>
      <trkpt lat="48.87699" lon="2.3032">
        <ele>104.4</ele>
        <time>2015-01-05T20:18:12.631Z</time>
      </trkpt>
      <trkpt lat="48.87694" lon="2.30311">
        <ele>104.7</ele>
        <time>2015-01-05T20:18:13.645Z</time>
      </trkpt>
      <trkpt lat="48.87691" lon="2.30302">
        <ele>105.4</ele>
        <time>2015-01-05T20:18:14.693Z</time>
      </trkpt>
      <trkpt lat="48.8769" lon="2.30292">
        <ele>106</ele>
        <time>2015-01-05T20:18:15.615Z</time>
      </trkpt>
      <trkpt lat="48.87688" lon="2.30281">
        <ele>106.7</ele>
        <time>2015-01-05T20:18:16.634Z</time>
      </trkpt>
      <trkpt lat="48.87685" lon="2.30273">
        <ele>106.7</ele>
        <time>2015-01-05T20:18:17.670Z</time>
      </trkpt>
      <trkpt lat="48.87682" lon="2.30267">
        <ele>106.7</ele>
        <time>2015-01-05T20:18:18.759Z</time>
      </trkpt>
      <trkpt lat="48.87678" lon="2.30261">
        <ele>106.4</ele>
        <time>2015-01-05T20:18:19.615Z</time>
      </trkpt>
      <trkpt lat="48.87675" lon="2.30253">
        <ele>106.5</ele>
        <time>2015-01-05T20:18:20.642Z</time>
      </trkpt>
      <trkpt lat="48.87672" lon="2.30245">
        <ele>106.6</ele>
        <time>2015-01-05T20:18:21.656Z</time>
      </trkpt>
      <trkpt lat="48.87669" lon="2.30237">
        <ele>106.6</ele>
        <time>2015-01-05T20:18:22.668Z</time>
      </trkpt>
      <trkpt lat="48.87666" lon="2.30231">
        <ele>106.6</ele>
        <time>2015-01-05T20:18:23.703Z</time>
      </trkpt>
      <trkpt lat="48.87663" lon="2.30224">
        <ele>106.2</ele>
        <time>2015-01-05T20:18:24.619Z</time>
      </trkpt>
      <trkpt lat="48.8766" lon="2.30218">
        <ele>105.7</ele>
        <time>2015-01-05T20:18:25.629Z</time>
      </trkpt>
      <trkpt lat="48.87659" lon="2.30209">
        <ele>105</ele>
        <time>2015-01-05T20:18:26.650Z</time>
      </trkpt>
      <trkpt lat="48.87656" lon="2.302">
        <ele>104.5</ele>
        <time>2015-01-05T20:18:27.640Z</time>
      </trkpt>
      <trkpt lat="48.87654" lon="2.30188">
        <ele>105.9</ele>
        <time>2015-01-05T20:18:28.668Z</time>
      </trkpt>
      <trkpt lat="48.87651" lon="2.3018">
        <ele>106.5</ele>
        <time>2015-01-05T20:18:29.617Z</time>
      </trkpt>
      <trkpt lat="48.87649" lon="2.30174">
        <ele>106.6</ele>
        <time>2015-01-05T20:18:30.630Z</time>
      </trkpt>
      <trkpt lat="48.87647" lon="2.30167">
        <ele>106.2</ele>
        <time>2015-01-05T20:18:31.692Z</time>
      </trkpt>
      <trkpt lat="48.87644" lon="2.30162">
        <ele>106.3</ele>
        <time>2015-01-05T20:18:32.702Z</time>
      </trkpt>
      <trkpt lat="48.87642" lon="2.30156">
        <ele>106.4</ele>
        <time>2015-01-05T20:18:33.608Z</time>
      </trkpt>
      <trkpt lat="48.87639" lon="2.30149">
        <ele>106.6</ele>
        <time>2015-01-05T20:18:34.602Z</time>
      </trkpt>
      <trkpt lat="48.87637" lon="2.30143">
        <ele>106.7</ele>
        <time>2015-01-05T20:18:35.610Z</time>
      </trkpt>
      <trkpt lat="48.87633" lon="2.30138">
        <ele>107.1</ele>
        <time>2015-01-05T20:18:36.614Z</time>
      </trkpt>
      <trkpt lat="48.87629" lon="2.30132">
        <ele>107.3</ele>
        <time>2015-01-05T20:18:37.634Z</time>
      </trkpt>
      <trkpt lat="48.87626" lon="2.30126">
        <ele>107.8</ele>
        <time>2015-01-05T20:18:38.647Z</time>
      </trkpt>
      <trkpt lat="48.87623" lon="2.30119">
        <ele>108.1</ele>
        <time>2015-01-05T20:18:39.649Z</time>
      </trkpt>
      <trkpt lat="48.8762" lon="2.30113">
        <ele>108.5</ele>
        <time>2015-01-05T20:18:40.664Z</time>
      </trkpt>
      <trkpt lat="48.87618" lon="2.30107">
        <ele>108.9</ele>
        <time>2015-01-05T20:18:41.697Z</time>
      </trkpt>
      <trkpt lat="48.87615" lon="2.30101">
        <ele>109.2</ele>
        <time>2015-01-05T20:18:42.621Z</time>
      </trkpt>
      <trkpt lat="48.8761" lon="2.30091">
        <ele>109.3</ele>
        <time>2015-01-05T20:18:44.670Z</time>
      </trkpt>
      <trkpt lat="48.87607" lon="2.30084">
        <ele>109.2</ele>
        <time>2015-01-05T20:18:45.682Z</time>
      </trkpt>
      <trkpt lat="48.87604" lon="2.30077">
        <ele>109.4</ele>
        <time>2015-01-05T20:18:46.613Z</time>
      </trkpt>
      <trkpt lat="48.87602" lon="2.30069">
        <ele>109.8</ele>
        <time>2015-01-05T20:18:47.619Z</time>
      </trkpt>
      <trkpt lat="48.87599" lon="2.30062">
        <ele>110.1</ele>
        <time>2015-01-05T20:18:48.629Z</time>
      </trkpt>
      <trkpt lat="48.87596" lon="2.30057">
        <ele>110</ele>
        <time>2015-01-05T20:18:49.635Z</time>
      </trkpt>
      <trkpt lat="48.87593" lon="2.30051">
        <ele>110.2</ele>
        <time>2015-01-05T20:18:50.652Z</time>
      </trkpt>
      <trkpt lat="48.8759" lon="2.30044">
        <ele>109.9</ele>
        <time>2015-01-05T20:18:51.649Z</time>
      </trkpt>
      <trkpt lat="48.87587" lon="2.30038">
        <ele>110</ele>
        <time>2015-01-05T20:18:52.663Z</time>
      </trkpt>
      <trkpt lat="48.87583" lon="2.30032">
        <ele>109.9</ele>
        <time>2015-01-05T20:18:53.690Z</time>
      </trkpt>
      <trkpt lat="48.87581" lon="2.30026">
        <ele>110.1</ele>
        <time>2015-01-05T20:18:55.415Z</time>
      </trkpt>
      <trkpt lat="48.87577" lon="2.3002">
        <ele>110</ele>
        <time>2015-01-05T20:18:55.611Z</time>
      </trkpt>
      <trkpt lat="48.87574" lon="2.30014">
        <ele>109.8</ele>
        <time>2015-01-05T20:18:56.654Z</time>
      </trkpt>
      <trkpt lat="48.87571" lon="2.30008">
        <ele>109.8</ele>
        <time>2015-01-05T20:18:57.648Z</time>
      </trkpt>
      <trkpt lat="48.87569" lon="2.30001">
        <ele>109.8</ele>
        <time>2015-01-05T20:18:58.663Z</time>
      </trkpt>
      <trkpt lat="48.87567" lon="2.29993">
        <ele>109.9</ele>
        <time>2015-01-05T20:18:59.669Z</time>
      </trkpt>
      <trkpt lat="48.87564" lon="2.29987">
        <ele>109.7</ele>
        <time>2015-01-05T20:19:00.676Z</time>
      </trkpt>
      <trkpt lat="48.87562" lon="2.2998">
        <ele>109.4</ele>
        <time>2015-01-05T20:19:01.587Z</time>
      </trkpt>
      <trkpt lat="48.87559" lon="2.29973">
        <ele>109.4</ele>
        <time>2015-01-05T20:19:02.700Z</time>
      </trkpt>
      <trkpt lat="48.87557" lon="2.29966">
        <ele>109.4</ele>
        <time>2015-01-05T20:19:03.613Z</time>
      </trkpt>
      <trkpt lat="48.87555" lon="2.2996">
        <ele>109.6</ele>
        <time>2015-01-05T20:19:05.468Z</time>
      </trkpt>
      <trkpt lat="48.87553" lon="2.29953">
        <ele>109.9</ele>
        <time>2015-01-05T20:19:05.609Z</time>
      </trkpt>
      <trkpt lat="48.87549" lon="2.29942">
        <ele>110.5</ele>
        <time>2015-01-05T20:19:07.627Z</time>
      </trkpt>
      <trkpt lat="48.87546" lon="2.29937">
        <ele>110.8</ele>
        <time>2015-01-05T20:19:08.663Z</time>
      </trkpt>
      <trkpt lat="48.87541" lon="2.29927">
        <ele>110.9</ele>
        <time>2015-01-05T20:19:10.638Z</time>
      </trkpt>
      <trkpt lat="48.87537" lon="2.29923">
        <ele>110.6</ele>
        <time>2015-01-05T20:19:11.642Z</time>
      </trkpt>
      <trkpt lat="48.87532" lon="2.29913">
        <ele>110.5</ele>
        <time>2015-01-05T20:19:13.694Z</time>
      </trkpt>
      <trkpt lat="48.8753" lon="2.29907">
        <ele>110.9</ele>
        <time>2015-01-05T20:19:14.676Z</time>
      </trkpt>
      <trkpt lat="48.87527" lon="2.299">
        <ele>111.2</ele>
        <time>2015-01-05T20:19:15.591Z</time>
      </trkpt>
      <trkpt lat="48.87524" lon="2.29895">
        <ele>111.7</ele>
        <time>2015-01-05T20:19:16.644Z</time>
      </trkpt>
      <trkpt lat="48.8752" lon="2.29883">
        <ele>112</ele>
        <time>2015-01-05T20:19:18.658Z</time>
      </trkpt>
      <trkpt lat="48.87518" lon="2.29877">
        <ele>112.2</ele>
        <time>2015-01-05T20:19:19.584Z</time>
      </trkpt>
      <trkpt lat="48.87516" lon="2.29869">
        <ele>112</ele>
        <time>2015-01-05T20:19:20.682Z</time>
      </trkpt>
      <trkpt lat="48.87514" lon="2.29862">
        <ele>111.7</ele>
        <time>2015-01-05T20:19:21.652Z</time>
      </trkpt>
      <trkpt lat="48.87512" lon="2.29853">
        <ele>111.6</ele>
        <time>2015-01-05T20:19:22.660Z</time>
      </trkpt>
      <trkpt lat="48.8751" lon="2.29846">
        <ele>111.9</ele>
        <time>2015-01-05T20:19:23.671Z</time>
      </trkpt>
      <trkpt lat="48.87507" lon="2.29839">
        <ele>112</ele>
        <time>2015-01-05T20:19:24.682Z</time>
      </trkpt>
      <trkpt lat="48.87504" lon="2.29833">
        <ele>112.2</ele>
        <time>2015-01-05T20:19:25.596Z</time>
      </trkpt>
      <trkpt lat="48.87499" lon="2.29826">
        <ele>111.9</ele>
        <time>2015-01-05T20:19:26.721Z</time>
      </trkpt>
      <trkpt lat="48.87496" lon="2.2982">
        <ele>112.1</ele>
        <time>2015-01-05T20:19:27.606Z</time>
      </trkpt>
      <trkpt lat="48.87493" lon="2.29814">
        <ele>112.3</ele>
        <time>2015-01-05T20:19:28.626Z</time>
      </trkpt>
      <trkpt lat="48.8749" lon="2.29808">
        <ele>112.7</ele>
        <time>2015-01-05T20:19:29.630Z</time>
      </trkpt>
      <trkpt lat="48.87487" lon="2.29801">
        <ele>112.1</ele>
        <time>2015-01-05T20:19:30.649Z</time>
      </trkpt>
      <trkpt lat="48.87484" lon="2.29794">
        <ele>112</ele>
        <time>2015-01-05T20:19:31.663Z</time>
      </trkpt>
      <trkpt lat="48.87481" lon="2.29787">
        <ele>112.2</ele>
        <time>2015-01-05T20:19:32.677Z</time>
      </trkpt>
      <trkpt lat="48.87478" lon="2.2978">
        <ele>112.8</ele>
        <time>2015-01-05T20:19:33.684Z</time>
      </trkpt>
      <trkpt lat="48.87475" lon="2.29773">
        <ele>112.7</ele>
        <time>2015-01-05T20:19:34.600Z</time>
      </trkpt>
      <trkpt lat="48.87471" lon="2.29766">
        <ele>112.3</ele>
        <time>2015-01-05T20:19:35.605Z</time>
      </trkpt>
      <trkpt lat="48.87468" lon="2.29759">
        <ele>112.5</ele>
        <time>2015-01-05T20:19:36.617Z</time>
      </trkpt>
      <trkpt lat="48.87465" lon="2.29753">
        <ele>112.4</ele>
        <time>2015-01-05T20:19:37.622Z</time>
      </trkpt>
      <trkpt lat="48.87464" lon="2.29745">
        <ele>113.1</ele>
        <time>2015-01-05T20:19:38.642Z</time>
      </trkpt>
      <trkpt lat="48.87461" lon="2.29737">
        <ele>113.1</ele>
        <time>2015-01-05T20:19:39.646Z</time>
      </trkpt>
      <trkpt lat="48.87459" lon="2.29731">
        <ele>113.4</ele>
        <time>2015-01-05T20:19:40.654Z</time>
      </trkpt>
      <trkpt lat="48.87456" lon="2.29724">
        <ele>113.7</ele>
        <time>2015-01-05T20:19:41.661Z</time>
      </trkpt>
      <trkpt lat="48.87453" lon="2.29715">
        <ele>114.2</ele>
        <time>2015-01-05T20:19:43.690Z</time>
      </trkpt>
      <trkpt lat="48.87453" lon="2.2971">
        <ele>114.2</ele>
        <time>2015-01-05T20:19:44.696Z</time>
      </trkpt>
      <trkpt lat="48.87455" lon="2.297">
        <ele>113.1</ele>
        <time>2015-01-05T20:19:46.604Z</time>
      </trkpt>
      <trkpt lat="48.87453" lon="2.29696">
        <ele>112.9</ele>
        <time>2015-01-05T20:19:47.611Z</time>
      </trkpt>
      <trkpt lat="48.87451" lon="2.29687">
        <ele>113.5</ele>
        <time>2015-01-05T20:19:51.644Z</time>
      </trkpt>
      <trkpt lat="48.87453" lon="2.29691">
        <ele>113.4</ele>
        <time>2015-01-05T20:19:52.694Z</time>
      </trkpt>
      <trkpt lat="48.87453" lon="2.29693">
        <ele>113.4</ele>
        <time>2015-01-05T20:22:17.627Z</time>
      </trkpt>
      <trkpt lat="48.87458" lon="2.29702">
        <ele>126.3</ele>
        <time>2015-01-05T20:22:18.706Z</time>
      </trkpt>
      <trkpt lat="48.87463" lon="2.29696">
        <ele>125.3</ele>
        <time>2015-01-05T20:22:20.732Z</time>
      </trkpt>
      <trkpt lat="48.87468" lon="2.2969">
        <ele>122.9</ele>
        <time>2015-01-05T20:22:21.615Z</time>
      </trkpt>
      <trkpt lat="48.87472" lon="2.29686">
        <ele>120.7</ele>
        <time>2015-01-05T20:22:22.708Z</time>
      </trkpt>
      <trkpt lat="48.87476" lon="2.29681">
        <ele>118.9</ele>
        <time>2015-01-05T20:22:23.609Z</time>
      </trkpt>
      <trkpt lat="48.8748" lon="2.29676">
        <ele>117.9</ele>
        <time>2015-01-05T20:22:24.601Z</time>
      </trkpt>
      <trkpt lat="48.87483" lon="2.29672">
        <ele>117.5</ele>
        <time>2015-01-05T20:22:25.624Z</time>
      </trkpt>
      <trkpt lat="48.87488" lon="2.29667">
        <ele>116.6</ele>
        <time>2015-01-05T20:22:26.712Z</time>
      </trkpt>
      <trkpt lat="48.87492" lon="2.29662">
        <ele>116</ele>
        <time>2015-01-05T20:22:27.654Z</time>
      </trkpt>
      <trkpt lat="48.87497" lon="2.29651">
        <ele>115.5</ele>
        <time>2015-01-05T20:22:29.906Z</time>
      </trkpt>
      <trkpt lat="48.87499" lon="2.29645">
        <ele>115.5</ele>
        <time>2015-01-05T20:22:30.705Z</time>
      </trkpt>
      <trkpt lat="48.87501" lon="2.29633">
        <ele>116.2</ele>
        <time>2015-01-05T20:22:32.845Z</time>
      </trkpt>
      <trkpt lat="48.87502" lon="2.29626">
        <ele>116.6</ele>
        <time>2015-01-05T20:22:33.677Z</time>
      </trkpt>
      <trkpt lat="48.87503" lon="2.29613">
        <ele>117.1</ele>
        <time>2015-01-05T20:22:35.598Z</time>
      </trkpt>
      <trkpt lat="48.87503" lon="2.29607">
        <ele>117.3</ele>
        <time>2015-01-05T20:22:36.594Z</time>
      </trkpt>
      <trkpt lat="48.87504" lon="2.29595">
        <ele>120</ele>
        <time>2015-01-05T20:22:53.194Z</time>
      </trkpt>
      <trkpt lat="48.87504" lon="2.29592">
        <ele>120.5</ele>
        <time>2015-01-05T20:22:53.670Z</time>
      </trkpt>
      <trkpt lat="48.87508" lon="2.29584">
        <ele>121.3</ele>
        <time>2015-01-05T20:22:56.838Z</time>
      </trkpt>
      <trkpt lat="48.8751" lon="2.29581">
        <ele>121.3</ele>
        <time>2015-01-05T20:22:57.613Z</time>
      </trkpt>
      <trkpt lat="48.87515" lon="2.29574">
        <ele>120.7</ele>
        <time>2015-01-05T20:22:59.619Z</time>
      </trkpt>
      <trkpt lat="48.87516" lon="2.2957">
        <ele>120.4</ele>
        <time>2015-01-05T20:23:00.628Z</time>
      </trkpt>
      <trkpt lat="48.87518" lon="2.29562">
        <ele>119.9</ele>
        <time>2015-01-05T20:23:03.407Z</time>
      </trkpt>
      <trkpt lat="48.87518" lon="2.29556">
        <ele>119.9</ele>
        <time>2015-01-05T20:23:03.754Z</time>
      </trkpt>
      <trkpt lat="48.87519" lon="2.29544">
        <ele>119.4</ele>
        <time>2015-01-05T20:23:05.669Z</time>
      </trkpt>
      <trkpt lat="48.87521" lon="2.29538">
        <ele>119.1</ele>
        <time>2015-01-05T20:23:06.773Z</time>
      </trkpt>
      <trkpt lat="48.87523" lon="2.29525">
        <ele>119.1</ele>
        <time>2015-01-05T20:23:09.193Z</time>
      </trkpt>
      <trkpt lat="48.87524" lon="2.29518">
        <ele>119.2</ele>
        <time>2015-01-05T20:23:09.606Z</time>
      </trkpt>
      <trkpt lat="48.87524" lon="2.29512">
        <ele>119.7</ele>
        <time>2015-01-05T20:23:10.609Z</time>
      </trkpt>
      <trkpt lat="48.87525" lon="2.29504">
        <ele>120.1</ele>
        <time>2015-01-05T20:23:11.637Z</time>
      </trkpt>
      <trkpt lat="48.87526" lon="2.29496">
        <ele>120.3</ele>
        <time>2015-01-05T20:23:13.600Z</time>
      </trkpt>
      <trkpt lat="48.87525" lon="2.29488">
        <ele>121</ele>
        <time>2015-01-05T20:23:13.654Z</time>
      </trkpt>
      <trkpt lat="48.87524" lon="2.29475">
        <ele>121.9</ele>
        <time>2015-01-05T20:23:15.680Z</time>
      </trkpt>
      <trkpt lat="48.87522" lon="2.2947">
        <ele>122.1</ele>
        <time>2015-01-05T20:23:16.705Z</time>
      </trkpt>
      <trkpt lat="48.87521" lon="2.29463">
        <ele>122.4</ele>
        <time>2015-01-05T20:23:19.616Z</time>
      </trkpt>
      <trkpt lat="48.87521" lon="2.29468">
        <ele>121.4</ele>
        <time>2015-01-05T20:23:20.631Z</time>
      </trkpt>
      <trkpt lat="48.87523" lon="2.29473">
        <ele>120.3</ele>
        <time>2015-01-05T20:23:32.832Z</time>
      </trkpt>
      <trkpt lat="48.87524" lon="2.29454">
        <ele>123.8</ele>
        <time>2015-01-05T20:23:33.694Z</time>
      </trkpt>
      <trkpt lat="48.87521" lon="2.29442">
        <ele>123.1</ele>
        <time>2015-01-05T20:23:36.640Z</time>
      </trkpt>
      <trkpt lat="48.87519" lon="2.29435">
        <ele>122</ele>
        <time>2015-01-05T20:23:37.706Z</time>
      </trkpt>
      <trkpt lat="48.87517" lon="2.29429">
        <ele>121.3</ele>
        <time>2015-01-05T20:23:38.652Z</time>
      </trkpt>
      <trkpt lat="48.87515" lon="2.29422">
        <ele>120.5</ele>
        <time>2015-01-05T20:23:39.645Z</time>
      </trkpt>
      <trkpt lat="48.8751" lon="2.2941">
        <ele>119.7</ele>
        <time>2015-01-05T20:23:41.707Z</time>
      </trkpt>
      <trkpt lat="48.87509" lon="2.29404">
        <ele>119</ele>
        <time>2015-01-05T20:23:42.638Z</time>
      </trkpt>
      <trkpt lat="48.87506" lon="2.29394">
        <ele>119.2</ele>
        <time>2015-01-05T20:23:44.677Z</time>
      </trkpt>
      <trkpt lat="48.87504" lon="2.29389">
        <ele>119.8</ele>
        <time>2015-01-05T20:23:45.580Z</time>
      </trkpt>
      <trkpt lat="48.87502" lon="2.29384">
        <ele>119.9</ele>
        <time>2015-01-05T20:23:46.611Z</time>
      </trkpt>
      <trkpt lat="48.87499" lon="2.29378">
        <ele>120.3</ele>
        <time>2015-01-05T20:23:47.618Z</time>
      </trkpt>
      <trkpt lat="48.87494" lon="2.29367">
        <ele>120</ele>
        <time>2015-01-05T20:23:49.641Z</time>
      </trkpt>
      <trkpt lat="48.87492" lon="2.29362">
        <ele>119.8</ele>
        <time>2015-01-05T20:23:50.641Z</time>
      </trkpt>
      <trkpt lat="48.87489" lon="2.29356">
        <ele>119.4</ele>
        <time>2015-01-05T20:23:51.682Z</time>
      </trkpt>
      <trkpt lat="48.87487" lon="2.2935">
        <ele>119.2</ele>
        <time>2015-01-05T20:23:52.687Z</time>
      </trkpt>
      <trkpt lat="48.87483" lon="2.29344">
        <ele>119.2</ele>
        <time>2015-01-05T20:23:53.586Z</time>
      </trkpt>
      <trkpt lat="48.8748" lon="2.29339">
        <ele>119.3</ele>
        <time>2015-01-05T20:23:54.605Z</time>
      </trkpt>
      <trkpt lat="48.87477" lon="2.29334">
        <ele>119.3</ele>
        <time>2015-01-05T20:23:55.607Z</time>
      </trkpt>
      <trkpt lat="48.87473" lon="2.29329">
        <ele>118.8</ele>
        <time>2015-01-05T20:23:56.645Z</time>
      </trkpt>
      <trkpt lat="48.87466" lon="2.29324">
        <ele>117.6</ele>
        <time>2015-01-05T20:23:58.690Z</time>
      </trkpt>
      <trkpt lat="48.87462" lon="2.2932">
        <ele>117.4</ele>
        <time>2015-01-05T20:23:59.605Z</time>
      </trkpt>
      <trkpt lat="48.87456" lon="2.29313">
        <ele>116.1</ele>
        <time>2015-01-05T20:24:02.657Z</time>
      </trkpt>
      <trkpt lat="48.87455" lon="2.2931">
        <ele>115.6</ele>
        <time>2015-01-05T20:24:03.662Z</time>
      </trkpt>
      <trkpt lat="48.87454" lon="2.29299">
        <ele>114.2</ele>
        <time>2015-01-05T20:24:06.694Z</time>
      </trkpt>
      <trkpt lat="48.87454" lon="2.29296">
        <ele>113.8</ele>
        <time>2015-01-05T20:24:07.573Z</time>
      </trkpt>
      <trkpt lat="48.87446" lon="2.29296">
        <ele>106.7</ele>
        <time>2015-01-05T20:24:47.620Z</time>
      </trkpt>
      <trkpt lat="48.87445" lon="2.29295">
        <ele>106.7</ele>
        <time>2015-01-05T20:24:48.633Z</time>
      </trkpt>
      <trkpt lat="48.87438" lon="2.2929">
        <ele>106.6</ele>
        <time>2015-01-05T20:24:52.636Z</time>
      </trkpt>
      <trkpt lat="48.87435" lon="2.2929">
        <ele>106.5</ele>
        <time>2015-01-05T20:24:53.626Z</time>
      </trkpt>
      <trkpt lat="48.87426" lon="2.2929">
        <ele>107.5</ele>
        <time>2015-01-05T20:24:57.581Z</time>
      </trkpt>
      <trkpt lat="48.87424" lon="2.2929">
        <ele>107.9</ele>
        <time>2015-01-05T20:24:58.600Z</time>
      </trkpt>
      <trkpt lat="48.87415" lon="2.29289">
        <ele>109</ele>
        <time>2015-01-05T20:25:02.681Z</time>
      </trkpt>
      <trkpt lat="48.87413" lon="2.29288">
        <ele>109.2</ele>
        <time>2015-01-05T20:25:03.642Z</time>
      </trkpt>
      <trkpt lat="48.87404" lon="2.29289">
        <ele>110.3</ele>
        <time>2015-01-05T20:25:07.794Z</time>
      </trkpt>
      <trkpt lat="48.87402" lon="2.2929">
        <ele>110.9</ele>
        <time>2015-01-05T20:25:08.663Z</time>
      </trkpt>
      <trkpt lat="48.87395" lon="2.29289">
        <ele>110.8</ele>
        <time>2015-01-05T20:25:11.618Z</time>
      </trkpt>
      <trkpt lat="48.87392" lon="2.29288">
        <ele>111</ele>
        <time>2015-01-05T20:25:12.630Z</time>
      </trkpt>
      <trkpt lat="48.87385" lon="2.29285">
        <ele>110.3</ele>
        <time>2015-01-05T20:25:14.678Z</time>
      </trkpt>
      <trkpt lat="48.87381" lon="2.29285">
        <ele>110</ele>
        <time>2015-01-05T20:25:15.688Z</time>
      </trkpt>
      <trkpt lat="48.87374" lon="2.29284">
        <ele>109.8</ele>
        <time>2015-01-05T20:25:17.629Z</time>
      </trkpt>
      <trkpt lat="48.87371" lon="2.29285">
        <ele>109.9</ele>
        <time>2015-01-05T20:25:18.647Z</time>
      </trkpt>
      <trkpt lat="48.87368" lon="2.29285">
        <ele>110.2</ele>
        <time>2015-01-05T20:26:00.621Z</time>
      </trkpt>
      <trkpt lat="48.87355" lon="2.29285">
        <ele>107.5</ele>
        <time>2015-01-05T20:26:01.625Z</time>
      </trkpt>
      <trkpt lat="48.87348" lon="2.29288">
        <ele>107.7</ele>
        <time>2015-01-05T20:26:04.574Z</time>
      </trkpt>
      <trkpt lat="48.87346" lon="2.29288">
        <ele>107.9</ele>
        <time>2015-01-05T20:26:05.610Z</time>
      </trkpt>
      <trkpt lat="48.87338" lon="2.29291">
        <ele>108.1</ele>
        <time>2015-01-05T20:26:08.678Z</time>
      </trkpt>
      <trkpt lat="48.87335" lon="2.29293">
        <ele>108.1</ele>
        <time>2015-01-05T20:26:09.630Z</time>
      </trkpt>
      <trkpt lat="48.87328" lon="2.29295">
        <ele>108.8</ele>
        <time>2015-01-05T20:26:11.617Z</time>
      </trkpt>
      <trkpt lat="48.87324" lon="2.29298">
        <ele>108.6</ele>
        <time>2015-01-05T20:26:12.624Z</time>
      </trkpt>
      <trkpt lat="48.87318" lon="2.29304">
        <ele>108.4</ele>
        <time>2015-01-05T20:26:14.691Z</time>
      </trkpt>
      <trkpt lat="48.87314" lon="2.29307">
        <ele>108.4</ele>
        <time>2015-01-05T20:26:15.599Z</time>
      </trkpt>
      <trkpt lat="48.8731" lon="2.2931">
        <ele>108.9</ele>
        <time>2015-01-05T20:26:16.614Z</time>
      </trkpt>
      <trkpt lat="48.87305" lon="2.29312">
        <ele>109.3</ele>
        <time>2015-01-05T20:26:17.617Z</time>
      </trkpt>
      <trkpt lat="48.873" lon="2.29317">
        <ele>110.5</ele>
        <time>2015-01-05T20:26:19.635Z</time>
      </trkpt>
      <trkpt lat="48.87297" lon="2.29319">
        <ele>111</ele>
        <time>2015-01-05T20:26:20.649Z</time>
      </trkpt>
      <trkpt lat="48.87292" lon="2.29325">
        <ele>111.7</ele>
        <time>2015-01-05T20:26:24.516Z</time>
      </trkpt>
      <trkpt lat="48.87289" lon="2.29329">
        <ele>112</ele>
        <time>2015-01-05T20:26:24.623Z</time>
      </trkpt>
      <trkpt lat="48.87284" lon="2.29337">
        <ele>112.4</ele>
        <time>2015-01-05T20:26:26.668Z</time>
      </trkpt>
      <trkpt lat="48.87281" lon="2.2934">
        <ele>112.8</ele>
        <time>2015-01-05T20:26:27.682Z</time>
      </trkpt>
      <trkpt lat="48.87276" lon="2.29349">
        <ele>113</ele>
        <time>2015-01-05T20:26:30.645Z</time>
      </trkpt>
      <trkpt lat="48.87274" lon="2.29351">
        <ele>113.3</ele>
        <time>2015-01-05T20:26:31.652Z</time>
      </trkpt>
      <trkpt lat="48.87269" lon="2.29362">
        <ele>113.8</ele>
        <time>2015-01-05T20:26:34.665Z</time>
      </trkpt>
      <trkpt lat="48.87269" lon="2.29365">
        <ele>113.9</ele>
        <time>2015-01-05T20:26:35.644Z</time>
      </trkpt>
      <trkpt lat="48.8727" lon="2.29368">
        <ele>114.2</ele>
        <time>2015-01-05T20:26:45.665Z</time>
      </trkpt>
      <trkpt lat="48.87263" lon="2.29353">
        <ele>117.8</ele>
        <time>2015-01-05T20:26:46.588Z</time>
      </trkpt>
      <trkpt lat="48.87258" lon="2.29343">
        <ele>118.6</ele>
        <time>2015-01-05T20:26:48.733Z</time>
      </trkpt>
      <trkpt lat="48.87257" lon="2.29339">
        <ele>118.7</ele>
        <time>2015-01-05T20:26:49.727Z</time>
      </trkpt>
      <trkpt lat="48.87252" lon="2.29329">
        <ele>118.8</ele>
        <time>2015-01-05T20:26:53.007Z</time>
      </trkpt>
      <trkpt lat="48.8725" lon="2.29326">
        <ele>118.6</ele>
        <time>2015-01-05T20:26:53.585Z</time>
      </trkpt>
      <trkpt lat="48.87244" lon="2.29319">
        <ele>117.7</ele>
        <time>2015-01-05T20:26:55.606Z</time>
      </trkpt>
      <trkpt lat="48.87241" lon="2.29317">
        <ele>117.3</ele>
        <time>2015-01-05T20:26:56.610Z</time>
      </trkpt>
      <trkpt lat="48.87236" lon="2.29308">
        <ele>117.3</ele>
        <time>2015-01-05T20:26:58.663Z</time>
      </trkpt>
      <trkpt lat="48.87232" lon="2.29302">
        <ele>117.4</ele>
        <time>2015-01-05T20:26:59.568Z</time>
      </trkpt>
      <trkpt lat="48.87228" lon="2.29296">
        <ele>117.5</ele>
        <time>2015-01-05T20:27:00.580Z</time>
      </trkpt>
      <trkpt lat="48.87225" lon="2.29291">
        <ele>117.7</ele>
        <time>2015-01-05T20:27:01.592Z</time>
      </trkpt>
      <trkpt lat="48.87121" lon="2.29191">
        <ele>116.8</ele>
        <time>2015-01-05T20:27:32.629Z</time>
      </trkpt>
      <trkpt lat="48.87114" lon="2.29185">
        <ele>117.3</ele>
        <time>2015-01-05T20:27:34.654Z</time>
      </trkpt>
      <trkpt lat="48.8711" lon="2.29183">
        <ele>117.5</ele>
        <time>2015-01-05T20:27:35.600Z</time>
      </trkpt>
      <trkpt lat="48.87084" lon="2.29154">
        <ele>117.5</ele>
        <time>2015-01-05T20:27:43.617Z</time>
      </trkpt>
      <trkpt lat="48.87077" lon="2.29146">
        <ele>117.4</ele>
        <time>2015-01-05T20:27:45.558Z</time>
      </trkpt>
      <trkpt lat="48.87073" lon="2.29144">
        <ele>117.2</ele>
        <time>2015-01-05T20:27:46.592Z</time>
      </trkpt>
      <trkpt lat="48.87068" lon="2.29141">
        <ele>117</ele>
        <time>2015-01-05T20:27:48.092Z</time>
      </trkpt>
      <trkpt lat="48.87062" lon="2.29139">
        <ele>116.9</ele>
        <time>2015-01-05T20:27:48.608Z</time>
      </trkpt>
      <trkpt lat="48.87059" lon="2.29136">
        <ele>117.1</ele>
        <time>2015-01-05T20:27:49.632Z</time>
      </trkpt>
      <trkpt lat="48.87054" lon="2.29132">
        <ele>117.2</ele>
        <time>2015-01-05T20:27:50.647Z</time>
      </trkpt>
      <trkpt lat="48.87048" lon="2.29125">
        <ele>117.4</ele>
        <time>2015-01-05T20:27:53.164Z</time>
      </trkpt>
      <trkpt lat="48.87045" lon="2.29122">
        <ele>117.4</ele>
        <time>2015-01-05T20:27:53.628Z</time>
      </trkpt>
      <trkpt lat="48.8704" lon="2.29115">
        <ele>117.5</ele>
        <time>2015-01-05T20:27:55.569Z</time>
      </trkpt>
      <trkpt lat="48.87037" lon="2.29112">
        <ele>117.6</ele>
        <time>2015-01-05T20:27:56.616Z</time>
      </trkpt>
      <trkpt lat="48.87031" lon="2.29106">
        <ele>117.7</ele>
        <time>2015-01-05T20:27:58.555Z</time>
      </trkpt>
      <trkpt lat="48.86997" lon="2.29094">
        <ele>116</ele>
        <time>2015-01-05T20:28:09.635Z</time>
      </trkpt>
      <trkpt lat="48.86994" lon="2.29084">
        <ele>113.5</ele>
        <time>2015-01-05T20:28:11.557Z</time>
      </trkpt>
      <trkpt lat="48.86992" lon="2.29082">
        <ele>113.3</ele>
        <time>2015-01-05T20:28:12.553Z</time>
      </trkpt>
      <trkpt lat="48.86987" lon="2.29073">
        <ele>115.6</ele>
        <time>2015-01-05T20:28:15.613Z</time>
      </trkpt>
      <trkpt lat="48.86985" lon="2.29071">
        <ele>116.1</ele>
        <time>2015-01-05T20:28:16.638Z</time>
      </trkpt>
      <trkpt lat="48.86979" lon="2.29066">
        <ele>117.1</ele>
        <time>2015-01-05T20:28:18.578Z</time>
      </trkpt>
      <trkpt lat="48.86975" lon="2.29063">
        <ele>117.5</ele>
        <time>2015-01-05T20:28:19.639Z</time>
      </trkpt>
      <trkpt lat="48.86968" lon="2.29058">
        <ele>118.3</ele>
        <time>2015-01-05T20:28:21.670Z</time>
      </trkpt>
      <trkpt lat="48.86964" lon="2.29054">
        <ele>118.4</ele>
        <time>2015-01-05T20:28:22.611Z</time>
      </trkpt>
      <trkpt lat="48.86958" lon="2.29046">
        <ele>118.7</ele>
        <time>2015-01-05T20:28:24.670Z</time>
      </trkpt>
      <trkpt lat="48.86955" lon="2.29041">
        <ele>119.1</ele>
        <time>2015-01-05T20:28:25.566Z</time>
      </trkpt>
      <trkpt lat="48.86949" lon="2.29036">
        <ele>119.7</ele>
        <time>2015-01-05T20:28:27.590Z</time>
      </trkpt>
      <trkpt lat="48.86947" lon="2.29034">
        <ele>119.7</ele>
        <time>2015-01-05T20:28:28.596Z</time>
      </trkpt>
      <trkpt lat="48.86941" lon="2.2903">
        <ele>119.9</ele>
        <time>2015-01-05T20:28:30.599Z</time>
      </trkpt>
      <trkpt lat="48.86938" lon="2.29028">
        <ele>120.1</ele>
        <time>2015-01-05T20:28:31.617Z</time>
      </trkpt>
      <trkpt lat="48.86932" lon="2.29021">
        <ele>120.4</ele>
        <time>2015-01-05T20:28:33.643Z</time>
      </trkpt>
      <trkpt lat="48.86928" lon="2.29018">
        <ele>120.5</ele>
        <time>2015-01-05T20:28:34.692Z</time>
      </trkpt>
      <trkpt lat="48.86924" lon="2.29014">
        <ele>120.9</ele>
        <time>2015-01-05T20:28:35.580Z</time>
      </trkpt>
      <trkpt lat="48.86921" lon="2.29009">
        <ele>121</ele>
        <time>2015-01-05T20:28:36.558Z</time>
      </trkpt>
      <trkpt lat="48.86915" lon="2.29001">
        <ele>122.2</ele>
        <time>2015-01-05T20:28:38.643Z</time>
      </trkpt>
      <trkpt lat="48.86914" lon="2.28999">
        <ele>122.8</ele>
        <time>2015-01-05T20:28:39.644Z</time>
      </trkpt>
      <trkpt lat="48.8691" lon="2.28994">
        <ele>124.8</ele>
        <time>2015-01-05T20:28:43.678Z</time>
      </trkpt>
      <trkpt lat="48.86908" lon="2.28988">
        <ele>126.5</ele>
        <time>2015-01-05T20:28:44.698Z</time>
      </trkpt>
      <trkpt lat="48.86902" lon="2.2898">
        <ele>128.9</ele>
        <time>2015-01-05T20:29:09.713Z</time>
      </trkpt>
      <trkpt lat="48.86899" lon="2.28979">
        <ele>129</ele>
        <time>2015-01-05T20:29:10.582Z</time>
      </trkpt>
      <trkpt lat="48.86893" lon="2.28977">
        <ele>129</ele>
        <time>2015-01-05T20:29:12.661Z</time>
      </trkpt>
      <trkpt lat="48.8689" lon="2.28975">
        <ele>129.1</ele>
        <time>2015-01-05T20:29:13.669Z</time>
      </trkpt>
      <trkpt lat="48.86884" lon="2.2897">
        <ele>129.3</ele>
        <time>2015-01-05T20:29:15.605Z</time>
      </trkpt>
      <trkpt lat="48.86881" lon="2.28965">
        <ele>128.9</ele>
        <time>2015-01-05T20:29:16.617Z</time>
      </trkpt>
      <trkpt lat="48.86873" lon="2.2896">
        <ele>128.5</ele>
        <time>2015-01-05T20:29:18.650Z</time>
      </trkpt>
      <trkpt lat="48.8687" lon="2.28957">
        <ele>128.5</ele>
        <time>2015-01-05T20:29:19.670Z</time>
      </trkpt>
      <trkpt lat="48.86865" lon="2.2895">
        <ele>128.8</ele>
        <time>2015-01-05T20:29:21.572Z</time>
      </trkpt>
      <trkpt lat="48.86861" lon="2.28947">
        <ele>128.9</ele>
        <time>2015-01-05T20:29:22.598Z</time>
      </trkpt>
      <trkpt lat="48.86857" lon="2.28945">
        <ele>128.9</ele>
        <time>2015-01-05T20:29:23.621Z</time>
      </trkpt>
      <trkpt lat="48.8685" lon="2.28942">
        <ele>128.9</ele>
        <time>2015-01-05T20:29:25.697Z</time>
      </trkpt>
      <trkpt lat="48.86844" lon="2.28936">
        <ele>129.1</ele>
        <time>2015-01-05T20:29:27.619Z</time>
      </trkpt>
      <trkpt lat="48.86841" lon="2.28932">
        <ele>129.1</ele>
        <time>2015-01-05T20:29:28.640Z</time>
      </trkpt>
      <trkpt lat="48.86838" lon="2.28923">
        <ele>129</ele>
        <time>2015-01-05T20:29:30.570Z</time>
      </trkpt>
      <trkpt lat="48.86838" lon="2.28919">
        <ele>129.1</ele>
        <time>2015-01-05T20:29:31.588Z</time>
      </trkpt>
      <trkpt lat="48.86833" lon="2.28908">
        <ele>129</ele>
        <time>2015-01-05T20:29:33.627Z</time>
      </trkpt>
      <trkpt lat="48.8683" lon="2.28904">
        <ele>129</ele>
        <time>2015-01-05T20:29:34.637Z</time>
      </trkpt>
      <trkpt lat="48.86825" lon="2.28897">
        <ele>129.3</ele>
        <time>2015-01-05T20:29:37.588Z</time>
      </trkpt>
      <trkpt lat="48.86822" lon="2.28895">
        <ele>129.4</ele>
        <time>2015-01-05T20:29:38.604Z</time>
      </trkpt>
      <trkpt lat="48.86815" lon="2.28892">
        <ele>129.3</ele>
        <time>2015-01-05T20:29:40.538Z</time>
      </trkpt>
      <trkpt lat="48.8681" lon="2.28889">
        <ele>129.2</ele>
        <time>2015-01-05T20:29:41.548Z</time>
      </trkpt>
      <trkpt lat="48.86805" lon="2.28887">
        <ele>129</ele>
        <time>2015-01-05T20:29:42.553Z</time>
      </trkpt>
      <trkpt lat="48.86801" lon="2.28883">
        <ele>128.9</ele>
        <time>2015-01-05T20:29:43.577Z</time>
      </trkpt>
      <trkpt lat="48.86797" lon="2.28878">
        <ele>128.9</ele>
        <time>2015-01-05T20:29:44.573Z</time>
      </trkpt>
      <trkpt lat="48.86793" lon="2.28874">
        <ele>128.8</ele>
        <time>2015-01-05T20:29:45.548Z</time>
      </trkpt>
      <trkpt lat="48.86789" lon="2.28868">
        <ele>128.7</ele>
        <time>2015-01-05T20:29:46.578Z</time>
      </trkpt>
      <trkpt lat="48.86785" lon="2.28861">
        <ele>129.7</ele>
        <time>2015-01-05T20:29:47.591Z</time>
      </trkpt>
      <trkpt lat="48.8678" lon="2.28852">
        <ele>130.5</ele>
        <time>2015-01-05T20:29:48.637Z</time>
      </trkpt>
      <trkpt lat="48.86776" lon="2.28847">
        <ele>130.7</ele>
        <time>2015-01-05T20:29:49.650Z</time>
      </trkpt>
      <trkpt lat="48.86772" lon="2.28842">
        <ele>130.5</ele>
        <time>2015-01-05T20:29:50.675Z</time>
      </trkpt>
      <trkpt lat="48.86769" lon="2.28837">
        <ele>130.2</ele>
        <time>2015-01-05T20:29:51.585Z</time>
      </trkpt>
      <trkpt lat="48.86766" lon="2.28832">
        <ele>130</ele>
        <time>2015-01-05T20:29:52.597Z</time>
      </trkpt>
      <trkpt lat="48.86754" lon="2.28804">
        <ele>128.6</ele>
        <time>2015-01-05T20:29:57.590Z</time>
      </trkpt>
      <trkpt lat="48.86736" lon="2.2879">
        <ele>128.3</ele>
        <time>2015-01-05T20:30:02.725Z</time>
      </trkpt>
      <trkpt lat="48.8673" lon="2.28784">
        <ele>128.5</ele>
        <time>2015-01-05T20:30:04.627Z</time>
      </trkpt>
      <trkpt lat="48.86726" lon="2.2878">
        <ele>128.7</ele>
        <time>2015-01-05T20:30:05.539Z</time>
      </trkpt>
      <trkpt lat="48.86722" lon="2.28776">
        <ele>129</ele>
        <time>2015-01-05T20:30:06.578Z</time>
      </trkpt>
      <trkpt lat="48.86717" lon="2.2877">
        <ele>129.4</ele>
        <time>2015-01-05T20:30:07.614Z</time>
      </trkpt>
      <trkpt lat="48.86711" lon="2.28762">
        <ele>129.2</ele>
        <time>2015-01-05T20:30:09.635Z</time>
      </trkpt>
      <trkpt lat="48.86709" lon="2.28758">
        <ele>129</ele>
        <time>2015-01-05T20:30:10.645Z</time>
      </trkpt>
      <trkpt lat="48.86706" lon="2.28752">
        <ele>129.1</ele>
        <time>2015-01-05T20:30:11.536Z</time>
      </trkpt>
      <trkpt lat="48.86702" lon="2.28748">
        <ele>129</ele>
        <time>2015-01-05T20:30:12.558Z</time>
      </trkpt>
      <trkpt lat="48.86695" lon="2.28743">
        <ele>129</ele>
        <time>2015-01-05T20:30:14.587Z</time>
      </trkpt>
      <trkpt lat="48.86692" lon="2.28739">
        <ele>129</ele>
        <time>2015-01-05T20:30:15.608Z</time>
      </trkpt>
      <trkpt lat="48.86688" lon="2.28737">
        <ele>129.2</ele>
        <time>2015-01-05T20:30:16.570Z</time>
      </trkpt>
      <trkpt lat="48.86684" lon="2.28733">
        <ele>129.2</ele>
        <time>2015-01-05T20:30:17.595Z</time>
      </trkpt>
      <trkpt lat="48.86679" lon="2.28731">
        <ele>129.6</ele>
        <time>2015-01-05T20:30:18.562Z</time>
      </trkpt>
      <trkpt lat="48.86675" lon="2.2873">
        <ele>130</ele>
        <time>2015-01-05T20:30:19.568Z</time>
      </trkpt>
      <trkpt lat="48.86667" lon="2.28724">
        <ele>130</ele>
        <time>2015-01-05T20:30:21.596Z</time>
      </trkpt>
      <trkpt lat="48.86664" lon="2.2872">
        <ele>130</ele>
        <time>2015-01-05T20:30:22.605Z</time>
      </trkpt>
      <trkpt lat="48.86661" lon="2.28714">
        <ele>129.7</ele>
        <time>2015-01-05T20:30:23.560Z</time>
      </trkpt>
      <trkpt lat="48.8666" lon="2.28705">
        <ele>129.2</ele>
        <time>2015-01-05T20:30:24.560Z</time>
      </trkpt>
      <trkpt lat="48.86657" lon="2.28701">
        <ele>129.3</ele>
        <time>2015-01-05T20:30:25.571Z</time>
      </trkpt>
      <trkpt lat="48.86653" lon="2.28695">
        <ele>129</ele>
        <time>2015-01-05T20:30:26.589Z</time>
      </trkpt>
      <trkpt lat="48.86649" lon="2.2869">
        <ele>128.9</ele>
        <time>2015-01-05T20:30:27.595Z</time>
      </trkpt>
      <trkpt lat="48.86645" lon="2.28686">
        <ele>128.6</ele>
        <time>2015-01-05T20:30:28.611Z</time>
      </trkpt>
      <trkpt lat="48.86641" lon="2.28683">
        <ele>128.2</ele>
        <time>2015-01-05T20:30:29.650Z</time>
      </trkpt>
      <trkpt lat="48.86637" lon="2.2868">
        <ele>127.6</ele>
        <time>2015-01-05T20:30:30.557Z</time>
      </trkpt>
      <trkpt lat="48.86629" lon="2.28674">
        <ele>127</ele>
        <time>2015-01-05T20:30:32.591Z</time>
      </trkpt>
      <trkpt lat="48.86626" lon="2.28671">
        <ele>126.7</ele>
        <time>2015-01-05T20:30:33.607Z</time>
      </trkpt>
      <trkpt lat="48.86624" lon="2.28662">
        <ele>126</ele>
        <time>2015-01-05T20:30:35.634Z</time>
      </trkpt>
      <trkpt lat="48.86623" lon="2.28655">
        <ele>125.6</ele>
        <time>2015-01-05T20:30:36.696Z</time>
      </trkpt>
      <trkpt lat="48.86619" lon="2.28644">
        <ele>125.7</ele>
        <time>2015-01-05T20:30:39.607Z</time>
      </trkpt>
      <trkpt lat="48.86618" lon="2.28641">
        <ele>126</ele>
        <time>2015-01-05T20:30:40.662Z</time>
      </trkpt>
      <trkpt lat="48.86615" lon="2.28631">
        <ele>128.3</ele>
        <time>2015-01-05T20:30:43.594Z</time>
      </trkpt>
      <trkpt lat="48.86612" lon="2.28629">
        <ele>129.1</ele>
        <time>2015-01-05T20:30:44.626Z</time>
      </trkpt>
      <trkpt lat="48.86605" lon="2.28623">
        <ele>129.1</ele>
        <time>2015-01-05T20:30:47.673Z</time>
      </trkpt>
      <trkpt lat="48.86602" lon="2.28623">
        <ele>129</ele>
        <time>2015-01-05T20:30:48.589Z</time>
      </trkpt>
      <trkpt lat="48.86594" lon="2.28618">
        <ele>129</ele>
        <time>2015-01-05T20:30:51.635Z</time>
      </trkpt>
      <trkpt lat="48.8659" lon="2.28613">
        <ele>129</ele>
        <time>2015-01-05T20:30:52.641Z</time>
      </trkpt>
      <trkpt lat="48.86587" lon="2.28608">
        <ele>129.2</ele>
        <time>2015-01-05T20:30:53.677Z</time>
      </trkpt>
      <trkpt lat="48.86583" lon="2.28603">
        <ele>129.4</ele>
        <time>2015-01-05T20:30:54.586Z</time>
      </trkpt>
      <trkpt lat="48.86576" lon="2.28598">
        <ele>130.2</ele>
        <time>2015-01-05T20:30:56.636Z</time>
      </trkpt>
      <trkpt lat="48.86573" lon="2.28595">
        <ele>130.5</ele>
        <time>2015-01-05T20:30:57.632Z</time>
      </trkpt>
      <trkpt lat="48.86568" lon="2.28585">
        <ele>131</ele>
        <time>2015-01-05T20:30:59.657Z</time>
      </trkpt>
      <trkpt lat="48.86565" lon="2.28581">
        <ele>131</ele>
        <time>2015-01-05T20:31:00.590Z</time>
      </trkpt>
      <trkpt lat="48.86561" lon="2.28572">
        <ele>131.5</ele>
        <time>2015-01-05T20:31:02.644Z</time>
      </trkpt>
      <trkpt lat="48.86559" lon="2.28567">
        <ele>131.8</ele>
        <time>2015-01-05T20:31:03.673Z</time>
      </trkpt>
      <trkpt lat="48.86555" lon="2.28558">
        <ele>132.2</ele>
        <time>2015-01-05T20:31:05.606Z</time>
      </trkpt>
      <trkpt lat="48.86552" lon="2.28555">
        <ele>132.5</ele>
        <time>2015-01-05T20:31:06.618Z</time>
      </trkpt>
      <trkpt lat="48.86544" lon="2.28556">
        <ele>131.7</ele>
        <time>2015-01-05T20:31:09.663Z</time>
      </trkpt>
      <trkpt lat="48.86541" lon="2.28556">
        <ele>131.9</ele>
        <time>2015-01-05T20:31:10.680Z</time>
      </trkpt>
      <trkpt lat="48.86534" lon="2.28555">
        <ele>132.1</ele>
        <time>2015-01-05T20:31:12.594Z</time>
      </trkpt>
      <trkpt lat="48.86531" lon="2.28554">
        <ele>132.4</ele>
        <time>2015-01-05T20:31:13.606Z</time>
      </trkpt>
      <trkpt lat="48.86525" lon="2.28551">
        <ele>132.6</ele>
        <time>2015-01-05T20:31:16.663Z</time>
      </trkpt>
      <trkpt lat="48.86522" lon="2.2855">
        <ele>132.9</ele>
        <time>2015-01-05T20:31:17.677Z</time>
      </trkpt>
      <trkpt lat="48.86527" lon="2.28539">
        <ele>140.6</ele>
        <time>2015-01-05T20:31:36.593Z</time>
      </trkpt>
      <trkpt lat="48.86529" lon="2.28533">
        <ele>140.2</ele>
        <time>2015-01-05T20:31:37.598Z</time>
      </trkpt>
      <trkpt lat="48.8653" lon="2.2852">
        <ele>138.7</ele>
        <time>2015-01-05T20:31:39.714Z</time>
      </trkpt>
      <trkpt lat="48.86531" lon="2.28515">
        <ele>138</ele>
        <time>2015-01-05T20:31:40.576Z</time>
      </trkpt>
      <trkpt lat="48.86533" lon="2.28503">
        <ele>137.6</ele>
        <time>2015-01-05T20:31:42.619Z</time>
      </trkpt>
      <trkpt lat="48.86534" lon="2.28497">
        <ele>137.2</ele>
        <time>2015-01-05T20:31:43.673Z</time>
      </trkpt>
      <trkpt lat="48.86535" lon="2.28484">
        <ele>136.1</ele>
        <time>2015-01-05T20:31:45.567Z</time>
      </trkpt>
      <trkpt lat="48.86535" lon="2.28475">
        <ele>135.4</ele>
        <time>2015-01-05T20:31:46.588Z</time>
      </trkpt>
      <trkpt lat="48.86535" lon="2.28467">
        <ele>134.7</ele>
        <time>2015-01-05T20:31:47.619Z</time>
      </trkpt>
      <trkpt lat="48.86535" lon="2.28461">
        <ele>134.8</ele>
        <time>2015-01-05T20:31:48.629Z</time>
      </trkpt>
      <trkpt lat="48.86535" lon="2.28453">
        <ele>134.4</ele>
        <time>2015-01-05T20:31:49.545Z</time>
      </trkpt>
      <trkpt lat="48.86535" lon="2.28447">
        <ele>134.2</ele>
        <time>2015-01-05T20:31:50.599Z</time>
      </trkpt>
      <trkpt lat="48.86534" lon="2.28435">
        <ele>133.5</ele>
        <time>2015-01-05T20:31:52.619Z</time>
      </trkpt>
      <trkpt lat="48.86534" lon="2.28429">
        <ele>133.6</ele>
        <time>2015-01-05T20:31:53.626Z</time>
      </trkpt>
      <trkpt lat="48.86535" lon="2.2842">
        <ele>133.7</ele>
        <time>2015-01-05T20:31:55.564Z</time>
      </trkpt>
      <trkpt lat="48.86536" lon="2.28415">
        <ele>133.8</ele>
        <time>2015-01-05T20:31:56.599Z</time>
      </trkpt>
      <trkpt lat="48.86538" lon="2.2841">
        <ele>133.6</ele>
        <time>2015-01-05T20:31:57.641Z</time>
      </trkpt>
      <trkpt lat="48.8654" lon="2.28402">
        <ele>132.9</ele>
        <time>2015-01-05T20:31:58.648Z</time>
      </trkpt>
      <trkpt lat="48.8654" lon="2.28395">
        <ele>132.2</ele>
        <time>2015-01-05T20:31:59.546Z</time>
      </trkpt>
      <trkpt lat="48.86541" lon="2.28388">
        <ele>131.7</ele>
        <time>2015-01-05T20:32:00.564Z</time>
      </trkpt>
      <trkpt lat="48.86542" lon="2.28376">
        <ele>131.2</ele>
        <time>2015-01-05T20:32:02.637Z</time>
      </trkpt>
      <trkpt lat="48.86543" lon="2.2837">
        <ele>130.8</ele>
        <time>2015-01-05T20:32:03.680Z</time>
      </trkpt>
      <trkpt lat="48.86543" lon="2.28357">
        <ele>130.5</ele>
        <time>2015-01-05T20:32:05.581Z</time>
      </trkpt>
      <trkpt lat="48.86546" lon="2.28349">
        <ele>130.1</ele>
        <time>2015-01-05T20:32:06.606Z</time>
      </trkpt>
      <trkpt lat="48.86547" lon="2.28342">
        <ele>129.8</ele>
        <time>2015-01-05T20:32:07.563Z</time>
      </trkpt>
      <trkpt lat="48.86547" lon="2.28336">
        <ele>130.4</ele>
        <time>2015-01-05T20:32:08.591Z</time>
      </trkpt>
      <trkpt lat="48.86549" lon="2.28326">
        <ele>131.3</ele>
        <time>2015-01-05T20:32:10.630Z</time>
      </trkpt>
      <trkpt lat="48.8655" lon="2.2832">
        <ele>131.7</ele>
        <time>2015-01-05T20:32:11.667Z</time>
      </trkpt>
      <trkpt lat="48.86552" lon="2.2831">
        <ele>132.4</ele>
        <time>2015-01-05T20:32:13.618Z</time>
      </trkpt>
      <trkpt lat="48.86552" lon="2.28306">
        <ele>132.5</ele>
        <time>2015-01-05T20:32:14.624Z</time>
      </trkpt>
      <trkpt lat="48.86546" lon="2.28311">
        <ele>131.8</ele>
        <time>2015-01-05T20:32:27.656Z</time>
      </trkpt>
      <trkpt lat="48.86538" lon="2.283">
        <ele>131.8</ele>
        <time>2015-01-05T20:32:28.697Z</time>
      </trkpt>
      <trkpt lat="48.86537" lon="2.28293">
        <ele>131.7</ele>
        <time>2015-01-05T20:32:31.655Z</time>
      </trkpt>
      <trkpt lat="48.86534" lon="2.28288">
        <ele>131.7</ele>
        <time>2015-01-05T20:32:32.725Z</time>
      </trkpt>
      <trkpt lat="48.8653" lon="2.2828">
        <ele>131.7</ele>
        <time>2015-01-05T20:32:34.634Z</time>
      </trkpt>
      <trkpt lat="48.86528" lon="2.28276">
        <ele>131.7</ele>
        <time>2015-01-05T20:32:35.646Z</time>
      </trkpt>
      <trkpt lat="48.86524" lon="2.28267">
        <ele>131.5</ele>
        <time>2015-01-05T20:32:37.563Z</time>
      </trkpt>
      <trkpt lat="48.86522" lon="2.28263">
        <ele>131.1</ele>
        <time>2015-01-05T20:32:38.727Z</time>
      </trkpt>
      <trkpt lat="48.86517" lon="2.28255">
        <ele>130.4</ele>
        <time>2015-01-05T20:32:40.571Z</time>
      </trkpt>
      <trkpt lat="48.86515" lon="2.28251">
        <ele>130</ele>
        <time>2015-01-05T20:32:41.580Z</time>
      </trkpt>
      <trkpt lat="48.86511" lon="2.2824">
        <ele>129.8</ele>
        <time>2015-01-05T20:32:43.567Z</time>
      </trkpt>
      <trkpt lat="48.86509" lon="2.28235">
        <ele>129.4</ele>
        <time>2015-01-05T20:32:44.655Z</time>
      </trkpt>
      <trkpt lat="48.86505" lon="2.28226">
        <ele>129</ele>
        <time>2015-01-05T20:32:46.573Z</time>
      </trkpt>
      <trkpt lat="48.86503" lon="2.28222">
        <ele>128.9</ele>
        <time>2015-01-05T20:32:47.607Z</time>
      </trkpt>
      <trkpt lat="48.865" lon="2.2821">
        <ele>128.7</ele>
        <time>2015-01-05T20:32:49.559Z</time>
      </trkpt>
      <trkpt lat="48.86499" lon="2.28205">
        <ele>128.7</ele>
        <time>2015-01-05T20:32:50.668Z</time>
      </trkpt>
      <trkpt lat="48.86496" lon="2.28197">
        <ele>128.8</ele>
        <time>2015-01-05T20:32:52.561Z</time>
      </trkpt>
      <trkpt lat="48.86494" lon="2.28192">
        <ele>128.8</ele>
        <time>2015-01-05T20:32:53.549Z</time>
      </trkpt>
      <trkpt lat="48.86492" lon="2.28182">
        <ele>128.4</ele>
        <time>2015-01-05T20:32:55.560Z</time>
      </trkpt>
      <trkpt lat="48.8649" lon="2.28178">
        <ele>128.1</ele>
        <time>2015-01-05T20:32:56.632Z</time>
      </trkpt>
      <trkpt lat="48.86487" lon="2.28174">
        <ele>127.8</ele>
        <time>2015-01-05T20:32:57.645Z</time>
      </trkpt>
      <trkpt lat="48.86488" lon="2.28165">
        <ele>126.8</ele>
        <time>2015-01-05T20:32:58.738Z</time>
      </trkpt>
      <trkpt lat="48.86487" lon="2.28156">
        <ele>125.9</ele>
        <time>2015-01-05T20:33:00.273Z</time>
      </trkpt>
      <trkpt lat="48.86485" lon="2.2815">
        <ele>125.7</ele>
        <time>2015-01-05T20:33:00.576Z</time>
      </trkpt>
      <trkpt lat="48.86483" lon="2.28144">
        <ele>125.4</ele>
        <time>2015-01-05T20:33:01.593Z</time>
      </trkpt>
      <trkpt lat="48.8648" lon="2.28138">
        <ele>125.2</ele>
        <time>2015-01-05T20:33:02.600Z</time>
      </trkpt>
      <trkpt lat="48.86477" lon="2.28129">
        <ele>124.4</ele>
        <time>2015-01-05T20:33:04.613Z</time>
      </trkpt>
      <trkpt lat="48.86475" lon="2.28126">
        <ele>124.2</ele>
        <time>2015-01-05T20:33:05.541Z</time>
      </trkpt>
      <trkpt lat="48.86471" lon="2.28117">
        <ele>123.5</ele>
        <time>2015-01-05T20:33:07.636Z</time>
      </trkpt>
      <trkpt lat="48.86469" lon="2.28112">
        <ele>123.2</ele>
        <time>2015-01-05T20:33:08.663Z</time>
      </trkpt>
      <trkpt lat="48.86464" lon="2.28103">
        <ele>121.9</ele>
        <time>2015-01-05T20:33:10.552Z</time>
      </trkpt>
      <trkpt lat="48.86462" lon="2.28098">
        <ele>121.2</ele>
        <time>2015-01-05T20:33:11.601Z</time>
      </trkpt>
      <trkpt lat="48.86457" lon="2.28087">
        <ele>119.5</ele>
        <time>2015-01-05T20:33:13.592Z</time>
      </trkpt>
      <trkpt lat="48.86455" lon="2.28081">
        <ele>119.3</ele>
        <time>2015-01-05T20:33:14.623Z</time>
      </trkpt>
      <trkpt lat="48.8645" lon="2.28072">
        <ele>119.6</ele>
        <time>2015-01-05T20:33:16.570Z</time>
      </trkpt>
      <trkpt lat="48.86448" lon="2.28067">
        <ele>119.4</ele>
        <time>2015-01-05T20:33:17.571Z</time>
      </trkpt>
      <trkpt lat="48.86444" lon="2.28057">
        <ele>118.5</ele>
        <time>2015-01-05T20:33:20.658Z</time>
      </trkpt>
      <trkpt lat="48.8644" lon="2.28052">
        <ele>118.1</ele>
        <time>2015-01-05T20:33:20.708Z</time>
      </trkpt>
      <trkpt lat="48.86437" lon="2.28047">
        <ele>117.9</ele>
        <time>2015-01-05T20:33:21.566Z</time>
      </trkpt>
      <trkpt lat="48.86435" lon="2.28041">
        <ele>118.1</ele>
        <time>2015-01-05T20:33:22.564Z</time>
      </trkpt>
      <trkpt lat="48.86431" lon="2.28029">
        <ele>117.8</ele>
        <time>2015-01-05T20:33:24.574Z</time>
      </trkpt>
      <trkpt lat="48.86429" lon="2.28024">
        <ele>117.4</ele>
        <time>2015-01-05T20:33:25.591Z</time>
      </trkpt>
      <trkpt lat="48.86425" lon="2.28012">
        <ele>116.7</ele>
        <time>2015-01-05T20:33:27.846Z</time>
      </trkpt>
      <trkpt lat="48.86422" lon="2.28007">
        <ele>116.1</ele>
        <time>2015-01-05T20:33:28.689Z</time>
      </trkpt>
      <trkpt lat="48.86419" lon="2.28002">
        <ele>115.8</ele>
        <time>2015-01-05T20:33:29.533Z</time>
      </trkpt>
      <trkpt lat="48.86417" lon="2.27996">
        <ele>115.7</ele>
        <time>2015-01-05T20:33:30.561Z</time>
      </trkpt>
      <trkpt lat="48.86415" lon="2.27989">
        <ele>116.1</ele>
        <time>2015-01-05T20:33:31.681Z</time>
      </trkpt>
      <trkpt lat="48.86412" lon="2.27983">
        <ele>115.7</ele>
        <time>2015-01-05T20:33:32.706Z</time>
      </trkpt>
      <trkpt lat="48.86407" lon="2.27973">
        <ele>114.7</ele>
        <time>2015-01-05T20:33:34.561Z</time>
      </trkpt>
      <trkpt lat="48.86405" lon="2.27966">
        <ele>114.2</ele>
        <time>2015-01-05T20:33:35.579Z</time>
      </trkpt>
      <trkpt lat="48.864" lon="2.27955">
        <ele>113.1</ele>
        <time>2015-01-05T20:33:37.627Z</time>
      </trkpt>
      <trkpt lat="48.86397" lon="2.27953">
        <ele>113.1</ele>
        <time>2015-01-05T20:33:38.638Z</time>
      </trkpt>
      <trkpt lat="48.86391" lon="2.27949">
        <ele>113.2</ele>
        <time>2015-01-05T20:33:40.596Z</time>
      </trkpt>
      <trkpt lat="48.86388" lon="2.27947">
        <ele>112.6</ele>
        <time>2015-01-05T20:33:41.624Z</time>
      </trkpt>
      <trkpt lat="48.86387" lon="2.27936">
        <ele>111.8</ele>
        <time>2015-01-05T20:33:43.588Z</time>
      </trkpt>
      <trkpt lat="48.86387" lon="2.2793">
        <ele>111.9</ele>
        <time>2015-01-05T20:33:44.599Z</time>
      </trkpt>
      <trkpt lat="48.86388" lon="2.27917">
        <ele>112</ele>
        <time>2015-01-05T20:33:46.567Z</time>
      </trkpt>
      <trkpt lat="48.86389" lon="2.27909">
        <ele>112</ele>
        <time>2015-01-05T20:33:47.595Z</time>
      </trkpt>
      <trkpt lat="48.86389" lon="2.27902">
        <ele>112.1</ele>
        <time>2015-01-05T20:33:48.628Z</time>
      </trkpt>
      <trkpt lat="48.86389" lon="2.27894">
        <ele>112.2</ele>
        <time>2015-01-05T20:33:49.620Z</time>
      </trkpt>
      <trkpt lat="48.8639" lon="2.27887">
        <ele>112.2</ele>
        <time>2015-01-05T20:33:50.652Z</time>
      </trkpt>
      <trkpt lat="48.86391" lon="2.27879">
        <ele>112.6</ele>
        <time>2015-01-05T20:33:51.642Z</time>
      </trkpt>
      <trkpt lat="48.86392" lon="2.27872">
        <ele>112.4</ele>
        <time>2015-01-05T20:33:52.659Z</time>
      </trkpt>
      <trkpt lat="48.86392" lon="2.27864">
        <ele>112.4</ele>
        <time>2015-01-05T20:33:53.750Z</time>
      </trkpt>
      <trkpt lat="48.86393" lon="2.27856">
        <ele>112.5</ele>
        <time>2015-01-05T20:33:54.669Z</time>
      </trkpt>
      <trkpt lat="48.86393" lon="2.27848">
        <ele>112.6</ele>
        <time>2015-01-05T20:33:55.575Z</time>
      </trkpt>
      <trkpt lat="48.86394" lon="2.2784">
        <ele>112.7</ele>
        <time>2015-01-05T20:33:56.633Z</time>
      </trkpt>
      <trkpt lat="48.86395" lon="2.27832">
        <ele>113</ele>
        <time>2015-01-05T20:33:57.669Z</time>
      </trkpt>
      <trkpt lat="48.86396" lon="2.27825">
        <ele>113.4</ele>
        <time>2015-01-05T20:33:58.582Z</time>
      </trkpt>
      <trkpt lat="48.86397" lon="2.27818">
        <ele>113.9</ele>
        <time>2015-01-05T20:33:59.586Z</time>
      </trkpt>
      <trkpt lat="48.86399" lon="2.27812">
        <ele>114.4</ele>
        <time>2015-01-05T20:34:00.616Z</time>
      </trkpt>
      <trkpt lat="48.864" lon="2.27804">
        <ele>114.8</ele>
        <time>2015-01-05T20:34:01.623Z</time>
      </trkpt>
      <trkpt lat="48.86401" lon="2.27797">
        <ele>115.2</ele>
        <time>2015-01-05T20:34:02.625Z</time>
      </trkpt>
      <trkpt lat="48.86401" lon="2.27789">
        <ele>115.7</ele>
        <time>2015-01-05T20:34:03.629Z</time>
      </trkpt>
      <trkpt lat="48.86401" lon="2.27778">
        <ele>116</ele>
        <time>2015-01-05T20:34:05.644Z</time>
      </trkpt>
      <trkpt lat="48.86402" lon="2.27772">
        <ele>116</ele>
        <time>2015-01-05T20:34:06.655Z</time>
      </trkpt>
      <trkpt lat="48.86404" lon="2.27763">
        <ele>116.3</ele>
        <time>2015-01-05T20:34:08.611Z</time>
      </trkpt>
      <trkpt lat="48.86405" lon="2.27758">
        <ele>116</ele>
        <time>2015-01-05T20:34:09.622Z</time>
      </trkpt>
      <trkpt lat="48.86403" lon="2.27747">
        <ele>114.1</ele>
        <time>2015-01-05T20:34:12.588Z</time>
      </trkpt>
      <trkpt lat="48.86402" lon="2.27744">
        <ele>113.8</ele>
        <time>2015-01-05T20:34:13.590Z</time>
      </trkpt>
      <trkpt lat="48.86397" lon="2.27735">
        <ele>113</ele>
        <time>2015-01-05T20:34:16.680Z</time>
      </trkpt>
      <trkpt lat="48.86395" lon="2.27732">
        <ele>112.4</ele>
        <time>2015-01-05T20:34:17.591Z</time>
      </trkpt>
      <trkpt lat="48.8639" lon="2.27724">
        <ele>111.7</ele>
        <time>2015-01-05T20:34:20.684Z</time>
      </trkpt>
      <trkpt lat="48.86387" lon="2.27722">
        <ele>111.9</ele>
        <time>2015-01-05T20:34:21.638Z</time>
      </trkpt>
      <trkpt lat="48.86382" lon="2.27717">
        <ele>111.5</ele>
        <time>2015-01-05T20:34:23.587Z</time>
      </trkpt>
      <trkpt lat="48.86379" lon="2.27714">
        <ele>111.3</ele>
        <time>2015-01-05T20:34:24.600Z</time>
      </trkpt>
      <trkpt lat="48.86372" lon="2.27709">
        <ele>111.1</ele>
        <time>2015-01-05T20:34:26.628Z</time>
      </trkpt>
      <trkpt lat="48.86369" lon="2.27707">
        <ele>111</ele>
        <time>2015-01-05T20:34:27.626Z</time>
      </trkpt>
      <trkpt lat="48.86361" lon="2.27701">
        <ele>110.9</ele>
        <time>2015-01-05T20:34:29.554Z</time>
      </trkpt>
      <trkpt lat="48.86357" lon="2.27697">
        <ele>110.7</ele>
        <time>2015-01-05T20:34:30.592Z</time>
      </trkpt>
      <trkpt lat="48.86353" lon="2.27694">
        <ele>110.7</ele>
        <time>2015-01-05T20:34:31.650Z</time>
      </trkpt>
      <trkpt lat="48.86349" lon="2.2769">
        <ele>110.7</ele>
        <time>2015-01-05T20:34:32.654Z</time>
      </trkpt>
      <trkpt lat="48.86344" lon="2.27686">
        <ele>110.6</ele>
        <time>2015-01-05T20:34:33.574Z</time>
      </trkpt>
      <trkpt lat="48.8634" lon="2.27682">
        <ele>110.4</ele>
        <time>2015-01-05T20:34:34.573Z</time>
      </trkpt>
      <trkpt lat="48.86333" lon="2.27676">
        <ele>110.4</ele>
        <time>2015-01-05T20:34:36.578Z</time>
      </trkpt>
      <trkpt lat="48.8633" lon="2.27673">
        <ele>110.3</ele>
        <time>2015-01-05T20:34:37.600Z</time>
      </trkpt>
      <trkpt lat="48.86323" lon="2.27669">
        <ele>110.4</ele>
        <time>2015-01-05T20:34:39.643Z</time>
      </trkpt>
      <trkpt lat="48.86319" lon="2.27666">
        <ele>110.4</ele>
        <time>2015-01-05T20:34:40.657Z</time>
      </trkpt>
      <trkpt lat="48.86311" lon="2.27661">
        <ele>110.1</ele>
        <time>2015-01-05T20:34:42.567Z</time>
      </trkpt>
      <trkpt lat="48.86308" lon="2.2766">
        <ele>110</ele>
        <time>2015-01-05T20:34:43.578Z</time>
      </trkpt>
      <trkpt lat="48.86302" lon="2.27656">
        <ele>109.6</ele>
        <time>2015-01-05T20:34:45.616Z</time>
      </trkpt>
      <trkpt lat="48.86297" lon="2.27654">
        <ele>109.6</ele>
        <time>2015-01-05T20:34:46.629Z</time>
      </trkpt>
      <trkpt lat="48.86289" lon="2.2765">
        <ele>109.4</ele>
        <time>2015-01-05T20:34:48.566Z</time>
      </trkpt>
      <trkpt lat="48.86285" lon="2.27648">
        <ele>109.6</ele>
        <time>2015-01-05T20:34:49.574Z</time>
      </trkpt>
      <trkpt lat="48.86279" lon="2.27644">
        <ele>110</ele>
        <time>2015-01-05T20:34:51.617Z</time>
      </trkpt>
      <trkpt lat="48.86277" lon="2.27644">
        <ele>109.9</ele>
        <time>2015-01-05T20:34:52.628Z</time>
      </trkpt>
      <trkpt lat="48.86269" lon="2.27639">
        <ele>111.5</ele>
        <time>2015-01-05T20:35:02.685Z</time>
      </trkpt>
      <trkpt lat="48.86267" lon="2.27636">
        <ele>111.7</ele>
        <time>2015-01-05T20:35:03.576Z</time>
      </trkpt>
      <trkpt lat="48.86261" lon="2.27631">
        <ele>112.1</ele>
        <time>2015-01-05T20:35:05.592Z</time>
      </trkpt>
      <trkpt lat="48.86258" lon="2.27629">
        <ele>112.2</ele>
        <time>2015-01-05T20:35:06.615Z</time>
      </trkpt>
      <trkpt lat="48.86251" lon="2.27624">
        <ele>112.4</ele>
        <time>2015-01-05T20:35:08.642Z</time>
      </trkpt>
      <trkpt lat="48.86247" lon="2.27623">
        <ele>112.9</ele>
        <time>2015-01-05T20:35:09.560Z</time>
      </trkpt>
      <trkpt lat="48.86239" lon="2.27621">
        <ele>113.1</ele>
        <time>2015-01-05T20:35:11.551Z</time>
      </trkpt>
      <trkpt lat="48.86235" lon="2.27618">
        <ele>113.1</ele>
        <time>2015-01-05T20:35:12.592Z</time>
      </trkpt>
      <trkpt lat="48.86227" lon="2.27612">
        <ele>113.3</ele>
        <time>2015-01-05T20:35:14.589Z</time>
      </trkpt>
      <trkpt lat="48.86224" lon="2.2761">
        <ele>113.6</ele>
        <time>2015-01-05T20:35:15.627Z</time>
      </trkpt>
      <trkpt lat="48.8622" lon="2.27608">
        <ele>113.7</ele>
        <time>2015-01-05T20:35:16.541Z</time>
      </trkpt>
      <trkpt lat="48.8621" lon="2.276">
        <ele>114.5</ele>
        <time>2015-01-05T20:35:19.575Z</time>
      </trkpt>
      <trkpt lat="48.86203" lon="2.27595">
        <ele>114.7</ele>
        <time>2015-01-05T20:35:21.535Z</time>
      </trkpt>
      <trkpt lat="48.862" lon="2.27592">
        <ele>114.9</ele>
        <time>2015-01-05T20:35:22.561Z</time>
      </trkpt>
      <trkpt lat="48.86194" lon="2.27588">
        <ele>115.2</ele>
        <time>2015-01-05T20:35:24.608Z</time>
      </trkpt>
      <trkpt lat="48.86191" lon="2.27585">
        <ele>115.2</ele>
        <time>2015-01-05T20:35:25.561Z</time>
      </trkpt>
      <trkpt lat="48.86185" lon="2.27582">
        <ele>115.5</ele>
        <time>2015-01-05T20:35:27.866Z</time>
      </trkpt>
      <trkpt lat="48.86181" lon="2.2758">
        <ele>115.7</ele>
        <time>2015-01-05T20:35:28.601Z</time>
      </trkpt>
      <trkpt lat="48.86177" lon="2.27576">
        <ele>116</ele>
        <time>2015-01-05T20:35:29.617Z</time>
      </trkpt>
      <trkpt lat="48.86172" lon="2.2757">
        <ele>116.5</ele>
        <time>2015-01-05T20:35:30.688Z</time>
      </trkpt>
      <trkpt lat="48.86166" lon="2.27565">
        <ele>117.1</ele>
        <time>2015-01-05T20:35:31.565Z</time>
      </trkpt>
      <trkpt lat="48.86161" lon="2.27561">
        <ele>117.2</ele>
        <time>2015-01-05T20:35:32.577Z</time>
      </trkpt>
      <trkpt lat="48.86157" lon="2.27559">
        <ele>117.7</ele>
        <time>2015-01-05T20:35:33.592Z</time>
      </trkpt>
      <trkpt lat="48.86152" lon="2.27556">
        <ele>118</ele>
        <time>2015-01-05T20:35:34.625Z</time>
      </trkpt>
      <trkpt lat="48.86148" lon="2.27553">
        <ele>118.1</ele>
        <time>2015-01-05T20:35:35.650Z</time>
      </trkpt>
      <trkpt lat="48.86143" lon="2.27551">
        <ele>118.5</ele>
        <time>2015-01-05T20:35:36.547Z</time>
      </trkpt>
      <trkpt lat="48.86138" lon="2.27549">
        <ele>119</ele>
        <time>2015-01-05T20:35:37.934Z</time>
      </trkpt>
      <trkpt lat="48.86133" lon="2.27546">
        <ele>119.8</ele>
        <time>2015-01-05T20:35:38.578Z</time>
      </trkpt>
      <trkpt lat="48.86128" lon="2.27543">
        <ele>120.7</ele>
        <time>2015-01-05T20:35:39.585Z</time>
      </trkpt>
      <trkpt lat="48.86124" lon="2.27541">
        <ele>121.6</ele>
        <time>2015-01-05T20:35:40.600Z</time>
      </trkpt>
      <trkpt lat="48.86119" lon="2.27537">
        <ele>122.1</ele>
        <time>2015-01-05T20:35:41.605Z</time>
      </trkpt>
      <trkpt lat="48.86116" lon="2.27534">
        <ele>122.5</ele>
        <time>2015-01-05T20:35:42.617Z</time>
      </trkpt>
      <trkpt lat="48.86109" lon="2.27528">
        <ele>123.4</ele>
        <time>2015-01-05T20:35:44.642Z</time>
      </trkpt>
      <trkpt lat="48.86104" lon="2.27524">
        <ele>123.9</ele>
        <time>2015-01-05T20:35:45.540Z</time>
      </trkpt>
      <trkpt lat="48.861" lon="2.2752">
        <ele>124.3</ele>
        <time>2015-01-05T20:35:46.566Z</time>
      </trkpt>
      <trkpt lat="48.86096" lon="2.27517">
        <ele>124.6</ele>
        <time>2015-01-05T20:35:47.587Z</time>
      </trkpt>
      <trkpt lat="48.86091" lon="2.27516">
        <ele>124.9</ele>
        <time>2015-01-05T20:35:48.596Z</time>
      </trkpt>
      <trkpt lat="48.86086" lon="2.27517">
        <ele>125.4</ele>
        <time>2015-01-05T20:35:49.607Z</time>
      </trkpt>
      <trkpt lat="48.86078" lon="2.27516">
        <ele>125.7</ele>
        <time>2015-01-05T20:35:51.634Z</time>
      </trkpt>
      <trkpt lat="48.86073" lon="2.27514">
        <ele>125.9</ele>
        <time>2015-01-05T20:35:52.654Z</time>
      </trkpt>
      <trkpt lat="48.86068" lon="2.2751">
        <ele>125.8</ele>
        <time>2015-01-05T20:35:53.571Z</time>
      </trkpt>
      <trkpt lat="48.86064" lon="2.27507">
        <ele>125.8</ele>
        <time>2015-01-05T20:35:54.556Z</time>
      </trkpt>
      <trkpt lat="48.86059" lon="2.27504">
        <ele>125.9</ele>
        <time>2015-01-05T20:35:55.597Z</time>
      </trkpt>
      <trkpt lat="48.86055" lon="2.27501">
        <ele>125.8</ele>
        <time>2015-01-05T20:35:56.602Z</time>
      </trkpt>
      <trkpt lat="48.86049" lon="2.275">
        <ele>125.2</ele>
        <time>2015-01-05T20:35:58.617Z</time>
      </trkpt>
      <trkpt lat="48.86045" lon="2.27501">
        <ele>125.3</ele>
        <time>2015-01-05T20:35:59.629Z</time>
      </trkpt>
      <trkpt lat="48.8604" lon="2.27502">
        <ele>125.2</ele>
        <time>2015-01-05T20:36:01.564Z</time>
      </trkpt>
      <trkpt lat="48.86036" lon="2.27503">
        <ele>125</ele>
        <time>2015-01-05T20:36:02.612Z</time>
      </trkpt>
      <trkpt lat="48.86032" lon="2.27505">
        <ele>125</ele>
        <time>2015-01-05T20:36:03.563Z</time>
      </trkpt>
      <trkpt lat="48.86027" lon="2.2751">
        <ele>124.9</ele>
        <time>2015-01-05T20:36:04.560Z</time>
      </trkpt>
      <trkpt lat="48.86024" lon="2.27515">
        <ele>125.2</ele>
        <time>2015-01-05T20:36:05.577Z</time>
      </trkpt>
      <trkpt lat="48.8602" lon="2.27518">
        <ele>125.8</ele>
        <time>2015-01-05T20:36:06.625Z</time>
      </trkpt>
      <trkpt lat="48.86014" lon="2.27519">
        <ele>126.1</ele>
        <time>2015-01-05T20:36:07.571Z</time>
      </trkpt>
      <trkpt lat="48.86009" lon="2.27521">
        <ele>127</ele>
        <time>2015-01-05T20:36:08.679Z</time>
      </trkpt>
      <trkpt lat="48.86004" lon="2.27524">
        <ele>127.8</ele>
        <time>2015-01-05T20:36:09.575Z</time>
      </trkpt>
      <trkpt lat="48.85998" lon="2.27532">
        <ele>129</ele>
        <time>2015-01-05T20:36:10.585Z</time>
      </trkpt>
      <trkpt lat="48.85993" lon="2.27538">
        <ele>129.9</ele>
        <time>2015-01-05T20:36:11.592Z</time>
      </trkpt>
      <trkpt lat="48.85987" lon="2.27538">
        <ele>130.1</ele>
        <time>2015-01-05T20:36:12.605Z</time>
      </trkpt>
      <trkpt lat="48.85982" lon="2.27538">
        <ele>129.9</ele>
        <time>2015-01-05T20:36:13.607Z</time>
      </trkpt>
      <trkpt lat="48.85977" lon="2.27537">
        <ele>130</ele>
        <time>2015-01-05T20:36:14.620Z</time>
      </trkpt>
      <trkpt lat="48.85971" lon="2.27535">
        <ele>129.8</ele>
        <time>2015-01-05T20:36:15.634Z</time>
      </trkpt>
      <trkpt lat="48.85966" lon="2.27533">
        <ele>129.8</ele>
        <time>2015-01-05T20:36:16.633Z</time>
      </trkpt>
      <trkpt lat="48.85961" lon="2.27532">
        <ele>129.9</ele>
        <time>2015-01-05T20:36:17.651Z</time>
      </trkpt>
      <trkpt lat="48.85956" lon="2.27531">
        <ele>130.2</ele>
        <time>2015-01-05T20:36:18.573Z</time>
      </trkpt>
      <trkpt lat="48.8595" lon="2.27531">
        <ele>130.3</ele>
        <time>2015-01-05T20:36:19.552Z</time>
      </trkpt>
      <trkpt lat="48.85945" lon="2.2753">
        <ele>130.4</ele>
        <time>2015-01-05T20:36:20.609Z</time>
      </trkpt>
      <trkpt lat="48.85936" lon="2.2753">
        <ele>130.3</ele>
        <time>2015-01-05T20:36:22.630Z</time>
      </trkpt>
      <trkpt lat="48.85931" lon="2.27528">
        <ele>130.2</ele>
        <time>2015-01-05T20:36:23.641Z</time>
      </trkpt>
      <trkpt lat="48.85926" lon="2.27524">
        <ele>130.1</ele>
        <time>2015-01-05T20:36:24.667Z</time>
      </trkpt>
      <trkpt lat="48.85922" lon="2.27521">
        <ele>129.8</ele>
        <time>2015-01-05T20:36:25.573Z</time>
      </trkpt>
      <trkpt lat="48.85917" lon="2.27519">
        <ele>129.9</ele>
        <time>2015-01-05T20:36:26.619Z</time>
      </trkpt>
      <trkpt lat="48.85912" lon="2.27516">
        <ele>130</ele>
        <time>2015-01-05T20:36:27.612Z</time>
      </trkpt>
      <trkpt lat="48.85888" lon="2.27509">
        <ele>130.6</ele>
        <time>2015-01-05T20:36:33.544Z</time>
      </trkpt>
      <trkpt lat="48.85879" lon="2.27511">
        <ele>131.3</ele>
        <time>2015-01-05T20:36:36.670Z</time>
      </trkpt>
      <trkpt lat="48.85877" lon="2.27512">
        <ele>131.6</ele>
        <time>2015-01-05T20:36:37.543Z</time>
      </trkpt>
      <trkpt lat="48.85871" lon="2.27515">
        <ele>131.6</ele>
        <time>2015-01-05T20:36:40.622Z</time>
      </trkpt>
      <trkpt lat="48.85868" lon="2.27517">
        <ele>131.8</ele>
        <time>2015-01-05T20:36:41.800Z</time>
      </trkpt>
      <trkpt lat="48.85859" lon="2.27521">
        <ele>130.1</ele>
        <time>2015-01-05T20:36:45.600Z</time>
      </trkpt>
      <trkpt lat="48.85858" lon="2.27522">
        <ele>130.3</ele>
        <time>2015-01-05T20:36:46.622Z</time>
      </trkpt>
      <trkpt lat="48.8585" lon="2.27527">
        <ele>131.5</ele>
        <time>2015-01-05T20:36:49.611Z</time>
      </trkpt>
      <trkpt lat="48.85848" lon="2.27524">
        <ele>131.8</ele>
        <time>2015-01-05T20:36:50.615Z</time>
      </trkpt>
      <trkpt lat="48.85848" lon="2.27524">
        <ele>131.8</ele>
        <time>2015-01-05T20:36:56.630Z</time>
      </trkpt>
      <trkpt lat="48.85831" lon="2.27508">
        <ele>132.7</ele>
        <time>2015-01-05T20:36:57.645Z</time>
      </trkpt>
      <trkpt lat="48.85824" lon="2.27506">
        <ele>133.8</ele>
        <time>2015-01-05T20:37:00.565Z</time>
      </trkpt>
      <trkpt lat="48.85821" lon="2.27503">
        <ele>133.6</ele>
        <time>2015-01-05T20:37:01.620Z</time>
      </trkpt>
      <trkpt lat="48.85814" lon="2.27499">
        <ele>131.6</ele>
        <time>2015-01-05T20:37:04.604Z</time>
      </trkpt>
      <trkpt lat="48.85812" lon="2.27499">
        <ele>130.9</ele>
        <time>2015-01-05T20:37:05.601Z</time>
      </trkpt>
      <trkpt lat="48.85804" lon="2.27495">
        <ele>131.2</ele>
        <time>2015-01-05T20:37:09.470Z</time>
      </trkpt>
      <trkpt lat="48.85801" lon="2.27493">
        <ele>131.3</ele>
        <time>2015-01-05T20:37:09.640Z</time>
      </trkpt>
      <trkpt lat="48.85793" lon="2.27493">
        <ele>131.4</ele>
        <time>2015-01-05T20:37:12.562Z</time>
      </trkpt>
      <trkpt lat="48.8579" lon="2.27494">
        <ele>131.5</ele>
        <time>2015-01-05T20:37:13.604Z</time>
      </trkpt>
      <trkpt lat="48.85783" lon="2.27496">
        <ele>132</ele>
        <time>2015-01-05T20:37:15.627Z</time>
      </trkpt>
      <trkpt lat="48.85779" lon="2.27491">
        <ele>132.4</ele>
        <time>2015-01-05T20:37:16.630Z</time>
      </trkpt>
      <trkpt lat="48.85771" lon="2.27491">
        <ele>133.5</ele>
        <time>2015-01-05T20:37:19.755Z</time>
      </trkpt>
      <trkpt lat="48.85767" lon="2.27493">
        <ele>133.9</ele>
        <time>2015-01-05T20:37:19.800Z</time>
      </trkpt>
      <trkpt lat="48.85763" lon="2.27495">
        <ele>134.1</ele>
        <time>2015-01-05T20:37:20.641Z</time>
      </trkpt>
      <trkpt lat="48.85757" lon="2.27496">
        <ele>135.1</ele>
        <time>2015-01-05T20:37:21.638Z</time>
      </trkpt>
      <trkpt lat="48.85753" lon="2.27497">
        <ele>135.6</ele>
        <time>2015-01-05T20:37:22.668Z</time>
      </trkpt>
      <trkpt lat="48.85748" lon="2.27497">
        <ele>135.4</ele>
        <time>2015-01-05T20:37:23.588Z</time>
      </trkpt>
      <trkpt lat="48.85743" lon="2.27497">
        <ele>134.6</ele>
        <time>2015-01-05T20:37:24.695Z</time>
      </trkpt>
      <trkpt lat="48.85738" lon="2.27497">
        <ele>134.2</ele>
        <time>2015-01-05T20:37:25.596Z</time>
      </trkpt>
      <trkpt lat="48.85732" lon="2.27497">
        <ele>134.5</ele>
        <time>2015-01-05T20:37:27.987Z</time>
      </trkpt>
      <trkpt lat="48.85728" lon="2.27496">
        <ele>135.1</ele>
        <time>2015-01-05T20:37:28.591Z</time>
      </trkpt>
      <trkpt lat="48.85724" lon="2.27495">
        <ele>134.6</ele>
        <time>2015-01-05T20:37:29.594Z</time>
      </trkpt>
      <trkpt lat="48.85718" lon="2.27496">
        <ele>132.7</ele>
        <time>2015-01-05T20:37:30.618Z</time>
      </trkpt>
      <trkpt lat="48.8571" lon="2.27498">
        <ele>131.4</ele>
        <time>2015-01-05T20:37:33.108Z</time>
      </trkpt>
      <trkpt lat="48.85706" lon="2.27499">
        <ele>131.3</ele>
        <time>2015-01-05T20:37:33.605Z</time>
      </trkpt>
      <trkpt lat="48.857" lon="2.27499">
        <ele>130.5</ele>
        <time>2015-01-05T20:37:34.638Z</time>
      </trkpt>
      <trkpt lat="48.85695" lon="2.27501">
        <ele>130.4</ele>
        <time>2015-01-05T20:37:35.641Z</time>
      </trkpt>
      <trkpt lat="48.85692" lon="2.27502">
        <ele>130.3</ele>
        <time>2015-01-05T20:37:36.712Z</time>
      </trkpt>
      <trkpt lat="48.85686" lon="2.27503">
        <ele>130.3</ele>
        <time>2015-01-05T20:37:37.574Z</time>
      </trkpt>
      <trkpt lat="48.85681" lon="2.27503">
        <ele>130.3</ele>
        <time>2015-01-05T20:37:38.593Z</time>
      </trkpt>
      <trkpt lat="48.85676" lon="2.27504">
        <ele>130.2</ele>
        <time>2015-01-05T20:37:39.601Z</time>
      </trkpt>
      <trkpt lat="48.85671" lon="2.27505">
        <ele>130.7</ele>
        <time>2015-01-05T20:37:40.630Z</time>
      </trkpt>
      <trkpt lat="48.85666" lon="2.27506">
        <ele>131.7</ele>
        <time>2015-01-05T20:37:41.654Z</time>
      </trkpt>
      <trkpt lat="48.85661" lon="2.27507">
        <ele>132.4</ele>
        <time>2015-01-05T20:37:43.521Z</time>
      </trkpt>
      <trkpt lat="48.85655" lon="2.27506">
        <ele>132.7</ele>
        <time>2015-01-05T20:37:43.580Z</time>
      </trkpt>
      <trkpt lat="48.85646" lon="2.27505">
        <ele>133.5</ele>
        <time>2015-01-05T20:37:45.613Z</time>
      </trkpt>
      <trkpt lat="48.85642" lon="2.27505">
        <ele>133.8</ele>
        <time>2015-01-05T20:37:46.629Z</time>
      </trkpt>
      <trkpt lat="48.85635" lon="2.27504">
        <ele>133.6</ele>
        <time>2015-01-05T20:37:48.568Z</time>
      </trkpt>
      <trkpt lat="48.85632" lon="2.27506">
        <ele>133.7</ele>
        <time>2015-01-05T20:37:49.575Z</time>
      </trkpt>
      <trkpt lat="48.85624" lon="2.27508">
        <ele>134.2</ele>
        <time>2015-01-05T20:37:51.604Z</time>
      </trkpt>
      <trkpt lat="48.8562" lon="2.27508">
        <ele>134.1</ele>
        <time>2015-01-05T20:37:52.616Z</time>
      </trkpt>
      <trkpt lat="48.85613" lon="2.27505">
        <ele>133.9</ele>
        <time>2015-01-05T20:37:54.573Z</time>
      </trkpt>
      <trkpt lat="48.8561" lon="2.27506">
        <ele>133.7</ele>
        <time>2015-01-05T20:37:55.585Z</time>
      </trkpt>
      <trkpt lat="48.85602" lon="2.27511">
        <ele>133.6</ele>
        <time>2015-01-05T20:37:57.646Z</time>
      </trkpt>
      <trkpt lat="48.85599" lon="2.27514">
        <ele>133.6</ele>
        <time>2015-01-05T20:37:58.657Z</time>
      </trkpt>
      <trkpt lat="48.85594" lon="2.2752">
        <ele>133.8</ele>
        <time>2015-01-05T20:38:00.624Z</time>
      </trkpt>
      <trkpt lat="48.85591" lon="2.27523">
        <ele>134</ele>
        <time>2015-01-05T20:38:01.613Z</time>
      </trkpt>
      <trkpt lat="48.85587" lon="2.27525">
        <ele>134.3</ele>
        <time>2015-01-05T20:38:02.658Z</time>
      </trkpt>
      <trkpt lat="48.85582" lon="2.27527">
        <ele>134.6</ele>
        <time>2015-01-05T20:38:03.569Z</time>
      </trkpt>
      <trkpt lat="48.85577" lon="2.2753">
        <ele>134.9</ele>
        <time>2015-01-05T20:38:04.576Z</time>
      </trkpt>
      <trkpt lat="48.85572" lon="2.27532">
        <ele>135.1</ele>
        <time>2015-01-05T20:38:05.579Z</time>
      </trkpt>
      <trkpt lat="48.85567" lon="2.27534">
        <ele>135.1</ele>
        <time>2015-01-05T20:38:06.589Z</time>
      </trkpt>
      <trkpt lat="48.85563" lon="2.27538">
        <ele>135</ele>
        <time>2015-01-05T20:38:07.621Z</time>
      </trkpt>
      <trkpt lat="48.85555" lon="2.27543">
        <ele>134.1</ele>
        <time>2015-01-05T20:38:09.569Z</time>
      </trkpt>
      <trkpt lat="48.8555" lon="2.27545">
        <ele>133.3</ele>
        <time>2015-01-05T20:38:10.580Z</time>
      </trkpt>
      <trkpt lat="48.85542" lon="2.2755">
        <ele>132.5</ele>
        <time>2015-01-05T20:38:12.608Z</time>
      </trkpt>
      <trkpt lat="48.85538" lon="2.27553">
        <ele>132.2</ele>
        <time>2015-01-05T20:38:13.618Z</time>
      </trkpt>
      <trkpt lat="48.85533" lon="2.27556">
        <ele>131.9</ele>
        <time>2015-01-05T20:38:14.626Z</time>
      </trkpt>
      <trkpt lat="48.85528" lon="2.2756">
        <ele>131.7</ele>
        <time>2015-01-05T20:38:15.577Z</time>
      </trkpt>
      <trkpt lat="48.85519" lon="2.27563">
        <ele>132</ele>
        <time>2015-01-05T20:38:17.591Z</time>
      </trkpt>
      <trkpt lat="48.85515" lon="2.27564">
        <ele>132.3</ele>
        <time>2015-01-05T20:38:18.552Z</time>
      </trkpt>
      <trkpt lat="48.85506" lon="2.27567">
        <ele>132.5</ele>
        <time>2015-01-05T20:38:20.641Z</time>
      </trkpt>
      <trkpt lat="48.85502" lon="2.2757">
        <ele>132.4</ele>
        <time>2015-01-05T20:38:21.618Z</time>
      </trkpt>
      <trkpt lat="48.85497" lon="2.27571">
        <ele>132.2</ele>
        <time>2015-01-05T20:38:22.556Z</time>
      </trkpt>
      <trkpt lat="48.85492" lon="2.27573">
        <ele>132.2</ele>
        <time>2015-01-05T20:38:23.598Z</time>
      </trkpt>
      <trkpt lat="48.85488" lon="2.27575">
        <ele>132.4</ele>
        <time>2015-01-05T20:38:24.646Z</time>
      </trkpt>
      <trkpt lat="48.85483" lon="2.27577">
        <ele>132.3</ele>
        <time>2015-01-05T20:38:25.567Z</time>
      </trkpt>
      <trkpt lat="48.85476" lon="2.27577">
        <ele>131.7</ele>
        <time>2015-01-05T20:38:26.688Z</time>
      </trkpt>
      <trkpt lat="48.8547" lon="2.27579">
        <ele>131.4</ele>
        <time>2015-01-05T20:38:27.570Z</time>
      </trkpt>
      <trkpt lat="48.85464" lon="2.2758">
        <ele>131</ele>
        <time>2015-01-05T20:38:28.689Z</time>
      </trkpt>
      <trkpt lat="48.85458" lon="2.27581">
        <ele>131.1</ele>
        <time>2015-01-05T20:38:29.602Z</time>
      </trkpt>
      <trkpt lat="48.85454" lon="2.27583">
        <ele>131.2</ele>
        <time>2015-01-05T20:38:30.602Z</time>
      </trkpt>
      <trkpt lat="48.85449" lon="2.27583">
        <ele>131.5</ele>
        <time>2015-01-05T20:38:31.618Z</time>
      </trkpt>
      <trkpt lat="48.85441" lon="2.27581">
        <ele>131.2</ele>
        <time>2015-01-05T20:38:33.636Z</time>
      </trkpt>
      <trkpt lat="48.85437" lon="2.2758">
        <ele>130.5</ele>
        <time>2015-01-05T20:38:34.658Z</time>
      </trkpt>
      <trkpt lat="48.85432" lon="2.27582">
        <ele>131</ele>
        <time>2015-01-05T20:38:35.570Z</time>
      </trkpt>
      <trkpt lat="48.85427" lon="2.27583">
        <ele>132</ele>
        <time>2015-01-05T20:38:36.567Z</time>
      </trkpt>
      <trkpt lat="48.85422" lon="2.2758">
        <ele>132.3</ele>
        <time>2015-01-05T20:38:37.588Z</time>
      </trkpt>
      <trkpt lat="48.85417" lon="2.27578">
        <ele>132.7</ele>
        <time>2015-01-05T20:38:38.596Z</time>
      </trkpt>
      <trkpt lat="48.85408" lon="2.27576">
        <ele>132.4</ele>
        <time>2015-01-05T20:38:40.619Z</time>
      </trkpt>
      <trkpt lat="48.85402" lon="2.27574">
        <ele>132.1</ele>
        <time>2015-01-05T20:38:41.668Z</time>
      </trkpt>
      <trkpt lat="48.85398" lon="2.27575">
        <ele>131.6</ele>
        <time>2015-01-05T20:38:42.564Z</time>
      </trkpt>
      <trkpt lat="48.85393" lon="2.27578">
        <ele>131.2</ele>
        <time>2015-01-05T20:38:43.575Z</time>
      </trkpt>
      <trkpt lat="48.85389" lon="2.27579">
        <ele>130.6</ele>
        <time>2015-01-05T20:38:44.606Z</time>
      </trkpt>
      <trkpt lat="48.85384" lon="2.2758">
        <ele>130.3</ele>
        <time>2015-01-05T20:38:45.626Z</time>
      </trkpt>
      <trkpt lat="48.85379" lon="2.27582">
        <ele>130</ele>
        <time>2015-01-05T20:38:46.545Z</time>
      </trkpt>
      <trkpt lat="48.85375" lon="2.27584">
        <ele>129.7</ele>
        <time>2015-01-05T20:38:47.569Z</time>
      </trkpt>
      <trkpt lat="48.85366" lon="2.27588">
        <ele>129.5</ele>
        <time>2015-01-05T20:38:49.592Z</time>
      </trkpt>
      <trkpt lat="48.85362" lon="2.27591">
        <ele>129.3</ele>
        <time>2015-01-05T20:38:50.618Z</time>
      </trkpt>
      <trkpt lat="48.85355" lon="2.27596">
        <ele>128.7</ele>
        <time>2015-01-05T20:38:52.569Z</time>
      </trkpt>
      <trkpt lat="48.85349" lon="2.27598">
        <ele>128.7</ele>
        <time>2015-01-05T20:38:53.587Z</time>
      </trkpt>
      <trkpt lat="48.85344" lon="2.27598">
        <ele>128.6</ele>
        <time>2015-01-05T20:38:54.589Z</time>
      </trkpt>
      <trkpt lat="48.85337" lon="2.27599">
        <ele>128.2</ele>
        <time>2015-01-05T20:38:55.602Z</time>
      </trkpt>
      <trkpt lat="48.85331" lon="2.27599">
        <ele>127.7</ele>
        <time>2015-01-05T20:38:56.606Z</time>
      </trkpt>
      <trkpt lat="48.85324" lon="2.27598">
        <ele>127.5</ele>
        <time>2015-01-05T20:38:57.593Z</time>
      </trkpt>
      <trkpt lat="48.85318" lon="2.27601">
        <ele>126.3</ele>
        <time>2015-01-05T20:38:58.634Z</time>
      </trkpt>
      <trkpt lat="48.85312" lon="2.27607">
        <ele>123.4</ele>
        <time>2015-01-05T20:38:59.644Z</time>
      </trkpt>
      <trkpt lat="48.85308" lon="2.2761">
        <ele>121.4</ele>
        <time>2015-01-05T20:39:00.686Z</time>
      </trkpt>
      <trkpt lat="48.85304" lon="2.27614">
        <ele>119.8</ele>
        <time>2015-01-05T20:39:01.591Z</time>
      </trkpt>
      <trkpt lat="48.85298" lon="2.27619">
        <ele>117.3</ele>
        <time>2015-01-05T20:39:03.629Z</time>
      </trkpt>
      <trkpt lat="48.85294" lon="2.2762">
        <ele>116.5</ele>
        <time>2015-01-05T20:39:04.642Z</time>
      </trkpt>
      <trkpt lat="48.85286" lon="2.27616">
        <ele>115.7</ele>
        <time>2015-01-05T20:39:05.581Z</time>
      </trkpt>
      <trkpt lat="48.85281" lon="2.27615">
        <ele>115.4</ele>
        <time>2015-01-05T20:39:06.588Z</time>
      </trkpt>
      <trkpt lat="48.85273" lon="2.27615">
        <ele>114.9</ele>
        <time>2015-01-05T20:39:08.620Z</time>
      </trkpt>
      <trkpt lat="48.8527" lon="2.27615">
        <ele>114.7</ele>
        <time>2015-01-05T20:39:09.621Z</time>
      </trkpt>
      <trkpt lat="48.85263" lon="2.2762">
        <ele>115</ele>
        <time>2015-01-05T20:39:11.683Z</time>
      </trkpt>
      <trkpt lat="48.8526" lon="2.27624">
        <ele>115.5</ele>
        <time>2015-01-05T20:39:12.674Z</time>
      </trkpt>
      <trkpt lat="48.85257" lon="2.2763">
        <ele>116.1</ele>
        <time>2015-01-05T20:39:13.586Z</time>
      </trkpt>
      <trkpt lat="48.85254" lon="2.27637">
        <ele>117.3</ele>
        <time>2015-01-05T20:39:14.624Z</time>
      </trkpt>
      <trkpt lat="48.85251" lon="2.27643">
        <ele>118.4</ele>
        <time>2015-01-05T20:39:15.644Z</time>
      </trkpt>
      <trkpt lat="48.85248" lon="2.27648">
        <ele>119.1</ele>
        <time>2015-01-05T20:39:16.666Z</time>
      </trkpt>
      <trkpt lat="48.85245" lon="2.27655">
        <ele>120.6</ele>
        <time>2015-01-05T20:39:17.572Z</time>
      </trkpt>
      <trkpt lat="48.85242" lon="2.27662">
        <ele>122.2</ele>
        <time>2015-01-05T20:39:18.581Z</time>
      </trkpt>
      <trkpt lat="48.85237" lon="2.27672">
        <ele>122.9</ele>
        <time>2015-01-05T20:39:20.650Z</time>
      </trkpt>
      <trkpt lat="48.85233" lon="2.27679">
        <ele>123.7</ele>
        <time>2015-01-05T20:39:21.592Z</time>
      </trkpt>
      <trkpt lat="48.8523" lon="2.27687">
        <ele>124.7</ele>
        <time>2015-01-05T20:39:22.605Z</time>
      </trkpt>
      <trkpt lat="48.85226" lon="2.27695">
        <ele>125.8</ele>
        <time>2015-01-05T20:39:23.695Z</time>
      </trkpt>
      <trkpt lat="48.85223" lon="2.27702">
        <ele>126.6</ele>
        <time>2015-01-05T20:39:24.580Z</time>
      </trkpt>
      <trkpt lat="48.85221" lon="2.2771">
        <ele>127.4</ele>
        <time>2015-01-05T20:39:25.582Z</time>
      </trkpt>
      <trkpt lat="48.85216" lon="2.27721">
        <ele>128.3</ele>
        <time>2015-01-05T20:39:27.561Z</time>
      </trkpt>
      <trkpt lat="48.85216" lon="2.27724">
        <ele>128</ele>
        <time>2015-01-05T20:39:28.591Z</time>
      </trkpt>
      <trkpt lat="48.85214" lon="2.27732">
        <ele>128.4</ele>
        <time>2015-01-05T20:39:30.697Z</time>
      </trkpt>
      <trkpt lat="48.85216" lon="2.27738">
        <ele>127.9</ele>
        <time>2015-01-05T20:39:31.682Z</time>
      </trkpt>
      <trkpt lat="48.85218" lon="2.27748">
        <ele>128.5</ele>
        <time>2015-01-05T20:39:33.717Z</time>
      </trkpt>
      <trkpt lat="48.85218" lon="2.27758">
        <ele>129.3</ele>
        <time>2015-01-05T20:39:33.755Z</time>
      </trkpt>
      <trkpt lat="48.85219" lon="2.27767">
        <ele>130</ele>
        <time>2015-01-05T20:39:34.611Z</time>
      </trkpt>
      <trkpt lat="48.85219" lon="2.27778">
        <ele>130.8</ele>
        <time>2015-01-05T20:39:35.621Z</time>
      </trkpt>
      <trkpt lat="48.8522" lon="2.27789">
        <ele>130.8</ele>
        <time>2015-01-05T20:39:36.707Z</time>
      </trkpt>
      <trkpt lat="48.85221" lon="2.27795">
        <ele>130.9</ele>
        <time>2015-01-05T20:39:37.586Z</time>
      </trkpt>
      <trkpt lat="48.85221" lon="2.27803">
        <ele>131.3</ele>
        <time>2015-01-05T20:39:39.628Z</time>
      </trkpt>
      <trkpt lat="48.85219" lon="2.27809">
        <ele>131.4</ele>
        <time>2015-01-05T20:39:40.588Z</time>
      </trkpt>
      <trkpt lat="48.85216" lon="2.27813">
        <ele>131.5</ele>
        <time>2015-01-05T20:39:41.646Z</time>
      </trkpt>
      <trkpt lat="48.85206" lon="2.27815">
        <ele>131.7</ele>
        <time>2015-01-05T20:39:42.665Z</time>
      </trkpt>
      <trkpt lat="48.85199" lon="2.2782">
        <ele>130.9</ele>
        <time>2015-01-05T20:39:44.667Z</time>
      </trkpt>
      <trkpt lat="48.85197" lon="2.27824">
        <ele>130.4</ele>
        <time>2015-01-05T20:39:45.591Z</time>
      </trkpt>
      <trkpt lat="48.85192" lon="2.27828">
        <ele>129.6</ele>
        <time>2015-01-05T20:39:47.605Z</time>
      </trkpt>
      <trkpt lat="48.85186" lon="2.27825">
        <ele>129.6</ele>
        <time>2015-01-05T20:39:48.633Z</time>
      </trkpt>
      <trkpt lat="48.85179" lon="2.27821">
        <ele>129.8</ele>
        <time>2015-01-05T20:40:05.607Z</time>
      </trkpt>
      <trkpt lat="48.85153" lon="2.27833">
        <ele>123.8</ele>
        <time>2015-01-05T20:40:06.619Z</time>
      </trkpt>
      <trkpt lat="48.85146" lon="2.27838">
        <ele>123.1</ele>
        <time>2015-01-05T20:40:09.620Z</time>
      </trkpt>
      <trkpt lat="48.85143" lon="2.27842">
        <ele>123.3</ele>
        <time>2015-01-05T20:40:10.633Z</time>
      </trkpt>
      <trkpt lat="48.85138" lon="2.27848">
        <ele>122.5</ele>
        <time>2015-01-05T20:40:13.666Z</time>
      </trkpt>
      <trkpt lat="48.85136" lon="2.27851">
        <ele>121.4</ele>
        <time>2015-01-05T20:40:13.722Z</time>
      </trkpt>
      <trkpt lat="48.85132" lon="2.27861">
        <ele>119.9</ele>
        <time>2015-01-05T20:40:16.642Z</time>
      </trkpt>
      <trkpt lat="48.85131" lon="2.27863">
        <ele>119.6</ele>
        <time>2015-01-05T20:40:17.645Z</time>
      </trkpt>
      <trkpt lat="48.8513" lon="2.27876">
        <ele>117.2</ele>
        <time>2015-01-05T20:40:22.675Z</time>
      </trkpt>
      <trkpt lat="48.85127" lon="2.2788">
        <ele>116.3</ele>
        <time>2015-01-05T20:40:23.651Z</time>
      </trkpt>
      <trkpt lat="48.85124" lon="2.27884">
        <ele>115.7</ele>
        <time>2015-01-05T20:40:24.646Z</time>
      </trkpt>
      <trkpt lat="48.85119" lon="2.27888">
        <ele>115.5</ele>
        <time>2015-01-05T20:40:25.656Z</time>
      </trkpt>
      <trkpt lat="48.85113" lon="2.27891">
        <ele>115</ele>
        <time>2015-01-05T20:40:26.665Z</time>
      </trkpt>
      <trkpt lat="48.85107" lon="2.27895">
        <ele>114.7</ele>
        <time>2015-01-05T20:40:27.676Z</time>
      </trkpt>
      <trkpt lat="48.85103" lon="2.279">
        <ele>114.4</ele>
        <time>2015-01-05T20:40:28.686Z</time>
      </trkpt>
      <trkpt lat="48.851" lon="2.27904">
        <ele>113.9</ele>
        <time>2015-01-05T20:40:29.703Z</time>
      </trkpt>
      <trkpt lat="48.85095" lon="2.27911">
        <ele>112.5</ele>
        <time>2015-01-05T20:40:31.611Z</time>
      </trkpt>
      <trkpt lat="48.85093" lon="2.27914">
        <ele>111.9</ele>
        <time>2015-01-05T20:40:32.638Z</time>
      </trkpt>
      <trkpt lat="48.85087" lon="2.27923">
        <ele>110.4</ele>
        <time>2015-01-05T20:40:34.670Z</time>
      </trkpt>
      <trkpt lat="48.85085" lon="2.27927">
        <ele>109.7</ele>
        <time>2015-01-05T20:40:35.699Z</time>
      </trkpt>
      <trkpt lat="48.85079" lon="2.27936">
        <ele>108.4</ele>
        <time>2015-01-05T20:40:38.185Z</time>
      </trkpt>
      <trkpt lat="48.85076" lon="2.2794">
        <ele>107.8</ele>
        <time>2015-01-05T20:40:38.650Z</time>
      </trkpt>
      <trkpt lat="48.85071" lon="2.27947">
        <ele>106.8</ele>
        <time>2015-01-05T20:40:40.667Z</time>
      </trkpt>
      <trkpt lat="48.8507" lon="2.2795">
        <ele>106.1</ele>
        <time>2015-01-05T20:40:41.568Z</time>
      </trkpt>
      <trkpt lat="48.85064" lon="2.27958">
        <ele>104</ele>
        <time>2015-01-05T20:40:44.669Z</time>
      </trkpt>
      <trkpt lat="48.85062" lon="2.2796">
        <ele>103.4</ele>
        <time>2015-01-05T20:40:45.729Z</time>
      </trkpt>
      <trkpt lat="48.85056" lon="2.27967">
        <ele>100.9</ele>
        <time>2015-01-05T20:40:49.628Z</time>
      </trkpt>
      <trkpt lat="48.85055" lon="2.27969">
        <ele>100.7</ele>
        <time>2015-01-05T20:40:50.676Z</time>
      </trkpt>
      <trkpt lat="48.85048" lon="2.27978">
        <ele>99.8</ele>
        <time>2015-01-05T20:40:53.605Z</time>
      </trkpt>
      <trkpt lat="48.85045" lon="2.2798">
        <ele>99.7</ele>
        <time>2015-01-05T20:40:54.632Z</time>
      </trkpt>
      <trkpt lat="48.8504" lon="2.27989">
        <ele>98.6</ele>
        <time>2015-01-05T20:40:58.467Z</time>
      </trkpt>
      <trkpt lat="48.85037" lon="2.27993">
        <ele>98.4</ele>
        <time>2015-01-05T20:40:58.563Z</time>
      </trkpt>
      <trkpt lat="48.85031" lon="2.28001">
        <ele>98.3</ele>
        <time>2015-01-05T20:41:00.658Z</time>
      </trkpt>
      <trkpt lat="48.85029" lon="2.28005">
        <ele>98.1</ele>
        <time>2015-01-05T20:41:01.686Z</time>
      </trkpt>
      <trkpt lat="48.85024" lon="2.28013">
        <ele>97.8</ele>
        <time>2015-01-05T20:41:03.581Z</time>
      </trkpt>
      <trkpt lat="48.85021" lon="2.28017">
        <ele>97.6</ele>
        <time>2015-01-05T20:41:04.646Z</time>
      </trkpt>
      <trkpt lat="48.85015" lon="2.28026">
        <ele>97.3</ele>
        <time>2015-01-05T20:41:06.737Z</time>
      </trkpt>
      <trkpt lat="48.85011" lon="2.28031">
        <ele>96.5</ele>
        <time>2015-01-05T20:41:07.661Z</time>
      </trkpt>
      <trkpt lat="48.85006" lon="2.2804">
        <ele>96.1</ele>
        <time>2015-01-05T20:41:09.678Z</time>
      </trkpt>
      <trkpt lat="48.85003" lon="2.28044">
        <ele>96.1</ele>
        <time>2015-01-05T20:41:10.645Z</time>
      </trkpt>
      <trkpt lat="48.84997" lon="2.28052">
        <ele>96</ele>
        <time>2015-01-05T20:41:13.686Z</time>
      </trkpt>
      <trkpt lat="48.84994" lon="2.28057">
        <ele>95.8</ele>
        <time>2015-01-05T20:41:13.733Z</time>
      </trkpt>
      <trkpt lat="48.84988" lon="2.28067">
        <ele>95.4</ele>
        <time>2015-01-05T20:41:15.611Z</time>
      </trkpt>
      <trkpt lat="48.84985" lon="2.28071">
        <ele>95.2</ele>
        <time>2015-01-05T20:41:16.614Z</time>
      </trkpt>
      <trkpt lat="48.84979" lon="2.2808">
        <ele>95</ele>
        <time>2015-01-05T20:41:18.775Z</time>
      </trkpt>
      <trkpt lat="48.84977" lon="2.28085">
        <ele>95.1</ele>
        <time>2015-01-05T20:41:19.651Z</time>
      </trkpt>
      <trkpt lat="48.84971" lon="2.28094">
        <ele>94.7</ele>
        <time>2015-01-05T20:41:21.736Z</time>
      </trkpt>
      <trkpt lat="48.84968" lon="2.28099">
        <ele>94.3</ele>
        <time>2015-01-05T20:41:22.650Z</time>
      </trkpt>
      <trkpt lat="48.84965" lon="2.28104">
        <ele>94.5</ele>
        <time>2015-01-05T20:41:23.962Z</time>
      </trkpt>
      <trkpt lat="48.84962" lon="2.28109">
        <ele>94.5</ele>
        <time>2015-01-05T20:41:24.676Z</time>
      </trkpt>
      <trkpt lat="48.84959" lon="2.28114">
        <ele>94.3</ele>
        <time>2015-01-05T20:41:25.682Z</time>
      </trkpt>
      <trkpt lat="48.84955" lon="2.28119">
        <ele>94.5</ele>
        <time>2015-01-05T20:41:26.715Z</time>
      </trkpt>
      <trkpt lat="48.84949" lon="2.28128">
        <ele>94.4</ele>
        <time>2015-01-05T20:41:28.606Z</time>
      </trkpt>
      <trkpt lat="48.84946" lon="2.28132">
        <ele>94.4</ele>
        <time>2015-01-05T20:41:29.606Z</time>
      </trkpt>
      <trkpt lat="48.8494" lon="2.2814">
        <ele>94.4</ele>
        <time>2015-01-05T20:41:31.637Z</time>
      </trkpt>
      <trkpt lat="48.84937" lon="2.28145">
        <ele>94.2</ele>
        <time>2015-01-05T20:41:32.771Z</time>
      </trkpt>
      <trkpt lat="48.84938" lon="2.28152">
        <ele>86.9</ele>
        <time>2015-01-05T20:42:51.627Z</time>
      </trkpt>
      <trkpt lat="48.84925" lon="2.28171">
        <ele>87</ele>
        <time>2015-01-05T20:42:52.660Z</time>
      </trkpt>
      <trkpt lat="48.8492" lon="2.28179">
        <ele>87.1</ele>
        <time>2015-01-05T20:42:55.483Z</time>
      </trkpt>
      <trkpt lat="48.84917" lon="2.28183">
        <ele>87.3</ele>
        <time>2015-01-05T20:42:55.554Z</time>
      </trkpt>
      <trkpt lat="48.84913" lon="2.2819">
        <ele>87.5</ele>
        <time>2015-01-05T20:42:56.629Z</time>
      </trkpt>
      <trkpt lat="48.84909" lon="2.28197">
        <ele>87.7</ele>
        <time>2015-01-05T20:42:57.629Z</time>
      </trkpt>
      <trkpt lat="48.84905" lon="2.28202">
        <ele>87.9</ele>
        <time>2015-01-05T20:42:58.631Z</time>
      </trkpt>
      <trkpt lat="48.84901" lon="2.28209">
        <ele>88.2</ele>
        <time>2015-01-05T20:42:59.638Z</time>
      </trkpt>
      <trkpt lat="48.84897" lon="2.28214">
        <ele>88.6</ele>
        <time>2015-01-05T20:43:00.657Z</time>
      </trkpt>
      <trkpt lat="48.84894" lon="2.28219">
        <ele>88.7</ele>
        <time>2015-01-05T20:43:01.665Z</time>
      </trkpt>
      <trkpt lat="48.84891" lon="2.28226">
        <ele>89</ele>
        <time>2015-01-05T20:43:03.482Z</time>
      </trkpt>
      <trkpt lat="48.84886" lon="2.28233">
        <ele>89</ele>
        <time>2015-01-05T20:43:03.564Z</time>
      </trkpt>
      <trkpt lat="48.84882" lon="2.28239">
        <ele>89</ele>
        <time>2015-01-05T20:43:04.583Z</time>
      </trkpt>
      <trkpt lat="48.84878" lon="2.28245">
        <ele>88.9</ele>
        <time>2015-01-05T20:43:05.584Z</time>
      </trkpt>
      <trkpt lat="48.84874" lon="2.28249">
        <ele>88.7</ele>
        <time>2015-01-05T20:43:06.584Z</time>
      </trkpt>
      <trkpt lat="48.84866" lon="2.28261">
        <ele>88.5</ele>
        <time>2015-01-05T20:43:08.609Z</time>
      </trkpt>
      <trkpt lat="48.84862" lon="2.28268">
        <ele>88.4</ele>
        <time>2015-01-05T20:43:09.576Z</time>
      </trkpt>
      <trkpt lat="48.84858" lon="2.28274">
        <ele>88.2</ele>
        <time>2015-01-05T20:43:10.576Z</time>
      </trkpt>
      <trkpt lat="48.84855" lon="2.28281">
        <ele>88</ele>
        <time>2015-01-05T20:43:11.580Z</time>
      </trkpt>
      <trkpt lat="48.84852" lon="2.2829">
        <ele>87.7</ele>
        <time>2015-01-05T20:43:12.589Z</time>
      </trkpt>
      <trkpt lat="48.84848" lon="2.28299">
        <ele>87.6</ele>
        <time>2015-01-05T20:43:13.611Z</time>
      </trkpt>
      <trkpt lat="48.84845" lon="2.2831">
        <ele>87.7</ele>
        <time>2015-01-05T20:43:14.620Z</time>
      </trkpt>
      <trkpt lat="48.84842" lon="2.28319">
        <ele>87.7</ele>
        <time>2015-01-05T20:43:15.626Z</time>
      </trkpt>
      <trkpt lat="48.84841" lon="2.28324">
        <ele>87.7</ele>
        <time>2015-01-05T20:43:16.625Z</time>
      </trkpt>
      <trkpt lat="48.84839" lon="2.28332">
        <ele>88.3</ele>
        <time>2015-01-05T20:43:17.644Z</time>
      </trkpt>
      <trkpt lat="48.84837" lon="2.28338">
        <ele>88.7</ele>
        <time>2015-01-05T20:43:18.654Z</time>
      </trkpt>
      <trkpt lat="48.84833" lon="2.28346">
        <ele>89</ele>
        <time>2015-01-05T20:43:19.663Z</time>
      </trkpt>
      <trkpt lat="48.84827" lon="2.28355">
        <ele>89.2</ele>
        <time>2015-01-05T20:43:20.670Z</time>
      </trkpt>
      <trkpt lat="48.84823" lon="2.28362">
        <ele>89.1</ele>
        <time>2015-01-05T20:43:21.561Z</time>
      </trkpt>
      <trkpt lat="48.84819" lon="2.28369">
        <ele>89.3</ele>
        <time>2015-01-05T20:43:22.580Z</time>
      </trkpt>
      <trkpt lat="48.84814" lon="2.28374">
        <ele>89.3</ele>
        <time>2015-01-05T20:43:23.599Z</time>
      </trkpt>
      <trkpt lat="48.84809" lon="2.2838">
        <ele>89.5</ele>
        <time>2015-01-05T20:43:24.607Z</time>
      </trkpt>
      <trkpt lat="48.84806" lon="2.28386">
        <ele>89.6</ele>
        <time>2015-01-05T20:43:25.613Z</time>
      </trkpt>
      <trkpt lat="48.84802" lon="2.28392">
        <ele>89.7</ele>
        <time>2015-01-05T20:43:26.701Z</time>
      </trkpt>
      <trkpt lat="48.84798" lon="2.28397">
        <ele>89.9</ele>
        <time>2015-01-05T20:43:27.890Z</time>
      </trkpt>
      <trkpt lat="48.84793" lon="2.28403">
        <ele>89.7</ele>
        <time>2015-01-05T20:43:28.567Z</time>
      </trkpt>
      <trkpt lat="48.84789" lon="2.28407">
        <ele>89.9</ele>
        <time>2015-01-05T20:43:29.576Z</time>
      </trkpt>
      <trkpt lat="48.84785" lon="2.28412">
        <ele>90.1</ele>
        <time>2015-01-05T20:43:30.580Z</time>
      </trkpt>
      <trkpt lat="48.84781" lon="2.28417">
        <ele>90.7</ele>
        <time>2015-01-05T20:43:31.589Z</time>
      </trkpt>
      <trkpt lat="48.84775" lon="2.28421">
        <ele>91.5</ele>
        <time>2015-01-05T20:43:32.619Z</time>
      </trkpt>
      <trkpt lat="48.8477" lon="2.28426">
        <ele>92.5</ele>
        <time>2015-01-05T20:43:33.619Z</time>
      </trkpt>
      <trkpt lat="48.84765" lon="2.2843">
        <ele>93.3</ele>
        <time>2015-01-05T20:43:34.641Z</time>
      </trkpt>
      <trkpt lat="48.8476" lon="2.28434">
        <ele>93.7</ele>
        <time>2015-01-05T20:43:35.651Z</time>
      </trkpt>
      <trkpt lat="48.84754" lon="2.28441">
        <ele>94.9</ele>
        <time>2015-01-05T20:43:36.666Z</time>
      </trkpt>
      <trkpt lat="48.8475" lon="2.28447">
        <ele>95.2</ele>
        <time>2015-01-05T20:43:38.147Z</time>
      </trkpt>
      <trkpt lat="48.84747" lon="2.28452">
        <ele>95.4</ele>
        <time>2015-01-05T20:43:38.692Z</time>
      </trkpt>
      <trkpt lat="48.84743" lon="2.28458">
        <ele>95.4</ele>
        <time>2015-01-05T20:43:39.584Z</time>
      </trkpt>
      <trkpt lat="48.84739" lon="2.28465">
        <ele>95.4</ele>
        <time>2015-01-05T20:43:40.582Z</time>
      </trkpt>
      <trkpt lat="48.84735" lon="2.28473">
        <ele>95.6</ele>
        <time>2015-01-05T20:43:41.588Z</time>
      </trkpt>
      <trkpt lat="48.84729" lon="2.28482">
        <ele>94.3</ele>
        <time>2015-01-05T20:43:42.591Z</time>
      </trkpt>
      <trkpt lat="48.84725" lon="2.28489">
        <ele>94.1</ele>
        <time>2015-01-05T20:43:43.832Z</time>
      </trkpt>
      <trkpt lat="48.84722" lon="2.28497">
        <ele>93.6</ele>
        <time>2015-01-05T20:43:44.905Z</time>
      </trkpt>
      <trkpt lat="48.84718" lon="2.28505">
        <ele>92.8</ele>
        <time>2015-01-05T20:43:45.584Z</time>
      </trkpt>
      <trkpt lat="48.84715" lon="2.28512">
        <ele>92.4</ele>
        <time>2015-01-05T20:43:46.584Z</time>
      </trkpt>
      <trkpt lat="48.84711" lon="2.28518">
        <ele>92</ele>
        <time>2015-01-05T20:43:47.641Z</time>
      </trkpt>
      <trkpt lat="48.84708" lon="2.28524">
        <ele>92</ele>
        <time>2015-01-05T20:43:48.667Z</time>
      </trkpt>
      <trkpt lat="48.84705" lon="2.2853">
        <ele>92.1</ele>
        <time>2015-01-05T20:43:49.675Z</time>
      </trkpt>
      <trkpt lat="48.84701" lon="2.28535">
        <ele>92.4</ele>
        <time>2015-01-05T20:43:50.684Z</time>
      </trkpt>
      <trkpt lat="48.84696" lon="2.28546">
        <ele>93.1</ele>
        <time>2015-01-05T20:43:52.582Z</time>
      </trkpt>
      <trkpt lat="48.84693" lon="2.28549">
        <ele>93.4</ele>
        <time>2015-01-05T20:43:53.606Z</time>
      </trkpt>
      <trkpt lat="48.84686" lon="2.28557">
        <ele>94.4</ele>
        <time>2015-01-05T20:43:56.754Z</time>
      </trkpt>
      <trkpt lat="48.84684" lon="2.28562">
        <ele>95.2</ele>
        <time>2015-01-05T20:43:57.609Z</time>
      </trkpt>
      <trkpt lat="48.84679" lon="2.28572">
        <ele>96.5</ele>
        <time>2015-01-05T20:43:59.677Z</time>
      </trkpt>
      <trkpt lat="48.84676" lon="2.28576">
        <ele>97.1</ele>
        <time>2015-01-05T20:44:00.602Z</time>
      </trkpt>
      <trkpt lat="48.84669" lon="2.28585">
        <ele>97.8</ele>
        <time>2015-01-05T20:44:02.654Z</time>
      </trkpt>
      <trkpt lat="48.84666" lon="2.28588">
        <ele>98.2</ele>
        <time>2015-01-05T20:44:03.670Z</time>
      </trkpt>
      <trkpt lat="48.8466" lon="2.28595">
        <ele>99.4</ele>
        <time>2015-01-05T20:44:05.585Z</time>
      </trkpt>
      <trkpt lat="48.84657" lon="2.28601">
        <ele>100</ele>
        <time>2015-01-05T20:44:06.592Z</time>
      </trkpt>
      <trkpt lat="48.84655" lon="2.28607">
        <ele>101</ele>
        <time>2015-01-05T20:44:07.642Z</time>
      </trkpt>
      <trkpt lat="48.84652" lon="2.28613">
        <ele>101.5</ele>
        <time>2015-01-05T20:44:08.651Z</time>
      </trkpt>
      <trkpt lat="48.84646" lon="2.28624">
        <ele>103</ele>
        <time>2015-01-05T20:44:09.569Z</time>
      </trkpt>
      <trkpt lat="48.84644" lon="2.28629">
        <ele>103.5</ele>
        <time>2015-01-05T20:44:10.679Z</time>
      </trkpt>
      <trkpt lat="48.84639" lon="2.28638">
        <ele>103.8</ele>
        <time>2015-01-05T20:44:12.586Z</time>
      </trkpt>
      <trkpt lat="48.84637" lon="2.28642">
        <ele>104.2</ele>
        <time>2015-01-05T20:44:13.590Z</time>
      </trkpt>
      <trkpt lat="48.84634" lon="2.28649">
        <ele>104.6</ele>
        <time>2015-01-05T20:44:16.385Z</time>
      </trkpt>
      <trkpt lat="48.84631" lon="2.28653">
        <ele>104.7</ele>
        <time>2015-01-05T20:44:16.563Z</time>
      </trkpt>
      <trkpt lat="48.84627" lon="2.2866">
        <ele>104.7</ele>
        <time>2015-01-05T20:44:18.571Z</time>
      </trkpt>
      <trkpt lat="48.84625" lon="2.28665">
        <ele>104.8</ele>
        <time>2015-01-05T20:44:19.590Z</time>
      </trkpt>
      <trkpt lat="48.84621" lon="2.28675">
        <ele>104.8</ele>
        <time>2015-01-05T20:44:21.612Z</time>
      </trkpt>
      <trkpt lat="48.84619" lon="2.2868">
        <ele>104.8</ele>
        <time>2015-01-05T20:44:22.639Z</time>
      </trkpt>
      <trkpt lat="48.84615" lon="2.28689">
        <ele>104.6</ele>
        <time>2015-01-05T20:44:24.573Z</time>
      </trkpt>
      <trkpt lat="48.84613" lon="2.28694">
        <ele>104.5</ele>
        <time>2015-01-05T20:44:25.594Z</time>
      </trkpt>
      <trkpt lat="48.84609" lon="2.28705">
        <ele>104.6</ele>
        <time>2015-01-05T20:44:27.556Z</time>
      </trkpt>
      <trkpt lat="48.84607" lon="2.2871">
        <ele>104.5</ele>
        <time>2015-01-05T20:44:28.583Z</time>
      </trkpt>
      <trkpt lat="48.84604" lon="2.28716">
        <ele>104.4</ele>
        <time>2015-01-05T20:44:29.618Z</time>
      </trkpt>
      <trkpt lat="48.84601" lon="2.28721">
        <ele>104.2</ele>
        <time>2015-01-05T20:44:30.629Z</time>
      </trkpt>
      <trkpt lat="48.84595" lon="2.2873">
        <ele>103.4</ele>
        <time>2015-01-05T20:44:32.655Z</time>
      </trkpt>
      <trkpt lat="48.84592" lon="2.28733">
        <ele>103.1</ele>
        <time>2015-01-05T20:44:33.551Z</time>
      </trkpt>
      <trkpt lat="48.84589" lon="2.28739">
        <ele>102.6</ele>
        <time>2015-01-05T20:44:34.560Z</time>
      </trkpt>
      <trkpt lat="48.84585" lon="2.28744">
        <ele>102.4</ele>
        <time>2015-01-05T20:44:35.619Z</time>
      </trkpt>
      <trkpt lat="48.84582" lon="2.28749">
        <ele>102.4</ele>
        <time>2015-01-05T20:44:36.635Z</time>
      </trkpt>
      <trkpt lat="48.84579" lon="2.28755">
        <ele>102.3</ele>
        <time>2015-01-05T20:44:37.676Z</time>
      </trkpt>
      <trkpt lat="48.84575" lon="2.28765">
        <ele>102.3</ele>
        <time>2015-01-05T20:44:39.547Z</time>
      </trkpt>
      <trkpt lat="48.84574" lon="2.28772">
        <ele>101.9</ele>
        <time>2015-01-05T20:44:40.556Z</time>
      </trkpt>
      <trkpt lat="48.84572" lon="2.28781">
        <ele>101.2</ele>
        <time>2015-01-05T20:44:41.587Z</time>
      </trkpt>
      <trkpt lat="48.84569" lon="2.28787">
        <ele>100.7</ele>
        <time>2015-01-05T20:44:42.587Z</time>
      </trkpt>
      <trkpt lat="48.84564" lon="2.28795">
        <ele>100.6</ele>
        <time>2015-01-05T20:44:44.603Z</time>
      </trkpt>
      <trkpt lat="48.84562" lon="2.28798">
        <ele>100.3</ele>
        <time>2015-01-05T20:44:45.612Z</time>
      </trkpt>
      <trkpt lat="48.84557" lon="2.28803">
        <ele>100.1</ele>
        <time>2015-01-05T20:44:47.710Z</time>
      </trkpt>
      <trkpt lat="48.84554" lon="2.28805">
        <ele>100.2</ele>
        <time>2015-01-05T20:44:48.534Z</time>
      </trkpt>
      <trkpt lat="48.84548" lon="2.28812">
        <ele>100.3</ele>
        <time>2015-01-05T20:44:50.569Z</time>
      </trkpt>
      <trkpt lat="48.84546" lon="2.28815">
        <ele>100.3</ele>
        <time>2015-01-05T20:44:51.583Z</time>
      </trkpt>
      <trkpt lat="48.84543" lon="2.2882">
        <ele>100.6</ele>
        <time>2015-01-05T20:44:53.324Z</time>
      </trkpt>
      <trkpt lat="48.84541" lon="2.28826">
        <ele>100.7</ele>
        <time>2015-01-05T20:44:53.520Z</time>
      </trkpt>
      <trkpt lat="48.84537" lon="2.28832">
        <ele>100.7</ele>
        <time>2015-01-05T20:44:54.638Z</time>
      </trkpt>
      <trkpt lat="48.84534" lon="2.28837">
        <ele>100.7</ele>
        <time>2015-01-05T20:44:55.572Z</time>
      </trkpt>
      <trkpt lat="48.84531" lon="2.28842">
        <ele>100.7</ele>
        <time>2015-01-05T20:44:56.578Z</time>
      </trkpt>
      <trkpt lat="48.84528" lon="2.28863">
        <ele>100.8</ele>
        <time>2015-01-05T20:44:59.635Z</time>
      </trkpt>
      <trkpt lat="48.84527" lon="2.28871">
        <ele>100.7</ele>
        <time>2015-01-05T20:45:00.522Z</time>
      </trkpt>
      <trkpt lat="48.84525" lon="2.28879">
        <ele>100.6</ele>
        <time>2015-01-05T20:45:01.540Z</time>
      </trkpt>
      <trkpt lat="48.84523" lon="2.28885">
        <ele>100.5</ele>
        <time>2015-01-05T20:45:02.858Z</time>
      </trkpt>
      <trkpt lat="48.84521" lon="2.28892">
        <ele>100.5</ele>
        <time>2015-01-05T20:45:03.550Z</time>
      </trkpt>
      <trkpt lat="48.8452" lon="2.28899">
        <ele>100.3</ele>
        <time>2015-01-05T20:45:04.558Z</time>
      </trkpt>
      <trkpt lat="48.84521" lon="2.28913">
        <ele>99.2</ele>
        <time>2015-01-05T20:45:05.562Z</time>
      </trkpt>
      <trkpt lat="48.84516" lon="2.28922">
        <ele>99.6</ele>
        <time>2015-01-05T20:45:07.599Z</time>
      </trkpt>
      <trkpt lat="48.84514" lon="2.28924">
        <ele>99.4</ele>
        <time>2015-01-05T20:45:08.657Z</time>
      </trkpt>
      <trkpt lat="48.84507" lon="2.28931">
        <ele>99.8</ele>
        <time>2015-01-05T20:45:11.540Z</time>
      </trkpt>
      <trkpt lat="48.84505" lon="2.28937">
        <ele>99.9</ele>
        <time>2015-01-05T20:45:12.552Z</time>
      </trkpt>
      <trkpt lat="48.84502" lon="2.28943">
        <ele>100</ele>
        <time>2015-01-05T20:45:13.573Z</time>
      </trkpt>
      <trkpt lat="48.84499" lon="2.28949">
        <ele>99.8</ele>
        <time>2015-01-05T20:45:14.575Z</time>
      </trkpt>
      <trkpt lat="48.84497" lon="2.28956">
        <ele>99.8</ele>
        <time>2015-01-05T20:45:15.596Z</time>
      </trkpt>
      <trkpt lat="48.84494" lon="2.28964">
        <ele>99.6</ele>
        <time>2015-01-05T20:45:16.516Z</time>
      </trkpt>
      <trkpt lat="48.84492" lon="2.28971">
        <ele>99</ele>
        <time>2015-01-05T20:45:17.581Z</time>
      </trkpt>
      <trkpt lat="48.8449" lon="2.28978">
        <ele>98.1</ele>
        <time>2015-01-05T20:45:18.596Z</time>
      </trkpt>
      <trkpt lat="48.84489" lon="2.28987">
        <ele>97.7</ele>
        <time>2015-01-05T20:45:19.571Z</time>
      </trkpt>
      <trkpt lat="48.8449" lon="2.28996">
        <ele>97.1</ele>
        <time>2015-01-05T20:45:20.596Z</time>
      </trkpt>
      <trkpt lat="48.84488" lon="2.29007">
        <ele>96.6</ele>
        <time>2015-01-05T20:45:22.618Z</time>
      </trkpt>
      <trkpt lat="48.84487" lon="2.29014">
        <ele>96.6</ele>
        <time>2015-01-05T20:45:23.632Z</time>
      </trkpt>
      <trkpt lat="48.84486" lon="2.29021">
        <ele>96.4</ele>
        <time>2015-01-05T20:45:24.646Z</time>
      </trkpt>
      <trkpt lat="48.84484" lon="2.29028">
        <ele>95.9</ele>
        <time>2015-01-05T20:45:25.559Z</time>
      </trkpt>
      <trkpt lat="48.8448" lon="2.29033">
        <ele>95.6</ele>
        <time>2015-01-05T20:45:26.586Z</time>
      </trkpt>
      <trkpt lat="48.84476" lon="2.29041">
        <ele>95.6</ele>
        <time>2015-01-05T20:45:27.559Z</time>
      </trkpt>
      <trkpt lat="48.84473" lon="2.29047">
        <ele>96.2</ele>
        <time>2015-01-05T20:45:28.621Z</time>
      </trkpt>
      <trkpt lat="48.84469" lon="2.29053">
        <ele>97</ele>
        <time>2015-01-05T20:45:29.627Z</time>
      </trkpt>
      <trkpt lat="48.84464" lon="2.29062">
        <ele>97.3</ele>
        <time>2015-01-05T20:45:31.667Z</time>
      </trkpt>
      <trkpt lat="48.84461" lon="2.2907">
        <ele>98.1</ele>
        <time>2015-01-05T20:45:32.681Z</time>
      </trkpt>
      <trkpt lat="48.84457" lon="2.29078">
        <ele>98.3</ele>
        <time>2015-01-05T20:45:33.556Z</time>
      </trkpt>
      <trkpt lat="48.84454" lon="2.29086">
        <ele>98.3</ele>
        <time>2015-01-05T20:45:34.557Z</time>
      </trkpt>
      <trkpt lat="48.84452" lon="2.29092">
        <ele>98.6</ele>
        <time>2015-01-05T20:45:35.586Z</time>
      </trkpt>
      <trkpt lat="48.84449" lon="2.29098">
        <ele>98.8</ele>
        <time>2015-01-05T20:45:36.606Z</time>
      </trkpt>
      <trkpt lat="48.84446" lon="2.29109">
        <ele>99.1</ele>
        <time>2015-01-05T20:45:38.655Z</time>
      </trkpt>
      <trkpt lat="48.84444" lon="2.29114">
        <ele>99.2</ele>
        <time>2015-01-05T20:45:39.665Z</time>
      </trkpt>
      <trkpt lat="48.8444" lon="2.29123">
        <ele>99.7</ele>
        <time>2015-01-05T20:45:41.604Z</time>
      </trkpt>
      <trkpt lat="48.84437" lon="2.29127">
        <ele>99.7</ele>
        <time>2015-01-05T20:45:42.646Z</time>
      </trkpt>
      <trkpt lat="48.84432" lon="2.29133">
        <ele>99.3</ele>
        <time>2015-01-05T20:45:44.690Z</time>
      </trkpt>
      <trkpt lat="48.84428" lon="2.29137">
        <ele>98.8</ele>
        <time>2015-01-05T20:45:45.613Z</time>
      </trkpt>
      <trkpt lat="48.84425" lon="2.29142">
        <ele>98.8</ele>
        <time>2015-01-05T20:45:47.050Z</time>
      </trkpt>
      <trkpt lat="48.84422" lon="2.29148">
        <ele>98.6</ele>
        <time>2015-01-05T20:45:47.571Z</time>
      </trkpt>
      <trkpt lat="48.84419" lon="2.29154">
        <ele>98.5</ele>
        <time>2015-01-05T20:45:48.583Z</time>
      </trkpt>
      <trkpt lat="48.84417" lon="2.2916">
        <ele>98.3</ele>
        <time>2015-01-05T20:45:49.596Z</time>
      </trkpt>
      <trkpt lat="48.84414" lon="2.29167">
        <ele>98.3</ele>
        <time>2015-01-05T20:45:50.608Z</time>
      </trkpt>
      <trkpt lat="48.84412" lon="2.29172">
        <ele>97.5</ele>
        <time>2015-01-05T20:45:51.616Z</time>
      </trkpt>
      <trkpt lat="48.84409" lon="2.29183">
        <ele>96.9</ele>
        <time>2015-01-05T20:45:53.650Z</time>
      </trkpt>
      <trkpt lat="48.84408" lon="2.29189">
        <ele>96.8</ele>
        <time>2015-01-05T20:45:54.551Z</time>
      </trkpt>
      <trkpt lat="48.84406" lon="2.29198">
        <ele>96.5</ele>
        <time>2015-01-05T20:45:57.516Z</time>
      </trkpt>
      <trkpt lat="48.84404" lon="2.29203">
        <ele>96.4</ele>
        <time>2015-01-05T20:45:57.622Z</time>
      </trkpt>
      <trkpt lat="48.84402" lon="2.29209">
        <ele>96.1</ele>
        <time>2015-01-05T20:45:58.550Z</time>
      </trkpt>
      <trkpt lat="48.844" lon="2.29216">
        <ele>95.7</ele>
        <time>2015-01-05T20:45:59.548Z</time>
      </trkpt>
      <trkpt lat="48.84398" lon="2.29224">
        <ele>95.2</ele>
        <time>2015-01-05T20:46:00.557Z</time>
      </trkpt>
      <trkpt lat="48.84394" lon="2.29231">
        <ele>94.8</ele>
        <time>2015-01-05T20:46:01.569Z</time>
      </trkpt>
      <trkpt lat="48.84391" lon="2.29237">
        <ele>94.4</ele>
        <time>2015-01-05T20:46:02.667Z</time>
      </trkpt>
      <trkpt lat="48.84387" lon="2.29243">
        <ele>93.2</ele>
        <time>2015-01-05T20:46:03.542Z</time>
      </trkpt>
      <trkpt lat="48.84381" lon="2.29254">
        <ele>91.3</ele>
        <time>2015-01-05T20:46:05.597Z</time>
      </trkpt>
      <trkpt lat="48.8438" lon="2.29257">
        <ele>91</ele>
        <time>2015-01-05T20:46:06.593Z</time>
      </trkpt>
      <trkpt lat="48.84378" lon="2.29266">
        <ele>91.1</ele>
        <time>2015-01-05T20:46:08.679Z</time>
      </trkpt>
      <trkpt lat="48.84377" lon="2.29271">
        <ele>91.4</ele>
        <time>2015-01-05T20:46:09.598Z</time>
      </trkpt>
      <trkpt lat="48.84378" lon="2.2928">
        <ele>91.3</ele>
        <time>2015-01-05T20:46:10.570Z</time>
      </trkpt>
      <trkpt lat="48.84377" lon="2.29285">
        <ele>91.6</ele>
        <time>2015-01-05T20:46:11.566Z</time>
      </trkpt>
      <trkpt lat="48.84372" lon="2.29295">
        <ele>93.2</ele>
        <time>2015-01-05T20:46:13.580Z</time>
      </trkpt>
      <trkpt lat="48.8437" lon="2.29299">
        <ele>93.9</ele>
        <time>2015-01-05T20:46:14.642Z</time>
      </trkpt>
      <trkpt lat="48.84366" lon="2.29305">
        <ele>93.2</ele>
        <time>2015-01-05T20:46:15.652Z</time>
      </trkpt>
      <trkpt lat="48.84363" lon="2.29309">
        <ele>92.8</ele>
        <time>2015-01-05T20:46:16.656Z</time>
      </trkpt>
      <trkpt lat="48.84358" lon="2.2932">
        <ele>92.4</ele>
        <time>2015-01-05T20:46:20.605Z</time>
      </trkpt>
      <trkpt lat="48.84357" lon="2.2932">
        <ele>92.4</ele>
        <time>2015-01-05T20:46:21.610Z</time>
      </trkpt>
      <trkpt lat="48.84351" lon="2.29328">
        <ele>93.9</ele>
        <time>2015-01-05T20:46:27.923Z</time>
      </trkpt>
      <trkpt lat="48.84348" lon="2.2933">
        <ele>94.1</ele>
        <time>2015-01-05T20:46:28.566Z</time>
      </trkpt>
      <trkpt lat="48.84341" lon="2.29334">
        <ele>94.7</ele>
        <time>2015-01-05T20:46:31.604Z</time>
      </trkpt>
      <trkpt lat="48.84339" lon="2.29335">
        <ele>94.6</ele>
        <time>2015-01-05T20:46:32.741Z</time>
      </trkpt>
      <trkpt lat="48.84332" lon="2.29338">
        <ele>94.3</ele>
        <time>2015-01-05T20:46:34.629Z</time>
      </trkpt>
      <trkpt lat="48.84329" lon="2.2934">
        <ele>94.1</ele>
        <time>2015-01-05T20:46:35.650Z</time>
      </trkpt>
      <trkpt lat="48.84322" lon="2.29344">
        <ele>93.9</ele>
        <time>2015-01-05T20:46:37.660Z</time>
      </trkpt>
      <trkpt lat="48.84319" lon="2.29347">
        <ele>93.9</ele>
        <time>2015-01-05T20:46:38.685Z</time>
      </trkpt>
      <trkpt lat="48.84311" lon="2.2935">
        <ele>94</ele>
        <time>2015-01-05T20:46:40.738Z</time>
      </trkpt>
      <trkpt lat="48.84307" lon="2.29353">
        <ele>94.1</ele>
        <time>2015-01-05T20:46:41.583Z</time>
      </trkpt>
      <trkpt lat="48.843" lon="2.29358">
        <ele>94</ele>
        <time>2015-01-05T20:46:43.628Z</time>
      </trkpt>
      <trkpt lat="48.84296" lon="2.29361">
        <ele>94</ele>
        <time>2015-01-05T20:46:44.685Z</time>
      </trkpt>
      <trkpt lat="48.8429" lon="2.29371">
        <ele>93.8</ele>
        <time>2015-01-05T20:46:46.603Z</time>
      </trkpt>
      <trkpt lat="48.84287" lon="2.29375">
        <ele>93.6</ele>
        <time>2015-01-05T20:46:47.667Z</time>
      </trkpt>
      <trkpt lat="48.8428" lon="2.29383">
        <ele>93.4</ele>
        <time>2015-01-05T20:46:50.464Z</time>
      </trkpt>
      <trkpt lat="48.84278" lon="2.29389">
        <ele>93.5</ele>
        <time>2015-01-05T20:46:50.560Z</time>
      </trkpt>
      <trkpt lat="48.84272" lon="2.29396">
        <ele>93.4</ele>
        <time>2015-01-05T20:46:52.595Z</time>
      </trkpt>
      <trkpt lat="48.8427" lon="2.294">
        <ele>93.5</ele>
        <time>2015-01-05T20:46:53.600Z</time>
      </trkpt>
      <trkpt lat="48.84262" lon="2.29406">
        <ele>93.5</ele>
        <time>2015-01-05T20:46:55.623Z</time>
      </trkpt>
      <trkpt lat="48.84259" lon="2.29409">
        <ele>93.4</ele>
        <time>2015-01-05T20:46:56.671Z</time>
      </trkpt>
      <trkpt lat="48.84252" lon="2.29416">
        <ele>93.4</ele>
        <time>2015-01-05T20:46:58.566Z</time>
      </trkpt>
      <trkpt lat="48.84249" lon="2.29419">
        <ele>93.5</ele>
        <time>2015-01-05T20:46:59.573Z</time>
      </trkpt>
      <trkpt lat="48.84242" lon="2.29423">
        <ele>93.6</ele>
        <time>2015-01-05T20:47:01.598Z</time>
      </trkpt>
      <trkpt lat="48.84238" lon="2.29427">
        <ele>92.8</ele>
        <time>2015-01-05T20:47:02.625Z</time>
      </trkpt>
      <trkpt lat="48.84231" lon="2.29434">
        <ele>92.4</ele>
        <time>2015-01-05T20:47:04.624Z</time>
      </trkpt>
      <trkpt lat="48.84225" lon="2.29438">
        <ele>91.9</ele>
        <time>2015-01-05T20:47:06.596Z</time>
      </trkpt>
      <trkpt lat="48.84218" lon="2.29442">
        <ele>91.6</ele>
        <time>2015-01-05T20:47:08.577Z</time>
      </trkpt>
      <trkpt lat="48.84215" lon="2.29446">
        <ele>91.8</ele>
        <time>2015-01-05T20:47:09.604Z</time>
      </trkpt>
      <trkpt lat="48.84211" lon="2.2945">
        <ele>91.8</ele>
        <time>2015-01-05T20:47:10.621Z</time>
      </trkpt>
      <trkpt lat="48.84208" lon="2.29455">
        <ele>91.7</ele>
        <time>2015-01-05T20:47:11.637Z</time>
      </trkpt>
      <trkpt lat="48.84202" lon="2.29463">
        <ele>91.3</ele>
        <time>2015-01-05T20:47:13.558Z</time>
      </trkpt>
      <trkpt lat="48.84199" lon="2.29467">
        <ele>91.2</ele>
        <time>2015-01-05T20:47:14.677Z</time>
      </trkpt>
      <trkpt lat="48.84192" lon="2.29474">
        <ele>91.2</ele>
        <time>2015-01-05T20:47:16.540Z</time>
      </trkpt>
      <trkpt lat="48.84188" lon="2.29478">
        <ele>91.5</ele>
        <time>2015-01-05T20:47:17.684Z</time>
      </trkpt>
      <trkpt lat="48.84185" lon="2.29482">
        <ele>92.6</ele>
        <time>2015-01-05T20:47:18.560Z</time>
      </trkpt>
      <trkpt lat="48.8418" lon="2.29485">
        <ele>93.1</ele>
        <time>2015-01-05T20:47:19.557Z</time>
      </trkpt>
      <trkpt lat="48.84176" lon="2.29488">
        <ele>93.7</ele>
        <time>2015-01-05T20:47:20.590Z</time>
      </trkpt>
      <trkpt lat="48.84172" lon="2.29491">
        <ele>94.1</ele>
        <time>2015-01-05T20:47:21.604Z</time>
      </trkpt>
      <trkpt lat="48.84165" lon="2.29499">
        <ele>94.4</ele>
        <time>2015-01-05T20:47:23.639Z</time>
      </trkpt>
      <trkpt lat="48.84161" lon="2.29502">
        <ele>94.1</ele>
        <time>2015-01-05T20:47:24.657Z</time>
      </trkpt>
      <trkpt lat="48.84155" lon="2.29505">
        <ele>93.9</ele>
        <time>2015-01-05T20:47:26.591Z</time>
      </trkpt>
      <trkpt lat="48.84151" lon="2.29507">
        <ele>93.6</ele>
        <time>2015-01-05T20:47:27.612Z</time>
      </trkpt>
      <trkpt lat="48.84143" lon="2.2951">
        <ele>92.8</ele>
        <time>2015-01-05T20:47:29.563Z</time>
      </trkpt>
      <trkpt lat="48.8414" lon="2.29511">
        <ele>92.5</ele>
        <time>2015-01-05T20:47:30.597Z</time>
      </trkpt>
      <trkpt lat="48.84132" lon="2.29513">
        <ele>91.6</ele>
        <time>2015-01-05T20:47:32.984Z</time>
      </trkpt>
      <trkpt lat="48.84128" lon="2.29516">
        <ele>91.4</ele>
        <time>2015-01-05T20:47:33.636Z</time>
      </trkpt>
      <trkpt lat="48.84123" lon="2.29519">
        <ele>91.5</ele>
        <time>2015-01-05T20:47:34.515Z</time>
      </trkpt>
      <trkpt lat="48.84119" lon="2.29522">
        <ele>91.6</ele>
        <time>2015-01-05T20:47:35.535Z</time>
      </trkpt>
      <trkpt lat="48.84112" lon="2.29528">
        <ele>91.4</ele>
        <time>2015-01-05T20:47:38.138Z</time>
      </trkpt>
      <trkpt lat="48.84108" lon="2.2953">
        <ele>91.3</ele>
        <time>2015-01-05T20:47:38.606Z</time>
      </trkpt>
      <trkpt lat="48.84102" lon="2.29538">
        <ele>91.2</ele>
        <time>2015-01-05T20:47:40.524Z</time>
      </trkpt>
      <trkpt lat="48.84098" lon="2.29541">
        <ele>91.2</ele>
        <time>2015-01-05T20:47:41.548Z</time>
      </trkpt>
      <trkpt lat="48.84091" lon="2.29547">
        <ele>90.9</ele>
        <time>2015-01-05T20:47:43.598Z</time>
      </trkpt>
      <trkpt lat="48.84087" lon="2.29549">
        <ele>90.9</ele>
        <time>2015-01-05T20:47:44.615Z</time>
      </trkpt>
      <trkpt lat="48.84082" lon="2.29555">
        <ele>90.7</ele>
        <time>2015-01-05T20:47:46.548Z</time>
      </trkpt>
      <trkpt lat="48.84078" lon="2.29559">
        <ele>90.4</ele>
        <time>2015-01-05T20:47:47.554Z</time>
      </trkpt>
      <trkpt lat="48.84073" lon="2.29564">
        <ele>89.7</ele>
        <time>2015-01-05T20:47:48.550Z</time>
      </trkpt>
      <trkpt lat="48.8407" lon="2.29567">
        <ele>89.5</ele>
        <time>2015-01-05T20:47:49.574Z</time>
      </trkpt>
      <trkpt lat="48.84064" lon="2.29573">
        <ele>89.2</ele>
        <time>2015-01-05T20:47:51.613Z</time>
      </trkpt>
      <trkpt lat="48.84061" lon="2.29576">
        <ele>89.6</ele>
        <time>2015-01-05T20:47:52.618Z</time>
      </trkpt>
      <trkpt lat="48.84055" lon="2.29584">
        <ele>90.5</ele>
        <time>2015-01-05T20:47:55.650Z</time>
      </trkpt>
      <trkpt lat="48.84053" lon="2.29585">
        <ele>90.8</ele>
        <time>2015-01-05T20:47:56.668Z</time>
      </trkpt>
      <trkpt lat="48.84045" lon="2.29587">
        <ele>91.3</ele>
        <time>2015-01-05T20:48:00.620Z</time>
      </trkpt>
      <trkpt lat="48.84042" lon="2.29588">
        <ele>91.2</ele>
        <time>2015-01-05T20:48:01.630Z</time>
      </trkpt>
      <trkpt lat="48.84036" lon="2.2959">
        <ele>91.3</ele>
        <time>2015-01-05T20:48:03.760Z</time>
      </trkpt>
      <trkpt lat="48.84033" lon="2.29592">
        <ele>91.2</ele>
        <time>2015-01-05T20:48:04.653Z</time>
      </trkpt>
      <trkpt lat="48.84025" lon="2.29598">
        <ele>90.8</ele>
        <time>2015-01-05T20:48:07.590Z</time>
      </trkpt>
      <trkpt lat="48.84021" lon="2.29601">
        <ele>91.1</ele>
        <time>2015-01-05T20:48:08.610Z</time>
      </trkpt>
      <trkpt lat="48.84016" lon="2.29605">
        <ele>90.4</ele>
        <time>2015-01-05T20:48:10.642Z</time>
      </trkpt>
      <trkpt lat="48.84013" lon="2.29608">
        <ele>90.5</ele>
        <time>2015-01-05T20:48:11.651Z</time>
      </trkpt>
      <trkpt lat="48.84009" lon="2.29616">
        <ele>90.6</ele>
        <time>2015-01-05T20:48:14.601Z</time>
      </trkpt>
      <trkpt lat="48.84008" lon="2.2962">
        <ele>90.9</ele>
        <time>2015-01-05T20:48:15.604Z</time>
      </trkpt>
      <trkpt lat="48.84005" lon="2.2963">
        <ele>91.9</ele>
        <time>2015-01-05T20:48:17.606Z</time>
      </trkpt>
      <trkpt lat="48.84002" lon="2.29632">
        <ele>92.1</ele>
        <time>2015-01-05T20:48:18.632Z</time>
      </trkpt>
      <trkpt lat="48.83997" lon="2.29639">
        <ele>92.5</ele>
        <time>2015-01-05T20:48:20.605Z</time>
      </trkpt>
      <trkpt lat="48.83995" lon="2.29646">
        <ele>92.9</ele>
        <time>2015-01-05T20:48:21.598Z</time>
      </trkpt>
      <trkpt lat="48.83989" lon="2.29654">
        <ele>93.5</ele>
        <time>2015-01-05T20:48:24.114Z</time>
      </trkpt>
      <trkpt lat="48.83986" lon="2.29658">
        <ele>93.8</ele>
        <time>2015-01-05T20:48:24.671Z</time>
      </trkpt>
      <trkpt lat="48.8398" lon="2.29661">
        <ele>93.6</ele>
        <time>2015-01-05T20:48:26.595Z</time>
      </trkpt>
      <trkpt lat="48.83974" lon="2.29656">
        <ele>94.2</ele>
        <time>2015-01-05T20:48:27.607Z</time>
      </trkpt>
      <trkpt lat="48.83967" lon="2.29664">
        <ele>94.6</ele>
        <time>2015-01-05T20:48:30.591Z</time>
      </trkpt>
      <trkpt lat="48.83965" lon="2.29665">
        <ele>94.6</ele>
        <time>2015-01-05T20:48:31.611Z</time>
      </trkpt>
      <trkpt lat="48.83959" lon="2.2967">
        <ele>95.9</ele>
        <time>2015-01-05T20:48:33.636Z</time>
      </trkpt>
      <trkpt lat="48.83955" lon="2.29675">
        <ele>97</ele>
        <time>2015-01-05T20:48:34.769Z</time>
      </trkpt>
      <trkpt lat="48.83952" lon="2.29679">
        <ele>97.5</ele>
        <time>2015-01-05T20:48:35.583Z</time>
      </trkpt>
      <trkpt lat="48.83948" lon="2.29685">
        <ele>98</ele>
        <time>2015-01-05T20:48:36.602Z</time>
      </trkpt>
      <trkpt lat="48.83946" lon="2.2969">
        <ele>98.5</ele>
        <time>2015-01-05T20:48:38.373Z</time>
      </trkpt>
      <trkpt lat="48.83943" lon="2.29698">
        <ele>98.6</ele>
        <time>2015-01-05T20:48:38.612Z</time>
      </trkpt>
      <trkpt lat="48.83938" lon="2.29708">
        <ele>98.9</ele>
        <time>2015-01-05T20:48:40.637Z</time>
      </trkpt>
      <trkpt lat="48.83936" lon="2.29712">
        <ele>99.1</ele>
        <time>2015-01-05T20:48:41.656Z</time>
      </trkpt>
      <trkpt lat="48.8393" lon="2.29721">
        <ele>99.8</ele>
        <time>2015-01-05T20:48:43.565Z</time>
      </trkpt>
      <trkpt lat="48.83927" lon="2.29725">
        <ele>100.2</ele>
        <time>2015-01-05T20:48:44.657Z</time>
      </trkpt>
      <trkpt lat="48.83919" lon="2.2973">
        <ele>100.8</ele>
        <time>2015-01-05T20:48:48.559Z</time>
      </trkpt>
      <trkpt lat="48.83915" lon="2.29733">
        <ele>101.2</ele>
        <time>2015-01-05T20:48:48.616Z</time>
      </trkpt>
      <trkpt lat="48.83908" lon="2.29738">
        <ele>101.6</ele>
        <time>2015-01-05T20:48:50.609Z</time>
      </trkpt>
      <trkpt lat="48.83906" lon="2.29741">
        <ele>102</ele>
        <time>2015-01-05T20:48:51.671Z</time>
      </trkpt>
      <trkpt lat="48.83902" lon="2.29749">
        <ele>102.9</ele>
        <time>2015-01-05T20:48:53.628Z</time>
      </trkpt>
      <trkpt lat="48.83899" lon="2.29752">
        <ele>103.4</ele>
        <time>2015-01-05T20:48:54.592Z</time>
      </trkpt>
      <trkpt lat="48.83894" lon="2.29762">
        <ele>103.8</ele>
        <time>2015-01-05T20:48:56.630Z</time>
      </trkpt>
      <trkpt lat="48.83892" lon="2.29767">
        <ele>104</ele>
        <time>2015-01-05T20:48:57.646Z</time>
      </trkpt>
      <trkpt lat="48.83887" lon="2.29772">
        <ele>104.3</ele>
        <time>2015-01-05T20:48:59.572Z</time>
      </trkpt>
      <trkpt lat="48.83884" lon="2.29775">
        <ele>104.5</ele>
        <time>2015-01-05T20:49:00.576Z</time>
      </trkpt>
      <trkpt lat="48.83877" lon="2.29783">
        <ele>104.4</ele>
        <time>2015-01-05T20:49:02.640Z</time>
      </trkpt>
      <trkpt lat="48.83875" lon="2.29787">
        <ele>104.6</ele>
        <time>2015-01-05T20:49:03.671Z</time>
      </trkpt>
      <trkpt lat="48.83871" lon="2.29795">
        <ele>104.8</ele>
        <time>2015-01-05T20:49:05.638Z</time>
      </trkpt>
      <trkpt lat="48.83868" lon="2.29799">
        <ele>104.9</ele>
        <time>2015-01-05T20:49:06.599Z</time>
      </trkpt>
      <trkpt lat="48.83864" lon="2.29809">
        <ele>104.8</ele>
        <time>2015-01-05T20:49:09.046Z</time>
      </trkpt>
      <trkpt lat="48.83862" lon="2.29813">
        <ele>104.7</ele>
        <time>2015-01-05T20:49:09.572Z</time>
      </trkpt>
      <trkpt lat="48.83856" lon="2.29822">
        <ele>104.6</ele>
        <time>2015-01-05T20:49:12.617Z</time>
      </trkpt>
      <trkpt lat="48.83853" lon="2.29824">
        <ele>104.5</ele>
        <time>2015-01-05T20:49:13.622Z</time>
      </trkpt>
      <trkpt lat="48.83846" lon="2.29832">
        <ele>105.1</ele>
        <time>2015-01-05T20:49:15.667Z</time>
      </trkpt>
      <trkpt lat="48.83844" lon="2.29837">
        <ele>105.6</ele>
        <time>2015-01-05T20:49:16.691Z</time>
      </trkpt>
      <trkpt lat="48.8384" lon="2.29846">
        <ele>106.9</ele>
        <time>2015-01-05T20:49:19.180Z</time>
      </trkpt>
      <trkpt lat="48.83837" lon="2.2985">
        <ele>107.7</ele>
        <time>2015-01-05T20:49:19.608Z</time>
      </trkpt>
      <trkpt lat="48.83832" lon="2.29852">
        <ele>108.8</ele>
        <time>2015-01-05T20:49:22.737Z</time>
      </trkpt>
      <trkpt lat="48.83833" lon="2.29853">
        <ele>108.2</ele>
        <time>2015-01-05T20:49:23.618Z</time>
      </trkpt>
      <trkpt lat="48.83834" lon="2.29853">
        <ele>107.7</ele>
        <time>2015-01-05T20:49:33.647Z</time>
      </trkpt>
      <trkpt lat="48.83836" lon="2.29848">
        <ele>110.3</ele>
        <time>2015-01-05T20:49:34.667Z</time>
      </trkpt>
      <trkpt lat="48.83841" lon="2.29858">
        <ele>109</ele>
        <time>2015-01-05T20:49:58.617Z</time>
      </trkpt>
      <trkpt lat="48.83838" lon="2.29861">
        <ele>109.1</ele>
        <time>2015-01-05T20:49:59.603Z</time>
      </trkpt>
      <trkpt lat="48.83832" lon="2.29864">
        <ele>109.1</ele>
        <time>2015-01-05T20:50:01.642Z</time>
      </trkpt>
      <trkpt lat="48.83828" lon="2.29866">
        <ele>109</ele>
        <time>2015-01-05T20:50:02.698Z</time>
      </trkpt>
      <trkpt lat="48.83822" lon="2.29873">
        <ele>108.9</ele>
        <time>2015-01-05T20:50:04.578Z</time>
      </trkpt>
      <trkpt lat="48.83819" lon="2.29878">
        <ele>108.8</ele>
        <time>2015-01-05T20:50:05.602Z</time>
      </trkpt>
      <trkpt lat="48.83815" lon="2.29886">
        <ele>109.4</ele>
        <time>2015-01-05T20:50:08.545Z</time>
      </trkpt>
      <trkpt lat="48.83812" lon="2.2989">
        <ele>109.7</ele>
        <time>2015-01-05T20:50:08.626Z</time>
      </trkpt>
      <trkpt lat="48.83807" lon="2.29894">
        <ele>109.9</ele>
        <time>2015-01-05T20:50:09.651Z</time>
      </trkpt>
      <trkpt lat="48.83804" lon="2.299">
        <ele>110</ele>
        <time>2015-01-05T20:50:10.746Z</time>
      </trkpt>
      <trkpt lat="48.838" lon="2.29909">
        <ele>110.4</ele>
        <time>2015-01-05T20:50:12.574Z</time>
      </trkpt>
      <trkpt lat="48.83797" lon="2.29911">
        <ele>110.8</ele>
        <time>2015-01-05T20:50:13.633Z</time>
      </trkpt>
      <trkpt lat="48.83792" lon="2.29914">
        <ele>111.3</ele>
        <time>2015-01-05T20:50:15.575Z</time>
      </trkpt>
      <trkpt lat="48.83788" lon="2.29917">
        <ele>111.5</ele>
        <time>2015-01-05T20:50:16.608Z</time>
      </trkpt>
      <trkpt lat="48.83783" lon="2.29924">
        <ele>111.8</ele>
        <time>2015-01-05T20:50:18.781Z</time>
      </trkpt>
      <trkpt lat="48.83779" lon="2.29928">
        <ele>112</ele>
        <time>2015-01-05T20:50:19.676Z</time>
      </trkpt>
      <trkpt lat="48.83775" lon="2.29934">
        <ele>112.1</ele>
        <time>2015-01-05T20:50:20.617Z</time>
      </trkpt>
      <trkpt lat="48.83772" lon="2.29937">
        <ele>112.3</ele>
        <time>2015-01-05T20:50:21.612Z</time>
      </trkpt>
      <trkpt lat="48.83766" lon="2.29946">
        <ele>113.1</ele>
        <time>2015-01-05T20:50:23.883Z</time>
      </trkpt>
      <trkpt lat="48.83763" lon="2.2995">
        <ele>113.5</ele>
        <time>2015-01-05T20:50:24.635Z</time>
      </trkpt>
      <trkpt lat="48.83757" lon="2.29959">
        <ele>114.2</ele>
        <time>2015-01-05T20:50:26.638Z</time>
      </trkpt>
      <trkpt lat="48.83754" lon="2.29962">
        <ele>114.4</ele>
        <time>2015-01-05T20:50:27.578Z</time>
      </trkpt>
      <trkpt lat="48.83747" lon="2.29968">
        <ele>114.4</ele>
        <time>2015-01-05T20:50:29.625Z</time>
      </trkpt>
      <trkpt lat="48.83744" lon="2.29972">
        <ele>114.5</ele>
        <time>2015-01-05T20:50:30.629Z</time>
      </trkpt>
      <trkpt lat="48.83738" lon="2.29979">
        <ele>114.6</ele>
        <time>2015-01-05T20:50:32.956Z</time>
      </trkpt>
      <trkpt lat="48.83735" lon="2.29984">
        <ele>114.7</ele>
        <time>2015-01-05T20:50:33.656Z</time>
      </trkpt>
      <trkpt lat="48.8373" lon="2.29994">
        <ele>114.9</ele>
        <time>2015-01-05T20:50:35.606Z</time>
      </trkpt>
      <trkpt lat="48.83726" lon="2.29999">
        <ele>114.7</ele>
        <time>2015-01-05T20:50:36.655Z</time>
      </trkpt>
      <trkpt lat="48.83722" lon="2.30006">
        <ele>114.7</ele>
        <time>2015-01-05T20:50:38.010Z</time>
      </trkpt>
      <trkpt lat="48.83719" lon="2.30012">
        <ele>114.6</ele>
        <time>2015-01-05T20:50:38.691Z</time>
      </trkpt>
      <trkpt lat="48.83717" lon="2.30017">
        <ele>114.3</ele>
        <time>2015-01-05T20:50:39.607Z</time>
      </trkpt>
      <trkpt lat="48.83714" lon="2.30024">
        <ele>114.6</ele>
        <time>2015-01-05T20:50:40.608Z</time>
      </trkpt>
      <trkpt lat="48.8371" lon="2.30033">
        <ele>114.1</ele>
        <time>2015-01-05T20:50:43.646Z</time>
      </trkpt>
      <trkpt lat="48.83708" lon="2.30035">
        <ele>113.9</ele>
        <time>2015-01-05T20:50:44.698Z</time>
      </trkpt>
      <trkpt lat="48.83702" lon="2.30043">
        <ele>114.9</ele>
        <time>2015-01-05T20:50:48.628Z</time>
      </trkpt>
      <trkpt lat="48.83699" lon="2.30046">
        <ele>115</ele>
        <time>2015-01-05T20:50:49.642Z</time>
      </trkpt>
      <trkpt lat="48.83695" lon="2.30054">
        <ele>115.4</ele>
        <time>2015-01-05T20:50:51.587Z</time>
      </trkpt>
      <trkpt lat="48.83694" lon="2.30058">
        <ele>115.3</ele>
        <time>2015-01-05T20:50:52.597Z</time>
      </trkpt>
      <trkpt lat="48.83689" lon="2.30065">
        <ele>115.1</ele>
        <time>2015-01-05T20:50:54.623Z</time>
      </trkpt>
      <trkpt lat="48.83686" lon="2.30068">
        <ele>114.8</ele>
        <time>2015-01-05T20:50:55.592Z</time>
      </trkpt>
      <trkpt lat="48.8368" lon="2.30067">
        <ele>114.1</ele>
        <time>2015-01-05T20:50:59.580Z</time>
      </trkpt>
      <trkpt lat="48.83677" lon="2.30069">
        <ele>113.9</ele>
        <time>2015-01-05T20:51:00.600Z</time>
      </trkpt>
      <trkpt lat="48.83671" lon="2.3007">
        <ele>113.6</ele>
        <time>2015-01-05T20:51:03.525Z</time>
      </trkpt>
      <trkpt lat="48.83669" lon="2.30074">
        <ele>113.6</ele>
        <time>2015-01-05T20:51:04.530Z</time>
      </trkpt>
      <trkpt lat="48.83666" lon="2.30087">
        <ele>113.3</ele>
        <time>2015-01-05T20:51:06.573Z</time>
      </trkpt>
      <trkpt lat="48.83661" lon="2.30103">
        <ele>113.9</ele>
        <time>2015-01-05T20:51:08.776Z</time>
      </trkpt>
      <trkpt lat="48.83658" lon="2.30113">
        <ele>114.1</ele>
        <time>2015-01-05T20:51:10.603Z</time>
      </trkpt>
      <trkpt lat="48.83656" lon="2.30119">
        <ele>113.9</ele>
        <time>2015-01-05T20:51:11.620Z</time>
      </trkpt>
      <trkpt lat="48.83653" lon="2.30124">
        <ele>113.8</ele>
        <time>2015-01-05T20:51:12.544Z</time>
      </trkpt>
      <trkpt lat="48.83649" lon="2.30132">
        <ele>114.3</ele>
        <time>2015-01-05T20:51:13.557Z</time>
      </trkpt>
      <trkpt lat="48.83643" lon="2.30141">
        <ele>115.1</ele>
        <time>2015-01-05T20:51:14.561Z</time>
      </trkpt>
      <trkpt lat="48.83637" lon="2.30149">
        <ele>115.7</ele>
        <time>2015-01-05T20:51:15.568Z</time>
      </trkpt>
      <trkpt lat="48.83631" lon="2.30158">
        <ele>116.6</ele>
        <time>2015-01-05T20:51:16.582Z</time>
      </trkpt>
      <trkpt lat="48.83622" lon="2.3017">
        <ele>117.6</ele>
        <time>2015-01-05T20:51:17.587Z</time>
      </trkpt>
      <trkpt lat="48.83617" lon="2.30179">
        <ele>118.6</ele>
        <time>2015-01-05T20:51:18.884Z</time>
      </trkpt>
      <trkpt lat="48.83612" lon="2.30186">
        <ele>119.6</ele>
        <time>2015-01-05T20:51:19.602Z</time>
      </trkpt>
      <trkpt lat="48.83608" lon="2.30191">
        <ele>120.5</ele>
        <time>2015-01-05T20:51:20.597Z</time>
      </trkpt>
      <trkpt lat="48.83604" lon="2.30196">
        <ele>121.3</ele>
        <time>2015-01-05T20:51:21.611Z</time>
      </trkpt>
      <trkpt lat="48.83597" lon="2.30203">
        <ele>123.2</ele>
        <time>2015-01-05T20:51:23.543Z</time>
      </trkpt>
      <trkpt lat="48.83595" lon="2.30204">
        <ele>124.1</ele>
        <time>2015-01-05T20:51:24.632Z</time>
      </trkpt>
      <trkpt lat="48.83591" lon="2.30208">
        <ele>128.9</ele>
        <time>2015-01-05T20:51:30.623Z</time>
      </trkpt>
      <trkpt lat="48.83586" lon="2.30208">
        <ele>128.2</ele>
        <time>2015-01-05T20:51:31.680Z</time>
      </trkpt>
      <trkpt lat="48.83577" lon="2.30206">
        <ele>127.4</ele>
        <time>2015-01-05T20:51:33.590Z</time>
      </trkpt>
      <trkpt lat="48.83574" lon="2.30206">
        <ele>126.7</ele>
        <time>2015-01-05T20:51:34.599Z</time>
      </trkpt>
      <trkpt lat="48.8357" lon="2.30213">
        <ele>124.9</ele>
        <time>2015-01-05T20:51:36.532Z</time>
      </trkpt>
      <trkpt lat="48.83568" lon="2.30218">
        <ele>123.7</ele>
        <time>2015-01-05T20:51:37.561Z</time>
      </trkpt>
      <trkpt lat="48.83566" lon="2.30223">
        <ele>122.9</ele>
        <time>2015-01-05T20:51:38.590Z</time>
      </trkpt>
      <trkpt lat="48.83567" lon="2.30232">
        <ele>120.3</ele>
        <time>2015-01-05T20:51:39.598Z</time>
      </trkpt>
      <trkpt lat="48.83568" lon="2.30242">
        <ele>117.5</ele>
        <time>2015-01-05T20:51:40.620Z</time>
      </trkpt>
      <trkpt lat="48.83568" lon="2.30248">
        <ele>116.3</ele>
        <time>2015-01-05T20:51:41.629Z</time>
      </trkpt>
      <trkpt lat="48.83561" lon="2.30256">
        <ele>116</ele>
        <time>2015-01-05T20:51:43.557Z</time>
      </trkpt>
      <trkpt lat="48.83558" lon="2.30265">
        <ele>117.2</ele>
        <time>2015-01-05T20:51:44.592Z</time>
      </trkpt>
      <trkpt lat="48.83554" lon="2.3027">
        <ele>118.7</ele>
        <time>2015-01-05T20:52:25.541Z</time>
      </trkpt>
      <trkpt lat="48.83552" lon="2.30279">
        <ele>120.8</ele>
        <time>2015-01-05T20:52:26.621Z</time>
      </trkpt>
      <trkpt lat="48.83547" lon="2.3028">
        <ele>117.9</ele>
        <time>2015-01-05T20:52:44.606Z</time>
      </trkpt>
      <trkpt lat="48.83532" lon="2.30269">
        <ele>113.7</ele>
        <time>2015-01-05T20:52:45.610Z</time>
      </trkpt>
      <trkpt lat="48.83524" lon="2.30273">
        <ele>113.9</ele>
        <time>2015-01-05T20:52:50.680Z</time>
      </trkpt>
      <trkpt lat="48.83522" lon="2.30273">
        <ele>114.1</ele>
        <time>2015-01-05T20:52:51.656Z</time>
      </trkpt>
      <trkpt lat="48.83516" lon="2.30273">
        <ele>114.2</ele>
        <time>2015-01-05T20:52:53.613Z</time>
      </trkpt>
      <trkpt lat="48.83513" lon="2.30271">
        <ele>114</ele>
        <time>2015-01-05T20:52:54.647Z</time>
      </trkpt>
      <trkpt lat="48.83506" lon="2.30267">
        <ele>113.4</ele>
        <time>2015-01-05T20:52:56.604Z</time>
      </trkpt>
      <trkpt lat="48.83502" lon="2.30263">
        <ele>113.5</ele>
        <time>2015-01-05T20:52:57.608Z</time>
      </trkpt>
      <trkpt lat="48.83493" lon="2.30253">
        <ele>113.5</ele>
        <time>2015-01-05T20:53:00.530Z</time>
      </trkpt>
      <trkpt lat="48.83486" lon="2.30247">
        <ele>113.7</ele>
        <time>2015-01-05T20:53:02.562Z</time>
      </trkpt>
      <trkpt lat="48.83482" lon="2.30243">
        <ele>113.8</ele>
        <time>2015-01-05T20:53:03.569Z</time>
      </trkpt>
      <trkpt lat="48.83475" lon="2.30238">
        <ele>113.9</ele>
        <time>2015-01-05T20:53:05.596Z</time>
      </trkpt>
      <trkpt lat="48.83471" lon="2.30237">
        <ele>113.9</ele>
        <time>2015-01-05T20:53:06.592Z</time>
      </trkpt>
      <trkpt lat="48.83463" lon="2.30232">
        <ele>114.3</ele>
        <time>2015-01-05T20:53:08.631Z</time>
      </trkpt>
      <trkpt lat="48.83458" lon="2.30228">
        <ele>114.6</ele>
        <time>2015-01-05T20:53:09.612Z</time>
      </trkpt>
      <trkpt lat="48.83453" lon="2.30225">
        <ele>114.8</ele>
        <time>2015-01-05T20:53:10.530Z</time>
      </trkpt>
      <trkpt lat="48.83445" lon="2.30217">
        <ele>115.4</ele>
        <time>2015-01-05T20:53:11.553Z</time>
      </trkpt>
      <trkpt lat="48.8344" lon="2.30213">
        <ele>115.6</ele>
        <time>2015-01-05T20:53:12.651Z</time>
      </trkpt>
      <trkpt lat="48.83434" lon="2.30208">
        <ele>115.8</ele>
        <time>2015-01-05T20:53:13.570Z</time>
      </trkpt>
      <trkpt lat="48.83428" lon="2.30204">
        <ele>116</ele>
        <time>2015-01-05T20:53:14.585Z</time>
      </trkpt>
      <trkpt lat="48.83422" lon="2.302">
        <ele>116.3</ele>
        <time>2015-01-05T20:53:15.613Z</time>
      </trkpt>
      <trkpt lat="48.83418" lon="2.30195">
        <ele>116.9</ele>
        <time>2015-01-05T20:53:16.556Z</time>
      </trkpt>
      <trkpt lat="48.83413" lon="2.30191">
        <ele>117.6</ele>
        <time>2015-01-05T20:53:17.558Z</time>
      </trkpt>
      <trkpt lat="48.83407" lon="2.30187">
        <ele>117.5</ele>
        <time>2015-01-05T20:53:18.563Z</time>
      </trkpt>
      <trkpt lat="48.83402" lon="2.30185">
        <ele>117.4</ele>
        <time>2015-01-05T20:53:19.575Z</time>
      </trkpt>
      <trkpt lat="48.83398" lon="2.30182">
        <ele>117.4</ele>
        <time>2015-01-05T20:53:20.592Z</time>
      </trkpt>
      <trkpt lat="48.83393" lon="2.30176">
        <ele>118</ele>
        <time>2015-01-05T20:53:21.599Z</time>
      </trkpt>
      <trkpt lat="48.83386" lon="2.30168">
        <ele>119</ele>
        <time>2015-01-05T20:53:22.605Z</time>
      </trkpt>
      <trkpt lat="48.8338" lon="2.30165">
        <ele>119.3</ele>
        <time>2015-01-05T20:53:23.630Z</time>
      </trkpt>
      <trkpt lat="48.83374" lon="2.30163">
        <ele>119.6</ele>
        <time>2015-01-05T20:53:24.645Z</time>
      </trkpt>
      <trkpt lat="48.83368" lon="2.30158">
        <ele>119.7</ele>
        <time>2015-01-05T20:53:25.552Z</time>
      </trkpt>
      <trkpt lat="48.83363" lon="2.30154">
        <ele>119.9</ele>
        <time>2015-01-05T20:53:26.656Z</time>
      </trkpt>
      <trkpt lat="48.83357" lon="2.30147">
        <ele>120.8</ele>
        <time>2015-01-05T20:53:27.587Z</time>
      </trkpt>
      <trkpt lat="48.83351" lon="2.30141">
        <ele>121.7</ele>
        <time>2015-01-05T20:53:28.620Z</time>
      </trkpt>
      <trkpt lat="48.83346" lon="2.30138">
        <ele>122</ele>
        <time>2015-01-05T20:53:29.636Z</time>
      </trkpt>
      <trkpt lat="48.83341" lon="2.30136">
        <ele>122.3</ele>
        <time>2015-01-05T20:53:30.561Z</time>
      </trkpt>
      <trkpt lat="48.83336" lon="2.30135">
        <ele>122.6</ele>
        <time>2015-01-05T20:53:31.562Z</time>
      </trkpt>
      <trkpt lat="48.83331" lon="2.30132">
        <ele>122.9</ele>
        <time>2015-01-05T20:53:32.620Z</time>
      </trkpt>
      <trkpt lat="48.83325" lon="2.30128">
        <ele>123.5</ele>
        <time>2015-01-05T20:53:33.677Z</time>
      </trkpt>
      <trkpt lat="48.8332" lon="2.30125">
        <ele>124.4</ele>
        <time>2015-01-05T20:53:34.917Z</time>
      </trkpt>
      <trkpt lat="48.83316" lon="2.30122">
        <ele>125</ele>
        <time>2015-01-05T20:53:35.546Z</time>
      </trkpt>
      <trkpt lat="48.83307" lon="2.3012">
        <ele>125.5</ele>
        <time>2015-01-05T20:53:37.570Z</time>
      </trkpt>
      <trkpt lat="48.83303" lon="2.30117">
        <ele>125.4</ele>
        <time>2015-01-05T20:53:38.585Z</time>
      </trkpt>
      <trkpt lat="48.83297" lon="2.30109">
        <ele>125.4</ele>
        <time>2015-01-05T20:53:40.549Z</time>
      </trkpt>
      <trkpt lat="48.83296" lon="2.30103">
        <ele>125.2</ele>
        <time>2015-01-05T20:53:41.558Z</time>
      </trkpt>
      <trkpt lat="48.83294" lon="2.30093">
        <ele>125.6</ele>
        <time>2015-01-05T20:53:43.593Z</time>
      </trkpt>
      <trkpt lat="48.83292" lon="2.3009">
        <ele>125.5</ele>
        <time>2015-01-05T20:53:44.609Z</time>
      </trkpt>
      <trkpt lat="48.83291" lon="2.30088">
        <ele>125.4</ele>
        <time>2015-01-05T20:54:49.569Z</time>
      </trkpt>
      <trkpt lat="48.83295" lon="2.30113">
        <ele>129.8</ele>
        <time>2015-01-05T20:54:50.632Z</time>
      </trkpt>
      <trkpt lat="48.83289" lon="2.30104">
        <ele>125.2</ele>
        <time>2015-01-05T20:54:53.578Z</time>
      </trkpt>
      <trkpt lat="48.83287" lon="2.30103">
        <ele>124.1</ele>
        <time>2015-01-05T20:54:54.611Z</time>
      </trkpt>
      <trkpt lat="48.83279" lon="2.30105">
        <ele>123.2</ele>
        <time>2015-01-05T20:54:57.672Z</time>
      </trkpt>
      <trkpt lat="48.83276" lon="2.30104">
        <ele>123</ele>
        <time>2015-01-05T20:54:58.690Z</time>
      </trkpt>
      <trkpt lat="48.83268" lon="2.30104">
        <ele>122.5</ele>
        <time>2015-01-05T20:55:01.650Z</time>
      </trkpt>
      <trkpt lat="48.83265" lon="2.30105">
        <ele>121</ele>
        <time>2015-01-05T20:55:02.671Z</time>
      </trkpt>
      <trkpt lat="48.83257" lon="2.30109">
        <ele>118.7</ele>
        <time>2015-01-05T20:55:05.579Z</time>
      </trkpt>
      <trkpt lat="48.83256" lon="2.3011">
        <ele>117.6</ele>
        <time>2015-01-05T20:55:06.601Z</time>
      </trkpt>
      <trkpt lat="48.83255" lon="2.30111">
        <ele>116.9</ele>
        <time>2015-01-05T20:55:11.613Z</time>
      </trkpt>
      <trkpt lat="48.83247" lon="2.30116">
        <ele>114.8</ele>
        <time>2015-01-05T20:55:12.624Z</time>
      </trkpt>
      <trkpt lat="48.83247" lon="2.30126">
        <ele>114.8</ele>
        <time>2015-01-05T20:55:15.645Z</time>
      </trkpt>
      <trkpt lat="48.83247" lon="2.3013">
        <ele>114.7</ele>
        <time>2015-01-05T20:55:16.555Z</time>
      </trkpt>
      <trkpt lat="48.83244" lon="2.30141">
        <ele>114.1</ele>
        <time>2015-01-05T20:55:20.616Z</time>
      </trkpt>
      <trkpt lat="48.83243" lon="2.30144">
        <ele>114.3</ele>
        <time>2015-01-05T20:55:21.542Z</time>
      </trkpt>
      <trkpt lat="48.8324" lon="2.30153">
        <ele>114.2</ele>
        <time>2015-01-05T20:55:24.686Z</time>
      </trkpt>
      <trkpt lat="48.8324" lon="2.30158">
        <ele>114</ele>
        <time>2015-01-05T20:55:25.635Z</time>
      </trkpt>
      <trkpt lat="48.83239" lon="2.30169">
        <ele>113.5</ele>
        <time>2015-01-05T20:55:28.576Z</time>
      </trkpt>
      <trkpt lat="48.83238" lon="2.30175">
        <ele>113.4</ele>
        <time>2015-01-05T20:55:29.573Z</time>
      </trkpt>
      <trkpt lat="48.83235" lon="2.30184">
        <ele>113.5</ele>
        <time>2015-01-05T20:55:31.602Z</time>
      </trkpt>
      <trkpt lat="48.83235" lon="2.30189">
        <ele>113.9</ele>
        <time>2015-01-05T20:55:32.620Z</time>
      </trkpt>
      <trkpt lat="48.83233" lon="2.30201">
        <ele>114.4</ele>
        <time>2015-01-05T20:55:34.638Z</time>
      </trkpt>
      <trkpt lat="48.83231" lon="2.30206">
        <ele>114.5</ele>
        <time>2015-01-05T20:55:35.650Z</time>
      </trkpt>
      <trkpt lat="48.83226" lon="2.30215">
        <ele>114.5</ele>
        <time>2015-01-05T20:55:38.674Z</time>
      </trkpt>
      <trkpt lat="48.83225" lon="2.30217">
        <ele>114.7</ele>
        <time>2015-01-05T20:55:39.576Z</time>
      </trkpt>
      <trkpt lat="48.83221" lon="2.30228">
        <ele>114.9</ele>
        <time>2015-01-05T20:55:42.601Z</time>
      </trkpt>
      <trkpt lat="48.83222" lon="2.30236">
        <ele>114.8</ele>
        <time>2015-01-05T20:55:43.616Z</time>
      </trkpt>
      <trkpt lat="48.83222" lon="2.30243">
        <ele>114.8</ele>
        <time>2015-01-05T20:55:44.659Z</time>
      </trkpt>
      <trkpt lat="48.83227" lon="2.30255">
        <ele>112.5</ele>
        <time>2015-01-05T20:55:45.539Z</time>
      </trkpt>
      <trkpt lat="48.83229" lon="2.30263">
        <ele>111.9</ele>
        <time>2015-01-05T20:55:53.581Z</time>
      </trkpt>
      <trkpt lat="48.83221" lon="2.30276">
        <ele>113.3</ele>
        <time>2015-01-05T20:55:54.616Z</time>
      </trkpt>
      <trkpt lat="48.8322" lon="2.30286">
        <ele>113.4</ele>
        <time>2015-01-05T20:55:56.674Z</time>
      </trkpt>
      <trkpt lat="48.83219" lon="2.3029">
        <ele>113.4</ele>
        <time>2015-01-05T20:55:57.568Z</time>
      </trkpt>
      <trkpt lat="48.83217" lon="2.30302">
        <ele>113.6</ele>
        <time>2015-01-05T20:55:59.623Z</time>
      </trkpt>
      <trkpt lat="48.83216" lon="2.30308">
        <ele>113.4</ele>
        <time>2015-01-05T20:56:00.534Z</time>
      </trkpt>
      <trkpt lat="48.83214" lon="2.30314">
        <ele>113.3</ele>
        <time>2015-01-05T20:56:01.781Z</time>
      </trkpt>
      <trkpt lat="48.83211" lon="2.30321">
        <ele>113.2</ele>
        <time>2015-01-05T20:56:02.652Z</time>
      </trkpt>
      <trkpt lat="48.8321" lon="2.3033">
        <ele>112.6</ele>
        <time>2015-01-05T20:56:03.625Z</time>
      </trkpt>
      <trkpt lat="48.83209" lon="2.30338">
        <ele>112.3</ele>
        <time>2015-01-05T20:56:04.627Z</time>
      </trkpt>
      <trkpt lat="48.83208" lon="2.30347">
        <ele>111.6</ele>
        <time>2015-01-05T20:56:05.539Z</time>
      </trkpt>
      <trkpt lat="48.83206" lon="2.30353">
        <ele>111.4</ele>
        <time>2015-01-05T20:56:06.539Z</time>
      </trkpt>
      <trkpt lat="48.83203" lon="2.30362">
        <ele>112</ele>
        <time>2015-01-05T20:56:08.589Z</time>
      </trkpt>
      <trkpt lat="48.83201" lon="2.30367">
        <ele>112.6</ele>
        <time>2015-01-05T20:56:09.599Z</time>
      </trkpt>
      <trkpt lat="48.83201" lon="2.30378">
        <ele>113.6</ele>
        <time>2015-01-05T20:56:12.633Z</time>
      </trkpt>
      <trkpt lat="48.83201" lon="2.30381">
        <ele>114.1</ele>
        <time>2015-01-05T20:56:13.562Z</time>
      </trkpt>
      <trkpt lat="48.83198" lon="2.30389">
        <ele>115.1</ele>
        <time>2015-01-05T20:56:15.599Z</time>
      </trkpt>
      <trkpt lat="48.83197" lon="2.30398">
        <ele>115.8</ele>
        <time>2015-01-05T20:56:16.606Z</time>
      </trkpt>
      <trkpt lat="48.83195" lon="2.30405">
        <ele>116.4</ele>
        <time>2015-01-05T20:56:17.630Z</time>
      </trkpt>
      <trkpt lat="48.83195" lon="2.30412">
        <ele>116.9</ele>
        <time>2015-01-05T20:56:18.550Z</time>
      </trkpt>
      <trkpt lat="48.83194" lon="2.30424">
        <ele>117.2</ele>
        <time>2015-01-05T20:56:20.585Z</time>
      </trkpt>
      <trkpt lat="48.83195" lon="2.30431">
        <ele>117.7</ele>
        <time>2015-01-05T20:56:21.592Z</time>
      </trkpt>
      <trkpt lat="48.83195" lon="2.30441">
        <ele>118.3</ele>
        <time>2015-01-05T20:56:23.632Z</time>
      </trkpt>
      <trkpt lat="48.83194" lon="2.30445">
        <ele>118.7</ele>
        <time>2015-01-05T20:56:24.639Z</time>
      </trkpt>
      <trkpt lat="48.83192" lon="2.30452">
        <ele>119</ele>
        <time>2015-01-05T20:56:26.597Z</time>
      </trkpt>
      <trkpt lat="48.83193" lon="2.30459">
        <ele>118.7</ele>
        <time>2015-01-05T20:56:27.611Z</time>
      </trkpt>
      <trkpt lat="48.83193" lon="2.30468">
        <ele>118.7</ele>
        <time>2015-01-05T20:56:28.619Z</time>
      </trkpt>
      <trkpt lat="48.83194" lon="2.30479">
        <ele>118.2</ele>
        <time>2015-01-05T20:56:29.625Z</time>
      </trkpt>
      <trkpt lat="48.83196" lon="2.30492">
        <ele>117.1</ele>
        <time>2015-01-05T20:56:30.548Z</time>
      </trkpt>
      <trkpt lat="48.83197" lon="2.30501">
        <ele>116.8</ele>
        <time>2015-01-05T20:56:31.547Z</time>
      </trkpt>
      <trkpt lat="48.83196" lon="2.30513">
        <ele>117.6</ele>
        <time>2015-01-05T20:56:33.615Z</time>
      </trkpt>
      <trkpt lat="48.83194" lon="2.30518">
        <ele>118.2</ele>
        <time>2015-01-05T20:56:34.631Z</time>
      </trkpt>
      <trkpt lat="48.83189" lon="2.30526">
        <ele>119.2</ele>
        <time>2015-01-05T20:56:37.564Z</time>
      </trkpt>
      <trkpt lat="48.83187" lon="2.30528">
        <ele>119.6</ele>
        <time>2015-01-05T20:56:38.602Z</time>
      </trkpt>
      <trkpt lat="48.83181" lon="2.30532">
        <ele>120.4</ele>
        <time>2015-01-05T20:56:40.640Z</time>
      </trkpt>
      <trkpt lat="48.83178" lon="2.30535">
        <ele>121</ele>
        <time>2015-01-05T20:56:41.610Z</time>
      </trkpt>
      <trkpt lat="48.83173" lon="2.30543">
        <ele>121.3</ele>
        <time>2015-01-05T20:56:43.556Z</time>
      </trkpt>
      <trkpt lat="48.83173" lon="2.30554">
        <ele>119.9</ele>
        <time>2015-01-05T20:56:44.612Z</time>
      </trkpt>
      <trkpt lat="48.83172" lon="2.30566">
        <ele>119.1</ele>
        <time>2015-01-05T20:56:45.571Z</time>
      </trkpt>
      <trkpt lat="48.83171" lon="2.30576">
        <ele>118.8</ele>
        <time>2015-01-05T20:56:46.579Z</time>
      </trkpt>
      <trkpt lat="48.83168" lon="2.30588">
        <ele>118.9</ele>
        <time>2015-01-05T20:56:48.607Z</time>
      </trkpt>
      <trkpt lat="48.83166" lon="2.30593">
        <ele>119.3</ele>
        <time>2015-01-05T20:56:49.640Z</time>
      </trkpt>
      <trkpt lat="48.83163" lon="2.30602">
        <ele>120.5</ele>
        <time>2015-01-05T20:56:51.535Z</time>
      </trkpt>
      <trkpt lat="48.83161" lon="2.30606">
        <ele>120.5</ele>
        <time>2015-01-05T20:56:52.601Z</time>
      </trkpt>
      <trkpt lat="48.83158" lon="2.30614">
        <ele>120.9</ele>
        <time>2015-01-05T20:56:54.613Z</time>
      </trkpt>
      <trkpt lat="48.83156" lon="2.30618">
        <ele>119.9</ele>
        <time>2015-01-05T20:56:55.614Z</time>
      </trkpt>
      <trkpt lat="48.83152" lon="2.30627">
        <ele>119.6</ele>
        <time>2015-01-05T20:56:58.577Z</time>
      </trkpt>
      <trkpt lat="48.8315" lon="2.30629">
        <ele>119.4</ele>
        <time>2015-01-05T20:56:59.582Z</time>
      </trkpt>
      <trkpt lat="48.83145" lon="2.3064">
        <ele>119.2</ele>
        <time>2015-01-05T20:57:03.557Z</time>
      </trkpt>
      <trkpt lat="48.83144" lon="2.30643">
        <ele>119</ele>
        <time>2015-01-05T20:57:04.563Z</time>
      </trkpt>
      <trkpt lat="48.83138" lon="2.30649">
        <ele>119.6</ele>
        <time>2015-01-05T20:57:07.619Z</time>
      </trkpt>
      <trkpt lat="48.83136" lon="2.30651">
        <ele>119.6</ele>
        <time>2015-01-05T20:57:08.602Z</time>
      </trkpt>
      <trkpt lat="48.83135" lon="2.30662">
        <ele>117.8</ele>
        <time>2015-01-05T20:57:10.614Z</time>
      </trkpt>
      <trkpt lat="48.83135" lon="2.30668">
        <ele>117.2</ele>
        <time>2015-01-05T20:57:11.625Z</time>
      </trkpt>
      <trkpt lat="48.83134" lon="2.3068">
        <ele>116.6</ele>
        <time>2015-01-05T20:58:05.570Z</time>
      </trkpt>
      <trkpt lat="48.83141" lon="2.30694">
        <ele>110</ele>
        <time>2015-01-05T20:58:06.581Z</time>
      </trkpt>
      <trkpt lat="48.83148" lon="2.30701">
        <ele>110.3</ele>
        <time>2015-01-05T20:58:09.619Z</time>
      </trkpt>
      <trkpt lat="48.83151" lon="2.30703">
        <ele>110.4</ele>
        <time>2015-01-05T20:58:10.634Z</time>
      </trkpt>
      <trkpt lat="48.83157" lon="2.30709">
        <ele>110.6</ele>
        <time>2015-01-05T20:58:12.546Z</time>
      </trkpt>
      <trkpt lat="48.8316" lon="2.30713">
        <ele>110.6</ele>
        <time>2015-01-05T20:58:13.578Z</time>
      </trkpt>
      <trkpt lat="48.83164" lon="2.30721">
        <ele>110.4</ele>
        <time>2015-01-05T20:58:15.623Z</time>
      </trkpt>
      <trkpt lat="48.83166" lon="2.30725">
        <ele>110.3</ele>
        <time>2015-01-05T20:58:16.558Z</time>
      </trkpt>
      <trkpt lat="48.83168" lon="2.30728">
        <ele>110.1</ele>
        <time>2015-01-05T20:58:17.568Z</time>
      </trkpt>
      <trkpt lat="48.83172" lon="2.30736">
        <ele>109.7</ele>
        <time>2015-01-05T20:58:19.516Z</time>
      </trkpt>
      <trkpt lat="48.83175" lon="2.30746">
        <ele>109.2</ele>
        <time>2015-01-05T20:58:21.572Z</time>
      </trkpt>
      <trkpt lat="48.83178" lon="2.30755">
        <ele>108.9</ele>
        <time>2015-01-05T20:58:23.645Z</time>
      </trkpt>
      <trkpt lat="48.83186" lon="2.30759">
        <ele>107.5</ele>
        <time>2015-01-05T20:58:25.570Z</time>
      </trkpt>
      <trkpt lat="48.83189" lon="2.30762">
        <ele>107.2</ele>
        <time>2015-01-05T20:58:26.565Z</time>
      </trkpt>
      <trkpt lat="48.83191" lon="2.30766">
        <ele>107</ele>
        <time>2015-01-05T20:58:27.578Z</time>
      </trkpt>
      <trkpt lat="48.83245" lon="2.3085">
        <ele>107.8</ele>
        <time>2015-01-05T20:58:46.508Z</time>
      </trkpt>
      <trkpt lat="48.83253" lon="2.30855">
        <ele>107.5</ele>
        <time>2015-01-05T20:58:48.560Z</time>
      </trkpt>
      <trkpt lat="48.83258" lon="2.30857">
        <ele>107.4</ele>
        <time>2015-01-05T20:58:49.541Z</time>
      </trkpt>
      <trkpt lat="48.83263" lon="2.30859">
        <ele>107.1</ele>
        <time>2015-01-05T20:58:50.566Z</time>
      </trkpt>
      <trkpt lat="48.83272" lon="2.30852">
        <ele>104.9</ele>
        <time>2015-01-05T20:58:51.599Z</time>
      </trkpt>
      <trkpt lat="48.83274" lon="2.30858">
        <ele>105</ele>
        <time>2015-01-05T20:58:52.531Z</time>
      </trkpt>
      <trkpt lat="48.83277" lon="2.30865">
        <ele>105.2</ele>
        <time>2015-01-05T20:58:53.547Z</time>
      </trkpt>
      <trkpt lat="48.8328" lon="2.30871">
        <ele>105.2</ele>
        <time>2015-01-05T20:58:54.560Z</time>
      </trkpt>
      <trkpt lat="48.83283" lon="2.30878">
        <ele>105.3</ele>
        <time>2015-01-05T20:58:55.603Z</time>
      </trkpt>
      <trkpt lat="48.83285" lon="2.30884">
        <ele>105.3</ele>
        <time>2015-01-05T20:58:56.559Z</time>
      </trkpt>
      <trkpt lat="48.83287" lon="2.3089">
        <ele>105.4</ele>
        <time>2015-01-05T20:58:57.555Z</time>
      </trkpt>
      <trkpt lat="48.8329" lon="2.30896">
        <ele>105.7</ele>
        <time>2015-01-05T20:58:58.568Z</time>
      </trkpt>
      <trkpt lat="48.83293" lon="2.30902">
        <ele>105.9</ele>
        <time>2015-01-05T20:58:59.575Z</time>
      </trkpt>
      <trkpt lat="48.83296" lon="2.30907">
        <ele>106</ele>
        <time>2015-01-05T20:59:00.592Z</time>
      </trkpt>
      <trkpt lat="48.833" lon="2.30913">
        <ele>106.1</ele>
        <time>2015-01-05T20:59:01.599Z</time>
      </trkpt>
      <trkpt lat="48.83317" lon="2.30927">
        <ele>106.7</ele>
        <time>2015-01-05T20:59:05.570Z</time>
      </trkpt>
      <trkpt lat="48.83324" lon="2.30927">
        <ele>106.7</ele>
        <time>2015-01-05T20:59:06.591Z</time>
      </trkpt>
      <trkpt lat="48.83331" lon="2.30928">
        <ele>106.6</ele>
        <time>2015-01-05T20:59:07.501Z</time>
      </trkpt>
      <trkpt lat="48.83335" lon="2.30928">
        <ele>106.4</ele>
        <time>2015-01-05T20:59:08.595Z</time>
      </trkpt>
      <trkpt lat="48.83341" lon="2.30926">
        <ele>105.4</ele>
        <time>2015-01-05T20:59:09.514Z</time>
      </trkpt>
      <trkpt lat="48.83344" lon="2.30937">
        <ele>110.2</ele>
        <time>2015-01-05T20:59:29.563Z</time>
      </trkpt>
      <trkpt lat="48.83344" lon="2.30941">
        <ele>110.7</ele>
        <time>2015-01-05T20:59:30.598Z</time>
      </trkpt>
      <trkpt lat="48.83343" lon="2.3095">
        <ele>111.4</ele>
        <time>2015-01-05T20:59:32.606Z</time>
      </trkpt>
      <trkpt lat="48.83345" lon="2.30959">
        <ele>110.6</ele>
        <time>2015-01-05T20:59:33.636Z</time>
      </trkpt>
      <trkpt lat="48.83346" lon="2.30969">
        <ele>110.3</ele>
        <time>2015-01-05T20:59:34.547Z</time>
      </trkpt>
      <trkpt lat="48.83348" lon="2.30977">
        <ele>110.8</ele>
        <time>2015-01-05T20:59:35.582Z</time>
      </trkpt>
      <trkpt lat="48.83353" lon="2.30986">
        <ele>111.3</ele>
        <time>2015-01-05T20:59:38.616Z</time>
      </trkpt>
      <trkpt lat="48.83353" lon="2.3099">
        <ele>111.2</ele>
        <time>2015-01-05T20:59:39.662Z</time>
      </trkpt>
      <trkpt lat="48.83356" lon="2.31">
        <ele>111.9</ele>
        <time>2015-01-05T20:59:42.617Z</time>
      </trkpt>
      <trkpt lat="48.83357" lon="2.31003">
        <ele>112.4</ele>
        <time>2015-01-05T20:59:43.623Z</time>
      </trkpt>
      <trkpt lat="48.83362" lon="2.31012">
        <ele>113.5</ele>
        <time>2015-01-05T20:59:46.570Z</time>
      </trkpt>
      <trkpt lat="48.83364" lon="2.31014">
        <ele>113.7</ele>
        <time>2015-01-05T20:59:47.560Z</time>
      </trkpt>
      <trkpt lat="48.83369" lon="2.3102">
        <ele>114.2</ele>
        <time>2015-01-05T20:59:49.578Z</time>
      </trkpt>
      <trkpt lat="48.83373" lon="2.31025">
        <ele>114.2</ele>
        <time>2015-01-05T20:59:50.565Z</time>
      </trkpt>
      <trkpt lat="48.83377" lon="2.31031">
        <ele>113.7</ele>
        <time>2015-01-05T20:59:51.570Z</time>
      </trkpt>
      <trkpt lat="48.83381" lon="2.31034">
        <ele>113.4</ele>
        <time>2015-01-05T20:59:52.575Z</time>
      </trkpt>
      <trkpt lat="48.83384" lon="2.31043">
        <ele>113.4</ele>
        <time>2015-01-05T20:59:54.524Z</time>
      </trkpt>
      <trkpt lat="48.83385" lon="2.31049">
        <ele>114.1</ele>
        <time>2015-01-05T20:59:55.537Z</time>
      </trkpt>
      <trkpt lat="48.83387" lon="2.3106">
        <ele>115.1</ele>
        <time>2015-01-05T20:59:57.556Z</time>
      </trkpt>
      <trkpt lat="48.83387" lon="2.31068">
        <ele>115.3</ele>
        <time>2015-01-05T20:59:58.567Z</time>
      </trkpt>
      <trkpt lat="48.83391" lon="2.31077">
        <ele>115.7</ele>
        <time>2015-01-05T21:00:01.232Z</time>
      </trkpt>
      <trkpt lat="48.83394" lon="2.31081">
        <ele>116.6</ele>
        <time>2015-01-05T21:00:01.591Z</time>
      </trkpt>
      <trkpt lat="48.83397" lon="2.31093">
        <ele>117.5</ele>
        <time>2015-01-05T21:00:04.473Z</time>
      </trkpt>
      <trkpt lat="48.83398" lon="2.31098">
        <ele>118.1</ele>
        <time>2015-01-05T21:00:04.551Z</time>
      </trkpt>
      <trkpt lat="48.83399" lon="2.31112">
        <ele>119.3</ele>
        <time>2015-01-05T21:00:06.540Z</time>
      </trkpt>
      <trkpt lat="48.834" lon="2.31117">
        <ele>120.1</ele>
        <time>2015-01-05T21:00:07.566Z</time>
      </trkpt>
      <trkpt lat="48.83405" lon="2.31128">
        <ele>120.7</ele>
        <time>2015-01-05T21:00:09.630Z</time>
      </trkpt>
      <trkpt lat="48.83409" lon="2.31132">
        <ele>120.9</ele>
        <time>2015-01-05T21:00:10.557Z</time>
      </trkpt>
      <trkpt lat="48.83417" lon="2.31137">
        <ele>121.1</ele>
        <time>2015-01-05T21:00:12.598Z</time>
      </trkpt>
      <trkpt lat="48.8342" lon="2.3114">
        <ele>121.1</ele>
        <time>2015-01-05T21:00:13.554Z</time>
      </trkpt>
      <trkpt lat="48.83424" lon="2.31148">
        <ele>120.9</ele>
        <time>2015-01-05T21:00:15.557Z</time>
      </trkpt>
      <trkpt lat="48.83426" lon="2.31153">
        <ele>120.9</ele>
        <time>2015-01-05T21:00:16.592Z</time>
      </trkpt>
      <trkpt lat="48.8343" lon="2.31162">
        <ele>120.9</ele>
        <time>2015-01-05T21:00:18.621Z</time>
      </trkpt>
      <trkpt lat="48.83432" lon="2.31168">
        <ele>120.8</ele>
        <time>2015-01-05T21:00:19.576Z</time>
      </trkpt>
      <trkpt lat="48.83439" lon="2.31177">
        <ele>120.7</ele>
        <time>2015-01-05T21:00:21.777Z</time>
      </trkpt>
      <trkpt lat="48.83442" lon="2.3118">
        <ele>120.6</ele>
        <time>2015-01-05T21:00:22.622Z</time>
      </trkpt>
      <trkpt lat="48.83468" lon="2.3121">
        <ele>120.2</ele>
        <time>2015-01-05T21:00:30.532Z</time>
      </trkpt>
      <trkpt lat="48.83473" lon="2.3121">
        <ele>120</ele>
        <time>2015-01-05T21:00:31.717Z</time>
      </trkpt>
      <trkpt lat="48.83481" lon="2.3121">
        <ele>119.9</ele>
        <time>2015-01-05T21:00:32.564Z</time>
      </trkpt>
      <trkpt lat="48.83488" lon="2.3121">
        <ele>119.9</ele>
        <time>2015-01-05T21:00:33.560Z</time>
      </trkpt>
      <trkpt lat="48.83494" lon="2.31209">
        <ele>120</ele>
        <time>2015-01-05T21:00:34.580Z</time>
      </trkpt>
      <trkpt lat="48.83503" lon="2.31208">
        <ele>119.9</ele>
        <time>2015-01-05T21:00:36.494Z</time>
      </trkpt>
      <trkpt lat="48.83505" lon="2.31209">
        <ele>119.8</ele>
        <time>2015-01-05T21:00:37.605Z</time>
      </trkpt>
      <trkpt lat="48.83514" lon="2.31208">
        <ele>120.3</ele>
        <time>2015-01-05T21:00:43.538Z</time>
      </trkpt>
      <trkpt lat="48.83516" lon="2.31204">
        <ele>120.9</ele>
        <time>2015-01-05T21:00:44.568Z</time>
      </trkpt>
      <trkpt lat="48.83517" lon="2.31202">
        <ele>121.2</ele>
        <time>2015-01-05T21:00:51.541Z</time>
      </trkpt>
      <trkpt lat="48.83456" lon="2.31317">
        <ele>114</ele>
        <time>2015-01-05T21:01:11.763Z</time>
      </trkpt>
      <trkpt lat="48.83458" lon="2.31301">
        <ele>112.6</ele>
        <time>2015-01-05T21:01:12.648Z</time>
      </trkpt>
      <trkpt lat="48.83455" lon="2.3131">
        <ele>108.4</ele>
        <time>2015-01-05T21:01:15.611Z</time>
      </trkpt>
      <trkpt lat="48.83453" lon="2.31315">
        <ele>107.7</ele>
        <time>2015-01-05T21:01:16.563Z</time>
      </trkpt>
      <trkpt lat="48.8345" lon="2.31324">
        <ele>107</ele>
        <time>2015-01-05T21:01:18.849Z</time>
      </trkpt>
      <trkpt lat="48.83449" lon="2.31327">
        <ele>105.8</ele>
        <time>2015-01-05T21:01:19.618Z</time>
      </trkpt>
      <trkpt lat="48.83446" lon="2.31339">
        <ele>111.2</ele>
        <time>2015-01-05T21:01:24.585Z</time>
      </trkpt>
      <trkpt lat="48.83446" lon="2.31342">
        <ele>112.5</ele>
        <time>2015-01-05T21:01:25.648Z</time>
      </trkpt>
      <trkpt lat="48.83445" lon="2.31345">
        <ele>113.5</ele>
        <time>2015-01-05T21:01:33.603Z</time>
      </trkpt>
      <trkpt lat="48.83437" lon="2.31374">
        <ele>128.7</ele>
        <time>2015-01-05T21:01:34.544Z</time>
      </trkpt>
      <trkpt lat="48.83431" lon="2.3138">
        <ele>124.1</ele>
        <time>2015-01-05T21:02:08.428Z</time>
      </trkpt>
      <trkpt lat="48.8343" lon="2.31381">
        <ele>124.3</ele>
        <time>2015-01-05T21:02:08.561Z</time>
      </trkpt>
      <trkpt lat="48.83424" lon="2.31387">
        <ele>125.5</ele>
        <time>2015-01-05T21:02:11.518Z</time>
      </trkpt>
      <trkpt lat="48.83422" lon="2.3139">
        <ele>125.7</ele>
        <time>2015-01-05T21:02:12.594Z</time>
      </trkpt>
      <trkpt lat="48.83417" lon="2.31399">
        <ele>126.4</ele>
        <time>2015-01-05T21:02:15.625Z</time>
      </trkpt>
      <trkpt lat="48.83416" lon="2.31402">
        <ele>126.6</ele>
        <time>2015-01-05T21:02:16.549Z</time>
      </trkpt>
      <trkpt lat="48.8341" lon="2.3141">
        <ele>126.3</ele>
        <time>2015-01-05T21:02:19.523Z</time>
      </trkpt>
      <trkpt lat="48.83409" lon="2.31411">
        <ele>126.2</ele>
        <time>2015-01-05T21:02:20.588Z</time>
      </trkpt>
      <trkpt lat="48.83409" lon="2.31411">
        <ele>126.2</ele>
        <time>2015-01-05T21:02:28.614Z</time>
      </trkpt>
      <trkpt lat="48.83405" lon="2.31432">
        <ele>123.5</ele>
        <time>2015-01-05T21:02:29.624Z</time>
      </trkpt>
      <trkpt lat="48.83399" lon="2.31441">
        <ele>124.2</ele>
        <time>2015-01-05T21:02:31.556Z</time>
      </trkpt>
      <trkpt lat="48.83394" lon="2.31447">
        <ele>123.7</ele>
        <time>2015-01-05T21:02:32.612Z</time>
      </trkpt>
      <trkpt lat="48.83391" lon="2.31453">
        <ele>123.7</ele>
        <time>2015-01-05T21:02:33.543Z</time>
      </trkpt>
      <trkpt lat="48.83387" lon="2.31458">
        <ele>123.4</ele>
        <time>2015-01-05T21:02:34.546Z</time>
      </trkpt>
      <trkpt lat="48.83381" lon="2.31469">
        <ele>123.1</ele>
        <time>2015-01-05T21:02:36.574Z</time>
      </trkpt>
      <trkpt lat="48.8338" lon="2.31477">
        <ele>122.7</ele>
        <time>2015-01-05T21:02:37.604Z</time>
      </trkpt>
      <trkpt lat="48.83376" lon="2.31487">
        <ele>123.3</ele>
        <time>2015-01-05T21:02:39.155Z</time>
      </trkpt>
      <trkpt lat="48.83373" lon="2.31497">
        <ele>123.3</ele>
        <time>2015-01-05T21:02:39.533Z</time>
      </trkpt>
      <trkpt lat="48.83367" lon="2.31507">
        <ele>123.3</ele>
        <time>2015-01-05T21:02:41.620Z</time>
      </trkpt>
      <trkpt lat="48.83365" lon="2.31509">
        <ele>123.9</ele>
        <time>2015-01-05T21:02:42.651Z</time>
      </trkpt>
      <trkpt lat="48.83358" lon="2.31517">
        <ele>125.6</ele>
        <time>2015-01-05T21:02:50.578Z</time>
      </trkpt>
      <trkpt lat="48.83356" lon="2.31521">
        <ele>126.1</ele>
        <time>2015-01-05T21:02:51.598Z</time>
      </trkpt>
      <trkpt lat="48.8335" lon="2.31528">
        <ele>127</ele>
        <time>2015-01-05T21:02:53.524Z</time>
      </trkpt>
      <trkpt lat="48.83346" lon="2.31531">
        <ele>126.6</ele>
        <time>2015-01-05T21:02:54.583Z</time>
      </trkpt>
      <trkpt lat="48.83342" lon="2.31541">
        <ele>125.6</ele>
        <time>2015-01-05T21:02:56.653Z</time>
      </trkpt>
      <trkpt lat="48.8334" lon="2.31545">
        <ele>125.5</ele>
        <time>2015-01-05T21:02:57.571Z</time>
      </trkpt>
      <trkpt lat="48.83339" lon="2.31549">
        <ele>125.4</ele>
        <time>2015-01-05T21:02:59.552Z</time>
      </trkpt>
      <trkpt lat="48.83339" lon="2.31549">
        <ele>125.2</ele>
        <time>2015-01-05T21:03:00.580Z</time>
      </trkpt>
      <trkpt lat="48.8334" lon="2.31549">
        <ele>125.2</ele>
        <time>2015-01-05T21:03:23.555Z</time>
      </trkpt>
      <trkpt lat="48.83336" lon="2.31544">
        <ele>126.8</ele>
        <time>2015-01-05T21:03:24.678Z</time>
      </trkpt>
      <trkpt lat="48.8333" lon="2.31548">
        <ele>126.9</ele>
        <time>2015-01-05T21:03:26.631Z</time>
      </trkpt>
      <trkpt lat="48.83327" lon="2.31551">
        <ele>127.1</ele>
        <time>2015-01-05T21:03:27.643Z</time>
      </trkpt>
      <trkpt lat="48.83323" lon="2.31559">
        <ele>127.4</ele>
        <time>2015-01-05T21:03:29.569Z</time>
      </trkpt>
      <trkpt lat="48.83321" lon="2.31563">
        <ele>127.4</ele>
        <time>2015-01-05T21:03:30.574Z</time>
      </trkpt>
      <trkpt lat="48.83315" lon="2.3157">
        <ele>127.8</ele>
        <time>2015-01-05T21:03:32.626Z</time>
      </trkpt>
      <trkpt lat="48.83313" lon="2.31573">
        <ele>128.1</ele>
        <time>2015-01-05T21:03:33.537Z</time>
      </trkpt>
      <trkpt lat="48.8331" lon="2.31578">
        <ele>128.6</ele>
        <time>2015-01-05T21:03:34.549Z</time>
      </trkpt>
      <trkpt lat="48.83305" lon="2.31585">
        <ele>129</ele>
        <time>2015-01-05T21:03:35.590Z</time>
      </trkpt>
      <trkpt lat="48.833" lon="2.31594">
        <ele>129.3</ele>
        <time>2015-01-05T21:03:36.569Z</time>
      </trkpt>
      <trkpt lat="48.83296" lon="2.31603">
        <ele>129.6</ele>
        <time>2015-01-05T21:03:37.578Z</time>
      </trkpt>
      <trkpt lat="48.83294" lon="2.31613">
        <ele>129.5</ele>
        <time>2015-01-05T21:03:38.588Z</time>
      </trkpt>
      <trkpt lat="48.83291" lon="2.31625">
        <ele>129</ele>
        <time>2015-01-05T21:03:39.617Z</time>
      </trkpt>
      <trkpt lat="48.83285" lon="2.31631">
        <ele>129.6</ele>
        <time>2015-01-05T21:03:41.551Z</time>
      </trkpt>
      <trkpt lat="48.83282" lon="2.31633">
        <ele>129.8</ele>
        <time>2015-01-05T21:03:42.559Z</time>
      </trkpt>
      <trkpt lat="48.83274" lon="2.31639">
        <ele>130.2</ele>
        <time>2015-01-05T21:03:44.688Z</time>
      </trkpt>
      <trkpt lat="48.83272" lon="2.31645">
        <ele>130</ele>
        <time>2015-01-05T21:03:45.565Z</time>
      </trkpt>
      <trkpt lat="48.83269" lon="2.31652">
        <ele>129.9</ele>
        <time>2015-01-05T21:03:46.562Z</time>
      </trkpt>
      <trkpt lat="48.83268" lon="2.31662">
        <ele>129.4</ele>
        <time>2015-01-05T21:03:47.566Z</time>
      </trkpt>
      <trkpt lat="48.83265" lon="2.31671">
        <ele>129.9</ele>
        <time>2015-01-05T21:03:49.644Z</time>
      </trkpt>
      <trkpt lat="48.83261" lon="2.31674">
        <ele>129.8</ele>
        <time>2015-01-05T21:03:50.603Z</time>
      </trkpt>
      <trkpt lat="48.83254" lon="2.3168">
        <ele>129.4</ele>
        <time>2015-01-05T21:03:52.619Z</time>
      </trkpt>
      <trkpt lat="48.83251" lon="2.31682">
        <ele>129.1</ele>
        <time>2015-01-05T21:03:53.561Z</time>
      </trkpt>
      <trkpt lat="48.83243" lon="2.31687">
        <ele>128.1</ele>
        <time>2015-01-05T21:03:55.595Z</time>
      </trkpt>
      <trkpt lat="48.83239" lon="2.31691">
        <ele>127.9</ele>
        <time>2015-01-05T21:03:56.598Z</time>
      </trkpt>
      <trkpt lat="48.83236" lon="2.31702">
        <ele>127.8</ele>
        <time>2015-01-05T21:03:59.350Z</time>
      </trkpt>
      <trkpt lat="48.83235" lon="2.31708">
        <ele>127.8</ele>
        <time>2015-01-05T21:03:59.535Z</time>
      </trkpt>
      <trkpt lat="48.83232" lon="2.31718">
        <ele>127.2</ele>
        <time>2015-01-05T21:04:01.611Z</time>
      </trkpt>
      <trkpt lat="48.8323" lon="2.31721">
        <ele>126.5</ele>
        <time>2015-01-05T21:04:02.601Z</time>
      </trkpt>
      <trkpt lat="48.83224" lon="2.31726">
        <ele>124.4</ele>
        <time>2015-01-05T21:04:06.615Z</time>
      </trkpt>
      <trkpt lat="48.83222" lon="2.31728">
        <ele>124.1</ele>
        <time>2015-01-05T21:04:07.629Z</time>
      </trkpt>
      <trkpt lat="48.83215" lon="2.31732">
        <ele>121.4</ele>
        <time>2015-01-05T21:04:12.622Z</time>
      </trkpt>
      <trkpt lat="48.83213" lon="2.31735">
        <ele>120.6</ele>
        <time>2015-01-05T21:04:13.567Z</time>
      </trkpt>
      <trkpt lat="48.83206" lon="2.31742">
        <ele>119.7</ele>
        <time>2015-01-05T21:04:17.530Z</time>
      </trkpt>
      <trkpt lat="48.83203" lon="2.31744">
        <ele>120.2</ele>
        <time>2015-01-05T21:04:18.563Z</time>
      </trkpt>
      <trkpt lat="48.83198" lon="2.31755">
        <ele>120.9</ele>
        <time>2015-01-05T21:04:20.573Z</time>
      </trkpt>
      <trkpt lat="48.83197" lon="2.3176">
        <ele>121.4</ele>
        <time>2015-01-05T21:04:21.646Z</time>
      </trkpt>
      <trkpt lat="48.83195" lon="2.3177">
        <ele>122</ele>
        <time>2015-01-05T21:04:23.564Z</time>
      </trkpt>
      <trkpt lat="48.83195" lon="2.31776">
        <ele>122.7</ele>
        <time>2015-01-05T21:04:24.564Z</time>
      </trkpt>
      <trkpt lat="48.83192" lon="2.3178">
        <ele>122.9</ele>
        <time>2015-01-05T21:04:25.575Z</time>
      </trkpt>
      <trkpt lat="48.83187" lon="2.31786">
        <ele>122.9</ele>
        <time>2015-01-05T21:04:26.717Z</time>
      </trkpt>
      <trkpt lat="48.83183" lon="2.3179">
        <ele>122.8</ele>
        <time>2015-01-05T21:04:28.007Z</time>
      </trkpt>
      <trkpt lat="48.8318" lon="2.31795">
        <ele>123.4</ele>
        <time>2015-01-05T21:04:28.571Z</time>
      </trkpt>
      <trkpt lat="48.83176" lon="2.31798">
        <ele>123.6</ele>
        <time>2015-01-05T21:04:29.586Z</time>
      </trkpt>
      <trkpt lat="48.83172" lon="2.31802">
        <ele>124.1</ele>
        <time>2015-01-05T21:04:30.608Z</time>
      </trkpt>
      <trkpt lat="48.83167" lon="2.31809">
        <ele>124.3</ele>
        <time>2015-01-05T21:04:31.537Z</time>
      </trkpt>
      <trkpt lat="48.83163" lon="2.31817">
        <ele>124.8</ele>
        <time>2015-01-05T21:04:32.660Z</time>
      </trkpt>
      <trkpt lat="48.83159" lon="2.31822">
        <ele>125</ele>
        <time>2015-01-05T21:04:33.637Z</time>
      </trkpt>
      <trkpt lat="48.83155" lon="2.31826">
        <ele>125.2</ele>
        <time>2015-01-05T21:04:34.555Z</time>
      </trkpt>
      <trkpt lat="48.8315" lon="2.3183">
        <ele>125.2</ele>
        <time>2015-01-05T21:04:35.553Z</time>
      </trkpt>
      <trkpt lat="48.83145" lon="2.31833">
        <ele>125</ele>
        <time>2015-01-05T21:04:36.554Z</time>
      </trkpt>
      <trkpt lat="48.83138" lon="2.31839">
        <ele>124.9</ele>
        <time>2015-01-05T21:04:38.640Z</time>
      </trkpt>
      <trkpt lat="48.83134" lon="2.31842">
        <ele>124.8</ele>
        <time>2015-01-05T21:04:39.662Z</time>
      </trkpt>
      <trkpt lat="48.8313" lon="2.31845">
        <ele>124.8</ele>
        <time>2015-01-05T21:04:40.550Z</time>
      </trkpt>
      <trkpt lat="48.83125" lon="2.31847">
        <ele>124.9</ele>
        <time>2015-01-05T21:04:41.615Z</time>
      </trkpt>
      <trkpt lat="48.83122" lon="2.31852">
        <ele>125</ele>
        <time>2015-01-05T21:04:43.092Z</time>
      </trkpt>
      <trkpt lat="48.83118" lon="2.31858">
        <ele>125.1</ele>
        <time>2015-01-05T21:04:43.551Z</time>
      </trkpt>
      <trkpt lat="48.83115" lon="2.31864">
        <ele>125.3</ele>
        <time>2015-01-05T21:04:44.569Z</time>
      </trkpt>
      <trkpt lat="48.8311" lon="2.3187">
        <ele>125.3</ele>
        <time>2015-01-05T21:04:45.600Z</time>
      </trkpt>
      <trkpt lat="48.83102" lon="2.31877">
        <ele>125.3</ele>
        <time>2015-01-05T21:04:48.182Z</time>
      </trkpt>
      <trkpt lat="48.83098" lon="2.31881">
        <ele>125.1</ele>
        <time>2015-01-05T21:04:48.522Z</time>
      </trkpt>
      <trkpt lat="48.83092" lon="2.31889">
        <ele>125</ele>
        <time>2015-01-05T21:04:50.610Z</time>
      </trkpt>
      <trkpt lat="48.83089" lon="2.31896">
        <ele>125.2</ele>
        <time>2015-01-05T21:04:51.623Z</time>
      </trkpt>
      <trkpt lat="48.83083" lon="2.319">
        <ele>124.7</ele>
        <time>2015-01-05T21:04:53.557Z</time>
      </trkpt>
      <trkpt lat="48.8308" lon="2.31901">
        <ele>125</ele>
        <time>2015-01-05T21:04:54.589Z</time>
      </trkpt>
      <trkpt lat="48.83074" lon="2.31904">
        <ele>124.7</ele>
        <time>2015-01-05T21:04:56.574Z</time>
      </trkpt>
      <trkpt lat="48.83071" lon="2.31907">
        <ele>124.7</ele>
        <time>2015-01-05T21:04:57.628Z</time>
      </trkpt>
      <trkpt lat="48.83066" lon="2.31912">
        <ele>125.3</ele>
        <time>2015-01-05T21:04:59.591Z</time>
      </trkpt>
      <trkpt lat="48.83063" lon="2.31914">
        <ele>125.8</ele>
        <time>2015-01-05T21:05:00.606Z</time>
      </trkpt>
      <trkpt lat="48.83064" lon="2.31924">
        <ele>124.1</ele>
        <time>2015-01-05T21:05:16.624Z</time>
      </trkpt>
      <trkpt lat="48.8307" lon="2.31937">
        <ele>120.3</ele>
        <time>2015-01-05T21:05:17.633Z</time>
      </trkpt>
      <trkpt lat="48.83107" lon="2.32013">
        <ele>119.5</ele>
        <time>2015-01-05T21:05:38.568Z</time>
      </trkpt>
      <trkpt lat="48.83112" lon="2.32011">
        <ele>118.1</ele>
        <time>2015-01-05T21:05:39.643Z</time>
      </trkpt>
      <trkpt lat="48.83117" lon="2.3201">
        <ele>116.8</ele>
        <time>2015-01-05T21:05:40.584Z</time>
      </trkpt>
      <trkpt lat="48.83121" lon="2.3202">
        <ele>117.4</ele>
        <time>2015-01-05T21:05:43.021Z</time>
      </trkpt>
      <trkpt lat="48.83124" lon="2.32025">
        <ele>118.1</ele>
        <time>2015-01-05T21:05:43.525Z</time>
      </trkpt>
      <trkpt lat="48.83128" lon="2.32029">
        <ele>118.6</ele>
        <time>2015-01-05T21:05:44.577Z</time>
      </trkpt>
      <trkpt lat="48.8313" lon="2.32035">
        <ele>120</ele>
        <time>2015-01-05T21:05:45.577Z</time>
      </trkpt>
      <trkpt lat="48.83134" lon="2.32039">
        <ele>121.2</ele>
        <time>2015-01-05T21:05:46.582Z</time>
      </trkpt>
      <trkpt lat="48.83138" lon="2.3204">
        <ele>121.8</ele>
        <time>2015-01-05T21:05:47.603Z</time>
      </trkpt>
      <trkpt lat="48.83138" lon="2.3204">
        <ele>121.8</ele>
        <time>2015-01-05T21:05:48.038Z</time>
      </trkpt>
      <trkpt lat="48.83149" lon="2.32032">
        <ele>120.6</ele>
        <time>2015-01-05T21:05:48.609Z</time>
      </trkpt>
      <trkpt lat="48.83159" lon="2.32022">
        <ele>119.3</ele>
        <time>2015-01-05T21:05:49.617Z</time>
      </trkpt>
      <trkpt lat="48.83167" lon="2.32016">
        <ele>118.4</ele>
        <time>2015-01-05T21:05:50.570Z</time>
      </trkpt>
      <trkpt lat="48.83172" lon="2.32014">
        <ele>118.1</ele>
        <time>2015-01-05T21:05:51.619Z</time>
      </trkpt>
      <trkpt lat="48.83177" lon="2.32016">
        <ele>118.2</ele>
        <time>2015-01-05T21:05:53.110Z</time>
      </trkpt>
      <trkpt lat="48.83182" lon="2.3202">
        <ele>117.9</ele>
        <time>2015-01-05T21:05:53.537Z</time>
      </trkpt>
      <trkpt lat="48.83187" lon="2.32027">
        <ele>117.9</ele>
        <time>2015-01-05T21:05:55.593Z</time>
      </trkpt>
      <trkpt lat="48.83192" lon="2.32029">
        <ele>118.4</ele>
        <time>2015-01-05T21:05:56.609Z</time>
      </trkpt>
      <trkpt lat="48.83196" lon="2.32032">
        <ele>118.7</ele>
        <time>2015-01-05T21:05:58.134Z</time>
      </trkpt>
      <trkpt lat="48.832" lon="2.32034">
        <ele>118.9</ele>
        <time>2015-01-05T21:05:58.543Z</time>
      </trkpt>
      <trkpt lat="48.83208" lon="2.32038">
        <ele>119.1</ele>
        <time>2015-01-05T21:06:00.564Z</time>
      </trkpt>
      <trkpt lat="48.83212" lon="2.32038">
        <ele>119.1</ele>
        <time>2015-01-05T21:06:01.586Z</time>
      </trkpt>
      <trkpt lat="48.83217" lon="2.32038">
        <ele>119.2</ele>
        <time>2015-01-05T21:06:03.132Z</time>
      </trkpt>
      <trkpt lat="48.83221" lon="2.32039">
        <ele>119.6</ele>
        <time>2015-01-05T21:06:03.615Z</time>
      </trkpt>
      <trkpt lat="48.8323" lon="2.32044">
        <ele>120.6</ele>
        <time>2015-01-05T21:06:05.576Z</time>
      </trkpt>
      <trkpt lat="48.83231" lon="2.32048">
        <ele>121.1</ele>
        <time>2015-01-05T21:06:06.567Z</time>
      </trkpt>
      <trkpt lat="48.83235" lon="2.32047">
        <ele>121.6</ele>
        <time>2015-01-05T21:06:08.226Z</time>
      </trkpt>
      <trkpt lat="48.83241" lon="2.32044">
        <ele>122</ele>
        <time>2015-01-05T21:06:08.576Z</time>
      </trkpt>
      <trkpt lat="48.83245" lon="2.32043">
        <ele>122.3</ele>
        <time>2015-01-05T21:06:09.605Z</time>
      </trkpt>
      <trkpt lat="48.83251" lon="2.32046">
        <ele>121.8</ele>
        <time>2015-01-05T21:06:10.520Z</time>
      </trkpt>
      <trkpt lat="48.83255" lon="2.32052">
        <ele>121.3</ele>
        <time>2015-01-05T21:06:11.544Z</time>
      </trkpt>
      <trkpt lat="48.83258" lon="2.32055">
        <ele>121.3</ele>
        <time>2015-01-05T21:06:12.567Z</time>
      </trkpt>
      <trkpt lat="48.83262" lon="2.32059">
        <ele>121.4</ele>
        <time>2015-01-05T21:06:13.855Z</time>
      </trkpt>
      <trkpt lat="48.83352" lon="2.32136">
        <ele>121</ele>
        <time>2015-01-05T21:06:37.577Z</time>
      </trkpt>
      <trkpt lat="48.83358" lon="2.32144">
        <ele>121.7</ele>
        <time>2015-01-05T21:06:39.570Z</time>
      </trkpt>
      <trkpt lat="48.8336" lon="2.3215">
        <ele>122.4</ele>
        <time>2015-01-05T21:06:40.604Z</time>
      </trkpt>
      <trkpt lat="48.83361" lon="2.32163">
        <ele>123.3</ele>
        <time>2015-01-05T21:06:42.534Z</time>
      </trkpt>
      <trkpt lat="48.8336" lon="2.32172">
        <ele>123.4</ele>
        <time>2015-01-05T21:06:43.554Z</time>
      </trkpt>
      <trkpt lat="48.8336" lon="2.32182">
        <ele>123.6</ele>
        <time>2015-01-05T21:06:44.603Z</time>
      </trkpt>
      <trkpt lat="48.83359" lon="2.32192">
        <ele>123.5</ele>
        <time>2015-01-05T21:06:45.602Z</time>
      </trkpt>
      <trkpt lat="48.83361" lon="2.32202">
        <ele>121.6</ele>
        <time>2015-01-05T21:06:46.518Z</time>
      </trkpt>
      <trkpt lat="48.83363" lon="2.32208">
        <ele>119.8</ele>
        <time>2015-01-05T21:06:47.523Z</time>
      </trkpt>
      <trkpt lat="48.83364" lon="2.32215">
        <ele>118.8</ele>
        <time>2015-01-05T21:06:48.530Z</time>
      </trkpt>
      <trkpt lat="48.83364" lon="2.32223">
        <ele>119</ele>
        <time>2015-01-05T21:06:49.537Z</time>
      </trkpt>
      <trkpt lat="48.83371" lon="2.32228">
        <ele>118.5</ele>
        <time>2015-01-05T21:06:52.605Z</time>
      </trkpt>
      <trkpt lat="48.83376" lon="2.32225">
        <ele>118.7</ele>
        <time>2015-01-05T21:06:53.570Z</time>
      </trkpt>
      <trkpt lat="48.83381" lon="2.32223">
        <ele>119.1</ele>
        <time>2015-01-05T21:06:54.538Z</time>
      </trkpt>
      <trkpt lat="48.83386" lon="2.32221">
        <ele>119.7</ele>
        <time>2015-01-05T21:06:55.567Z</time>
      </trkpt>
      <trkpt lat="48.83391" lon="2.32219">
        <ele>119.7</ele>
        <time>2015-01-05T21:06:56.585Z</time>
      </trkpt>
      <trkpt lat="48.83395" lon="2.32218">
        <ele>119.8</ele>
        <time>2015-01-05T21:06:57.583Z</time>
      </trkpt>
      <trkpt lat="48.83399" lon="2.32215">
        <ele>120</ele>
        <time>2015-01-05T21:06:58.595Z</time>
      </trkpt>
      <trkpt lat="48.83407" lon="2.32201">
        <ele>119.8</ele>
        <time>2015-01-05T21:06:59.602Z</time>
      </trkpt>
      <trkpt lat="48.83409" lon="2.32197">
        <ele>119.2</ele>
        <time>2015-01-05T21:07:03.525Z</time>
      </trkpt>
      <trkpt lat="48.83421" lon="2.32189">
        <ele>120</ele>
        <time>2015-01-05T21:07:04.540Z</time>
      </trkpt>
      <trkpt lat="48.83429" lon="2.32188">
        <ele>120.6</ele>
        <time>2015-01-05T21:07:06.544Z</time>
      </trkpt>
      <trkpt lat="48.83433" lon="2.32189">
        <ele>120.4</ele>
        <time>2015-01-05T21:07:07.557Z</time>
      </trkpt>
      <trkpt lat="48.83438" lon="2.32192">
        <ele>119.8</ele>
        <time>2015-01-05T21:07:09.617Z</time>
      </trkpt>
      <trkpt lat="48.83441" lon="2.32194">
        <ele>119.8</ele>
        <time>2015-01-05T21:07:10.529Z</time>
      </trkpt>
      <trkpt lat="48.83448" lon="2.322">
        <ele>120.2</ele>
        <time>2015-01-05T21:07:13.569Z</time>
      </trkpt>
      <trkpt lat="48.83451" lon="2.32202">
        <ele>120.8</ele>
        <time>2015-01-05T21:07:14.623Z</time>
      </trkpt>
      <trkpt lat="48.83457" lon="2.32211">
        <ele>121.1</ele>
        <time>2015-01-05T21:07:16.520Z</time>
      </trkpt>
      <trkpt lat="48.83458" lon="2.32217">
        <ele>121.2</ele>
        <time>2015-01-05T21:07:17.539Z</time>
      </trkpt>
      <trkpt lat="48.83458" lon="2.3223">
        <ele>121.5</ele>
        <time>2015-01-05T21:07:19.572Z</time>
      </trkpt>
      <trkpt lat="48.83458" lon="2.32235">
        <ele>121.6</ele>
        <time>2015-01-05T21:07:20.580Z</time>
      </trkpt>
      <trkpt lat="48.83459" lon="2.32246">
        <ele>122.1</ele>
        <time>2015-01-05T21:07:22.518Z</time>
      </trkpt>
      <trkpt lat="48.8346" lon="2.3225">
        <ele>122.6</ele>
        <time>2015-01-05T21:07:23.530Z</time>
      </trkpt>
      <trkpt lat="48.83463" lon="2.3226">
        <ele>123.7</ele>
        <time>2015-01-05T21:07:26.696Z</time>
      </trkpt>
      <trkpt lat="48.83464" lon="2.32263">
        <ele>124</ele>
        <time>2015-01-05T21:07:27.529Z</time>
      </trkpt>
      <trkpt lat="48.83468" lon="2.32274">
        <ele>123.8</ele>
        <time>2015-01-05T21:07:30.591Z</time>
      </trkpt>
      <trkpt lat="48.83468" lon="2.3228">
        <ele>123.5</ele>
        <time>2015-01-05T21:07:31.524Z</time>
      </trkpt>
      <trkpt lat="48.83468" lon="2.32287">
        <ele>123.1</ele>
        <time>2015-01-05T21:07:32.576Z</time>
      </trkpt>
      <trkpt lat="48.83471" lon="2.32312">
        <ele>122.5</ele>
        <time>2015-01-05T21:07:36.515Z</time>
      </trkpt>
      <trkpt lat="48.83476" lon="2.32318">
        <ele>121.9</ele>
        <time>2015-01-05T21:07:39.560Z</time>
      </trkpt>
      <trkpt lat="48.83482" lon="2.32316">
        <ele>121.6</ele>
        <time>2015-01-05T21:07:40.580Z</time>
      </trkpt>
      <trkpt lat="48.8349" lon="2.32318">
        <ele>121.9</ele>
        <time>2015-01-05T21:07:42.524Z</time>
      </trkpt>
      <trkpt lat="48.83494" lon="2.32321">
        <ele>121.7</ele>
        <time>2015-01-05T21:07:43.541Z</time>
      </trkpt>
      <trkpt lat="48.8351" lon="2.32334">
        <ele>122.5</ele>
        <time>2015-01-05T21:07:49.557Z</time>
      </trkpt>
      <trkpt lat="48.83517" lon="2.32333">
        <ele>122.8</ele>
        <time>2015-01-05T21:07:52.594Z</time>
      </trkpt>
      <trkpt lat="48.83519" lon="2.32335">
        <ele>122.8</ele>
        <time>2015-01-05T21:07:53.615Z</time>
      </trkpt>
      <trkpt lat="48.83522" lon="2.32347">
        <ele>123.5</ele>
        <time>2015-01-05T21:07:56.540Z</time>
      </trkpt>
      <trkpt lat="48.83522" lon="2.32353">
        <ele>124.2</ele>
        <time>2015-01-05T21:07:57.553Z</time>
      </trkpt>
      <trkpt lat="48.83523" lon="2.32364">
        <ele>125.9</ele>
        <time>2015-01-05T21:07:59.602Z</time>
      </trkpt>
      <trkpt lat="48.83523" lon="2.32371">
        <ele>127.2</ele>
        <time>2015-01-05T21:08:00.490Z</time>
      </trkpt>
      <trkpt lat="48.83523" lon="2.32382">
        <ele>129</ele>
        <time>2015-01-05T21:08:02.569Z</time>
      </trkpt>
      <trkpt lat="48.83522" lon="2.32393">
        <ele>129.9</ele>
        <time>2015-01-05T21:08:03.583Z</time>
      </trkpt>
      <trkpt lat="48.83522" lon="2.32406">
        <ele>130.6</ele>
        <time>2015-01-05T21:08:05.517Z</time>
      </trkpt>
      <trkpt lat="48.83522" lon="2.32408">
        <ele>131</ele>
        <time>2015-01-05T21:08:06.525Z</time>
      </trkpt>
      <trkpt lat="48.83525" lon="2.32409">
        <ele>132.8</ele>
        <time>2015-01-05T21:08:18.537Z</time>
      </trkpt>
      <trkpt lat="48.83543" lon="2.32394">
        <ele>138.5</ele>
        <time>2015-01-05T21:08:19.547Z</time>
      </trkpt>
      <trkpt lat="48.83549" lon="2.3239">
        <ele>139</ele>
        <time>2015-01-05T21:08:21.594Z</time>
      </trkpt>
      <trkpt lat="48.83553" lon="2.32387">
        <ele>139.3</ele>
        <time>2015-01-05T21:08:22.605Z</time>
      </trkpt>
      <trkpt lat="48.83559" lon="2.32377">
        <ele>141.4</ele>
        <time>2015-01-05T21:08:26.620Z</time>
      </trkpt>
      <trkpt lat="48.83562" lon="2.32374">
        <ele>142.6</ele>
        <time>2015-01-05T21:08:27.541Z</time>
      </trkpt>
      <trkpt lat="48.83568" lon="2.32371">
        <ele>144</ele>
        <time>2015-01-05T21:08:29.528Z</time>
      </trkpt>
      <trkpt lat="48.8357" lon="2.32371">
        <ele>144.6</ele>
        <time>2015-01-05T21:08:30.543Z</time>
      </trkpt>
      <trkpt lat="48.83577" lon="2.32372">
        <ele>143.7</ele>
        <time>2015-01-05T21:08:32.576Z</time>
      </trkpt>
      <trkpt lat="48.8358" lon="2.32373">
        <ele>143.4</ele>
        <time>2015-01-05T21:08:33.504Z</time>
      </trkpt>
      <trkpt lat="48.83588" lon="2.32372">
        <ele>143.7</ele>
        <time>2015-01-05T21:08:36.566Z</time>
      </trkpt>
      <trkpt lat="48.83589" lon="2.32371">
        <ele>144.1</ele>
        <time>2015-01-05T21:08:37.578Z</time>
      </trkpt>
      <trkpt lat="48.83597" lon="2.32368">
        <ele>145.7</ele>
        <time>2015-01-05T21:08:40.572Z</time>
      </trkpt>
      <trkpt lat="48.83599" lon="2.32367">
        <ele>146</ele>
        <time>2015-01-05T21:08:41.615Z</time>
      </trkpt>
      <trkpt lat="48.83597" lon="2.32374">
        <ele>147.8</ele>
        <time>2015-01-05T21:08:50.590Z</time>
      </trkpt>
      <trkpt lat="48.83595" lon="2.32379">
        <ele>147.9</ele>
        <time>2015-01-05T21:08:51.603Z</time>
      </trkpt>
      <trkpt lat="48.83591" lon="2.32388">
        <ele>148.5</ele>
        <time>2015-01-05T21:08:53.594Z</time>
      </trkpt>
      <trkpt lat="48.83589" lon="2.32392">
        <ele>148.4</ele>
        <time>2015-01-05T21:08:54.582Z</time>
      </trkpt>
      <trkpt lat="48.83584" lon="2.32402">
        <ele>148.9</ele>
        <time>2015-01-05T21:08:56.614Z</time>
      </trkpt>
      <trkpt lat="48.83582" lon="2.32409">
        <ele>149.4</ele>
        <time>2015-01-05T21:08:57.629Z</time>
      </trkpt>
      <trkpt lat="48.8358" lon="2.32415">
        <ele>149.6</ele>
        <time>2015-01-05T21:08:58.546Z</time>
      </trkpt>
      <trkpt lat="48.83578" lon="2.32423">
        <ele>149.6</ele>
        <time>2015-01-05T21:09:00.540Z</time>
      </trkpt>
      <trkpt lat="48.83577" lon="2.32436">
        <ele>148.4</ele>
        <time>2015-01-05T21:09:05.527Z</time>
      </trkpt>
      <trkpt lat="48.83578" lon="2.32439">
        <ele>148.1</ele>
        <time>2015-01-05T21:09:06.535Z</time>
      </trkpt>
      <trkpt lat="48.83576" lon="2.32451">
        <ele>146.5</ele>
        <time>2015-01-05T21:09:08.591Z</time>
      </trkpt>
      <trkpt lat="48.83575" lon="2.32456">
        <ele>146.1</ele>
        <time>2015-01-05T21:09:09.604Z</time>
      </trkpt>
      <trkpt lat="48.83572" lon="2.32467">
        <ele>145.7</ele>
        <time>2015-01-05T21:09:11.559Z</time>
      </trkpt>
      <trkpt lat="48.83571" lon="2.32472">
        <ele>145.6</ele>
        <time>2015-01-05T21:09:12.575Z</time>
      </trkpt>
      <trkpt lat="48.83567" lon="2.32482">
        <ele>145.3</ele>
        <time>2015-01-05T21:09:15.553Z</time>
      </trkpt>
      <trkpt lat="48.83567" lon="2.32489">
        <ele>144.3</ele>
        <time>2015-01-05T21:09:16.579Z</time>
      </trkpt>
      <trkpt lat="48.83571" lon="2.325">
        <ele>142.2</ele>
        <time>2015-01-05T21:09:18.551Z</time>
      </trkpt>
      <trkpt lat="48.83571" lon="2.32501">
        <ele>141.8</ele>
        <time>2015-01-05T21:09:19.564Z</time>
      </trkpt>
      <trkpt lat="48.83562" lon="2.32499">
        <ele>137.6</ele>
        <time>2015-01-05T21:10:38.607Z</time>
      </trkpt>
      <trkpt lat="48.83562" lon="2.32499">
        <ele>137.7</ele>
        <time>2015-01-05T21:10:39.525Z</time>
      </trkpt>
      <trkpt lat="48.8356" lon="2.32512">
        <ele>140.8</ele>
        <time>2015-01-05T21:11:44.721Z</time>
      </trkpt>
      <trkpt lat="48.8356" lon="2.32515">
        <ele>140.6</ele>
        <time>2015-01-05T21:11:45.528Z</time>
      </trkpt>
      <trkpt lat="48.8356" lon="2.32517">
        <ele>140.2</ele>
        <time>2015-01-05T21:12:07.536Z</time>
      </trkpt>
      <trkpt lat="48.83555" lon="2.32549">
        <ele>132.7</ele>
        <time>2015-01-05T21:12:08.551Z</time>
      </trkpt>
      <trkpt lat="48.83555" lon="2.32559">
        <ele>130.3</ele>
        <time>2015-01-05T21:12:15.680Z</time>
      </trkpt>
      <trkpt lat="48.83546" lon="2.32569">
        <ele>128.9</ele>
        <time>2015-01-05T21:12:16.520Z</time>
      </trkpt>
      <trkpt lat="48.83538" lon="2.32574">
        <ele>128.7</ele>
        <time>2015-01-05T21:12:19.537Z</time>
      </trkpt>
      <trkpt lat="48.83535" lon="2.32578">
        <ele>128.6</ele>
        <time>2015-01-05T21:12:20.558Z</time>
      </trkpt>
      <trkpt lat="48.83531" lon="2.32588">
        <ele>129</ele>
        <time>2015-01-05T21:12:22.520Z</time>
      </trkpt>
      <trkpt lat="48.83529" lon="2.32591">
        <ele>129.1</ele>
        <time>2015-01-05T21:12:23.530Z</time>
      </trkpt>
      <trkpt lat="48.83525" lon="2.32602">
        <ele>128.8</ele>
        <time>2015-01-05T21:12:26.639Z</time>
      </trkpt>
      <trkpt lat="48.83525" lon="2.32611">
        <ele>127.8</ele>
        <time>2015-01-05T21:12:27.533Z</time>
      </trkpt>
      <trkpt lat="48.83526" lon="2.32623">
        <ele>127.4</ele>
        <time>2015-01-05T21:12:30.578Z</time>
      </trkpt>
      <trkpt lat="48.83524" lon="2.32626">
        <ele>126.9</ele>
        <time>2015-01-05T21:12:31.696Z</time>
      </trkpt>
      <trkpt lat="48.8352" lon="2.32631">
        <ele>126.5</ele>
        <time>2015-01-05T21:12:33.586Z</time>
      </trkpt>
      <trkpt lat="48.83517" lon="2.32636">
        <ele>126.2</ele>
        <time>2015-01-05T21:12:34.604Z</time>
      </trkpt>
      <trkpt lat="48.83514" lon="2.32646">
        <ele>125.7</ele>
        <time>2015-01-05T21:12:36.545Z</time>
      </trkpt>
      <trkpt lat="48.83513" lon="2.32651">
        <ele>125.1</ele>
        <time>2015-01-05T21:12:37.520Z</time>
      </trkpt>
      <trkpt lat="48.83511" lon="2.32663">
        <ele>123.1</ele>
        <time>2015-01-05T21:12:39.551Z</time>
      </trkpt>
      <trkpt lat="48.8351" lon="2.32665">
        <ele>123</ele>
        <time>2015-01-05T21:12:40.643Z</time>
      </trkpt>
      <trkpt lat="48.83506" lon="2.32676">
        <ele>124.2</ele>
        <time>2015-01-05T21:12:45.620Z</time>
      </trkpt>
      <trkpt lat="48.83503" lon="2.32679">
        <ele>124.3</ele>
        <time>2015-01-05T21:12:46.533Z</time>
      </trkpt>
      <trkpt lat="48.83502" lon="2.32684">
        <ele>124.4</ele>
        <time>2015-01-05T21:12:48.568Z</time>
      </trkpt>
      <trkpt lat="48.83499" lon="2.32693">
        <ele>125.3</ele>
        <time>2015-01-05T21:12:49.590Z</time>
      </trkpt>
      <trkpt lat="48.83495" lon="2.32702">
        <ele>126</ele>
        <time>2015-01-05T21:12:51.523Z</time>
      </trkpt>
      <trkpt lat="48.83491" lon="2.3271">
        <ele>126</ele>
        <time>2015-01-05T21:12:52.530Z</time>
      </trkpt>
      <trkpt lat="48.83487" lon="2.32718">
        <ele>126.1</ele>
        <time>2015-01-05T21:12:53.538Z</time>
      </trkpt>
      <trkpt lat="48.83486" lon="2.32725">
        <ele>126</ele>
        <time>2015-01-05T21:12:54.543Z</time>
      </trkpt>
      <trkpt lat="48.83484" lon="2.32732">
        <ele>125.9</ele>
        <time>2015-01-05T21:12:55.573Z</time>
      </trkpt>
      <trkpt lat="48.83481" lon="2.32738">
        <ele>125.8</ele>
        <time>2015-01-05T21:12:56.569Z</time>
      </trkpt>
      <trkpt lat="48.83475" lon="2.32745">
        <ele>125.2</ele>
        <time>2015-01-05T21:12:57.486Z</time>
      </trkpt>
      <trkpt lat="48.8347" lon="2.32752">
        <ele>124.8</ele>
        <time>2015-01-05T21:12:58.517Z</time>
      </trkpt>
      <trkpt lat="48.83463" lon="2.32759">
        <ele>125.2</ele>
        <time>2015-01-05T21:13:00.537Z</time>
      </trkpt>
      <trkpt lat="48.8346" lon="2.32762">
        <ele>125.5</ele>
        <time>2015-01-05T21:13:01.540Z</time>
      </trkpt>
      <trkpt lat="48.83455" lon="2.32772">
        <ele>125.8</ele>
        <time>2015-01-05T21:13:03.573Z</time>
      </trkpt>
      <trkpt lat="48.83453" lon="2.32779">
        <ele>125.6</ele>
        <time>2015-01-05T21:13:04.581Z</time>
      </trkpt>
      <trkpt lat="48.83451" lon="2.3279">
        <ele>125.9</ele>
        <time>2015-01-05T21:13:07.209Z</time>
      </trkpt>
      <trkpt lat="48.8345" lon="2.32796">
        <ele>125.9</ele>
        <time>2015-01-05T21:13:07.561Z</time>
      </trkpt>
      <trkpt lat="48.83449" lon="2.32802">
        <ele>125.8</ele>
        <time>2015-01-05T21:13:08.571Z</time>
      </trkpt>
      <trkpt lat="48.83447" lon="2.3281">
        <ele>125.6</ele>
        <time>2015-01-05T21:13:09.574Z</time>
      </trkpt>
      <trkpt lat="48.83445" lon="2.32823">
        <ele>124.9</ele>
        <time>2015-01-05T21:13:12.311Z</time>
      </trkpt>
      <trkpt lat="48.83444" lon="2.32826">
        <ele>125.1</ele>
        <time>2015-01-05T21:13:12.524Z</time>
      </trkpt>
      <trkpt lat="48.83444" lon="2.32836">
        <ele>125.5</ele>
        <time>2015-01-05T21:13:15.573Z</time>
      </trkpt>
      <trkpt lat="48.83442" lon="2.32842">
        <ele>125.4</ele>
        <time>2015-01-05T21:13:16.580Z</time>
      </trkpt>
      <trkpt lat="48.83438" lon="2.32851">
        <ele>125.5</ele>
        <time>2015-01-05T21:13:18.591Z</time>
      </trkpt>
      <trkpt lat="48.83435" lon="2.32855">
        <ele>125.5</ele>
        <time>2015-01-05T21:13:19.591Z</time>
      </trkpt>
      <trkpt lat="48.83432" lon="2.32859">
        <ele>125.4</ele>
        <time>2015-01-05T21:13:20.625Z</time>
      </trkpt>
      <trkpt lat="48.83429" lon="2.32867">
        <ele>125.3</ele>
        <time>2015-01-05T21:13:21.508Z</time>
      </trkpt>
      <trkpt lat="48.83427" lon="2.32874">
        <ele>125.2</ele>
        <time>2015-01-05T21:13:22.504Z</time>
      </trkpt>
      <trkpt lat="48.83423" lon="2.32882">
        <ele>125.1</ele>
        <time>2015-01-05T21:13:23.512Z</time>
      </trkpt>
      <trkpt lat="48.83419" lon="2.32891">
        <ele>124.8</ele>
        <time>2015-01-05T21:13:24.518Z</time>
      </trkpt>
      <trkpt lat="48.83417" lon="2.329">
        <ele>124.9</ele>
        <time>2015-01-05T21:13:25.609Z</time>
      </trkpt>
      <trkpt lat="48.83413" lon="2.32907">
        <ele>125</ele>
        <time>2015-01-05T21:13:27.458Z</time>
      </trkpt>
      <trkpt lat="48.8341" lon="2.32912">
        <ele>125.2</ele>
        <time>2015-01-05T21:13:27.581Z</time>
      </trkpt>
      <trkpt lat="48.83405" lon="2.32915">
        <ele>125.6</ele>
        <time>2015-01-05T21:13:48.531Z</time>
      </trkpt>
      <trkpt lat="48.8341" lon="2.32928">
        <ele>127.4</ele>
        <time>2015-01-05T21:13:49.590Z</time>
      </trkpt>
      <trkpt lat="48.83404" lon="2.32933">
        <ele>128.6</ele>
        <time>2015-01-05T21:13:55.525Z</time>
      </trkpt>
      <trkpt lat="48.834" lon="2.32937">
        <ele>129</ele>
        <time>2015-01-05T21:13:56.537Z</time>
      </trkpt>
      <trkpt lat="48.83397" lon="2.32942">
        <ele>129</ele>
        <time>2015-01-05T21:13:57.547Z</time>
      </trkpt>
      <trkpt lat="48.83395" lon="2.3295">
        <ele>129.1</ele>
        <time>2015-01-05T21:13:58.568Z</time>
      </trkpt>
      <trkpt lat="48.83394" lon="2.32961">
        <ele>128.4</ele>
        <time>2015-01-05T21:13:59.477Z</time>
      </trkpt>
      <trkpt lat="48.83391" lon="2.32969">
        <ele>128.1</ele>
        <time>2015-01-05T21:14:00.516Z</time>
      </trkpt>
      <trkpt lat="48.83386" lon="2.32976">
        <ele>128.6</ele>
        <time>2015-01-05T21:14:02.564Z</time>
      </trkpt>
      <trkpt lat="48.83333" lon="2.33078">
        <ele>131.5</ele>
        <time>2015-01-05T21:14:32.597Z</time>
      </trkpt>
      <trkpt lat="48.83331" lon="2.33086">
        <ele>130.4</ele>
        <time>2015-01-05T21:14:33.559Z</time>
      </trkpt>
      <trkpt lat="48.83332" lon="2.33095">
        <ele>127.6</ele>
        <time>2015-01-05T21:14:34.517Z</time>
      </trkpt>
      <trkpt lat="48.83333" lon="2.33103">
        <ele>125.3</ele>
        <time>2015-01-05T21:14:51.554Z</time>
      </trkpt>
      <trkpt lat="48.83332" lon="2.33148">
        <ele>118.2</ele>
        <time>2015-01-05T21:14:52.516Z</time>
      </trkpt>
      <trkpt lat="48.83327" lon="2.33156">
        <ele>118.6</ele>
        <time>2015-01-05T21:14:54.545Z</time>
      </trkpt>
      <trkpt lat="48.83325" lon="2.3316">
        <ele>119.1</ele>
        <time>2015-01-05T21:14:55.542Z</time>
      </trkpt>
      <trkpt lat="48.83334" lon="2.33165">
        <ele>120.6</ele>
        <time>2015-01-05T21:15:04.512Z</time>
      </trkpt>
      <trkpt lat="48.83336" lon="2.33167">
        <ele>119.9</ele>
        <time>2015-01-05T21:15:05.650Z</time>
      </trkpt>
      <trkpt lat="48.83339" lon="2.33175">
        <ele>120</ele>
        <time>2015-01-05T21:15:08.613Z</time>
      </trkpt>
      <trkpt lat="48.8334" lon="2.3318">
        <ele>119.8</ele>
        <time>2015-01-05T21:15:08.676Z</time>
      </trkpt>
      <trkpt lat="48.83341" lon="2.33192">
        <ele>119.8</ele>
        <time>2015-01-05T21:15:10.510Z</time>
      </trkpt>
      <trkpt lat="48.83341" lon="2.33199">
        <ele>119.9</ele>
        <time>2015-01-05T21:15:11.556Z</time>
      </trkpt>
      <trkpt lat="48.8334" lon="2.33206">
        <ele>119.7</ele>
        <time>2015-01-05T21:15:12.567Z</time>
      </trkpt>
      <trkpt lat="48.83339" lon="2.33214">
        <ele>119.5</ele>
        <time>2015-01-05T21:15:13.572Z</time>
      </trkpt>
      <trkpt lat="48.83339" lon="2.33221">
        <ele>119.6</ele>
        <time>2015-01-05T21:15:14.587Z</time>
      </trkpt>
      <trkpt lat="48.83338" lon="2.33228">
        <ele>119.4</ele>
        <time>2015-01-05T21:15:15.588Z</time>
      </trkpt>
      <trkpt lat="48.83337" lon="2.33237">
        <ele>119</ele>
        <time>2015-01-05T21:15:16.614Z</time>
      </trkpt>
      <trkpt lat="48.83336" lon="2.33247">
        <ele>119</ele>
        <time>2015-01-05T21:15:17.588Z</time>
      </trkpt>
      <trkpt lat="48.8334" lon="2.33249">
        <ele>115.6</ele>
        <time>2015-01-05T21:15:20.562Z</time>
      </trkpt>
      <trkpt lat="48.83346" lon="2.33242">
        <ele>114.1</ele>
        <time>2015-01-05T21:15:21.631Z</time>
      </trkpt>
      <trkpt lat="48.83352" lon="2.33233">
        <ele>112.9</ele>
        <time>2015-01-05T21:15:22.624Z</time>
      </trkpt>
      <trkpt lat="48.83356" lon="2.33232">
        <ele>113.3</ele>
        <time>2015-01-05T21:15:23.513Z</time>
      </trkpt>
      <trkpt lat="48.83359" lon="2.33231">
        <ele>113.8</ele>
        <time>2015-01-05T21:15:27.562Z</time>
      </trkpt>
      <trkpt lat="48.83367" lon="2.33235">
        <ele>114.3</ele>
        <time>2015-01-05T21:15:28.580Z</time>
      </trkpt>
      <trkpt lat="48.83371" lon="2.33241">
        <ele>114.4</ele>
        <time>2015-01-05T21:15:30.529Z</time>
      </trkpt>
      <trkpt lat="48.83372" lon="2.33246">
        <ele>113.9</ele>
        <time>2015-01-05T21:15:31.542Z</time>
      </trkpt>
      <trkpt lat="48.83373" lon="2.33252">
        <ele>113.3</ele>
        <time>2015-01-05T21:15:32.611Z</time>
      </trkpt>
      <trkpt lat="48.83374" lon="2.3326">
        <ele>112.9</ele>
        <time>2015-01-05T21:15:33.515Z</time>
      </trkpt>
      <trkpt lat="48.8338" lon="2.33269">
        <ele>110.2</ele>
        <time>2015-01-05T21:15:36.538Z</time>
      </trkpt>
      <trkpt lat="48.83381" lon="2.33274">
        <ele>109.7</ele>
        <time>2015-01-05T21:15:37.541Z</time>
      </trkpt>
      <trkpt lat="48.83387" lon="2.33285">
        <ele>108.4</ele>
        <time>2015-01-05T21:15:40.626Z</time>
      </trkpt>
      <trkpt lat="48.83388" lon="2.33288">
        <ele>108.1</ele>
        <time>2015-01-05T21:15:41.535Z</time>
      </trkpt>
      <trkpt lat="48.83396" lon="2.33292">
        <ele>107.1</ele>
        <time>2015-01-05T21:15:44.577Z</time>
      </trkpt>
      <trkpt lat="48.83399" lon="2.33294">
        <ele>106.7</ele>
        <time>2015-01-05T21:15:45.579Z</time>
      </trkpt>
      <trkpt lat="48.83406" lon="2.33294">
        <ele>107.2</ele>
        <time>2015-01-05T21:15:47.540Z</time>
      </trkpt>
      <trkpt lat="48.8341" lon="2.33294">
        <ele>107.6</ele>
        <time>2015-01-05T21:15:48.574Z</time>
      </trkpt>
      <trkpt lat="48.8341" lon="2.33294">
        <ele>107.6</ele>
        <time>2015-01-05T21:16:07.569Z</time>
      </trkpt>
      <trkpt lat="48.83426" lon="2.33292">
        <ele>108.4</ele>
        <time>2015-01-05T21:16:08.670Z</time>
      </trkpt>
      <trkpt lat="48.83433" lon="2.33298">
        <ele>108.6</ele>
        <time>2015-01-05T21:16:12.621Z</time>
      </trkpt>
      <trkpt lat="48.83435" lon="2.33299">
        <ele>108.6</ele>
        <time>2015-01-05T21:16:13.561Z</time>
      </trkpt>
      <trkpt lat="48.83443" lon="2.33298">
        <ele>109.2</ele>
        <time>2015-01-05T21:16:16.637Z</time>
      </trkpt>
      <trkpt lat="48.83447" lon="2.33297">
        <ele>110.1</ele>
        <time>2015-01-05T21:16:17.552Z</time>
      </trkpt>
      <trkpt lat="48.83455" lon="2.33295">
        <ele>112.3</ele>
        <time>2015-01-05T21:16:19.571Z</time>
      </trkpt>
      <trkpt lat="48.83458" lon="2.33294">
        <ele>113.1</ele>
        <time>2015-01-05T21:16:20.628Z</time>
      </trkpt>
      <trkpt lat="48.83466" lon="2.33291">
        <ele>113.7</ele>
        <time>2015-01-05T21:16:22.543Z</time>
      </trkpt>
      <trkpt lat="48.83467" lon="2.33289">
        <ele>113.6</ele>
        <time>2015-01-05T21:16:23.552Z</time>
      </trkpt>
      <trkpt lat="48.83474" lon="2.33284">
        <ele>114</ele>
        <time>2015-01-05T21:16:26.625Z</time>
      </trkpt>
      <trkpt lat="48.83476" lon="2.33284">
        <ele>114.2</ele>
        <time>2015-01-05T21:16:27.548Z</time>
      </trkpt>
      <trkpt lat="48.83484" lon="2.33288">
        <ele>115.3</ele>
        <time>2015-01-05T21:16:30.586Z</time>
      </trkpt>
      <trkpt lat="48.83488" lon="2.3329">
        <ele>115.9</ele>
        <time>2015-01-05T21:16:31.594Z</time>
      </trkpt>
      <trkpt lat="48.83495" lon="2.33297">
        <ele>116.2</ele>
        <time>2015-01-05T21:16:33.627Z</time>
      </trkpt>
      <trkpt lat="48.83498" lon="2.33301">
        <ele>116.4</ele>
        <time>2015-01-05T21:16:34.547Z</time>
      </trkpt>
      <trkpt lat="48.83502" lon="2.33306">
        <ele>116.4</ele>
        <time>2015-01-05T21:16:35.571Z</time>
      </trkpt>
      <trkpt lat="48.83505" lon="2.33311">
        <ele>116.7</ele>
        <time>2015-01-05T21:16:36.577Z</time>
      </trkpt>
      <trkpt lat="48.83508" lon="2.33322">
        <ele>117.2</ele>
        <time>2015-01-05T21:16:38.573Z</time>
      </trkpt>
      <trkpt lat="48.8351" lon="2.33334">
        <ele>117.2</ele>
        <time>2015-01-05T21:16:40.590Z</time>
      </trkpt>
      <trkpt lat="48.83512" lon="2.33344">
        <ele>117.4</ele>
        <time>2015-01-05T21:16:42.550Z</time>
      </trkpt>
      <trkpt lat="48.83513" lon="2.33351">
        <ele>116.9</ele>
        <time>2015-01-05T21:16:43.559Z</time>
      </trkpt>
      <trkpt lat="48.83514" lon="2.33364">
        <ele>116.9</ele>
        <time>2015-01-05T21:16:45.524Z</time>
      </trkpt>
      <trkpt lat="48.83514" lon="2.33371">
        <ele>116.9</ele>
        <time>2015-01-05T21:16:46.535Z</time>
      </trkpt>
      <trkpt lat="48.83514" lon="2.3338">
        <ele>116.8</ele>
        <time>2015-01-05T21:16:47.561Z</time>
      </trkpt>
      <trkpt lat="48.83514" lon="2.33388">
        <ele>116.5</ele>
        <time>2015-01-05T21:16:48.571Z</time>
      </trkpt>
      <trkpt lat="48.83517" lon="2.33401">
        <ele>115.7</ele>
        <time>2015-01-05T21:16:50.591Z</time>
      </trkpt>
      <trkpt lat="48.83518" lon="2.33406">
        <ele>115.6</ele>
        <time>2015-01-05T21:16:51.611Z</time>
      </trkpt>
      <trkpt lat="48.83522" lon="2.33416">
        <ele>115.2</ele>
        <time>2015-01-05T21:16:53.541Z</time>
      </trkpt>
      <trkpt lat="48.83522" lon="2.33423">
        <ele>114.9</ele>
        <time>2015-01-05T21:16:54.556Z</time>
      </trkpt>
      <trkpt lat="48.83525" lon="2.33435">
        <ele>114.2</ele>
        <time>2015-01-05T21:16:56.603Z</time>
      </trkpt>
      <trkpt lat="48.83526" lon="2.33442">
        <ele>114.1</ele>
        <time>2015-01-05T21:16:57.616Z</time>
      </trkpt>
      <trkpt lat="48.83531" lon="2.33453">
        <ele>113.6</ele>
        <time>2015-01-05T21:16:59.528Z</time>
      </trkpt>
      <trkpt lat="48.83535" lon="2.33455">
        <ele>113.3</ele>
        <time>2015-01-05T21:17:00.542Z</time>
      </trkpt>
      <trkpt lat="48.8354" lon="2.33455">
        <ele>113.3</ele>
        <time>2015-01-05T21:17:01.559Z</time>
      </trkpt>
      <trkpt lat="48.83544" lon="2.33458">
        <ele>113.2</ele>
        <time>2015-01-05T21:17:02.577Z</time>
      </trkpt>
      <trkpt lat="48.83549" lon="2.33461">
        <ele>112.8</ele>
        <time>2015-01-05T21:17:03.576Z</time>
      </trkpt>
      <trkpt lat="48.83553" lon="2.33464">
        <ele>112.6</ele>
        <time>2015-01-05T21:17:04.590Z</time>
      </trkpt>
      <trkpt lat="48.83557" lon="2.33469">
        <ele>112.2</ele>
        <time>2015-01-05T21:17:05.597Z</time>
      </trkpt>
      <trkpt lat="48.83562" lon="2.33469">
        <ele>111.9</ele>
        <time>2015-01-05T21:17:06.611Z</time>
      </trkpt>
      <trkpt lat="48.83566" lon="2.33471">
        <ele>111.6</ele>
        <time>2015-01-05T21:17:07.520Z</time>
      </trkpt>
      <trkpt lat="48.83574" lon="2.33474">
        <ele>110.9</ele>
        <time>2015-01-05T21:17:08.556Z</time>
      </trkpt>
      <trkpt lat="48.83583" lon="2.33471">
        <ele>110.6</ele>
        <time>2015-01-05T21:17:09.568Z</time>
      </trkpt>
      <trkpt lat="48.83592" lon="2.3347">
        <ele>110.5</ele>
        <time>2015-01-05T21:17:10.536Z</time>
      </trkpt>
      <trkpt lat="48.83599" lon="2.33471">
        <ele>110.6</ele>
        <time>2015-01-05T21:17:11.532Z</time>
      </trkpt>
      <trkpt lat="48.83607" lon="2.33471">
        <ele>110.4</ele>
        <time>2015-01-05T21:17:12.570Z</time>
      </trkpt>
      <trkpt lat="48.83615" lon="2.3347">
        <ele>110.4</ele>
        <time>2015-01-05T21:17:13.575Z</time>
      </trkpt>
      <trkpt lat="48.83626" lon="2.33468">
        <ele>110.4</ele>
        <time>2015-01-05T21:17:14.620Z</time>
      </trkpt>
      <trkpt lat="48.83635" lon="2.33466">
        <ele>110.7</ele>
        <time>2015-01-05T21:17:15.527Z</time>
      </trkpt>
      <trkpt lat="48.83646" lon="2.33464">
        <ele>110.5</ele>
        <time>2015-01-05T21:17:16.526Z</time>
      </trkpt>
      <trkpt lat="48.83656" lon="2.33465">
        <ele>110.4</ele>
        <time>2015-01-05T21:17:17.535Z</time>
      </trkpt>
      <trkpt lat="48.83662" lon="2.33469">
        <ele>110.3</ele>
        <time>2015-01-05T21:17:18.539Z</time>
      </trkpt>
      <trkpt lat="48.83668" lon="2.33474">
        <ele>110.7</ele>
        <time>2015-01-05T21:17:19.541Z</time>
      </trkpt>
      <trkpt lat="48.83673" lon="2.33477">
        <ele>110.4</ele>
        <time>2015-01-05T21:17:20.572Z</time>
      </trkpt>
      <trkpt lat="48.83679" lon="2.33481">
        <ele>110.4</ele>
        <time>2015-01-05T21:17:21.585Z</time>
      </trkpt>
      <trkpt lat="48.83686" lon="2.33485">
        <ele>109.8</ele>
        <time>2015-01-05T21:17:22.520Z</time>
      </trkpt>
      <trkpt lat="48.83693" lon="2.33489">
        <ele>109.9</ele>
        <time>2015-01-05T21:17:23.526Z</time>
      </trkpt>
      <trkpt lat="48.83699" lon="2.33495">
        <ele>109.8</ele>
        <time>2015-01-05T21:17:24.606Z</time>
      </trkpt>
      <trkpt lat="48.83705" lon="2.33499">
        <ele>109</ele>
        <time>2015-01-05T21:17:25.536Z</time>
      </trkpt>
      <trkpt lat="48.83714" lon="2.33501">
        <ele>108.4</ele>
        <time>2015-01-05T21:17:26.572Z</time>
      </trkpt>
      <trkpt lat="48.83724" lon="2.33502">
        <ele>107.9</ele>
        <time>2015-01-05T21:17:27.599Z</time>
      </trkpt>
      <trkpt lat="48.83731" lon="2.33505">
        <ele>107.9</ele>
        <time>2015-01-05T21:17:28.627Z</time>
      </trkpt>
      <trkpt lat="48.83742" lon="2.33504">
        <ele>107.5</ele>
        <time>2015-01-05T21:17:29.534Z</time>
      </trkpt>
      <trkpt lat="48.83751" lon="2.33504">
        <ele>106.9</ele>
        <time>2015-01-05T21:17:30.538Z</time>
      </trkpt>
      <trkpt lat="48.8376" lon="2.33507">
        <ele>106.3</ele>
        <time>2015-01-05T21:17:31.591Z</time>
      </trkpt>
      <trkpt lat="48.83766" lon="2.33514">
        <ele>105.7</ele>
        <time>2015-01-05T21:17:32.652Z</time>
      </trkpt>
      <trkpt lat="48.83819" lon="2.33578">
        <ele>104.2</ele>
        <time>2015-01-05T21:17:41.555Z</time>
      </trkpt>
      <trkpt lat="48.83826" lon="2.33583">
        <ele>104.8</ele>
        <time>2015-01-05T21:17:42.666Z</time>
      </trkpt>
      <trkpt lat="48.83835" lon="2.33585">
        <ele>104.9</ele>
        <time>2015-01-05T21:17:43.545Z</time>
      </trkpt>
      <trkpt lat="48.8384" lon="2.33593">
        <ele>105.7</ele>
        <time>2015-01-05T21:17:44.568Z</time>
      </trkpt>
      <trkpt lat="48.83849" lon="2.33601">
        <ele>106.8</ele>
        <time>2015-01-05T21:17:45.547Z</time>
      </trkpt>
      <trkpt lat="48.83853" lon="2.33612">
        <ele>107.7</ele>
        <time>2015-01-05T21:17:46.526Z</time>
      </trkpt>
      <trkpt lat="48.83859" lon="2.33619">
        <ele>108</ele>
        <time>2015-01-05T21:17:47.529Z</time>
      </trkpt>
      <trkpt lat="48.83864" lon="2.33627">
        <ele>108</ele>
        <time>2015-01-05T21:17:48.553Z</time>
      </trkpt>
      <trkpt lat="48.83871" lon="2.33629">
        <ele>108.3</ele>
        <time>2015-01-05T21:17:49.565Z</time>
      </trkpt>
      <trkpt lat="48.8387" lon="2.33644">
        <ele>109</ele>
        <time>2015-01-05T21:17:50.583Z</time>
      </trkpt>
      <trkpt lat="48.83872" lon="2.33654">
        <ele>109.8</ele>
        <time>2015-01-05T21:17:51.596Z</time>
      </trkpt>
      <trkpt lat="48.83875" lon="2.33661">
        <ele>110.3</ele>
        <time>2015-01-05T21:17:52.606Z</time>
      </trkpt>
      <trkpt lat="48.83879" lon="2.33666">
        <ele>110.7</ele>
        <time>2015-01-05T21:17:53.670Z</time>
      </trkpt>
      <trkpt lat="48.83883" lon="2.3367">
        <ele>111.3</ele>
        <time>2015-01-05T21:17:54.533Z</time>
      </trkpt>
      <trkpt lat="48.83889" lon="2.33678">
        <ele>113</ele>
        <time>2015-01-05T21:17:56.576Z</time>
      </trkpt>
      <trkpt lat="48.83892" lon="2.33681">
        <ele>114.1</ele>
        <time>2015-01-05T21:17:57.600Z</time>
      </trkpt>
      <trkpt lat="48.83895" lon="2.33689">
        <ele>116.3</ele>
        <time>2015-01-05T21:17:59.522Z</time>
      </trkpt>
      <trkpt lat="48.83899" lon="2.33691">
        <ele>117.5</ele>
        <time>2015-01-05T21:18:00.513Z</time>
      </trkpt>
      <trkpt lat="48.83906" lon="2.33694">
        <ele>119.1</ele>
        <time>2015-01-05T21:18:02.563Z</time>
      </trkpt>
      <trkpt lat="48.83909" lon="2.33695">
        <ele>120</ele>
        <time>2015-01-05T21:18:03.576Z</time>
      </trkpt>
      <trkpt lat="48.83916" lon="2.33696">
        <ele>120.9</ele>
        <time>2015-01-05T21:18:05.502Z</time>
      </trkpt>
      <trkpt lat="48.8392" lon="2.33698">
        <ele>121.6</ele>
        <time>2015-01-05T21:18:06.532Z</time>
      </trkpt>
      <trkpt lat="48.83926" lon="2.33699">
        <ele>123.1</ele>
        <time>2015-01-05T21:18:08.570Z</time>
      </trkpt>
      <trkpt lat="48.83929" lon="2.337">
        <ele>123.8</ele>
        <time>2015-01-05T21:18:09.570Z</time>
      </trkpt>
      <trkpt lat="48.83937" lon="2.33703">
        <ele>122.1</ele>
        <time>2015-01-05T21:18:13.537Z</time>
      </trkpt>
      <trkpt lat="48.83938" lon="2.33704">
        <ele>122.3</ele>
        <time>2015-01-05T21:18:14.574Z</time>
      </trkpt>
      <trkpt lat="48.83938" lon="2.33704">
        <ele>122.3</ele>
        <time>2015-01-05T21:18:36.579Z</time>
      </trkpt>
      <trkpt lat="48.83964" lon="2.33704">
        <ele>124.3</ele>
        <time>2015-01-05T21:18:37.592Z</time>
      </trkpt>
      <trkpt lat="48.83971" lon="2.33698">
        <ele>121.1</ele>
        <time>2015-01-05T21:18:39.530Z</time>
      </trkpt>
      <trkpt lat="48.83974" lon="2.33696">
        <ele>120.4</ele>
        <time>2015-01-05T21:18:40.541Z</time>
      </trkpt>
      <trkpt lat="48.83981" lon="2.3369">
        <ele>118.9</ele>
        <time>2015-01-05T21:18:43.578Z</time>
      </trkpt>
      <trkpt lat="48.83982" lon="2.3369">
        <ele>118.3</ele>
        <time>2015-01-05T21:18:44.600Z</time>
      </trkpt>
      <trkpt lat="48.83988" lon="2.33689">
        <ele>118.2</ele>
        <time>2015-01-05T21:18:46.519Z</time>
      </trkpt>
      <trkpt lat="48.83991" lon="2.33689">
        <ele>118</ele>
        <time>2015-01-05T21:18:47.539Z</time>
      </trkpt>
      <trkpt lat="48.83999" lon="2.33692">
        <ele>117.9</ele>
        <time>2015-01-05T21:18:49.574Z</time>
      </trkpt>
      <trkpt lat="48.84002" lon="2.33693">
        <ele>117.9</ele>
        <time>2015-01-05T21:18:50.584Z</time>
      </trkpt>
      <trkpt lat="48.84009" lon="2.33696">
        <ele>117.8</ele>
        <time>2015-01-05T21:18:52.530Z</time>
      </trkpt>
      <trkpt lat="48.84011" lon="2.33699">
        <ele>117.7</ele>
        <time>2015-01-05T21:18:53.532Z</time>
      </trkpt>
      <trkpt lat="48.84016" lon="2.3371">
        <ele>118.9</ele>
        <time>2015-01-05T21:18:56.573Z</time>
      </trkpt>
      <trkpt lat="48.84017" lon="2.33714">
        <ele>119.2</ele>
        <time>2015-01-05T21:18:57.596Z</time>
      </trkpt>
      <trkpt lat="48.84024" lon="2.33723">
        <ele>120.3</ele>
        <time>2015-01-05T21:19:00.545Z</time>
      </trkpt>
      <trkpt lat="48.84027" lon="2.33724">
        <ele>120.6</ele>
        <time>2015-01-05T21:19:01.555Z</time>
      </trkpt>
      <trkpt lat="48.84035" lon="2.33728">
        <ele>121.4</ele>
        <time>2015-01-05T21:19:04.628Z</time>
      </trkpt>
      <trkpt lat="48.84038" lon="2.33729">
        <ele>121.6</ele>
        <time>2015-01-05T21:19:05.529Z</time>
      </trkpt>
      <trkpt lat="48.84044" lon="2.33732">
        <ele>121.9</ele>
        <time>2015-01-05T21:19:07.665Z</time>
      </trkpt>
      <trkpt lat="48.84048" lon="2.33734">
        <ele>122.1</ele>
        <time>2015-01-05T21:19:08.691Z</time>
      </trkpt>
      <trkpt lat="48.84055" lon="2.33735">
        <ele>122.3</ele>
        <time>2015-01-05T21:19:10.615Z</time>
      </trkpt>
      <trkpt lat="48.84058" lon="2.33733">
        <ele>121.9</ele>
        <time>2015-01-05T21:19:11.627Z</time>
      </trkpt>
      <trkpt lat="48.84065" lon="2.33728">
        <ele>121.3</ele>
        <time>2015-01-05T21:19:13.515Z</time>
      </trkpt>
      <trkpt lat="48.84068" lon="2.33728">
        <ele>121.4</ele>
        <time>2015-01-05T21:19:14.602Z</time>
      </trkpt>
      <trkpt lat="48.84076" lon="2.33731">
        <ele>122.4</ele>
        <time>2015-01-05T21:19:17.538Z</time>
      </trkpt>
      <trkpt lat="48.84079" lon="2.33732">
        <ele>122.7</ele>
        <time>2015-01-05T21:19:18.750Z</time>
      </trkpt>
      <trkpt lat="48.84087" lon="2.33733">
        <ele>123.4</ele>
        <time>2015-01-05T21:19:20.596Z</time>
      </trkpt>
      <trkpt lat="48.84092" lon="2.33734">
        <ele>123.7</ele>
        <time>2015-01-05T21:19:21.611Z</time>
      </trkpt>
      <trkpt lat="48.841" lon="2.33734">
        <ele>124.6</ele>
        <time>2015-01-05T21:19:23.525Z</time>
      </trkpt>
      <trkpt lat="48.84105" lon="2.33735">
        <ele>124.8</ele>
        <time>2015-01-05T21:19:24.538Z</time>
      </trkpt>
      <trkpt lat="48.84109" lon="2.33735">
        <ele>125.1</ele>
        <time>2015-01-05T21:19:25.559Z</time>
      </trkpt>
      <trkpt lat="48.84116" lon="2.33737">
        <ele>124.9</ele>
        <time>2015-01-05T21:19:26.568Z</time>
      </trkpt>
      <trkpt lat="48.84122" lon="2.33739">
        <ele>124.6</ele>
        <time>2015-01-05T21:19:27.583Z</time>
      </trkpt>
      <trkpt lat="48.84126" lon="2.33742">
        <ele>124.6</ele>
        <time>2015-01-05T21:19:28.593Z</time>
      </trkpt>
      <trkpt lat="48.84131" lon="2.33744">
        <ele>124.5</ele>
        <time>2015-01-05T21:19:29.607Z</time>
      </trkpt>
      <trkpt lat="48.84137" lon="2.33745">
        <ele>124.6</ele>
        <time>2015-01-05T21:19:30.506Z</time>
      </trkpt>
      <trkpt lat="48.84144" lon="2.33747">
        <ele>124.6</ele>
        <time>2015-01-05T21:19:31.519Z</time>
      </trkpt>
      <trkpt lat="48.84149" lon="2.3375">
        <ele>124.4</ele>
        <time>2015-01-05T21:19:32.582Z</time>
      </trkpt>
      <trkpt lat="48.84157" lon="2.33752">
        <ele>124.8</ele>
        <time>2015-01-05T21:19:33.592Z</time>
      </trkpt>
      <trkpt lat="48.84164" lon="2.33754">
        <ele>124.8</ele>
        <time>2015-01-05T21:19:34.614Z</time>
      </trkpt>
      <trkpt lat="48.84171" lon="2.33756">
        <ele>125.2</ele>
        <time>2015-01-05T21:19:35.620Z</time>
      </trkpt>
      <trkpt lat="48.84177" lon="2.33759">
        <ele>125.6</ele>
        <time>2015-01-05T21:19:36.623Z</time>
      </trkpt>
      <trkpt lat="48.84183" lon="2.33761">
        <ele>125.8</ele>
        <time>2015-01-05T21:19:37.655Z</time>
      </trkpt>
      <trkpt lat="48.84187" lon="2.33764">
        <ele>125.8</ele>
        <time>2015-01-05T21:19:38.657Z</time>
      </trkpt>
      <trkpt lat="48.84191" lon="2.33767">
        <ele>125.8</ele>
        <time>2015-01-05T21:19:39.688Z</time>
      </trkpt>
      <trkpt lat="48.84195" lon="2.33772">
        <ele>125.5</ele>
        <time>2015-01-05T21:19:40.699Z</time>
      </trkpt>
      <trkpt lat="48.84198" lon="2.33779">
        <ele>125.4</ele>
        <time>2015-01-05T21:19:41.520Z</time>
      </trkpt>
      <trkpt lat="48.84201" lon="2.33785">
        <ele>125.2</ele>
        <time>2015-01-05T21:19:42.525Z</time>
      </trkpt>
      <trkpt lat="48.84204" lon="2.33792">
        <ele>124.7</ele>
        <time>2015-01-05T21:19:43.535Z</time>
      </trkpt>
      <trkpt lat="48.84205" lon="2.33799">
        <ele>124.5</ele>
        <time>2015-01-05T21:19:44.558Z</time>
      </trkpt>
      <trkpt lat="48.84207" lon="2.33811">
        <ele>124.9</ele>
        <time>2015-01-05T21:19:46.600Z</time>
      </trkpt>
      <trkpt lat="48.84206" lon="2.33819">
        <ele>124.8</ele>
        <time>2015-01-05T21:19:47.521Z</time>
      </trkpt>
      <trkpt lat="48.84207" lon="2.33825">
        <ele>124.7</ele>
        <time>2015-01-05T21:19:48.650Z</time>
      </trkpt>
      <trkpt lat="48.84207" lon="2.33832">
        <ele>123.9</ele>
        <time>2015-01-05T21:19:49.530Z</time>
      </trkpt>
      <trkpt lat="48.8421" lon="2.33843">
        <ele>122.3</ele>
        <time>2015-01-05T21:19:51.569Z</time>
      </trkpt>
      <trkpt lat="48.84212" lon="2.33849">
        <ele>122.2</ele>
        <time>2015-01-05T21:19:52.498Z</time>
      </trkpt>
      <trkpt lat="48.84214" lon="2.33857">
        <ele>122.1</ele>
        <time>2015-01-05T21:19:53.518Z</time>
      </trkpt>
      <trkpt lat="48.84214" lon="2.33866">
        <ele>122.1</ele>
        <time>2015-01-05T21:19:54.529Z</time>
      </trkpt>
      <trkpt lat="48.84215" lon="2.33876">
        <ele>122</ele>
        <time>2015-01-05T21:19:55.596Z</time>
      </trkpt>
      <trkpt lat="48.84194" lon="2.34117">
        <ele>113.7</ele>
        <time>2015-01-05T21:20:17.522Z</time>
      </trkpt>
      <trkpt lat="48.84197" lon="2.34124">
        <ele>111.7</ele>
        <time>2015-01-05T21:20:19.548Z</time>
      </trkpt>
      <trkpt lat="48.84203" lon="2.34124">
        <ele>110.7</ele>
        <time>2015-01-05T21:20:20.567Z</time>
      </trkpt>
      <trkpt lat="48.8421" lon="2.34121">
        <ele>109.6</ele>
        <time>2015-01-05T21:20:21.600Z</time>
      </trkpt>
      <trkpt lat="48.84216" lon="2.34122">
        <ele>108.8</ele>
        <time>2015-01-05T21:20:22.618Z</time>
      </trkpt>
      <trkpt lat="48.84221" lon="2.34125">
        <ele>108.5</ele>
        <time>2015-01-05T21:20:23.513Z</time>
      </trkpt>
      <trkpt lat="48.84227" lon="2.34128">
        <ele>108</ele>
        <time>2015-01-05T21:20:24.520Z</time>
      </trkpt>
      <trkpt lat="48.84231" lon="2.3413">
        <ele>107.4</ele>
        <time>2015-01-05T21:20:25.525Z</time>
      </trkpt>
      <trkpt lat="48.84236" lon="2.34132">
        <ele>106.7</ele>
        <time>2015-01-05T21:20:26.562Z</time>
      </trkpt>
      <trkpt lat="48.84242" lon="2.34134">
        <ele>106.5</ele>
        <time>2015-01-05T21:20:27.589Z</time>
      </trkpt>
      <trkpt lat="48.84246" lon="2.34135">
        <ele>106.2</ele>
        <time>2015-01-05T21:20:28.510Z</time>
      </trkpt>
      <trkpt lat="48.84254" lon="2.34141">
        <ele>106</ele>
        <time>2015-01-05T21:20:30.553Z</time>
      </trkpt>
      <trkpt lat="48.84259" lon="2.34145">
        <ele>105.9</ele>
        <time>2015-01-05T21:20:31.568Z</time>
      </trkpt>
      <trkpt lat="48.84265" lon="2.34148">
        <ele>105.6</ele>
        <time>2015-01-05T21:20:32.602Z</time>
      </trkpt>
      <trkpt lat="48.8427" lon="2.34154">
        <ele>105.6</ele>
        <time>2015-01-05T21:20:33.514Z</time>
      </trkpt>
      <trkpt lat="48.84275" lon="2.34157">
        <ele>105.4</ele>
        <time>2015-01-05T21:20:34.528Z</time>
      </trkpt>
      <trkpt lat="48.84281" lon="2.3416">
        <ele>105.5</ele>
        <time>2015-01-05T21:20:35.533Z</time>
      </trkpt>
      <trkpt lat="48.84288" lon="2.34162">
        <ele>105.4</ele>
        <time>2015-01-05T21:20:36.532Z</time>
      </trkpt>
      <trkpt lat="48.84296" lon="2.34162">
        <ele>105</ele>
        <time>2015-01-05T21:20:37.546Z</time>
      </trkpt>
      <trkpt lat="48.84304" lon="2.34164">
        <ele>104.8</ele>
        <time>2015-01-05T21:20:38.549Z</time>
      </trkpt>
      <trkpt lat="48.84316" lon="2.34158">
        <ele>104.3</ele>
        <time>2015-01-05T21:20:39.565Z</time>
      </trkpt>
      <trkpt lat="48.84316" lon="2.34158">
        <ele>104.3</ele>
        <time>2015-01-05T21:20:39.882Z</time>
      </trkpt>
      <trkpt lat="48.8433" lon="2.34152">
        <ele>104</ele>
        <time>2015-01-05T21:20:40.603Z</time>
      </trkpt>
      <trkpt lat="48.84345" lon="2.34144">
        <ele>103.8</ele>
        <time>2015-01-05T21:20:41.520Z</time>
      </trkpt>
      <trkpt lat="48.84364" lon="2.3413">
        <ele>103.4</ele>
        <time>2015-01-05T21:20:42.520Z</time>
      </trkpt>
      <trkpt lat="48.84383" lon="2.34114">
        <ele>103.2</ele>
        <time>2015-01-05T21:20:43.560Z</time>
      </trkpt>
      <trkpt lat="48.84402" lon="2.341">
        <ele>103.1</ele>
        <time>2015-01-05T21:20:44.569Z</time>
      </trkpt>
      <trkpt lat="48.8442" lon="2.34089">
        <ele>103.3</ele>
        <time>2015-01-05T21:20:45.583Z</time>
      </trkpt>
      <trkpt lat="48.84447" lon="2.34065">
        <ele>103.5</ele>
        <time>2015-01-05T21:20:46.520Z</time>
      </trkpt>
      <trkpt lat="48.84467" lon="2.34053">
        <ele>103.7</ele>
        <time>2015-01-05T21:20:47.526Z</time>
      </trkpt>
      <trkpt lat="48.84484" lon="2.34043">
        <ele>104</ele>
        <time>2015-01-05T21:20:48.549Z</time>
      </trkpt>
      <trkpt lat="48.84501" lon="2.34036">
        <ele>104.9</ele>
        <time>2015-01-05T21:20:49.597Z</time>
      </trkpt>
      <trkpt lat="48.84516" lon="2.34034">
        <ele>105</ele>
        <time>2015-01-05T21:20:50.614Z</time>
      </trkpt>
      <trkpt lat="48.8453" lon="2.34034">
        <ele>105.3</ele>
        <time>2015-01-05T21:20:51.534Z</time>
      </trkpt>
      <trkpt lat="48.84543" lon="2.34032">
        <ele>105.6</ele>
        <time>2015-01-05T21:20:52.513Z</time>
      </trkpt>
      <trkpt lat="48.84569" lon="2.34016">
        <ele>106.9</ele>
        <time>2015-01-05T21:20:53.522Z</time>
      </trkpt>
      <trkpt lat="48.84588" lon="2.34008">
        <ele>107.8</ele>
        <time>2015-01-05T21:20:54.533Z</time>
      </trkpt>
      <trkpt lat="48.84603" lon="2.34004">
        <ele>108.9</ele>
        <time>2015-01-05T21:20:55.543Z</time>
      </trkpt>
      <trkpt lat="48.84615" lon="2.34001">
        <ele>110.4</ele>
        <time>2015-01-05T21:20:56.550Z</time>
      </trkpt>
      <trkpt lat="48.84623" lon="2.33999">
        <ele>111.5</ele>
        <time>2015-01-05T21:20:57.555Z</time>
      </trkpt>
      <trkpt lat="48.84629" lon="2.33998">
        <ele>112.5</ele>
        <time>2015-01-05T21:20:58.557Z</time>
      </trkpt>
      <trkpt lat="48.84637" lon="2.33999">
        <ele>114.1</ele>
        <time>2015-01-05T21:21:00.571Z</time>
      </trkpt>
      <trkpt lat="48.84642" lon="2.34">
        <ele>114.8</ele>
        <time>2015-01-05T21:21:01.584Z</time>
      </trkpt>
      <trkpt lat="48.84644" lon="2.34012">
        <ele>117.9</ele>
        <time>2015-01-05T21:21:03.608Z</time>
      </trkpt>
      <trkpt lat="48.84647" lon="2.34018">
        <ele>119.3</ele>
        <time>2015-01-05T21:21:04.619Z</time>
      </trkpt>
      <trkpt lat="48.84651" lon="2.34027">
        <ele>119.3</ele>
        <time>2015-01-05T21:21:05.526Z</time>
      </trkpt>
      <trkpt lat="48.84659" lon="2.34033">
        <ele>118</ele>
        <time>2015-01-05T21:21:06.525Z</time>
      </trkpt>
      <trkpt lat="48.84665" lon="2.34037">
        <ele>118</ele>
        <time>2015-01-05T21:21:07.541Z</time>
      </trkpt>
      <trkpt lat="48.8467" lon="2.3404">
        <ele>117.9</ele>
        <time>2015-01-05T21:21:08.566Z</time>
      </trkpt>
      <trkpt lat="48.84677" lon="2.34045">
        <ele>120.1</ele>
        <time>2015-01-05T21:21:10.589Z</time>
      </trkpt>
      <trkpt lat="48.84681" lon="2.34044">
        <ele>121.1</ele>
        <time>2015-01-05T21:21:11.608Z</time>
      </trkpt>
      <trkpt lat="48.84686" lon="2.34044">
        <ele>121.7</ele>
        <time>2015-01-05T21:21:12.515Z</time>
      </trkpt>
      <trkpt lat="48.8469" lon="2.34043">
        <ele>121.6</ele>
        <time>2015-01-05T21:21:13.517Z</time>
      </trkpt>
      <trkpt lat="48.84699" lon="2.34045">
        <ele>121.9</ele>
        <time>2015-01-05T21:21:16.578Z</time>
      </trkpt>
      <trkpt lat="48.84701" lon="2.34046">
        <ele>122.1</ele>
        <time>2015-01-05T21:21:17.616Z</time>
      </trkpt>
      <trkpt lat="48.84707" lon="2.34049">
        <ele>122.4</ele>
        <time>2015-01-05T21:21:19.533Z</time>
      </trkpt>
      <trkpt lat="48.8471" lon="2.34052">
        <ele>121.9</ele>
        <time>2015-01-05T21:21:20.571Z</time>
      </trkpt>
      <trkpt lat="48.84716" lon="2.34057">
        <ele>120.6</ele>
        <time>2015-01-05T21:21:21.586Z</time>
      </trkpt>
      <trkpt lat="48.84719" lon="2.34063">
        <ele>118.8</ele>
        <time>2015-01-05T21:21:22.593Z</time>
      </trkpt>
      <trkpt lat="48.84722" lon="2.34069">
        <ele>118.1</ele>
        <time>2015-01-05T21:21:23.615Z</time>
      </trkpt>
      <trkpt lat="48.84726" lon="2.34073">
        <ele>117.9</ele>
        <time>2015-01-05T21:21:24.529Z</time>
      </trkpt>
      <trkpt lat="48.84734" lon="2.34073">
        <ele>118.3</ele>
        <time>2015-01-05T21:21:26.565Z</time>
      </trkpt>
      <trkpt lat="48.84739" lon="2.3407">
        <ele>117.8</ele>
        <time>2015-01-05T21:21:27.587Z</time>
      </trkpt>
      <trkpt lat="48.84747" lon="2.34072">
        <ele>119</ele>
        <time>2015-01-05T21:22:33.562Z</time>
      </trkpt>
      <trkpt lat="48.84761" lon="2.34079">
        <ele>126</ele>
        <time>2015-01-05T21:22:34.572Z</time>
      </trkpt>
      <trkpt lat="48.84761" lon="2.34091">
        <ele>123.4</ele>
        <time>2015-01-05T21:22:37.565Z</time>
      </trkpt>
      <trkpt lat="48.84763" lon="2.34095">
        <ele>123.3</ele>
        <time>2015-01-05T21:22:38.578Z</time>
      </trkpt>
      <trkpt lat="48.8477" lon="2.34101">
        <ele>123.2</ele>
        <time>2015-01-05T21:22:40.518Z</time>
      </trkpt>
      <trkpt lat="48.84774" lon="2.34105">
        <ele>123.1</ele>
        <time>2015-01-05T21:22:41.532Z</time>
      </trkpt>
      <trkpt lat="48.84853" lon="2.34145">
        <ele>119.7</ele>
        <time>2015-01-05T21:22:53.550Z</time>
      </trkpt>
      <trkpt lat="48.84996" lon="2.34312">
        <ele>110.3</ele>
        <time>2015-01-05T21:23:22.569Z</time>
      </trkpt>
      <trkpt lat="48.85012" lon="2.34307">
        <ele>109.9</ele>
        <time>2015-01-05T21:23:23.601Z</time>
      </trkpt>
      <trkpt lat="48.85023" lon="2.34309">
        <ele>109.9</ele>
        <time>2015-01-05T21:23:24.512Z</time>
      </trkpt>
      <trkpt lat="48.85037" lon="2.34305">
        <ele>109.5</ele>
        <time>2015-01-05T21:23:25.527Z</time>
      </trkpt>
      <trkpt lat="48.85058" lon="2.34293">
        <ele>109.6</ele>
        <time>2015-01-05T21:23:26.566Z</time>
      </trkpt>
      <trkpt lat="48.85075" lon="2.34283">
        <ele>109.4</ele>
        <time>2015-01-05T21:23:27.603Z</time>
      </trkpt>
      <trkpt lat="48.85143" lon="2.34293">
        <ele>104.4</ele>
        <time>2015-01-05T21:23:35.531Z</time>
      </trkpt>
      <trkpt lat="48.85146" lon="2.34302">
        <ele>104.9</ele>
        <time>2015-01-05T21:23:36.575Z</time>
      </trkpt>
      <trkpt lat="48.85152" lon="2.34304">
        <ele>105.3</ele>
        <time>2015-01-05T21:23:37.582Z</time>
      </trkpt>
      <trkpt lat="48.85159" lon="2.34304">
        <ele>104.1</ele>
        <time>2015-01-05T21:23:38.599Z</time>
      </trkpt>
      <trkpt lat="48.85162" lon="2.34307">
        <ele>103.5</ele>
        <time>2015-01-05T21:23:39.615Z</time>
      </trkpt>
      <trkpt lat="48.85165" lon="2.34311">
        <ele>103.7</ele>
        <time>2015-01-05T21:23:40.518Z</time>
      </trkpt>
      <trkpt lat="48.85181" lon="2.34334">
        <ele>105.2</ele>
        <time>2015-01-05T21:23:44.590Z</time>
      </trkpt>
      <trkpt lat="48.85187" lon="2.34337">
        <ele>105.5</ele>
        <time>2015-01-05T21:23:45.512Z</time>
      </trkpt>
      <trkpt lat="48.85192" lon="2.34342">
        <ele>106.3</ele>
        <time>2015-01-05T21:23:46.512Z</time>
      </trkpt>
      <trkpt lat="48.85214" lon="2.34357">
        <ele>106.7</ele>
        <time>2015-01-05T21:23:50.609Z</time>
      </trkpt>
      <trkpt lat="48.85238" lon="2.34374">
        <ele>107.9</ele>
        <time>2015-01-05T21:23:55.515Z</time>
      </trkpt>
      <trkpt lat="48.85243" lon="2.34377">
        <ele>108.2</ele>
        <time>2015-01-05T21:23:56.554Z</time>
      </trkpt>
      <trkpt lat="48.85247" lon="2.3438">
        <ele>108.5</ele>
        <time>2015-01-05T21:23:57.575Z</time>
      </trkpt>
      <trkpt lat="48.85254" lon="2.34382">
        <ele>108.3</ele>
        <time>2015-01-05T21:23:58.954Z</time>
      </trkpt>
      <trkpt lat="48.8526" lon="2.34381">
        <ele>108.4</ele>
        <time>2015-01-05T21:23:59.597Z</time>
      </trkpt>
      <trkpt lat="48.85268" lon="2.3438">
        <ele>108.4</ele>
        <time>2015-01-05T21:24:00.484Z</time>
      </trkpt>
      <trkpt lat="48.85273" lon="2.3438">
        <ele>108.5</ele>
        <time>2015-01-05T21:24:01.505Z</time>
      </trkpt>
      <trkpt lat="48.85281" lon="2.34386">
        <ele>109.1</ele>
        <time>2015-01-05T21:24:03.584Z</time>
      </trkpt>
      <trkpt lat="48.85285" lon="2.3439">
        <ele>108.8</ele>
        <time>2015-01-05T21:24:04.608Z</time>
      </trkpt>
      <trkpt lat="48.8529" lon="2.34393">
        <ele>108.3</ele>
        <time>2015-01-05T21:24:05.516Z</time>
      </trkpt>
      <trkpt lat="48.85295" lon="2.34398">
        <ele>107.2</ele>
        <time>2015-01-05T21:24:06.521Z</time>
      </trkpt>
      <trkpt lat="48.853" lon="2.34402">
        <ele>106.2</ele>
        <time>2015-01-05T21:24:07.532Z</time>
      </trkpt>
      <trkpt lat="48.85306" lon="2.34404">
        <ele>105.4</ele>
        <time>2015-01-05T21:24:08.557Z</time>
      </trkpt>
      <trkpt lat="48.85312" lon="2.34407">
        <ele>104.7</ele>
        <time>2015-01-05T21:24:09.590Z</time>
      </trkpt>
      <trkpt lat="48.8532" lon="2.3441">
        <ele>103.9</ele>
        <time>2015-01-05T21:24:10.606Z</time>
      </trkpt>
      <trkpt lat="48.85327" lon="2.34413">
        <ele>103.2</ele>
        <time>2015-01-05T21:24:11.525Z</time>
      </trkpt>
      <trkpt lat="48.85332" lon="2.34416">
        <ele>102.7</ele>
        <time>2015-01-05T21:24:12.527Z</time>
      </trkpt>
      <trkpt lat="48.8534" lon="2.34422">
        <ele>102.2</ele>
        <time>2015-01-05T21:24:14.582Z</time>
      </trkpt>
      <trkpt lat="48.85343" lon="2.34423">
        <ele>102.1</ele>
        <time>2015-01-05T21:24:15.536Z</time>
      </trkpt>
      <trkpt lat="48.85349" lon="2.34427">
        <ele>101.9</ele>
        <time>2015-01-05T21:24:17.573Z</time>
      </trkpt>
      <trkpt lat="48.85351" lon="2.3443">
        <ele>101.5</ele>
        <time>2015-01-05T21:24:18.648Z</time>
      </trkpt>
      <trkpt lat="48.85356" lon="2.34438">
        <ele>100.7</ele>
        <time>2015-01-05T21:24:21.712Z</time>
      </trkpt>
      <trkpt lat="48.85359" lon="2.3444">
        <ele>100.9</ele>
        <time>2015-01-05T21:24:22.627Z</time>
      </trkpt>
      <trkpt lat="48.85363" lon="2.34444">
        <ele>100.1</ele>
        <time>2015-01-05T21:25:17.724Z</time>
      </trkpt>
      <trkpt lat="48.85361" lon="2.34456">
        <ele>92.2</ele>
        <time>2015-01-05T21:25:18.659Z</time>
      </trkpt>
      <trkpt lat="48.85369" lon="2.34453">
        <ele>91.6</ele>
        <time>2015-01-05T21:25:34.537Z</time>
      </trkpt>
      <trkpt lat="48.85375" lon="2.34447">
        <ele>91.1</ele>
        <time>2015-01-05T21:25:35.539Z</time>
      </trkpt>
      <trkpt lat="48.85381" lon="2.34438">
        <ele>92</ele>
        <time>2015-01-05T21:25:38.591Z</time>
      </trkpt>
      <trkpt lat="48.85382" lon="2.34435">
        <ele>91.7</ele>
        <time>2015-01-05T21:25:39.611Z</time>
      </trkpt>
      <trkpt lat="48.85388" lon="2.34439">
        <ele>91.8</ele>
        <time>2015-01-05T21:25:49.543Z</time>
      </trkpt>
      <trkpt lat="48.85391" lon="2.34441">
        <ele>91.8</ele>
        <time>2015-01-05T21:25:50.583Z</time>
      </trkpt>
      <trkpt lat="48.85398" lon="2.34448">
        <ele>91.8</ele>
        <time>2015-01-05T21:25:53.623Z</time>
      </trkpt>
      <trkpt lat="48.85401" lon="2.3445">
        <ele>91.7</ele>
        <time>2015-01-05T21:25:54.535Z</time>
      </trkpt>
      <trkpt lat="48.85407" lon="2.34458">
        <ele>90.8</ele>
        <time>2015-01-05T21:25:56.566Z</time>
      </trkpt>
      <trkpt lat="48.85411" lon="2.34461">
        <ele>90.5</ele>
        <time>2015-01-05T21:25:57.640Z</time>
      </trkpt>
      <trkpt lat="48.85416" lon="2.34462">
        <ele>90.6</ele>
        <time>2015-01-05T21:25:58.519Z</time>
      </trkpt>
      <trkpt lat="48.85421" lon="2.34465">
        <ele>90.6</ele>
        <time>2015-01-05T21:25:59.520Z</time>
      </trkpt>
      <trkpt lat="48.85426" lon="2.34468">
        <ele>90.6</ele>
        <time>2015-01-05T21:26:00.539Z</time>
      </trkpt>
      <trkpt lat="48.85432" lon="2.3447">
        <ele>91</ele>
        <time>2015-01-05T21:26:01.543Z</time>
      </trkpt>
      <trkpt lat="48.85438" lon="2.34473">
        <ele>91.4</ele>
        <time>2015-01-05T21:26:02.559Z</time>
      </trkpt>
      <trkpt lat="48.85445" lon="2.34476">
        <ele>92</ele>
        <time>2015-01-05T21:26:03.561Z</time>
      </trkpt>
      <trkpt lat="48.85452" lon="2.34479">
        <ele>92.6</ele>
        <time>2015-01-05T21:26:04.606Z</time>
      </trkpt>
      <trkpt lat="48.85455" lon="2.34483">
        <ele>92.9</ele>
        <time>2015-01-05T21:26:05.523Z</time>
      </trkpt>
      <trkpt lat="48.85461" lon="2.34493">
        <ele>92.1</ele>
        <time>2015-01-05T21:26:07.533Z</time>
      </trkpt>
      <trkpt lat="48.85462" lon="2.34499">
        <ele>91.4</ele>
        <time>2015-01-05T21:26:08.563Z</time>
      </trkpt>
      <trkpt lat="48.85466" lon="2.34504">
        <ele>90.8</ele>
        <time>2015-01-05T21:26:09.593Z</time>
      </trkpt>
      <trkpt lat="48.85468" lon="2.34511">
        <ele>90.4</ele>
        <time>2015-01-05T21:26:10.607Z</time>
      </trkpt>
      <trkpt lat="48.85471" lon="2.34518">
        <ele>90</ele>
        <time>2015-01-05T21:26:11.514Z</time>
      </trkpt>
      <trkpt lat="48.85475" lon="2.34523">
        <ele>89.5</ele>
        <time>2015-01-05T21:26:12.518Z</time>
      </trkpt>
      <trkpt lat="48.85481" lon="2.34527">
        <ele>89.2</ele>
        <time>2015-01-05T21:26:13.527Z</time>
      </trkpt>
      <trkpt lat="48.85486" lon="2.34529">
        <ele>89</ele>
        <time>2015-01-05T21:26:14.561Z</time>
      </trkpt>
      <trkpt lat="48.85491" lon="2.34531">
        <ele>88.8</ele>
        <time>2015-01-05T21:26:15.577Z</time>
      </trkpt>
      <trkpt lat="48.85496" lon="2.34535">
        <ele>88.6</ele>
        <time>2015-01-05T21:26:16.595Z</time>
      </trkpt>
      <trkpt lat="48.85503" lon="2.34536">
        <ele>88.1</ele>
        <time>2015-01-05T21:26:17.511Z</time>
      </trkpt>
      <trkpt lat="48.85512" lon="2.34533">
        <ele>87.7</ele>
        <time>2015-01-05T21:26:18.515Z</time>
      </trkpt>
      <trkpt lat="48.85519" lon="2.34534">
        <ele>87.3</ele>
        <time>2015-01-05T21:26:19.516Z</time>
      </trkpt>
      <trkpt lat="48.85526" lon="2.34535">
        <ele>87</ele>
        <time>2015-01-05T21:26:20.550Z</time>
      </trkpt>
      <trkpt lat="48.85531" lon="2.34537">
        <ele>86.7</ele>
        <time>2015-01-05T21:26:21.561Z</time>
      </trkpt>
      <trkpt lat="48.85537" lon="2.34538">
        <ele>86.4</ele>
        <time>2015-01-05T21:26:22.575Z</time>
      </trkpt>
      <trkpt lat="48.85544" lon="2.34539">
        <ele>86.4</ele>
        <time>2015-01-05T21:26:24.528Z</time>
      </trkpt>
      <trkpt lat="48.85546" lon="2.34543">
        <ele>86.7</ele>
        <time>2015-01-05T21:26:25.542Z</time>
      </trkpt>
      <trkpt lat="48.85551" lon="2.34553">
        <ele>88.3</ele>
        <time>2015-01-05T21:26:28.647Z</time>
      </trkpt>
      <trkpt lat="48.85552" lon="2.34559">
        <ele>89</ele>
        <time>2015-01-05T21:26:29.520Z</time>
      </trkpt>
      <trkpt lat="48.85555" lon="2.34564">
        <ele>89.7</ele>
        <time>2015-01-05T21:26:30.528Z</time>
      </trkpt>
      <trkpt lat="48.85556" lon="2.34571">
        <ele>90.2</ele>
        <time>2015-01-05T21:26:31.558Z</time>
      </trkpt>
      <trkpt lat="48.85559" lon="2.34579">
        <ele>90.3</ele>
        <time>2015-01-05T21:26:32.559Z</time>
      </trkpt>
      <trkpt lat="48.8556" lon="2.34586">
        <ele>90.3</ele>
        <time>2015-01-05T21:26:33.583Z</time>
      </trkpt>
      <trkpt lat="48.85561" lon="2.34594">
        <ele>90.4</ele>
        <time>2015-01-05T21:26:34.595Z</time>
      </trkpt>
      <trkpt lat="48.85562" lon="2.346">
        <ele>90.8</ele>
        <time>2015-01-05T21:26:35.604Z</time>
      </trkpt>
      <trkpt lat="48.85564" lon="2.34606">
        <ele>90.7</ele>
        <time>2015-01-05T21:26:36.483Z</time>
      </trkpt>
      <trkpt lat="48.85569" lon="2.34617">
        <ele>90</ele>
        <time>2015-01-05T21:26:37.496Z</time>
      </trkpt>
      <trkpt lat="48.85574" lon="2.34627">
        <ele>89.5</ele>
        <time>2015-01-05T21:26:38.536Z</time>
      </trkpt>
      <trkpt lat="48.85579" lon="2.34635">
        <ele>89</ele>
        <time>2015-01-05T21:26:39.555Z</time>
      </trkpt>
      <trkpt lat="48.85584" lon="2.34645">
        <ele>88.6</ele>
        <time>2015-01-05T21:26:40.465Z</time>
      </trkpt>
      <trkpt lat="48.85592" lon="2.3465">
        <ele>88.4</ele>
        <time>2015-01-05T21:26:41.505Z</time>
      </trkpt>
      <trkpt lat="48.85599" lon="2.34654">
        <ele>88.1</ele>
        <time>2015-01-05T21:26:42.957Z</time>
      </trkpt>
      <trkpt lat="48.85603" lon="2.34661">
        <ele>88</ele>
        <time>2015-01-05T21:26:43.525Z</time>
      </trkpt>
      <trkpt lat="48.85603" lon="2.34661">
        <ele>88</ele>
        <time>2015-01-05T21:26:43.561Z</time>
      </trkpt>
      <trkpt lat="48.8563" lon="2.34682">
        <ele>86.4</ele>
        <time>2015-01-05T21:26:50.531Z</time>
      </trkpt>
      <trkpt lat="48.85639" lon="2.34683">
        <ele>86.3</ele>
        <time>2015-01-05T21:26:52.586Z</time>
      </trkpt>
      <trkpt lat="48.85642" lon="2.34685">
        <ele>86.5</ele>
        <time>2015-01-05T21:26:53.600Z</time>
      </trkpt>
      <trkpt lat="48.8565" lon="2.34687">
        <ele>86.4</ele>
        <time>2015-01-05T21:26:55.666Z</time>
      </trkpt>
      <trkpt lat="48.85653" lon="2.34689">
        <ele>86.5</ele>
        <time>2015-01-05T21:26:56.680Z</time>
      </trkpt>
      <trkpt lat="48.8566" lon="2.34692">
        <ele>87.2</ele>
        <time>2015-01-05T21:26:58.620Z</time>
      </trkpt>
      <trkpt lat="48.85664" lon="2.34694">
        <ele>87.8</ele>
        <time>2015-01-05T21:26:59.634Z</time>
      </trkpt>
      <trkpt lat="48.85671" lon="2.34697">
        <ele>88</ele>
        <time>2015-01-05T21:27:01.685Z</time>
      </trkpt>
      <trkpt lat="48.85674" lon="2.34699">
        <ele>88.1</ele>
        <time>2015-01-05T21:27:02.690Z</time>
      </trkpt>
      <trkpt lat="48.8568" lon="2.34702">
        <ele>87.8</ele>
        <time>2015-01-05T21:27:04.603Z</time>
      </trkpt>
      <trkpt lat="48.85683" lon="2.34704">
        <ele>87.6</ele>
        <time>2015-01-05T21:27:05.666Z</time>
      </trkpt>
      <trkpt lat="48.8569" lon="2.34707">
        <ele>88.1</ele>
        <time>2015-01-05T21:27:07.695Z</time>
      </trkpt>
      <trkpt lat="48.85693" lon="2.34708">
        <ele>88.1</ele>
        <time>2015-01-05T21:27:08.715Z</time>
      </trkpt>
      <trkpt lat="48.85701" lon="2.34713">
        <ele>87.8</ele>
        <time>2015-01-05T21:27:11.641Z</time>
      </trkpt>
      <trkpt lat="48.85703" lon="2.34716">
        <ele>87.5</ele>
        <time>2015-01-05T21:27:12.628Z</time>
      </trkpt>
      <trkpt lat="48.8571" lon="2.34724">
        <ele>85.5</ele>
        <time>2015-01-05T21:27:16.636Z</time>
      </trkpt>
      <trkpt lat="48.85712" lon="2.34727">
        <ele>85</ele>
        <time>2015-01-05T21:27:17.529Z</time>
      </trkpt>
      <trkpt lat="48.85716" lon="2.34735">
        <ele>84.5</ele>
        <time>2015-01-05T21:27:20.603Z</time>
      </trkpt>
      <trkpt lat="48.85719" lon="2.34738">
        <ele>83.9</ele>
        <time>2015-01-05T21:27:21.520Z</time>
      </trkpt>
      <trkpt lat="48.85725" lon="2.34744">
        <ele>82.9</ele>
        <time>2015-01-05T21:27:23.583Z</time>
      </trkpt>
      <trkpt lat="48.85728" lon="2.34746">
        <ele>82.3</ele>
        <time>2015-01-05T21:27:24.590Z</time>
      </trkpt>
      <trkpt lat="48.85735" lon="2.34752">
        <ele>82.1</ele>
        <time>2015-01-05T21:27:26.631Z</time>
      </trkpt>
      <trkpt lat="48.85738" lon="2.34754">
        <ele>81.3</ele>
        <time>2015-01-05T21:27:27.535Z</time>
      </trkpt>
      <trkpt lat="48.85746" lon="2.34758">
        <ele>80.6</ele>
        <time>2015-01-05T21:27:29.533Z</time>
      </trkpt>
      <trkpt lat="48.8575" lon="2.3476">
        <ele>80.5</ele>
        <time>2015-01-05T21:27:30.547Z</time>
      </trkpt>
      <trkpt lat="48.85756" lon="2.34765">
        <ele>80.3</ele>
        <time>2015-01-05T21:27:32.587Z</time>
      </trkpt>
      <trkpt lat="48.85759" lon="2.34767">
        <ele>80.3</ele>
        <time>2015-01-05T21:27:33.615Z</time>
      </trkpt>
      <trkpt lat="48.85768" lon="2.34767">
        <ele>80.7</ele>
        <time>2015-01-05T21:27:35.634Z</time>
      </trkpt>
      <trkpt lat="48.85773" lon="2.34765">
        <ele>80.8</ele>
        <time>2015-01-05T21:27:36.642Z</time>
      </trkpt>
      <trkpt lat="48.85779" lon="2.34757">
        <ele>80.4</ele>
        <time>2015-01-05T21:27:38.664Z</time>
      </trkpt>
      <trkpt lat="48.85782" lon="2.34751">
        <ele>80.3</ele>
        <time>2015-01-05T21:27:39.671Z</time>
      </trkpt>
      <trkpt lat="48.85787" lon="2.3474">
        <ele>80.2</ele>
        <time>2015-01-05T21:27:41.611Z</time>
      </trkpt>
      <trkpt lat="48.85789" lon="2.34734">
        <ele>80.6</ele>
        <time>2015-01-05T21:27:42.617Z</time>
      </trkpt>
      <trkpt lat="48.85796" lon="2.34729">
        <ele>81.7</ele>
        <time>2015-01-05T21:27:44.508Z</time>
      </trkpt>
      <trkpt lat="48.858" lon="2.34729">
        <ele>81.8</ele>
        <time>2015-01-05T21:27:45.514Z</time>
      </trkpt>
      <trkpt lat="48.85808" lon="2.34729">
        <ele>82.3</ele>
        <time>2015-01-05T21:27:47.565Z</time>
      </trkpt>
      <trkpt lat="48.85812" lon="2.34729">
        <ele>82.6</ele>
        <time>2015-01-05T21:27:48.577Z</time>
      </trkpt>
      <trkpt lat="48.8582" lon="2.34732">
        <ele>83</ele>
        <time>2015-01-05T21:27:50.621Z</time>
      </trkpt>
      <trkpt lat="48.85825" lon="2.34733">
        <ele>83.3</ele>
        <time>2015-01-05T21:27:51.501Z</time>
      </trkpt>
      <trkpt lat="48.8583" lon="2.34734">
        <ele>83.3</ele>
        <time>2015-01-05T21:27:52.506Z</time>
      </trkpt>
      <trkpt lat="48.85837" lon="2.34735">
        <ele>83.1</ele>
        <time>2015-01-05T21:27:53.506Z</time>
      </trkpt>
      <trkpt lat="48.85843" lon="2.34734">
        <ele>83.2</ele>
        <time>2015-01-05T21:27:54.611Z</time>
      </trkpt>
      <trkpt lat="48.85848" lon="2.34735">
        <ele>83.2</ele>
        <time>2015-01-05T21:27:55.651Z</time>
      </trkpt>
      <trkpt lat="48.85852" lon="2.34736">
        <ele>83.7</ele>
        <time>2015-01-05T21:27:57.408Z</time>
      </trkpt>
      <trkpt lat="48.85859" lon="2.34735">
        <ele>84.3</ele>
        <time>2015-01-05T21:27:57.534Z</time>
      </trkpt>
      <trkpt lat="48.85867" lon="2.34733">
        <ele>84.6</ele>
        <time>2015-01-05T21:27:59.595Z</time>
      </trkpt>
      <trkpt lat="48.85871" lon="2.34734">
        <ele>85</ele>
        <time>2015-01-05T21:28:00.500Z</time>
      </trkpt>
      <trkpt lat="48.85879" lon="2.34735">
        <ele>85.7</ele>
        <time>2015-01-05T21:28:02.553Z</time>
      </trkpt>
      <trkpt lat="48.85884" lon="2.34735">
        <ele>86.2</ele>
        <time>2015-01-05T21:28:03.566Z</time>
      </trkpt>
      <trkpt lat="48.85893" lon="2.34734">
        <ele>86.5</ele>
        <time>2015-01-05T21:28:05.501Z</time>
      </trkpt>
      <trkpt lat="48.85898" lon="2.3473">
        <ele>86.9</ele>
        <time>2015-01-05T21:28:06.517Z</time>
      </trkpt>
      <trkpt lat="48.85903" lon="2.34727">
        <ele>86.8</ele>
        <time>2015-01-05T21:28:07.548Z</time>
      </trkpt>
      <trkpt lat="48.85908" lon="2.34724">
        <ele>87.1</ele>
        <time>2015-01-05T21:28:08.636Z</time>
      </trkpt>
      <trkpt lat="48.85913" lon="2.34721">
        <ele>87.1</ele>
        <time>2015-01-05T21:28:09.680Z</time>
      </trkpt>
      <trkpt lat="48.85917" lon="2.34718">
        <ele>86.9</ele>
        <time>2015-01-05T21:28:10.701Z</time>
      </trkpt>
      <trkpt lat="48.85925" lon="2.34712">
        <ele>87.9</ele>
        <time>2015-01-05T21:28:12.626Z</time>
      </trkpt>
      <trkpt lat="48.85929" lon="2.34709">
        <ele>88</ele>
        <time>2015-01-05T21:28:13.641Z</time>
      </trkpt>
      <trkpt lat="48.85937" lon="2.34705">
        <ele>88.3</ele>
        <time>2015-01-05T21:28:15.514Z</time>
      </trkpt>
      <trkpt lat="48.85941" lon="2.34703">
        <ele>88.5</ele>
        <time>2015-01-05T21:28:16.611Z</time>
      </trkpt>
      <trkpt lat="48.85947" lon="2.34705">
        <ele>89.3</ele>
        <time>2015-01-05T21:28:18.606Z</time>
      </trkpt>
      <trkpt lat="48.8595" lon="2.34706">
        <ele>90.6</ele>
        <time>2015-01-05T21:28:19.513Z</time>
      </trkpt>
    </trkseg>
  </trk>
  <trk>
    <name><![CDATA[19/01/2015 20:18]]></name>
    <extensions>
      <line xmlns="http://www.topografix.com/GPX/gpx_style/0/2">
        <color>000000</color>
      </line>
    </extensions>
    <trkseg>
      <trkpt lat="48.85738" lon="2.34735">
        <ele>103</ele>
        <time>2015-01-19T19:18:28.631Z</time>
      </trkpt>
      <trkpt lat="48.8574" lon="2.34733">
        <ele>99.1</ele>
        <time>2015-01-19T19:19:23.150Z</time>
      </trkpt>
      <trkpt lat="48.85739" lon="2.34733">
        <ele>98.9</ele>
        <time>2015-01-19T19:19:24.163Z</time>
      </trkpt>
      <trkpt lat="48.85738" lon="2.34734">
        <ele>98.9</ele>
        <time>2015-01-19T19:19:25.175Z</time>
      </trkpt>
      <trkpt lat="48.85738" lon="2.34738">
        <ele>99.1</ele>
        <time>2015-01-19T19:19:28.076Z</time>
      </trkpt>
      <trkpt lat="48.85738" lon="2.34738">
        <ele>99.1</ele>
        <time>2015-01-19T19:19:29.088Z</time>
      </trkpt>
      <trkpt lat="48.85737" lon="2.34738">
        <ele>99.2</ele>
        <time>2015-01-19T19:19:43.152Z</time>
      </trkpt>
      <trkpt lat="48.85737" lon="2.34734">
        <ele>99.1</ele>
        <time>2015-01-19T19:19:44.118Z</time>
      </trkpt>
      <trkpt lat="48.85737" lon="2.34734">
        <ele>99.1</ele>
        <time>2015-01-19T19:19:44.225Z</time>
      </trkpt>
      <trkpt lat="48.85737" lon="2.34734">
        <ele>99</ele>
        <time>2015-01-19T19:19:45.054Z</time>
      </trkpt>
      <trkpt lat="48.85737" lon="2.34734">
        <ele>99.2</ele>
        <time>2015-01-19T19:19:46.093Z</time>
      </trkpt>
      <trkpt lat="48.85743" lon="2.34723">
        <ele>93.9</ele>
        <time>2015-01-19T19:21:42.079Z</time>
      </trkpt>
      <trkpt lat="48.85743" lon="2.34721">
        <ele>93.8</ele>
        <time>2015-01-19T19:21:43.138Z</time>
      </trkpt>
      <trkpt lat="48.85751" lon="2.34717">
        <ele>94.8</ele>
        <time>2015-01-19T19:21:51.053Z</time>
      </trkpt>
      <trkpt lat="48.85752" lon="2.34718">
        <ele>94.9</ele>
        <time>2015-01-19T19:21:52.071Z</time>
      </trkpt>
      <trkpt lat="48.85758" lon="2.34724">
        <ele>94.5</ele>
        <time>2015-01-19T19:21:56.182Z</time>
      </trkpt>
      <trkpt lat="48.85761" lon="2.34725">
        <ele>93.9</ele>
        <time>2015-01-19T19:21:57.088Z</time>
      </trkpt>
      <trkpt lat="48.85769" lon="2.34723">
        <ele>91.9</ele>
        <time>2015-01-19T19:21:59.169Z</time>
      </trkpt>
      <trkpt lat="48.85774" lon="2.34722">
        <ele>90.8</ele>
        <time>2015-01-19T19:22:00.155Z</time>
      </trkpt>
      <trkpt lat="48.8578" lon="2.34719">
        <ele>90.4</ele>
        <time>2015-01-19T19:22:02.110Z</time>
      </trkpt>
      <trkpt lat="48.85783" lon="2.34717">
        <ele>90.3</ele>
        <time>2015-01-19T19:22:03.125Z</time>
      </trkpt>
      <trkpt lat="48.85791" lon="2.34711">
        <ele>89.9</ele>
        <time>2015-01-19T19:22:06.133Z</time>
      </trkpt>
      <trkpt lat="48.85792" lon="2.34708">
        <ele>90</ele>
        <time>2015-01-19T19:22:07.126Z</time>
      </trkpt>
      <trkpt lat="48.85796" lon="2.347">
        <ele>90.4</ele>
        <time>2015-01-19T19:22:09.067Z</time>
      </trkpt>
      <trkpt lat="48.85798" lon="2.34695">
        <ele>90.5</ele>
        <time>2015-01-19T19:22:10.090Z</time>
      </trkpt>
      <trkpt lat="48.858" lon="2.34684">
        <ele>90.9</ele>
        <time>2015-01-19T19:22:12.075Z</time>
      </trkpt>
      <trkpt lat="48.85802" lon="2.34678">
        <ele>91.3</ele>
        <time>2015-01-19T19:22:13.129Z</time>
      </trkpt>
      <trkpt lat="48.85805" lon="2.3467">
        <ele>91.5</ele>
        <time>2015-01-19T19:22:15.165Z</time>
      </trkpt>
      <trkpt lat="48.85807" lon="2.34667">
        <ele>91.5</ele>
        <time>2015-01-19T19:22:16.071Z</time>
      </trkpt>
      <trkpt lat="48.85811" lon="2.3466">
        <ele>91</ele>
        <time>2015-01-19T19:22:18.158Z</time>
      </trkpt>
      <trkpt lat="48.85812" lon="2.34653">
        <ele>90.2</ele>
        <time>2015-01-19T19:22:19.168Z</time>
      </trkpt>
      <trkpt lat="48.85816" lon="2.34642">
        <ele>89.9</ele>
        <time>2015-01-19T19:22:21.087Z</time>
      </trkpt>
      <trkpt lat="48.85819" lon="2.34637">
        <ele>90.2</ele>
        <time>2015-01-19T19:22:22.155Z</time>
      </trkpt>
      <trkpt lat="48.85823" lon="2.34627">
        <ele>90.7</ele>
        <time>2015-01-19T19:22:24.152Z</time>
      </trkpt>
      <trkpt lat="48.85824" lon="2.34623">
        <ele>91</ele>
        <time>2015-01-19T19:22:25.237Z</time>
      </trkpt>
      <trkpt lat="48.85827" lon="2.34613">
        <ele>91.7</ele>
        <time>2015-01-19T19:22:28.092Z</time>
      </trkpt>
      <trkpt lat="48.85828" lon="2.3461">
        <ele>91.8</ele>
        <time>2015-01-19T19:22:29.134Z</time>
      </trkpt>
      <trkpt lat="48.85834" lon="2.34605">
        <ele>91.8</ele>
        <time>2015-01-19T19:22:33.096Z</time>
      </trkpt>
      <trkpt lat="48.85837" lon="2.34606">
        <ele>91.8</ele>
        <time>2015-01-19T19:22:34.154Z</time>
      </trkpt>
      <trkpt lat="48.85844" lon="2.34606">
        <ele>91.9</ele>
        <time>2015-01-19T19:22:36.057Z</time>
      </trkpt>
      <trkpt lat="48.85848" lon="2.34605">
        <ele>91.9</ele>
        <time>2015-01-19T19:22:37.095Z</time>
      </trkpt>
      <trkpt lat="48.85855" lon="2.34605">
        <ele>91.9</ele>
        <time>2015-01-19T19:22:40.143Z</time>
      </trkpt>
      <trkpt lat="48.85857" lon="2.34605">
        <ele>92.1</ele>
        <time>2015-01-19T19:22:41.062Z</time>
      </trkpt>
      <trkpt lat="48.85865" lon="2.34602">
        <ele>92.6</ele>
        <time>2015-01-19T19:22:44.136Z</time>
      </trkpt>
      <trkpt lat="48.85868" lon="2.34598">
        <ele>92.7</ele>
        <time>2015-01-19T19:22:45.056Z</time>
      </trkpt>
      <trkpt lat="48.85902" lon="2.34552">
        <ele>93.6</ele>
        <time>2015-01-19T19:22:58.166Z</time>
      </trkpt>
      <trkpt lat="48.85904" lon="2.3454">
        <ele>93.7</ele>
        <time>2015-01-19T19:23:01.124Z</time>
      </trkpt>
      <trkpt lat="48.85908" lon="2.34535">
        <ele>94.3</ele>
        <time>2015-01-19T19:23:02.135Z</time>
      </trkpt>
      <trkpt lat="48.85914" lon="2.34529">
        <ele>93.5</ele>
        <time>2015-01-19T19:23:09.117Z</time>
      </trkpt>
      <trkpt lat="48.85918" lon="2.3453">
        <ele>92.6</ele>
        <time>2015-01-19T19:23:10.123Z</time>
      </trkpt>
      <trkpt lat="48.85926" lon="2.34529">
        <ele>89.9</ele>
        <time>2015-01-19T19:23:12.067Z</time>
      </trkpt>
      <trkpt lat="48.85931" lon="2.34528">
        <ele>87</ele>
        <time>2015-01-19T19:23:13.212Z</time>
      </trkpt>
      <trkpt lat="48.85937" lon="2.34531">
        <ele>83.4</ele>
        <time>2015-01-19T19:23:14.064Z</time>
      </trkpt>
      <trkpt lat="48.85941" lon="2.34534">
        <ele>80.9</ele>
        <time>2015-01-19T19:23:15.059Z</time>
      </trkpt>
      <trkpt lat="48.85946" lon="2.34527">
        <ele>79</ele>
        <time>2015-01-19T19:23:18.078Z</time>
      </trkpt>
      <trkpt lat="48.85949" lon="2.34523">
        <ele>77.1</ele>
        <time>2015-01-19T19:23:19.103Z</time>
      </trkpt>
      <trkpt lat="48.85952" lon="2.34512">
        <ele>84.7</ele>
        <time>2015-01-19T19:23:25.137Z</time>
      </trkpt>
      <trkpt lat="48.85953" lon="2.34509">
        <ele>85.8</ele>
        <time>2015-01-19T19:23:26.070Z</time>
      </trkpt>
      <trkpt lat="48.85953" lon="2.34507">
        <ele>88.2</ele>
        <time>2015-01-19T19:23:27.094Z</time>
      </trkpt>
      <trkpt lat="48.85954" lon="2.34508">
        <ele>89.2</ele>
        <time>2015-01-19T19:23:28.108Z</time>
      </trkpt>
      <trkpt lat="48.85955" lon="2.34509">
        <ele>89.6</ele>
        <time>2015-01-19T19:23:34.098Z</time>
      </trkpt>
      <trkpt lat="48.85958" lon="2.34511">
        <ele>91.5</ele>
        <time>2015-01-19T19:23:35.140Z</time>
      </trkpt>
      <trkpt lat="48.85959" lon="2.34512">
        <ele>92.8</ele>
        <time>2015-01-19T19:23:36.164Z</time>
      </trkpt>
      <trkpt lat="48.85958" lon="2.34512">
        <ele>93.8</ele>
        <time>2015-01-19T19:23:37.169Z</time>
      </trkpt>
      <trkpt lat="48.85958" lon="2.34516">
        <ele>95.7</ele>
        <time>2015-01-19T19:23:41.073Z</time>
      </trkpt>
      <trkpt lat="48.85959" lon="2.34516">
        <ele>95.8</ele>
        <time>2015-01-19T19:23:42.178Z</time>
      </trkpt>
      <trkpt lat="48.85959" lon="2.34517">
        <ele>96.1</ele>
        <time>2015-01-19T19:23:46.072Z</time>
      </trkpt>
      <trkpt lat="48.85959" lon="2.34518">
        <ele>96.3</ele>
        <time>2015-01-19T19:23:47.161Z</time>
      </trkpt>
      <trkpt lat="48.85959" lon="2.34521">
        <ele>99.1</ele>
        <time>2015-01-19T19:23:58.140Z</time>
      </trkpt>
      <trkpt lat="48.85961" lon="2.3452">
        <ele>98.7</ele>
        <time>2015-01-19T19:23:59.152Z</time>
      </trkpt>
      <trkpt lat="48.85963" lon="2.34519">
        <ele>98.2</ele>
        <time>2015-01-19T19:24:00.074Z</time>
      </trkpt>
      <trkpt lat="48.85964" lon="2.34517">
        <ele>97.8</ele>
        <time>2015-01-19T19:24:01.094Z</time>
      </trkpt>
      <trkpt lat="48.85968" lon="2.34509">
        <ele>97.2</ele>
        <time>2015-01-19T19:24:04.122Z</time>
      </trkpt>
      <trkpt lat="48.85969" lon="2.34505">
        <ele>97.7</ele>
        <time>2015-01-19T19:24:05.148Z</time>
      </trkpt>
      <trkpt lat="48.85973" lon="2.34495">
        <ele>98</ele>
        <time>2015-01-19T19:24:08.115Z</time>
      </trkpt>
      <trkpt lat="48.85973" lon="2.3449">
        <ele>97.6</ele>
        <time>2015-01-19T19:24:09.063Z</time>
      </trkpt>
      <trkpt lat="48.85974" lon="2.34478">
        <ele>97.5</ele>
        <time>2015-01-19T19:24:12.076Z</time>
      </trkpt>
      <trkpt lat="48.85976" lon="2.34474">
        <ele>97.7</ele>
        <time>2015-01-19T19:24:13.120Z</time>
      </trkpt>
      <trkpt lat="48.85978" lon="2.34466">
        <ele>97.8</ele>
        <time>2015-01-19T19:24:15.073Z</time>
      </trkpt>
      <trkpt lat="48.85979" lon="2.34459">
        <ele>98.8</ele>
        <time>2015-01-19T19:24:16.116Z</time>
      </trkpt>
      <trkpt lat="48.85979" lon="2.34452">
        <ele>99.3</ele>
        <time>2015-01-19T19:24:17.165Z</time>
      </trkpt>
      <trkpt lat="48.85978" lon="2.34439">
        <ele>100.7</ele>
        <time>2015-01-19T19:24:18.069Z</time>
      </trkpt>
      <trkpt lat="48.85979" lon="2.34425">
        <ele>100.9</ele>
        <time>2015-01-19T19:24:20.158Z</time>
      </trkpt>
      <trkpt lat="48.8598" lon="2.3442">
        <ele>101.5</ele>
        <time>2015-01-19T19:24:21.078Z</time>
      </trkpt>
      <trkpt lat="48.85985" lon="2.34412">
        <ele>102.9</ele>
        <time>2015-01-19T19:24:24.146Z</time>
      </trkpt>
      <trkpt lat="48.85987" lon="2.3441">
        <ele>103.5</ele>
        <time>2015-01-19T19:24:25.532Z</time>
      </trkpt>
      <trkpt lat="48.85988" lon="2.344">
        <ele>104.2</ele>
        <time>2015-01-19T19:24:27.148Z</time>
      </trkpt>
      <trkpt lat="48.85987" lon="2.34392">
        <ele>104.5</ele>
        <time>2015-01-19T19:24:28.163Z</time>
      </trkpt>
      <trkpt lat="48.85989" lon="2.34381">
        <ele>105</ele>
        <time>2015-01-19T19:24:30.072Z</time>
      </trkpt>
      <trkpt lat="48.85991" lon="2.34375">
        <ele>105.1</ele>
        <time>2015-01-19T19:24:31.122Z</time>
      </trkpt>
      <trkpt lat="48.85994" lon="2.34363">
        <ele>104.7</ele>
        <time>2015-01-19T19:24:33.065Z</time>
      </trkpt>
      <trkpt lat="48.85995" lon="2.34356">
        <ele>104.6</ele>
        <time>2015-01-19T19:24:34.073Z</time>
      </trkpt>
      <trkpt lat="48.85999" lon="2.34344">
        <ele>104.4</ele>
        <time>2015-01-19T19:24:36.139Z</time>
      </trkpt>
      <trkpt lat="48.86" lon="2.34338">
        <ele>104.5</ele>
        <time>2015-01-19T19:24:37.156Z</time>
      </trkpt>
      <trkpt lat="48.86005" lon="2.34328">
        <ele>104.6</ele>
        <time>2015-01-19T19:24:39.090Z</time>
      </trkpt>
      <trkpt lat="48.86007" lon="2.34323">
        <ele>104.4</ele>
        <time>2015-01-19T19:24:40.156Z</time>
      </trkpt>
      <trkpt lat="48.86009" lon="2.34317">
        <ele>104.7</ele>
        <time>2015-01-19T19:24:41.068Z</time>
      </trkpt>
      <trkpt lat="48.86011" lon="2.3431">
        <ele>104.6</ele>
        <time>2015-01-19T19:24:42.067Z</time>
      </trkpt>
      <trkpt lat="48.86013" lon="2.34303">
        <ele>104.8</ele>
        <time>2015-01-19T19:24:43.123Z</time>
      </trkpt>
      <trkpt lat="48.86015" lon="2.34296">
        <ele>105.1</ele>
        <time>2015-01-19T19:24:44.134Z</time>
      </trkpt>
      <trkpt lat="48.86018" lon="2.34283">
        <ele>105.8</ele>
        <time>2015-01-19T19:24:46.172Z</time>
      </trkpt>
      <trkpt lat="48.86019" lon="2.34277">
        <ele>105.9</ele>
        <time>2015-01-19T19:24:47.090Z</time>
      </trkpt>
      <trkpt lat="48.86023" lon="2.34268">
        <ele>105.7</ele>
        <time>2015-01-19T19:24:49.108Z</time>
      </trkpt>
      <trkpt lat="48.86025" lon="2.34262">
        <ele>105.2</ele>
        <time>2015-01-19T19:24:50.118Z</time>
      </trkpt>
      <trkpt lat="48.86029" lon="2.34251">
        <ele>104.1</ele>
        <time>2015-01-19T19:24:52.087Z</time>
      </trkpt>
      <trkpt lat="48.86031" lon="2.34246">
        <ele>103.6</ele>
        <time>2015-01-19T19:24:53.099Z</time>
      </trkpt>
      <trkpt lat="48.86034" lon="2.34234">
        <ele>103.1</ele>
        <time>2015-01-19T19:24:55.128Z</time>
      </trkpt>
      <trkpt lat="48.86036" lon="2.34229">
        <ele>103.1</ele>
        <time>2015-01-19T19:24:56.133Z</time>
      </trkpt>
      <trkpt lat="48.8604" lon="2.34218">
        <ele>103.1</ele>
        <time>2015-01-19T19:24:58.080Z</time>
      </trkpt>
      <trkpt lat="48.86041" lon="2.34212">
        <ele>103</ele>
        <time>2015-01-19T19:24:59.121Z</time>
      </trkpt>
      <trkpt lat="48.86042" lon="2.34205">
        <ele>103.2</ele>
        <time>2015-01-19T19:25:00.177Z</time>
      </trkpt>
      <trkpt lat="48.86044" lon="2.34199">
        <ele>103.2</ele>
        <time>2015-01-19T19:25:01.175Z</time>
      </trkpt>
      <trkpt lat="48.86046" lon="2.34192">
        <ele>103.4</ele>
        <time>2015-01-19T19:25:02.100Z</time>
      </trkpt>
      <trkpt lat="48.86049" lon="2.34186">
        <ele>103.5</ele>
        <time>2015-01-19T19:25:03.108Z</time>
      </trkpt>
      <trkpt lat="48.86053" lon="2.34176">
        <ele>103.6</ele>
        <time>2015-01-19T19:25:05.065Z</time>
      </trkpt>
      <trkpt lat="48.86055" lon="2.3417">
        <ele>103.5</ele>
        <time>2015-01-19T19:25:06.064Z</time>
      </trkpt>
      <trkpt lat="48.86057" lon="2.34164">
        <ele>103.5</ele>
        <time>2015-01-19T19:25:07.094Z</time>
      </trkpt>
      <trkpt lat="48.86058" lon="2.34156">
        <ele>103.5</ele>
        <time>2015-01-19T19:25:08.127Z</time>
      </trkpt>
      <trkpt lat="48.8606" lon="2.34148">
        <ele>103.4</ele>
        <time>2015-01-19T19:25:09.167Z</time>
      </trkpt>
      <trkpt lat="48.86061" lon="2.34141">
        <ele>103.2</ele>
        <time>2015-01-19T19:25:10.071Z</time>
      </trkpt>
      <trkpt lat="48.86062" lon="2.34132">
        <ele>103.1</ele>
        <time>2015-01-19T19:25:11.125Z</time>
      </trkpt>
      <trkpt lat="48.86062" lon="2.34123">
        <ele>103</ele>
        <time>2015-01-19T19:25:12.124Z</time>
      </trkpt>
      <trkpt lat="48.86065" lon="2.34111">
        <ele>103.1</ele>
        <time>2015-01-19T19:25:14.052Z</time>
      </trkpt>
      <trkpt lat="48.86067" lon="2.34105">
        <ele>103.3</ele>
        <time>2015-01-19T19:25:15.068Z</time>
      </trkpt>
      <trkpt lat="48.86069" lon="2.34095">
        <ele>103.3</ele>
        <time>2015-01-19T19:25:17.118Z</time>
      </trkpt>
      <trkpt lat="48.86069" lon="2.3409">
        <ele>103.3</ele>
        <time>2015-01-19T19:25:18.126Z</time>
      </trkpt>
      <trkpt lat="48.86073" lon="2.34078">
        <ele>103.1</ele>
        <time>2015-01-19T19:25:21.071Z</time>
      </trkpt>
      <trkpt lat="48.86075" lon="2.34074">
        <ele>102.9</ele>
        <time>2015-01-19T19:25:22.095Z</time>
      </trkpt>
      <trkpt lat="48.86083" lon="2.34066">
        <ele>102.9</ele>
        <time>2015-01-19T19:25:24.130Z</time>
      </trkpt>
      <trkpt lat="48.86087" lon="2.34062">
        <ele>103</ele>
        <time>2015-01-19T19:25:25.195Z</time>
      </trkpt>
      <trkpt lat="48.86091" lon="2.34056">
        <ele>103.1</ele>
        <time>2015-01-19T19:25:26.069Z</time>
      </trkpt>
      <trkpt lat="48.86094" lon="2.34051">
        <ele>103</ele>
        <time>2015-01-19T19:25:27.075Z</time>
      </trkpt>
      <trkpt lat="48.86098" lon="2.34044">
        <ele>102.9</ele>
        <time>2015-01-19T19:25:28.087Z</time>
      </trkpt>
      <trkpt lat="48.86101" lon="2.34038">
        <ele>102.8</ele>
        <time>2015-01-19T19:25:29.095Z</time>
      </trkpt>
      <trkpt lat="48.86103" lon="2.34032">
        <ele>101.9</ele>
        <time>2015-01-19T19:25:30.098Z</time>
      </trkpt>
      <trkpt lat="48.86106" lon="2.34025">
        <ele>101.4</ele>
        <time>2015-01-19T19:25:31.112Z</time>
      </trkpt>
      <trkpt lat="48.86109" lon="2.34018">
        <ele>101.2</ele>
        <time>2015-01-19T19:25:32.118Z</time>
      </trkpt>
      <trkpt lat="48.86112" lon="2.34011">
        <ele>100.7</ele>
        <time>2015-01-19T19:25:33.123Z</time>
      </trkpt>
      <trkpt lat="48.86115" lon="2.34004">
        <ele>100.2</ele>
        <time>2015-01-19T19:25:34.134Z</time>
      </trkpt>
      <trkpt lat="48.86118" lon="2.33997">
        <ele>100.2</ele>
        <time>2015-01-19T19:25:35.146Z</time>
      </trkpt>
      <trkpt lat="48.8612" lon="2.3399">
        <ele>100</ele>
        <time>2015-01-19T19:25:36.153Z</time>
      </trkpt>
      <trkpt lat="48.86123" lon="2.33983">
        <ele>99.9</ele>
        <time>2015-01-19T19:25:37.164Z</time>
      </trkpt>
      <trkpt lat="48.86125" lon="2.33976">
        <ele>99.7</ele>
        <time>2015-01-19T19:25:38.083Z</time>
      </trkpt>
      <trkpt lat="48.86128" lon="2.33969">
        <ele>99.6</ele>
        <time>2015-01-19T19:25:39.088Z</time>
      </trkpt>
      <trkpt lat="48.8613" lon="2.33961">
        <ele>99.4</ele>
        <time>2015-01-19T19:25:40.121Z</time>
      </trkpt>
      <trkpt lat="48.86132" lon="2.33953">
        <ele>99.3</ele>
        <time>2015-01-19T19:25:41.140Z</time>
      </trkpt>
      <trkpt lat="48.86134" lon="2.33947">
        <ele>99</ele>
        <time>2015-01-19T19:25:42.064Z</time>
      </trkpt>
      <trkpt lat="48.86136" lon="2.3394">
        <ele>98.8</ele>
        <time>2015-01-19T19:25:43.119Z</time>
      </trkpt>
      <trkpt lat="48.86137" lon="2.33933">
        <ele>98.6</ele>
        <time>2015-01-19T19:25:44.116Z</time>
      </trkpt>
      <trkpt lat="48.86139" lon="2.33927">
        <ele>98.7</ele>
        <time>2015-01-19T19:25:45.133Z</time>
      </trkpt>
      <trkpt lat="48.86141" lon="2.33915">
        <ele>99</ele>
        <time>2015-01-19T19:25:47.148Z</time>
      </trkpt>
      <trkpt lat="48.86142" lon="2.33909">
        <ele>99</ele>
        <time>2015-01-19T19:25:48.159Z</time>
      </trkpt>
      <trkpt lat="48.86145" lon="2.33898">
        <ele>98.4</ele>
        <time>2015-01-19T19:25:50.044Z</time>
      </trkpt>
      <trkpt lat="48.86147" lon="2.33893">
        <ele>98.1</ele>
        <time>2015-01-19T19:25:51.052Z</time>
      </trkpt>
      <trkpt lat="48.86151" lon="2.33882">
        <ele>97.8</ele>
        <time>2015-01-19T19:25:53.067Z</time>
      </trkpt>
      <trkpt lat="48.86153" lon="2.33875">
        <ele>97.8</ele>
        <time>2015-01-19T19:25:54.082Z</time>
      </trkpt>
      <trkpt lat="48.86155" lon="2.33868">
        <ele>97.9</ele>
        <time>2015-01-19T19:25:55.082Z</time>
      </trkpt>
      <trkpt lat="48.86157" lon="2.33861">
        <ele>97.8</ele>
        <time>2015-01-19T19:25:56.086Z</time>
      </trkpt>
      <trkpt lat="48.86159" lon="2.33854">
        <ele>97.8</ele>
        <time>2015-01-19T19:25:57.097Z</time>
      </trkpt>
      <trkpt lat="48.86161" lon="2.33847">
        <ele>97.9</ele>
        <time>2015-01-19T19:25:58.110Z</time>
      </trkpt>
      <trkpt lat="48.86163" lon="2.3384">
        <ele>98.2</ele>
        <time>2015-01-19T19:26:00.061Z</time>
      </trkpt>
      <trkpt lat="48.86165" lon="2.33834">
        <ele>97.9</ele>
        <time>2015-01-19T19:26:00.174Z</time>
      </trkpt>
      <trkpt lat="48.86167" lon="2.33827">
        <ele>98</ele>
        <time>2015-01-19T19:26:01.182Z</time>
      </trkpt>
      <trkpt lat="48.86169" lon="2.3382">
        <ele>98.2</ele>
        <time>2015-01-19T19:26:02.189Z</time>
      </trkpt>
      <trkpt lat="48.86172" lon="2.33807">
        <ele>98.7</ele>
        <time>2015-01-19T19:26:04.060Z</time>
      </trkpt>
      <trkpt lat="48.86174" lon="2.338">
        <ele>99</ele>
        <time>2015-01-19T19:26:05.075Z</time>
      </trkpt>
      <trkpt lat="48.86176" lon="2.33793">
        <ele>99.2</ele>
        <time>2015-01-19T19:26:06.084Z</time>
      </trkpt>
      <trkpt lat="48.86178" lon="2.33786">
        <ele>99.2</ele>
        <time>2015-01-19T19:26:07.101Z</time>
      </trkpt>
      <trkpt lat="48.8618" lon="2.33779">
        <ele>99.4</ele>
        <time>2015-01-19T19:26:08.118Z</time>
      </trkpt>
      <trkpt lat="48.86182" lon="2.33772">
        <ele>99.4</ele>
        <time>2015-01-19T19:26:09.127Z</time>
      </trkpt>
      <trkpt lat="48.86183" lon="2.33765">
        <ele>99.4</ele>
        <time>2015-01-19T19:26:10.143Z</time>
      </trkpt>
      <trkpt lat="48.86185" lon="2.33758">
        <ele>99.5</ele>
        <time>2015-01-19T19:26:11.052Z</time>
      </trkpt>
      <trkpt lat="48.86187" lon="2.33752">
        <ele>99.4</ele>
        <time>2015-01-19T19:26:12.060Z</time>
      </trkpt>
      <trkpt lat="48.86189" lon="2.33745">
        <ele>99.4</ele>
        <time>2015-01-19T19:26:13.105Z</time>
      </trkpt>
      <trkpt lat="48.86192" lon="2.33738">
        <ele>99.4</ele>
        <time>2015-01-19T19:26:14.116Z</time>
      </trkpt>
      <trkpt lat="48.86194" lon="2.33732">
        <ele>99.3</ele>
        <time>2015-01-19T19:26:15.071Z</time>
      </trkpt>
      <trkpt lat="48.86196" lon="2.33725">
        <ele>99.3</ele>
        <time>2015-01-19T19:26:16.118Z</time>
      </trkpt>
      <trkpt lat="48.86199" lon="2.33719">
        <ele>99.2</ele>
        <time>2015-01-19T19:26:17.146Z</time>
      </trkpt>
      <trkpt lat="48.86202" lon="2.33713">
        <ele>99</ele>
        <time>2015-01-19T19:26:18.054Z</time>
      </trkpt>
      <trkpt lat="48.86204" lon="2.33706">
        <ele>98.8</ele>
        <time>2015-01-19T19:26:19.089Z</time>
      </trkpt>
      <trkpt lat="48.86206" lon="2.337">
        <ele>98.6</ele>
        <time>2015-01-19T19:26:20.114Z</time>
      </trkpt>
      <trkpt lat="48.8621" lon="2.33694">
        <ele>97.1</ele>
        <time>2015-01-19T19:26:21.129Z</time>
      </trkpt>
      <trkpt lat="48.86213" lon="2.33688">
        <ele>96.4</ele>
        <time>2015-01-19T19:26:22.150Z</time>
      </trkpt>
      <trkpt lat="48.86215" lon="2.33681">
        <ele>96</ele>
        <time>2015-01-19T19:26:23.056Z</time>
      </trkpt>
      <trkpt lat="48.86219" lon="2.33669">
        <ele>95.9</ele>
        <time>2015-01-19T19:26:25.104Z</time>
      </trkpt>
      <trkpt lat="48.8622" lon="2.33663">
        <ele>96</ele>
        <time>2015-01-19T19:26:26.129Z</time>
      </trkpt>
      <trkpt lat="48.86225" lon="2.33654">
        <ele>95.8</ele>
        <time>2015-01-19T19:26:28.059Z</time>
      </trkpt>
      <trkpt lat="48.86227" lon="2.33649">
        <ele>95.8</ele>
        <time>2015-01-19T19:26:29.091Z</time>
      </trkpt>
      <trkpt lat="48.86232" lon="2.3364">
        <ele>95.9</ele>
        <time>2015-01-19T19:26:31.129Z</time>
      </trkpt>
      <trkpt lat="48.86234" lon="2.33634">
        <ele>96</ele>
        <time>2015-01-19T19:26:32.133Z</time>
      </trkpt>
      <trkpt lat="48.86238" lon="2.33623">
        <ele>96.3</ele>
        <time>2015-01-19T19:26:34.146Z</time>
      </trkpt>
      <trkpt lat="48.8624" lon="2.33618">
        <ele>96.4</ele>
        <time>2015-01-19T19:26:35.096Z</time>
      </trkpt>
      <trkpt lat="48.86246" lon="2.33609">
        <ele>96.6</ele>
        <time>2015-01-19T19:26:37.169Z</time>
      </trkpt>
      <trkpt lat="48.86248" lon="2.33605">
        <ele>96.7</ele>
        <time>2015-01-19T19:26:38.093Z</time>
      </trkpt>
      <trkpt lat="48.86252" lon="2.33595">
        <ele>97</ele>
        <time>2015-01-19T19:26:40.097Z</time>
      </trkpt>
      <trkpt lat="48.86254" lon="2.3359">
        <ele>97.1</ele>
        <time>2015-01-19T19:26:41.114Z</time>
      </trkpt>
      <trkpt lat="48.86257" lon="2.3358">
        <ele>97.3</ele>
        <time>2015-01-19T19:26:43.150Z</time>
      </trkpt>
      <trkpt lat="48.86259" lon="2.33576">
        <ele>97.4</ele>
        <time>2015-01-19T19:26:44.068Z</time>
      </trkpt>
      <trkpt lat="48.86262" lon="2.33566">
        <ele>97.7</ele>
        <time>2015-01-19T19:26:46.712Z</time>
      </trkpt>
      <trkpt lat="48.86264" lon="2.3356">
        <ele>97.9</ele>
        <time>2015-01-19T19:26:47.074Z</time>
      </trkpt>
      <trkpt lat="48.86267" lon="2.33547">
        <ele>98</ele>
        <time>2015-01-19T19:26:49.140Z</time>
      </trkpt>
      <trkpt lat="48.86268" lon="2.33541">
        <ele>97.9</ele>
        <time>2015-01-19T19:26:50.273Z</time>
      </trkpt>
      <trkpt lat="48.8627" lon="2.33533">
        <ele>97.7</ele>
        <time>2015-01-19T19:26:51.834Z</time>
      </trkpt>
      <trkpt lat="48.86271" lon="2.33526">
        <ele>97.5</ele>
        <time>2015-01-19T19:26:52.101Z</time>
      </trkpt>
      <trkpt lat="48.86273" lon="2.33519">
        <ele>97.2</ele>
        <time>2015-01-19T19:26:53.108Z</time>
      </trkpt>
      <trkpt lat="48.86275" lon="2.33513">
        <ele>97.2</ele>
        <time>2015-01-19T19:26:54.114Z</time>
      </trkpt>
      <trkpt lat="48.86277" lon="2.33507">
        <ele>97.1</ele>
        <time>2015-01-19T19:26:55.129Z</time>
      </trkpt>
      <trkpt lat="48.86278" lon="2.335">
        <ele>97.1</ele>
        <time>2015-01-19T19:26:56.147Z</time>
      </trkpt>
      <trkpt lat="48.86281" lon="2.33493">
        <ele>97</ele>
        <time>2015-01-19T19:26:57.093Z</time>
      </trkpt>
      <trkpt lat="48.86283" lon="2.33487">
        <ele>96.9</ele>
        <time>2015-01-19T19:26:58.103Z</time>
      </trkpt>
      <trkpt lat="48.86285" lon="2.3348">
        <ele>96.8</ele>
        <time>2015-01-19T19:26:59.075Z</time>
      </trkpt>
      <trkpt lat="48.86288" lon="2.33474">
        <ele>96.8</ele>
        <time>2015-01-19T19:27:00.163Z</time>
      </trkpt>
      <trkpt lat="48.8629" lon="2.33468">
        <ele>96.8</ele>
        <time>2015-01-19T19:27:01.192Z</time>
      </trkpt>
      <trkpt lat="48.86292" lon="2.33462">
        <ele>96.8</ele>
        <time>2015-01-19T19:27:02.105Z</time>
      </trkpt>
      <trkpt lat="48.86294" lon="2.33455">
        <ele>96.8</ele>
        <time>2015-01-19T19:27:03.838Z</time>
      </trkpt>
      <trkpt lat="48.86297" lon="2.33447">
        <ele>96.8</ele>
        <time>2015-01-19T19:27:04.065Z</time>
      </trkpt>
      <trkpt lat="48.863" lon="2.33441">
        <ele>96.9</ele>
        <time>2015-01-19T19:27:05.073Z</time>
      </trkpt>
      <trkpt lat="48.86302" lon="2.33435">
        <ele>97.1</ele>
        <time>2015-01-19T19:27:06.082Z</time>
      </trkpt>
      <trkpt lat="48.86304" lon="2.33428">
        <ele>97</ele>
        <time>2015-01-19T19:27:07.112Z</time>
      </trkpt>
      <trkpt lat="48.86307" lon="2.33422">
        <ele>96.9</ele>
        <time>2015-01-19T19:27:08.124Z</time>
      </trkpt>
      <trkpt lat="48.86311" lon="2.3341">
        <ele>97</ele>
        <time>2015-01-19T19:27:10.041Z</time>
      </trkpt>
      <trkpt lat="48.86313" lon="2.33404">
        <ele>97</ele>
        <time>2015-01-19T19:27:11.063Z</time>
      </trkpt>
      <trkpt lat="48.86316" lon="2.33393">
        <ele>96.8</ele>
        <time>2015-01-19T19:27:13.112Z</time>
      </trkpt>
      <trkpt lat="48.86318" lon="2.33387">
        <ele>96.7</ele>
        <time>2015-01-19T19:27:14.116Z</time>
      </trkpt>
      <trkpt lat="48.86322" lon="2.33377">
        <ele>96.7</ele>
        <time>2015-01-19T19:27:16.051Z</time>
      </trkpt>
      <trkpt lat="48.86324" lon="2.33376">
        <ele>96.5</ele>
        <time>2015-01-19T19:27:17.071Z</time>
      </trkpt>
      <trkpt lat="48.86329" lon="2.33381">
        <ele>96.7</ele>
        <time>2015-01-19T19:27:19.100Z</time>
      </trkpt>
      <trkpt lat="48.86333" lon="2.33384">
        <ele>97.1</ele>
        <time>2015-01-19T19:27:20.108Z</time>
      </trkpt>
      <trkpt lat="48.86337" lon="2.33386">
        <ele>97.5</ele>
        <time>2015-01-19T19:27:21.053Z</time>
      </trkpt>
      <trkpt lat="48.86342" lon="2.33389">
        <ele>98</ele>
        <time>2015-01-19T19:27:22.055Z</time>
      </trkpt>
      <trkpt lat="48.86349" lon="2.33394">
        <ele>98.3</ele>
        <time>2015-01-19T19:27:24.076Z</time>
      </trkpt>
      <trkpt lat="48.86353" lon="2.33395">
        <ele>98.4</ele>
        <time>2015-01-19T19:27:25.137Z</time>
      </trkpt>
      <trkpt lat="48.86358" lon="2.33401">
        <ele>98.8</ele>
        <time>2015-01-19T19:27:27.069Z</time>
      </trkpt>
      <trkpt lat="48.8636" lon="2.33404">
        <ele>98.8</ele>
        <time>2015-01-19T19:27:28.975Z</time>
      </trkpt>
      <trkpt lat="48.86366" lon="2.33407">
        <ele>98.9</ele>
        <time>2015-01-19T19:27:30.907Z</time>
      </trkpt>
      <trkpt lat="48.86371" lon="2.33407">
        <ele>98.1</ele>
        <time>2015-01-19T19:27:31.952Z</time>
      </trkpt>
      <trkpt lat="48.86378" lon="2.3341">
        <ele>97.6</ele>
        <time>2015-01-19T19:27:33.964Z</time>
      </trkpt>
      <trkpt lat="48.86382" lon="2.33414">
        <ele>97.8</ele>
        <time>2015-01-19T19:27:34.974Z</time>
      </trkpt>
      <trkpt lat="48.86388" lon="2.3342">
        <ele>98.8</ele>
        <time>2015-01-19T19:27:36.912Z</time>
      </trkpt>
      <trkpt lat="48.86392" lon="2.33422">
        <ele>99.1</ele>
        <time>2015-01-19T19:27:37.959Z</time>
      </trkpt>
      <trkpt lat="48.86399" lon="2.33426">
        <ele>99.5</ele>
        <time>2015-01-19T19:27:39.979Z</time>
      </trkpt>
      <trkpt lat="48.86402" lon="2.33426">
        <ele>99.7</ele>
        <time>2015-01-19T19:27:40.998Z</time>
      </trkpt>
      <trkpt lat="48.86407" lon="2.33425">
        <ele>100.1</ele>
        <time>2015-01-19T19:27:41.932Z</time>
      </trkpt>
      <trkpt lat="48.86411" lon="2.33423">
        <ele>100.5</ele>
        <time>2015-01-19T19:27:42.903Z</time>
      </trkpt>
      <trkpt lat="48.86419" lon="2.33417">
        <ele>101</ele>
        <time>2015-01-19T19:27:44.917Z</time>
      </trkpt>
      <trkpt lat="48.86423" lon="2.33414">
        <ele>101.1</ele>
        <time>2015-01-19T19:27:45.905Z</time>
      </trkpt>
      <trkpt lat="48.8643" lon="2.33409">
        <ele>101.5</ele>
        <time>2015-01-19T19:27:47.925Z</time>
      </trkpt>
      <trkpt lat="48.86433" lon="2.33407">
        <ele>101.5</ele>
        <time>2015-01-19T19:27:48.914Z</time>
      </trkpt>
      <trkpt lat="48.86438" lon="2.33402">
        <ele>101.8</ele>
        <time>2015-01-19T19:27:51.889Z</time>
      </trkpt>
      <trkpt lat="48.86441" lon="2.334">
        <ele>101.9</ele>
        <time>2015-01-19T19:27:52.977Z</time>
      </trkpt>
      <trkpt lat="48.8645" lon="2.334">
        <ele>102.1</ele>
        <time>2015-01-19T19:27:54.982Z</time>
      </trkpt>
      <trkpt lat="48.86454" lon="2.334">
        <ele>102.2</ele>
        <time>2015-01-19T19:27:55.998Z</time>
      </trkpt>
      <trkpt lat="48.86458" lon="2.334">
        <ele>102.3</ele>
        <time>2015-01-19T19:27:56.955Z</time>
      </trkpt>
      <trkpt lat="48.86463" lon="2.334">
        <ele>102.4</ele>
        <time>2015-01-19T19:27:57.990Z</time>
      </trkpt>
      <trkpt lat="48.86471" lon="2.33401">
        <ele>102.4</ele>
        <time>2015-01-19T19:27:59.931Z</time>
      </trkpt>
      <trkpt lat="48.86475" lon="2.33401">
        <ele>102.4</ele>
        <time>2015-01-19T19:28:00.948Z</time>
      </trkpt>
      <trkpt lat="48.86483" lon="2.33402">
        <ele>102.3</ele>
        <time>2015-01-19T19:28:02.923Z</time>
      </trkpt>
      <trkpt lat="48.86487" lon="2.33401">
        <ele>102.3</ele>
        <time>2015-01-19T19:28:03.951Z</time>
      </trkpt>
      <trkpt lat="48.86495" lon="2.334">
        <ele>102.3</ele>
        <time>2015-01-19T19:28:05.898Z</time>
      </trkpt>
      <trkpt lat="48.86498" lon="2.33398">
        <ele>102.4</ele>
        <time>2015-01-19T19:28:06.923Z</time>
      </trkpt>
      <trkpt lat="48.86504" lon="2.33396">
        <ele>102.6</ele>
        <time>2015-01-19T19:28:08.954Z</time>
      </trkpt>
      <trkpt lat="48.86508" lon="2.33396">
        <ele>102.7</ele>
        <time>2015-01-19T19:28:09.962Z</time>
      </trkpt>
      <trkpt lat="48.86514" lon="2.33394">
        <ele>102.9</ele>
        <time>2015-01-19T19:28:11.890Z</time>
      </trkpt>
      <trkpt lat="48.86517" lon="2.33393">
        <ele>102.9</ele>
        <time>2015-01-19T19:28:12.899Z</time>
      </trkpt>
      <trkpt lat="48.86524" lon="2.33389">
        <ele>103.1</ele>
        <time>2015-01-19T19:28:14.932Z</time>
      </trkpt>
      <trkpt lat="48.86527" lon="2.33384">
        <ele>103.3</ele>
        <time>2015-01-19T19:28:15.949Z</time>
      </trkpt>
      <trkpt lat="48.8653" lon="2.3338">
        <ele>103.5</ele>
        <time>2015-01-19T19:28:16.970Z</time>
      </trkpt>
      <trkpt lat="48.86535" lon="2.33375">
        <ele>103.7</ele>
        <time>2015-01-19T19:28:17.980Z</time>
      </trkpt>
      <trkpt lat="48.86542" lon="2.33367">
        <ele>104</ele>
        <time>2015-01-19T19:28:19.430Z</time>
      </trkpt>
      <trkpt lat="48.86543" lon="2.33362">
        <ele>104</ele>
        <time>2015-01-19T19:28:20.440Z</time>
      </trkpt>
      <trkpt lat="48.86549" lon="2.33357">
        <ele>104.2</ele>
        <time>2015-01-19T19:28:22.455Z</time>
      </trkpt>
      <trkpt lat="48.86552" lon="2.33357">
        <ele>104.3</ele>
        <time>2015-01-19T19:28:23.481Z</time>
      </trkpt>
      <trkpt lat="48.86559" lon="2.33351">
        <ele>106</ele>
        <time>2015-01-19T19:28:25.535Z</time>
      </trkpt>
      <trkpt lat="48.86561" lon="2.33349">
        <ele>106.5</ele>
        <time>2015-01-19T19:28:26.440Z</time>
      </trkpt>
      <trkpt lat="48.86562" lon="2.33347">
        <ele>106.6</ele>
        <time>2015-01-19T19:28:28.430Z</time>
      </trkpt>
      <trkpt lat="48.86562" lon="2.33346">
        <ele>106.9</ele>
        <time>2015-01-19T19:28:29.431Z</time>
      </trkpt>
      <trkpt lat="48.86561" lon="2.33346">
        <ele>107.1</ele>
        <time>2015-01-19T19:28:32.476Z</time>
      </trkpt>
      <trkpt lat="48.8656" lon="2.33347">
        <ele>107</ele>
        <time>2015-01-19T19:28:33.511Z</time>
      </trkpt>
      <trkpt lat="48.86553" lon="2.33339">
        <ele>106.3</ele>
        <time>2015-01-19T19:28:39.489Z</time>
      </trkpt>
      <trkpt lat="48.86553" lon="2.33338">
        <ele>106.5</ele>
        <time>2015-01-19T19:28:40.437Z</time>
      </trkpt>
      <trkpt lat="48.86544" lon="2.33337">
        <ele>108.9</ele>
        <time>2015-01-19T19:28:46.470Z</time>
      </trkpt>
      <trkpt lat="48.86543" lon="2.33336">
        <ele>109</ele>
        <time>2015-01-19T19:28:47.484Z</time>
      </trkpt>
      <trkpt lat="48.86536" lon="2.33328">
        <ele>109</ele>
        <time>2015-01-19T19:28:54.505Z</time>
      </trkpt>
      <trkpt lat="48.86534" lon="2.33326">
        <ele>109</ele>
        <time>2015-01-19T19:28:55.538Z</time>
      </trkpt>
      <trkpt lat="48.86529" lon="2.33316">
        <ele>109.4</ele>
        <time>2015-01-19T19:28:57.437Z</time>
      </trkpt>
      <trkpt lat="48.86527" lon="2.33311">
        <ele>109.4</ele>
        <time>2015-01-19T19:28:58.451Z</time>
      </trkpt>
      <trkpt lat="48.86483" lon="2.33248">
        <ele>105.5</ele>
        <time>2015-01-19T19:29:14.423Z</time>
      </trkpt>
      <trkpt lat="48.86483" lon="2.33234">
        <ele>106.8</ele>
        <time>2015-01-19T19:29:17.528Z</time>
      </trkpt>
      <trkpt lat="48.86485" lon="2.3323">
        <ele>106.9</ele>
        <time>2015-01-19T19:29:18.425Z</time>
      </trkpt>
      <trkpt lat="48.86489" lon="2.3322">
        <ele>106.6</ele>
        <time>2015-01-19T19:29:21.481Z</time>
      </trkpt>
      <trkpt lat="48.86492" lon="2.33214">
        <ele>105.4</ele>
        <time>2015-01-19T19:29:22.488Z</time>
      </trkpt>
      <trkpt lat="48.86492" lon="2.33201">
        <ele>104.7</ele>
        <time>2015-01-19T19:29:24.847Z</time>
      </trkpt>
      <trkpt lat="48.86491" lon="2.33198">
        <ele>104.5</ele>
        <time>2015-01-19T19:29:25.447Z</time>
      </trkpt>
      <trkpt lat="48.86492" lon="2.33189">
        <ele>102.2</ele>
        <time>2015-01-19T19:29:31.456Z</time>
      </trkpt>
      <trkpt lat="48.86494" lon="2.33185">
        <ele>100.8</ele>
        <time>2015-01-19T19:29:32.433Z</time>
      </trkpt>
      <trkpt lat="48.86499" lon="2.33178">
        <ele>98.7</ele>
        <time>2015-01-19T19:29:35.481Z</time>
      </trkpt>
      <trkpt lat="48.865" lon="2.33175">
        <ele>98.1</ele>
        <time>2015-01-19T19:29:36.546Z</time>
      </trkpt>
      <trkpt lat="48.86507" lon="2.33168">
        <ele>98.2</ele>
        <time>2015-01-19T19:29:40.421Z</time>
      </trkpt>
      <trkpt lat="48.86508" lon="2.33167">
        <ele>98.4</ele>
        <time>2015-01-19T19:29:41.421Z</time>
      </trkpt>
      <trkpt lat="48.86513" lon="2.33158">
        <ele>98.2</ele>
        <time>2015-01-19T19:29:45.514Z</time>
      </trkpt>
      <trkpt lat="48.86513" lon="2.33154">
        <ele>97.9</ele>
        <time>2015-01-19T19:29:46.423Z</time>
      </trkpt>
      <trkpt lat="48.86513" lon="2.33154">
        <ele>96.8</ele>
        <time>2015-01-19T19:29:52.514Z</time>
      </trkpt>
      <trkpt lat="48.86513" lon="2.33154">
        <ele>96.9</ele>
        <time>2015-01-19T19:29:53.393Z</time>
      </trkpt>
      <trkpt lat="48.86513" lon="2.33154">
        <ele>96.9</ele>
        <time>2015-01-19T19:29:54.425Z</time>
      </trkpt>
      <trkpt lat="48.86517" lon="2.33153">
        <ele>96.8</ele>
        <time>2015-01-19T19:29:58.415Z</time>
      </trkpt>
      <trkpt lat="48.8656" lon="2.33213">
        <ele>95.9</ele>
        <time>2015-01-19T19:30:17.374Z</time>
      </trkpt>
      <trkpt lat="48.8656" lon="2.33217">
        <ele>95.9</ele>
        <time>2015-01-19T19:30:18.424Z</time>
      </trkpt>
      <trkpt lat="48.86688" lon="2.33304">
        <ele>98.9</ele>
        <time>2015-01-19T19:30:58.460Z</time>
      </trkpt>
      <trkpt lat="48.86695" lon="2.33301">
        <ele>98.6</ele>
        <time>2015-01-19T19:31:00.424Z</time>
      </trkpt>
      <trkpt lat="48.86697" lon="2.333">
        <ele>98.5</ele>
        <time>2015-01-19T19:31:01.455Z</time>
      </trkpt>
      <trkpt lat="48.86705" lon="2.33298">
        <ele>98.3</ele>
        <time>2015-01-19T19:31:03.502Z</time>
      </trkpt>
      <trkpt lat="48.86711" lon="2.33294">
        <ele>97.9</ele>
        <time>2015-01-19T19:31:04.408Z</time>
      </trkpt>
      <trkpt lat="48.86717" lon="2.33287">
        <ele>96.2</ele>
        <time>2015-01-19T19:31:07.457Z</time>
      </trkpt>
      <trkpt lat="48.86719" lon="2.33283">
        <ele>95.5</ele>
        <time>2015-01-19T19:31:08.463Z</time>
      </trkpt>
      <trkpt lat="48.86723" lon="2.33275">
        <ele>95.6</ele>
        <time>2015-01-19T19:31:11.976Z</time>
      </trkpt>
      <trkpt lat="48.86724" lon="2.3327">
        <ele>95.5</ele>
        <time>2015-01-19T19:31:12.471Z</time>
      </trkpt>
      <trkpt lat="48.86723" lon="2.33263">
        <ele>95.6</ele>
        <time>2015-01-19T19:31:13.476Z</time>
      </trkpt>
      <trkpt lat="48.86722" lon="2.33255">
        <ele>96.4</ele>
        <time>2015-01-19T19:31:14.487Z</time>
      </trkpt>
      <trkpt lat="48.86719" lon="2.33246">
        <ele>97.6</ele>
        <time>2015-01-19T19:31:16.420Z</time>
      </trkpt>
      <trkpt lat="48.86716" lon="2.33242">
        <ele>98.2</ele>
        <time>2015-01-19T19:31:17.451Z</time>
      </trkpt>
      <trkpt lat="48.8671" lon="2.33236">
        <ele>99.2</ele>
        <time>2015-01-19T19:31:20.155Z</time>
      </trkpt>
      <trkpt lat="48.86707" lon="2.33232">
        <ele>99.8</ele>
        <time>2015-01-19T19:31:20.402Z</time>
      </trkpt>
      <trkpt lat="48.867" lon="2.33225">
        <ele>100.4</ele>
        <time>2015-01-19T19:31:22.429Z</time>
      </trkpt>
      <trkpt lat="48.86697" lon="2.33223">
        <ele>100.5</ele>
        <time>2015-01-19T19:31:23.437Z</time>
      </trkpt>
      <trkpt lat="48.8669" lon="2.33215">
        <ele>100.9</ele>
        <time>2015-01-19T19:31:26.474Z</time>
      </trkpt>
      <trkpt lat="48.86689" lon="2.33213">
        <ele>101.1</ele>
        <time>2015-01-19T19:31:27.477Z</time>
      </trkpt>
      <trkpt lat="48.86686" lon="2.33207">
        <ele>101.3</ele>
        <time>2015-01-19T19:31:29.402Z</time>
      </trkpt>
      <trkpt lat="48.86686" lon="2.33197">
        <ele>101.2</ele>
        <time>2015-01-19T19:31:34.506Z</time>
      </trkpt>
      <trkpt lat="48.86683" lon="2.33192">
        <ele>101.3</ele>
        <time>2015-01-19T19:31:37.433Z</time>
      </trkpt>
      <trkpt lat="48.86658" lon="2.33159">
        <ele>101.5</ele>
        <time>2015-01-19T19:31:47.472Z</time>
      </trkpt>
      <trkpt lat="48.86651" lon="2.33153">
        <ele>101.6</ele>
        <time>2015-01-19T19:31:49.581Z</time>
      </trkpt>
      <trkpt lat="48.8665" lon="2.33149">
        <ele>101.5</ele>
        <time>2015-01-19T19:31:50.522Z</time>
      </trkpt>
      <trkpt lat="48.86643" lon="2.33145">
        <ele>101.3</ele>
        <time>2015-01-19T19:31:52.421Z</time>
      </trkpt>
      <trkpt lat="48.8664" lon="2.33143">
        <ele>101.2</ele>
        <time>2015-01-19T19:31:53.440Z</time>
      </trkpt>
      <trkpt lat="48.86632" lon="2.3314">
        <ele>101</ele>
        <time>2015-01-19T19:31:55.465Z</time>
      </trkpt>
      <trkpt lat="48.86628" lon="2.33139">
        <ele>101</ele>
        <time>2015-01-19T19:31:56.412Z</time>
      </trkpt>
      <trkpt lat="48.8662" lon="2.33134">
        <ele>100.8</ele>
        <time>2015-01-19T19:31:59.754Z</time>
      </trkpt>
      <trkpt lat="48.86617" lon="2.33129">
        <ele>100.6</ele>
        <time>2015-01-19T19:32:00.438Z</time>
      </trkpt>
      <trkpt lat="48.86614" lon="2.33125">
        <ele>100.6</ele>
        <time>2015-01-19T19:32:01.447Z</time>
      </trkpt>
      <trkpt lat="48.86609" lon="2.33123">
        <ele>100.4</ele>
        <time>2015-01-19T19:32:02.450Z</time>
      </trkpt>
      <trkpt lat="48.86604" lon="2.3312">
        <ele>100.2</ele>
        <time>2015-01-19T19:32:03.469Z</time>
      </trkpt>
      <trkpt lat="48.866" lon="2.33117">
        <ele>100.1</ele>
        <time>2015-01-19T19:32:04.483Z</time>
      </trkpt>
      <trkpt lat="48.86595" lon="2.33114">
        <ele>99.9</ele>
        <time>2015-01-19T19:32:05.495Z</time>
      </trkpt>
      <trkpt lat="48.8659" lon="2.33111">
        <ele>99.7</ele>
        <time>2015-01-19T19:32:06.503Z</time>
      </trkpt>
      <trkpt lat="48.86586" lon="2.33108">
        <ele>99.3</ele>
        <time>2015-01-19T19:32:07.508Z</time>
      </trkpt>
      <trkpt lat="48.86581" lon="2.33104">
        <ele>99.1</ele>
        <time>2015-01-19T19:32:08.392Z</time>
      </trkpt>
      <trkpt lat="48.86577" lon="2.33102">
        <ele>99.1</ele>
        <time>2015-01-19T19:32:09.899Z</time>
      </trkpt>
      <trkpt lat="48.86571" lon="2.33098">
        <ele>99.3</ele>
        <time>2015-01-19T19:32:10.411Z</time>
      </trkpt>
      <trkpt lat="48.86566" lon="2.33093">
        <ele>100</ele>
        <time>2015-01-19T19:32:11.429Z</time>
      </trkpt>
      <trkpt lat="48.86561" lon="2.33092">
        <ele>100.3</ele>
        <time>2015-01-19T19:32:12.428Z</time>
      </trkpt>
      <trkpt lat="48.86553" lon="2.33086">
        <ele>100.5</ele>
        <time>2015-01-19T19:32:14.998Z</time>
      </trkpt>
      <trkpt lat="48.8655" lon="2.33084">
        <ele>100.7</ele>
        <time>2015-01-19T19:32:15.481Z</time>
      </trkpt>
      <trkpt lat="48.86543" lon="2.33079">
        <ele>100.6</ele>
        <time>2015-01-19T19:32:17.493Z</time>
      </trkpt>
      <trkpt lat="48.8654" lon="2.33076">
        <ele>100.5</ele>
        <time>2015-01-19T19:32:18.505Z</time>
      </trkpt>
      <trkpt lat="48.86532" lon="2.33072">
        <ele>100.3</ele>
        <time>2015-01-19T19:32:20.421Z</time>
      </trkpt>
      <trkpt lat="48.86529" lon="2.3307">
        <ele>100.2</ele>
        <time>2015-01-19T19:32:21.449Z</time>
      </trkpt>
      <trkpt lat="48.86525" lon="2.33068">
        <ele>100.3</ele>
        <time>2015-01-19T19:32:22.497Z</time>
      </trkpt>
      <trkpt lat="48.86509" lon="2.33058">
        <ele>99.7</ele>
        <time>2015-01-19T19:32:28.490Z</time>
      </trkpt>
      <trkpt lat="48.86501" lon="2.33052">
        <ele>99.4</ele>
        <time>2015-01-19T19:32:31.477Z</time>
      </trkpt>
      <trkpt lat="48.86498" lon="2.3305">
        <ele>99.3</ele>
        <time>2015-01-19T19:32:32.663Z</time>
      </trkpt>
      <trkpt lat="48.86472" lon="2.33023">
        <ele>96.3</ele>
        <time>2015-01-19T19:32:42.403Z</time>
      </trkpt>
      <trkpt lat="48.86466" lon="2.33018">
        <ele>94.8</ele>
        <time>2015-01-19T19:32:44.474Z</time>
      </trkpt>
      <trkpt lat="48.86462" lon="2.33017">
        <ele>94.6</ele>
        <time>2015-01-19T19:32:45.480Z</time>
      </trkpt>
      <trkpt lat="48.86458" lon="2.33007">
        <ele>93.8</ele>
        <time>2015-01-19T19:32:49.325Z</time>
      </trkpt>
      <trkpt lat="48.86458" lon="2.33">
        <ele>93.3</ele>
        <time>2015-01-19T19:32:49.437Z</time>
      </trkpt>
      <trkpt lat="48.86459" lon="2.32994">
        <ele>92.8</ele>
        <time>2015-01-19T19:32:50.450Z</time>
      </trkpt>
      <trkpt lat="48.86461" lon="2.32986">
        <ele>91.8</ele>
        <time>2015-01-19T19:32:51.479Z</time>
      </trkpt>
      <trkpt lat="48.86462" lon="2.32978">
        <ele>91.4</ele>
        <time>2015-01-19T19:32:52.430Z</time>
      </trkpt>
      <trkpt lat="48.86464" lon="2.32971">
        <ele>91</ele>
        <time>2015-01-19T19:32:53.428Z</time>
      </trkpt>
      <trkpt lat="48.86466" lon="2.32964">
        <ele>90.7</ele>
        <time>2015-01-19T19:32:54.461Z</time>
      </trkpt>
      <trkpt lat="48.86467" lon="2.32956">
        <ele>90.3</ele>
        <time>2015-01-19T19:32:55.474Z</time>
      </trkpt>
      <trkpt lat="48.86468" lon="2.32949">
        <ele>89.8</ele>
        <time>2015-01-19T19:32:56.492Z</time>
      </trkpt>
      <trkpt lat="48.8647" lon="2.32943">
        <ele>89.6</ele>
        <time>2015-01-19T19:32:57.512Z</time>
      </trkpt>
      <trkpt lat="48.86476" lon="2.32935">
        <ele>89.3</ele>
        <time>2015-01-19T19:32:59.482Z</time>
      </trkpt>
      <trkpt lat="48.86479" lon="2.32934">
        <ele>89.3</ele>
        <time>2015-01-19T19:33:00.494Z</time>
      </trkpt>
      <trkpt lat="48.86485" lon="2.32938">
        <ele>88.9</ele>
        <time>2015-01-19T19:33:02.518Z</time>
      </trkpt>
      <trkpt lat="48.86487" lon="2.3294">
        <ele>88.8</ele>
        <time>2015-01-19T19:33:03.485Z</time>
      </trkpt>
      <trkpt lat="48.86492" lon="2.32945">
        <ele>88.8</ele>
        <time>2015-01-19T19:33:05.434Z</time>
      </trkpt>
      <trkpt lat="48.86513" lon="2.32965">
        <ele>88.7</ele>
        <time>2015-01-19T19:33:16.400Z</time>
      </trkpt>
      <trkpt lat="48.86518" lon="2.32965">
        <ele>88.5</ele>
        <time>2015-01-19T19:33:17.414Z</time>
      </trkpt>
      <trkpt lat="48.86523" lon="2.32963">
        <ele>88</ele>
        <time>2015-01-19T19:33:18.423Z</time>
      </trkpt>
      <trkpt lat="48.86529" lon="2.32958">
        <ele>87.5</ele>
        <time>2015-01-19T19:33:20.469Z</time>
      </trkpt>
      <trkpt lat="48.86532" lon="2.32952">
        <ele>87.6</ele>
        <time>2015-01-19T19:33:21.502Z</time>
      </trkpt>
      <trkpt lat="48.86535" lon="2.32947">
        <ele>87.2</ele>
        <time>2015-01-19T19:33:22.409Z</time>
      </trkpt>
      <trkpt lat="48.86539" lon="2.32942">
        <ele>87.3</ele>
        <time>2015-01-19T19:33:23.412Z</time>
      </trkpt>
      <trkpt lat="48.86542" lon="2.32938">
        <ele>87.6</ele>
        <time>2015-01-19T19:33:24.423Z</time>
      </trkpt>
      <trkpt lat="48.86545" lon="2.32933">
        <ele>87.7</ele>
        <time>2015-01-19T19:33:25.453Z</time>
      </trkpt>
      <trkpt lat="48.86548" lon="2.32926">
        <ele>87.6</ele>
        <time>2015-01-19T19:33:26.472Z</time>
      </trkpt>
      <trkpt lat="48.86551" lon="2.32919">
        <ele>87.7</ele>
        <time>2015-01-19T19:33:27.416Z</time>
      </trkpt>
      <trkpt lat="48.86554" lon="2.32907">
        <ele>87.7</ele>
        <time>2015-01-19T19:33:29.402Z</time>
      </trkpt>
      <trkpt lat="48.86556" lon="2.32901">
        <ele>87.8</ele>
        <time>2015-01-19T19:33:30.412Z</time>
      </trkpt>
      <trkpt lat="48.86558" lon="2.32894">
        <ele>87.7</ele>
        <time>2015-01-19T19:33:31.451Z</time>
      </trkpt>
      <trkpt lat="48.86561" lon="2.32888">
        <ele>87.8</ele>
        <time>2015-01-19T19:33:32.406Z</time>
      </trkpt>
      <trkpt lat="48.86564" lon="2.32883">
        <ele>87.7</ele>
        <time>2015-01-19T19:33:33.426Z</time>
      </trkpt>
      <trkpt lat="48.86568" lon="2.32878">
        <ele>87.8</ele>
        <time>2015-01-19T19:33:34.433Z</time>
      </trkpt>
      <trkpt lat="48.86571" lon="2.32872">
        <ele>87.8</ele>
        <time>2015-01-19T19:33:35.453Z</time>
      </trkpt>
      <trkpt lat="48.86574" lon="2.32866">
        <ele>87.9</ele>
        <time>2015-01-19T19:33:36.469Z</time>
      </trkpt>
      <trkpt lat="48.86577" lon="2.32858">
        <ele>87.9</ele>
        <time>2015-01-19T19:33:37.488Z</time>
      </trkpt>
      <trkpt lat="48.8658" lon="2.32851">
        <ele>87.9</ele>
        <time>2015-01-19T19:33:38.493Z</time>
      </trkpt>
      <trkpt lat="48.86581" lon="2.32843">
        <ele>87.9</ele>
        <time>2015-01-19T19:33:39.502Z</time>
      </trkpt>
      <trkpt lat="48.86584" lon="2.32836">
        <ele>88</ele>
        <time>2015-01-19T19:33:40.422Z</time>
      </trkpt>
      <trkpt lat="48.86586" lon="2.3283">
        <ele>88.1</ele>
        <time>2015-01-19T19:33:41.413Z</time>
      </trkpt>
      <trkpt lat="48.86588" lon="2.32824">
        <ele>88.4</ele>
        <time>2015-01-19T19:33:42.419Z</time>
      </trkpt>
      <trkpt lat="48.86591" lon="2.32813">
        <ele>89.3</ele>
        <time>2015-01-19T19:33:44.463Z</time>
      </trkpt>
      <trkpt lat="48.86594" lon="2.32805">
        <ele>89.5</ele>
        <time>2015-01-19T19:33:45.475Z</time>
      </trkpt>
      <trkpt lat="48.86596" lon="2.32798">
        <ele>89.7</ele>
        <time>2015-01-19T19:33:46.521Z</time>
      </trkpt>
      <trkpt lat="48.86598" lon="2.32792">
        <ele>89.8</ele>
        <time>2015-01-19T19:33:47.386Z</time>
      </trkpt>
      <trkpt lat="48.866" lon="2.32782">
        <ele>90.2</ele>
        <time>2015-01-19T19:33:49.445Z</time>
      </trkpt>
      <trkpt lat="48.86603" lon="2.32777">
        <ele>90.3</ele>
        <time>2015-01-19T19:33:50.453Z</time>
      </trkpt>
      <trkpt lat="48.86608" lon="2.32769">
        <ele>90.7</ele>
        <time>2015-01-19T19:33:52.477Z</time>
      </trkpt>
      <trkpt lat="48.86611" lon="2.32766">
        <ele>90.7</ele>
        <time>2015-01-19T19:33:53.619Z</time>
      </trkpt>
      <trkpt lat="48.86618" lon="2.32762">
        <ele>91</ele>
        <time>2015-01-19T19:33:55.449Z</time>
      </trkpt>
      <trkpt lat="48.86622" lon="2.32762">
        <ele>91</ele>
        <time>2015-01-19T19:33:56.465Z</time>
      </trkpt>
      <trkpt lat="48.8663" lon="2.32759">
        <ele>91.3</ele>
        <time>2015-01-19T19:33:58.415Z</time>
      </trkpt>
      <trkpt lat="48.86634" lon="2.32758">
        <ele>91.4</ele>
        <time>2015-01-19T19:33:59.424Z</time>
      </trkpt>
      <trkpt lat="48.86641" lon="2.32756">
        <ele>91.6</ele>
        <time>2015-01-19T19:34:01.462Z</time>
      </trkpt>
      <trkpt lat="48.86644" lon="2.32753">
        <ele>91.8</ele>
        <time>2015-01-19T19:34:02.471Z</time>
      </trkpt>
      <trkpt lat="48.86649" lon="2.32747">
        <ele>91.9</ele>
        <time>2015-01-19T19:34:04.401Z</time>
      </trkpt>
      <trkpt lat="48.86651" lon="2.32744">
        <ele>92</ele>
        <time>2015-01-19T19:34:05.411Z</time>
      </trkpt>
      <trkpt lat="48.86658" lon="2.32736">
        <ele>92.3</ele>
        <time>2015-01-19T19:34:08.415Z</time>
      </trkpt>
      <trkpt lat="48.8666" lon="2.32732">
        <ele>92.2</ele>
        <time>2015-01-19T19:34:09.412Z</time>
      </trkpt>
      <trkpt lat="48.86657" lon="2.32721">
        <ele>91.2</ele>
        <time>2015-01-19T19:34:11.432Z</time>
      </trkpt>
      <trkpt lat="48.86653" lon="2.32715">
        <ele>90.5</ele>
        <time>2015-01-19T19:34:12.442Z</time>
      </trkpt>
      <trkpt lat="48.86655" lon="2.32705">
        <ele>90.2</ele>
        <time>2015-01-19T19:34:14.399Z</time>
      </trkpt>
      <trkpt lat="48.86657" lon="2.327">
        <ele>90.1</ele>
        <time>2015-01-19T19:34:15.416Z</time>
      </trkpt>
      <trkpt lat="48.8666" lon="2.32687">
        <ele>90.1</ele>
        <time>2015-01-19T19:34:17.417Z</time>
      </trkpt>
      <trkpt lat="48.86661" lon="2.3268">
        <ele>90</ele>
        <time>2015-01-19T19:34:18.486Z</time>
      </trkpt>
      <trkpt lat="48.86663" lon="2.32674">
        <ele>89.9</ele>
        <time>2015-01-19T19:34:19.482Z</time>
      </trkpt>
      <trkpt lat="48.86664" lon="2.32667">
        <ele>89.7</ele>
        <time>2015-01-19T19:34:20.511Z</time>
      </trkpt>
      <trkpt lat="48.86666" lon="2.3266">
        <ele>89.6</ele>
        <time>2015-01-19T19:34:21.404Z</time>
      </trkpt>
      <trkpt lat="48.86668" lon="2.32653">
        <ele>89.5</ele>
        <time>2015-01-19T19:34:22.393Z</time>
      </trkpt>
      <trkpt lat="48.86669" lon="2.32647">
        <ele>89.4</ele>
        <time>2015-01-19T19:34:23.426Z</time>
      </trkpt>
      <trkpt lat="48.86671" lon="2.3264">
        <ele>89.3</ele>
        <time>2015-01-19T19:34:24.449Z</time>
      </trkpt>
      <trkpt lat="48.86672" lon="2.32632">
        <ele>89.3</ele>
        <time>2015-01-19T19:34:25.477Z</time>
      </trkpt>
      <trkpt lat="48.86672" lon="2.32623">
        <ele>89.3</ele>
        <time>2015-01-19T19:34:26.411Z</time>
      </trkpt>
      <trkpt lat="48.86673" lon="2.32612">
        <ele>89.5</ele>
        <time>2015-01-19T19:34:27.569Z</time>
      </trkpt>
      <trkpt lat="48.86675" lon="2.32604">
        <ele>89.4</ele>
        <time>2015-01-19T19:34:28.411Z</time>
      </trkpt>
      <trkpt lat="48.86677" lon="2.32596">
        <ele>89.4</ele>
        <time>2015-01-19T19:34:29.434Z</time>
      </trkpt>
      <trkpt lat="48.86679" lon="2.32589">
        <ele>89.5</ele>
        <time>2015-01-19T19:34:30.436Z</time>
      </trkpt>
      <trkpt lat="48.86681" lon="2.32583">
        <ele>89.5</ele>
        <time>2015-01-19T19:34:31.451Z</time>
      </trkpt>
      <trkpt lat="48.86683" lon="2.32576">
        <ele>89.5</ele>
        <time>2015-01-19T19:34:32.453Z</time>
      </trkpt>
      <trkpt lat="48.86685" lon="2.32564">
        <ele>89.5</ele>
        <time>2015-01-19T19:34:34.489Z</time>
      </trkpt>
      <trkpt lat="48.86645" lon="2.32438">
        <ele>90</ele>
        <time>2015-01-19T19:35:00.442Z</time>
      </trkpt>
      <trkpt lat="48.86642" lon="2.32431">
        <ele>90.1</ele>
        <time>2015-01-19T19:35:02.530Z</time>
      </trkpt>
      <trkpt lat="48.86641" lon="2.32426">
        <ele>89.7</ele>
        <time>2015-01-19T19:35:03.509Z</time>
      </trkpt>
      <trkpt lat="48.8664" lon="2.32415">
        <ele>89.1</ele>
        <time>2015-01-19T19:35:05.400Z</time>
      </trkpt>
      <trkpt lat="48.86641" lon="2.3241">
        <ele>88.7</ele>
        <time>2015-01-19T19:35:06.409Z</time>
      </trkpt>
      <trkpt lat="48.86642" lon="2.32398">
        <ele>88.4</ele>
        <time>2015-01-19T19:35:08.443Z</time>
      </trkpt>
      <trkpt lat="48.86643" lon="2.32393">
        <ele>88.3</ele>
        <time>2015-01-19T19:35:09.489Z</time>
      </trkpt>
      <trkpt lat="48.86644" lon="2.32382">
        <ele>87.8</ele>
        <time>2015-01-19T19:35:11.422Z</time>
      </trkpt>
      <trkpt lat="48.86646" lon="2.32378">
        <ele>87.6</ele>
        <time>2015-01-19T19:35:12.431Z</time>
      </trkpt>
      <trkpt lat="48.86649" lon="2.32369">
        <ele>87.2</ele>
        <time>2015-01-19T19:35:14.481Z</time>
      </trkpt>
      <trkpt lat="48.8665" lon="2.32365">
        <ele>87</ele>
        <time>2015-01-19T19:35:15.421Z</time>
      </trkpt>
      <trkpt lat="48.86655" lon="2.32354">
        <ele>87</ele>
        <time>2015-01-19T19:35:18.411Z</time>
      </trkpt>
      <trkpt lat="48.86656" lon="2.32353">
        <ele>87</ele>
        <time>2015-01-19T19:35:19.426Z</time>
      </trkpt>
      <trkpt lat="48.86663" lon="2.32359">
        <ele>87.3</ele>
        <time>2015-01-19T19:35:22.414Z</time>
      </trkpt>
      <trkpt lat="48.86665" lon="2.32361">
        <ele>87.2</ele>
        <time>2015-01-19T19:35:23.420Z</time>
      </trkpt>
      <trkpt lat="48.86687" lon="2.32391">
        <ele>87.1</ele>
        <time>2015-01-19T19:35:33.396Z</time>
      </trkpt>
      <trkpt lat="48.86771" lon="2.32458">
        <ele>88.8</ele>
        <time>2015-01-19T19:35:54.493Z</time>
      </trkpt>
      <trkpt lat="48.86775" lon="2.3246">
        <ele>88.8</ele>
        <time>2015-01-19T19:35:55.408Z</time>
      </trkpt>
      <trkpt lat="48.86797" lon="2.32484">
        <ele>88.5</ele>
        <time>2015-01-19T19:36:08.368Z</time>
      </trkpt>
      <trkpt lat="48.86803" lon="2.32486">
        <ele>88.4</ele>
        <time>2015-01-19T19:36:10.402Z</time>
      </trkpt>
      <trkpt lat="48.86807" lon="2.32487">
        <ele>88.3</ele>
        <time>2015-01-19T19:36:11.489Z</time>
      </trkpt>
      <trkpt lat="48.86813" lon="2.3249">
        <ele>88.3</ele>
        <time>2015-01-19T19:36:13.430Z</time>
      </trkpt>
      <trkpt lat="48.86816" lon="2.32492">
        <ele>88.2</ele>
        <time>2015-01-19T19:36:14.440Z</time>
      </trkpt>
      <trkpt lat="48.86824" lon="2.32498">
        <ele>88.1</ele>
        <time>2015-01-19T19:36:17.230Z</time>
      </trkpt>
      <trkpt lat="48.86827" lon="2.32498">
        <ele>88.1</ele>
        <time>2015-01-19T19:36:17.433Z</time>
      </trkpt>
      <trkpt lat="48.86835" lon="2.32497">
        <ele>88</ele>
        <time>2015-01-19T19:36:20.492Z</time>
      </trkpt>
      <trkpt lat="48.86838" lon="2.32496">
        <ele>88.1</ele>
        <time>2015-01-19T19:36:21.504Z</time>
      </trkpt>
      <trkpt lat="48.86845" lon="2.32496">
        <ele>88.3</ele>
        <time>2015-01-19T19:36:24.019Z</time>
      </trkpt>
      <trkpt lat="48.8685" lon="2.32495">
        <ele>89</ele>
        <time>2015-01-19T19:36:24.418Z</time>
      </trkpt>
      <trkpt lat="48.86856" lon="2.32494">
        <ele>89.7</ele>
        <time>2015-01-19T19:36:25.448Z</time>
      </trkpt>
      <trkpt lat="48.86861" lon="2.32493">
        <ele>90.1</ele>
        <time>2015-01-19T19:36:26.462Z</time>
      </trkpt>
      <trkpt lat="48.86866" lon="2.32492">
        <ele>90.5</ele>
        <time>2015-01-19T19:36:27.506Z</time>
      </trkpt>
      <trkpt lat="48.86872" lon="2.32492">
        <ele>90.9</ele>
        <time>2015-01-19T19:36:28.500Z</time>
      </trkpt>
      <trkpt lat="48.86878" lon="2.32493">
        <ele>91.2</ele>
        <time>2015-01-19T19:36:29.416Z</time>
      </trkpt>
      <trkpt lat="48.86884" lon="2.32494">
        <ele>91.4</ele>
        <time>2015-01-19T19:36:30.426Z</time>
      </trkpt>
      <trkpt lat="48.86889" lon="2.32496">
        <ele>91.6</ele>
        <time>2015-01-19T19:36:31.447Z</time>
      </trkpt>
      <trkpt lat="48.86893" lon="2.32499">
        <ele>93</ele>
        <time>2015-01-19T19:36:32.457Z</time>
      </trkpt>
      <trkpt lat="48.869" lon="2.32499">
        <ele>94.3</ele>
        <time>2015-01-19T19:36:34.491Z</time>
      </trkpt>
      <trkpt lat="48.86904" lon="2.32499">
        <ele>94.5</ele>
        <time>2015-01-19T19:36:35.417Z</time>
      </trkpt>
      <trkpt lat="48.8691" lon="2.32493">
        <ele>100.1</ele>
        <time>2015-01-19T19:36:47.423Z</time>
      </trkpt>
      <trkpt lat="48.8691" lon="2.32489">
        <ele>101.4</ele>
        <time>2015-01-19T19:36:48.426Z</time>
      </trkpt>
      <trkpt lat="48.86916" lon="2.32484">
        <ele>104.2</ele>
        <time>2015-01-19T19:36:51.445Z</time>
      </trkpt>
      <trkpt lat="48.86921" lon="2.32483">
        <ele>104.5</ele>
        <time>2015-01-19T19:36:52.482Z</time>
      </trkpt>
      <trkpt lat="48.86928" lon="2.32481">
        <ele>104.6</ele>
        <time>2015-01-19T19:36:54.619Z</time>
      </trkpt>
      <trkpt lat="48.86932" lon="2.3248">
        <ele>105</ele>
        <time>2015-01-19T19:36:55.449Z</time>
      </trkpt>
      <trkpt lat="48.86939" lon="2.32481">
        <ele>105.7</ele>
        <time>2015-01-19T19:36:57.463Z</time>
      </trkpt>
      <trkpt lat="48.86943" lon="2.32482">
        <ele>106.4</ele>
        <time>2015-01-19T19:36:58.478Z</time>
      </trkpt>
      <trkpt lat="48.86949" lon="2.32485">
        <ele>107.6</ele>
        <time>2015-01-19T19:37:00.487Z</time>
      </trkpt>
      <trkpt lat="48.86953" lon="2.32487">
        <ele>108.1</ele>
        <time>2015-01-19T19:37:01.502Z</time>
      </trkpt>
      <trkpt lat="48.86959" lon="2.3249">
        <ele>109</ele>
        <time>2015-01-19T19:37:03.406Z</time>
      </trkpt>
      <trkpt lat="48.86962" lon="2.32491">
        <ele>109.5</ele>
        <time>2015-01-19T19:37:04.417Z</time>
      </trkpt>
      <trkpt lat="48.8697" lon="2.32494">
        <ele>110.6</ele>
        <time>2015-01-19T19:37:07.489Z</time>
      </trkpt>
      <trkpt lat="48.86973" lon="2.32495">
        <ele>111</ele>
        <time>2015-01-19T19:37:08.395Z</time>
      </trkpt>
      <trkpt lat="48.86979" lon="2.32499">
        <ele>111.7</ele>
        <time>2015-01-19T19:37:10.472Z</time>
      </trkpt>
      <trkpt lat="48.86982" lon="2.32503">
        <ele>111.9</ele>
        <time>2015-01-19T19:37:11.604Z</time>
      </trkpt>
      <trkpt lat="48.86987" lon="2.3251">
        <ele>112.5</ele>
        <time>2015-01-19T19:37:13.510Z</time>
      </trkpt>
      <trkpt lat="48.86993" lon="2.3251">
        <ele>111.4</ele>
        <time>2015-01-19T19:37:14.567Z</time>
      </trkpt>
      <trkpt lat="48.87" lon="2.32511">
        <ele>110.6</ele>
        <time>2015-01-19T19:37:15.415Z</time>
      </trkpt>
      <trkpt lat="48.87006" lon="2.32512">
        <ele>109.8</ele>
        <time>2015-01-19T19:37:16.419Z</time>
      </trkpt>
      <trkpt lat="48.87012" lon="2.32514">
        <ele>109.6</ele>
        <time>2015-01-19T19:37:17.418Z</time>
      </trkpt>
      <trkpt lat="48.87017" lon="2.32516">
        <ele>109.1</ele>
        <time>2015-01-19T19:37:18.433Z</time>
      </trkpt>
      <trkpt lat="48.87022" lon="2.32519">
        <ele>108.7</ele>
        <time>2015-01-19T19:37:19.987Z</time>
      </trkpt>
      <trkpt lat="48.87028" lon="2.3252">
        <ele>108.3</ele>
        <time>2015-01-19T19:37:20.450Z</time>
      </trkpt>
      <trkpt lat="48.87032" lon="2.32521">
        <ele>108.2</ele>
        <time>2015-01-19T19:37:21.460Z</time>
      </trkpt>
      <trkpt lat="48.87037" lon="2.32523">
        <ele>107.9</ele>
        <time>2015-01-19T19:37:22.469Z</time>
      </trkpt>
      <trkpt lat="48.87041" lon="2.32525">
        <ele>107.7</ele>
        <time>2015-01-19T19:37:23.493Z</time>
      </trkpt>
      <trkpt lat="48.87048" lon="2.32526">
        <ele>107</ele>
        <time>2015-01-19T19:37:24.411Z</time>
      </trkpt>
      <trkpt lat="48.87054" lon="2.32526">
        <ele>106.7</ele>
        <time>2015-01-19T19:37:25.537Z</time>
      </trkpt>
      <trkpt lat="48.87057" lon="2.32523">
        <ele>106.7</ele>
        <time>2015-01-19T19:37:26.413Z</time>
      </trkpt>
      <trkpt lat="48.87064" lon="2.32517">
        <ele>106.4</ele>
        <time>2015-01-19T19:37:29.164Z</time>
      </trkpt>
      <trkpt lat="48.87067" lon="2.32514">
        <ele>106.3</ele>
        <time>2015-01-19T19:37:29.433Z</time>
      </trkpt>
      <trkpt lat="48.87073" lon="2.32507">
        <ele>106.1</ele>
        <time>2015-01-19T19:37:31.594Z</time>
      </trkpt>
      <trkpt lat="48.87076" lon="2.32503">
        <ele>105.9</ele>
        <time>2015-01-19T19:37:32.427Z</time>
      </trkpt>
      <trkpt lat="48.87081" lon="2.32495">
        <ele>105.7</ele>
        <time>2015-01-19T19:37:34.390Z</time>
      </trkpt>
      <trkpt lat="48.87084" lon="2.32494">
        <ele>105.8</ele>
        <time>2015-01-19T19:37:35.510Z</time>
      </trkpt>
      <trkpt lat="48.87091" lon="2.32492">
        <ele>105.7</ele>
        <time>2015-01-19T19:37:37.472Z</time>
      </trkpt>
      <trkpt lat="48.87094" lon="2.32492">
        <ele>105.4</ele>
        <time>2015-01-19T19:37:38.484Z</time>
      </trkpt>
      <trkpt lat="48.871" lon="2.32494">
        <ele>105</ele>
        <time>2015-01-19T19:37:40.411Z</time>
      </trkpt>
      <trkpt lat="48.87103" lon="2.32495">
        <ele>104.9</ele>
        <time>2015-01-19T19:37:41.428Z</time>
      </trkpt>
      <trkpt lat="48.87109" lon="2.32498">
        <ele>104.8</ele>
        <time>2015-01-19T19:37:44.526Z</time>
      </trkpt>
      <trkpt lat="48.87111" lon="2.32502">
        <ele>104.4</ele>
        <time>2015-01-19T19:37:45.446Z</time>
      </trkpt>
      <trkpt lat="48.87117" lon="2.3251">
        <ele>103.2</ele>
        <time>2015-01-19T19:37:47.489Z</time>
      </trkpt>
      <trkpt lat="48.8712" lon="2.32513">
        <ele>102.9</ele>
        <time>2015-01-19T19:37:48.426Z</time>
      </trkpt>
      <trkpt lat="48.87126" lon="2.32519">
        <ele>102.5</ele>
        <time>2015-01-19T19:37:50.459Z</time>
      </trkpt>
      <trkpt lat="48.87129" lon="2.32521">
        <ele>102.3</ele>
        <time>2015-01-19T19:37:51.468Z</time>
      </trkpt>
      <trkpt lat="48.87136" lon="2.32526">
        <ele>102</ele>
        <time>2015-01-19T19:37:53.422Z</time>
      </trkpt>
      <trkpt lat="48.87139" lon="2.32528">
        <ele>101.8</ele>
        <time>2015-01-19T19:37:54.430Z</time>
      </trkpt>
      <trkpt lat="48.87144" lon="2.32532">
        <ele>101.4</ele>
        <time>2015-01-19T19:37:56.457Z</time>
      </trkpt>
      <trkpt lat="48.87147" lon="2.32534">
        <ele>101.2</ele>
        <time>2015-01-19T19:37:57.473Z</time>
      </trkpt>
      <trkpt lat="48.87154" lon="2.32535">
        <ele>101</ele>
        <time>2015-01-19T19:37:59.649Z</time>
      </trkpt>
      <trkpt lat="48.87157" lon="2.32534">
        <ele>101.3</ele>
        <time>2015-01-19T19:38:00.442Z</time>
      </trkpt>
      <trkpt lat="48.87247" lon="2.32477">
        <ele>97.6</ele>
        <time>2015-01-19T19:38:48.607Z</time>
      </trkpt>
      <trkpt lat="48.87251" lon="2.32469">
        <ele>94.8</ele>
        <time>2015-01-19T19:38:51.668Z</time>
      </trkpt>
      <trkpt lat="48.87253" lon="2.32466">
        <ele>93.9</ele>
        <time>2015-01-19T19:38:52.807Z</time>
      </trkpt>
      <trkpt lat="48.87254" lon="2.32456">
        <ele>92</ele>
        <time>2015-01-19T19:38:54.649Z</time>
      </trkpt>
      <trkpt lat="48.87255" lon="2.32451">
        <ele>90.4</ele>
        <time>2015-01-19T19:38:55.667Z</time>
      </trkpt>
      <trkpt lat="48.87257" lon="2.32447">
        <ele>89.8</ele>
        <time>2015-01-19T19:38:56.723Z</time>
      </trkpt>
      <trkpt lat="48.87262" lon="2.32416">
        <ele>86.8</ele>
        <time>2015-01-19T19:39:03.002Z</time>
      </trkpt>
      <trkpt lat="48.8726" lon="2.32405">
        <ele>84.2</ele>
        <time>2015-01-19T19:39:05.466Z</time>
      </trkpt>
      <trkpt lat="48.87261" lon="2.32401">
        <ele>84.8</ele>
        <time>2015-01-19T19:39:05.959Z</time>
      </trkpt>
      <trkpt lat="48.8726" lon="2.32391">
        <ele>100.5</ele>
        <time>2015-01-19T19:39:21.036Z</time>
      </trkpt>
      <trkpt lat="48.87295" lon="2.32418">
        <ele>97.5</ele>
        <time>2015-01-19T19:39:34.917Z</time>
      </trkpt>
      <trkpt lat="48.87303" lon="2.32412">
        <ele>96.8</ele>
        <time>2015-01-19T19:39:37.974Z</time>
      </trkpt>
      <trkpt lat="48.87305" lon="2.32408">
        <ele>95.5</ele>
        <time>2015-01-19T19:39:38.980Z</time>
      </trkpt>
      <trkpt lat="48.87308" lon="2.324">
        <ele>93</ele>
        <time>2015-01-19T19:39:40.987Z</time>
      </trkpt>
      <trkpt lat="48.87309" lon="2.32394">
        <ele>92.8</ele>
        <time>2015-01-19T19:39:41.993Z</time>
      </trkpt>
      <trkpt lat="48.87311" lon="2.32388">
        <ele>91.9</ele>
        <time>2015-01-19T19:39:43.009Z</time>
      </trkpt>
      <trkpt lat="48.87315" lon="2.32383">
        <ele>90.8</ele>
        <time>2015-01-19T19:39:44.048Z</time>
      </trkpt>
      <trkpt lat="48.87319" lon="2.32376">
        <ele>90</ele>
        <time>2015-01-19T19:39:44.916Z</time>
      </trkpt>
      <trkpt lat="48.87323" lon="2.3237">
        <ele>89.3</ele>
        <time>2015-01-19T19:39:46.030Z</time>
      </trkpt>
      <trkpt lat="48.87326" lon="2.32364">
        <ele>87.7</ele>
        <time>2015-01-19T19:39:47.075Z</time>
      </trkpt>
      <trkpt lat="48.87329" lon="2.32358">
        <ele>86.8</ele>
        <time>2015-01-19T19:39:47.941Z</time>
      </trkpt>
      <trkpt lat="48.87331" lon="2.32351">
        <ele>85.8</ele>
        <time>2015-01-19T19:39:49.892Z</time>
      </trkpt>
      <trkpt lat="48.87331" lon="2.32342">
        <ele>84.9</ele>
        <time>2015-01-19T19:39:49.981Z</time>
      </trkpt>
      <trkpt lat="48.87332" lon="2.32331">
        <ele>83</ele>
        <time>2015-01-19T19:39:50.996Z</time>
      </trkpt>
      <trkpt lat="48.87333" lon="2.32323">
        <ele>82.6</ele>
        <time>2015-01-19T19:39:51.995Z</time>
      </trkpt>
      <trkpt lat="48.87333" lon="2.32314">
        <ele>82.1</ele>
        <time>2015-01-19T19:39:53.011Z</time>
      </trkpt>
      <trkpt lat="48.87332" lon="2.32307">
        <ele>82</ele>
        <time>2015-01-19T19:39:54.018Z</time>
      </trkpt>
      <trkpt lat="48.87329" lon="2.32294">
        <ele>82.9</ele>
        <time>2015-01-19T19:39:55.959Z</time>
      </trkpt>
      <trkpt lat="48.87328" lon="2.32288">
        <ele>83.3</ele>
        <time>2015-01-19T19:39:56.987Z</time>
      </trkpt>
      <trkpt lat="48.87327" lon="2.32281">
        <ele>84.5</ele>
        <time>2015-01-19T19:39:57.996Z</time>
      </trkpt>
      <trkpt lat="48.87326" lon="2.32272">
        <ele>86.2</ele>
        <time>2015-01-19T19:39:59.008Z</time>
      </trkpt>
      <trkpt lat="48.87328" lon="2.32261">
        <ele>88.7</ele>
        <time>2015-01-19T19:40:00.959Z</time>
      </trkpt>
      <trkpt lat="48.87329" lon="2.32259">
        <ele>88.8</ele>
        <time>2015-01-19T19:40:01.971Z</time>
      </trkpt>
      <trkpt lat="48.87333" lon="2.3225">
        <ele>90.1</ele>
        <time>2015-01-19T19:40:04.954Z</time>
      </trkpt>
      <trkpt lat="48.87332" lon="2.32244">
        <ele>90.2</ele>
        <time>2015-01-19T19:40:05.959Z</time>
      </trkpt>
      <trkpt lat="48.87333" lon="2.32237">
        <ele>89.6</ele>
        <time>2015-01-19T19:40:06.968Z</time>
      </trkpt>
      <trkpt lat="48.87334" lon="2.32228">
        <ele>89.2</ele>
        <time>2015-01-19T19:40:07.978Z</time>
      </trkpt>
      <trkpt lat="48.87334" lon="2.32221">
        <ele>88.7</ele>
        <time>2015-01-19T19:40:08.988Z</time>
      </trkpt>
      <trkpt lat="48.87334" lon="2.32214">
        <ele>88.1</ele>
        <time>2015-01-19T19:40:09.999Z</time>
      </trkpt>
      <trkpt lat="48.87334" lon="2.32207">
        <ele>88</ele>
        <time>2015-01-19T19:40:11.008Z</time>
      </trkpt>
      <trkpt lat="48.87334" lon="2.32199">
        <ele>87.7</ele>
        <time>2015-01-19T19:40:12.020Z</time>
      </trkpt>
      <trkpt lat="48.87335" lon="2.3219">
        <ele>86.9</ele>
        <time>2015-01-19T19:40:12.940Z</time>
      </trkpt>
      <trkpt lat="48.87335" lon="2.32178">
        <ele>83.5</ele>
        <time>2015-01-19T19:40:14.046Z</time>
      </trkpt>
      <trkpt lat="48.87336" lon="2.32168">
        <ele>82.1</ele>
        <time>2015-01-19T19:40:15.073Z</time>
      </trkpt>
      <trkpt lat="48.87336" lon="2.3216">
        <ele>81.4</ele>
        <time>2015-01-19T19:40:16.006Z</time>
      </trkpt>
      <trkpt lat="48.87336" lon="2.32152">
        <ele>80.7</ele>
        <time>2015-01-19T19:40:17.048Z</time>
      </trkpt>
      <trkpt lat="48.87337" lon="2.32144">
        <ele>80.2</ele>
        <time>2015-01-19T19:40:17.979Z</time>
      </trkpt>
      <trkpt lat="48.87338" lon="2.32136">
        <ele>79.7</ele>
        <time>2015-01-19T19:40:18.937Z</time>
      </trkpt>
      <trkpt lat="48.87341" lon="2.32128">
        <ele>78.5</ele>
        <time>2015-01-19T19:40:19.991Z</time>
      </trkpt>
      <trkpt lat="48.87342" lon="2.3212">
        <ele>78</ele>
        <time>2015-01-19T19:40:21.530Z</time>
      </trkpt>
      <trkpt lat="48.87344" lon="2.32113">
        <ele>77.7</ele>
        <time>2015-01-19T19:40:22.006Z</time>
      </trkpt>
      <trkpt lat="48.87346" lon="2.321">
        <ele>78.8</ele>
        <time>2015-01-19T19:40:25.019Z</time>
      </trkpt>
      <trkpt lat="48.87347" lon="2.32096">
        <ele>79.8</ele>
        <time>2015-01-19T19:40:26.004Z</time>
      </trkpt>
      <trkpt lat="48.8735" lon="2.32086">
        <ele>82.3</ele>
        <time>2015-01-19T19:40:29.732Z</time>
      </trkpt>
      <trkpt lat="48.87352" lon="2.32084">
        <ele>83.2</ele>
        <time>2015-01-19T19:40:29.924Z</time>
      </trkpt>
      <trkpt lat="48.87358" lon="2.32079">
        <ele>86.8</ele>
        <time>2015-01-19T19:40:34.807Z</time>
      </trkpt>
      <trkpt lat="48.8736" lon="2.32078">
        <ele>87.5</ele>
        <time>2015-01-19T19:40:34.937Z</time>
      </trkpt>
      <trkpt lat="48.87365" lon="2.3207">
        <ele>91.9</ele>
        <time>2015-01-19T19:40:38.024Z</time>
      </trkpt>
      <trkpt lat="48.87366" lon="2.32068">
        <ele>93.2</ele>
        <time>2015-01-19T19:40:38.997Z</time>
      </trkpt>
      <trkpt lat="48.8737" lon="2.3206">
        <ele>96</ele>
        <time>2015-01-19T19:40:42.994Z</time>
      </trkpt>
      <trkpt lat="48.8737" lon="2.32059">
        <ele>96.8</ele>
        <time>2015-01-19T19:40:44.002Z</time>
      </trkpt>
      <trkpt lat="48.8737" lon="2.32058">
        <ele>97.4</ele>
        <time>2015-01-19T19:40:44.917Z</time>
      </trkpt>
      <trkpt lat="48.87376" lon="2.32051">
        <ele>99.5</ele>
        <time>2015-01-19T19:40:57.026Z</time>
      </trkpt>
      <trkpt lat="48.87377" lon="2.32047">
        <ele>99.2</ele>
        <time>2015-01-19T19:40:57.913Z</time>
      </trkpt>
      <trkpt lat="48.87377" lon="2.32036">
        <ele>98.6</ele>
        <time>2015-01-19T19:41:00.992Z</time>
      </trkpt>
      <trkpt lat="48.87377" lon="2.32031">
        <ele>98.4</ele>
        <time>2015-01-19T19:41:02.005Z</time>
      </trkpt>
      <trkpt lat="48.87379" lon="2.32018">
        <ele>98.1</ele>
        <time>2015-01-19T19:41:06.030Z</time>
      </trkpt>
      <trkpt lat="48.87379" lon="2.32017">
        <ele>98.1</ele>
        <time>2015-01-19T19:41:06.940Z</time>
      </trkpt>
      <trkpt lat="48.87379" lon="2.32017">
        <ele>98.1</ele>
        <time>2015-01-19T19:41:07.610Z</time>
      </trkpt>
      <trkpt lat="48.87206" lon="2.31961">
        <ele>95.6</ele>
        <time>2015-01-19T19:42:01.010Z</time>
      </trkpt>
      <trkpt lat="48.872" lon="2.31952">
        <ele>95.5</ele>
        <time>2015-01-19T19:42:02.994Z</time>
      </trkpt>
      <trkpt lat="48.87198" lon="2.31948">
        <ele>95</ele>
        <time>2015-01-19T19:42:04.007Z</time>
      </trkpt>
      <trkpt lat="48.87195" lon="2.31942">
        <ele>94.6</ele>
        <time>2015-01-19T19:42:05.530Z</time>
      </trkpt>
      <trkpt lat="48.87193" lon="2.31936">
        <ele>93.9</ele>
        <time>2015-01-19T19:42:05.934Z</time>
      </trkpt>
      <trkpt lat="48.87188" lon="2.31925">
        <ele>92.7</ele>
        <time>2015-01-19T19:42:07.955Z</time>
      </trkpt>
      <trkpt lat="48.87187" lon="2.3192">
        <ele>92.4</ele>
        <time>2015-01-19T19:42:08.995Z</time>
      </trkpt>
      <trkpt lat="48.87186" lon="2.31909">
        <ele>92.6</ele>
        <time>2015-01-19T19:42:11.122Z</time>
      </trkpt>
      <trkpt lat="48.87185" lon="2.31904">
        <ele>92.6</ele>
        <time>2015-01-19T19:42:11.956Z</time>
      </trkpt>
      <trkpt lat="48.87182" lon="2.31892">
        <ele>93.8</ele>
        <time>2015-01-19T19:42:15.631Z</time>
      </trkpt>
      <trkpt lat="48.87183" lon="2.31876">
        <ele>94.9</ele>
        <time>2015-01-19T19:42:16Z</time>
      </trkpt>
      <trkpt lat="48.87181" lon="2.31867">
        <ele>96</ele>
        <time>2015-01-19T19:42:16.922Z</time>
      </trkpt>
      <trkpt lat="48.87181" lon="2.31855">
        <ele>97.5</ele>
        <time>2015-01-19T19:42:18.960Z</time>
      </trkpt>
      <trkpt lat="48.87183" lon="2.31852">
        <ele>97.7</ele>
        <time>2015-01-19T19:42:20.699Z</time>
      </trkpt>
      <trkpt lat="48.87191" lon="2.3184">
        <ele>98.5</ele>
        <time>2015-01-19T19:42:23.044Z</time>
      </trkpt>
      <trkpt lat="48.87197" lon="2.3183">
        <ele>98.8</ele>
        <time>2015-01-19T19:42:25.820Z</time>
      </trkpt>
      <trkpt lat="48.872" lon="2.31825">
        <ele>99</ele>
        <time>2015-01-19T19:42:25.987Z</time>
      </trkpt>
      <trkpt lat="48.87203" lon="2.3182">
        <ele>99</ele>
        <time>2015-01-19T19:42:27.010Z</time>
      </trkpt>
      <trkpt lat="48.87206" lon="2.31813">
        <ele>99.1</ele>
        <time>2015-01-19T19:42:28.019Z</time>
      </trkpt>
      <trkpt lat="48.8721" lon="2.31806">
        <ele>99.2</ele>
        <time>2015-01-19T19:42:29.592Z</time>
      </trkpt>
      <trkpt lat="48.87214" lon="2.31799">
        <ele>99.2</ele>
        <time>2015-01-19T19:42:29.928Z</time>
      </trkpt>
      <trkpt lat="48.87218" lon="2.31793">
        <ele>99.1</ele>
        <time>2015-01-19T19:42:30.945Z</time>
      </trkpt>
      <trkpt lat="48.87222" lon="2.31787">
        <ele>99.1</ele>
        <time>2015-01-19T19:42:31.971Z</time>
      </trkpt>
      <trkpt lat="48.87231" lon="2.31774">
        <ele>99.1</ele>
        <time>2015-01-19T19:42:34.010Z</time>
      </trkpt>
      <trkpt lat="48.87234" lon="2.31768">
        <ele>99.1</ele>
        <time>2015-01-19T19:42:34.891Z</time>
      </trkpt>
      <trkpt lat="48.87238" lon="2.31762">
        <ele>99.1</ele>
        <time>2015-01-19T19:42:35.929Z</time>
      </trkpt>
      <trkpt lat="48.87241" lon="2.31757">
        <ele>99.1</ele>
        <time>2015-01-19T19:42:36.954Z</time>
      </trkpt>
      <trkpt lat="48.87245" lon="2.31751">
        <ele>99.1</ele>
        <time>2015-01-19T19:42:37.984Z</time>
      </trkpt>
      <trkpt lat="48.87248" lon="2.31745">
        <ele>99.1</ele>
        <time>2015-01-19T19:42:38.927Z</time>
      </trkpt>
      <trkpt lat="48.87304" lon="2.31764">
        <ele>97.4</ele>
        <time>2015-01-19T19:42:49.998Z</time>
      </trkpt>
      <trkpt lat="48.87312" lon="2.31769">
        <ele>97.1</ele>
        <time>2015-01-19T19:42:51.917Z</time>
      </trkpt>
      <trkpt lat="48.87315" lon="2.31773">
        <ele>97.3</ele>
        <time>2015-01-19T19:42:52.956Z</time>
      </trkpt>
      <trkpt lat="48.87322" lon="2.31777">
        <ele>98.6</ele>
        <time>2015-01-19T19:42:59.019Z</time>
      </trkpt>
      <trkpt lat="48.87324" lon="2.31779">
        <ele>98.9</ele>
        <time>2015-01-19T19:42:59.940Z</time>
      </trkpt>
      <trkpt lat="48.87332" lon="2.31778">
        <ele>99.4</ele>
        <time>2015-01-19T19:43:03.956Z</time>
      </trkpt>
      <trkpt lat="48.87336" lon="2.31777">
        <ele>99.5</ele>
        <time>2015-01-19T19:43:04.966Z</time>
      </trkpt>
      <trkpt lat="48.8734" lon="2.31777">
        <ele>99.5</ele>
        <time>2015-01-19T19:43:05.925Z</time>
      </trkpt>
      <trkpt lat="48.87346" lon="2.31777">
        <ele>99.5</ele>
        <time>2015-01-19T19:43:06.934Z</time>
      </trkpt>
      <trkpt lat="48.87352" lon="2.31779">
        <ele>99.4</ele>
        <time>2015-01-19T19:43:07.955Z</time>
      </trkpt>
      <trkpt lat="48.87357" lon="2.3178">
        <ele>99.5</ele>
        <time>2015-01-19T19:43:08.972Z</time>
      </trkpt>
      <trkpt lat="48.87366" lon="2.31781">
        <ele>99.6</ele>
        <time>2015-01-19T19:43:10.938Z</time>
      </trkpt>
      <trkpt lat="48.87369" lon="2.31781">
        <ele>99.8</ele>
        <time>2015-01-19T19:43:11.942Z</time>
      </trkpt>
      <trkpt lat="48.87377" lon="2.31779">
        <ele>100</ele>
        <time>2015-01-19T19:43:15.009Z</time>
      </trkpt>
      <trkpt lat="48.8738" lon="2.31778">
        <ele>99.9</ele>
        <time>2015-01-19T19:43:16.016Z</time>
      </trkpt>
      <trkpt lat="48.87386" lon="2.31776">
        <ele>99.8</ele>
        <time>2015-01-19T19:43:17.928Z</time>
      </trkpt>
      <trkpt lat="48.87389" lon="2.31774">
        <ele>99.7</ele>
        <time>2015-01-19T19:43:18.950Z</time>
      </trkpt>
      <trkpt lat="48.87396" lon="2.31769">
        <ele>98.4</ele>
        <time>2015-01-19T19:43:20.999Z</time>
      </trkpt>
      <trkpt lat="48.87397" lon="2.3176">
        <ele>96.5</ele>
        <time>2015-01-19T19:43:22.022Z</time>
      </trkpt>
      <trkpt lat="48.87398" lon="2.31747">
        <ele>95</ele>
        <time>2015-01-19T19:43:23.933Z</time>
      </trkpt>
      <trkpt lat="48.87398" lon="2.31741">
        <ele>94.2</ele>
        <time>2015-01-19T19:43:25.105Z</time>
      </trkpt>
      <trkpt lat="48.87401" lon="2.31731">
        <ele>92.4</ele>
        <time>2015-01-19T19:43:26.934Z</time>
      </trkpt>
      <trkpt lat="48.87404" lon="2.31725">
        <ele>91.3</ele>
        <time>2015-01-19T19:43:27.945Z</time>
      </trkpt>
      <trkpt lat="48.87403" lon="2.31716">
        <ele>90.7</ele>
        <time>2015-01-19T19:43:30.044Z</time>
      </trkpt>
      <trkpt lat="48.87403" lon="2.31711">
        <ele>90.4</ele>
        <time>2015-01-19T19:43:30.942Z</time>
      </trkpt>
      <trkpt lat="48.87401" lon="2.31699">
        <ele>90.2</ele>
        <time>2015-01-19T19:43:33.029Z</time>
      </trkpt>
      <trkpt lat="48.87401" lon="2.31692">
        <ele>90.1</ele>
        <time>2015-01-19T19:43:34.058Z</time>
      </trkpt>
      <trkpt lat="48.87401" lon="2.31686">
        <ele>90.1</ele>
        <time>2015-01-19T19:43:34.994Z</time>
      </trkpt>
      <trkpt lat="48.87402" lon="2.31678">
        <ele>90</ele>
        <time>2015-01-19T19:43:35.990Z</time>
      </trkpt>
      <trkpt lat="48.87402" lon="2.31671">
        <ele>89.4</ele>
        <time>2015-01-19T19:43:37Z</time>
      </trkpt>
      <trkpt lat="48.87402" lon="2.31664">
        <ele>88.9</ele>
        <time>2015-01-19T19:43:38.006Z</time>
      </trkpt>
      <trkpt lat="48.87401" lon="2.31656">
        <ele>88.5</ele>
        <time>2015-01-19T19:43:39.023Z</time>
      </trkpt>
      <trkpt lat="48.87401" lon="2.31649">
        <ele>88.2</ele>
        <time>2015-01-19T19:43:39.940Z</time>
      </trkpt>
      <trkpt lat="48.87401" lon="2.31642">
        <ele>87.9</ele>
        <time>2015-01-19T19:43:40.955Z</time>
      </trkpt>
      <trkpt lat="48.874" lon="2.31635">
        <ele>87.9</ele>
        <time>2015-01-19T19:43:41.979Z</time>
      </trkpt>
      <trkpt lat="48.87397" lon="2.31623">
        <ele>88.3</ele>
        <time>2015-01-19T19:43:44.020Z</time>
      </trkpt>
      <trkpt lat="48.87396" lon="2.31618">
        <ele>88.4</ele>
        <time>2015-01-19T19:43:45.112Z</time>
      </trkpt>
      <trkpt lat="48.87394" lon="2.31607">
        <ele>89.1</ele>
        <time>2015-01-19T19:43:47.964Z</time>
      </trkpt>
      <trkpt lat="48.87393" lon="2.31604">
        <ele>89.3</ele>
        <time>2015-01-19T19:43:48.977Z</time>
      </trkpt>
      <trkpt lat="48.87392" lon="2.31597">
        <ele>90</ele>
        <time>2015-01-19T19:43:52.951Z</time>
      </trkpt>
      <trkpt lat="48.87391" lon="2.31597">
        <ele>90.2</ele>
        <time>2015-01-19T19:43:53.975Z</time>
      </trkpt>
      <trkpt lat="48.87391" lon="2.31596">
        <ele>90.4</ele>
        <time>2015-01-19T19:43:56.018Z</time>
      </trkpt>
      <trkpt lat="48.87391" lon="2.31594">
        <ele>90.7</ele>
        <time>2015-01-19T19:43:57.030Z</time>
      </trkpt>
      <trkpt lat="48.8739" lon="2.31585">
        <ele>92.2</ele>
        <time>2015-01-19T19:43:59.952Z</time>
      </trkpt>
      <trkpt lat="48.87388" lon="2.31581">
        <ele>92.8</ele>
        <time>2015-01-19T19:44:01.016Z</time>
      </trkpt>
      <trkpt lat="48.87385" lon="2.31574">
        <ele>93.5</ele>
        <time>2015-01-19T19:44:03.081Z</time>
      </trkpt>
      <trkpt lat="48.87384" lon="2.31568">
        <ele>93.2</ele>
        <time>2015-01-19T19:44:03.941Z</time>
      </trkpt>
      <trkpt lat="48.87382" lon="2.31559">
        <ele>93</ele>
        <time>2015-01-19T19:44:05.943Z</time>
      </trkpt>
      <trkpt lat="48.87381" lon="2.31554">
        <ele>92.9</ele>
        <time>2015-01-19T19:44:06.953Z</time>
      </trkpt>
      <trkpt lat="48.87379" lon="2.31545">
        <ele>92.5</ele>
        <time>2015-01-19T19:44:08.986Z</time>
      </trkpt>
      <trkpt lat="48.87378" lon="2.3154">
        <ele>92.6</ele>
        <time>2015-01-19T19:44:10.022Z</time>
      </trkpt>
      <trkpt lat="48.87377" lon="2.31526">
        <ele>91.9</ele>
        <time>2015-01-19T19:44:11.957Z</time>
      </trkpt>
      <trkpt lat="48.87377" lon="2.31519">
        <ele>91.5</ele>
        <time>2015-01-19T19:44:13.054Z</time>
      </trkpt>
      <trkpt lat="48.87377" lon="2.31511">
        <ele>90.9</ele>
        <time>2015-01-19T19:44:14.024Z</time>
      </trkpt>
      <trkpt lat="48.87376" lon="2.31504">
        <ele>90.5</ele>
        <time>2015-01-19T19:44:15.049Z</time>
      </trkpt>
      <trkpt lat="48.87373" lon="2.31493">
        <ele>90.7</ele>
        <time>2015-01-19T19:44:16.931Z</time>
      </trkpt>
      <trkpt lat="48.87372" lon="2.31485">
        <ele>90.9</ele>
        <time>2015-01-19T19:44:17.949Z</time>
      </trkpt>
      <trkpt lat="48.87371" lon="2.31474">
        <ele>91.3</ele>
        <time>2015-01-19T19:44:19.968Z</time>
      </trkpt>
      <trkpt lat="48.8737" lon="2.3147">
        <ele>91.7</ele>
        <time>2015-01-19T19:44:20.975Z</time>
      </trkpt>
      <trkpt lat="48.87373" lon="2.31457">
        <ele>93.3</ele>
        <time>2015-01-19T19:44:24.931Z</time>
      </trkpt>
      <trkpt lat="48.87375" lon="2.31456">
        <ele>94</ele>
        <time>2015-01-19T19:44:25.959Z</time>
      </trkpt>
      <trkpt lat="48.87383" lon="2.3145">
        <ele>97.1</ele>
        <time>2015-01-19T19:44:29.913Z</time>
      </trkpt>
      <trkpt lat="48.87385" lon="2.31448">
        <ele>98</ele>
        <time>2015-01-19T19:44:30.983Z</time>
      </trkpt>
      <trkpt lat="48.87393" lon="2.31447">
        <ele>99.8</ele>
        <time>2015-01-19T19:44:33.989Z</time>
      </trkpt>
      <trkpt lat="48.87396" lon="2.31447">
        <ele>100.3</ele>
        <time>2015-01-19T19:44:35.022Z</time>
      </trkpt>
      <trkpt lat="48.87404" lon="2.31446">
        <ele>101.2</ele>
        <time>2015-01-19T19:44:36.953Z</time>
      </trkpt>
      <trkpt lat="48.87407" lon="2.31447">
        <ele>101.4</ele>
        <time>2015-01-19T19:44:37.981Z</time>
      </trkpt>
      <trkpt lat="48.87413" lon="2.31449">
        <ele>101.8</ele>
        <time>2015-01-19T19:44:40.002Z</time>
      </trkpt>
      <trkpt lat="48.87417" lon="2.31448">
        <ele>102</ele>
        <time>2015-01-19T19:44:41.086Z</time>
      </trkpt>
      <trkpt lat="48.87424" lon="2.31447">
        <ele>102.2</ele>
        <time>2015-01-19T19:44:42.950Z</time>
      </trkpt>
      <trkpt lat="48.87426" lon="2.31447">
        <ele>102.4</ele>
        <time>2015-01-19T19:44:44.120Z</time>
      </trkpt>
      <trkpt lat="48.87434" lon="2.31447">
        <ele>102.6</ele>
        <time>2015-01-19T19:44:47.492Z</time>
      </trkpt>
      <trkpt lat="48.87436" lon="2.31446">
        <ele>102.6</ele>
        <time>2015-01-19T19:44:47.938Z</time>
      </trkpt>
      <trkpt lat="48.87444" lon="2.31449">
        <ele>102.8</ele>
        <time>2015-01-19T19:44:51.998Z</time>
      </trkpt>
      <trkpt lat="48.87448" lon="2.31449">
        <ele>102.8</ele>
        <time>2015-01-19T19:44:53.130Z</time>
      </trkpt>
      <trkpt lat="48.87455" lon="2.31445">
        <ele>102.5</ele>
        <time>2015-01-19T19:44:56.008Z</time>
      </trkpt>
      <trkpt lat="48.87457" lon="2.31444">
        <ele>102.4</ele>
        <time>2015-01-19T19:44:56.966Z</time>
      </trkpt>
      <trkpt lat="48.87462" lon="2.31441">
        <ele>102.3</ele>
        <time>2015-01-19T19:44:58.948Z</time>
      </trkpt>
      <trkpt lat="48.87466" lon="2.31439">
        <ele>102.6</ele>
        <time>2015-01-19T19:44:59.957Z</time>
      </trkpt>
      <trkpt lat="48.87466" lon="2.31439">
        <ele>102.6</ele>
        <time>2015-01-19T19:45:00.680Z</time>
      </trkpt>
      <trkpt lat="48.87469" lon="2.31438">
        <ele>102.8</ele>
        <time>2015-01-19T19:45:00.966Z</time>
      </trkpt>
      <trkpt lat="48.87473" lon="2.31433">
        <ele>102.9</ele>
        <time>2015-01-19T19:45:01.975Z</time>
      </trkpt>
      <trkpt lat="48.87477" lon="2.31425">
        <ele>100.9</ele>
        <time>2015-01-19T19:45:02.981Z</time>
      </trkpt>
      <trkpt lat="48.87479" lon="2.3142">
        <ele>99.8</ele>
        <time>2015-01-19T19:45:04.018Z</time>
      </trkpt>
      <trkpt lat="48.87481" lon="2.31408">
        <ele>100.1</ele>
        <time>2015-01-19T19:45:09.076Z</time>
      </trkpt>
      <trkpt lat="48.87481" lon="2.31407">
        <ele>100.5</ele>
        <time>2015-01-19T19:45:09.991Z</time>
      </trkpt>
      <trkpt lat="48.87483" lon="2.31394">
        <ele>101.1</ele>
        <time>2015-01-19T19:45:14.989Z</time>
      </trkpt>
      <trkpt lat="48.87484" lon="2.31392">
        <ele>100.9</ele>
        <time>2015-01-19T19:45:16.064Z</time>
      </trkpt>
      <trkpt lat="48.87484" lon="2.31379">
        <ele>100.4</ele>
        <time>2015-01-19T19:45:19.983Z</time>
      </trkpt>
      <trkpt lat="48.87484" lon="2.31374">
        <ele>100.1</ele>
        <time>2015-01-19T19:45:20.993Z</time>
      </trkpt>
      <trkpt lat="48.87484" lon="2.31362">
        <ele>99.6</ele>
        <time>2015-01-19T19:45:23.030Z</time>
      </trkpt>
      <trkpt lat="48.87483" lon="2.31355">
        <ele>99.2</ele>
        <time>2015-01-19T19:45:24.043Z</time>
      </trkpt>
      <trkpt lat="48.87483" lon="2.31342">
        <ele>98.6</ele>
        <time>2015-01-19T19:45:26.363Z</time>
      </trkpt>
      <trkpt lat="48.87481" lon="2.31335">
        <ele>98.7</ele>
        <time>2015-01-19T19:45:26.986Z</time>
      </trkpt>
      <trkpt lat="48.87479" lon="2.31325">
        <ele>98.6</ele>
        <time>2015-01-19T19:45:29.675Z</time>
      </trkpt>
      <trkpt lat="48.87479" lon="2.31319">
        <ele>98.5</ele>
        <time>2015-01-19T19:45:29.908Z</time>
      </trkpt>
      <trkpt lat="48.87479" lon="2.31309">
        <ele>98.1</ele>
        <time>2015-01-19T19:45:31.973Z</time>
      </trkpt>
      <trkpt lat="48.87479" lon="2.31304">
        <ele>98</ele>
        <time>2015-01-19T19:45:32.986Z</time>
      </trkpt>
      <trkpt lat="48.87479" lon="2.31294">
        <ele>97.8</ele>
        <time>2015-01-19T19:45:36.008Z</time>
      </trkpt>
      <trkpt lat="48.87478" lon="2.3129">
        <ele>97.8</ele>
        <time>2015-01-19T19:45:36.903Z</time>
      </trkpt>
      <trkpt lat="48.87473" lon="2.31281">
        <ele>98.2</ele>
        <time>2015-01-19T19:45:39.974Z</time>
      </trkpt>
      <trkpt lat="48.87472" lon="2.31277">
        <ele>98.3</ele>
        <time>2015-01-19T19:45:40.997Z</time>
      </trkpt>
      <trkpt lat="48.87471" lon="2.31264">
        <ele>98.1</ele>
        <time>2015-01-19T19:45:44.981Z</time>
      </trkpt>
      <trkpt lat="48.8747" lon="2.31259">
        <ele>98</ele>
        <time>2015-01-19T19:45:45.038Z</time>
      </trkpt>
      <trkpt lat="48.8747" lon="2.31246">
        <ele>97.4</ele>
        <time>2015-01-19T19:45:46.988Z</time>
      </trkpt>
      <trkpt lat="48.87469" lon="2.31238">
        <ele>97.1</ele>
        <time>2015-01-19T19:45:48.046Z</time>
      </trkpt>
      <trkpt lat="48.87469" lon="2.31231">
        <ele>96.9</ele>
        <time>2015-01-19T19:45:48.930Z</time>
      </trkpt>
      <trkpt lat="48.87468" lon="2.31223">
        <ele>96.8</ele>
        <time>2015-01-19T19:45:49.932Z</time>
      </trkpt>
      <trkpt lat="48.87467" lon="2.31216">
        <ele>96.7</ele>
        <time>2015-01-19T19:45:50.949Z</time>
      </trkpt>
      <trkpt lat="48.87466" lon="2.31209">
        <ele>96.7</ele>
        <time>2015-01-19T19:45:51.953Z</time>
      </trkpt>
      <trkpt lat="48.87464" lon="2.312">
        <ele>97.2</ele>
        <time>2015-01-19T19:45:52.966Z</time>
      </trkpt>
      <trkpt lat="48.87464" lon="2.31191">
        <ele>97.6</ele>
        <time>2015-01-19T19:45:53.973Z</time>
      </trkpt>
      <trkpt lat="48.87464" lon="2.31183">
        <ele>97.7</ele>
        <time>2015-01-19T19:45:55.001Z</time>
      </trkpt>
      <trkpt lat="48.87464" lon="2.31175">
        <ele>97.5</ele>
        <time>2015-01-19T19:45:56.010Z</time>
      </trkpt>
      <trkpt lat="48.87464" lon="2.31168">
        <ele>97.2</ele>
        <time>2015-01-19T19:45:57.020Z</time>
      </trkpt>
      <trkpt lat="48.87463" lon="2.31161">
        <ele>97</ele>
        <time>2015-01-19T19:45:57.922Z</time>
      </trkpt>
      <trkpt lat="48.87461" lon="2.31149">
        <ele>96.8</ele>
        <time>2015-01-19T19:45:59.931Z</time>
      </trkpt>
      <trkpt lat="48.8746" lon="2.31142">
        <ele>96.5</ele>
        <time>2015-01-19T19:46:00.945Z</time>
      </trkpt>
      <trkpt lat="48.87459" lon="2.3113">
        <ele>96.2</ele>
        <time>2015-01-19T19:46:02.914Z</time>
      </trkpt>
      <trkpt lat="48.87459" lon="2.31124">
        <ele>96</ele>
        <time>2015-01-19T19:46:03.984Z</time>
      </trkpt>
      <trkpt lat="48.87457" lon="2.31114">
        <ele>95.5</ele>
        <time>2015-01-19T19:46:06.037Z</time>
      </trkpt>
      <trkpt lat="48.87456" lon="2.31109">
        <ele>95.4</ele>
        <time>2015-01-19T19:46:06.919Z</time>
      </trkpt>
      <trkpt lat="48.87453" lon="2.31096">
        <ele>95.1</ele>
        <time>2015-01-19T19:46:08.977Z</time>
      </trkpt>
      <trkpt lat="48.87452" lon="2.3109">
        <ele>95</ele>
        <time>2015-01-19T19:46:09.986Z</time>
      </trkpt>
      <trkpt lat="48.87449" lon="2.31077">
        <ele>94.7</ele>
        <time>2015-01-19T19:46:11.909Z</time>
      </trkpt>
      <trkpt lat="48.87448" lon="2.31071">
        <ele>94.6</ele>
        <time>2015-01-19T19:46:12.932Z</time>
      </trkpt>
      <trkpt lat="48.87447" lon="2.3106">
        <ele>94.3</ele>
        <time>2015-01-19T19:46:14.994Z</time>
      </trkpt>
      <trkpt lat="48.87446" lon="2.31055">
        <ele>94.2</ele>
        <time>2015-01-19T19:46:16.034Z</time>
      </trkpt>
      <trkpt lat="48.87444" lon="2.31045">
        <ele>94</ele>
        <time>2015-01-19T19:46:17.972Z</time>
      </trkpt>
      <trkpt lat="48.87443" lon="2.3104">
        <ele>93.9</ele>
        <time>2015-01-19T19:46:18.966Z</time>
      </trkpt>
      <trkpt lat="48.87439" lon="2.31028">
        <ele>93.8</ele>
        <time>2015-01-19T19:46:22.056Z</time>
      </trkpt>
      <trkpt lat="48.87439" lon="2.31025">
        <ele>93.8</ele>
        <time>2015-01-19T19:46:22.945Z</time>
      </trkpt>
      <trkpt lat="48.8744" lon="2.31012">
        <ele>97.5</ele>
        <time>2015-01-19T19:46:34.033Z</time>
      </trkpt>
      <trkpt lat="48.87441" lon="2.31011">
        <ele>98</ele>
        <time>2015-01-19T19:46:34.936Z</time>
      </trkpt>
      <trkpt lat="48.87446" lon="2.31003">
        <ele>99.2</ele>
        <time>2015-01-19T19:46:39.025Z</time>
      </trkpt>
      <trkpt lat="48.87447" lon="2.31001">
        <ele>99.5</ele>
        <time>2015-01-19T19:46:39.907Z</time>
      </trkpt>
      <trkpt lat="48.87453" lon="2.30997">
        <ele>100.3</ele>
        <time>2015-01-19T19:46:42.908Z</time>
      </trkpt>
      <trkpt lat="48.87455" lon="2.30995">
        <ele>100.6</ele>
        <time>2015-01-19T19:46:43.983Z</time>
      </trkpt>
      <trkpt lat="48.87458" lon="2.30983">
        <ele>102.1</ele>
        <time>2015-01-19T19:46:48.949Z</time>
      </trkpt>
      <trkpt lat="48.87458" lon="2.30979">
        <ele>102.4</ele>
        <time>2015-01-19T19:46:49.987Z</time>
      </trkpt>
      <trkpt lat="48.87454" lon="2.30968">
        <ele>103.2</ele>
        <time>2015-01-19T19:46:54.956Z</time>
      </trkpt>
      <trkpt lat="48.87454" lon="2.30966">
        <ele>103.3</ele>
        <time>2015-01-19T19:46:56.072Z</time>
      </trkpt>
      <trkpt lat="48.87455" lon="2.30954">
        <ele>104.2</ele>
        <time>2015-01-19T19:47:02.052Z</time>
      </trkpt>
      <trkpt lat="48.87454" lon="2.30952">
        <ele>104.4</ele>
        <time>2015-01-19T19:47:03.069Z</time>
      </trkpt>
      <trkpt lat="48.87448" lon="2.30946">
        <ele>104.8</ele>
        <time>2015-01-19T19:47:05.978Z</time>
      </trkpt>
      <trkpt lat="48.87443" lon="2.3094">
        <ele>105.2</ele>
        <time>2015-01-19T19:47:06.990Z</time>
      </trkpt>
      <trkpt lat="48.87437" lon="2.30932">
        <ele>105.1</ele>
        <time>2015-01-19T19:47:08.935Z</time>
      </trkpt>
      <trkpt lat="48.87434" lon="2.3093">
        <ele>105.1</ele>
        <time>2015-01-19T19:47:09.948Z</time>
      </trkpt>
      <trkpt lat="48.87428" lon="2.30924">
        <ele>105.1</ele>
        <time>2015-01-19T19:47:11.996Z</time>
      </trkpt>
      <trkpt lat="48.87426" lon="2.30921">
        <ele>105.1</ele>
        <time>2015-01-19T19:47:12.997Z</time>
      </trkpt>
      <trkpt lat="48.87421" lon="2.30914">
        <ele>105.1</ele>
        <time>2015-01-19T19:47:14.930Z</time>
      </trkpt>
      <trkpt lat="48.87417" lon="2.30909">
        <ele>104.9</ele>
        <time>2015-01-19T19:47:15.965Z</time>
      </trkpt>
      <trkpt lat="48.87411" lon="2.30898">
        <ele>104.3</ele>
        <time>2015-01-19T19:47:18.012Z</time>
      </trkpt>
      <trkpt lat="48.87408" lon="2.30893">
        <ele>104</ele>
        <time>2015-01-19T19:47:19.039Z</time>
      </trkpt>
      <trkpt lat="48.87402" lon="2.30885">
        <ele>103.6</ele>
        <time>2015-01-19T19:47:20.993Z</time>
      </trkpt>
      <trkpt lat="48.874" lon="2.30881">
        <ele>103.4</ele>
        <time>2015-01-19T19:47:22.007Z</time>
      </trkpt>
      <trkpt lat="48.87398" lon="2.30877">
        <ele>103.1</ele>
        <time>2015-01-19T19:47:23.042Z</time>
      </trkpt>
      <trkpt lat="48.87402" lon="2.30864">
        <ele>100.9</ele>
        <time>2015-01-19T19:47:23.936Z</time>
      </trkpt>
      <trkpt lat="48.874" lon="2.30853">
        <ele>100.2</ele>
        <time>2015-01-19T19:47:26.982Z</time>
      </trkpt>
      <trkpt lat="48.874" lon="2.3085">
        <ele>100.3</ele>
        <time>2015-01-19T19:47:28.127Z</time>
      </trkpt>
      <trkpt lat="48.87404" lon="2.30839">
        <ele>98.7</ele>
        <time>2015-01-19T19:47:31.009Z</time>
      </trkpt>
      <trkpt lat="48.87405" lon="2.30836">
        <ele>98.3</ele>
        <time>2015-01-19T19:47:32.024Z</time>
      </trkpt>
      <trkpt lat="48.87408" lon="2.30824">
        <ele>96.5</ele>
        <time>2015-01-19T19:47:35.967Z</time>
      </trkpt>
      <trkpt lat="48.87409" lon="2.30821">
        <ele>96.6</ele>
        <time>2015-01-19T19:47:36.980Z</time>
      </trkpt>
      <trkpt lat="48.87412" lon="2.30809">
        <ele>96.5</ele>
        <time>2015-01-19T19:47:40.035Z</time>
      </trkpt>
      <trkpt lat="48.87413" lon="2.30806">
        <ele>96.5</ele>
        <time>2015-01-19T19:47:40.949Z</time>
      </trkpt>
      <trkpt lat="48.87415" lon="2.30796">
        <ele>96.5</ele>
        <time>2015-01-19T19:47:43.969Z</time>
      </trkpt>
      <trkpt lat="48.87415" lon="2.30791">
        <ele>96.4</ele>
        <time>2015-01-19T19:47:44.983Z</time>
      </trkpt>
      <trkpt lat="48.87416" lon="2.30782">
        <ele>96.4</ele>
        <time>2015-01-19T19:47:46.932Z</time>
      </trkpt>
      <trkpt lat="48.87415" lon="2.30776">
        <ele>96.6</ele>
        <time>2015-01-19T19:47:47.945Z</time>
      </trkpt>
      <trkpt lat="48.87419" lon="2.30767">
        <ele>96.6</ele>
        <time>2015-01-19T19:47:51.923Z</time>
      </trkpt>
      <trkpt lat="48.87418" lon="2.30763">
        <ele>97</ele>
        <time>2015-01-19T19:47:52.943Z</time>
      </trkpt>
      <trkpt lat="48.87417" lon="2.30756">
        <ele>98.1</ele>
        <time>2015-01-19T19:48:15.970Z</time>
      </trkpt>
      <trkpt lat="48.87418" lon="2.30735">
        <ele>98.6</ele>
        <time>2015-01-19T19:48:17.008Z</time>
      </trkpt>
      <trkpt lat="48.87417" lon="2.3073">
        <ele>99</ele>
        <time>2015-01-19T19:48:23.022Z</time>
      </trkpt>
      <trkpt lat="48.87412" lon="2.30723">
        <ele>98.1</ele>
        <time>2015-01-19T19:48:29.999Z</time>
      </trkpt>
      <trkpt lat="48.87406" lon="2.30714">
        <ele>97.2</ele>
        <time>2015-01-19T19:48:34.964Z</time>
      </trkpt>
      <trkpt lat="48.87404" lon="2.30711">
        <ele>97</ele>
        <time>2015-01-19T19:48:35.986Z</time>
      </trkpt>
      <trkpt lat="48.87398" lon="2.307">
        <ele>96.9</ele>
        <time>2015-01-19T19:48:39.059Z</time>
      </trkpt>
      <trkpt lat="48.87396" lon="2.30696">
        <ele>97</ele>
        <time>2015-01-19T19:48:39.936Z</time>
      </trkpt>
      <trkpt lat="48.87392" lon="2.30689">
        <ele>97.2</ele>
        <time>2015-01-19T19:48:42Z</time>
      </trkpt>
      <trkpt lat="48.87389" lon="2.30681">
        <ele>97.8</ele>
        <time>2015-01-19T19:48:43.032Z</time>
      </trkpt>
      <trkpt lat="48.87383" lon="2.30673">
        <ele>98.4</ele>
        <time>2015-01-19T19:48:44.957Z</time>
      </trkpt>
      <trkpt lat="48.87381" lon="2.30669">
        <ele>98.6</ele>
        <time>2015-01-19T19:48:45.985Z</time>
      </trkpt>
      <trkpt lat="48.87376" lon="2.30657">
        <ele>99</ele>
        <time>2015-01-19T19:48:51.947Z</time>
      </trkpt>
      <trkpt lat="48.87378" lon="2.30654">
        <ele>99</ele>
        <time>2015-01-19T19:48:53.014Z</time>
      </trkpt>
      <trkpt lat="48.87372" lon="2.30647">
        <ele>98.7</ele>
        <time>2015-01-19T19:49:07.993Z</time>
      </trkpt>
      <trkpt lat="48.87371" lon="2.30644">
        <ele>98.9</ele>
        <time>2015-01-19T19:49:08.949Z</time>
      </trkpt>
      <trkpt lat="48.87365" lon="2.30636">
        <ele>98.7</ele>
        <time>2015-01-19T19:49:12.938Z</time>
      </trkpt>
      <trkpt lat="48.87362" lon="2.30635">
        <ele>98.6</ele>
        <time>2015-01-19T19:49:13.989Z</time>
      </trkpt>
      <trkpt lat="48.87355" lon="2.30632">
        <ele>98.1</ele>
        <time>2015-01-19T19:49:16.944Z</time>
      </trkpt>
      <trkpt lat="48.87353" lon="2.3063">
        <ele>98</ele>
        <time>2015-01-19T19:49:17.963Z</time>
      </trkpt>
      <trkpt lat="48.87349" lon="2.30618">
        <ele>98</ele>
        <time>2015-01-19T19:49:21.943Z</time>
      </trkpt>
      <trkpt lat="48.87348" lon="2.30615">
        <ele>98</ele>
        <time>2015-01-19T19:49:22.949Z</time>
      </trkpt>
      <trkpt lat="48.87342" lon="2.30607">
        <ele>97.9</ele>
        <time>2015-01-19T19:49:25.983Z</time>
      </trkpt>
      <trkpt lat="48.87339" lon="2.30603">
        <ele>97.7</ele>
        <time>2015-01-19T19:49:26.917Z</time>
      </trkpt>
      <trkpt lat="48.87335" lon="2.30596">
        <ele>97.5</ele>
        <time>2015-01-19T19:49:29.021Z</time>
      </trkpt>
      <trkpt lat="48.87331" lon="2.30591">
        <ele>97.4</ele>
        <time>2015-01-19T19:49:30.063Z</time>
      </trkpt>
      <trkpt lat="48.87326" lon="2.3058">
        <ele>97.1</ele>
        <time>2015-01-19T19:49:32.004Z</time>
      </trkpt>
      <trkpt lat="48.87324" lon="2.30575">
        <ele>97.1</ele>
        <time>2015-01-19T19:49:33.060Z</time>
      </trkpt>
      <trkpt lat="48.87319" lon="2.30564">
        <ele>97.2</ele>
        <time>2015-01-19T19:49:35.385Z</time>
      </trkpt>
      <trkpt lat="48.87317" lon="2.3056">
        <ele>97.3</ele>
        <time>2015-01-19T19:49:36.033Z</time>
      </trkpt>
      <trkpt lat="48.87313" lon="2.30552">
        <ele>98.2</ele>
        <time>2015-01-19T19:49:37.978Z</time>
      </trkpt>
      <trkpt lat="48.87311" lon="2.30546">
        <ele>98.3</ele>
        <time>2015-01-19T19:49:39.007Z</time>
      </trkpt>
      <trkpt lat="48.87308" lon="2.3054">
        <ele>98.3</ele>
        <time>2015-01-19T19:49:40.414Z</time>
      </trkpt>
      <trkpt lat="48.87305" lon="2.30535">
        <ele>98.4</ele>
        <time>2015-01-19T19:49:40.935Z</time>
      </trkpt>
      <trkpt lat="48.87302" lon="2.3053">
        <ele>98.6</ele>
        <time>2015-01-19T19:49:41.922Z</time>
      </trkpt>
      <trkpt lat="48.87299" lon="2.30524">
        <ele>98.8</ele>
        <time>2015-01-19T19:49:42.981Z</time>
      </trkpt>
      <trkpt lat="48.87296" lon="2.30517">
        <ele>99</ele>
        <time>2015-01-19T19:49:44.006Z</time>
      </trkpt>
      <trkpt lat="48.87293" lon="2.30511">
        <ele>99.1</ele>
        <time>2015-01-19T19:49:44.967Z</time>
      </trkpt>
      <trkpt lat="48.8729" lon="2.30505">
        <ele>99</ele>
        <time>2015-01-19T19:49:46.016Z</time>
      </trkpt>
      <trkpt lat="48.87287" lon="2.30499">
        <ele>99.2</ele>
        <time>2015-01-19T19:49:47.025Z</time>
      </trkpt>
      <trkpt lat="48.87281" lon="2.30489">
        <ele>99.4</ele>
        <time>2015-01-19T19:49:49.012Z</time>
      </trkpt>
      <trkpt lat="48.87278" lon="2.30484">
        <ele>99.4</ele>
        <time>2015-01-19T19:49:49.991Z</time>
      </trkpt>
      <trkpt lat="48.87274" lon="2.30475">
        <ele>99.2</ele>
        <time>2015-01-19T19:49:52.025Z</time>
      </trkpt>
      <trkpt lat="48.87272" lon="2.30472">
        <ele>99.2</ele>
        <time>2015-01-19T19:49:53.040Z</time>
      </trkpt>
      <trkpt lat="48.87268" lon="2.30464">
        <ele>99.1</ele>
        <time>2015-01-19T19:49:55.617Z</time>
      </trkpt>
      <trkpt lat="48.87264" lon="2.3045">
        <ele>98.9</ele>
        <time>2015-01-19T19:49:58.016Z</time>
      </trkpt>
      <trkpt lat="48.8726" lon="2.3044">
        <ele>98.8</ele>
        <time>2015-01-19T19:50:00.697Z</time>
      </trkpt>
      <trkpt lat="48.87257" lon="2.30435">
        <ele>98.9</ele>
        <time>2015-01-19T19:50:00.937Z</time>
      </trkpt>
      <trkpt lat="48.87252" lon="2.30424">
        <ele>99.2</ele>
        <time>2015-01-19T19:50:03.073Z</time>
      </trkpt>
      <trkpt lat="48.87249" lon="2.30419">
        <ele>99.4</ele>
        <time>2015-01-19T19:50:03.963Z</time>
      </trkpt>
      <trkpt lat="48.87247" lon="2.30413">
        <ele>99.5</ele>
        <time>2015-01-19T19:50:05.814Z</time>
      </trkpt>
      <trkpt lat="48.87244" lon="2.30407">
        <ele>99.5</ele>
        <time>2015-01-19T19:50:05.987Z</time>
      </trkpt>
      <trkpt lat="48.87241" lon="2.30401">
        <ele>99.6</ele>
        <time>2015-01-19T19:50:06.929Z</time>
      </trkpt>
      <trkpt lat="48.87237" lon="2.30397">
        <ele>99.7</ele>
        <time>2015-01-19T19:50:07.954Z</time>
      </trkpt>
      <trkpt lat="48.87234" lon="2.30391">
        <ele>100.1</ele>
        <time>2015-01-19T19:50:08.958Z</time>
      </trkpt>
      <trkpt lat="48.87231" lon="2.30386">
        <ele>100.2</ele>
        <time>2015-01-19T19:50:09.979Z</time>
      </trkpt>
      <trkpt lat="48.87225" lon="2.30378">
        <ele>100.3</ele>
        <time>2015-01-19T19:50:12.013Z</time>
      </trkpt>
      <trkpt lat="48.87222" lon="2.30374">
        <ele>100.4</ele>
        <time>2015-01-19T19:50:12.948Z</time>
      </trkpt>
      <trkpt lat="48.87217" lon="2.30366">
        <ele>100.8</ele>
        <time>2015-01-19T19:50:14.937Z</time>
      </trkpt>
      <trkpt lat="48.87215" lon="2.30362">
        <ele>101.1</ele>
        <time>2015-01-19T19:50:16.035Z</time>
      </trkpt>
      <trkpt lat="48.8721" lon="2.30352">
        <ele>101.5</ele>
        <time>2015-01-19T19:50:17.935Z</time>
      </trkpt>
      <trkpt lat="48.87207" lon="2.30347">
        <ele>101.8</ele>
        <time>2015-01-19T19:50:18.970Z</time>
      </trkpt>
      <trkpt lat="48.87203" lon="2.30338">
        <ele>102.5</ele>
        <time>2015-01-19T19:50:21.398Z</time>
      </trkpt>
      <trkpt lat="48.872" lon="2.30333">
        <ele>102.7</ele>
        <time>2015-01-19T19:50:21.985Z</time>
      </trkpt>
      <trkpt lat="48.87196" lon="2.30323">
        <ele>102.6</ele>
        <time>2015-01-19T19:50:23.973Z</time>
      </trkpt>
      <trkpt lat="48.87194" lon="2.3032">
        <ele>102.7</ele>
        <time>2015-01-19T19:50:24.982Z</time>
      </trkpt>
      <trkpt lat="48.8719" lon="2.30312">
        <ele>102.8</ele>
        <time>2015-01-19T19:50:27.009Z</time>
      </trkpt>
      <trkpt lat="48.87188" lon="2.30309">
        <ele>102.6</ele>
        <time>2015-01-19T19:50:27.915Z</time>
      </trkpt>
      <trkpt lat="48.87183" lon="2.30301">
        <ele>102.6</ele>
        <time>2015-01-19T19:50:29.940Z</time>
      </trkpt>
      <trkpt lat="48.87181" lon="2.30299">
        <ele>102.5</ele>
        <time>2015-01-19T19:50:30.979Z</time>
      </trkpt>
      <trkpt lat="48.87178" lon="2.30286">
        <ele>101.7</ele>
        <time>2015-01-19T19:50:34.761Z</time>
      </trkpt>
      <trkpt lat="48.87178" lon="2.30281">
        <ele>101</ele>
        <time>2015-01-19T19:50:35.017Z</time>
      </trkpt>
      <trkpt lat="48.87178" lon="2.30269">
        <ele>99.8</ele>
        <time>2015-01-19T19:50:38.993Z</time>
      </trkpt>
      <trkpt lat="48.87177" lon="2.30267">
        <ele>99.5</ele>
        <time>2015-01-19T19:50:40.012Z</time>
      </trkpt>
      <trkpt lat="48.87169" lon="2.30263">
        <ele>95.3</ele>
        <time>2015-01-19T19:50:45.934Z</time>
      </trkpt>
      <trkpt lat="48.87168" lon="2.30261">
        <ele>95.1</ele>
        <time>2015-01-19T19:50:47.048Z</time>
      </trkpt>
      <trkpt lat="48.87162" lon="2.30255">
        <ele>94.7</ele>
        <time>2015-01-19T19:50:51.001Z</time>
      </trkpt>
      <trkpt lat="48.87159" lon="2.30252">
        <ele>94.4</ele>
        <time>2015-01-19T19:50:52.090Z</time>
      </trkpt>
      <trkpt lat="48.87155" lon="2.30244">
        <ele>94.7</ele>
        <time>2015-01-19T19:50:53.963Z</time>
      </trkpt>
      <trkpt lat="48.87153" lon="2.30241">
        <ele>94.9</ele>
        <time>2015-01-19T19:50:54.989Z</time>
      </trkpt>
      <trkpt lat="48.87146" lon="2.30233">
        <ele>95.8</ele>
        <time>2015-01-19T19:51:00.385Z</time>
      </trkpt>
      <trkpt lat="48.87145" lon="2.30232">
        <ele>95.9</ele>
        <time>2015-01-19T19:51:00.971Z</time>
      </trkpt>
      <trkpt lat="48.87144" lon="2.30221">
        <ele>95.5</ele>
        <time>2015-01-19T19:51:04.003Z</time>
      </trkpt>
      <trkpt lat="48.87144" lon="2.30216">
        <ele>95.3</ele>
        <time>2015-01-19T19:51:05.018Z</time>
      </trkpt>
      <trkpt lat="48.87142" lon="2.30204">
        <ele>96.6</ele>
        <time>2015-01-19T19:51:10.639Z</time>
      </trkpt>
      <trkpt lat="48.87143" lon="2.30201">
        <ele>96.3</ele>
        <time>2015-01-19T19:51:10.995Z</time>
      </trkpt>
      <trkpt lat="48.87146" lon="2.30188">
        <ele>95.8</ele>
        <time>2015-01-19T19:51:14.055Z</time>
      </trkpt>
      <trkpt lat="48.87147" lon="2.30184">
        <ele>95.7</ele>
        <time>2015-01-19T19:51:15.056Z</time>
      </trkpt>
      <trkpt lat="48.87149" lon="2.30174">
        <ele>95.6</ele>
        <time>2015-01-19T19:51:17.011Z</time>
      </trkpt>
      <trkpt lat="48.8715" lon="2.30169">
        <ele>95.8</ele>
        <time>2015-01-19T19:51:18.021Z</time>
      </trkpt>
      <trkpt lat="48.87152" lon="2.30159">
        <ele>96.4</ele>
        <time>2015-01-19T19:51:20.811Z</time>
      </trkpt>
      <trkpt lat="48.87153" lon="2.30154">
        <ele>96.6</ele>
        <time>2015-01-19T19:51:21.124Z</time>
      </trkpt>
      <trkpt lat="48.87155" lon="2.30144">
        <ele>97.1</ele>
        <time>2015-01-19T19:51:23.016Z</time>
      </trkpt>
      <trkpt lat="48.87156" lon="2.30139">
        <ele>97.5</ele>
        <time>2015-01-19T19:51:24.033Z</time>
      </trkpt>
      <trkpt lat="48.87158" lon="2.3013">
        <ele>97.8</ele>
        <time>2015-01-19T19:51:25.971Z</time>
      </trkpt>
      <trkpt lat="48.87158" lon="2.30125">
        <ele>98</ele>
        <time>2015-01-19T19:51:27.024Z</time>
      </trkpt>
      <trkpt lat="48.8716" lon="2.30113">
        <ele>98.7</ele>
        <time>2015-01-19T19:51:29.045Z</time>
      </trkpt>
      <trkpt lat="48.87162" lon="2.30109">
        <ele>99</ele>
        <time>2015-01-19T19:51:29.961Z</time>
      </trkpt>
      <trkpt lat="48.87163" lon="2.30099">
        <ele>99.1</ele>
        <time>2015-01-19T19:51:31.997Z</time>
      </trkpt>
      <trkpt lat="48.87162" lon="2.30092">
        <ele>99.3</ele>
        <time>2015-01-19T19:51:33.001Z</time>
      </trkpt>
      <trkpt lat="48.87162" lon="2.30079">
        <ele>100</ele>
        <time>2015-01-19T19:51:36.025Z</time>
      </trkpt>
      <trkpt lat="48.87162" lon="2.30075">
        <ele>100.5</ele>
        <time>2015-01-19T19:51:37.044Z</time>
      </trkpt>
      <trkpt lat="48.87167" lon="2.30065">
        <ele>99</ele>
        <time>2015-01-19T19:52:20.707Z</time>
      </trkpt>
      <trkpt lat="48.87167" lon="2.30062">
        <ele>98.9</ele>
        <time>2015-01-19T19:52:20.948Z</time>
      </trkpt>
      <trkpt lat="48.8717" lon="2.30051">
        <ele>99.6</ele>
        <time>2015-01-19T19:52:23.965Z</time>
      </trkpt>
      <trkpt lat="48.87172" lon="2.30049">
        <ele>99.6</ele>
        <time>2015-01-19T19:52:24.951Z</time>
      </trkpt>
      <trkpt lat="48.87177" lon="2.30042">
        <ele>99.4</ele>
        <time>2015-01-19T19:52:29.718Z</time>
      </trkpt>
      <trkpt lat="48.87178" lon="2.30039">
        <ele>99.2</ele>
        <time>2015-01-19T19:52:29.996Z</time>
      </trkpt>
      <trkpt lat="48.87184" lon="2.30033">
        <ele>98.4</ele>
        <time>2015-01-19T19:52:33.028Z</time>
      </trkpt>
      <trkpt lat="48.87185" lon="2.30029">
        <ele>98.5</ele>
        <time>2015-01-19T19:52:33.933Z</time>
      </trkpt>
      <trkpt lat="48.87185" lon="2.30019">
        <ele>98.6</ele>
        <time>2015-01-19T19:52:37.008Z</time>
      </trkpt>
      <trkpt lat="48.87184" lon="2.30016">
        <ele>98.5</ele>
        <time>2015-01-19T19:52:38.067Z</time>
      </trkpt>
      <trkpt lat="48.87179" lon="2.30007">
        <ele>98.4</ele>
        <time>2015-01-19T19:52:41.097Z</time>
      </trkpt>
      <trkpt lat="48.87176" lon="2.30005">
        <ele>98.3</ele>
        <time>2015-01-19T19:52:41.918Z</time>
      </trkpt>
      <trkpt lat="48.8717" lon="2.29999">
        <ele>98.2</ele>
        <time>2015-01-19T19:52:45.012Z</time>
      </trkpt>
      <trkpt lat="48.87168" lon="2.29998">
        <ele>98.2</ele>
        <time>2015-01-19T19:52:45.907Z</time>
      </trkpt>
      <trkpt lat="48.87162" lon="2.2999">
        <ele>98.4</ele>
        <time>2015-01-19T19:52:50.051Z</time>
      </trkpt>
      <trkpt lat="48.87161" lon="2.29988">
        <ele>98.7</ele>
        <time>2015-01-19T19:52:50.939Z</time>
      </trkpt>
      <trkpt lat="48.87155" lon="2.29984">
        <ele>99.4</ele>
        <time>2015-01-19T19:52:55.072Z</time>
      </trkpt>
      <trkpt lat="48.8715" lon="2.29988">
        <ele>100.6</ele>
        <time>2015-01-19T19:52:55.949Z</time>
      </trkpt>
      <trkpt lat="48.87147" lon="2.2999">
        <ele>101.2</ele>
        <time>2015-01-19T19:52:57.001Z</time>
      </trkpt>
      <trkpt lat="48.87145" lon="2.29993">
        <ele>102.1</ele>
        <time>2015-01-19T19:53:00.333Z</time>
      </trkpt>
      <trkpt lat="48.87144" lon="2.29995">
        <ele>103.4</ele>
        <time>2015-01-19T19:53:00.929Z</time>
      </trkpt>
      <trkpt lat="48.8715" lon="2.29986">
        <ele>103.4</ele>
        <time>2015-01-19T19:53:10.506Z</time>
      </trkpt>
      <trkpt lat="48.87151" lon="2.29984">
        <ele>103.2</ele>
        <time>2015-01-19T19:53:10.922Z</time>
      </trkpt>
      <trkpt lat="48.87155" lon="2.29973">
        <ele>103.4</ele>
        <time>2015-01-19T19:53:15.023Z</time>
      </trkpt>
      <trkpt lat="48.87157" lon="2.2997">
        <ele>103.4</ele>
        <time>2015-01-19T19:53:15.888Z</time>
      </trkpt>
      <trkpt lat="48.8716" lon="2.29959">
        <ele>103.7</ele>
        <time>2015-01-19T19:53:19.008Z</time>
      </trkpt>
      <trkpt lat="48.87161" lon="2.29956">
        <ele>103.7</ele>
        <time>2015-01-19T19:53:19.982Z</time>
      </trkpt>
      <trkpt lat="48.87164" lon="2.29945">
        <ele>103.7</ele>
        <time>2015-01-19T19:53:25.635Z</time>
      </trkpt>
      <trkpt lat="48.87165" lon="2.29942">
        <ele>103.6</ele>
        <time>2015-01-19T19:53:25.982Z</time>
      </trkpt>
      <trkpt lat="48.87169" lon="2.29932">
        <ele>103.5</ele>
        <time>2015-01-19T19:53:29.689Z</time>
      </trkpt>
      <trkpt lat="48.8717" lon="2.29928">
        <ele>103.4</ele>
        <time>2015-01-19T19:53:29.910Z</time>
      </trkpt>
      <trkpt lat="48.87174" lon="2.29918">
        <ele>103.5</ele>
        <time>2015-01-19T19:53:32.945Z</time>
      </trkpt>
      <trkpt lat="48.87175" lon="2.29914">
        <ele>103.5</ele>
        <time>2015-01-19T19:53:33.950Z</time>
      </trkpt>
      <trkpt lat="48.87175" lon="2.29904">
        <ele>103.6</ele>
        <time>2015-01-19T19:53:36.965Z</time>
      </trkpt>
      <trkpt lat="48.87175" lon="2.299">
        <ele>103.6</ele>
        <time>2015-01-19T19:53:37.971Z</time>
      </trkpt>
      <trkpt lat="48.87179" lon="2.29889">
        <ele>104</ele>
        <time>2015-01-19T19:53:42.947Z</time>
      </trkpt>
      <trkpt lat="48.87179" lon="2.29887">
        <ele>104.2</ele>
        <time>2015-01-19T19:53:44.009Z</time>
      </trkpt>
      <trkpt lat="48.87183" lon="2.29875">
        <ele>105.2</ele>
        <time>2015-01-19T19:53:51.007Z</time>
      </trkpt>
      <trkpt lat="48.87185" lon="2.29872">
        <ele>105.6</ele>
        <time>2015-01-19T19:53:52.025Z</time>
      </trkpt>
      <trkpt lat="48.87187" lon="2.29862">
        <ele>106.5</ele>
        <time>2015-01-19T19:53:53.934Z</time>
      </trkpt>
      <trkpt lat="48.87188" lon="2.29857">
        <ele>107</ele>
        <time>2015-01-19T19:53:54.937Z</time>
      </trkpt>
      <trkpt lat="48.87191" lon="2.29846">
        <ele>107.8</ele>
        <time>2015-01-19T19:53:56.987Z</time>
      </trkpt>
      <trkpt lat="48.87192" lon="2.29842">
        <ele>108</ele>
        <time>2015-01-19T19:53:57.901Z</time>
      </trkpt>
      <trkpt lat="48.87195" lon="2.29832">
        <ele>108.6</ele>
        <time>2015-01-19T19:54:00.373Z</time>
      </trkpt>
      <trkpt lat="48.87196" lon="2.29828">
        <ele>108.7</ele>
        <time>2015-01-19T19:54:00.954Z</time>
      </trkpt>
      <trkpt lat="48.87199" lon="2.29819">
        <ele>108.7</ele>
        <time>2015-01-19T19:54:03.021Z</time>
      </trkpt>
      <trkpt lat="48.87201" lon="2.29812">
        <ele>108.6</ele>
        <time>2015-01-19T19:54:03.918Z</time>
      </trkpt>
      <trkpt lat="48.87203" lon="2.29802">
        <ele>108.8</ele>
        <time>2015-01-19T19:54:05.927Z</time>
      </trkpt>
      <trkpt lat="48.87204" lon="2.29796">
        <ele>108.9</ele>
        <time>2015-01-19T19:54:06.951Z</time>
      </trkpt>
      <trkpt lat="48.87208" lon="2.29786">
        <ele>108.6</ele>
        <time>2015-01-19T19:54:08.966Z</time>
      </trkpt>
      <trkpt lat="48.8721" lon="2.29781">
        <ele>108.4</ele>
        <time>2015-01-19T19:54:09.970Z</time>
      </trkpt>
      <trkpt lat="48.87215" lon="2.29774">
        <ele>108.2</ele>
        <time>2015-01-19T19:54:11.912Z</time>
      </trkpt>
      <trkpt lat="48.87218" lon="2.29769">
        <ele>107.9</ele>
        <time>2015-01-19T19:54:12.945Z</time>
      </trkpt>
      <trkpt lat="48.87222" lon="2.29761">
        <ele>107.9</ele>
        <time>2015-01-19T19:54:15.694Z</time>
      </trkpt>
      <trkpt lat="48.87224" lon="2.29757">
        <ele>108</ele>
        <time>2015-01-19T19:54:15.895Z</time>
      </trkpt>
      <trkpt lat="48.87225" lon="2.29749">
        <ele>108.4</ele>
        <time>2015-01-19T19:54:16.919Z</time>
      </trkpt>
      <trkpt lat="48.87226" lon="2.29742">
        <ele>108.9</ele>
        <time>2015-01-19T19:54:17.918Z</time>
      </trkpt>
      <trkpt lat="48.87229" lon="2.29734">
        <ele>109.2</ele>
        <time>2015-01-19T19:54:20.695Z</time>
      </trkpt>
      <trkpt lat="48.87231" lon="2.2973">
        <ele>109.2</ele>
        <time>2015-01-19T19:54:20.996Z</time>
      </trkpt>
      <trkpt lat="48.87234" lon="2.29724">
        <ele>108.4</ele>
        <time>2015-01-19T19:54:22.916Z</time>
      </trkpt>
      <trkpt lat="48.87235" lon="2.29718">
        <ele>108.4</ele>
        <time>2015-01-19T19:54:23.944Z</time>
      </trkpt>
      <trkpt lat="48.87237" lon="2.29707">
        <ele>108.1</ele>
        <time>2015-01-19T19:54:25.946Z</time>
      </trkpt>
      <trkpt lat="48.87239" lon="2.29703">
        <ele>108</ele>
        <time>2015-01-19T19:54:26.966Z</time>
      </trkpt>
      <trkpt lat="48.87243" lon="2.29693">
        <ele>107.6</ele>
        <time>2015-01-19T19:54:29.936Z</time>
      </trkpt>
      <trkpt lat="48.87244" lon="2.29689">
        <ele>107.4</ele>
        <time>2015-01-19T19:54:30.935Z</time>
      </trkpt>
      <trkpt lat="48.87247" lon="2.29679">
        <ele>107.3</ele>
        <time>2015-01-19T19:54:32.988Z</time>
      </trkpt>
      <trkpt lat="48.87248" lon="2.29674">
        <ele>107.3</ele>
        <time>2015-01-19T19:54:34.010Z</time>
      </trkpt>
      <trkpt lat="48.8725" lon="2.29664">
        <ele>107.2</ele>
        <time>2015-01-19T19:54:35.928Z</time>
      </trkpt>
      <trkpt lat="48.87251" lon="2.2966">
        <ele>107.4</ele>
        <time>2015-01-19T19:54:36.931Z</time>
      </trkpt>
      <trkpt lat="48.87253" lon="2.29648">
        <ele>108.3</ele>
        <time>2015-01-19T19:54:39.899Z</time>
      </trkpt>
      <trkpt lat="48.87252" lon="2.29644">
        <ele>108.5</ele>
        <time>2015-01-19T19:54:41.012Z</time>
      </trkpt>
      <trkpt lat="48.87244" lon="2.29647">
        <ele>106.4</ele>
        <time>2015-01-19T19:54:49.921Z</time>
      </trkpt>
      <trkpt lat="48.87243" lon="2.2965">
        <ele>106.1</ele>
        <time>2015-01-19T19:54:50.010Z</time>
      </trkpt>
      <trkpt lat="48.87234" lon="2.2965">
        <ele>106.8</ele>
        <time>2015-01-19T19:54:56.007Z</time>
      </trkpt>
      <trkpt lat="48.87233" lon="2.29651">
        <ele>107</ele>
        <time>2015-01-19T19:54:57.019Z</time>
      </trkpt>
      <trkpt lat="48.87232" lon="2.29651">
        <ele>107.2</ele>
        <time>2015-01-19T19:54:57.955Z</time>
      </trkpt>
      <trkpt lat="48.87232" lon="2.29651">
        <ele>107.6</ele>
        <time>2015-01-19T19:54:58.967Z</time>
      </trkpt>
      <trkpt lat="48.87232" lon="2.29651">
        <ele>107.9</ele>
        <time>2015-01-19T19:55:01.987Z</time>
      </trkpt>
      <trkpt lat="48.8723" lon="2.29651">
        <ele>108.9</ele>
        <time>2015-01-19T19:55:03.011Z</time>
      </trkpt>
      <trkpt lat="48.87224" lon="2.29653">
        <ele>115.2</ele>
        <time>2015-01-19T19:55:20.992Z</time>
      </trkpt>
      <trkpt lat="48.87224" lon="2.29654">
        <ele>115.6</ele>
        <time>2015-01-19T19:55:22.008Z</time>
      </trkpt>
      <trkpt lat="48.87224" lon="2.29658">
        <ele>117</ele>
        <time>2015-01-19T19:56:11.049Z</time>
      </trkpt>
      <trkpt lat="48.87233" lon="2.29676">
        <ele>124</ele>
        <time>2015-01-19T19:56:11.972Z</time>
      </trkpt>
      <trkpt lat="48.87226" lon="2.29673">
        <ele>126.6</ele>
        <time>2015-01-19T19:56:15.980Z</time>
      </trkpt>
      <trkpt lat="48.87222" lon="2.29672">
        <ele>127.1</ele>
        <time>2015-01-19T19:56:17.001Z</time>
      </trkpt>
      <trkpt lat="48.87215" lon="2.29675">
        <ele>128.1</ele>
        <time>2015-01-19T19:56:20.955Z</time>
      </trkpt>
      <trkpt lat="48.87213" lon="2.29677">
        <ele>128.3</ele>
        <time>2015-01-19T19:56:21.952Z</time>
      </trkpt>
      <trkpt lat="48.87207" lon="2.29682">
        <ele>128.2</ele>
        <time>2015-01-19T19:56:25.628Z</time>
      </trkpt>
      <trkpt lat="48.87205" lon="2.29684">
        <ele>128</ele>
        <time>2015-01-19T19:56:25.951Z</time>
      </trkpt>
      <trkpt lat="48.87197" lon="2.2969">
        <ele>128.4</ele>
        <time>2015-01-19T19:56:29.728Z</time>
      </trkpt>
      <trkpt lat="48.87195" lon="2.29692">
        <ele>128.5</ele>
        <time>2015-01-19T19:56:29.922Z</time>
      </trkpt>
      <trkpt lat="48.87189" lon="2.297">
        <ele>128.4</ele>
        <time>2015-01-19T19:56:34.797Z</time>
      </trkpt>
      <trkpt lat="48.87187" lon="2.29702">
        <ele>128.5</ele>
        <time>2015-01-19T19:56:34.915Z</time>
      </trkpt>
      <trkpt lat="48.87181" lon="2.29705">
        <ele>128.4</ele>
        <time>2015-01-19T19:56:36.926Z</time>
      </trkpt>
      <trkpt lat="48.87175" lon="2.29707">
        <ele>128.1</ele>
        <time>2015-01-19T19:56:37.978Z</time>
      </trkpt>
      <trkpt lat="48.87168" lon="2.29711">
        <ele>127.7</ele>
        <time>2015-01-19T19:56:39.910Z</time>
      </trkpt>
      <trkpt lat="48.87164" lon="2.29713">
        <ele>127.5</ele>
        <time>2015-01-19T19:56:40.976Z</time>
      </trkpt>
      <trkpt lat="48.87159" lon="2.29719">
        <ele>127.2</ele>
        <time>2015-01-19T19:56:42.993Z</time>
      </trkpt>
      <trkpt lat="48.87156" lon="2.29722">
        <ele>127.1</ele>
        <time>2015-01-19T19:56:44.017Z</time>
      </trkpt>
      <trkpt lat="48.87151" lon="2.29729">
        <ele>127</ele>
        <time>2015-01-19T19:56:46.110Z</time>
      </trkpt>
      <trkpt lat="48.87148" lon="2.29732">
        <ele>127</ele>
        <time>2015-01-19T19:56:46.945Z</time>
      </trkpt>
      <trkpt lat="48.87142" lon="2.29739">
        <ele>126.7</ele>
        <time>2015-01-19T19:56:48.952Z</time>
      </trkpt>
      <trkpt lat="48.8714" lon="2.29741">
        <ele>127</ele>
        <time>2015-01-19T19:56:49.994Z</time>
      </trkpt>
      <trkpt lat="48.87133" lon="2.29749">
        <ele>126.9</ele>
        <time>2015-01-19T19:56:52.943Z</time>
      </trkpt>
      <trkpt lat="48.8713" lon="2.29752">
        <ele>126.8</ele>
        <time>2015-01-19T19:56:54.053Z</time>
      </trkpt>
      <trkpt lat="48.87124" lon="2.2976">
        <ele>126.9</ele>
        <time>2015-01-19T19:56:56.979Z</time>
      </trkpt>
      <trkpt lat="48.87122" lon="2.29762">
        <ele>126.9</ele>
        <time>2015-01-19T19:56:58.001Z</time>
      </trkpt>
      <trkpt lat="48.87115" lon="2.29768">
        <ele>126.8</ele>
        <time>2015-01-19T19:57:01.023Z</time>
      </trkpt>
      <trkpt lat="48.87112" lon="2.29768">
        <ele>127.3</ele>
        <time>2015-01-19T19:57:02.026Z</time>
      </trkpt>
      <trkpt lat="48.8711" lon="2.29755">
        <ele>130</ele>
        <time>2015-01-19T19:57:09.057Z</time>
      </trkpt>
      <trkpt lat="48.87111" lon="2.2975">
        <ele>129.7</ele>
        <time>2015-01-19T19:57:09.931Z</time>
      </trkpt>
      <trkpt lat="48.8711" lon="2.2974">
        <ele>129</ele>
        <time>2015-01-19T19:57:11.946Z</time>
      </trkpt>
      <trkpt lat="48.87109" lon="2.29733">
        <ele>128.6</ele>
        <time>2015-01-19T19:57:12.963Z</time>
      </trkpt>
      <trkpt lat="48.87108" lon="2.29725">
        <ele>126.2</ele>
        <time>2015-01-19T19:57:14.020Z</time>
      </trkpt>
      <trkpt lat="48.87107" lon="2.29717">
        <ele>123.8</ele>
        <time>2015-01-19T19:57:14.913Z</time>
      </trkpt>
      <trkpt lat="48.87105" lon="2.2971">
        <ele>121.8</ele>
        <time>2015-01-19T19:57:15.931Z</time>
      </trkpt>
      <trkpt lat="48.87103" lon="2.29704">
        <ele>120.2</ele>
        <time>2015-01-19T19:57:16.962Z</time>
      </trkpt>
      <trkpt lat="48.871" lon="2.29698">
        <ele>118.8</ele>
        <time>2015-01-19T19:57:17.986Z</time>
      </trkpt>
      <trkpt lat="48.87098" lon="2.29691">
        <ele>117.4</ele>
        <time>2015-01-19T19:57:18.991Z</time>
      </trkpt>
      <trkpt lat="48.87095" lon="2.29679">
        <ele>116.1</ele>
        <time>2015-01-19T19:57:21.008Z</time>
      </trkpt>
      <trkpt lat="48.87091" lon="2.2967">
        <ele>115.5</ele>
        <time>2015-01-19T19:57:22.029Z</time>
      </trkpt>
      <trkpt lat="48.87088" lon="2.29662">
        <ele>115.2</ele>
        <time>2015-01-19T19:57:22.936Z</time>
      </trkpt>
      <trkpt lat="48.87085" lon="2.29655">
        <ele>114.8</ele>
        <time>2015-01-19T19:57:23.953Z</time>
      </trkpt>
      <trkpt lat="48.87082" lon="2.29647">
        <ele>114.5</ele>
        <time>2015-01-19T19:57:25.652Z</time>
      </trkpt>
      <trkpt lat="48.8708" lon="2.29641">
        <ele>114.3</ele>
        <time>2015-01-19T19:57:25.969Z</time>
      </trkpt>
      <trkpt lat="48.87078" lon="2.29634">
        <ele>114.2</ele>
        <time>2015-01-19T19:57:26.980Z</time>
      </trkpt>
      <trkpt lat="48.87077" lon="2.29627">
        <ele>113.7</ele>
        <time>2015-01-19T19:57:27.991Z</time>
      </trkpt>
      <trkpt lat="48.87073" lon="2.29617">
        <ele>113</ele>
        <time>2015-01-19T19:57:30.005Z</time>
      </trkpt>
      <trkpt lat="48.8707" lon="2.29613">
        <ele>112.7</ele>
        <time>2015-01-19T19:57:31.020Z</time>
      </trkpt>
      <trkpt lat="48.87066" lon="2.29605">
        <ele>112.2</ele>
        <time>2015-01-19T19:57:32.984Z</time>
      </trkpt>
      <trkpt lat="48.87064" lon="2.296">
        <ele>112</ele>
        <time>2015-01-19T19:57:33.992Z</time>
      </trkpt>
      <trkpt lat="48.8706" lon="2.2959">
        <ele>111.4</ele>
        <time>2015-01-19T19:57:36.040Z</time>
      </trkpt>
      <trkpt lat="48.87058" lon="2.29584">
        <ele>111.2</ele>
        <time>2015-01-19T19:57:36.947Z</time>
      </trkpt>
      <trkpt lat="48.87054" lon="2.29574">
        <ele>110.7</ele>
        <time>2015-01-19T19:57:38.980Z</time>
      </trkpt>
      <trkpt lat="48.87052" lon="2.29569">
        <ele>110.3</ele>
        <time>2015-01-19T19:57:39.988Z</time>
      </trkpt>
      <trkpt lat="48.87049" lon="2.29558">
        <ele>109.8</ele>
        <time>2015-01-19T19:57:41.929Z</time>
      </trkpt>
      <trkpt lat="48.87046" lon="2.29554">
        <ele>109.6</ele>
        <time>2015-01-19T19:57:42.904Z</time>
      </trkpt>
      <trkpt lat="48.87041" lon="2.29547">
        <ele>109.4</ele>
        <time>2015-01-19T19:57:44.988Z</time>
      </trkpt>
      <trkpt lat="48.87039" lon="2.29544">
        <ele>109.3</ele>
        <time>2015-01-19T19:57:45.998Z</time>
      </trkpt>
      <trkpt lat="48.87033" lon="2.29537">
        <ele>109.4</ele>
        <time>2015-01-19T19:57:48.016Z</time>
      </trkpt>
      <trkpt lat="48.8703" lon="2.29534">
        <ele>109.5</ele>
        <time>2015-01-19T19:57:49.026Z</time>
      </trkpt>
      <trkpt lat="48.87026" lon="2.29528">
        <ele>109.3</ele>
        <time>2015-01-19T19:57:50.916Z</time>
      </trkpt>
      <trkpt lat="48.87024" lon="2.29524">
        <ele>109.1</ele>
        <time>2015-01-19T19:57:51.949Z</time>
      </trkpt>
      <trkpt lat="48.8702" lon="2.29517">
        <ele>109.4</ele>
        <time>2015-01-19T19:57:54.862Z</time>
      </trkpt>
      <trkpt lat="48.87018" lon="2.29514">
        <ele>109.2</ele>
        <time>2015-01-19T19:57:54.970Z</time>
      </trkpt>
      <trkpt lat="48.87013" lon="2.29508">
        <ele>108.7</ele>
        <time>2015-01-19T19:57:56.985Z</time>
      </trkpt>
      <trkpt lat="48.8701" lon="2.29504">
        <ele>108.6</ele>
        <time>2015-01-19T19:57:57.991Z</time>
      </trkpt>
      <trkpt lat="48.87005" lon="2.29498">
        <ele>108.5</ele>
        <time>2015-01-19T19:58:00.020Z</time>
      </trkpt>
      <trkpt lat="48.87003" lon="2.29493">
        <ele>108.5</ele>
        <time>2015-01-19T19:58:00.932Z</time>
      </trkpt>
      <trkpt lat="48.87" lon="2.29484">
        <ele>108.4</ele>
        <time>2015-01-19T19:58:03.001Z</time>
      </trkpt>
      <trkpt lat="48.86997" lon="2.2948">
        <ele>108.4</ele>
        <time>2015-01-19T19:58:04.003Z</time>
      </trkpt>
      <trkpt lat="48.86994" lon="2.29472">
        <ele>108.4</ele>
        <time>2015-01-19T19:58:05.918Z</time>
      </trkpt>
      <trkpt lat="48.8699" lon="2.29466">
        <ele>109</ele>
        <time>2015-01-19T19:58:06.948Z</time>
      </trkpt>
      <trkpt lat="48.86987" lon="2.29459">
        <ele>109.3</ele>
        <time>2015-01-19T19:58:08.001Z</time>
      </trkpt>
      <trkpt lat="48.86984" lon="2.29452">
        <ele>109.8</ele>
        <time>2015-01-19T19:58:08.906Z</time>
      </trkpt>
      <trkpt lat="48.86981" lon="2.29445">
        <ele>110.4</ele>
        <time>2015-01-19T19:58:10.011Z</time>
      </trkpt>
      <trkpt lat="48.86978" lon="2.29436">
        <ele>111.2</ele>
        <time>2015-01-19T19:58:10.968Z</time>
      </trkpt>
      <trkpt lat="48.86977" lon="2.29427">
        <ele>111.6</ele>
        <time>2015-01-19T19:58:12.029Z</time>
      </trkpt>
      <trkpt lat="48.86977" lon="2.29419">
        <ele>111.6</ele>
        <time>2015-01-19T19:58:12.920Z</time>
      </trkpt>
      <trkpt lat="48.86973" lon="2.29408">
        <ele>111.8</ele>
        <time>2015-01-19T19:58:15.108Z</time>
      </trkpt>
      <trkpt lat="48.86971" lon="2.29404">
        <ele>111.8</ele>
        <time>2015-01-19T19:58:15.928Z</time>
      </trkpt>
      <trkpt lat="48.86967" lon="2.29397">
        <ele>112</ele>
        <time>2015-01-19T19:58:17.948Z</time>
      </trkpt>
      <trkpt lat="48.86965" lon="2.29393">
        <ele>112.1</ele>
        <time>2015-01-19T19:58:18.956Z</time>
      </trkpt>
      <trkpt lat="48.86963" lon="2.29382">
        <ele>112.4</ele>
        <time>2015-01-19T19:58:20.985Z</time>
      </trkpt>
      <trkpt lat="48.86961" lon="2.29377">
        <ele>112.5</ele>
        <time>2015-01-19T19:58:21.886Z</time>
      </trkpt>
      <trkpt lat="48.86959" lon="2.29367">
        <ele>112.8</ele>
        <time>2015-01-19T19:58:23.960Z</time>
      </trkpt>
      <trkpt lat="48.86958" lon="2.29363">
        <ele>112.8</ele>
        <time>2015-01-19T19:58:24.952Z</time>
      </trkpt>
      <trkpt lat="48.86955" lon="2.29352">
        <ele>113.3</ele>
        <time>2015-01-19T19:58:27.973Z</time>
      </trkpt>
      <trkpt lat="48.86952" lon="2.29349">
        <ele>113.5</ele>
        <time>2015-01-19T19:58:28.982Z</time>
      </trkpt>
      <trkpt lat="48.86944" lon="2.29345">
        <ele>113.8</ele>
        <time>2015-01-19T19:58:30.897Z</time>
      </trkpt>
      <trkpt lat="48.86941" lon="2.29342">
        <ele>114</ele>
        <time>2015-01-19T19:58:31.945Z</time>
      </trkpt>
      <trkpt lat="48.86937" lon="2.29334">
        <ele>114.3</ele>
        <time>2015-01-19T19:58:33.983Z</time>
      </trkpt>
      <trkpt lat="48.86935" lon="2.29328">
        <ele>114.4</ele>
        <time>2015-01-19T19:58:34.988Z</time>
      </trkpt>
      <trkpt lat="48.8693" lon="2.29319">
        <ele>114.7</ele>
        <time>2015-01-19T19:58:36.923Z</time>
      </trkpt>
      <trkpt lat="48.86927" lon="2.29315">
        <ele>114.8</ele>
        <time>2015-01-19T19:58:37.925Z</time>
      </trkpt>
      <trkpt lat="48.86924" lon="2.2931">
        <ele>114.9</ele>
        <time>2015-01-19T19:58:39.812Z</time>
      </trkpt>
      <trkpt lat="48.86921" lon="2.29304">
        <ele>114.9</ele>
        <time>2015-01-19T19:58:39.896Z</time>
      </trkpt>
      <trkpt lat="48.86916" lon="2.29296">
        <ele>115</ele>
        <time>2015-01-19T19:58:41.926Z</time>
      </trkpt>
      <trkpt lat="48.86909" lon="2.2929">
        <ele>115.2</ele>
        <time>2015-01-19T19:58:43.960Z</time>
      </trkpt>
      <trkpt lat="48.86902" lon="2.29284">
        <ele>115.3</ele>
        <time>2015-01-19T19:58:45.996Z</time>
      </trkpt>
      <trkpt lat="48.86898" lon="2.29283">
        <ele>115.3</ele>
        <time>2015-01-19T19:58:47.015Z</time>
      </trkpt>
      <trkpt lat="48.86894" lon="2.29282">
        <ele>115.3</ele>
        <time>2015-01-19T19:58:47.930Z</time>
      </trkpt>
      <trkpt lat="48.86881" lon="2.29293">
        <ele>114.9</ele>
        <time>2015-01-19T19:58:48.919Z</time>
      </trkpt>
      <trkpt lat="48.86876" lon="2.29295">
        <ele>114.9</ele>
        <time>2015-01-19T19:58:50.056Z</time>
      </trkpt>
      <trkpt lat="48.86871" lon="2.29293">
        <ele>114.9</ele>
        <time>2015-01-19T19:58:50.974Z</time>
      </trkpt>
      <trkpt lat="48.86864" lon="2.29291">
        <ele>115</ele>
        <time>2015-01-19T19:58:52.988Z</time>
      </trkpt>
      <trkpt lat="48.8686" lon="2.29289">
        <ele>115.1</ele>
        <time>2015-01-19T19:58:54.002Z</time>
      </trkpt>
      <trkpt lat="48.86853" lon="2.29286">
        <ele>115.3</ele>
        <time>2015-01-19T19:58:55.968Z</time>
      </trkpt>
      <trkpt lat="48.86847" lon="2.2928">
        <ele>116.3</ele>
        <time>2015-01-19T19:58:57.039Z</time>
      </trkpt>
      <trkpt lat="48.86842" lon="2.29275">
        <ele>117</ele>
        <time>2015-01-19T19:58:57.926Z</time>
      </trkpt>
      <trkpt lat="48.86837" lon="2.29272">
        <ele>117.4</ele>
        <time>2015-01-19T19:58:58.927Z</time>
      </trkpt>
      <trkpt lat="48.86831" lon="2.29265">
        <ele>116.9</ele>
        <time>2015-01-19T19:59:00.934Z</time>
      </trkpt>
      <trkpt lat="48.86828" lon="2.29261">
        <ele>116.3</ele>
        <time>2015-01-19T19:59:01.996Z</time>
      </trkpt>
      <trkpt lat="48.86824" lon="2.29255">
        <ele>115.3</ele>
        <time>2015-01-19T19:59:04.007Z</time>
      </trkpt>
      <trkpt lat="48.86822" lon="2.2925">
        <ele>114.5</ele>
        <time>2015-01-19T19:59:05.071Z</time>
      </trkpt>
      <trkpt lat="48.86818" lon="2.29241">
        <ele>114.1</ele>
        <time>2015-01-19T19:59:06.926Z</time>
      </trkpt>
      <trkpt lat="48.86816" lon="2.29236">
        <ele>113.8</ele>
        <time>2015-01-19T19:59:07.987Z</time>
      </trkpt>
      <trkpt lat="48.86813" lon="2.29225">
        <ele>113.8</ele>
        <time>2015-01-19T19:59:09.924Z</time>
      </trkpt>
      <trkpt lat="48.86812" lon="2.29219">
        <ele>113.7</ele>
        <time>2015-01-19T19:59:10.947Z</time>
      </trkpt>
      <trkpt lat="48.86809" lon="2.29209">
        <ele>113</ele>
        <time>2015-01-19T19:59:12.918Z</time>
      </trkpt>
      <trkpt lat="48.86808" lon="2.29204">
        <ele>112.9</ele>
        <time>2015-01-19T19:59:14.019Z</time>
      </trkpt>
      <trkpt lat="48.86804" lon="2.29193">
        <ele>112.7</ele>
        <time>2015-01-19T19:59:16.948Z</time>
      </trkpt>
      <trkpt lat="48.86801" lon="2.2919">
        <ele>112.5</ele>
        <time>2015-01-19T19:59:17.913Z</time>
      </trkpt>
      <trkpt lat="48.86793" lon="2.29189">
        <ele>112.3</ele>
        <time>2015-01-19T19:59:19.954Z</time>
      </trkpt>
      <trkpt lat="48.86791" lon="2.29188">
        <ele>112.1</ele>
        <time>2015-01-19T19:59:20.964Z</time>
      </trkpt>
      <trkpt lat="48.86787" lon="2.29188">
        <ele>112</ele>
        <time>2015-01-19T19:59:22.625Z</time>
      </trkpt>
      <trkpt lat="48.86649" lon="2.29238">
        <ele>112</ele>
        <time>2015-01-19T19:59:54.931Z</time>
      </trkpt>
      <trkpt lat="48.86645" lon="2.29244">
        <ele>113.5</ele>
        <time>2015-01-19T19:59:55.940Z</time>
      </trkpt>
      <trkpt lat="48.8664" lon="2.29249">
        <ele>114.4</ele>
        <time>2015-01-19T19:59:56.950Z</time>
      </trkpt>
      <trkpt lat="48.86632" lon="2.29253">
        <ele>113.4</ele>
        <time>2015-01-19T19:59:58.891Z</time>
      </trkpt>
      <trkpt lat="48.86628" lon="2.29255">
        <ele>113.7</ele>
        <time>2015-01-19T19:59:59.906Z</time>
      </trkpt>
      <trkpt lat="48.86622" lon="2.29261">
        <ele>114.8</ele>
        <time>2015-01-19T20:00:01.931Z</time>
      </trkpt>
      <trkpt lat="48.86618" lon="2.29264">
        <ele>115.7</ele>
        <time>2015-01-19T20:00:02.947Z</time>
      </trkpt>
      <trkpt lat="48.86611" lon="2.29268">
        <ele>116.6</ele>
        <time>2015-01-19T20:00:04.874Z</time>
      </trkpt>
      <trkpt lat="48.86607" lon="2.29269">
        <ele>116.7</ele>
        <time>2015-01-19T20:00:06.015Z</time>
      </trkpt>
      <trkpt lat="48.86599" lon="2.29272">
        <ele>116.9</ele>
        <time>2015-01-19T20:00:07.908Z</time>
      </trkpt>
      <trkpt lat="48.86596" lon="2.29273">
        <ele>117</ele>
        <time>2015-01-19T20:00:08.921Z</time>
      </trkpt>
      <trkpt lat="48.86588" lon="2.29274">
        <ele>117.6</ele>
        <time>2015-01-19T20:00:10.953Z</time>
      </trkpt>
      <trkpt lat="48.86584" lon="2.29274">
        <ele>116.9</ele>
        <time>2015-01-19T20:00:11.961Z</time>
      </trkpt>
      <trkpt lat="48.86576" lon="2.29272">
        <ele>117</ele>
        <time>2015-01-19T20:00:14.956Z</time>
      </trkpt>
      <trkpt lat="48.86574" lon="2.29271">
        <ele>117.2</ele>
        <time>2015-01-19T20:00:15.974Z</time>
      </trkpt>
      <trkpt lat="48.86567" lon="2.29268">
        <ele>115.2</ele>
        <time>2015-01-19T20:00:20.095Z</time>
      </trkpt>
      <trkpt lat="48.86565" lon="2.29268">
        <ele>114.9</ele>
        <time>2015-01-19T20:00:20.913Z</time>
      </trkpt>
      <trkpt lat="48.86559" lon="2.29261">
        <ele>114.3</ele>
        <time>2015-01-19T20:00:24.973Z</time>
      </trkpt>
      <trkpt lat="48.86556" lon="2.29258">
        <ele>114.6</ele>
        <time>2015-01-19T20:00:25.980Z</time>
      </trkpt>
      <trkpt lat="48.86552" lon="2.2925">
        <ele>114.3</ele>
        <time>2015-01-19T20:00:27.996Z</time>
      </trkpt>
      <trkpt lat="48.86549" lon="2.29247">
        <ele>113.9</ele>
        <time>2015-01-19T20:00:29.001Z</time>
      </trkpt>
      <trkpt lat="48.86543" lon="2.29238">
        <ele>113.2</ele>
        <time>2015-01-19T20:00:30.933Z</time>
      </trkpt>
      <trkpt lat="48.8654" lon="2.29233">
        <ele>112.9</ele>
        <time>2015-01-19T20:00:31.956Z</time>
      </trkpt>
      <trkpt lat="48.86534" lon="2.29224">
        <ele>111.8</ele>
        <time>2015-01-19T20:00:33.993Z</time>
      </trkpt>
      <trkpt lat="48.86532" lon="2.29219">
        <ele>111.7</ele>
        <time>2015-01-19T20:00:34.912Z</time>
      </trkpt>
      <trkpt lat="48.86526" lon="2.29211">
        <ele>111.6</ele>
        <time>2015-01-19T20:00:36.908Z</time>
      </trkpt>
      <trkpt lat="48.86523" lon="2.29207">
        <ele>111.5</ele>
        <time>2015-01-19T20:00:37.972Z</time>
      </trkpt>
      <trkpt lat="48.86518" lon="2.29199">
        <ele>111.6</ele>
        <time>2015-01-19T20:00:39.912Z</time>
      </trkpt>
      <trkpt lat="48.86516" lon="2.29195">
        <ele>111.8</ele>
        <time>2015-01-19T20:00:40.905Z</time>
      </trkpt>
      <trkpt lat="48.8651" lon="2.29185">
        <ele>112.1</ele>
        <time>2015-01-19T20:00:43.940Z</time>
      </trkpt>
      <trkpt lat="48.86508" lon="2.29182">
        <ele>112.1</ele>
        <time>2015-01-19T20:00:44.955Z</time>
      </trkpt>
      <trkpt lat="48.865" lon="2.29177">
        <ele>113.2</ele>
        <time>2015-01-19T20:00:47.951Z</time>
      </trkpt>
      <trkpt lat="48.86499" lon="2.29176">
        <ele>113.5</ele>
        <time>2015-01-19T20:00:48.997Z</time>
      </trkpt>
      <trkpt lat="48.86493" lon="2.29169">
        <ele>113.3</ele>
        <time>2015-01-19T20:00:52.956Z</time>
      </trkpt>
      <trkpt lat="48.86491" lon="2.29167">
        <ele>113.5</ele>
        <time>2015-01-19T20:00:53.972Z</time>
      </trkpt>
      <trkpt lat="48.86485" lon="2.29158">
        <ele>113.9</ele>
        <time>2015-01-19T20:00:56.951Z</time>
      </trkpt>
      <trkpt lat="48.86483" lon="2.29154">
        <ele>114.1</ele>
        <time>2015-01-19T20:00:57.934Z</time>
      </trkpt>
      <trkpt lat="48.86477" lon="2.29146">
        <ele>114.1</ele>
        <time>2015-01-19T20:01:00.686Z</time>
      </trkpt>
      <trkpt lat="48.86474" lon="2.29141">
        <ele>114</ele>
        <time>2015-01-19T20:01:00.953Z</time>
      </trkpt>
      <trkpt lat="48.86467" lon="2.29133">
        <ele>113.8</ele>
        <time>2015-01-19T20:01:02.974Z</time>
      </trkpt>
      <trkpt lat="48.86464" lon="2.29129">
        <ele>113.8</ele>
        <time>2015-01-19T20:01:03.889Z</time>
      </trkpt>
      <trkpt lat="48.86461" lon="2.29124">
        <ele>113.8</ele>
        <time>2015-01-19T20:01:05.812Z</time>
      </trkpt>
      <trkpt lat="48.86451" lon="2.29111">
        <ele>113.3</ele>
        <time>2015-01-19T20:01:07.950Z</time>
      </trkpt>
      <trkpt lat="48.86445" lon="2.29102">
        <ele>113.1</ele>
        <time>2015-01-19T20:01:10.888Z</time>
      </trkpt>
      <trkpt lat="48.86441" lon="2.29098">
        <ele>113.2</ele>
        <time>2015-01-19T20:01:11.021Z</time>
      </trkpt>
      <trkpt lat="48.86435" lon="2.29088">
        <ele>113.6</ele>
        <time>2015-01-19T20:01:12.918Z</time>
      </trkpt>
      <trkpt lat="48.86432" lon="2.29084">
        <ele>113.8</ele>
        <time>2015-01-19T20:01:13.979Z</time>
      </trkpt>
      <trkpt lat="48.86426" lon="2.29077">
        <ele>113.9</ele>
        <time>2015-01-19T20:01:15.962Z</time>
      </trkpt>
      <trkpt lat="48.86423" lon="2.29073">
        <ele>113.7</ele>
        <time>2015-01-19T20:01:16.941Z</time>
      </trkpt>
      <trkpt lat="48.86417" lon="2.29063">
        <ele>113.6</ele>
        <time>2015-01-19T20:01:21.046Z</time>
      </trkpt>
      <trkpt lat="48.86415" lon="2.2906">
        <ele>113.5</ele>
        <time>2015-01-19T20:01:21.089Z</time>
      </trkpt>
      <trkpt lat="48.8641" lon="2.29051">
        <ele>113.2</ele>
        <time>2015-01-19T20:01:23.951Z</time>
      </trkpt>
      <trkpt lat="48.86408" lon="2.29048">
        <ele>113.2</ele>
        <time>2015-01-19T20:01:24.967Z</time>
      </trkpt>
      <trkpt lat="48.86408" lon="2.29042">
        <ele>113.3</ele>
        <time>2015-01-19T20:01:27.940Z</time>
      </trkpt>
      <trkpt lat="48.86412" lon="2.29035">
        <ele>113.4</ele>
        <time>2015-01-19T20:01:30.892Z</time>
      </trkpt>
      <trkpt lat="48.86418" lon="2.2902">
        <ele>113.5</ele>
        <time>2015-01-19T20:01:38.020Z</time>
      </trkpt>
      <trkpt lat="48.86421" lon="2.2901">
        <ele>113.1</ele>
        <time>2015-01-19T20:01:41.014Z</time>
      </trkpt>
      <trkpt lat="48.86422" lon="2.29007">
        <ele>113</ele>
        <time>2015-01-19T20:01:41.882Z</time>
      </trkpt>
      <trkpt lat="48.86424" lon="2.28995">
        <ele>112.4</ele>
        <time>2015-01-19T20:01:45.160Z</time>
      </trkpt>
      <trkpt lat="48.86427" lon="2.28988">
        <ele>111.8</ele>
        <time>2015-01-19T20:01:45.947Z</time>
      </trkpt>
      <trkpt lat="48.86432" lon="2.28975">
        <ele>109.6</ele>
        <time>2015-01-19T20:01:46.947Z</time>
      </trkpt>
      <trkpt lat="48.86435" lon="2.28964">
        <ele>107.9</ele>
        <time>2015-01-19T20:01:47.887Z</time>
      </trkpt>
      <trkpt lat="48.86436" lon="2.28957">
        <ele>107.3</ele>
        <time>2015-01-19T20:01:48.900Z</time>
      </trkpt>
      <trkpt lat="48.86439" lon="2.28946">
        <ele>106.8</ele>
        <time>2015-01-19T20:01:50.949Z</time>
      </trkpt>
      <trkpt lat="48.86441" lon="2.28941">
        <ele>106.5</ele>
        <time>2015-01-19T20:01:51.968Z</time>
      </trkpt>
      <trkpt lat="48.86445" lon="2.28933">
        <ele>106</ele>
        <time>2015-01-19T20:01:53.913Z</time>
      </trkpt>
      <trkpt lat="48.86448" lon="2.28924">
        <ele>105</ele>
        <time>2015-01-19T20:01:54.932Z</time>
      </trkpt>
      <trkpt lat="48.86449" lon="2.28916">
        <ele>103.9</ele>
        <time>2015-01-19T20:01:55.978Z</time>
      </trkpt>
      <trkpt lat="48.8645" lon="2.2891">
        <ele>103.5</ele>
        <time>2015-01-19T20:01:56.983Z</time>
      </trkpt>
      <trkpt lat="48.86454" lon="2.28901">
        <ele>103.5</ele>
        <time>2015-01-19T20:01:58.869Z</time>
      </trkpt>
      <trkpt lat="48.86459" lon="2.28899">
        <ele>103.3</ele>
        <time>2015-01-19T20:01:59.907Z</time>
      </trkpt>
      <trkpt lat="48.86466" lon="2.28894">
        <ele>104.4</ele>
        <time>2015-01-19T20:02:02.970Z</time>
      </trkpt>
      <trkpt lat="48.86468" lon="2.28894">
        <ele>104.8</ele>
        <time>2015-01-19T20:02:03.976Z</time>
      </trkpt>
      <trkpt lat="48.86476" lon="2.28895">
        <ele>107.3</ele>
        <time>2015-01-19T20:02:10.625Z</time>
      </trkpt>
      <trkpt lat="48.86477" lon="2.28896">
        <ele>107.6</ele>
        <time>2015-01-19T20:02:10.970Z</time>
      </trkpt>
      <trkpt lat="48.86482" lon="2.28889">
        <ele>112.5</ele>
        <time>2015-01-19T20:02:19.004Z</time>
      </trkpt>
      <trkpt lat="48.86487" lon="2.28885">
        <ele>115.3</ele>
        <time>2015-01-19T20:02:20.005Z</time>
      </trkpt>
      <trkpt lat="48.86486" lon="2.28885">
        <ele>115.7</ele>
        <time>2015-01-19T20:02:22.011Z</time>
      </trkpt>
      <trkpt lat="48.86487" lon="2.28885">
        <ele>115.8</ele>
        <time>2015-01-19T20:02:22.935Z</time>
      </trkpt>
      <trkpt lat="48.86487" lon="2.28885">
        <ele>115.9</ele>
        <time>2015-01-19T20:02:26.930Z</time>
      </trkpt>
      <trkpt lat="48.86488" lon="2.28879">
        <ele>117.6</ele>
        <time>2015-01-19T20:02:27.961Z</time>
      </trkpt>
      <trkpt lat="48.86491" lon="2.28869">
        <ele>120.3</ele>
        <time>2015-01-19T20:02:34.757Z</time>
      </trkpt>
      <trkpt lat="48.86492" lon="2.28866">
        <ele>120.8</ele>
        <time>2015-01-19T20:02:34.950Z</time>
      </trkpt>
      <trkpt lat="48.86494" lon="2.28855">
        <ele>121.5</ele>
        <time>2015-01-19T20:02:39.807Z</time>
      </trkpt>
      <trkpt lat="48.86495" lon="2.28852">
        <ele>121.8</ele>
        <time>2015-01-19T20:02:39.922Z</time>
      </trkpt>
      <trkpt lat="48.86497" lon="2.2884">
        <ele>122.1</ele>
        <time>2015-01-19T20:02:44.944Z</time>
      </trkpt>
      <trkpt lat="48.86498" lon="2.28838">
        <ele>122.2</ele>
        <time>2015-01-19T20:02:45.966Z</time>
      </trkpt>
      <trkpt lat="48.86501" lon="2.28828">
        <ele>122.3</ele>
        <time>2015-01-19T20:02:50.013Z</time>
      </trkpt>
      <trkpt lat="48.86503" lon="2.28824">
        <ele>122.2</ele>
        <time>2015-01-19T20:02:50.087Z</time>
      </trkpt>
      <trkpt lat="48.86504" lon="2.28814">
        <ele>122.2</ele>
        <time>2015-01-19T20:02:51.965Z</time>
      </trkpt>
      <trkpt lat="48.86504" lon="2.28809">
        <ele>122.3</ele>
        <time>2015-01-19T20:02:52.955Z</time>
      </trkpt>
      <trkpt lat="48.86502" lon="2.28799">
        <ele>122.2</ele>
        <time>2015-01-19T20:02:55.302Z</time>
      </trkpt>
      <trkpt lat="48.86503" lon="2.28793">
        <ele>122.1</ele>
        <time>2015-01-19T20:02:55.921Z</time>
      </trkpt>
      <trkpt lat="48.86507" lon="2.28765">
        <ele>121.1</ele>
        <time>2015-01-19T20:03:00.900Z</time>
      </trkpt>
      <trkpt lat="48.86507" lon="2.28752">
        <ele>120.8</ele>
        <time>2015-01-19T20:03:02.955Z</time>
      </trkpt>
      <trkpt lat="48.86508" lon="2.28746">
        <ele>120.7</ele>
        <time>2015-01-19T20:03:03.956Z</time>
      </trkpt>
      <trkpt lat="48.86508" lon="2.28739">
        <ele>120.8</ele>
        <time>2015-01-19T20:03:05.317Z</time>
      </trkpt>
      <trkpt lat="48.86508" lon="2.28732">
        <ele>120.9</ele>
        <time>2015-01-19T20:03:06.011Z</time>
      </trkpt>
      <trkpt lat="48.86506" lon="2.2872">
        <ele>121</ele>
        <time>2015-01-19T20:03:07.922Z</time>
      </trkpt>
      <trkpt lat="48.86505" lon="2.28714">
        <ele>121.1</ele>
        <time>2015-01-19T20:03:08.921Z</time>
      </trkpt>
      <trkpt lat="48.86507" lon="2.28703">
        <ele>121.9</ele>
        <time>2015-01-19T20:03:12.023Z</time>
      </trkpt>
      <trkpt lat="48.86507" lon="2.28699">
        <ele>122</ele>
        <time>2015-01-19T20:03:12.867Z</time>
      </trkpt>
      <trkpt lat="48.86505" lon="2.28694">
        <ele>122.2</ele>
        <time>2015-01-19T20:03:15.693Z</time>
      </trkpt>
      <trkpt lat="48.86505" lon="2.28691">
        <ele>122.5</ele>
        <time>2015-01-19T20:03:15.944Z</time>
      </trkpt>
      <trkpt lat="48.86505" lon="2.2869">
        <ele>122.8</ele>
        <time>2015-01-19T20:03:17.895Z</time>
      </trkpt>
      <trkpt lat="48.86505" lon="2.28685">
        <ele>123.3</ele>
        <time>2015-01-19T20:03:19.033Z</time>
      </trkpt>
      <trkpt lat="48.86504" lon="2.28681">
        <ele>123.8</ele>
        <time>2015-01-19T20:03:20.916Z</time>
      </trkpt>
      <trkpt lat="48.86504" lon="2.28679">
        <ele>123.8</ele>
        <time>2015-01-19T20:03:21.925Z</time>
      </trkpt>
      <trkpt lat="48.86504" lon="2.28679">
        <ele>123.9</ele>
        <time>2015-01-19T20:03:23.951Z</time>
      </trkpt>
      <trkpt lat="48.86504" lon="2.28679">
        <ele>124</ele>
        <time>2015-01-19T20:03:24.960Z</time>
      </trkpt>
      <trkpt lat="48.86509" lon="2.2867">
        <ele>123.6</ele>
        <time>2015-01-19T20:03:32.966Z</time>
      </trkpt>
      <trkpt lat="48.86511" lon="2.28668">
        <ele>123.2</ele>
        <time>2015-01-19T20:03:33.977Z</time>
      </trkpt>
      <trkpt lat="48.86516" lon="2.28661">
        <ele>121.4</ele>
        <time>2015-01-19T20:03:36.900Z</time>
      </trkpt>
      <trkpt lat="48.86518" lon="2.28655">
        <ele>119.2</ele>
        <time>2015-01-19T20:03:37.987Z</time>
      </trkpt>
      <trkpt lat="48.8652" lon="2.28648">
        <ele>117.5</ele>
        <time>2015-01-19T20:03:38.963Z</time>
      </trkpt>
      <trkpt lat="48.86522" lon="2.28642">
        <ele>116.5</ele>
        <time>2015-01-19T20:03:39.869Z</time>
      </trkpt>
      <trkpt lat="48.86525" lon="2.28633">
        <ele>115.4</ele>
        <time>2015-01-19T20:03:41.898Z</time>
      </trkpt>
      <trkpt lat="48.86527" lon="2.28629">
        <ele>115.2</ele>
        <time>2015-01-19T20:03:42.893Z</time>
      </trkpt>
      <trkpt lat="48.8653" lon="2.28621">
        <ele>114.9</ele>
        <time>2015-01-19T20:03:45.187Z</time>
      </trkpt>
      <trkpt lat="48.86532" lon="2.28616">
        <ele>114.5</ele>
        <time>2015-01-19T20:03:45.954Z</time>
      </trkpt>
      <trkpt lat="48.86536" lon="2.28609">
        <ele>114.2</ele>
        <time>2015-01-19T20:03:47.988Z</time>
      </trkpt>
      <trkpt lat="48.86538" lon="2.28604">
        <ele>114</ele>
        <time>2015-01-19T20:03:48.870Z</time>
      </trkpt>
      <trkpt lat="48.8654" lon="2.28595">
        <ele>114</ele>
        <time>2015-01-19T20:03:50.978Z</time>
      </trkpt>
      <trkpt lat="48.86539" lon="2.28588">
        <ele>114.9</ele>
        <time>2015-01-19T20:03:51.996Z</time>
      </trkpt>
      <trkpt lat="48.86536" lon="2.28578">
        <ele>115.9</ele>
        <time>2015-01-19T20:03:53.906Z</time>
      </trkpt>
      <trkpt lat="48.86535" lon="2.28573">
        <ele>116.6</ele>
        <time>2015-01-19T20:03:54.902Z</time>
      </trkpt>
      <trkpt lat="48.8653" lon="2.28563">
        <ele>118.4</ele>
        <time>2015-01-19T20:03:56.933Z</time>
      </trkpt>
      <trkpt lat="48.86523" lon="2.28548">
        <ele>120.3</ele>
        <time>2015-01-19T20:04:00.948Z</time>
      </trkpt>
      <trkpt lat="48.86523" lon="2.28536">
        <ele>121.1</ele>
        <time>2015-01-19T20:04:05.506Z</time>
      </trkpt>
      <trkpt lat="48.86525" lon="2.28534">
        <ele>121.2</ele>
        <time>2015-01-19T20:04:05.902Z</time>
      </trkpt>
      <trkpt lat="48.86526" lon="2.28522">
        <ele>121.2</ele>
        <time>2015-01-19T20:04:10.574Z</time>
      </trkpt>
      <trkpt lat="48.86525" lon="2.28517">
        <ele>121.2</ele>
        <time>2015-01-19T20:04:11.029Z</time>
      </trkpt>
      <trkpt lat="48.86524" lon="2.28507">
        <ele>121.2</ele>
        <time>2015-01-19T20:04:12.891Z</time>
      </trkpt>
      <trkpt lat="48.86523" lon="2.28501">
        <ele>121.3</ele>
        <time>2015-01-19T20:04:13.958Z</time>
      </trkpt>
      <trkpt lat="48.86522" lon="2.28491">
        <ele>121.2</ele>
        <time>2015-01-19T20:04:15.878Z</time>
      </trkpt>
      <trkpt lat="48.86521" lon="2.28487">
        <ele>121.2</ele>
        <time>2015-01-19T20:04:16.922Z</time>
      </trkpt>
      <trkpt lat="48.86519" lon="2.28473">
        <ele>120.9</ele>
        <time>2015-01-19T20:04:18.975Z</time>
      </trkpt>
      <trkpt lat="48.86519" lon="2.28468">
        <ele>120.9</ele>
        <time>2015-01-19T20:04:19.982Z</time>
      </trkpt>
      <trkpt lat="48.86519" lon="2.28456">
        <ele>120.9</ele>
        <time>2015-01-19T20:04:21.924Z</time>
      </trkpt>
      <trkpt lat="48.86521" lon="2.28441">
        <ele>119.7</ele>
        <time>2015-01-19T20:04:22.943Z</time>
      </trkpt>
      <trkpt lat="48.8652" lon="2.28431">
        <ele>119.2</ele>
        <time>2015-01-19T20:04:23.954Z</time>
      </trkpt>
      <trkpt lat="48.8652" lon="2.28422">
        <ele>118.9</ele>
        <time>2015-01-19T20:04:24.960Z</time>
      </trkpt>
      <trkpt lat="48.86521" lon="2.28414">
        <ele>118.8</ele>
        <time>2015-01-19T20:04:25.937Z</time>
      </trkpt>
      <trkpt lat="48.86523" lon="2.28408">
        <ele>118.6</ele>
        <time>2015-01-19T20:04:26.881Z</time>
      </trkpt>
      <trkpt lat="48.86525" lon="2.284">
        <ele>118.2</ele>
        <time>2015-01-19T20:04:27.904Z</time>
      </trkpt>
      <trkpt lat="48.86528" lon="2.28394">
        <ele>117.9</ele>
        <time>2015-01-19T20:04:28.907Z</time>
      </trkpt>
      <trkpt lat="48.86529" lon="2.28385">
        <ele>116.8</ele>
        <time>2015-01-19T20:04:30.018Z</time>
      </trkpt>
      <trkpt lat="48.86529" lon="2.28377">
        <ele>115.5</ele>
        <time>2015-01-19T20:04:30.891Z</time>
      </trkpt>
      <trkpt lat="48.86534" lon="2.28365">
        <ele>115.8</ele>
        <time>2015-01-19T20:04:33.044Z</time>
      </trkpt>
      <trkpt lat="48.86536" lon="2.28361">
        <ele>116.2</ele>
        <time>2015-01-19T20:04:33.877Z</time>
      </trkpt>
      <trkpt lat="48.86541" lon="2.28352">
        <ele>117.8</ele>
        <time>2015-01-19T20:04:35.930Z</time>
      </trkpt>
      <trkpt lat="48.86542" lon="2.28348">
        <ele>118.3</ele>
        <time>2015-01-19T20:04:36.947Z</time>
      </trkpt>
      <trkpt lat="48.86546" lon="2.28342">
        <ele>119.9</ele>
        <time>2015-01-19T20:04:39.795Z</time>
      </trkpt>
      <trkpt lat="48.86544" lon="2.28335">
        <ele>121.6</ele>
        <time>2015-01-19T20:04:39.968Z</time>
      </trkpt>
      <trkpt lat="48.86546" lon="2.28322">
        <ele>124.9</ele>
        <time>2015-01-19T20:04:42.896Z</time>
      </trkpt>
      <trkpt lat="48.86547" lon="2.28321">
        <ele>125.4</ele>
        <time>2015-01-19T20:04:43.953Z</time>
      </trkpt>
      <trkpt lat="48.86547" lon="2.28321">
        <ele>125.4</ele>
        <time>2015-01-19T20:04:44.826Z</time>
      </trkpt>
      <trkpt lat="48.86546" lon="2.2832">
        <ele>125.8</ele>
        <time>2015-01-19T20:04:44.958Z</time>
      </trkpt>
      <trkpt lat="48.86545" lon="2.28321">
        <ele>126.1</ele>
        <time>2015-01-19T20:04:45.975Z</time>
      </trkpt>
      <trkpt lat="48.86538" lon="2.28326">
        <ele>127.2</ele>
        <time>2015-01-19T20:04:49.895Z</time>
      </trkpt>
      <trkpt lat="48.86536" lon="2.28326">
        <ele>127.4</ele>
        <time>2015-01-19T20:04:49.935Z</time>
      </trkpt>
      <trkpt lat="48.86528" lon="2.28324">
        <ele>127.6</ele>
        <time>2015-01-19T20:04:53.016Z</time>
      </trkpt>
      <trkpt lat="48.86526" lon="2.28325">
        <ele>127.6</ele>
        <time>2015-01-19T20:04:54.002Z</time>
      </trkpt>
      <trkpt lat="48.86517" lon="2.28323">
        <ele>127.8</ele>
        <time>2015-01-19T20:04:58.013Z</time>
      </trkpt>
      <trkpt lat="48.86514" lon="2.2832">
        <ele>128.2</ele>
        <time>2015-01-19T20:04:58.921Z</time>
      </trkpt>
      <trkpt lat="48.86509" lon="2.28315">
        <ele>128.5</ele>
        <time>2015-01-19T20:05:00.948Z</time>
      </trkpt>
      <trkpt lat="48.86506" lon="2.28313">
        <ele>128.4</ele>
        <time>2015-01-19T20:05:01.943Z</time>
      </trkpt>
      <trkpt lat="48.86501" lon="2.28308">
        <ele>128.4</ele>
        <time>2015-01-19T20:05:03.970Z</time>
      </trkpt>
      <trkpt lat="48.86498" lon="2.28305">
        <ele>128.5</ele>
        <time>2015-01-19T20:05:05.030Z</time>
      </trkpt>
      <trkpt lat="48.86491" lon="2.28299">
        <ele>128.4</ele>
        <time>2015-01-19T20:05:06.917Z</time>
      </trkpt>
      <trkpt lat="48.86488" lon="2.28295">
        <ele>128.3</ele>
        <time>2015-01-19T20:05:07.965Z</time>
      </trkpt>
      <trkpt lat="48.86481" lon="2.28287">
        <ele>127.9</ele>
        <time>2015-01-19T20:05:10.188Z</time>
      </trkpt>
      <trkpt lat="48.86477" lon="2.28284">
        <ele>127.8</ele>
        <time>2015-01-19T20:05:11.017Z</time>
      </trkpt>
      <trkpt lat="48.86472" lon="2.28276">
        <ele>127.6</ele>
        <time>2015-01-19T20:05:12.912Z</time>
      </trkpt>
      <trkpt lat="48.86469" lon="2.28273">
        <ele>127.5</ele>
        <time>2015-01-19T20:05:13.973Z</time>
      </trkpt>
      <trkpt lat="48.86463" lon="2.28266">
        <ele>127.4</ele>
        <time>2015-01-19T20:05:15.917Z</time>
      </trkpt>
      <trkpt lat="48.86458" lon="2.28262">
        <ele>127.7</ele>
        <time>2015-01-19T20:05:16.916Z</time>
      </trkpt>
      <trkpt lat="48.86452" lon="2.28256">
        <ele>128.5</ele>
        <time>2015-01-19T20:05:17.927Z</time>
      </trkpt>
      <trkpt lat="48.86449" lon="2.28249">
        <ele>129.4</ele>
        <time>2015-01-19T20:05:18.935Z</time>
      </trkpt>
      <trkpt lat="48.86441" lon="2.28242">
        <ele>130</ele>
        <time>2015-01-19T20:05:25.478Z</time>
      </trkpt>
      <trkpt lat="48.86441" lon="2.28242">
        <ele>130.2</ele>
        <time>2015-01-19T20:05:25.937Z</time>
      </trkpt>
      <trkpt lat="48.86433" lon="2.28243">
        <ele>131</ele>
        <time>2015-01-19T20:05:31.923Z</time>
      </trkpt>
      <trkpt lat="48.86431" lon="2.28244">
        <ele>131.2</ele>
        <time>2015-01-19T20:05:32.936Z</time>
      </trkpt>
      <trkpt lat="48.86425" lon="2.28246">
        <ele>131.6</ele>
        <time>2015-01-19T20:05:37.943Z</time>
      </trkpt>
      <trkpt lat="48.86424" lon="2.28248">
        <ele>131.6</ele>
        <time>2015-01-19T20:05:39.002Z</time>
      </trkpt>
      <trkpt lat="48.86424" lon="2.28248">
        <ele>131.6</ele>
        <time>2015-01-19T20:05:39.898Z</time>
      </trkpt>
      <trkpt lat="48.86424" lon="2.2825">
        <ele>131.6</ele>
        <time>2015-01-19T20:05:39.921Z</time>
      </trkpt>
      <trkpt lat="48.86417" lon="2.28255">
        <ele>131.6</ele>
        <time>2015-01-19T20:05:45.933Z</time>
      </trkpt>
      <trkpt lat="48.86415" lon="2.28256">
        <ele>131.6</ele>
        <time>2015-01-19T20:05:46.964Z</time>
      </trkpt>
      <trkpt lat="48.8641" lon="2.28263">
        <ele>131.9</ele>
        <time>2015-01-19T20:05:50.970Z</time>
      </trkpt>
      <trkpt lat="48.86409" lon="2.28266">
        <ele>132</ele>
        <time>2015-01-19T20:05:52.006Z</time>
      </trkpt>
      <trkpt lat="48.86407" lon="2.2827">
        <ele>132</ele>
        <time>2015-01-19T20:05:52.895Z</time>
      </trkpt>
      <trkpt lat="48.86403" lon="2.2828">
        <ele>132.1</ele>
        <time>2015-01-19T20:05:55.913Z</time>
      </trkpt>
      <trkpt lat="48.86377" lon="2.2835">
        <ele>133.1</ele>
        <time>2015-01-19T20:06:16.887Z</time>
      </trkpt>
      <trkpt lat="48.86378" lon="2.28359">
        <ele>132.7</ele>
        <time>2015-01-19T20:06:17.902Z</time>
      </trkpt>
      <trkpt lat="48.86378" lon="2.28371">
        <ele>132.2</ele>
        <time>2015-01-19T20:06:18.915Z</time>
      </trkpt>
      <trkpt lat="48.86378" lon="2.28381">
        <ele>131.7</ele>
        <time>2015-01-19T20:06:20.033Z</time>
      </trkpt>
      <trkpt lat="48.86376" lon="2.2839">
        <ele>131.5</ele>
        <time>2015-01-19T20:06:20.908Z</time>
      </trkpt>
      <trkpt lat="48.86375" lon="2.28398">
        <ele>131.6</ele>
        <time>2015-01-19T20:06:21.940Z</time>
      </trkpt>
      <trkpt lat="48.86372" lon="2.28404">
        <ele>131.4</ele>
        <time>2015-01-19T20:06:22.947Z</time>
      </trkpt>
      <trkpt lat="48.8637" lon="2.28411">
        <ele>131.2</ele>
        <time>2015-01-19T20:06:23.950Z</time>
      </trkpt>
      <trkpt lat="48.86368" lon="2.28418">
        <ele>130.9</ele>
        <time>2015-01-19T20:06:24.966Z</time>
      </trkpt>
      <trkpt lat="48.86366" lon="2.28423">
        <ele>130.8</ele>
        <time>2015-01-19T20:06:25.918Z</time>
      </trkpt>
      <trkpt lat="48.86362" lon="2.28429">
        <ele>130.8</ele>
        <time>2015-01-19T20:06:26.900Z</time>
      </trkpt>
      <trkpt lat="48.86359" lon="2.28435">
        <ele>130.7</ele>
        <time>2015-01-19T20:06:27.908Z</time>
      </trkpt>
      <trkpt lat="48.86355" lon="2.28442">
        <ele>130.4</ele>
        <time>2015-01-19T20:06:28.908Z</time>
      </trkpt>
      <trkpt lat="48.86353" lon="2.28449">
        <ele>130.3</ele>
        <time>2015-01-19T20:06:29.926Z</time>
      </trkpt>
      <trkpt lat="48.86352" lon="2.28457">
        <ele>130.2</ele>
        <time>2015-01-19T20:06:30.945Z</time>
      </trkpt>
      <trkpt lat="48.86349" lon="2.28464">
        <ele>130</ele>
        <time>2015-01-19T20:06:32.012Z</time>
      </trkpt>
      <trkpt lat="48.86346" lon="2.28472">
        <ele>129.8</ele>
        <time>2015-01-19T20:06:33.051Z</time>
      </trkpt>
      <trkpt lat="48.86344" lon="2.28479">
        <ele>129.8</ele>
        <time>2015-01-19T20:06:33.899Z</time>
      </trkpt>
      <trkpt lat="48.86342" lon="2.28485">
        <ele>129.6</ele>
        <time>2015-01-19T20:06:34.909Z</time>
      </trkpt>
      <trkpt lat="48.86337" lon="2.28496">
        <ele>129.5</ele>
        <time>2015-01-19T20:06:36.953Z</time>
      </trkpt>
      <trkpt lat="48.86336" lon="2.28502">
        <ele>129.4</ele>
        <time>2015-01-19T20:06:37.970Z</time>
      </trkpt>
      <trkpt lat="48.86329" lon="2.28511">
        <ele>129.4</ele>
        <time>2015-01-19T20:06:41.059Z</time>
      </trkpt>
      <trkpt lat="48.86328" lon="2.28512">
        <ele>129.6</ele>
        <time>2015-01-19T20:06:41.887Z</time>
      </trkpt>
      <trkpt lat="48.86328" lon="2.28513">
        <ele>130.2</ele>
        <time>2015-01-19T20:06:43.962Z</time>
      </trkpt>
      <trkpt lat="48.86328" lon="2.28513">
        <ele>130.5</ele>
        <time>2015-01-19T20:06:44.981Z</time>
      </trkpt>
      <trkpt lat="48.86329" lon="2.28514">
        <ele>131</ele>
        <time>2015-01-19T20:06:49.963Z</time>
      </trkpt>
      <trkpt lat="48.86331" lon="2.28514">
        <ele>131.1</ele>
        <time>2015-01-19T20:06:50.984Z</time>
      </trkpt>
      <trkpt lat="48.86332" lon="2.28516">
        <ele>132.3</ele>
        <time>2015-01-19T20:06:52.921Z</time>
      </trkpt>
      <trkpt lat="48.86332" lon="2.28516">
        <ele>133.2</ele>
        <time>2015-01-19T20:06:53.902Z</time>
      </trkpt>
      <trkpt lat="48.86332" lon="2.28517">
        <ele>133.7</ele>
        <time>2015-01-19T20:07:04.002Z</time>
      </trkpt>
      <trkpt lat="48.86331" lon="2.28517">
        <ele>133.6</ele>
        <time>2015-01-19T20:07:04.939Z</time>
      </trkpt>
      <trkpt lat="48.8633" lon="2.28505">
        <ele>133</ele>
        <time>2015-01-19T20:07:10.892Z</time>
      </trkpt>
      <trkpt lat="48.8633" lon="2.28501">
        <ele>132.9</ele>
        <time>2015-01-19T20:07:12.054Z</time>
      </trkpt>
      <trkpt lat="48.8633" lon="2.28489">
        <ele>132.6</ele>
        <time>2015-01-19T20:07:14.923Z</time>
      </trkpt>
      <trkpt lat="48.86331" lon="2.28484">
        <ele>132.4</ele>
        <time>2015-01-19T20:07:15.927Z</time>
      </trkpt>
      <trkpt lat="48.86331" lon="2.28475">
        <ele>132</ele>
        <time>2015-01-19T20:07:17.957Z</time>
      </trkpt>
      <trkpt lat="48.86331" lon="2.2847">
        <ele>131.9</ele>
        <time>2015-01-19T20:07:18.966Z</time>
      </trkpt>
      <trkpt lat="48.86332" lon="2.28459">
        <ele>132.1</ele>
        <time>2015-01-19T20:07:21.008Z</time>
      </trkpt>
      <trkpt lat="48.86332" lon="2.28453">
        <ele>131.8</ele>
        <time>2015-01-19T20:07:21.897Z</time>
      </trkpt>
      <trkpt lat="48.86334" lon="2.28444">
        <ele>131.3</ele>
        <time>2015-01-19T20:07:23.935Z</time>
      </trkpt>
      <trkpt lat="48.86335" lon="2.2844">
        <ele>131.2</ele>
        <time>2015-01-19T20:07:24.941Z</time>
      </trkpt>
      <trkpt lat="48.86337" lon="2.2843">
        <ele>131</ele>
        <time>2015-01-19T20:07:26.978Z</time>
      </trkpt>
      <trkpt lat="48.86338" lon="2.28425">
        <ele>130.8</ele>
        <time>2015-01-19T20:07:27.985Z</time>
      </trkpt>
      <trkpt lat="48.86341" lon="2.28414">
        <ele>129.4</ele>
        <time>2015-01-19T20:07:29.911Z</time>
      </trkpt>
      <trkpt lat="48.86342" lon="2.28409">
        <ele>129</ele>
        <time>2015-01-19T20:07:30.938Z</time>
      </trkpt>
      <trkpt lat="48.86343" lon="2.28399">
        <ele>128.5</ele>
        <time>2015-01-19T20:07:32.961Z</time>
      </trkpt>
      <trkpt lat="48.86344" lon="2.28394">
        <ele>128.3</ele>
        <time>2015-01-19T20:07:33.983Z</time>
      </trkpt>
      <trkpt lat="48.86346" lon="2.28384">
        <ele>127.9</ele>
        <time>2015-01-19T20:07:36Z</time>
      </trkpt>
      <trkpt lat="48.86347" lon="2.28378">
        <ele>127.9</ele>
        <time>2015-01-19T20:07:36.976Z</time>
      </trkpt>
      <trkpt lat="48.86348" lon="2.28368">
        <ele>127.9</ele>
        <time>2015-01-19T20:07:38.938Z</time>
      </trkpt>
      <trkpt lat="48.86349" lon="2.28362">
        <ele>127.8</ele>
        <time>2015-01-19T20:07:40.020Z</time>
      </trkpt>
      <trkpt lat="48.86351" lon="2.2835">
        <ele>127.1</ele>
        <time>2015-01-19T20:07:41.911Z</time>
      </trkpt>
      <trkpt lat="48.86352" lon="2.28344">
        <ele>126.7</ele>
        <time>2015-01-19T20:07:42.923Z</time>
      </trkpt>
      <trkpt lat="48.86353" lon="2.28337">
        <ele>126.5</ele>
        <time>2015-01-19T20:07:43.959Z</time>
      </trkpt>
      <trkpt lat="48.86354" lon="2.28331">
        <ele>126.4</ele>
        <time>2015-01-19T20:07:44.970Z</time>
      </trkpt>
      <trkpt lat="48.86356" lon="2.28324">
        <ele>126.3</ele>
        <time>2015-01-19T20:07:45.912Z</time>
      </trkpt>
      <trkpt lat="48.86357" lon="2.28316">
        <ele>125.8</ele>
        <time>2015-01-19T20:07:46.912Z</time>
      </trkpt>
      <trkpt lat="48.86358" lon="2.28309">
        <ele>125.6</ele>
        <time>2015-01-19T20:07:48.087Z</time>
      </trkpt>
      <trkpt lat="48.86359" lon="2.28301">
        <ele>125.5</ele>
        <time>2015-01-19T20:07:48.972Z</time>
      </trkpt>
      <trkpt lat="48.8636" lon="2.28292">
        <ele>124.6</ele>
        <time>2015-01-19T20:07:49.975Z</time>
      </trkpt>
      <trkpt lat="48.86362" lon="2.28283">
        <ele>124.6</ele>
        <time>2015-01-19T20:07:50.988Z</time>
      </trkpt>
      <trkpt lat="48.86364" lon="2.28276">
        <ele>124.6</ele>
        <time>2015-01-19T20:07:52.007Z</time>
      </trkpt>
      <trkpt lat="48.86366" lon="2.28268">
        <ele>124.7</ele>
        <time>2015-01-19T20:07:53.022Z</time>
      </trkpt>
      <trkpt lat="48.86368" lon="2.2826">
        <ele>124.6</ele>
        <time>2015-01-19T20:07:53.911Z</time>
      </trkpt>
      <trkpt lat="48.8637" lon="2.28252">
        <ele>124.6</ele>
        <time>2015-01-19T20:07:54.904Z</time>
      </trkpt>
      <trkpt lat="48.86371" lon="2.28245">
        <ele>124.7</ele>
        <time>2015-01-19T20:07:55.933Z</time>
      </trkpt>
      <trkpt lat="48.86371" lon="2.28237">
        <ele>124.4</ele>
        <time>2015-01-19T20:07:56.942Z</time>
      </trkpt>
      <trkpt lat="48.86372" lon="2.28227">
        <ele>123.4</ele>
        <time>2015-01-19T20:07:57.950Z</time>
      </trkpt>
      <trkpt lat="48.86372" lon="2.28218">
        <ele>122.3</ele>
        <time>2015-01-19T20:07:58.994Z</time>
      </trkpt>
      <trkpt lat="48.86372" lon="2.2821">
        <ele>121.6</ele>
        <time>2015-01-19T20:07:59.979Z</time>
      </trkpt>
      <trkpt lat="48.86373" lon="2.28201">
        <ele>120.6</ele>
        <time>2015-01-19T20:08:00.990Z</time>
      </trkpt>
      <trkpt lat="48.86373" lon="2.28192">
        <ele>119.8</ele>
        <time>2015-01-19T20:08:01.995Z</time>
      </trkpt>
      <trkpt lat="48.86372" lon="2.28185">
        <ele>118.8</ele>
        <time>2015-01-19T20:08:03.002Z</time>
      </trkpt>
      <trkpt lat="48.86369" lon="2.28175">
        <ele>118.7</ele>
        <time>2015-01-19T20:08:05.021Z</time>
      </trkpt>
      <trkpt lat="48.86368" lon="2.28171">
        <ele>118.8</ele>
        <time>2015-01-19T20:08:05.990Z</time>
      </trkpt>
      <trkpt lat="48.86362" lon="2.28166">
        <ele>119.4</ele>
        <time>2015-01-19T20:08:08.032Z</time>
      </trkpt>
      <trkpt lat="48.86359" lon="2.28161">
        <ele>119.9</ele>
        <time>2015-01-19T20:08:08.909Z</time>
      </trkpt>
      <trkpt lat="48.86353" lon="2.28156">
        <ele>119.9</ele>
        <time>2015-01-19T20:08:10.911Z</time>
      </trkpt>
      <trkpt lat="48.8635" lon="2.28155">
        <ele>119.6</ele>
        <time>2015-01-19T20:08:11.938Z</time>
      </trkpt>
      <trkpt lat="48.86342" lon="2.28151">
        <ele>119.6</ele>
        <time>2015-01-19T20:08:15.947Z</time>
      </trkpt>
      <trkpt lat="48.8634" lon="2.2815">
        <ele>119.7</ele>
        <time>2015-01-19T20:08:16.955Z</time>
      </trkpt>
      <trkpt lat="48.86333" lon="2.28147">
        <ele>119.6</ele>
        <time>2015-01-19T20:08:18.968Z</time>
      </trkpt>
      <trkpt lat="48.86329" lon="2.28146">
        <ele>119.6</ele>
        <time>2015-01-19T20:08:19.921Z</time>
      </trkpt>
      <trkpt lat="48.86322" lon="2.28145">
        <ele>119.6</ele>
        <time>2015-01-19T20:08:21.905Z</time>
      </trkpt>
      <trkpt lat="48.86319" lon="2.28143">
        <ele>119.7</ele>
        <time>2015-01-19T20:08:22.917Z</time>
      </trkpt>
      <trkpt lat="48.86313" lon="2.28135">
        <ele>119.7</ele>
        <time>2015-01-19T20:08:24.944Z</time>
      </trkpt>
      <trkpt lat="48.86309" lon="2.28131">
        <ele>119.7</ele>
        <time>2015-01-19T20:08:25.960Z</time>
      </trkpt>
      <trkpt lat="48.86303" lon="2.28126">
        <ele>119.9</ele>
        <time>2015-01-19T20:08:27.985Z</time>
      </trkpt>
      <trkpt lat="48.863" lon="2.28121">
        <ele>120.8</ele>
        <time>2015-01-19T20:08:28.993Z</time>
      </trkpt>
      <trkpt lat="48.86295" lon="2.28114">
        <ele>121.8</ele>
        <time>2015-01-19T20:08:30.902Z</time>
      </trkpt>
      <trkpt lat="48.86292" lon="2.28112">
        <ele>122.1</ele>
        <time>2015-01-19T20:08:31.922Z</time>
      </trkpt>
      <trkpt lat="48.86286" lon="2.28108">
        <ele>122.5</ele>
        <time>2015-01-19T20:08:34.970Z</time>
      </trkpt>
      <trkpt lat="48.86284" lon="2.28107">
        <ele>122.6</ele>
        <time>2015-01-19T20:08:35.981Z</time>
      </trkpt>
      <trkpt lat="48.86278" lon="2.28098">
        <ele>123</ele>
        <time>2015-01-19T20:08:39.157Z</time>
      </trkpt>
      <trkpt lat="48.86276" lon="2.28096">
        <ele>123</ele>
        <time>2015-01-19T20:08:39.897Z</time>
      </trkpt>
      <trkpt lat="48.86271" lon="2.28089">
        <ele>123</ele>
        <time>2015-01-19T20:08:41.921Z</time>
      </trkpt>
      <trkpt lat="48.86268" lon="2.28086">
        <ele>122.9</ele>
        <time>2015-01-19T20:08:42.965Z</time>
      </trkpt>
      <trkpt lat="48.86262" lon="2.28082">
        <ele>122.6</ele>
        <time>2015-01-19T20:08:44.987Z</time>
      </trkpt>
      <trkpt lat="48.8626" lon="2.28079">
        <ele>122.5</ele>
        <time>2015-01-19T20:08:45.896Z</time>
      </trkpt>
      <trkpt lat="48.86254" lon="2.28075">
        <ele>122.1</ele>
        <time>2015-01-19T20:08:48.356Z</time>
      </trkpt>
      <trkpt lat="48.86251" lon="2.28073">
        <ele>122</ele>
        <time>2015-01-19T20:08:48.933Z</time>
      </trkpt>
      <trkpt lat="48.86243" lon="2.28069">
        <ele>121.6</ele>
        <time>2015-01-19T20:08:50.986Z</time>
      </trkpt>
      <trkpt lat="48.86239" lon="2.28067">
        <ele>121.3</ele>
        <time>2015-01-19T20:08:51.940Z</time>
      </trkpt>
      <trkpt lat="48.86232" lon="2.28061">
        <ele>121.3</ele>
        <time>2015-01-19T20:08:53.974Z</time>
      </trkpt>
      <trkpt lat="48.86228" lon="2.2806">
        <ele>121.3</ele>
        <time>2015-01-19T20:08:54.881Z</time>
      </trkpt>
      <trkpt lat="48.86221" lon="2.28052">
        <ele>121.4</ele>
        <time>2015-01-19T20:08:56.893Z</time>
      </trkpt>
      <trkpt lat="48.86217" lon="2.28046">
        <ele>121.8</ele>
        <time>2015-01-19T20:08:57.904Z</time>
      </trkpt>
      <trkpt lat="48.86213" lon="2.2804">
        <ele>122</ele>
        <time>2015-01-19T20:08:58.949Z</time>
      </trkpt>
      <trkpt lat="48.86209" lon="2.28033">
        <ele>122.3</ele>
        <time>2015-01-19T20:08:59.970Z</time>
      </trkpt>
      <trkpt lat="48.86202" lon="2.28026">
        <ele>122.6</ele>
        <time>2015-01-19T20:09:01.980Z</time>
      </trkpt>
      <trkpt lat="48.86198" lon="2.28025">
        <ele>122.4</ele>
        <time>2015-01-19T20:09:03.005Z</time>
      </trkpt>
      <trkpt lat="48.86192" lon="2.28021">
        <ele>122.4</ele>
        <time>2015-01-19T20:09:04.883Z</time>
      </trkpt>
      <trkpt lat="48.8619" lon="2.28018">
        <ele>122.3</ele>
        <time>2015-01-19T20:09:05.883Z</time>
      </trkpt>
      <trkpt lat="48.86184" lon="2.28009">
        <ele>122</ele>
        <time>2015-01-19T20:09:08.865Z</time>
      </trkpt>
      <trkpt lat="48.86183" lon="2.28005">
        <ele>121.8</ele>
        <time>2015-01-19T20:09:09.892Z</time>
      </trkpt>
      <trkpt lat="48.8618" lon="2.27995">
        <ele>121.7</ele>
        <time>2015-01-19T20:09:11.891Z</time>
      </trkpt>
      <trkpt lat="48.86177" lon="2.27991">
        <ele>121.6</ele>
        <time>2015-01-19T20:09:12.898Z</time>
      </trkpt>
      <trkpt lat="48.86172" lon="2.27984">
        <ele>121.6</ele>
        <time>2015-01-19T20:09:14.926Z</time>
      </trkpt>
      <trkpt lat="48.8617" lon="2.2798">
        <ele>121.8</ele>
        <time>2015-01-19T20:09:15.925Z</time>
      </trkpt>
      <trkpt lat="48.86164" lon="2.27969">
        <ele>122.6</ele>
        <time>2015-01-19T20:09:17.977Z</time>
      </trkpt>
      <trkpt lat="48.86161" lon="2.27966">
        <ele>122.5</ele>
        <time>2015-01-19T20:09:18.888Z</time>
      </trkpt>
      <trkpt lat="48.86155" lon="2.27961">
        <ele>122.3</ele>
        <time>2015-01-19T20:09:20.925Z</time>
      </trkpt>
      <trkpt lat="48.86152" lon="2.27957">
        <ele>122.2</ele>
        <time>2015-01-19T20:09:21.932Z</time>
      </trkpt>
      <trkpt lat="48.86146" lon="2.2795">
        <ele>121.9</ele>
        <time>2015-01-19T20:09:23.982Z</time>
      </trkpt>
      <trkpt lat="48.86143" lon="2.27947">
        <ele>121.8</ele>
        <time>2015-01-19T20:09:24.957Z</time>
      </trkpt>
      <trkpt lat="48.86136" lon="2.2794">
        <ele>121.7</ele>
        <time>2015-01-19T20:09:27.902Z</time>
      </trkpt>
      <trkpt lat="48.86134" lon="2.27939">
        <ele>121.7</ele>
        <time>2015-01-19T20:09:28.923Z</time>
      </trkpt>
      <trkpt lat="48.86127" lon="2.27939">
        <ele>121.5</ele>
        <time>2015-01-19T20:09:30.947Z</time>
      </trkpt>
      <trkpt lat="48.86124" lon="2.27939">
        <ele>121.1</ele>
        <time>2015-01-19T20:09:31.962Z</time>
      </trkpt>
      <trkpt lat="48.86116" lon="2.27934">
        <ele>120</ele>
        <time>2015-01-19T20:09:35.891Z</time>
      </trkpt>
      <trkpt lat="48.86114" lon="2.27931">
        <ele>119.6</ele>
        <time>2015-01-19T20:09:36.924Z</time>
      </trkpt>
      <trkpt lat="48.86107" lon="2.27928">
        <ele>119.2</ele>
        <time>2015-01-19T20:09:39.921Z</time>
      </trkpt>
      <trkpt lat="48.86104" lon="2.27926">
        <ele>119.1</ele>
        <time>2015-01-19T20:09:39.967Z</time>
      </trkpt>
      <trkpt lat="48.86097" lon="2.2792">
        <ele>119.1</ele>
        <time>2015-01-19T20:09:41.906Z</time>
      </trkpt>
      <trkpt lat="48.86093" lon="2.27916">
        <ele>119.1</ele>
        <time>2015-01-19T20:09:42.930Z</time>
      </trkpt>
      <trkpt lat="48.86089" lon="2.27911">
        <ele>119.1</ele>
        <time>2015-01-19T20:09:44.941Z</time>
      </trkpt>
      <trkpt lat="48.86085" lon="2.27908">
        <ele>119.1</ele>
        <time>2015-01-19T20:09:44.962Z</time>
      </trkpt>
      <trkpt lat="48.8608" lon="2.27905">
        <ele>119.1</ele>
        <time>2015-01-19T20:09:45.971Z</time>
      </trkpt>
      <trkpt lat="48.86076" lon="2.279">
        <ele>119.2</ele>
        <time>2015-01-19T20:09:47.010Z</time>
      </trkpt>
      <trkpt lat="48.8607" lon="2.27895">
        <ele>120</ele>
        <time>2015-01-19T20:09:47.900Z</time>
      </trkpt>
      <trkpt lat="48.86064" lon="2.27887">
        <ele>121.1</ele>
        <time>2015-01-19T20:09:48.904Z</time>
      </trkpt>
      <trkpt lat="48.86057" lon="2.27878">
        <ele>121.4</ele>
        <time>2015-01-19T20:09:50.925Z</time>
      </trkpt>
      <trkpt lat="48.86054" lon="2.27873">
        <ele>121.5</ele>
        <time>2015-01-19T20:09:51.930Z</time>
      </trkpt>
      <trkpt lat="48.8605" lon="2.27868">
        <ele>121.6</ele>
        <time>2015-01-19T20:09:52.954Z</time>
      </trkpt>
      <trkpt lat="48.86046" lon="2.27865">
        <ele>121.7</ele>
        <time>2015-01-19T20:09:53.963Z</time>
      </trkpt>
      <trkpt lat="48.86043" lon="2.2786">
        <ele>121.8</ele>
        <time>2015-01-19T20:09:54.978Z</time>
      </trkpt>
      <trkpt lat="48.8604" lon="2.27854">
        <ele>121.9</ele>
        <time>2015-01-19T20:09:55.995Z</time>
      </trkpt>
      <trkpt lat="48.86033" lon="2.27845">
        <ele>122</ele>
        <time>2015-01-19T20:09:57.900Z</time>
      </trkpt>
      <trkpt lat="48.8603" lon="2.27842">
        <ele>121.8</ele>
        <time>2015-01-19T20:09:58.911Z</time>
      </trkpt>
      <trkpt lat="48.86024" lon="2.27834">
        <ele>121.4</ele>
        <time>2015-01-19T20:10:00.916Z</time>
      </trkpt>
      <trkpt lat="48.86021" lon="2.27831">
        <ele>121.2</ele>
        <time>2015-01-19T20:10:01.938Z</time>
      </trkpt>
      <trkpt lat="48.86017" lon="2.27824">
        <ele>121.2</ele>
        <time>2015-01-19T20:10:03.908Z</time>
      </trkpt>
      <trkpt lat="48.86016" lon="2.27819">
        <ele>121.2</ele>
        <time>2015-01-19T20:10:05.009Z</time>
      </trkpt>
      <trkpt lat="48.86011" lon="2.27812">
        <ele>121.1</ele>
        <time>2015-01-19T20:10:06.904Z</time>
      </trkpt>
      <trkpt lat="48.86009" lon="2.2781">
        <ele>121.2</ele>
        <time>2015-01-19T20:10:07.971Z</time>
      </trkpt>
      <trkpt lat="48.86005" lon="2.27807">
        <ele>121.3</ele>
        <time>2015-01-19T20:10:08.946Z</time>
      </trkpt>
      <trkpt lat="48.86" lon="2.27802">
        <ele>121.3</ele>
        <time>2015-01-19T20:10:09.972Z</time>
      </trkpt>
      <trkpt lat="48.85997" lon="2.27799">
        <ele>121.3</ele>
        <time>2015-01-19T20:10:10.964Z</time>
      </trkpt>
      <trkpt lat="48.85992" lon="2.27795">
        <ele>121.3</ele>
        <time>2015-01-19T20:10:11.970Z</time>
      </trkpt>
      <trkpt lat="48.85988" lon="2.27792">
        <ele>121.3</ele>
        <time>2015-01-19T20:10:12.974Z</time>
      </trkpt>
      <trkpt lat="48.85984" lon="2.27787">
        <ele>121.2</ele>
        <time>2015-01-19T20:10:13.989Z</time>
      </trkpt>
      <trkpt lat="48.85981" lon="2.27782">
        <ele>121</ele>
        <time>2015-01-19T20:10:15.002Z</time>
      </trkpt>
      <trkpt lat="48.85978" lon="2.27776">
        <ele>120.7</ele>
        <time>2015-01-19T20:10:15.897Z</time>
      </trkpt>
      <trkpt lat="48.85972" lon="2.27767">
        <ele>120.4</ele>
        <time>2015-01-19T20:10:17.899Z</time>
      </trkpt>
      <trkpt lat="48.85969" lon="2.27763">
        <ele>120.3</ele>
        <time>2015-01-19T20:10:18.919Z</time>
      </trkpt>
      <trkpt lat="48.85962" lon="2.27756">
        <ele>120.1</ele>
        <time>2015-01-19T20:10:20.963Z</time>
      </trkpt>
      <trkpt lat="48.85958" lon="2.27754">
        <ele>120</ele>
        <time>2015-01-19T20:10:21.880Z</time>
      </trkpt>
      <trkpt lat="48.8595" lon="2.27751">
        <ele>119.8</ele>
        <time>2015-01-19T20:10:23.904Z</time>
      </trkpt>
      <trkpt lat="48.85948" lon="2.27747">
        <ele>119.7</ele>
        <time>2015-01-19T20:10:24.910Z</time>
      </trkpt>
      <trkpt lat="48.85943" lon="2.27741">
        <ele>119.6</ele>
        <time>2015-01-19T20:10:26.951Z</time>
      </trkpt>
      <trkpt lat="48.8594" lon="2.27735">
        <ele>120.2</ele>
        <time>2015-01-19T20:10:27.965Z</time>
      </trkpt>
      <trkpt lat="48.85937" lon="2.27724">
        <ele>120.4</ele>
        <time>2015-01-19T20:10:29.914Z</time>
      </trkpt>
      <trkpt lat="48.85935" lon="2.2772">
        <ele>120.1</ele>
        <time>2015-01-19T20:10:30.922Z</time>
      </trkpt>
      <trkpt lat="48.85936" lon="2.2771">
        <ele>119.5</ele>
        <time>2015-01-19T20:10:33.027Z</time>
      </trkpt>
      <trkpt lat="48.85937" lon="2.27705">
        <ele>119.1</ele>
        <time>2015-01-19T20:10:33.995Z</time>
      </trkpt>
      <trkpt lat="48.85938" lon="2.27695">
        <ele>118.4</ele>
        <time>2015-01-19T20:10:35.877Z</time>
      </trkpt>
      <trkpt lat="48.85939" lon="2.2769">
        <ele>118.1</ele>
        <time>2015-01-19T20:10:36.891Z</time>
      </trkpt>
      <trkpt lat="48.8594" lon="2.2768">
        <ele>117.4</ele>
        <time>2015-01-19T20:10:38.961Z</time>
      </trkpt>
      <trkpt lat="48.85942" lon="2.27675">
        <ele>117</ele>
        <time>2015-01-19T20:10:40.051Z</time>
      </trkpt>
      <trkpt lat="48.85946" lon="2.27665">
        <ele>116.7</ele>
        <time>2015-01-19T20:10:41.965Z</time>
      </trkpt>
      <trkpt lat="48.85948" lon="2.27662">
        <ele>116.7</ele>
        <time>2015-01-19T20:10:42.977Z</time>
      </trkpt>
      <trkpt lat="48.8595" lon="2.27651">
        <ele>116.6</ele>
        <time>2015-01-19T20:10:45.212Z</time>
      </trkpt>
      <trkpt lat="48.85951" lon="2.27646">
        <ele>116.6</ele>
        <time>2015-01-19T20:10:45.858Z</time>
      </trkpt>
      <trkpt lat="48.85952" lon="2.27634">
        <ele>116.5</ele>
        <time>2015-01-19T20:10:48.856Z</time>
      </trkpt>
      <trkpt lat="48.85951" lon="2.27628">
        <ele>116.5</ele>
        <time>2015-01-19T20:10:49.905Z</time>
      </trkpt>
      <trkpt lat="48.85951" lon="2.27616">
        <ele>116.4</ele>
        <time>2015-01-19T20:10:52.064Z</time>
      </trkpt>
      <trkpt lat="48.85952" lon="2.27611">
        <ele>116.3</ele>
        <time>2015-01-19T20:10:52.883Z</time>
      </trkpt>
      <trkpt lat="48.85953" lon="2.27607">
        <ele>116.3</ele>
        <time>2015-01-19T20:10:53.883Z</time>
      </trkpt>
      <trkpt lat="48.85948" lon="2.27575">
        <ele>117.8</ele>
        <time>2015-01-19T20:11:03.928Z</time>
      </trkpt>
      <trkpt lat="48.85951" lon="2.27569">
        <ele>119.1</ele>
        <time>2015-01-19T20:11:04.969Z</time>
      </trkpt>
      <trkpt lat="48.85954" lon="2.27564">
        <ele>119.8</ele>
        <time>2015-01-19T20:11:05.979Z</time>
      </trkpt>
      <trkpt lat="48.85952" lon="2.27554">
        <ele>119.7</ele>
        <time>2015-01-19T20:11:08.928Z</time>
      </trkpt>
      <trkpt lat="48.85952" lon="2.2755">
        <ele>119.7</ele>
        <time>2015-01-19T20:11:09.945Z</time>
      </trkpt>
      <trkpt lat="48.8596" lon="2.27554">
        <ele>120.2</ele>
        <time>2015-01-19T20:11:29.012Z</time>
      </trkpt>
      <trkpt lat="48.85961" lon="2.27556">
        <ele>120.2</ele>
        <time>2015-01-19T20:11:30.040Z</time>
      </trkpt>
      <trkpt lat="48.85964" lon="2.27568">
        <ele>121.7</ele>
        <time>2015-01-19T20:11:41.887Z</time>
      </trkpt>
      <trkpt lat="48.85964" lon="2.2757">
        <ele>121.7</ele>
        <time>2015-01-19T20:11:42.908Z</time>
      </trkpt>
      <trkpt lat="48.85967" lon="2.27582">
        <ele>121.9</ele>
        <time>2015-01-19T20:11:50.941Z</time>
      </trkpt>
      <trkpt lat="48.85969" lon="2.27584">
        <ele>122.3</ele>
        <time>2015-01-19T20:11:52.884Z</time>
      </trkpt>
      <trkpt lat="48.8597" lon="2.27586">
        <ele>122.5</ele>
        <time>2015-01-19T20:11:53.878Z</time>
      </trkpt>
      <trkpt lat="48.85976" lon="2.27595">
        <ele>122.8</ele>
        <time>2015-01-19T20:11:58.972Z</time>
      </trkpt>
      <trkpt lat="48.85981" lon="2.27603">
        <ele>122.9</ele>
        <time>2015-01-19T20:12:02.935Z</time>
      </trkpt>
      <trkpt lat="48.85982" lon="2.27606">
        <ele>122.6</ele>
        <time>2015-01-19T20:12:03.947Z</time>
      </trkpt>
      <trkpt lat="48.8599" lon="2.27613">
        <ele>122.5</ele>
        <time>2015-01-19T20:12:07.898Z</time>
      </trkpt>
      <trkpt lat="48.85992" lon="2.27615">
        <ele>122.7</ele>
        <time>2015-01-19T20:12:08.907Z</time>
      </trkpt>
      <trkpt lat="48.85996" lon="2.27618">
        <ele>123</ele>
        <time>2015-01-19T20:12:10.909Z</time>
      </trkpt>
      <trkpt lat="48.86011" lon="2.27622">
        <ele>124.2</ele>
        <time>2015-01-19T20:12:17.891Z</time>
      </trkpt>
      <trkpt lat="48.86015" lon="2.27617">
        <ele>123.5</ele>
        <time>2015-01-19T20:12:18.991Z</time>
      </trkpt>
      <trkpt lat="48.86019" lon="2.27613">
        <ele>122.6</ele>
        <time>2015-01-19T20:12:19.978Z</time>
      </trkpt>
      <trkpt lat="48.86023" lon="2.27609">
        <ele>121.8</ele>
        <time>2015-01-19T20:12:20.891Z</time>
      </trkpt>
      <trkpt lat="48.8603" lon="2.27601">
        <ele>121.5</ele>
        <time>2015-01-19T20:12:21.962Z</time>
      </trkpt>
      <trkpt lat="48.86036" lon="2.27593">
        <ele>120.3</ele>
        <time>2015-01-19T20:12:23.893Z</time>
      </trkpt>
      <trkpt lat="48.86039" lon="2.27588">
        <ele>119.8</ele>
        <time>2015-01-19T20:12:24.948Z</time>
      </trkpt>
      <trkpt lat="48.86041" lon="2.27585">
        <ele>119.5</ele>
        <time>2015-01-19T20:12:25.961Z</time>
      </trkpt>
      <trkpt lat="48.86057" lon="2.27548">
        <ele>116</ele>
        <time>2015-01-19T20:12:33.981Z</time>
      </trkpt>
      <trkpt lat="48.86061" lon="2.27546">
        <ele>116.1</ele>
        <time>2015-01-19T20:12:37.933Z</time>
      </trkpt>
      <trkpt lat="48.86061" lon="2.27546">
        <ele>116.2</ele>
        <time>2015-01-19T20:12:38.961Z</time>
      </trkpt>
      <trkpt lat="48.86062" lon="2.27546">
        <ele>116.2</ele>
        <time>2015-01-19T20:12:39.897Z</time>
      </trkpt>
      <trkpt lat="48.8607" lon="2.27543">
        <ele>116.5</ele>
        <time>2015-01-19T20:12:46.968Z</time>
      </trkpt>
      <trkpt lat="48.86073" lon="2.27544">
        <ele>116.6</ele>
        <time>2015-01-19T20:12:48.898Z</time>
      </trkpt>
      <trkpt lat="48.86065" lon="2.2755">
        <ele>119.4</ele>
        <time>2015-01-19T20:13:04.937Z</time>
      </trkpt>
      <trkpt lat="48.86065" lon="2.27551">
        <ele>119.5</ele>
        <time>2015-01-19T20:13:05.949Z</time>
      </trkpt>
      <trkpt lat="48.86056" lon="2.27554">
        <ele>119.8</ele>
        <time>2015-01-19T20:13:10.895Z</time>
      </trkpt>
      <trkpt lat="48.86044" lon="2.27553">
        <ele>118.4</ele>
        <time>2015-01-19T20:13:17.974Z</time>
      </trkpt>
      <trkpt lat="48.86036" lon="2.27555">
        <ele>118.2</ele>
        <time>2015-01-19T20:13:21.942Z</time>
      </trkpt>
      <trkpt lat="48.86034" lon="2.27556">
        <ele>118.1</ele>
        <time>2015-01-19T20:13:22.990Z</time>
      </trkpt>
      <trkpt lat="48.86026" lon="2.27556">
        <ele>118</ele>
        <time>2015-01-19T20:13:26.955Z</time>
      </trkpt>
      <trkpt lat="48.86024" lon="2.27555">
        <ele>117.8</ele>
        <time>2015-01-19T20:13:27.898Z</time>
      </trkpt>
      <trkpt lat="48.86016" lon="2.27551">
        <ele>117.3</ele>
        <time>2015-01-19T20:13:30.954Z</time>
      </trkpt>
      <trkpt lat="48.86013" lon="2.2755">
        <ele>117</ele>
        <time>2015-01-19T20:13:31.965Z</time>
      </trkpt>
      <trkpt lat="48.86007" lon="2.27545">
        <ele>116.6</ele>
        <time>2015-01-19T20:13:34.926Z</time>
      </trkpt>
      <trkpt lat="48.86005" lon="2.27541">
        <ele>116.7</ele>
        <time>2015-01-19T20:13:35.942Z</time>
      </trkpt>
      <trkpt lat="48.86002" lon="2.2753">
        <ele>116.8</ele>
        <time>2015-01-19T20:13:38.980Z</time>
      </trkpt>
      <trkpt lat="48.86005" lon="2.27523">
        <ele>116.8</ele>
        <time>2015-01-19T20:13:39.898Z</time>
      </trkpt>
      <trkpt lat="48.86002" lon="2.27511">
        <ele>117.7</ele>
        <time>2015-01-19T20:13:44.912Z</time>
      </trkpt>
      <trkpt lat="48.86001" lon="2.27509">
        <ele>118.3</ele>
        <time>2015-01-19T20:13:45.920Z</time>
      </trkpt>
      <trkpt lat="48.85996" lon="2.27506">
        <ele>121.6</ele>
        <time>2015-01-19T20:13:49.917Z</time>
      </trkpt>
      <trkpt lat="48.85992" lon="2.27511">
        <ele>121.6</ele>
        <time>2015-01-19T20:13:50.928Z</time>
      </trkpt>
      <trkpt lat="48.85986" lon="2.2752">
        <ele>121.1</ele>
        <time>2015-01-19T20:13:52.969Z</time>
      </trkpt>
      <trkpt lat="48.85975" lon="2.27534">
        <ele>123.2</ele>
        <time>2015-01-19T20:14:03.890Z</time>
      </trkpt>
      <trkpt lat="48.85966" lon="2.27529">
        <ele>122.5</ele>
        <time>2015-01-19T20:14:19.960Z</time>
      </trkpt>
      <trkpt lat="48.85963" lon="2.2753">
        <ele>122.5</ele>
        <time>2015-01-19T20:14:20.963Z</time>
      </trkpt>
      <trkpt lat="48.85956" lon="2.27526">
        <ele>122.1</ele>
        <time>2015-01-19T20:14:23.882Z</time>
      </trkpt>
      <trkpt lat="48.85955" lon="2.27522">
        <ele>121.9</ele>
        <time>2015-01-19T20:14:24.896Z</time>
      </trkpt>
      <trkpt lat="48.85956" lon="2.27512">
        <ele>121.2</ele>
        <time>2015-01-19T20:14:26.910Z</time>
      </trkpt>
      <trkpt lat="48.85956" lon="2.27508">
        <ele>121</ele>
        <time>2015-01-19T20:14:27.927Z</time>
      </trkpt>
      <trkpt lat="48.85957" lon="2.27496">
        <ele>120.5</ele>
        <time>2015-01-19T20:14:30.977Z</time>
      </trkpt>
      <trkpt lat="48.85957" lon="2.27492">
        <ele>120.4</ele>
        <time>2015-01-19T20:14:32.013Z</time>
      </trkpt>
      <trkpt lat="48.85959" lon="2.2748">
        <ele>120.2</ele>
        <time>2015-01-19T20:14:33.918Z</time>
      </trkpt>
      <trkpt lat="48.85959" lon="2.27471">
        <ele>120.4</ele>
        <time>2015-01-19T20:14:34.913Z</time>
      </trkpt>
      <trkpt lat="48.85962" lon="2.27459">
        <ele>119.4</ele>
        <time>2015-01-19T20:14:40.137Z</time>
      </trkpt>
      <trkpt lat="48.85963" lon="2.27454">
        <ele>118.7</ele>
        <time>2015-01-19T20:14:41Z</time>
      </trkpt>
      <trkpt lat="48.85963" lon="2.27449">
        <ele>118.2</ele>
        <time>2015-01-19T20:14:41.965Z</time>
      </trkpt>
      <trkpt lat="48.85963" lon="2.2744">
        <ele>115.6</ele>
        <time>2015-01-19T20:14:42.968Z</time>
      </trkpt>
      <trkpt lat="48.85962" lon="2.27427">
        <ele>113.6</ele>
        <time>2015-01-19T20:14:44.959Z</time>
      </trkpt>
      <trkpt lat="48.8596" lon="2.27423">
        <ele>113.7</ele>
        <time>2015-01-19T20:14:45.964Z</time>
      </trkpt>
      <trkpt lat="48.85956" lon="2.27411">
        <ele>113.8</ele>
        <time>2015-01-19T20:14:50.140Z</time>
      </trkpt>
      <trkpt lat="48.85953" lon="2.27412">
        <ele>113.9</ele>
        <time>2015-01-19T20:14:51.031Z</time>
      </trkpt>
      <trkpt lat="48.85948" lon="2.27403">
        <ele>114.3</ele>
        <time>2015-01-19T20:14:53.963Z</time>
      </trkpt>
      <trkpt lat="48.85947" lon="2.274">
        <ele>114.5</ele>
        <time>2015-01-19T20:14:54.882Z</time>
      </trkpt>
      <trkpt lat="48.85941" lon="2.27395">
        <ele>114.6</ele>
        <time>2015-01-19T20:14:56.925Z</time>
      </trkpt>
      <trkpt lat="48.85937" lon="2.27394">
        <ele>114.7</ele>
        <time>2015-01-19T20:14:57.939Z</time>
      </trkpt>
      <trkpt lat="48.8593" lon="2.2739">
        <ele>114.7</ele>
        <time>2015-01-19T20:14:59.972Z</time>
      </trkpt>
      <trkpt lat="48.85926" lon="2.27386">
        <ele>115.1</ele>
        <time>2015-01-19T20:15:00.994Z</time>
      </trkpt>
      <trkpt lat="48.85919" lon="2.27381">
        <ele>115.6</ele>
        <time>2015-01-19T20:15:02.938Z</time>
      </trkpt>
      <trkpt lat="48.85915" lon="2.27379">
        <ele>115.9</ele>
        <time>2015-01-19T20:15:03.947Z</time>
      </trkpt>
      <trkpt lat="48.8591" lon="2.27374">
        <ele>116</ele>
        <time>2015-01-19T20:15:05.975Z</time>
      </trkpt>
      <trkpt lat="48.85907" lon="2.27373">
        <ele>116.1</ele>
        <time>2015-01-19T20:15:06.897Z</time>
      </trkpt>
      <trkpt lat="48.85899" lon="2.27367">
        <ele>116</ele>
        <time>2015-01-19T20:15:09.938Z</time>
      </trkpt>
      <trkpt lat="48.85897" lon="2.27365">
        <ele>116</ele>
        <time>2015-01-19T20:15:10.960Z</time>
      </trkpt>
      <trkpt lat="48.85889" lon="2.27357">
        <ele>115.9</ele>
        <time>2015-01-19T20:15:13.933Z</time>
      </trkpt>
      <trkpt lat="48.85888" lon="2.27352">
        <ele>115.7</ele>
        <time>2015-01-19T20:15:14.951Z</time>
      </trkpt>
      <trkpt lat="48.85881" lon="2.27345">
        <ele>115.8</ele>
        <time>2015-01-19T20:15:16.983Z</time>
      </trkpt>
      <trkpt lat="48.85878" lon="2.27339">
        <ele>116.4</ele>
        <time>2015-01-19T20:15:17.904Z</time>
      </trkpt>
      <trkpt lat="48.85874" lon="2.27328">
        <ele>116</ele>
        <time>2015-01-19T20:15:19.940Z</time>
      </trkpt>
      <trkpt lat="48.85871" lon="2.27323">
        <ele>115.9</ele>
        <time>2015-01-19T20:15:20.940Z</time>
      </trkpt>
      <trkpt lat="48.85865" lon="2.27313">
        <ele>115.7</ele>
        <time>2015-01-19T20:15:22.973Z</time>
      </trkpt>
      <trkpt lat="48.8586" lon="2.2731">
        <ele>115.5</ele>
        <time>2015-01-19T20:15:23.987Z</time>
      </trkpt>
      <trkpt lat="48.85856" lon="2.27303">
        <ele>113.9</ele>
        <time>2015-01-19T20:15:24.946Z</time>
      </trkpt>
      <trkpt lat="48.85852" lon="2.27296">
        <ele>113.5</ele>
        <time>2015-01-19T20:15:25.956Z</time>
      </trkpt>
      <trkpt lat="48.85847" lon="2.27286">
        <ele>112</ele>
        <time>2015-01-19T20:15:27.892Z</time>
      </trkpt>
      <trkpt lat="48.85845" lon="2.27281">
        <ele>110.9</ele>
        <time>2015-01-19T20:15:28.900Z</time>
      </trkpt>
      <trkpt lat="48.85842" lon="2.2727">
        <ele>108.3</ele>
        <time>2015-01-19T20:15:31.981Z</time>
      </trkpt>
      <trkpt lat="48.8584" lon="2.27268">
        <ele>107.6</ele>
        <time>2015-01-19T20:15:32.987Z</time>
      </trkpt>
      <trkpt lat="48.85832" lon="2.27263">
        <ele>106</ele>
        <time>2015-01-19T20:15:36.977Z</time>
      </trkpt>
      <trkpt lat="48.8583" lon="2.27263">
        <ele>105.6</ele>
        <time>2015-01-19T20:15:37.991Z</time>
      </trkpt>
      <trkpt lat="48.85825" lon="2.2726">
        <ele>105.6</ele>
        <time>2015-01-19T20:15:41.917Z</time>
      </trkpt>
      <trkpt lat="48.85824" lon="2.27259">
        <ele>105.6</ele>
        <time>2015-01-19T20:15:42.926Z</time>
      </trkpt>
      <trkpt lat="48.85824" lon="2.27259">
        <ele>105.6</ele>
        <time>2015-01-19T20:15:44.955Z</time>
      </trkpt>
      <trkpt lat="48.85823" lon="2.27259">
        <ele>105.7</ele>
        <time>2015-01-19T20:15:46Z</time>
      </trkpt>
      <trkpt lat="48.85816" lon="2.27259">
        <ele>105.9</ele>
        <time>2015-01-19T20:15:49.950Z</time>
      </trkpt>
      <trkpt lat="48.85814" lon="2.2726">
        <ele>105.8</ele>
        <time>2015-01-19T20:15:50.970Z</time>
      </trkpt>
      <trkpt lat="48.85805" lon="2.27258">
        <ele>105.9</ele>
        <time>2015-01-19T20:15:54.923Z</time>
      </trkpt>
      <trkpt lat="48.85803" lon="2.27255">
        <ele>105.9</ele>
        <time>2015-01-19T20:15:55.942Z</time>
      </trkpt>
      <trkpt lat="48.85799" lon="2.27246">
        <ele>105.9</ele>
        <time>2015-01-19T20:15:57.966Z</time>
      </trkpt>
      <trkpt lat="48.85797" lon="2.27241">
        <ele>105.8</ele>
        <time>2015-01-19T20:15:58.922Z</time>
      </trkpt>
      <trkpt lat="48.85793" lon="2.2723">
        <ele>105.5</ele>
        <time>2015-01-19T20:16:00.909Z</time>
      </trkpt>
      <trkpt lat="48.85794" lon="2.2722">
        <ele>105.3</ele>
        <time>2015-01-19T20:16:01.922Z</time>
      </trkpt>
      <trkpt lat="48.85793" lon="2.27213">
        <ele>105.2</ele>
        <time>2015-01-19T20:16:02.951Z</time>
      </trkpt>
      <trkpt lat="48.85791" lon="2.27206">
        <ele>104.7</ele>
        <time>2015-01-19T20:16:03.958Z</time>
      </trkpt>
      <trkpt lat="48.85789" lon="2.27199">
        <ele>104.5</ele>
        <time>2015-01-19T20:16:04.992Z</time>
      </trkpt>
      <trkpt lat="48.85788" lon="2.27192">
        <ele>104.3</ele>
        <time>2015-01-19T20:16:05.907Z</time>
      </trkpt>
      <trkpt lat="48.85786" lon="2.27184">
        <ele>104</ele>
        <time>2015-01-19T20:16:07.025Z</time>
      </trkpt>
      <trkpt lat="48.85784" lon="2.27176">
        <ele>103.7</ele>
        <time>2015-01-19T20:16:07.928Z</time>
      </trkpt>
      <trkpt lat="48.85781" lon="2.27169">
        <ele>103.4</ele>
        <time>2015-01-19T20:16:08.944Z</time>
      </trkpt>
      <trkpt lat="48.85779" lon="2.27161">
        <ele>103.1</ele>
        <time>2015-01-19T20:16:09.959Z</time>
      </trkpt>
      <trkpt lat="48.85776" lon="2.27154">
        <ele>102.9</ele>
        <time>2015-01-19T20:16:10.961Z</time>
      </trkpt>
      <trkpt lat="48.85773" lon="2.27147">
        <ele>102.7</ele>
        <time>2015-01-19T20:16:11.989Z</time>
      </trkpt>
      <trkpt lat="48.85771" lon="2.27139">
        <ele>102.5</ele>
        <time>2015-01-19T20:16:12.878Z</time>
      </trkpt>
      <trkpt lat="48.85769" lon="2.27131">
        <ele>102.1</ele>
        <time>2015-01-19T20:16:13.902Z</time>
      </trkpt>
      <trkpt lat="48.85768" lon="2.27122">
        <ele>102</ele>
        <time>2015-01-19T20:16:14.908Z</time>
      </trkpt>
      <trkpt lat="48.85766" lon="2.27113">
        <ele>101.7</ele>
        <time>2015-01-19T20:16:16.013Z</time>
      </trkpt>
      <trkpt lat="48.85764" lon="2.27104">
        <ele>101.4</ele>
        <time>2015-01-19T20:16:16.888Z</time>
      </trkpt>
      <trkpt lat="48.85763" lon="2.27095">
        <ele>101.3</ele>
        <time>2015-01-19T20:16:17.897Z</time>
      </trkpt>
      <trkpt lat="48.85761" lon="2.27087">
        <ele>101.2</ele>
        <time>2015-01-19T20:16:18.940Z</time>
      </trkpt>
      <trkpt lat="48.85759" lon="2.27078">
        <ele>101</ele>
        <time>2015-01-19T20:16:19.900Z</time>
      </trkpt>
      <trkpt lat="48.85758" lon="2.2707">
        <ele>100.8</ele>
        <time>2015-01-19T20:16:20.954Z</time>
      </trkpt>
      <trkpt lat="48.85756" lon="2.27061">
        <ele>100.7</ele>
        <time>2015-01-19T20:16:21.966Z</time>
      </trkpt>
      <trkpt lat="48.85754" lon="2.27053">
        <ele>100.4</ele>
        <time>2015-01-19T20:16:23.040Z</time>
      </trkpt>
      <trkpt lat="48.85753" lon="2.27045">
        <ele>100.1</ele>
        <time>2015-01-19T20:16:23.893Z</time>
      </trkpt>
      <trkpt lat="48.85752" lon="2.27037">
        <ele>100</ele>
        <time>2015-01-19T20:16:24.904Z</time>
      </trkpt>
      <trkpt lat="48.85751" lon="2.27028">
        <ele>99.9</ele>
        <time>2015-01-19T20:16:25.932Z</time>
      </trkpt>
      <trkpt lat="48.8575" lon="2.2702">
        <ele>99.8</ele>
        <time>2015-01-19T20:16:26.949Z</time>
      </trkpt>
      <trkpt lat="48.85748" lon="2.27012">
        <ele>99.8</ele>
        <time>2015-01-19T20:16:27.957Z</time>
      </trkpt>
      <trkpt lat="48.85746" lon="2.27005">
        <ele>99.8</ele>
        <time>2015-01-19T20:16:28.969Z</time>
      </trkpt>
      <trkpt lat="48.85743" lon="2.26998">
        <ele>99.7</ele>
        <time>2015-01-19T20:16:29.977Z</time>
      </trkpt>
      <trkpt lat="48.8574" lon="2.26992">
        <ele>99.7</ele>
        <time>2015-01-19T20:16:30.980Z</time>
      </trkpt>
      <trkpt lat="48.85738" lon="2.26985">
        <ele>99.7</ele>
        <time>2015-01-19T20:16:31.987Z</time>
      </trkpt>
      <trkpt lat="48.85736" lon="2.26978">
        <ele>99.6</ele>
        <time>2015-01-19T20:16:33Z</time>
      </trkpt>
      <trkpt lat="48.85734" lon="2.26971">
        <ele>99.6</ele>
        <time>2015-01-19T20:16:33.895Z</time>
      </trkpt>
      <trkpt lat="48.85733" lon="2.26963">
        <ele>99.5</ele>
        <time>2015-01-19T20:16:34.892Z</time>
      </trkpt>
      <trkpt lat="48.85731" lon="2.26957">
        <ele>99.3</ele>
        <time>2015-01-19T20:16:35.905Z</time>
      </trkpt>
      <trkpt lat="48.85729" lon="2.26944">
        <ele>99.2</ele>
        <time>2015-01-19T20:16:37.930Z</time>
      </trkpt>
      <trkpt lat="48.85728" lon="2.2694">
        <ele>99.1</ele>
        <time>2015-01-19T20:16:39.021Z</time>
      </trkpt>
      <trkpt lat="48.85721" lon="2.26933">
        <ele>99</ele>
        <time>2015-01-19T20:16:44.989Z</time>
      </trkpt>
      <trkpt lat="48.8572" lon="2.26933">
        <ele>99</ele>
        <time>2015-01-19T20:16:45.903Z</time>
      </trkpt>
      <trkpt lat="48.85719" lon="2.26932">
        <ele>99</ele>
        <time>2015-01-19T20:16:46.912Z</time>
      </trkpt>
      <trkpt lat="48.85719" lon="2.26932">
        <ele>99.2</ele>
        <time>2015-01-19T20:16:47.938Z</time>
      </trkpt>
      <trkpt lat="48.85719" lon="2.26931">
        <ele>99.3</ele>
        <time>2015-01-19T20:16:48.993Z</time>
      </trkpt>
      <trkpt lat="48.85721" lon="2.26921">
        <ele>99.4</ele>
        <time>2015-01-19T20:16:51.996Z</time>
      </trkpt>
      <trkpt lat="48.85721" lon="2.26917">
        <ele>99.3</ele>
        <time>2015-01-19T20:16:52.954Z</time>
      </trkpt>
      <trkpt lat="48.8572" lon="2.26909">
        <ele>99.1</ele>
        <time>2015-01-19T20:16:54.932Z</time>
      </trkpt>
      <trkpt lat="48.85719" lon="2.26904">
        <ele>98.8</ele>
        <time>2015-01-19T20:16:55.940Z</time>
      </trkpt>
      <trkpt lat="48.85717" lon="2.26891">
        <ele>98.3</ele>
        <time>2015-01-19T20:16:57.972Z</time>
      </trkpt>
      <trkpt lat="48.85716" lon="2.26885">
        <ele>98.1</ele>
        <time>2015-01-19T20:16:59.001Z</time>
      </trkpt>
      <trkpt lat="48.85713" lon="2.26874">
        <ele>97.6</ele>
        <time>2015-01-19T20:17:00.912Z</time>
      </trkpt>
      <trkpt lat="48.85712" lon="2.26867">
        <ele>97.6</ele>
        <time>2015-01-19T20:17:01.918Z</time>
      </trkpt>
      <trkpt lat="48.8571" lon="2.26855">
        <ele>97.4</ele>
        <time>2015-01-19T20:17:03.960Z</time>
      </trkpt>
      <trkpt lat="48.85709" lon="2.26849">
        <ele>97.4</ele>
        <time>2015-01-19T20:17:04.970Z</time>
      </trkpt>
      <trkpt lat="48.85708" lon="2.26842">
        <ele>97.2</ele>
        <time>2015-01-19T20:17:05.901Z</time>
      </trkpt>
      <trkpt lat="48.85707" lon="2.26835">
        <ele>97</ele>
        <time>2015-01-19T20:17:06.888Z</time>
      </trkpt>
      <trkpt lat="48.85706" lon="2.26827">
        <ele>96.9</ele>
        <time>2015-01-19T20:17:07.916Z</time>
      </trkpt>
      <trkpt lat="48.85705" lon="2.2682">
        <ele>96.6</ele>
        <time>2015-01-19T20:17:08.923Z</time>
      </trkpt>
      <trkpt lat="48.85703" lon="2.26814">
        <ele>96.5</ele>
        <time>2015-01-19T20:17:09.932Z</time>
      </trkpt>
      <trkpt lat="48.85702" lon="2.26806">
        <ele>96.4</ele>
        <time>2015-01-19T20:17:10.944Z</time>
      </trkpt>
      <trkpt lat="48.85701" lon="2.26798">
        <ele>96.3</ele>
        <time>2015-01-19T20:17:11.942Z</time>
      </trkpt>
      <trkpt lat="48.857" lon="2.26791">
        <ele>96.2</ele>
        <time>2015-01-19T20:17:12.956Z</time>
      </trkpt>
      <trkpt lat="48.85699" lon="2.26784">
        <ele>96</ele>
        <time>2015-01-19T20:17:13.963Z</time>
      </trkpt>
      <trkpt lat="48.85697" lon="2.26777">
        <ele>95.7</ele>
        <time>2015-01-19T20:17:14.969Z</time>
      </trkpt>
      <trkpt lat="48.85695" lon="2.2677">
        <ele>95.5</ele>
        <time>2015-01-19T20:17:15.980Z</time>
      </trkpt>
      <trkpt lat="48.85693" lon="2.26763">
        <ele>95.5</ele>
        <time>2015-01-19T20:17:16.987Z</time>
      </trkpt>
      <trkpt lat="48.85692" lon="2.2675">
        <ele>95.6</ele>
        <time>2015-01-19T20:17:18.912Z</time>
      </trkpt>
      <trkpt lat="48.85693" lon="2.26743">
        <ele>95.8</ele>
        <time>2015-01-19T20:17:19.928Z</time>
      </trkpt>
      <trkpt lat="48.8569" lon="2.26732">
        <ele>95.9</ele>
        <time>2015-01-19T20:17:21.967Z</time>
      </trkpt>
      <trkpt lat="48.85689" lon="2.26726">
        <ele>96</ele>
        <time>2015-01-19T20:17:22.882Z</time>
      </trkpt>
      <trkpt lat="48.85685" lon="2.26722">
        <ele>95.9</ele>
        <time>2015-01-19T20:17:23.905Z</time>
      </trkpt>
      <trkpt lat="48.85682" lon="2.26717">
        <ele>95.8</ele>
        <time>2015-01-19T20:17:24.905Z</time>
      </trkpt>
      <trkpt lat="48.85677" lon="2.26706">
        <ele>95.8</ele>
        <time>2015-01-19T20:17:26.939Z</time>
      </trkpt>
      <trkpt lat="48.85675" lon="2.26701">
        <ele>95.7</ele>
        <time>2015-01-19T20:17:27.938Z</time>
      </trkpt>
      <trkpt lat="48.85671" lon="2.26692">
        <ele>95.7</ele>
        <time>2015-01-19T20:17:29.957Z</time>
      </trkpt>
      <trkpt lat="48.85669" lon="2.26688">
        <ele>95.7</ele>
        <time>2015-01-19T20:17:30.977Z</time>
      </trkpt>
      <trkpt lat="48.85664" lon="2.26681">
        <ele>95.4</ele>
        <time>2015-01-19T20:17:33Z</time>
      </trkpt>
      <trkpt lat="48.85662" lon="2.26677">
        <ele>95.4</ele>
        <time>2015-01-19T20:17:33.912Z</time>
      </trkpt>
      <trkpt lat="48.85657" lon="2.26671">
        <ele>95.7</ele>
        <time>2015-01-19T20:17:35.937Z</time>
      </trkpt>
      <trkpt lat="48.85654" lon="2.26669">
        <ele>95.7</ele>
        <time>2015-01-19T20:17:36.946Z</time>
      </trkpt>
      <trkpt lat="48.85647" lon="2.26661">
        <ele>96.4</ele>
        <time>2015-01-19T20:17:39.987Z</time>
      </trkpt>
      <trkpt lat="48.85644" lon="2.26655">
        <ele>98</ele>
        <time>2015-01-19T20:17:41.003Z</time>
      </trkpt>
      <trkpt lat="48.85645" lon="2.26643">
        <ele>98.2</ele>
        <time>2015-01-19T20:17:47.938Z</time>
      </trkpt>
      <trkpt lat="48.85647" lon="2.26642">
        <ele>98.1</ele>
        <time>2015-01-19T20:17:49.027Z</time>
      </trkpt>
      <trkpt lat="48.85655" lon="2.26639">
        <ele>98.3</ele>
        <time>2015-01-19T20:17:53.912Z</time>
      </trkpt>
      <trkpt lat="48.85656" lon="2.26637">
        <ele>98.4</ele>
        <time>2015-01-19T20:17:54.928Z</time>
      </trkpt>
      <trkpt lat="48.85659" lon="2.26634">
        <ele>98.4</ele>
        <time>2015-01-19T20:17:57.924Z</time>
      </trkpt>
      <trkpt lat="48.85659" lon="2.26634">
        <ele>98.5</ele>
        <time>2015-01-19T20:17:58.960Z</time>
      </trkpt>
      <trkpt lat="48.85659" lon="2.26635">
        <ele>98.4</ele>
        <time>2015-01-19T20:18:03.989Z</time>
      </trkpt>
      <trkpt lat="48.85656" lon="2.26637">
        <ele>98.4</ele>
        <time>2015-01-19T20:18:05.030Z</time>
      </trkpt>
      <trkpt lat="48.85651" lon="2.26643">
        <ele>98.5</ele>
        <time>2015-01-19T20:18:08.963Z</time>
      </trkpt>
      <trkpt lat="48.8565" lon="2.26647">
        <ele>98.5</ele>
        <time>2015-01-19T20:18:09.888Z</time>
      </trkpt>
      <trkpt lat="48.85647" lon="2.2666">
        <ele>98.7</ele>
        <time>2015-01-19T20:18:13.995Z</time>
      </trkpt>
      <trkpt lat="48.85647" lon="2.26665">
        <ele>98.8</ele>
        <time>2015-01-19T20:18:14.905Z</time>
      </trkpt>
      <trkpt lat="48.85647" lon="2.26672">
        <ele>98.4</ele>
        <time>2015-01-19T20:18:15.940Z</time>
      </trkpt>
      <trkpt lat="48.85647" lon="2.26682">
        <ele>97.6</ele>
        <time>2015-01-19T20:18:16.951Z</time>
      </trkpt>
      <trkpt lat="48.85648" lon="2.26692">
        <ele>96.6</ele>
        <time>2015-01-19T20:18:17.967Z</time>
      </trkpt>
      <trkpt lat="48.85647" lon="2.26699">
        <ele>96.6</ele>
        <time>2015-01-19T20:18:18.869Z</time>
      </trkpt>
      <trkpt lat="48.85643" lon="2.26711">
        <ele>96.5</ele>
        <time>2015-01-19T20:18:20.888Z</time>
      </trkpt>
      <trkpt lat="48.85641" lon="2.26717">
        <ele>96.4</ele>
        <time>2015-01-19T20:18:21.899Z</time>
      </trkpt>
      <trkpt lat="48.85639" lon="2.26723">
        <ele>96.3</ele>
        <time>2015-01-19T20:18:22.909Z</time>
      </trkpt>
      <trkpt lat="48.85633" lon="2.26731">
        <ele>95.5</ele>
        <time>2015-01-19T20:18:23.926Z</time>
      </trkpt>
      <trkpt lat="48.8563" lon="2.26738">
        <ele>95.2</ele>
        <time>2015-01-19T20:18:24.963Z</time>
      </trkpt>
      <trkpt lat="48.85627" lon="2.26744">
        <ele>95</ele>
        <time>2015-01-19T20:18:25.981Z</time>
      </trkpt>
      <trkpt lat="48.85624" lon="2.26749">
        <ele>94.9</ele>
        <time>2015-01-19T20:18:26.885Z</time>
      </trkpt>
      <trkpt lat="48.85623" lon="2.2676">
        <ele>94.9</ele>
        <time>2015-01-19T20:18:28.922Z</time>
      </trkpt>
      <trkpt lat="48.85622" lon="2.26766">
        <ele>95.1</ele>
        <time>2015-01-19T20:18:29.936Z</time>
      </trkpt>
      <trkpt lat="48.85619" lon="2.26774">
        <ele>94.9</ele>
        <time>2015-01-19T20:18:30.952Z</time>
      </trkpt>
      <trkpt lat="48.85616" lon="2.26781">
        <ele>94.9</ele>
        <time>2015-01-19T20:18:31.980Z</time>
      </trkpt>
      <trkpt lat="48.85613" lon="2.26788">
        <ele>95</ele>
        <time>2015-01-19T20:18:32.988Z</time>
      </trkpt>
      <trkpt lat="48.85609" lon="2.26795">
        <ele>95.5</ele>
        <time>2015-01-19T20:18:34.877Z</time>
      </trkpt>
      <trkpt lat="48.85607" lon="2.26799">
        <ele>96</ele>
        <time>2015-01-19T20:18:35.880Z</time>
      </trkpt>
      <trkpt lat="48.85604" lon="2.2681">
        <ele>97.6</ele>
        <time>2015-01-19T20:18:38.894Z</time>
      </trkpt>
      <trkpt lat="48.85603" lon="2.26814">
        <ele>98.4</ele>
        <time>2015-01-19T20:18:39.876Z</time>
      </trkpt>
      <trkpt lat="48.85603" lon="2.26827">
        <ele>99.3</ele>
        <time>2015-01-19T20:18:41.889Z</time>
      </trkpt>
      <trkpt lat="48.85601" lon="2.26831">
        <ele>99.4</ele>
        <time>2015-01-19T20:18:42.914Z</time>
      </trkpt>
      <trkpt lat="48.85597" lon="2.2684">
        <ele>99.8</ele>
        <time>2015-01-19T20:18:44.974Z</time>
      </trkpt>
      <trkpt lat="48.85596" lon="2.26847">
        <ele>100.2</ele>
        <time>2015-01-19T20:18:45.885Z</time>
      </trkpt>
      <trkpt lat="48.85592" lon="2.26859">
        <ele>100.9</ele>
        <time>2015-01-19T20:18:47.914Z</time>
      </trkpt>
      <trkpt lat="48.85591" lon="2.26865">
        <ele>101.2</ele>
        <time>2015-01-19T20:18:48.934Z</time>
      </trkpt>
      <trkpt lat="48.8559" lon="2.26877">
        <ele>101.6</ele>
        <time>2015-01-19T20:18:50.910Z</time>
      </trkpt>
      <trkpt lat="48.85588" lon="2.26882">
        <ele>101.9</ele>
        <time>2015-01-19T20:18:51.910Z</time>
      </trkpt>
      <trkpt lat="48.85586" lon="2.26893">
        <ele>102.3</ele>
        <time>2015-01-19T20:18:54.097Z</time>
      </trkpt>
      <trkpt lat="48.85586" lon="2.26897">
        <ele>102.2</ele>
        <time>2015-01-19T20:18:54.926Z</time>
      </trkpt>
      <trkpt lat="48.85583" lon="2.26908">
        <ele>102.6</ele>
        <time>2015-01-19T20:18:57.916Z</time>
      </trkpt>
      <trkpt lat="48.85581" lon="2.26912">
        <ele>102.9</ele>
        <time>2015-01-19T20:18:58.931Z</time>
      </trkpt>
      <trkpt lat="48.85573" lon="2.26918">
        <ele>103.1</ele>
        <time>2015-01-19T20:19:00.888Z</time>
      </trkpt>
      <trkpt lat="48.8557" lon="2.2692">
        <ele>103.2</ele>
        <time>2015-01-19T20:19:01.926Z</time>
      </trkpt>
      <trkpt lat="48.85565" lon="2.26928">
        <ele>103.6</ele>
        <time>2015-01-19T20:19:03.890Z</time>
      </trkpt>
      <trkpt lat="48.85563" lon="2.26932">
        <ele>103.8</ele>
        <time>2015-01-19T20:19:04.952Z</time>
      </trkpt>
      <trkpt lat="48.8556" lon="2.2694">
        <ele>104</ele>
        <time>2015-01-19T20:19:06.902Z</time>
      </trkpt>
      <trkpt lat="48.85558" lon="2.26943">
        <ele>104.2</ele>
        <time>2015-01-19T20:19:07.921Z</time>
      </trkpt>
      <trkpt lat="48.85553" lon="2.26952">
        <ele>104.8</ele>
        <time>2015-01-19T20:19:11.893Z</time>
      </trkpt>
      <trkpt lat="48.85558" lon="2.26957">
        <ele>103.1</ele>
        <time>2015-01-19T20:19:12.910Z</time>
      </trkpt>
      <trkpt lat="48.8556" lon="2.26969">
        <ele>99.8</ele>
        <time>2015-01-19T20:19:16.904Z</time>
      </trkpt>
      <trkpt lat="48.85561" lon="2.26971">
        <ele>99.2</ele>
        <time>2015-01-19T20:19:17.901Z</time>
      </trkpt>
      <trkpt lat="48.85554" lon="2.26973">
        <ele>98.5</ele>
        <time>2015-01-19T20:19:23.984Z</time>
      </trkpt>
      <trkpt lat="48.85551" lon="2.26974">
        <ele>98.5</ele>
        <time>2015-01-19T20:19:24.896Z</time>
      </trkpt>
      <trkpt lat="48.85545" lon="2.26972">
        <ele>98.6</ele>
        <time>2015-01-19T20:19:26.926Z</time>
      </trkpt>
      <trkpt lat="48.85541" lon="2.26971">
        <ele>98.6</ele>
        <time>2015-01-19T20:19:27.938Z</time>
      </trkpt>
      <trkpt lat="48.85534" lon="2.26968">
        <ele>98.6</ele>
        <time>2015-01-19T20:19:30.921Z</time>
      </trkpt>
      <trkpt lat="48.85532" lon="2.26966">
        <ele>98.6</ele>
        <time>2015-01-19T20:19:31.940Z</time>
      </trkpt>
      <trkpt lat="48.85524" lon="2.26959">
        <ele>98.8</ele>
        <time>2015-01-19T20:19:34.909Z</time>
      </trkpt>
      <trkpt lat="48.85521" lon="2.26958">
        <ele>98.8</ele>
        <time>2015-01-19T20:19:35.904Z</time>
      </trkpt>
      <trkpt lat="48.85515" lon="2.26955">
        <ele>98.8</ele>
        <time>2015-01-19T20:19:37.917Z</time>
      </trkpt>
      <trkpt lat="48.85512" lon="2.26954">
        <ele>98.9</ele>
        <time>2015-01-19T20:19:38.987Z</time>
      </trkpt>
      <trkpt lat="48.85505" lon="2.2695">
        <ele>99.3</ele>
        <time>2015-01-19T20:19:40.856Z</time>
      </trkpt>
      <trkpt lat="48.85501" lon="2.26947">
        <ele>99.6</ele>
        <time>2015-01-19T20:19:41.884Z</time>
      </trkpt>
      <trkpt lat="48.85494" lon="2.26943">
        <ele>100.2</ele>
        <time>2015-01-19T20:19:43.914Z</time>
      </trkpt>
      <trkpt lat="48.85489" lon="2.26939">
        <ele>98.9</ele>
        <time>2015-01-19T20:19:44.924Z</time>
      </trkpt>
      <trkpt lat="48.85491" lon="2.26929">
        <ele>98</ele>
        <time>2015-01-19T20:19:46.872Z</time>
      </trkpt>
      <trkpt lat="48.85524" lon="2.26826">
        <ele>97.2</ele>
        <time>2015-01-19T20:20:03.908Z</time>
      </trkpt>
      <trkpt lat="48.85526" lon="2.26813">
        <ele>97.4</ele>
        <time>2015-01-19T20:20:05.936Z</time>
      </trkpt>
      <trkpt lat="48.85528" lon="2.26807">
        <ele>97.4</ele>
        <time>2015-01-19T20:20:06.947Z</time>
      </trkpt>
      <trkpt lat="48.85529" lon="2.26801">
        <ele>97.5</ele>
        <time>2015-01-19T20:20:07.879Z</time>
      </trkpt>
      <trkpt lat="48.85531" lon="2.26794">
        <ele>97.5</ele>
        <time>2015-01-19T20:20:08.882Z</time>
      </trkpt>
      <trkpt lat="48.85532" lon="2.26787">
        <ele>97.6</ele>
        <time>2015-01-19T20:20:09.898Z</time>
      </trkpt>
      <trkpt lat="48.85533" lon="2.26781">
        <ele>97.5</ele>
        <time>2015-01-19T20:20:10.914Z</time>
      </trkpt>
      <trkpt lat="48.85537" lon="2.26769">
        <ele>97.4</ele>
        <time>2015-01-19T20:20:12.927Z</time>
      </trkpt>
      <trkpt lat="48.8554" lon="2.26764">
        <ele>97.3</ele>
        <time>2015-01-19T20:20:13.935Z</time>
      </trkpt>
      <trkpt lat="48.85544" lon="2.26752">
        <ele>97.3</ele>
        <time>2015-01-19T20:20:15.954Z</time>
      </trkpt>
      <trkpt lat="48.85545" lon="2.26747">
        <ele>97.3</ele>
        <time>2015-01-19T20:20:17.149Z</time>
      </trkpt>
      <trkpt lat="48.85548" lon="2.26734">
        <ele>97.3</ele>
        <time>2015-01-19T20:20:18.977Z</time>
      </trkpt>
      <trkpt lat="48.8555" lon="2.26728">
        <ele>97.3</ele>
        <time>2015-01-19T20:20:19.905Z</time>
      </trkpt>
      <trkpt lat="48.85553" lon="2.26715">
        <ele>97.1</ele>
        <time>2015-01-19T20:20:21.973Z</time>
      </trkpt>
      <trkpt lat="48.85555" lon="2.2671">
        <ele>97.1</ele>
        <time>2015-01-19T20:20:22.999Z</time>
      </trkpt>
      <trkpt lat="48.85556" lon="2.26703">
        <ele>96.9</ele>
        <time>2015-01-19T20:20:23.877Z</time>
      </trkpt>
      <trkpt lat="48.85559" lon="2.26618">
        <ele>97.6</ele>
        <time>2015-01-19T20:20:36.917Z</time>
      </trkpt>
      <trkpt lat="48.85555" lon="2.26614">
        <ele>96.4</ele>
        <time>2015-01-19T20:20:37.944Z</time>
      </trkpt>
      <trkpt lat="48.85551" lon="2.26609">
        <ele>95.7</ele>
        <time>2015-01-19T20:20:38.955Z</time>
      </trkpt>
      <trkpt lat="48.85545" lon="2.26604">
        <ele>95.6</ele>
        <time>2015-01-19T20:20:41.900Z</time>
      </trkpt>
      <trkpt lat="48.85542" lon="2.26602">
        <ele>95.5</ele>
        <time>2015-01-19T20:20:42.916Z</time>
      </trkpt>
      <trkpt lat="48.85534" lon="2.26596">
        <ele>96.1</ele>
        <time>2015-01-19T20:20:45.887Z</time>
      </trkpt>
      <trkpt lat="48.85532" lon="2.26594">
        <ele>96.4</ele>
        <time>2015-01-19T20:20:46.896Z</time>
      </trkpt>
      <trkpt lat="48.85525" lon="2.2659">
        <ele>96.4</ele>
        <time>2015-01-19T20:20:48.917Z</time>
      </trkpt>
      <trkpt lat="48.85521" lon="2.26588">
        <ele>96.4</ele>
        <time>2015-01-19T20:20:49.939Z</time>
      </trkpt>
      <trkpt lat="48.85512" lon="2.26585">
        <ele>95.8</ele>
        <time>2015-01-19T20:20:51.876Z</time>
      </trkpt>
      <trkpt lat="48.8551" lon="2.26583">
        <ele>96.3</ele>
        <time>2015-01-19T20:20:52.912Z</time>
      </trkpt>
      <trkpt lat="48.85501" lon="2.26581">
        <ele>96</ele>
        <time>2015-01-19T20:20:55.051Z</time>
      </trkpt>
      <trkpt lat="48.85498" lon="2.26581">
        <ele>96</ele>
        <time>2015-01-19T20:20:55.915Z</time>
      </trkpt>
      <trkpt lat="48.85495" lon="2.26593">
        <ele>97.4</ele>
        <time>2015-01-19T20:21:03.890Z</time>
      </trkpt>
      <trkpt lat="48.85495" lon="2.26595">
        <ele>97.6</ele>
        <time>2015-01-19T20:21:04.904Z</time>
      </trkpt>
      <trkpt lat="48.85495" lon="2.26595">
        <ele>97.7</ele>
        <time>2015-01-19T20:21:05.945Z</time>
      </trkpt>
      <trkpt lat="48.85496" lon="2.26595">
        <ele>97.7</ele>
        <time>2015-01-19T20:21:06.872Z</time>
      </trkpt>
      <trkpt lat="48.85494" lon="2.26587">
        <ele>100.8</ele>
        <time>2015-01-19T20:21:21.996Z</time>
      </trkpt>
      <trkpt lat="48.85494" lon="2.26587">
        <ele>101.1</ele>
        <time>2015-01-19T20:21:22.910Z</time>
      </trkpt>
      <trkpt lat="48.85495" lon="2.26587">
        <ele>101.4</ele>
        <time>2015-01-19T20:21:24.938Z</time>
      </trkpt>
      <trkpt lat="48.85494" lon="2.26586">
        <ele>102</ele>
        <time>2015-01-19T20:21:25.982Z</time>
      </trkpt>
      <trkpt lat="48.85499" lon="2.26577">
        <ele>103.1</ele>
        <time>2015-01-19T20:21:33.978Z</time>
      </trkpt>
      <trkpt lat="48.85504" lon="2.26571">
        <ele>103.4</ele>
        <time>2015-01-19T20:21:36.978Z</time>
      </trkpt>
      <trkpt lat="48.85504" lon="2.26572">
        <ele>104.1</ele>
        <time>2015-01-19T20:21:47.914Z</time>
      </trkpt>
      <trkpt lat="48.85503" lon="2.26573">
        <ele>104.1</ele>
        <time>2015-01-19T20:21:48.989Z</time>
      </trkpt>
      <trkpt lat="48.85502" lon="2.26574">
        <ele>104.1</ele>
        <time>2015-01-19T20:21:49.910Z</time>
      </trkpt>
      <trkpt lat="48.85497" lon="2.26583">
        <ele>104.2</ele>
        <time>2015-01-19T20:21:52.902Z</time>
      </trkpt>
      <trkpt lat="48.85496" lon="2.26585">
        <ele>104.4</ele>
        <time>2015-01-19T20:21:53.901Z</time>
      </trkpt>
      <trkpt lat="48.85491" lon="2.26592">
        <ele>104.5</ele>
        <time>2015-01-19T20:21:55.907Z</time>
      </trkpt>
      <trkpt lat="48.85487" lon="2.26598">
        <ele>104.1</ele>
        <time>2015-01-19T20:21:56.921Z</time>
      </trkpt>
      <trkpt lat="48.85483" lon="2.26604">
        <ele>103.7</ele>
        <time>2015-01-19T20:21:57.940Z</time>
      </trkpt>
      <trkpt lat="48.8548" lon="2.26609">
        <ele>103.5</ele>
        <time>2015-01-19T20:21:58.945Z</time>
      </trkpt>
      <trkpt lat="48.85475" lon="2.26619">
        <ele>102.7</ele>
        <time>2015-01-19T20:22:00.873Z</time>
      </trkpt>
      <trkpt lat="48.85473" lon="2.26624">
        <ele>102.3</ele>
        <time>2015-01-19T20:22:01.887Z</time>
      </trkpt>
      <trkpt lat="48.85473" lon="2.26629">
        <ele>101.7</ele>
        <time>2015-01-19T20:22:02.912Z</time>
      </trkpt>
      <trkpt lat="48.85472" lon="2.26645">
        <ele>100.9</ele>
        <time>2015-01-19T20:22:07.903Z</time>
      </trkpt>
      <trkpt lat="48.85475" lon="2.26657">
        <ele>99.2</ele>
        <time>2015-01-19T20:22:10.876Z</time>
      </trkpt>
      <trkpt lat="48.85474" lon="2.2666">
        <ele>99</ele>
        <time>2015-01-19T20:22:11.906Z</time>
      </trkpt>
      <trkpt lat="48.85471" lon="2.26672">
        <ele>98.3</ele>
        <time>2015-01-19T20:22:16.913Z</time>
      </trkpt>
      <trkpt lat="48.8547" lon="2.26673">
        <ele>98.3</ele>
        <time>2015-01-19T20:22:17.884Z</time>
      </trkpt>
      <trkpt lat="48.85467" lon="2.26676">
        <ele>98.1</ele>
        <time>2015-01-19T20:22:19.929Z</time>
      </trkpt>
      <trkpt lat="48.85463" lon="2.2668">
        <ele>97.8</ele>
        <time>2015-01-19T20:22:20.945Z</time>
      </trkpt>
      <trkpt lat="48.85457" lon="2.26687">
        <ele>97.4</ele>
        <time>2015-01-19T20:22:22.878Z</time>
      </trkpt>
      <trkpt lat="48.85456" lon="2.26689">
        <ele>97.5</ele>
        <time>2015-01-19T20:22:23.891Z</time>
      </trkpt>
      <trkpt lat="48.8545" lon="2.26698">
        <ele>97.9</ele>
        <time>2015-01-19T20:22:28.905Z</time>
      </trkpt>
      <trkpt lat="48.85448" lon="2.26699">
        <ele>98</ele>
        <time>2015-01-19T20:22:29.969Z</time>
      </trkpt>
      <trkpt lat="48.8544" lon="2.26704">
        <ele>97.9</ele>
        <time>2015-01-19T20:22:33.896Z</time>
      </trkpt>
      <trkpt lat="48.85439" lon="2.26704">
        <ele>97.8</ele>
        <time>2015-01-19T20:22:34.903Z</time>
      </trkpt>
      <trkpt lat="48.85434" lon="2.26714">
        <ele>100</ele>
        <time>2015-01-19T20:22:44.923Z</time>
      </trkpt>
      <trkpt lat="48.85433" lon="2.26715">
        <ele>100.2</ele>
        <time>2015-01-19T20:22:45.975Z</time>
      </trkpt>
      <trkpt lat="48.8543" lon="2.26716">
        <ele>101</ele>
        <time>2015-01-19T20:22:49.905Z</time>
      </trkpt>
      <trkpt lat="48.8543" lon="2.26715">
        <ele>101.3</ele>
        <time>2015-01-19T20:22:50.926Z</time>
      </trkpt>
      <trkpt lat="48.85429" lon="2.26713">
        <ele>102.2</ele>
        <time>2015-01-19T20:22:53.901Z</time>
      </trkpt>
      <trkpt lat="48.85427" lon="2.2671">
        <ele>102.8</ele>
        <time>2015-01-19T20:22:54.915Z</time>
      </trkpt>
      <trkpt lat="48.85423" lon="2.26699">
        <ele>106.3</ele>
        <time>2015-01-19T20:23:03.959Z</time>
      </trkpt>
      <trkpt lat="48.85425" lon="2.26697">
        <ele>106.7</ele>
        <time>2015-01-19T20:23:04.896Z</time>
      </trkpt>
      <trkpt lat="48.85432" lon="2.26694">
        <ele>108.3</ele>
        <time>2015-01-19T20:23:19.921Z</time>
      </trkpt>
      <trkpt lat="48.85433" lon="2.26694">
        <ele>108.5</ele>
        <time>2015-01-19T20:23:20.941Z</time>
      </trkpt>
      <trkpt lat="48.85442" lon="2.26692">
        <ele>108.5</ele>
        <time>2015-01-19T20:23:28.112Z</time>
      </trkpt>
      <trkpt lat="48.85443" lon="2.26693">
        <ele>107.8</ele>
        <time>2015-01-19T20:23:28.959Z</time>
      </trkpt>
      <trkpt lat="48.8545" lon="2.26685">
        <ele>105.7</ele>
        <time>2015-01-19T20:23:47.923Z</time>
      </trkpt>
      <trkpt lat="48.8545" lon="2.26683">
        <ele>105.5</ele>
        <time>2015-01-19T20:23:48.984Z</time>
      </trkpt>
      <trkpt lat="48.85453" lon="2.26671">
        <ele>105.5</ele>
        <time>2015-01-19T20:23:55.894Z</time>
      </trkpt>
      <trkpt lat="48.85454" lon="2.2667">
        <ele>105.3</ele>
        <time>2015-01-19T20:23:56.906Z</time>
      </trkpt>
      <trkpt lat="48.85456" lon="2.26657">
        <ele>104.9</ele>
        <time>2015-01-19T20:24:02.926Z</time>
      </trkpt>
      <trkpt lat="48.85457" lon="2.26655">
        <ele>104.8</ele>
        <time>2015-01-19T20:24:03.924Z</time>
      </trkpt>
      <trkpt lat="48.85461" lon="2.26649">
        <ele>104.7</ele>
        <time>2015-01-19T20:24:07.908Z</time>
      </trkpt>
      <trkpt lat="48.85463" lon="2.26644">
        <ele>105</ele>
        <time>2015-01-19T20:24:09.934Z</time>
      </trkpt>
      <trkpt lat="48.85468" lon="2.26633">
        <ele>105.2</ele>
        <time>2015-01-19T20:24:13.907Z</time>
      </trkpt>
      <trkpt lat="48.85469" lon="2.26632">
        <ele>105.3</ele>
        <time>2015-01-19T20:24:14.919Z</time>
      </trkpt>
      <trkpt lat="48.85475" lon="2.26622">
        <ele>105.5</ele>
        <time>2015-01-19T20:24:18.893Z</time>
      </trkpt>
      <trkpt lat="48.85476" lon="2.2662">
        <ele>105.8</ele>
        <time>2015-01-19T20:24:19.924Z</time>
      </trkpt>
      <trkpt lat="48.85482" lon="2.26611">
        <ele>107.1</ele>
        <time>2015-01-19T20:24:23.884Z</time>
      </trkpt>
      <trkpt lat="48.85483" lon="2.2661">
        <ele>107.6</ele>
        <time>2015-01-19T20:24:24.898Z</time>
      </trkpt>
      <trkpt lat="48.85485" lon="2.26609">
        <ele>108.6</ele>
        <time>2015-01-19T20:24:26.927Z</time>
      </trkpt>
      <trkpt lat="48.85485" lon="2.26611">
        <ele>110.2</ele>
        <time>2015-01-19T20:24:27.947Z</time>
      </trkpt>
      <trkpt lat="48.85486" lon="2.26614">
        <ele>111.6</ele>
        <time>2015-01-19T20:24:28.959Z</time>
      </trkpt>
      <trkpt lat="48.85487" lon="2.26615">
        <ele>112.6</ele>
        <time>2015-01-19T20:24:29.971Z</time>
      </trkpt>
      <trkpt lat="48.85488" lon="2.26616">
        <ele>114.4</ele>
        <time>2015-01-19T20:24:31.891Z</time>
      </trkpt>
      <trkpt lat="48.85488" lon="2.26616">
        <ele>114.9</ele>
        <time>2015-01-19T20:24:32.943Z</time>
      </trkpt>
      <trkpt lat="48.85489" lon="2.26616">
        <ele>115.4</ele>
        <time>2015-01-19T20:24:33.975Z</time>
      </trkpt>
      <trkpt lat="48.8549" lon="2.26616">
        <ele>116.1</ele>
        <time>2015-01-19T20:24:34.857Z</time>
      </trkpt>
      <trkpt lat="48.8549" lon="2.26615">
        <ele>116.5</ele>
        <time>2015-01-19T20:24:35.887Z</time>
      </trkpt>
      <trkpt lat="48.85489" lon="2.26615">
        <ele>116.8</ele>
        <time>2015-01-19T20:24:36.911Z</time>
      </trkpt>
      <trkpt lat="48.85487" lon="2.26613">
        <ele>120.3</ele>
        <time>2015-01-19T20:24:44.989Z</time>
      </trkpt>
      <trkpt lat="48.85487" lon="2.26612">
        <ele>120.7</ele>
        <time>2015-01-19T20:24:45.902Z</time>
      </trkpt>
      <trkpt lat="48.85488" lon="2.26612">
        <ele>120.8</ele>
        <time>2015-01-19T20:24:49.904Z</time>
      </trkpt>
      <trkpt lat="48.85487" lon="2.26613">
        <ele>122.4</ele>
        <time>2015-01-19T20:24:50.883Z</time>
      </trkpt>
      <trkpt lat="48.85487" lon="2.26613">
        <ele>123.3</ele>
        <time>2015-01-19T20:24:51.889Z</time>
      </trkpt>
      <trkpt lat="48.85487" lon="2.26613">
        <ele>124.2</ele>
        <time>2015-01-19T20:24:52.901Z</time>
      </trkpt>
      <trkpt lat="48.85486" lon="2.26615">
        <ele>124.9</ele>
        <time>2015-01-19T20:24:53.974Z</time>
      </trkpt>
      <trkpt lat="48.85483" lon="2.26627">
        <ele>124.6</ele>
        <time>2015-01-19T20:25:02.942Z</time>
      </trkpt>
      <trkpt lat="48.85483" lon="2.26628">
        <ele>124.7</ele>
        <time>2015-01-19T20:25:03.972Z</time>
      </trkpt>
      <trkpt lat="48.85477" lon="2.2662">
        <ele>128.3</ele>
        <time>2015-01-19T20:25:40.982Z</time>
      </trkpt>
      <trkpt lat="48.85474" lon="2.2662">
        <ele>128.7</ele>
        <time>2015-01-19T20:25:41.892Z</time>
      </trkpt>
      <trkpt lat="48.85466" lon="2.26619">
        <ele>129.3</ele>
        <time>2015-01-19T20:25:43.914Z</time>
      </trkpt>
      <trkpt lat="48.85462" lon="2.26619">
        <ele>129.6</ele>
        <time>2015-01-19T20:25:44.916Z</time>
      </trkpt>
      <trkpt lat="48.85455" lon="2.26616">
        <ele>129.9</ele>
        <time>2015-01-19T20:25:46.969Z</time>
      </trkpt>
      <trkpt lat="48.85451" lon="2.26612">
        <ele>129.9</ele>
        <time>2015-01-19T20:25:47.901Z</time>
      </trkpt>
      <trkpt lat="48.85444" lon="2.26606">
        <ele>129.8</ele>
        <time>2015-01-19T20:25:49.948Z</time>
      </trkpt>
      <trkpt lat="48.85441" lon="2.26604">
        <ele>129.6</ele>
        <time>2015-01-19T20:25:50.956Z</time>
      </trkpt>
      <trkpt lat="48.85434" lon="2.26598">
        <ele>129.8</ele>
        <time>2015-01-19T20:25:52.893Z</time>
      </trkpt>
      <trkpt lat="48.8543" lon="2.26595">
        <ele>129.9</ele>
        <time>2015-01-19T20:25:53.892Z</time>
      </trkpt>
      <trkpt lat="48.85423" lon="2.26592">
        <ele>130.5</ele>
        <time>2015-01-19T20:25:55.959Z</time>
      </trkpt>
      <trkpt lat="48.85419" lon="2.26591">
        <ele>130.8</ele>
        <time>2015-01-19T20:25:56.988Z</time>
      </trkpt>
      <trkpt lat="48.85414" lon="2.2659">
        <ele>130.9</ele>
        <time>2015-01-19T20:25:57.880Z</time>
      </trkpt>
      <trkpt lat="48.85394" lon="2.26584">
        <ele>130.4</ele>
        <time>2015-01-19T20:26:03.944Z</time>
      </trkpt>
      <trkpt lat="48.85388" lon="2.26577">
        <ele>130.2</ele>
        <time>2015-01-19T20:26:06.912Z</time>
      </trkpt>
      <trkpt lat="48.85386" lon="2.26573">
        <ele>130.2</ele>
        <time>2015-01-19T20:26:07.934Z</time>
      </trkpt>
      <trkpt lat="48.85381" lon="2.26567">
        <ele>130.1</ele>
        <time>2015-01-19T20:26:09.921Z</time>
      </trkpt>
      <trkpt lat="48.85377" lon="2.26564">
        <ele>129.9</ele>
        <time>2015-01-19T20:26:10.884Z</time>
      </trkpt>
      <trkpt lat="48.85374" lon="2.26558">
        <ele>129.3</ele>
        <time>2015-01-19T20:26:11.927Z</time>
      </trkpt>
      <trkpt lat="48.8537" lon="2.26555">
        <ele>129.2</ele>
        <time>2015-01-19T20:26:12.933Z</time>
      </trkpt>
      <trkpt lat="48.85363" lon="2.26553">
        <ele>129</ele>
        <time>2015-01-19T20:26:14.982Z</time>
      </trkpt>
      <trkpt lat="48.85359" lon="2.26551">
        <ele>129</ele>
        <time>2015-01-19T20:26:15.881Z</time>
      </trkpt>
      <trkpt lat="48.85351" lon="2.26547">
        <ele>128.7</ele>
        <time>2015-01-19T20:26:17.904Z</time>
      </trkpt>
      <trkpt lat="48.85347" lon="2.26543">
        <ele>128.5</ele>
        <time>2015-01-19T20:26:18.924Z</time>
      </trkpt>
      <trkpt lat="48.85343" lon="2.26537">
        <ele>128.3</ele>
        <time>2015-01-19T20:26:19.886Z</time>
      </trkpt>
      <trkpt lat="48.85339" lon="2.26534">
        <ele>128.1</ele>
        <time>2015-01-19T20:26:20.919Z</time>
      </trkpt>
      <trkpt lat="48.85333" lon="2.26526">
        <ele>128</ele>
        <time>2015-01-19T20:26:22.975Z</time>
      </trkpt>
      <trkpt lat="48.8533" lon="2.26522">
        <ele>127.9</ele>
        <time>2015-01-19T20:26:23.975Z</time>
      </trkpt>
      <trkpt lat="48.85322" lon="2.26516">
        <ele>127.5</ele>
        <time>2015-01-19T20:26:25.889Z</time>
      </trkpt>
      <trkpt lat="48.85317" lon="2.26513">
        <ele>127.2</ele>
        <time>2015-01-19T20:26:26.945Z</time>
      </trkpt>
      <trkpt lat="48.85312" lon="2.26512">
        <ele>126.9</ele>
        <time>2015-01-19T20:26:27.870Z</time>
      </trkpt>
      <trkpt lat="48.85308" lon="2.26511">
        <ele>126.7</ele>
        <time>2015-01-19T20:26:28.868Z</time>
      </trkpt>
      <trkpt lat="48.85301" lon="2.26508">
        <ele>126.5</ele>
        <time>2015-01-19T20:26:30.882Z</time>
      </trkpt>
      <trkpt lat="48.85298" lon="2.26507">
        <ele>126.5</ele>
        <time>2015-01-19T20:26:31.898Z</time>
      </trkpt>
      <trkpt lat="48.8529" lon="2.26507">
        <ele>126.8</ele>
        <time>2015-01-19T20:26:37.872Z</time>
      </trkpt>
      <trkpt lat="48.85288" lon="2.26508">
        <ele>126.7</ele>
        <time>2015-01-19T20:26:38.914Z</time>
      </trkpt>
      <trkpt lat="48.8528" lon="2.26513">
        <ele>126.5</ele>
        <time>2015-01-19T20:26:43.933Z</time>
      </trkpt>
      <trkpt lat="48.85279" lon="2.26513">
        <ele>126.5</ele>
        <time>2015-01-19T20:26:44.969Z</time>
      </trkpt>
      <trkpt lat="48.85272" lon="2.2652">
        <ele>126</ele>
        <time>2015-01-19T20:26:52.957Z</time>
      </trkpt>
      <trkpt lat="48.8527" lon="2.26522">
        <ele>125.8</ele>
        <time>2015-01-19T20:26:53.958Z</time>
      </trkpt>
      <trkpt lat="48.85263" lon="2.26525">
        <ele>125.6</ele>
        <time>2015-01-19T20:26:56.001Z</time>
      </trkpt>
      <trkpt lat="48.85261" lon="2.26528">
        <ele>125.4</ele>
        <time>2015-01-19T20:26:56.914Z</time>
      </trkpt>
      <trkpt lat="48.85255" lon="2.2653">
        <ele>125</ele>
        <time>2015-01-19T20:26:58.953Z</time>
      </trkpt>
      <trkpt lat="48.85251" lon="2.26533">
        <ele>124.7</ele>
        <time>2015-01-19T20:26:59.887Z</time>
      </trkpt>
      <trkpt lat="48.85247" lon="2.26537">
        <ele>124.5</ele>
        <time>2015-01-19T20:27:00.924Z</time>
      </trkpt>
      <trkpt lat="48.85242" lon="2.2654">
        <ele>124.4</ele>
        <time>2015-01-19T20:27:01.926Z</time>
      </trkpt>
      <trkpt lat="48.85238" lon="2.26545">
        <ele>124.5</ele>
        <time>2015-01-19T20:27:02.955Z</time>
      </trkpt>
      <trkpt lat="48.85234" lon="2.2655">
        <ele>124.6</ele>
        <time>2015-01-19T20:27:03.976Z</time>
      </trkpt>
      <trkpt lat="48.85229" lon="2.26554">
        <ele>124.6</ele>
        <time>2015-01-19T20:27:04.864Z</time>
      </trkpt>
      <trkpt lat="48.85225" lon="2.26558">
        <ele>124.7</ele>
        <time>2015-01-19T20:27:05.871Z</time>
      </trkpt>
      <trkpt lat="48.85218" lon="2.26565">
        <ele>124.6</ele>
        <time>2015-01-19T20:27:07.902Z</time>
      </trkpt>
      <trkpt lat="48.85216" lon="2.26568">
        <ele>124.7</ele>
        <time>2015-01-19T20:27:08.908Z</time>
      </trkpt>
      <trkpt lat="48.8521" lon="2.26574">
        <ele>124.9</ele>
        <time>2015-01-19T20:27:10.966Z</time>
      </trkpt>
      <trkpt lat="48.85206" lon="2.26579">
        <ele>124.8</ele>
        <time>2015-01-19T20:27:11.884Z</time>
      </trkpt>
      <trkpt lat="48.85202" lon="2.26583">
        <ele>124.8</ele>
        <time>2015-01-19T20:27:12.896Z</time>
      </trkpt>
      <trkpt lat="48.85197" lon="2.26588">
        <ele>124.7</ele>
        <time>2015-01-19T20:27:13.906Z</time>
      </trkpt>
      <trkpt lat="48.85193" lon="2.26593">
        <ele>124.7</ele>
        <time>2015-01-19T20:27:14.920Z</time>
      </trkpt>
      <trkpt lat="48.85189" lon="2.26596">
        <ele>124.6</ele>
        <time>2015-01-19T20:27:15.927Z</time>
      </trkpt>
      <trkpt lat="48.85181" lon="2.266">
        <ele>124.5</ele>
        <time>2015-01-19T20:27:17.937Z</time>
      </trkpt>
      <trkpt lat="48.85177" lon="2.26602">
        <ele>124.6</ele>
        <time>2015-01-19T20:27:18.941Z</time>
      </trkpt>
      <trkpt lat="48.85171" lon="2.26609">
        <ele>123.3</ele>
        <time>2015-01-19T20:27:20.965Z</time>
      </trkpt>
      <trkpt lat="48.85167" lon="2.26612">
        <ele>123.2</ele>
        <time>2015-01-19T20:27:21.892Z</time>
      </trkpt>
      <trkpt lat="48.85163" lon="2.26616">
        <ele>123.1</ele>
        <time>2015-01-19T20:27:22.881Z</time>
      </trkpt>
      <trkpt lat="48.85158" lon="2.26619">
        <ele>122.9</ele>
        <time>2015-01-19T20:27:23.879Z</time>
      </trkpt>
      <trkpt lat="48.8515" lon="2.26622">
        <ele>122.6</ele>
        <time>2015-01-19T20:27:25.924Z</time>
      </trkpt>
      <trkpt lat="48.85147" lon="2.26624">
        <ele>122.3</ele>
        <time>2015-01-19T20:27:26.956Z</time>
      </trkpt>
      <trkpt lat="48.85141" lon="2.2663">
        <ele>121.7</ele>
        <time>2015-01-19T20:27:28.883Z</time>
      </trkpt>
      <trkpt lat="48.85138" lon="2.26634">
        <ele>121.4</ele>
        <time>2015-01-19T20:27:29.906Z</time>
      </trkpt>
      <trkpt lat="48.85131" lon="2.26637">
        <ele>121.3</ele>
        <time>2015-01-19T20:27:31.957Z</time>
      </trkpt>
      <trkpt lat="48.85127" lon="2.2664">
        <ele>121.3</ele>
        <time>2015-01-19T20:27:32.990Z</time>
      </trkpt>
      <trkpt lat="48.85074" lon="2.2668">
        <ele>120.1</ele>
        <time>2015-01-19T20:27:50.945Z</time>
      </trkpt>
      <trkpt lat="48.85073" lon="2.26685">
        <ele>118.6</ele>
        <time>2015-01-19T20:27:54.948Z</time>
      </trkpt>
      <trkpt lat="48.85073" lon="2.26687">
        <ele>118.2</ele>
        <time>2015-01-19T20:27:55.972Z</time>
      </trkpt>
      <trkpt lat="48.85073" lon="2.26689">
        <ele>117.8</ele>
        <time>2015-01-19T20:27:56.912Z</time>
      </trkpt>
      <trkpt lat="48.8507" lon="2.267">
        <ele>117.1</ele>
        <time>2015-01-19T20:27:59.883Z</time>
      </trkpt>
      <trkpt lat="48.85069" lon="2.26704">
        <ele>117</ele>
        <time>2015-01-19T20:28:00.896Z</time>
      </trkpt>
      <trkpt lat="48.85066" lon="2.26709">
        <ele>116.7</ele>
        <time>2015-01-19T20:28:02.994Z</time>
      </trkpt>
      <trkpt lat="48.84992" lon="2.26781">
        <ele>120.5</ele>
        <time>2015-01-19T20:28:28.942Z</time>
      </trkpt>
      <trkpt lat="48.84988" lon="2.26789">
        <ele>120.6</ele>
        <time>2015-01-19T20:28:30.872Z</time>
      </trkpt>
      <trkpt lat="48.84986" lon="2.26793">
        <ele>120.5</ele>
        <time>2015-01-19T20:28:31.896Z</time>
      </trkpt>
      <trkpt lat="48.84982" lon="2.26804">
        <ele>120.1</ele>
        <time>2015-01-19T20:28:34.958Z</time>
      </trkpt>
      <trkpt lat="48.84982" lon="2.26808">
        <ele>119.9</ele>
        <time>2015-01-19T20:28:35.930Z</time>
      </trkpt>
      <trkpt lat="48.84983" lon="2.26821">
        <ele>119</ele>
        <time>2015-01-19T20:28:37.909Z</time>
      </trkpt>
      <trkpt lat="48.84982" lon="2.26826">
        <ele>118.8</ele>
        <time>2015-01-19T20:28:38.917Z</time>
      </trkpt>
      <trkpt lat="48.84979" lon="2.26837">
        <ele>118.8</ele>
        <time>2015-01-19T20:28:40.867Z</time>
      </trkpt>
      <trkpt lat="48.84975" lon="2.26842">
        <ele>118.9</ele>
        <time>2015-01-19T20:28:41.881Z</time>
      </trkpt>
      <trkpt lat="48.84969" lon="2.26849">
        <ele>119</ele>
        <time>2015-01-19T20:28:43.906Z</time>
      </trkpt>
      <trkpt lat="48.84966" lon="2.2685">
        <ele>119</ele>
        <time>2015-01-19T20:28:44.922Z</time>
      </trkpt>
      <trkpt lat="48.84959" lon="2.26853">
        <ele>119.1</ele>
        <time>2015-01-19T20:28:46.974Z</time>
      </trkpt>
      <trkpt lat="48.84925" lon="2.26882">
        <ele>117.8</ele>
        <time>2015-01-19T20:28:53.971Z</time>
      </trkpt>
      <trkpt lat="48.8492" lon="2.26889">
        <ele>117.9</ele>
        <time>2015-01-19T20:28:54.923Z</time>
      </trkpt>
      <trkpt lat="48.84915" lon="2.26897">
        <ele>117.9</ele>
        <time>2015-01-19T20:28:55.927Z</time>
      </trkpt>
      <trkpt lat="48.84903" lon="2.2691">
        <ele>117.6</ele>
        <time>2015-01-19T20:28:59.912Z</time>
      </trkpt>
      <trkpt lat="48.849" lon="2.26919">
        <ele>117.9</ele>
        <time>2015-01-19T20:29:02.979Z</time>
      </trkpt>
      <trkpt lat="48.84899" lon="2.26923">
        <ele>118</ele>
        <time>2015-01-19T20:29:03.966Z</time>
      </trkpt>
      <trkpt lat="48.84896" lon="2.26935">
        <ele>118.6</ele>
        <time>2015-01-19T20:29:05.880Z</time>
      </trkpt>
      <trkpt lat="48.84893" lon="2.2694">
        <ele>118.8</ele>
        <time>2015-01-19T20:29:06.898Z</time>
      </trkpt>
      <trkpt lat="48.84888" lon="2.2695">
        <ele>119.5</ele>
        <time>2015-01-19T20:29:09.949Z</time>
      </trkpt>
      <trkpt lat="48.84884" lon="2.26953">
        <ele>119.5</ele>
        <time>2015-01-19T20:29:10.871Z</time>
      </trkpt>
      <trkpt lat="48.84876" lon="2.26961">
        <ele>119.2</ele>
        <time>2015-01-19T20:29:11.873Z</time>
      </trkpt>
      <trkpt lat="48.84869" lon="2.26969">
        <ele>118.9</ele>
        <time>2015-01-19T20:29:12.876Z</time>
      </trkpt>
      <trkpt lat="48.84864" lon="2.26975">
        <ele>118.8</ele>
        <time>2015-01-19T20:29:13.926Z</time>
      </trkpt>
      <trkpt lat="48.8486" lon="2.26977">
        <ele>119</ele>
        <time>2015-01-19T20:29:14.954Z</time>
      </trkpt>
      <trkpt lat="48.84856" lon="2.26981">
        <ele>119.3</ele>
        <time>2015-01-19T20:29:15.978Z</time>
      </trkpt>
      <trkpt lat="48.84852" lon="2.26989">
        <ele>119.6</ele>
        <time>2015-01-19T20:29:17.906Z</time>
      </trkpt>
      <trkpt lat="48.84852" lon="2.26995">
        <ele>119</ele>
        <time>2015-01-19T20:29:18.930Z</time>
      </trkpt>
      <trkpt lat="48.84853" lon="2.26984">
        <ele>116.8</ele>
        <time>2015-01-19T20:29:29.874Z</time>
      </trkpt>
      <trkpt lat="48.84853" lon="2.26982">
        <ele>116.6</ele>
        <time>2015-01-19T20:29:30.886Z</time>
      </trkpt>
      <trkpt lat="48.84854" lon="2.26971">
        <ele>115.4</ele>
        <time>2015-01-19T20:29:34.775Z</time>
      </trkpt>
      <trkpt lat="48.84853" lon="2.26967">
        <ele>115.3</ele>
        <time>2015-01-19T20:29:34.871Z</time>
      </trkpt>
      <trkpt lat="48.84852" lon="2.26958">
        <ele>115.1</ele>
        <time>2015-01-19T20:29:36.943Z</time>
      </trkpt>
      <trkpt lat="48.84851" lon="2.26953">
        <ele>114.9</ele>
        <time>2015-01-19T20:29:37.954Z</time>
      </trkpt>
      <trkpt lat="48.84847" lon="2.26946">
        <ele>115.1</ele>
        <time>2015-01-19T20:29:39.896Z</time>
      </trkpt>
      <trkpt lat="48.84844" lon="2.26943">
        <ele>115.2</ele>
        <time>2015-01-19T20:29:40.924Z</time>
      </trkpt>
      <trkpt lat="48.84838" lon="2.26937">
        <ele>115.2</ele>
        <time>2015-01-19T20:29:42.932Z</time>
      </trkpt>
      <trkpt lat="48.84835" lon="2.26935">
        <ele>115.2</ele>
        <time>2015-01-19T20:29:43.961Z</time>
      </trkpt>
      <trkpt lat="48.84828" lon="2.26932">
        <ele>114.7</ele>
        <time>2015-01-19T20:29:45.897Z</time>
      </trkpt>
      <trkpt lat="48.84826" lon="2.2693">
        <ele>114.5</ele>
        <time>2015-01-19T20:29:46.926Z</time>
      </trkpt>
      <trkpt lat="48.84819" lon="2.26926">
        <ele>114.5</ele>
        <time>2015-01-19T20:29:49.990Z</time>
      </trkpt>
      <trkpt lat="48.84813" lon="2.26926">
        <ele>113.6</ele>
        <time>2015-01-19T20:29:50.028Z</time>
      </trkpt>
      <trkpt lat="48.84805" lon="2.26929">
        <ele>112</ele>
        <time>2015-01-19T20:29:50.963Z</time>
      </trkpt>
      <trkpt lat="48.84798" lon="2.2693">
        <ele>110.7</ele>
        <time>2015-01-19T20:29:51.850Z</time>
      </trkpt>
      <trkpt lat="48.84792" lon="2.26931">
        <ele>109.6</ele>
        <time>2015-01-19T20:29:52.889Z</time>
      </trkpt>
      <trkpt lat="48.84787" lon="2.26928">
        <ele>108.4</ele>
        <time>2015-01-19T20:29:53.922Z</time>
      </trkpt>
      <trkpt lat="48.84782" lon="2.26921">
        <ele>107.9</ele>
        <time>2015-01-19T20:29:55.930Z</time>
      </trkpt>
      <trkpt lat="48.8478" lon="2.26916">
        <ele>107.5</ele>
        <time>2015-01-19T20:29:56.940Z</time>
      </trkpt>
      <trkpt lat="48.84774" lon="2.26911">
        <ele>107.3</ele>
        <time>2015-01-19T20:29:58.882Z</time>
      </trkpt>
      <trkpt lat="48.84768" lon="2.26913">
        <ele>106.7</ele>
        <time>2015-01-19T20:29:59.916Z</time>
      </trkpt>
      <trkpt lat="48.84761" lon="2.26911">
        <ele>105.8</ele>
        <time>2015-01-19T20:30:01.955Z</time>
      </trkpt>
      <trkpt lat="48.84757" lon="2.26909">
        <ele>105.7</ele>
        <time>2015-01-19T20:30:02.976Z</time>
      </trkpt>
      <trkpt lat="48.84749" lon="2.26906">
        <ele>104.1</ele>
        <time>2015-01-19T20:30:06.947Z</time>
      </trkpt>
      <trkpt lat="48.84748" lon="2.26905">
        <ele>104</ele>
        <time>2015-01-19T20:30:07.961Z</time>
      </trkpt>
      <trkpt lat="48.8474" lon="2.26901">
        <ele>103.1</ele>
        <time>2015-01-19T20:30:13.948Z</time>
      </trkpt>
      <trkpt lat="48.84737" lon="2.269">
        <ele>102.8</ele>
        <time>2015-01-19T20:30:14.939Z</time>
      </trkpt>
      <trkpt lat="48.8473" lon="2.26897">
        <ele>102.5</ele>
        <time>2015-01-19T20:30:17.994Z</time>
      </trkpt>
      <trkpt lat="48.84728" lon="2.26895">
        <ele>102.3</ele>
        <time>2015-01-19T20:30:18.887Z</time>
      </trkpt>
      <trkpt lat="48.84721" lon="2.26888">
        <ele>101.5</ele>
        <time>2015-01-19T20:30:21.916Z</time>
      </trkpt>
      <trkpt lat="48.84718" lon="2.26885">
        <ele>100.9</ele>
        <time>2015-01-19T20:30:22.932Z</time>
      </trkpt>
      <trkpt lat="48.84713" lon="2.26881">
        <ele>100.6</ele>
        <time>2015-01-19T20:30:25.745Z</time>
      </trkpt>
      <trkpt lat="48.8471" lon="2.26878">
        <ele>100.4</ele>
        <time>2015-01-19T20:30:25.968Z</time>
      </trkpt>
      <trkpt lat="48.84703" lon="2.26871">
        <ele>100</ele>
        <time>2015-01-19T20:30:27.997Z</time>
      </trkpt>
      <trkpt lat="48.84699" lon="2.26867">
        <ele>99.9</ele>
        <time>2015-01-19T20:30:28.921Z</time>
      </trkpt>
      <trkpt lat="48.84692" lon="2.2686">
        <ele>99.3</ele>
        <time>2015-01-19T20:30:30.976Z</time>
      </trkpt>
      <trkpt lat="48.84688" lon="2.26854">
        <ele>98.6</ele>
        <time>2015-01-19T20:30:31.980Z</time>
      </trkpt>
      <trkpt lat="48.84685" lon="2.26849">
        <ele>98.2</ele>
        <time>2015-01-19T20:30:32.993Z</time>
      </trkpt>
      <trkpt lat="48.84681" lon="2.26845">
        <ele>97.8</ele>
        <time>2015-01-19T20:30:33.848Z</time>
      </trkpt>
      <trkpt lat="48.84674" lon="2.26837">
        <ele>97.2</ele>
        <time>2015-01-19T20:30:35.874Z</time>
      </trkpt>
      <trkpt lat="48.8467" lon="2.26835">
        <ele>97</ele>
        <time>2015-01-19T20:30:36.921Z</time>
      </trkpt>
      <trkpt lat="48.84663" lon="2.2683">
        <ele>96.9</ele>
        <time>2015-01-19T20:30:39.920Z</time>
      </trkpt>
      <trkpt lat="48.84659" lon="2.26829">
        <ele>96.6</ele>
        <time>2015-01-19T20:30:39.965Z</time>
      </trkpt>
      <trkpt lat="48.84651" lon="2.26826">
        <ele>96.5</ele>
        <time>2015-01-19T20:30:41.901Z</time>
      </trkpt>
      <trkpt lat="48.84648" lon="2.26824">
        <ele>96.5</ele>
        <time>2015-01-19T20:30:42.931Z</time>
      </trkpt>
      <trkpt lat="48.84644" lon="2.26822">
        <ele>96.5</ele>
        <time>2015-01-19T20:30:43.993Z</time>
      </trkpt>
      <trkpt lat="48.84639" lon="2.26819">
        <ele>96.3</ele>
        <time>2015-01-19T20:30:44.918Z</time>
      </trkpt>
      <trkpt lat="48.84634" lon="2.26817">
        <ele>96.2</ele>
        <time>2015-01-19T20:30:45.908Z</time>
      </trkpt>
      <trkpt lat="48.8463" lon="2.26814">
        <ele>96.2</ele>
        <time>2015-01-19T20:30:46.901Z</time>
      </trkpt>
      <trkpt lat="48.84623" lon="2.26808">
        <ele>96.5</ele>
        <time>2015-01-19T20:30:48.934Z</time>
      </trkpt>
      <trkpt lat="48.84618" lon="2.26804">
        <ele>96.6</ele>
        <time>2015-01-19T20:30:49.967Z</time>
      </trkpt>
      <trkpt lat="48.84614" lon="2.268">
        <ele>96.6</ele>
        <time>2015-01-19T20:30:50.977Z</time>
      </trkpt>
      <trkpt lat="48.84609" lon="2.26797">
        <ele>96.5</ele>
        <time>2015-01-19T20:30:51.934Z</time>
      </trkpt>
      <trkpt lat="48.846" lon="2.2679">
        <ele>97.1</ele>
        <time>2015-01-19T20:30:52.947Z</time>
      </trkpt>
      <trkpt lat="48.84595" lon="2.26784">
        <ele>97.3</ele>
        <time>2015-01-19T20:30:54.972Z</time>
      </trkpt>
      <trkpt lat="48.84591" lon="2.26776">
        <ele>96.7</ele>
        <time>2015-01-19T20:30:55.009Z</time>
      </trkpt>
      <trkpt lat="48.84587" lon="2.26771">
        <ele>96.3</ele>
        <time>2015-01-19T20:30:55.888Z</time>
      </trkpt>
      <trkpt lat="48.84583" lon="2.26765">
        <ele>95.9</ele>
        <time>2015-01-19T20:30:56.896Z</time>
      </trkpt>
      <trkpt lat="48.84579" lon="2.26761">
        <ele>95.8</ele>
        <time>2015-01-19T20:30:57.910Z</time>
      </trkpt>
      <trkpt lat="48.84575" lon="2.26756">
        <ele>95.4</ele>
        <time>2015-01-19T20:30:58.919Z</time>
      </trkpt>
      <trkpt lat="48.84568" lon="2.26749">
        <ele>94.9</ele>
        <time>2015-01-19T20:31:00.883Z</time>
      </trkpt>
      <trkpt lat="48.84565" lon="2.26746">
        <ele>94.7</ele>
        <time>2015-01-19T20:31:02.030Z</time>
      </trkpt>
      <trkpt lat="48.84558" lon="2.26738">
        <ele>95</ele>
        <time>2015-01-19T20:31:03.974Z</time>
      </trkpt>
      <trkpt lat="48.84554" lon="2.26732">
        <ele>95.3</ele>
        <time>2015-01-19T20:31:04.886Z</time>
      </trkpt>
      <trkpt lat="48.8455" lon="2.26727">
        <ele>95.3</ele>
        <time>2015-01-19T20:31:05.875Z</time>
      </trkpt>
      <trkpt lat="48.84546" lon="2.26723">
        <ele>95.4</ele>
        <time>2015-01-19T20:31:06.877Z</time>
      </trkpt>
      <trkpt lat="48.84542" lon="2.26719">
        <ele>95.2</ele>
        <time>2015-01-19T20:31:07.888Z</time>
      </trkpt>
      <trkpt lat="48.84538" lon="2.26711">
        <ele>95</ele>
        <time>2015-01-19T20:31:08.895Z</time>
      </trkpt>
      <trkpt lat="48.84534" lon="2.26705">
        <ele>95.1</ele>
        <time>2015-01-19T20:31:09.897Z</time>
      </trkpt>
      <trkpt lat="48.84529" lon="2.267">
        <ele>95.2</ele>
        <time>2015-01-19T20:31:10.937Z</time>
      </trkpt>
      <trkpt lat="48.84525" lon="2.26696">
        <ele>95.3</ele>
        <time>2015-01-19T20:31:11.945Z</time>
      </trkpt>
      <trkpt lat="48.8452" lon="2.26692">
        <ele>95.4</ele>
        <time>2015-01-19T20:31:12.945Z</time>
      </trkpt>
      <trkpt lat="48.84516" lon="2.2669">
        <ele>95.6</ele>
        <time>2015-01-19T20:31:13.972Z</time>
      </trkpt>
      <trkpt lat="48.8451" lon="2.26688">
        <ele>95.5</ele>
        <time>2015-01-19T20:31:14.983Z</time>
      </trkpt>
      <trkpt lat="48.84506" lon="2.26686">
        <ele>95.4</ele>
        <time>2015-01-19T20:31:15.985Z</time>
      </trkpt>
      <trkpt lat="48.84502" lon="2.26683">
        <ele>95.4</ele>
        <time>2015-01-19T20:31:16.889Z</time>
      </trkpt>
      <trkpt lat="48.84495" lon="2.2668">
        <ele>95</ele>
        <time>2015-01-19T20:31:17.893Z</time>
      </trkpt>
      <trkpt lat="48.84491" lon="2.26679">
        <ele>94.9</ele>
        <time>2015-01-19T20:31:18.905Z</time>
      </trkpt>
      <trkpt lat="48.84484" lon="2.26677">
        <ele>94.8</ele>
        <time>2015-01-19T20:31:21.015Z</time>
      </trkpt>
      <trkpt lat="48.84481" lon="2.26674">
        <ele>94.7</ele>
        <time>2015-01-19T20:31:21.943Z</time>
      </trkpt>
      <trkpt lat="48.84473" lon="2.2667">
        <ele>94.5</ele>
        <time>2015-01-19T20:31:23.961Z</time>
      </trkpt>
      <trkpt lat="48.84469" lon="2.26667">
        <ele>94.5</ele>
        <time>2015-01-19T20:31:24.965Z</time>
      </trkpt>
      <trkpt lat="48.84465" lon="2.26664">
        <ele>94.5</ele>
        <time>2015-01-19T20:31:26.151Z</time>
      </trkpt>
      <trkpt lat="48.84461" lon="2.2666">
        <ele>94.6</ele>
        <time>2015-01-19T20:31:26.897Z</time>
      </trkpt>
      <trkpt lat="48.84454" lon="2.26653">
        <ele>94.8</ele>
        <time>2015-01-19T20:31:28.913Z</time>
      </trkpt>
      <trkpt lat="48.8445" lon="2.26646">
        <ele>95.6</ele>
        <time>2015-01-19T20:31:29.918Z</time>
      </trkpt>
      <trkpt lat="48.84446" lon="2.26641">
        <ele>95.8</ele>
        <time>2015-01-19T20:31:30.933Z</time>
      </trkpt>
      <trkpt lat="48.84443" lon="2.26635">
        <ele>95.9</ele>
        <time>2015-01-19T20:31:31.950Z</time>
      </trkpt>
      <trkpt lat="48.84438" lon="2.26626">
        <ele>96</ele>
        <time>2015-01-19T20:31:33.852Z</time>
      </trkpt>
      <trkpt lat="48.84436" lon="2.26621">
        <ele>96</ele>
        <time>2015-01-19T20:31:34.865Z</time>
      </trkpt>
      <trkpt lat="48.84431" lon="2.26612">
        <ele>96</ele>
        <time>2015-01-19T20:31:36.830Z</time>
      </trkpt>
      <trkpt lat="48.84428" lon="2.26607">
        <ele>96.1</ele>
        <time>2015-01-19T20:31:37.867Z</time>
      </trkpt>
      <trkpt lat="48.84425" lon="2.26601">
        <ele>96.2</ele>
        <time>2015-01-19T20:31:39.910Z</time>
      </trkpt>
      <trkpt lat="48.84421" lon="2.26596">
        <ele>96.5</ele>
        <time>2015-01-19T20:31:39.928Z</time>
      </trkpt>
      <trkpt lat="48.84414" lon="2.26588">
        <ele>96.7</ele>
        <time>2015-01-19T20:31:41.855Z</time>
      </trkpt>
      <trkpt lat="48.8441" lon="2.26583">
        <ele>96.7</ele>
        <time>2015-01-19T20:31:42.889Z</time>
      </trkpt>
      <trkpt lat="48.84406" lon="2.26577">
        <ele>96.6</ele>
        <time>2015-01-19T20:31:43.888Z</time>
      </trkpt>
      <trkpt lat="48.84402" lon="2.26572">
        <ele>96.5</ele>
        <time>2015-01-19T20:31:44.970Z</time>
      </trkpt>
      <trkpt lat="48.84399" lon="2.26568">
        <ele>96.6</ele>
        <time>2015-01-19T20:31:45.946Z</time>
      </trkpt>
      <trkpt lat="48.84395" lon="2.26563">
        <ele>96.4</ele>
        <time>2015-01-19T20:31:46.950Z</time>
      </trkpt>
      <trkpt lat="48.84391" lon="2.26559">
        <ele>96.1</ele>
        <time>2015-01-19T20:31:47.862Z</time>
      </trkpt>
      <trkpt lat="48.84388" lon="2.26555">
        <ele>95.9</ele>
        <time>2015-01-19T20:31:48.861Z</time>
      </trkpt>
      <trkpt lat="48.84382" lon="2.26554">
        <ele>95.8</ele>
        <time>2015-01-19T20:31:50.098Z</time>
      </trkpt>
      <trkpt lat="48.84377" lon="2.26553">
        <ele>95.6</ele>
        <time>2015-01-19T20:31:50.877Z</time>
      </trkpt>
      <trkpt lat="48.84371" lon="2.26552">
        <ele>95.7</ele>
        <time>2015-01-19T20:31:51.893Z</time>
      </trkpt>
      <trkpt lat="48.84366" lon="2.26549">
        <ele>95.8</ele>
        <time>2015-01-19T20:31:52.896Z</time>
      </trkpt>
      <trkpt lat="48.84361" lon="2.26538">
        <ele>95.1</ele>
        <time>2015-01-19T20:31:53.911Z</time>
      </trkpt>
      <trkpt lat="48.84357" lon="2.2653">
        <ele>94.9</ele>
        <time>2015-01-19T20:31:54.917Z</time>
      </trkpt>
      <trkpt lat="48.84353" lon="2.26525">
        <ele>95.1</ele>
        <time>2015-01-19T20:31:55.928Z</time>
      </trkpt>
      <trkpt lat="48.8435" lon="2.2652">
        <ele>95.3</ele>
        <time>2015-01-19T20:31:56.945Z</time>
      </trkpt>
      <trkpt lat="48.84346" lon="2.26516">
        <ele>95.5</ele>
        <time>2015-01-19T20:31:57.847Z</time>
      </trkpt>
      <trkpt lat="48.84343" lon="2.26512">
        <ele>95.8</ele>
        <time>2015-01-19T20:31:58.857Z</time>
      </trkpt>
      <trkpt lat="48.84335" lon="2.26505">
        <ele>96.3</ele>
        <time>2015-01-19T20:32:00.928Z</time>
      </trkpt>
      <trkpt lat="48.84331" lon="2.26502">
        <ele>96.5</ele>
        <time>2015-01-19T20:32:01.939Z</time>
      </trkpt>
      <trkpt lat="48.84325" lon="2.26497">
        <ele>97</ele>
        <time>2015-01-19T20:32:03.864Z</time>
      </trkpt>
      <trkpt lat="48.84319" lon="2.26492">
        <ele>97.8</ele>
        <time>2015-01-19T20:32:04.940Z</time>
      </trkpt>
      <trkpt lat="48.84314" lon="2.26489">
        <ele>98</ele>
        <time>2015-01-19T20:32:05.865Z</time>
      </trkpt>
      <trkpt lat="48.8431" lon="2.26486">
        <ele>98.2</ele>
        <time>2015-01-19T20:32:06.881Z</time>
      </trkpt>
      <trkpt lat="48.84302" lon="2.26481">
        <ele>98.6</ele>
        <time>2015-01-19T20:32:08.967Z</time>
      </trkpt>
      <trkpt lat="48.84298" lon="2.26478">
        <ele>98.8</ele>
        <time>2015-01-19T20:32:09.860Z</time>
      </trkpt>
      <trkpt lat="48.84294" lon="2.26475">
        <ele>98.9</ele>
        <time>2015-01-19T20:32:10.882Z</time>
      </trkpt>
      <trkpt lat="48.8429" lon="2.26471">
        <ele>98.8</ele>
        <time>2015-01-19T20:32:11.926Z</time>
      </trkpt>
      <trkpt lat="48.84283" lon="2.26463">
        <ele>98.7</ele>
        <time>2015-01-19T20:32:13.952Z</time>
      </trkpt>
      <trkpt lat="48.8428" lon="2.2646">
        <ele>98.6</ele>
        <time>2015-01-19T20:32:14.960Z</time>
      </trkpt>
      <trkpt lat="48.84273" lon="2.26454">
        <ele>98.4</ele>
        <time>2015-01-19T20:32:16.877Z</time>
      </trkpt>
      <trkpt lat="48.84269" lon="2.26452">
        <ele>98.4</ele>
        <time>2015-01-19T20:32:17.895Z</time>
      </trkpt>
      <trkpt lat="48.84262" lon="2.26447">
        <ele>98.6</ele>
        <time>2015-01-19T20:32:19.960Z</time>
      </trkpt>
      <trkpt lat="48.8426" lon="2.26445">
        <ele>98.7</ele>
        <time>2015-01-19T20:32:20.870Z</time>
      </trkpt>
      <trkpt lat="48.84255" lon="2.26439">
        <ele>98.8</ele>
        <time>2015-01-19T20:32:22.895Z</time>
      </trkpt>
      <trkpt lat="48.84252" lon="2.26437">
        <ele>98.8</ele>
        <time>2015-01-19T20:32:23.930Z</time>
      </trkpt>
      <trkpt lat="48.84248" lon="2.26435">
        <ele>98.8</ele>
        <time>2015-01-19T20:32:24.946Z</time>
      </trkpt>
      <trkpt lat="48.8424" lon="2.26435">
        <ele>99.6</ele>
        <time>2015-01-19T20:32:25.955Z</time>
      </trkpt>
      <trkpt lat="48.84231" lon="2.26432">
        <ele>101.5</ele>
        <time>2015-01-19T20:32:27.005Z</time>
      </trkpt>
      <trkpt lat="48.84225" lon="2.26429">
        <ele>102.6</ele>
        <time>2015-01-19T20:32:27.880Z</time>
      </trkpt>
      <trkpt lat="48.84221" lon="2.26425">
        <ele>102.9</ele>
        <time>2015-01-19T20:32:28.894Z</time>
      </trkpt>
      <trkpt lat="48.84211" lon="2.26419">
        <ele>102.3</ele>
        <time>2015-01-19T20:32:31.920Z</time>
      </trkpt>
      <trkpt lat="48.84205" lon="2.26416">
        <ele>102.5</ele>
        <time>2015-01-19T20:32:33.951Z</time>
      </trkpt>
      <trkpt lat="48.84202" lon="2.26414">
        <ele>102.6</ele>
        <time>2015-01-19T20:32:34.972Z</time>
      </trkpt>
      <trkpt lat="48.84196" lon="2.2641">
        <ele>102.5</ele>
        <time>2015-01-19T20:32:36.879Z</time>
      </trkpt>
      <trkpt lat="48.84193" lon="2.26408">
        <ele>102.4</ele>
        <time>2015-01-19T20:32:37.906Z</time>
      </trkpt>
      <trkpt lat="48.84188" lon="2.26408">
        <ele>102</ele>
        <time>2015-01-19T20:32:38.925Z</time>
      </trkpt>
      <trkpt lat="48.8418" lon="2.26409">
        <ele>101.5</ele>
        <time>2015-01-19T20:32:39.940Z</time>
      </trkpt>
      <trkpt lat="48.84175" lon="2.26407">
        <ele>101.2</ele>
        <time>2015-01-19T20:32:40.950Z</time>
      </trkpt>
      <trkpt lat="48.8417" lon="2.26406">
        <ele>100.9</ele>
        <time>2015-01-19T20:32:41.887Z</time>
      </trkpt>
      <trkpt lat="48.84162" lon="2.26402">
        <ele>100.3</ele>
        <time>2015-01-19T20:32:43.908Z</time>
      </trkpt>
      <trkpt lat="48.84158" lon="2.26399">
        <ele>100</ele>
        <time>2015-01-19T20:32:44.913Z</time>
      </trkpt>
      <trkpt lat="48.84151" lon="2.26397">
        <ele>100</ele>
        <time>2015-01-19T20:32:46.951Z</time>
      </trkpt>
      <trkpt lat="48.84149" lon="2.26397">
        <ele>100.1</ele>
        <time>2015-01-19T20:32:47.980Z</time>
      </trkpt>
      <trkpt lat="48.84141" lon="2.26392">
        <ele>101.6</ele>
        <time>2015-01-19T20:32:53.909Z</time>
      </trkpt>
      <trkpt lat="48.8414" lon="2.2639">
        <ele>101.9</ele>
        <time>2015-01-19T20:32:54.939Z</time>
      </trkpt>
      <trkpt lat="48.84134" lon="2.26385">
        <ele>103.4</ele>
        <time>2015-01-19T20:32:58.928Z</time>
      </trkpt>
      <trkpt lat="48.84131" lon="2.26385">
        <ele>103.9</ele>
        <time>2015-01-19T20:32:59.937Z</time>
      </trkpt>
      <trkpt lat="48.84123" lon="2.26381">
        <ele>104.4</ele>
        <time>2015-01-19T20:33:02.919Z</time>
      </trkpt>
      <trkpt lat="48.84119" lon="2.26379">
        <ele>104.5</ele>
        <time>2015-01-19T20:33:03.930Z</time>
      </trkpt>
      <trkpt lat="48.84113" lon="2.26378">
        <ele>104.9</ele>
        <time>2015-01-19T20:33:05.871Z</time>
      </trkpt>
      <trkpt lat="48.8411" lon="2.26375">
        <ele>104.9</ele>
        <time>2015-01-19T20:33:06.876Z</time>
      </trkpt>
      <trkpt lat="48.84104" lon="2.2637">
        <ele>105.2</ele>
        <time>2015-01-19T20:33:08.920Z</time>
      </trkpt>
      <trkpt lat="48.841" lon="2.26367">
        <ele>105.3</ele>
        <time>2015-01-19T20:33:09.937Z</time>
      </trkpt>
      <trkpt lat="48.84094" lon="2.2636">
        <ele>105.3</ele>
        <time>2015-01-19T20:33:11.865Z</time>
      </trkpt>
      <trkpt lat="48.84092" lon="2.26358">
        <ele>105.2</ele>
        <time>2015-01-19T20:33:12.885Z</time>
      </trkpt>
      <trkpt lat="48.84086" lon="2.26352">
        <ele>104.9</ele>
        <time>2015-01-19T20:33:14.947Z</time>
      </trkpt>
      <trkpt lat="48.84083" lon="2.2635">
        <ele>104.8</ele>
        <time>2015-01-19T20:33:15.938Z</time>
      </trkpt>
      <trkpt lat="48.84076" lon="2.26341">
        <ele>104.6</ele>
        <time>2015-01-19T20:33:17.870Z</time>
      </trkpt>
      <trkpt lat="48.84073" lon="2.26337">
        <ele>104.5</ele>
        <time>2015-01-19T20:33:18.873Z</time>
      </trkpt>
      <trkpt lat="48.84066" lon="2.26332">
        <ele>104.6</ele>
        <time>2015-01-19T20:33:20.925Z</time>
      </trkpt>
      <trkpt lat="48.84062" lon="2.26329">
        <ele>104.6</ele>
        <time>2015-01-19T20:33:21.951Z</time>
      </trkpt>
      <trkpt lat="48.84057" lon="2.26326">
        <ele>104.7</ele>
        <time>2015-01-19T20:33:22.874Z</time>
      </trkpt>
      <trkpt lat="48.84053" lon="2.26323">
        <ele>104.8</ele>
        <time>2015-01-19T20:33:23.897Z</time>
      </trkpt>
      <trkpt lat="48.84048" lon="2.26322">
        <ele>104.7</ele>
        <time>2015-01-19T20:33:24.960Z</time>
      </trkpt>
      <trkpt lat="48.84043" lon="2.26319">
        <ele>104.7</ele>
        <time>2015-01-19T20:33:25.875Z</time>
      </trkpt>
      <trkpt lat="48.84038" lon="2.26316">
        <ele>104.3</ele>
        <time>2015-01-19T20:33:26.878Z</time>
      </trkpt>
      <trkpt lat="48.84032" lon="2.26314">
        <ele>104.1</ele>
        <time>2015-01-19T20:33:27.880Z</time>
      </trkpt>
      <trkpt lat="48.8402" lon="2.26318">
        <ele>103</ele>
        <time>2015-01-19T20:33:28.924Z</time>
      </trkpt>
      <trkpt lat="48.84013" lon="2.26318">
        <ele>102.7</ele>
        <time>2015-01-19T20:33:29.877Z</time>
      </trkpt>
      <trkpt lat="48.84007" lon="2.26318">
        <ele>102.8</ele>
        <time>2015-01-19T20:33:30.867Z</time>
      </trkpt>
      <trkpt lat="48.84001" lon="2.26316">
        <ele>103.1</ele>
        <time>2015-01-19T20:33:31.875Z</time>
      </trkpt>
      <trkpt lat="48.83996" lon="2.26315">
        <ele>103.4</ele>
        <time>2015-01-19T20:33:32.897Z</time>
      </trkpt>
      <trkpt lat="48.83992" lon="2.26312">
        <ele>103.7</ele>
        <time>2015-01-19T20:33:33.867Z</time>
      </trkpt>
      <trkpt lat="48.83986" lon="2.2631">
        <ele>104</ele>
        <time>2015-01-19T20:33:34.892Z</time>
      </trkpt>
      <trkpt lat="48.83981" lon="2.26308">
        <ele>104.7</ele>
        <time>2015-01-19T20:33:35.898Z</time>
      </trkpt>
      <trkpt lat="48.83976" lon="2.26305">
        <ele>105</ele>
        <time>2015-01-19T20:33:36.909Z</time>
      </trkpt>
      <trkpt lat="48.83972" lon="2.26301">
        <ele>105.5</ele>
        <time>2015-01-19T20:33:37.922Z</time>
      </trkpt>
      <trkpt lat="48.83968" lon="2.26296">
        <ele>105.6</ele>
        <time>2015-01-19T20:33:38.932Z</time>
      </trkpt>
      <trkpt lat="48.83965" lon="2.2629">
        <ele>105.6</ele>
        <time>2015-01-19T20:33:39.958Z</time>
      </trkpt>
      <trkpt lat="48.83961" lon="2.26282">
        <ele>104</ele>
        <time>2015-01-19T20:33:40.907Z</time>
      </trkpt>
      <trkpt lat="48.83954" lon="2.26273">
        <ele>104</ele>
        <time>2015-01-19T20:33:42.883Z</time>
      </trkpt>
      <trkpt lat="48.83951" lon="2.26267">
        <ele>103.8</ele>
        <time>2015-01-19T20:33:43.921Z</time>
      </trkpt>
      <trkpt lat="48.83949" lon="2.2626">
        <ele>103.5</ele>
        <time>2015-01-19T20:33:44.942Z</time>
      </trkpt>
      <trkpt lat="48.83945" lon="2.26251">
        <ele>104.5</ele>
        <time>2015-01-19T20:33:45.956Z</time>
      </trkpt>
      <trkpt lat="48.83942" lon="2.26245">
        <ele>104.9</ele>
        <time>2015-01-19T20:33:46.894Z</time>
      </trkpt>
      <trkpt lat="48.8394" lon="2.26239">
        <ele>104.6</ele>
        <time>2015-01-19T20:33:48.071Z</time>
      </trkpt>
      <trkpt lat="48.83937" lon="2.26234">
        <ele>104.3</ele>
        <time>2015-01-19T20:33:48.917Z</time>
      </trkpt>
      <trkpt lat="48.83934" lon="2.26228">
        <ele>103.8</ele>
        <time>2015-01-19T20:33:49.925Z</time>
      </trkpt>
      <trkpt lat="48.83931" lon="2.26223">
        <ele>103.4</ele>
        <time>2015-01-19T20:33:50.962Z</time>
      </trkpt>
      <trkpt lat="48.83928" lon="2.26217">
        <ele>103</ele>
        <time>2015-01-19T20:33:51.874Z</time>
      </trkpt>
      <trkpt lat="48.83924" lon="2.26212">
        <ele>102.9</ele>
        <time>2015-01-19T20:33:52.982Z</time>
      </trkpt>
      <trkpt lat="48.8392" lon="2.26208">
        <ele>102.6</ele>
        <time>2015-01-19T20:33:53.894Z</time>
      </trkpt>
      <trkpt lat="48.83919" lon="2.26201">
        <ele>102.6</ele>
        <time>2015-01-19T20:33:54.896Z</time>
      </trkpt>
      <trkpt lat="48.83917" lon="2.26194">
        <ele>102.5</ele>
        <time>2015-01-19T20:33:55.898Z</time>
      </trkpt>
      <trkpt lat="48.83915" lon="2.26186">
        <ele>102.2</ele>
        <time>2015-01-19T20:33:56.934Z</time>
      </trkpt>
      <trkpt lat="48.83913" lon="2.2618">
        <ele>102.3</ele>
        <time>2015-01-19T20:33:57.977Z</time>
      </trkpt>
      <trkpt lat="48.83912" lon="2.26173">
        <ele>101.9</ele>
        <time>2015-01-19T20:33:58.882Z</time>
      </trkpt>
      <trkpt lat="48.8391" lon="2.26167">
        <ele>101.6</ele>
        <time>2015-01-19T20:33:59.879Z</time>
      </trkpt>
      <trkpt lat="48.83908" lon="2.2616">
        <ele>101.6</ele>
        <time>2015-01-19T20:34:00.901Z</time>
      </trkpt>
      <trkpt lat="48.83906" lon="2.26154">
        <ele>101.9</ele>
        <time>2015-01-19T20:34:01.902Z</time>
      </trkpt>
      <trkpt lat="48.83904" lon="2.26148">
        <ele>101.8</ele>
        <time>2015-01-19T20:34:02.912Z</time>
      </trkpt>
      <trkpt lat="48.839" lon="2.26142">
        <ele>101.8</ele>
        <time>2015-01-19T20:34:03.917Z</time>
      </trkpt>
      <trkpt lat="48.83898" lon="2.26135">
        <ele>101.8</ele>
        <time>2015-01-19T20:34:04.929Z</time>
      </trkpt>
      <trkpt lat="48.83898" lon="2.26126">
        <ele>102</ele>
        <time>2015-01-19T20:34:05.948Z</time>
      </trkpt>
      <trkpt lat="48.83896" lon="2.26118">
        <ele>102</ele>
        <time>2015-01-19T20:34:06.875Z</time>
      </trkpt>
      <trkpt lat="48.83894" lon="2.2611">
        <ele>101.9</ele>
        <time>2015-01-19T20:34:07.992Z</time>
      </trkpt>
      <trkpt lat="48.83893" lon="2.26101">
        <ele>101.8</ele>
        <time>2015-01-19T20:34:08.899Z</time>
      </trkpt>
      <trkpt lat="48.83892" lon="2.26093">
        <ele>101.8</ele>
        <time>2015-01-19T20:34:09.900Z</time>
      </trkpt>
      <trkpt lat="48.8389" lon="2.26086">
        <ele>101.5</ele>
        <time>2015-01-19T20:34:10.931Z</time>
      </trkpt>
      <trkpt lat="48.83887" lon="2.26079">
        <ele>101.4</ele>
        <time>2015-01-19T20:34:12.001Z</time>
      </trkpt>
      <trkpt lat="48.83884" lon="2.26073">
        <ele>101.2</ele>
        <time>2015-01-19T20:34:12.881Z</time>
      </trkpt>
      <trkpt lat="48.83881" lon="2.26066">
        <ele>101</ele>
        <time>2015-01-19T20:34:13.935Z</time>
      </trkpt>
      <trkpt lat="48.83878" lon="2.2606">
        <ele>100.9</ele>
        <time>2015-01-19T20:34:14.989Z</time>
      </trkpt>
      <trkpt lat="48.83875" lon="2.26054">
        <ele>100.9</ele>
        <time>2015-01-19T20:34:15.971Z</time>
      </trkpt>
      <trkpt lat="48.83872" lon="2.26047">
        <ele>100.8</ele>
        <time>2015-01-19T20:34:16.925Z</time>
      </trkpt>
      <trkpt lat="48.83869" lon="2.2604">
        <ele>100.5</ele>
        <time>2015-01-19T20:34:18.017Z</time>
      </trkpt>
      <trkpt lat="48.83866" lon="2.26033">
        <ele>100.5</ele>
        <time>2015-01-19T20:34:18.885Z</time>
      </trkpt>
      <trkpt lat="48.83865" lon="2.26025">
        <ele>100.3</ele>
        <time>2015-01-19T20:34:19.894Z</time>
      </trkpt>
      <trkpt lat="48.83863" lon="2.26018">
        <ele>100.2</ele>
        <time>2015-01-19T20:34:20.901Z</time>
      </trkpt>
      <trkpt lat="48.83861" lon="2.26011">
        <ele>100</ele>
        <time>2015-01-19T20:34:21.902Z</time>
      </trkpt>
      <trkpt lat="48.83862" lon="2.26001">
        <ele>100.1</ele>
        <time>2015-01-19T20:34:22.902Z</time>
      </trkpt>
      <trkpt lat="48.83861" lon="2.25993">
        <ele>100.1</ele>
        <time>2015-01-19T20:34:23.913Z</time>
      </trkpt>
      <trkpt lat="48.83859" lon="2.25985">
        <ele>100.1</ele>
        <time>2015-01-19T20:34:24.926Z</time>
      </trkpt>
      <trkpt lat="48.83857" lon="2.25977">
        <ele>99.9</ele>
        <time>2015-01-19T20:34:25.962Z</time>
      </trkpt>
      <trkpt lat="48.83855" lon="2.25969">
        <ele>99.6</ele>
        <time>2015-01-19T20:34:26.881Z</time>
      </trkpt>
      <trkpt lat="48.83853" lon="2.25961">
        <ele>99.4</ele>
        <time>2015-01-19T20:34:27.892Z</time>
      </trkpt>
      <trkpt lat="48.83851" lon="2.25954">
        <ele>99.1</ele>
        <time>2015-01-19T20:34:28.904Z</time>
      </trkpt>
      <trkpt lat="48.83849" lon="2.25946">
        <ele>98.8</ele>
        <time>2015-01-19T20:34:29.918Z</time>
      </trkpt>
      <trkpt lat="48.83847" lon="2.25938">
        <ele>98.7</ele>
        <time>2015-01-19T20:34:30.946Z</time>
      </trkpt>
      <trkpt lat="48.83845" lon="2.25929">
        <ele>98.6</ele>
        <time>2015-01-19T20:34:31.957Z</time>
      </trkpt>
      <trkpt lat="48.83843" lon="2.25922">
        <ele>98.5</ele>
        <time>2015-01-19T20:34:32.969Z</time>
      </trkpt>
      <trkpt lat="48.8384" lon="2.25914">
        <ele>98.3</ele>
        <time>2015-01-19T20:34:33.875Z</time>
      </trkpt>
      <trkpt lat="48.83838" lon="2.25907">
        <ele>98.2</ele>
        <time>2015-01-19T20:34:34.888Z</time>
      </trkpt>
      <trkpt lat="48.83836" lon="2.259">
        <ele>98.1</ele>
        <time>2015-01-19T20:34:35.900Z</time>
      </trkpt>
      <trkpt lat="48.83834" lon="2.25892">
        <ele>97.9</ele>
        <time>2015-01-19T20:34:36.927Z</time>
      </trkpt>
      <trkpt lat="48.8383" lon="2.25884">
        <ele>97.9</ele>
        <time>2015-01-19T20:34:37.939Z</time>
      </trkpt>
      <trkpt lat="48.83827" lon="2.25877">
        <ele>97.8</ele>
        <time>2015-01-19T20:34:38.945Z</time>
      </trkpt>
      <trkpt lat="48.83826" lon="2.25868">
        <ele>97.8</ele>
        <time>2015-01-19T20:34:39.886Z</time>
      </trkpt>
      <trkpt lat="48.83826" lon="2.25859">
        <ele>98</ele>
        <time>2015-01-19T20:34:40.885Z</time>
      </trkpt>
      <trkpt lat="48.83826" lon="2.25849">
        <ele>98.3</ele>
        <time>2015-01-19T20:34:41.889Z</time>
      </trkpt>
      <trkpt lat="48.83824" lon="2.25843">
        <ele>98.1</ele>
        <time>2015-01-19T20:34:42.896Z</time>
      </trkpt>
      <trkpt lat="48.83821" lon="2.25836">
        <ele>98.2</ele>
        <time>2015-01-19T20:34:43.917Z</time>
      </trkpt>
      <trkpt lat="48.83818" lon="2.2583">
        <ele>98.4</ele>
        <time>2015-01-19T20:34:44.922Z</time>
      </trkpt>
      <trkpt lat="48.83814" lon="2.25824">
        <ele>99.4</ele>
        <time>2015-01-19T20:34:45.878Z</time>
      </trkpt>
      <trkpt lat="48.83811" lon="2.25817">
        <ele>100</ele>
        <time>2015-01-19T20:34:46.879Z</time>
      </trkpt>
      <trkpt lat="48.83809" lon="2.25811">
        <ele>100.3</ele>
        <time>2015-01-19T20:34:47.886Z</time>
      </trkpt>
      <trkpt lat="48.83806" lon="2.25801">
        <ele>100.4</ele>
        <time>2015-01-19T20:34:49.900Z</time>
      </trkpt>
      <trkpt lat="48.83804" lon="2.25796">
        <ele>100.1</ele>
        <time>2015-01-19T20:34:50.992Z</time>
      </trkpt>
      <trkpt lat="48.83801" lon="2.25787">
        <ele>99.7</ele>
        <time>2015-01-19T20:34:52.904Z</time>
      </trkpt>
      <trkpt lat="48.83799" lon="2.25783">
        <ele>99.7</ele>
        <time>2015-01-19T20:34:53.944Z</time>
      </trkpt>
      <trkpt lat="48.83799" lon="2.25771">
        <ele>99.4</ele>
        <time>2015-01-19T20:34:56.994Z</time>
      </trkpt>
      <trkpt lat="48.838" lon="2.25768">
        <ele>99.4</ele>
        <time>2015-01-19T20:34:57.889Z</time>
      </trkpt>
      <trkpt lat="48.83805" lon="2.25759">
        <ele>98.1</ele>
        <time>2015-01-19T20:35:00.946Z</time>
      </trkpt>
      <trkpt lat="48.83807" lon="2.25757">
        <ele>97.5</ele>
        <time>2015-01-19T20:35:01.902Z</time>
      </trkpt>
      <trkpt lat="48.83813" lon="2.2575">
        <ele>95.3</ele>
        <time>2015-01-19T20:35:09.885Z</time>
      </trkpt>
      <trkpt lat="48.83814" lon="2.25749">
        <ele>95.2</ele>
        <time>2015-01-19T20:35:11.013Z</time>
      </trkpt>
      <trkpt lat="48.83821" lon="2.25743">
        <ele>93.9</ele>
        <time>2015-01-19T20:35:13.938Z</time>
      </trkpt>
      <trkpt lat="48.83824" lon="2.2574">
        <ele>93.7</ele>
        <time>2015-01-19T20:35:14.947Z</time>
      </trkpt>
      <trkpt lat="48.8383" lon="2.25732">
        <ele>92.9</ele>
        <time>2015-01-19T20:35:17.894Z</time>
      </trkpt>
      <trkpt lat="48.83832" lon="2.25728">
        <ele>92.8</ele>
        <time>2015-01-19T20:35:18.909Z</time>
      </trkpt>
      <trkpt lat="48.83836" lon="2.25718">
        <ele>92.5</ele>
        <time>2015-01-19T20:35:21.890Z</time>
      </trkpt>
      <trkpt lat="48.83838" lon="2.25714">
        <ele>92.7</ele>
        <time>2015-01-19T20:35:22.924Z</time>
      </trkpt>
      <trkpt lat="48.83839" lon="2.257">
        <ele>92.1</ele>
        <time>2015-01-19T20:35:25.916Z</time>
      </trkpt>
      <trkpt lat="48.83839" lon="2.25697">
        <ele>92</ele>
        <time>2015-01-19T20:35:26.929Z</time>
      </trkpt>
      <trkpt lat="48.83839" lon="2.25685">
        <ele>91.8</ele>
        <time>2015-01-19T20:35:29.908Z</time>
      </trkpt>
      <trkpt lat="48.83839" lon="2.25681">
        <ele>91.7</ele>
        <time>2015-01-19T20:35:30.949Z</time>
      </trkpt>
      <trkpt lat="48.83838" lon="2.25671">
        <ele>91.9</ele>
        <time>2015-01-19T20:35:33.007Z</time>
      </trkpt>
      <trkpt lat="48.83838" lon="2.25667">
        <ele>91.7</ele>
        <time>2015-01-19T20:35:33.889Z</time>
      </trkpt>
      <trkpt lat="48.83835" lon="2.25657">
        <ele>91.4</ele>
        <time>2015-01-19T20:35:35.946Z</time>
      </trkpt>
      <trkpt lat="48.83833" lon="2.25653">
        <ele>91.3</ele>
        <time>2015-01-19T20:35:36.964Z</time>
      </trkpt>
      <trkpt lat="48.83828" lon="2.25646">
        <ele>91.1</ele>
        <time>2015-01-19T20:35:38.903Z</time>
      </trkpt>
      <trkpt lat="48.83825" lon="2.25643">
        <ele>91</ele>
        <time>2015-01-19T20:35:39.918Z</time>
      </trkpt>
      <trkpt lat="48.83819" lon="2.2564">
        <ele>91.1</ele>
        <time>2015-01-19T20:35:41.965Z</time>
      </trkpt>
      <trkpt lat="48.83815" lon="2.25638">
        <ele>90.9</ele>
        <time>2015-01-19T20:35:43.028Z</time>
      </trkpt>
      <trkpt lat="48.83807" lon="2.25637">
        <ele>90.8</ele>
        <time>2015-01-19T20:35:44.926Z</time>
      </trkpt>
      <trkpt lat="48.83803" lon="2.25637">
        <ele>90.6</ele>
        <time>2015-01-19T20:35:45.932Z</time>
      </trkpt>
      <trkpt lat="48.83794" lon="2.2564">
        <ele>90.2</ele>
        <time>2015-01-19T20:35:47.962Z</time>
      </trkpt>
      <trkpt lat="48.8379" lon="2.25642">
        <ele>90.1</ele>
        <time>2015-01-19T20:35:48.979Z</time>
      </trkpt>
      <trkpt lat="48.83785" lon="2.25646">
        <ele>90</ele>
        <time>2015-01-19T20:35:49.990Z</time>
      </trkpt>
      <trkpt lat="48.83781" lon="2.25649">
        <ele>90.1</ele>
        <time>2015-01-19T20:35:50.942Z</time>
      </trkpt>
      <trkpt lat="48.83776" lon="2.25652">
        <ele>90.1</ele>
        <time>2015-01-19T20:35:51.880Z</time>
      </trkpt>
      <trkpt lat="48.83772" lon="2.25655">
        <ele>90</ele>
        <time>2015-01-19T20:35:52.881Z</time>
      </trkpt>
      <trkpt lat="48.83765" lon="2.25663">
        <ele>89.6</ele>
        <time>2015-01-19T20:35:54.897Z</time>
      </trkpt>
      <trkpt lat="48.83762" lon="2.25668">
        <ele>89.6</ele>
        <time>2015-01-19T20:35:55.913Z</time>
      </trkpt>
      <trkpt lat="48.83761" lon="2.25674">
        <ele>89.2</ele>
        <time>2015-01-19T20:35:56.946Z</time>
      </trkpt>
      <trkpt lat="48.83759" lon="2.25682">
        <ele>89.1</ele>
        <time>2015-01-19T20:35:57.953Z</time>
      </trkpt>
      <trkpt lat="48.83758" lon="2.25691">
        <ele>88.7</ele>
        <time>2015-01-19T20:35:58.897Z</time>
      </trkpt>
      <trkpt lat="48.83757" lon="2.257">
        <ele>88.3</ele>
        <time>2015-01-19T20:35:59.909Z</time>
      </trkpt>
      <trkpt lat="48.83757" lon="2.25708">
        <ele>88.2</ele>
        <time>2015-01-19T20:36:00.862Z</time>
      </trkpt>
      <trkpt lat="48.83758" lon="2.25717">
        <ele>88</ele>
        <time>2015-01-19T20:36:01.900Z</time>
      </trkpt>
      <trkpt lat="48.83759" lon="2.25727">
        <ele>87.9</ele>
        <time>2015-01-19T20:36:02.922Z</time>
      </trkpt>
      <trkpt lat="48.8376" lon="2.25735">
        <ele>88.1</ele>
        <time>2015-01-19T20:36:03.941Z</time>
      </trkpt>
      <trkpt lat="48.83761" lon="2.25743">
        <ele>88.3</ele>
        <time>2015-01-19T20:36:04.992Z</time>
      </trkpt>
      <trkpt lat="48.83764" lon="2.2575">
        <ele>89.5</ele>
        <time>2015-01-19T20:36:05.868Z</time>
      </trkpt>
      <trkpt lat="48.83762" lon="2.2576">
        <ele>90.8</ele>
        <time>2015-01-19T20:36:07.915Z</time>
      </trkpt>
      <trkpt lat="48.83759" lon="2.25763">
        <ele>91.1</ele>
        <time>2015-01-19T20:36:08.949Z</time>
      </trkpt>
      <trkpt lat="48.83754" lon="2.2577">
        <ele>91.6</ele>
        <time>2015-01-19T20:36:10.899Z</time>
      </trkpt>
      <trkpt lat="48.83752" lon="2.25775">
        <ele>91.9</ele>
        <time>2015-01-19T20:36:11.903Z</time>
      </trkpt>
      <trkpt lat="48.83747" lon="2.25783">
        <ele>92.4</ele>
        <time>2015-01-19T20:36:13.935Z</time>
      </trkpt>
      <trkpt lat="48.83745" lon="2.25788">
        <ele>92.5</ele>
        <time>2015-01-19T20:36:14.950Z</time>
      </trkpt>
      <trkpt lat="48.83742" lon="2.25798">
        <ele>92.8</ele>
        <time>2015-01-19T20:36:18.950Z</time>
      </trkpt>
      <trkpt lat="48.8374" lon="2.25801">
        <ele>93</ele>
        <time>2015-01-19T20:36:19.966Z</time>
      </trkpt>
      <trkpt lat="48.83747" lon="2.25792">
        <ele>93.4</ele>
        <time>2015-01-19T20:36:27.941Z</time>
      </trkpt>
      <trkpt lat="48.83751" lon="2.2579">
        <ele>93.4</ele>
        <time>2015-01-19T20:36:28.956Z</time>
      </trkpt>
      <trkpt lat="48.83751" lon="2.25789">
        <ele>93.3</ele>
        <time>2015-01-19T20:36:30.885Z</time>
      </trkpt>
      <trkpt lat="48.83742" lon="2.25788">
        <ele>92</ele>
        <time>2015-01-19T20:36:31.926Z</time>
      </trkpt>
      <trkpt lat="48.83744" lon="2.25786">
        <ele>90.4</ele>
        <time>2015-01-19T20:36:36.875Z</time>
      </trkpt>
      <trkpt lat="48.8375" lon="2.25794">
        <ele>88.3</ele>
        <time>2015-01-19T20:36:37.891Z</time>
      </trkpt>
      <trkpt lat="48.83749" lon="2.25805">
        <ele>87.7</ele>
        <time>2015-01-19T20:36:40.016Z</time>
      </trkpt>
      <trkpt lat="48.83747" lon="2.25811">
        <ele>87.1</ele>
        <time>2015-01-19T20:36:40.946Z</time>
      </trkpt>
      <trkpt lat="48.83747" lon="2.25823">
        <ele>86.7</ele>
        <time>2015-01-19T20:36:42.957Z</time>
      </trkpt>
      <trkpt lat="48.83746" lon="2.2583">
        <ele>86.7</ele>
        <time>2015-01-19T20:36:43.974Z</time>
      </trkpt>
      <trkpt lat="48.83746" lon="2.25838">
        <ele>86.7</ele>
        <time>2015-01-19T20:36:45.059Z</time>
      </trkpt>
      <trkpt lat="48.83747" lon="2.25847">
        <ele>86.6</ele>
        <time>2015-01-19T20:36:45.928Z</time>
      </trkpt>
      <trkpt lat="48.83746" lon="2.25856">
        <ele>86.5</ele>
        <time>2015-01-19T20:36:46.957Z</time>
      </trkpt>
      <trkpt lat="48.83744" lon="2.25865">
        <ele>86.7</ele>
        <time>2015-01-19T20:36:47.967Z</time>
      </trkpt>
      <trkpt lat="48.83742" lon="2.25875">
        <ele>86.8</ele>
        <time>2015-01-19T20:36:48.996Z</time>
      </trkpt>
      <trkpt lat="48.83741" lon="2.25883">
        <ele>86.6</ele>
        <time>2015-01-19T20:36:49.913Z</time>
      </trkpt>
      <trkpt lat="48.83741" lon="2.25892">
        <ele>86.3</ele>
        <time>2015-01-19T20:36:50.931Z</time>
      </trkpt>
      <trkpt lat="48.8374" lon="2.25902">
        <ele>86.2</ele>
        <time>2015-01-19T20:36:51.947Z</time>
      </trkpt>
      <trkpt lat="48.83739" lon="2.25911">
        <ele>86.2</ele>
        <time>2015-01-19T20:36:52.976Z</time>
      </trkpt>
      <trkpt lat="48.83738" lon="2.2592">
        <ele>86.2</ele>
        <time>2015-01-19T20:36:53.903Z</time>
      </trkpt>
      <trkpt lat="48.83736" lon="2.25929">
        <ele>86.2</ele>
        <time>2015-01-19T20:36:55.235Z</time>
      </trkpt>
      <trkpt lat="48.83735" lon="2.25939">
        <ele>86.3</ele>
        <time>2015-01-19T20:36:55.912Z</time>
      </trkpt>
      <trkpt lat="48.83734" lon="2.25949">
        <ele>85.9</ele>
        <time>2015-01-19T20:36:56.933Z</time>
      </trkpt>
      <trkpt lat="48.83734" lon="2.25962">
        <ele>85.5</ele>
        <time>2015-01-19T20:36:57.932Z</time>
      </trkpt>
      <trkpt lat="48.83735" lon="2.25971">
        <ele>85</ele>
        <time>2015-01-19T20:36:58.870Z</time>
      </trkpt>
      <trkpt lat="48.83738" lon="2.25982">
        <ele>83.5</ele>
        <time>2015-01-19T20:36:59.892Z</time>
      </trkpt>
      <trkpt lat="48.83738" lon="2.25982">
        <ele>83.5</ele>
        <time>2015-01-19T20:37:00.563Z</time>
      </trkpt>
      <trkpt lat="48.83744" lon="2.25992">
        <ele>81.7</ele>
        <time>2015-01-19T20:37:00.913Z</time>
      </trkpt>
      <trkpt lat="48.83746" lon="2.26001">
        <ele>80.4</ele>
        <time>2015-01-19T20:37:01.924Z</time>
      </trkpt>
      <trkpt lat="48.83747" lon="2.2601">
        <ele>79.7</ele>
        <time>2015-01-19T20:37:02.999Z</time>
      </trkpt>
      <trkpt lat="48.83748" lon="2.26021">
        <ele>78.9</ele>
        <time>2015-01-19T20:37:03.853Z</time>
      </trkpt>
      <trkpt lat="48.83748" lon="2.26033">
        <ele>78.2</ele>
        <time>2015-01-19T20:37:04.880Z</time>
      </trkpt>
      <trkpt lat="48.83749" lon="2.26045">
        <ele>77.4</ele>
        <time>2015-01-19T20:37:05.873Z</time>
      </trkpt>
      <trkpt lat="48.83749" lon="2.26056">
        <ele>76.8</ele>
        <time>2015-01-19T20:37:06.887Z</time>
      </trkpt>
      <trkpt lat="48.8375" lon="2.26068">
        <ele>76.5</ele>
        <time>2015-01-19T20:37:07.906Z</time>
      </trkpt>
      <trkpt lat="48.8375" lon="2.2608">
        <ele>76.1</ele>
        <time>2015-01-19T20:37:08.919Z</time>
      </trkpt>
      <trkpt lat="48.83751" lon="2.26092">
        <ele>75.6</ele>
        <time>2015-01-19T20:37:10.733Z</time>
      </trkpt>
      <trkpt lat="48.83751" lon="2.26103">
        <ele>75.5</ele>
        <time>2015-01-19T20:37:10.946Z</time>
      </trkpt>
      <trkpt lat="48.83752" lon="2.26111">
        <ele>75</ele>
        <time>2015-01-19T20:37:11.941Z</time>
      </trkpt>
      <trkpt lat="48.83753" lon="2.26118">
        <ele>74.7</ele>
        <time>2015-01-19T20:37:12.954Z</time>
      </trkpt>
      <trkpt lat="48.83754" lon="2.26126">
        <ele>74.6</ele>
        <time>2015-01-19T20:37:13.972Z</time>
      </trkpt>
      <trkpt lat="48.83756" lon="2.26134">
        <ele>74.5</ele>
        <time>2015-01-19T20:37:14.986Z</time>
      </trkpt>
      <trkpt lat="48.83757" lon="2.26142">
        <ele>74.4</ele>
        <time>2015-01-19T20:37:15.862Z</time>
      </trkpt>
      <trkpt lat="48.83759" lon="2.26152">
        <ele>74.9</ele>
        <time>2015-01-19T20:37:16.870Z</time>
      </trkpt>
      <trkpt lat="48.83761" lon="2.26161">
        <ele>75.2</ele>
        <time>2015-01-19T20:37:17.926Z</time>
      </trkpt>
      <trkpt lat="48.83762" lon="2.2617">
        <ele>75.2</ele>
        <time>2015-01-19T20:37:18.932Z</time>
      </trkpt>
      <trkpt lat="48.83763" lon="2.2618">
        <ele>74.9</ele>
        <time>2015-01-19T20:37:20.915Z</time>
      </trkpt>
      <trkpt lat="48.83765" lon="2.26187">
        <ele>75</ele>
        <time>2015-01-19T20:37:20.947Z</time>
      </trkpt>
      <trkpt lat="48.83766" lon="2.26195">
        <ele>74.8</ele>
        <time>2015-01-19T20:37:21.960Z</time>
      </trkpt>
      <trkpt lat="48.83767" lon="2.26204">
        <ele>74.8</ele>
        <time>2015-01-19T20:37:22.976Z</time>
      </trkpt>
      <trkpt lat="48.83768" lon="2.26212">
        <ele>74.7</ele>
        <time>2015-01-19T20:37:23.877Z</time>
      </trkpt>
      <trkpt lat="48.83771" lon="2.26219">
        <ele>74.6</ele>
        <time>2015-01-19T20:37:24.882Z</time>
      </trkpt>
      <trkpt lat="48.83771" lon="2.26232">
        <ele>74.9</ele>
        <time>2015-01-19T20:37:25.887Z</time>
      </trkpt>
      <trkpt lat="48.83775" lon="2.26237">
        <ele>74.7</ele>
        <time>2015-01-19T20:37:26.910Z</time>
      </trkpt>
      <trkpt lat="48.83779" lon="2.26243">
        <ele>74.7</ele>
        <time>2015-01-19T20:37:28.001Z</time>
      </trkpt>
      <trkpt lat="48.83782" lon="2.2625">
        <ele>75.4</ele>
        <time>2015-01-19T20:37:28.934Z</time>
      </trkpt>
      <trkpt lat="48.83786" lon="2.26258">
        <ele>75.9</ele>
        <time>2015-01-19T20:37:29.942Z</time>
      </trkpt>
      <trkpt lat="48.83789" lon="2.26265">
        <ele>76.4</ele>
        <time>2015-01-19T20:37:30.956Z</time>
      </trkpt>
      <trkpt lat="48.83792" lon="2.2627">
        <ele>76.4</ele>
        <time>2015-01-19T20:37:31.968Z</time>
      </trkpt>
      <trkpt lat="48.83795" lon="2.26276">
        <ele>76.6</ele>
        <time>2015-01-19T20:37:32.994Z</time>
      </trkpt>
      <trkpt lat="48.83798" lon="2.26287">
        <ele>77.6</ele>
        <time>2015-01-19T20:37:34.742Z</time>
      </trkpt>
      <trkpt lat="48.83801" lon="2.26295">
        <ele>78.4</ele>
        <time>2015-01-19T20:37:34.855Z</time>
      </trkpt>
      <trkpt lat="48.83804" lon="2.26302">
        <ele>78.6</ele>
        <time>2015-01-19T20:37:35.915Z</time>
      </trkpt>
      <trkpt lat="48.83806" lon="2.26308">
        <ele>79</ele>
        <time>2015-01-19T20:37:36.917Z</time>
      </trkpt>
      <trkpt lat="48.8381" lon="2.26314">
        <ele>79.6</ele>
        <time>2015-01-19T20:37:37.926Z</time>
      </trkpt>
      <trkpt lat="48.83812" lon="2.26321">
        <ele>80.2</ele>
        <time>2015-01-19T20:37:38.942Z</time>
      </trkpt>
      <trkpt lat="48.83815" lon="2.26327">
        <ele>80.3</ele>
        <time>2015-01-19T20:37:39.957Z</time>
      </trkpt>
      <trkpt lat="48.83817" lon="2.26333">
        <ele>80.5</ele>
        <time>2015-01-19T20:37:40.864Z</time>
      </trkpt>
      <trkpt lat="48.83822" lon="2.26343">
        <ele>80.4</ele>
        <time>2015-01-19T20:37:42.876Z</time>
      </trkpt>
      <trkpt lat="48.83825" lon="2.26351">
        <ele>81.3</ele>
        <time>2015-01-19T20:37:43.932Z</time>
      </trkpt>
      <trkpt lat="48.83829" lon="2.26362">
        <ele>81.3</ele>
        <time>2015-01-19T20:37:45.941Z</time>
      </trkpt>
      <trkpt lat="48.83832" lon="2.26367">
        <ele>81.2</ele>
        <time>2015-01-19T20:37:46.952Z</time>
      </trkpt>
      <trkpt lat="48.83838" lon="2.26376">
        <ele>81.3</ele>
        <time>2015-01-19T20:37:48.898Z</time>
      </trkpt>
      <trkpt lat="48.83841" lon="2.2638">
        <ele>81.3</ele>
        <time>2015-01-19T20:37:49.929Z</time>
      </trkpt>
      <trkpt lat="48.83849" lon="2.26388">
        <ele>81.2</ele>
        <time>2015-01-19T20:37:51.921Z</time>
      </trkpt>
      <trkpt lat="48.83852" lon="2.26392">
        <ele>81.1</ele>
        <time>2015-01-19T20:37:52.940Z</time>
      </trkpt>
      <trkpt lat="48.83856" lon="2.26396">
        <ele>80.9</ele>
        <time>2015-01-19T20:37:53.960Z</time>
      </trkpt>
      <trkpt lat="48.8386" lon="2.26401">
        <ele>80.7</ele>
        <time>2015-01-19T20:37:54.886Z</time>
      </trkpt>
      <trkpt lat="48.83864" lon="2.26404">
        <ele>80.5</ele>
        <time>2015-01-19T20:37:55.985Z</time>
      </trkpt>
      <trkpt lat="48.83868" lon="2.26408">
        <ele>80.4</ele>
        <time>2015-01-19T20:37:56.989Z</time>
      </trkpt>
      <trkpt lat="48.83872" lon="2.26412">
        <ele>80.3</ele>
        <time>2015-01-19T20:37:57.875Z</time>
      </trkpt>
      <trkpt lat="48.83876" lon="2.26417">
        <ele>80.3</ele>
        <time>2015-01-19T20:37:58.883Z</time>
      </trkpt>
      <trkpt lat="48.8388" lon="2.26421">
        <ele>80.3</ele>
        <time>2015-01-19T20:38:00.438Z</time>
      </trkpt>
      <trkpt lat="48.83883" lon="2.26426">
        <ele>80.3</ele>
        <time>2015-01-19T20:38:00.946Z</time>
      </trkpt>
      <trkpt lat="48.83889" lon="2.26435">
        <ele>80</ele>
        <time>2015-01-19T20:38:03.045Z</time>
      </trkpt>
      <trkpt lat="48.83892" lon="2.2644">
        <ele>80</ele>
        <time>2015-01-19T20:38:03.994Z</time>
      </trkpt>
      <trkpt lat="48.83896" lon="2.26449">
        <ele>79.9</ele>
        <time>2015-01-19T20:38:05.897Z</time>
      </trkpt>
      <trkpt lat="48.83898" lon="2.26453">
        <ele>80</ele>
        <time>2015-01-19T20:38:06.994Z</time>
      </trkpt>
      <trkpt lat="48.83899" lon="2.26467">
        <ele>81</ele>
        <time>2015-01-19T20:38:10.897Z</time>
      </trkpt>
      <trkpt lat="48.83901" lon="2.2647">
        <ele>82.5</ele>
        <time>2015-01-19T20:38:11.925Z</time>
      </trkpt>
      <trkpt lat="48.83901" lon="2.26483">
        <ele>85.7</ele>
        <time>2015-01-19T20:38:15.629Z</time>
      </trkpt>
      <trkpt lat="48.83901" lon="2.26486">
        <ele>86.5</ele>
        <time>2015-01-19T20:38:15.907Z</time>
      </trkpt>
      <trkpt lat="48.83898" lon="2.26496">
        <ele>87.8</ele>
        <time>2015-01-19T20:38:18.978Z</time>
      </trkpt>
      <trkpt lat="48.83897" lon="2.26501">
        <ele>88.1</ele>
        <time>2015-01-19T20:38:19.874Z</time>
      </trkpt>
      <trkpt lat="48.83901" lon="2.26513">
        <ele>88.1</ele>
        <time>2015-01-19T20:38:21.895Z</time>
      </trkpt>
      <trkpt lat="48.83902" lon="2.26515">
        <ele>88.4</ele>
        <time>2015-01-19T20:38:22.905Z</time>
      </trkpt>
      <trkpt lat="48.83906" lon="2.26527">
        <ele>88.8</ele>
        <time>2015-01-19T20:38:25.895Z</time>
      </trkpt>
      <trkpt lat="48.83908" lon="2.26532">
        <ele>88.8</ele>
        <time>2015-01-19T20:38:26.908Z</time>
      </trkpt>
      <trkpt lat="48.83911" lon="2.26538">
        <ele>89.1</ele>
        <time>2015-01-19T20:38:27.928Z</time>
      </trkpt>
      <trkpt lat="48.83918" lon="2.26542">
        <ele>89.9</ele>
        <time>2015-01-19T20:38:28.942Z</time>
      </trkpt>
      <trkpt lat="48.83922" lon="2.26547">
        <ele>89.9</ele>
        <time>2015-01-19T20:38:30.232Z</time>
      </trkpt>
      <trkpt lat="48.8393" lon="2.26567">
        <ele>89.6</ele>
        <time>2015-01-19T20:38:32.997Z</time>
      </trkpt>
      <trkpt lat="48.83933" lon="2.26574">
        <ele>89.4</ele>
        <time>2015-01-19T20:38:33.878Z</time>
      </trkpt>
      <trkpt lat="48.83935" lon="2.26579">
        <ele>89.3</ele>
        <time>2015-01-19T20:38:34.872Z</time>
      </trkpt>
      <trkpt lat="48.83938" lon="2.26584">
        <ele>89.4</ele>
        <time>2015-01-19T20:38:35.929Z</time>
      </trkpt>
      <trkpt lat="48.8394" lon="2.26593">
        <ele>90.3</ele>
        <time>2015-01-19T20:38:36.955Z</time>
      </trkpt>
      <trkpt lat="48.83944" lon="2.26604">
        <ele>91.1</ele>
        <time>2015-01-19T20:38:38.856Z</time>
      </trkpt>
      <trkpt lat="48.83947" lon="2.2662">
        <ele>91.3</ele>
        <time>2015-01-19T20:38:41.848Z</time>
      </trkpt>
      <trkpt lat="48.83952" lon="2.26626">
        <ele>90</ele>
        <time>2015-01-19T20:38:42.959Z</time>
      </trkpt>
      <trkpt lat="48.83957" lon="2.2663">
        <ele>89.2</ele>
        <time>2015-01-19T20:38:43.876Z</time>
      </trkpt>
      <trkpt lat="48.83962" lon="2.26637">
        <ele>88.8</ele>
        <time>2015-01-19T20:38:46.838Z</time>
      </trkpt>
      <trkpt lat="48.83964" lon="2.26639">
        <ele>88.6</ele>
        <time>2015-01-19T20:38:46.893Z</time>
      </trkpt>
      <trkpt lat="48.83968" lon="2.2665">
        <ele>88.4</ele>
        <time>2015-01-19T20:38:49.947Z</time>
      </trkpt>
      <trkpt lat="48.83969" lon="2.26651">
        <ele>88.4</ele>
        <time>2015-01-19T20:38:50.976Z</time>
      </trkpt>
      <trkpt lat="48.83976" lon="2.26657">
        <ele>87.9</ele>
        <time>2015-01-19T20:38:54.909Z</time>
      </trkpt>
      <trkpt lat="48.8398" lon="2.26657">
        <ele>87</ele>
        <time>2015-01-19T20:38:55.939Z</time>
      </trkpt>
      <trkpt lat="48.83986" lon="2.26653">
        <ele>86.6</ele>
        <time>2015-01-19T20:39:05.849Z</time>
      </trkpt>
      <trkpt lat="48.83991" lon="2.26653">
        <ele>87.8</ele>
        <time>2015-01-19T20:39:06.919Z</time>
      </trkpt>
      <trkpt lat="48.83991" lon="2.26665">
        <ele>89.4</ele>
        <time>2015-01-19T20:39:17.521Z</time>
      </trkpt>
      <trkpt lat="48.83991" lon="2.26668">
        <ele>89.5</ele>
        <time>2015-01-19T20:39:17.977Z</time>
      </trkpt>
      <trkpt lat="48.83988" lon="2.26675">
        <ele>88.6</ele>
        <time>2015-01-19T20:39:20.946Z</time>
      </trkpt>
      <trkpt lat="48.83984" lon="2.26677">
        <ele>87.5</ele>
        <time>2015-01-19T20:39:21.868Z</time>
      </trkpt>
      <trkpt lat="48.83981" lon="2.26687">
        <ele>87.1</ele>
        <time>2015-01-19T20:39:24.919Z</time>
      </trkpt>
      <trkpt lat="48.83981" lon="2.26691">
        <ele>86.7</ele>
        <time>2015-01-19T20:39:25.873Z</time>
      </trkpt>
      <trkpt lat="48.83981" lon="2.26694">
        <ele>86.6</ele>
        <time>2015-01-19T20:39:26.901Z</time>
      </trkpt>
      <trkpt lat="48.83992" lon="2.26709">
        <ele>86.6</ele>
        <time>2015-01-19T20:39:33.960Z</time>
      </trkpt>
      <trkpt lat="48.83997" lon="2.26719">
        <ele>86.1</ele>
        <time>2015-01-19T20:39:35.872Z</time>
      </trkpt>
      <trkpt lat="48.84" lon="2.26725">
        <ele>86.4</ele>
        <time>2015-01-19T20:39:36.921Z</time>
      </trkpt>
      <trkpt lat="48.84006" lon="2.26733">
        <ele>86.4</ele>
        <time>2015-01-19T20:39:39.915Z</time>
      </trkpt>
      <trkpt lat="48.84009" lon="2.26736">
        <ele>86.5</ele>
        <time>2015-01-19T20:39:39.998Z</time>
      </trkpt>
      <trkpt lat="48.84015" lon="2.26743">
        <ele>86.5</ele>
        <time>2015-01-19T20:39:41.887Z</time>
      </trkpt>
      <trkpt lat="48.84018" lon="2.26746">
        <ele>86.6</ele>
        <time>2015-01-19T20:39:42.918Z</time>
      </trkpt>
      <trkpt lat="48.84024" lon="2.26752">
        <ele>86.2</ele>
        <time>2015-01-19T20:39:45.136Z</time>
      </trkpt>
      <trkpt lat="48.84027" lon="2.26755">
        <ele>86</ele>
        <time>2015-01-19T20:39:45.873Z</time>
      </trkpt>
      <trkpt lat="48.84032" lon="2.26761">
        <ele>85.8</ele>
        <time>2015-01-19T20:39:47.908Z</time>
      </trkpt>
      <trkpt lat="48.84035" lon="2.26766">
        <ele>85.5</ele>
        <time>2015-01-19T20:39:48.922Z</time>
      </trkpt>
      <trkpt lat="48.84041" lon="2.26773">
        <ele>85</ele>
        <time>2015-01-19T20:39:50.948Z</time>
      </trkpt>
      <trkpt lat="48.84044" lon="2.26777">
        <ele>84.9</ele>
        <time>2015-01-19T20:39:51.960Z</time>
      </trkpt>
      <trkpt lat="48.84048" lon="2.26781">
        <ele>84.8</ele>
        <time>2015-01-19T20:39:52.884Z</time>
      </trkpt>
      <trkpt lat="48.84052" lon="2.26784">
        <ele>84.7</ele>
        <time>2015-01-19T20:39:53.888Z</time>
      </trkpt>
      <trkpt lat="48.84059" lon="2.2679">
        <ele>84.7</ele>
        <time>2015-01-19T20:39:55.942Z</time>
      </trkpt>
      <trkpt lat="48.84061" lon="2.26795">
        <ele>84.6</ele>
        <time>2015-01-19T20:39:56.960Z</time>
      </trkpt>
      <trkpt lat="48.84067" lon="2.26804">
        <ele>84.4</ele>
        <time>2015-01-19T20:39:58.922Z</time>
      </trkpt>
      <trkpt lat="48.8407" lon="2.26808">
        <ele>84.5</ele>
        <time>2015-01-19T20:39:59.880Z</time>
      </trkpt>
      <trkpt lat="48.84078" lon="2.26814">
        <ele>84.9</ele>
        <time>2015-01-19T20:40:03.871Z</time>
      </trkpt>
      <trkpt lat="48.84079" lon="2.26814">
        <ele>85.1</ele>
        <time>2015-01-19T20:40:04.967Z</time>
      </trkpt>
      <trkpt lat="48.84079" lon="2.26814">
        <ele>85.1</ele>
        <time>2015-01-19T20:40:05.848Z</time>
      </trkpt>
      <trkpt lat="48.84078" lon="2.26814">
        <ele>85</ele>
        <time>2015-01-19T20:40:07.636Z</time>
      </trkpt>
      <trkpt lat="48.84079" lon="2.26815">
        <ele>85.4</ele>
        <time>2015-01-19T20:40:07.915Z</time>
      </trkpt>
      <trkpt lat="48.84079" lon="2.26816">
        <ele>85.5</ele>
        <time>2015-01-19T20:40:08.950Z</time>
      </trkpt>
      <trkpt lat="48.8408" lon="2.26817">
        <ele>85.5</ele>
        <time>2015-01-19T20:40:09.959Z</time>
      </trkpt>
      <trkpt lat="48.84086" lon="2.26825">
        <ele>85.3</ele>
        <time>2015-01-19T20:40:14.005Z</time>
      </trkpt>
      <trkpt lat="48.84088" lon="2.26827">
        <ele>85.5</ele>
        <time>2015-01-19T20:40:14.901Z</time>
      </trkpt>
      <trkpt lat="48.84096" lon="2.26832">
        <ele>85.3</ele>
        <time>2015-01-19T20:40:17.915Z</time>
      </trkpt>
      <trkpt lat="48.84099" lon="2.26834">
        <ele>85.1</ele>
        <time>2015-01-19T20:40:18.921Z</time>
      </trkpt>
      <trkpt lat="48.84106" lon="2.26839">
        <ele>85.1</ele>
        <time>2015-01-19T20:40:21Z</time>
      </trkpt>
      <trkpt lat="48.8411" lon="2.26842">
        <ele>85.2</ele>
        <time>2015-01-19T20:40:21.949Z</time>
      </trkpt>
      <trkpt lat="48.84117" lon="2.26847">
        <ele>85.2</ele>
        <time>2015-01-19T20:40:24.005Z</time>
      </trkpt>
      <trkpt lat="48.84121" lon="2.26848">
        <ele>85</ele>
        <time>2015-01-19T20:40:24.928Z</time>
      </trkpt>
      <trkpt lat="48.84127" lon="2.26854">
        <ele>84.9</ele>
        <time>2015-01-19T20:40:26.893Z</time>
      </trkpt>
      <trkpt lat="48.84131" lon="2.26857">
        <ele>84.9</ele>
        <time>2015-01-19T20:40:27.897Z</time>
      </trkpt>
      <trkpt lat="48.84138" lon="2.26864">
        <ele>84.9</ele>
        <time>2015-01-19T20:40:29.936Z</time>
      </trkpt>
      <trkpt lat="48.84141" lon="2.26868">
        <ele>84.8</ele>
        <time>2015-01-19T20:40:30.949Z</time>
      </trkpt>
      <trkpt lat="48.84148" lon="2.26875">
        <ele>84.7</ele>
        <time>2015-01-19T20:40:32.927Z</time>
      </trkpt>
      <trkpt lat="48.84151" lon="2.26878">
        <ele>84.7</ele>
        <time>2015-01-19T20:40:33.935Z</time>
      </trkpt>
      <trkpt lat="48.84155" lon="2.26881">
        <ele>84.7</ele>
        <time>2015-01-19T20:40:34.819Z</time>
      </trkpt>
      <trkpt lat="48.84159" lon="2.26884">
        <ele>84.8</ele>
        <time>2015-01-19T20:40:35.848Z</time>
      </trkpt>
      <trkpt lat="48.84163" lon="2.26888">
        <ele>84.9</ele>
        <time>2015-01-19T20:40:36.849Z</time>
      </trkpt>
      <trkpt lat="48.84168" lon="2.2689">
        <ele>84.7</ele>
        <time>2015-01-19T20:40:37.910Z</time>
      </trkpt>
      <trkpt lat="48.84173" lon="2.26894">
        <ele>84.7</ele>
        <time>2015-01-19T20:40:39.792Z</time>
      </trkpt>
      <trkpt lat="48.84177" lon="2.26897">
        <ele>84.6</ele>
        <time>2015-01-19T20:40:39.823Z</time>
      </trkpt>
      <trkpt lat="48.84184" lon="2.26905">
        <ele>84.8</ele>
        <time>2015-01-19T20:40:41.860Z</time>
      </trkpt>
      <trkpt lat="48.84187" lon="2.26912">
        <ele>85.5</ele>
        <time>2015-01-19T20:40:42.862Z</time>
      </trkpt>
      <trkpt lat="48.84192" lon="2.26922">
        <ele>86.2</ele>
        <time>2015-01-19T20:40:44.902Z</time>
      </trkpt>
      <trkpt lat="48.84196" lon="2.26926">
        <ele>86</ele>
        <time>2015-01-19T20:40:45.972Z</time>
      </trkpt>
      <trkpt lat="48.84201" lon="2.26931">
        <ele>85.6</ele>
        <time>2015-01-19T20:40:46.864Z</time>
      </trkpt>
      <trkpt lat="48.84206" lon="2.26936">
        <ele>85.3</ele>
        <time>2015-01-19T20:40:47.872Z</time>
      </trkpt>
      <trkpt lat="48.8421" lon="2.26941">
        <ele>85.1</ele>
        <time>2015-01-19T20:40:48.911Z</time>
      </trkpt>
      <trkpt lat="48.84214" lon="2.26948">
        <ele>84.7</ele>
        <time>2015-01-19T20:40:49.853Z</time>
      </trkpt>
      <trkpt lat="48.84217" lon="2.26952">
        <ele>84.4</ele>
        <time>2015-01-19T20:40:50.907Z</time>
      </trkpt>
      <trkpt lat="48.84221" lon="2.26956">
        <ele>84.2</ele>
        <time>2015-01-19T20:40:51.921Z</time>
      </trkpt>
      <trkpt lat="48.84226" lon="2.2696">
        <ele>84.1</ele>
        <time>2015-01-19T20:40:52.900Z</time>
      </trkpt>
      <trkpt lat="48.8423" lon="2.26963">
        <ele>84.1</ele>
        <time>2015-01-19T20:40:53.906Z</time>
      </trkpt>
      <trkpt lat="48.84236" lon="2.26967">
        <ele>83.9</ele>
        <time>2015-01-19T20:40:55.062Z</time>
      </trkpt>
      <trkpt lat="48.8424" lon="2.26971">
        <ele>84.1</ele>
        <time>2015-01-19T20:40:55.907Z</time>
      </trkpt>
      <trkpt lat="48.84245" lon="2.26975">
        <ele>84</ele>
        <time>2015-01-19T20:40:56.929Z</time>
      </trkpt>
      <trkpt lat="48.8425" lon="2.2698">
        <ele>83.9</ele>
        <time>2015-01-19T20:40:57.936Z</time>
      </trkpt>
      <trkpt lat="48.84255" lon="2.26984">
        <ele>83.8</ele>
        <time>2015-01-19T20:40:58.951Z</time>
      </trkpt>
      <trkpt lat="48.8426" lon="2.26989">
        <ele>83.7</ele>
        <time>2015-01-19T20:40:59.866Z</time>
      </trkpt>
      <trkpt lat="48.84265" lon="2.26994">
        <ele>83.7</ele>
        <time>2015-01-19T20:41:00.881Z</time>
      </trkpt>
      <trkpt lat="48.8427" lon="2.26999">
        <ele>83.6</ele>
        <time>2015-01-19T20:41:01.895Z</time>
      </trkpt>
      <trkpt lat="48.84276" lon="2.27003">
        <ele>83.8</ele>
        <time>2015-01-19T20:41:02.929Z</time>
      </trkpt>
      <trkpt lat="48.84282" lon="2.27007">
        <ele>84</ele>
        <time>2015-01-19T20:41:03.927Z</time>
      </trkpt>
      <trkpt lat="48.84288" lon="2.27011">
        <ele>83.9</ele>
        <time>2015-01-19T20:41:04.971Z</time>
      </trkpt>
      <trkpt lat="48.84295" lon="2.27017">
        <ele>83.6</ele>
        <time>2015-01-19T20:41:05.871Z</time>
      </trkpt>
      <trkpt lat="48.84302" lon="2.27023">
        <ele>83.6</ele>
        <time>2015-01-19T20:41:06.883Z</time>
      </trkpt>
      <trkpt lat="48.84311" lon="2.27032">
        <ele>84.7</ele>
        <time>2015-01-19T20:41:07.888Z</time>
      </trkpt>
      <trkpt lat="48.84317" lon="2.27039">
        <ele>84.7</ele>
        <time>2015-01-19T20:41:08.900Z</time>
      </trkpt>
      <trkpt lat="48.84322" lon="2.27045">
        <ele>84.8</ele>
        <time>2015-01-19T20:41:09.940Z</time>
      </trkpt>
      <trkpt lat="48.84328" lon="2.27052">
        <ele>85.1</ele>
        <time>2015-01-19T20:41:10.851Z</time>
      </trkpt>
      <trkpt lat="48.84335" lon="2.27058">
        <ele>85.1</ele>
        <time>2015-01-19T20:41:11.851Z</time>
      </trkpt>
      <trkpt lat="48.84341" lon="2.27065">
        <ele>85.2</ele>
        <time>2015-01-19T20:41:12.866Z</time>
      </trkpt>
      <trkpt lat="48.84347" lon="2.27071">
        <ele>85.3</ele>
        <time>2015-01-19T20:41:13.880Z</time>
      </trkpt>
      <trkpt lat="48.84353" lon="2.27077">
        <ele>85.2</ele>
        <time>2015-01-19T20:41:14.939Z</time>
      </trkpt>
      <trkpt lat="48.84358" lon="2.27084">
        <ele>85.3</ele>
        <time>2015-01-19T20:41:15.866Z</time>
      </trkpt>
      <trkpt lat="48.84364" lon="2.2709">
        <ele>85.3</ele>
        <time>2015-01-19T20:41:16.931Z</time>
      </trkpt>
      <trkpt lat="48.8437" lon="2.27097">
        <ele>85.3</ele>
        <time>2015-01-19T20:41:17.859Z</time>
      </trkpt>
      <trkpt lat="48.84376" lon="2.27103">
        <ele>85.3</ele>
        <time>2015-01-19T20:41:18.878Z</time>
      </trkpt>
      <trkpt lat="48.84382" lon="2.27113">
        <ele>86.1</ele>
        <time>2015-01-19T20:41:19.907Z</time>
      </trkpt>
      <trkpt lat="48.84389" lon="2.27121">
        <ele>86.3</ele>
        <time>2015-01-19T20:41:20.911Z</time>
      </trkpt>
      <trkpt lat="48.84395" lon="2.27126">
        <ele>86.3</ele>
        <time>2015-01-19T20:41:21.920Z</time>
      </trkpt>
      <trkpt lat="48.84401" lon="2.27131">
        <ele>86.3</ele>
        <time>2015-01-19T20:41:22.923Z</time>
      </trkpt>
      <trkpt lat="48.84408" lon="2.27137">
        <ele>86.4</ele>
        <time>2015-01-19T20:41:23.861Z</time>
      </trkpt>
      <trkpt lat="48.84414" lon="2.27145">
        <ele>86.6</ele>
        <time>2015-01-19T20:41:24.875Z</time>
      </trkpt>
      <trkpt lat="48.84445" lon="2.27212">
        <ele>87.4</ele>
        <time>2015-01-19T20:41:33.850Z</time>
      </trkpt>
      <trkpt lat="48.84448" lon="2.27219">
        <ele>87.6</ele>
        <time>2015-01-19T20:41:34.844Z</time>
      </trkpt>
      <trkpt lat="48.84451" lon="2.27225">
        <ele>87.8</ele>
        <time>2015-01-19T20:41:35.839Z</time>
      </trkpt>
      <trkpt lat="48.84453" lon="2.2723">
        <ele>87.8</ele>
        <time>2015-01-19T20:41:36.849Z</time>
      </trkpt>
      <trkpt lat="48.84457" lon="2.27235">
        <ele>87.9</ele>
        <time>2015-01-19T20:41:37.864Z</time>
      </trkpt>
      <trkpt lat="48.8446" lon="2.27241">
        <ele>88</ele>
        <time>2015-01-19T20:41:38.890Z</time>
      </trkpt>
      <trkpt lat="48.84464" lon="2.27244">
        <ele>88.1</ele>
        <time>2015-01-19T20:41:39.900Z</time>
      </trkpt>
      <trkpt lat="48.84468" lon="2.27246">
        <ele>88.3</ele>
        <time>2015-01-19T20:41:40.922Z</time>
      </trkpt>
      <trkpt lat="48.84472" lon="2.2725">
        <ele>88.5</ele>
        <time>2015-01-19T20:41:41.938Z</time>
      </trkpt>
      <trkpt lat="48.8448" lon="2.27257">
        <ele>89.1</ele>
        <time>2015-01-19T20:41:43.849Z</time>
      </trkpt>
      <trkpt lat="48.84484" lon="2.27259">
        <ele>89.3</ele>
        <time>2015-01-19T20:41:44.919Z</time>
      </trkpt>
      <trkpt lat="48.84488" lon="2.27261">
        <ele>89.6</ele>
        <time>2015-01-19T20:41:45.937Z</time>
      </trkpt>
      <trkpt lat="48.84492" lon="2.27263">
        <ele>89.7</ele>
        <time>2015-01-19T20:41:46.834Z</time>
      </trkpt>
      <trkpt lat="48.84497" lon="2.27267">
        <ele>89.7</ele>
        <time>2015-01-19T20:41:47.842Z</time>
      </trkpt>
      <trkpt lat="48.84502" lon="2.27269">
        <ele>89.6</ele>
        <time>2015-01-19T20:41:48.887Z</time>
      </trkpt>
      <trkpt lat="48.84509" lon="2.27268">
        <ele>88.4</ele>
        <time>2015-01-19T20:41:50.696Z</time>
      </trkpt>
      <trkpt lat="48.84514" lon="2.27267">
        <ele>87.4</ele>
        <time>2015-01-19T20:41:50.898Z</time>
      </trkpt>
      <trkpt lat="48.8452" lon="2.27267">
        <ele>87.1</ele>
        <time>2015-01-19T20:41:51.935Z</time>
      </trkpt>
      <trkpt lat="48.84524" lon="2.2727">
        <ele>87.1</ele>
        <time>2015-01-19T20:41:52.949Z</time>
      </trkpt>
      <trkpt lat="48.84531" lon="2.27276">
        <ele>87.2</ele>
        <time>2015-01-19T20:41:54.898Z</time>
      </trkpt>
      <trkpt lat="48.84536" lon="2.27282">
        <ele>88.3</ele>
        <time>2015-01-19T20:41:55.897Z</time>
      </trkpt>
      <trkpt lat="48.8454" lon="2.27287">
        <ele>88.5</ele>
        <time>2015-01-19T20:41:56.925Z</time>
      </trkpt>
      <trkpt lat="48.84543" lon="2.2729">
        <ele>88.7</ele>
        <time>2015-01-19T20:41:57.939Z</time>
      </trkpt>
      <trkpt lat="48.84548" lon="2.27294">
        <ele>89.2</ele>
        <time>2015-01-19T20:41:58.997Z</time>
      </trkpt>
      <trkpt lat="48.84552" lon="2.27298">
        <ele>89.4</ele>
        <time>2015-01-19T20:41:59.893Z</time>
      </trkpt>
      <trkpt lat="48.84557" lon="2.27302">
        <ele>89.4</ele>
        <time>2015-01-19T20:42:00.914Z</time>
      </trkpt>
      <trkpt lat="48.84563" lon="2.27306">
        <ele>89.5</ele>
        <time>2015-01-19T20:42:01.924Z</time>
      </trkpt>
      <trkpt lat="48.84571" lon="2.27309">
        <ele>89</ele>
        <time>2015-01-19T20:42:02.932Z</time>
      </trkpt>
      <trkpt lat="48.84577" lon="2.27313">
        <ele>89.2</ele>
        <time>2015-01-19T20:42:03.837Z</time>
      </trkpt>
      <trkpt lat="48.84581" lon="2.27317">
        <ele>89.4</ele>
        <time>2015-01-19T20:42:04.847Z</time>
      </trkpt>
      <trkpt lat="48.84586" lon="2.27321">
        <ele>89.4</ele>
        <time>2015-01-19T20:42:05.867Z</time>
      </trkpt>
      <trkpt lat="48.84591" lon="2.27325">
        <ele>89.7</ele>
        <time>2015-01-19T20:42:06.870Z</time>
      </trkpt>
      <trkpt lat="48.84596" lon="2.2733">
        <ele>89.7</ele>
        <time>2015-01-19T20:42:07.877Z</time>
      </trkpt>
      <trkpt lat="48.84602" lon="2.27336">
        <ele>89.7</ele>
        <time>2015-01-19T20:42:09.197Z</time>
      </trkpt>
      <trkpt lat="48.84607" lon="2.27339">
        <ele>89.6</ele>
        <time>2015-01-19T20:42:09.920Z</time>
      </trkpt>
      <trkpt lat="48.84613" lon="2.27343">
        <ele>89.9</ele>
        <time>2015-01-19T20:42:10.938Z</time>
      </trkpt>
      <trkpt lat="48.8462" lon="2.27347">
        <ele>90.7</ele>
        <time>2015-01-19T20:42:12.061Z</time>
      </trkpt>
      <trkpt lat="48.84631" lon="2.27352">
        <ele>90.1</ele>
        <time>2015-01-19T20:42:12.868Z</time>
      </trkpt>
      <trkpt lat="48.8464" lon="2.27358">
        <ele>90.3</ele>
        <time>2015-01-19T20:42:13.888Z</time>
      </trkpt>
      <trkpt lat="48.84646" lon="2.27365">
        <ele>90.1</ele>
        <time>2015-01-19T20:42:14.913Z</time>
      </trkpt>
      <trkpt lat="48.8465" lon="2.27372">
        <ele>89.6</ele>
        <time>2015-01-19T20:42:15.976Z</time>
      </trkpt>
      <trkpt lat="48.84656" lon="2.2738">
        <ele>89</ele>
        <time>2015-01-19T20:42:16.861Z</time>
      </trkpt>
      <trkpt lat="48.84661" lon="2.27386">
        <ele>88.7</ele>
        <time>2015-01-19T20:42:17.862Z</time>
      </trkpt>
      <trkpt lat="48.84668" lon="2.27392">
        <ele>88.6</ele>
        <time>2015-01-19T20:42:18.865Z</time>
      </trkpt>
      <trkpt lat="48.84675" lon="2.27398">
        <ele>87.4</ele>
        <time>2015-01-19T20:42:19.869Z</time>
      </trkpt>
      <trkpt lat="48.8468" lon="2.27405">
        <ele>87.2</ele>
        <time>2015-01-19T20:42:20.893Z</time>
      </trkpt>
      <trkpt lat="48.84685" lon="2.27412">
        <ele>87</ele>
        <time>2015-01-19T20:42:21.890Z</time>
      </trkpt>
      <trkpt lat="48.84694" lon="2.27423">
        <ele>86.4</ele>
        <time>2015-01-19T20:42:23.914Z</time>
      </trkpt>
      <trkpt lat="48.84698" lon="2.27428">
        <ele>86.3</ele>
        <time>2015-01-19T20:42:24.956Z</time>
      </trkpt>
      <trkpt lat="48.84702" lon="2.27432">
        <ele>86.3</ele>
        <time>2015-01-19T20:42:25.878Z</time>
      </trkpt>
      <trkpt lat="48.84709" lon="2.27429">
        <ele>85.8</ele>
        <time>2015-01-19T20:42:27.898Z</time>
      </trkpt>
      <trkpt lat="48.8471" lon="2.2743">
        <ele>86.2</ele>
        <time>2015-01-19T20:42:28.961Z</time>
      </trkpt>
      <trkpt lat="48.84709" lon="2.27433">
        <ele>86.1</ele>
        <time>2015-01-19T20:42:32.954Z</time>
      </trkpt>
      <trkpt lat="48.84709" lon="2.27433">
        <ele>86.1</ele>
        <time>2015-01-19T20:42:33.967Z</time>
      </trkpt>
      <trkpt lat="48.84709" lon="2.27434">
        <ele>85.9</ele>
        <time>2015-01-19T20:42:35.867Z</time>
      </trkpt>
      <trkpt lat="48.84709" lon="2.27435">
        <ele>85.9</ele>
        <time>2015-01-19T20:42:36.883Z</time>
      </trkpt>
      <trkpt lat="48.8471" lon="2.27436">
        <ele>85.8</ele>
        <time>2015-01-19T20:42:37.909Z</time>
      </trkpt>
      <trkpt lat="48.8471" lon="2.27436">
        <ele>85.7</ele>
        <time>2015-01-19T20:42:38.918Z</time>
      </trkpt>
      <trkpt lat="48.84709" lon="2.27437">
        <ele>85.6</ele>
        <time>2015-01-19T20:42:39.928Z</time>
      </trkpt>
      <trkpt lat="48.84709" lon="2.27437">
        <ele>85.5</ele>
        <time>2015-01-19T20:42:40.930Z</time>
      </trkpt>
      <trkpt lat="48.8471" lon="2.27438">
        <ele>85.7</ele>
        <time>2015-01-19T20:42:41.950Z</time>
      </trkpt>
      <trkpt lat="48.8471" lon="2.27439">
        <ele>85.9</ele>
        <time>2015-01-19T20:42:42.920Z</time>
      </trkpt>
      <trkpt lat="48.84709" lon="2.27439">
        <ele>85.9</ele>
        <time>2015-01-19T20:42:43.903Z</time>
      </trkpt>
      <trkpt lat="48.8471" lon="2.27439">
        <ele>86.2</ele>
        <time>2015-01-19T20:42:44.906Z</time>
      </trkpt>
      <trkpt lat="48.8471" lon="2.2744">
        <ele>86.4</ele>
        <time>2015-01-19T20:42:45.959Z</time>
      </trkpt>
      <trkpt lat="48.84712" lon="2.27444">
        <ele>87.8</ele>
        <time>2015-01-19T20:42:47.952Z</time>
      </trkpt>
      <trkpt lat="48.84712" lon="2.27444">
        <ele>87.9</ele>
        <time>2015-01-19T20:42:48.979Z</time>
      </trkpt>
      <trkpt lat="48.84712" lon="2.27445">
        <ele>87.9</ele>
        <time>2015-01-19T20:42:49.912Z</time>
      </trkpt>
      <trkpt lat="48.84711" lon="2.27446">
        <ele>87.8</ele>
        <time>2015-01-19T20:42:51.970Z</time>
      </trkpt>
      <trkpt lat="48.84711" lon="2.27447">
        <ele>87.6</ele>
        <time>2015-01-19T20:42:52.929Z</time>
      </trkpt>
      <trkpt lat="48.84711" lon="2.27446">
        <ele>87.4</ele>
        <time>2015-01-19T20:42:56.934Z</time>
      </trkpt>
      <trkpt lat="48.8471" lon="2.27446">
        <ele>87.8</ele>
        <time>2015-01-19T20:42:57.957Z</time>
      </trkpt>
      <trkpt lat="48.84709" lon="2.27457">
        <ele>88.2</ele>
        <time>2015-01-19T20:43:04.892Z</time>
      </trkpt>
      <trkpt lat="48.84709" lon="2.2746">
        <ele>88.1</ele>
        <time>2015-01-19T20:43:05.896Z</time>
      </trkpt>
      <trkpt lat="48.84703" lon="2.27467">
        <ele>88.2</ele>
        <time>2015-01-19T20:43:09.970Z</time>
      </trkpt>
      <trkpt lat="48.84701" lon="2.27471">
        <ele>88.3</ele>
        <time>2015-01-19T20:43:10.878Z</time>
      </trkpt>
      <trkpt lat="48.84696" lon="2.27479">
        <ele>88.1</ele>
        <time>2015-01-19T20:43:12.933Z</time>
      </trkpt>
      <trkpt lat="48.84695" lon="2.27483">
        <ele>88</ele>
        <time>2015-01-19T20:43:13.947Z</time>
      </trkpt>
      <trkpt lat="48.84691" lon="2.27493">
        <ele>87.6</ele>
        <time>2015-01-19T20:43:15.893Z</time>
      </trkpt>
      <trkpt lat="48.84689" lon="2.27498">
        <ele>87.2</ele>
        <time>2015-01-19T20:43:16.895Z</time>
      </trkpt>
      <trkpt lat="48.84684" lon="2.27507">
        <ele>86.8</ele>
        <time>2015-01-19T20:43:18.932Z</time>
      </trkpt>
      <trkpt lat="48.84682" lon="2.27511">
        <ele>86.6</ele>
        <time>2015-01-19T20:43:19.897Z</time>
      </trkpt>
      <trkpt lat="48.84677" lon="2.2752">
        <ele>86.6</ele>
        <time>2015-01-19T20:43:21.944Z</time>
      </trkpt>
      <trkpt lat="48.84675" lon="2.27525">
        <ele>86.6</ele>
        <time>2015-01-19T20:43:22.961Z</time>
      </trkpt>
      <trkpt lat="48.84671" lon="2.27535">
        <ele>86.8</ele>
        <time>2015-01-19T20:43:24.888Z</time>
      </trkpt>
      <trkpt lat="48.84669" lon="2.27539">
        <ele>86.8</ele>
        <time>2015-01-19T20:43:25.894Z</time>
      </trkpt>
      <trkpt lat="48.84666" lon="2.27547">
        <ele>86.8</ele>
        <time>2015-01-19T20:43:27.925Z</time>
      </trkpt>
      <trkpt lat="48.84664" lon="2.27551">
        <ele>86.8</ele>
        <time>2015-01-19T20:43:28.969Z</time>
      </trkpt>
      <trkpt lat="48.8466" lon="2.27559">
        <ele>86.8</ele>
        <time>2015-01-19T20:43:30.884Z</time>
      </trkpt>
      <trkpt lat="48.84658" lon="2.27563">
        <ele>86.9</ele>
        <time>2015-01-19T20:43:31.918Z</time>
      </trkpt>
      <trkpt lat="48.84654" lon="2.27573">
        <ele>86.9</ele>
        <time>2015-01-19T20:43:33.974Z</time>
      </trkpt>
      <trkpt lat="48.84653" lon="2.27579">
        <ele>86.6</ele>
        <time>2015-01-19T20:43:34.892Z</time>
      </trkpt>
      <trkpt lat="48.8465" lon="2.27591">
        <ele>86.1</ele>
        <time>2015-01-19T20:43:36.908Z</time>
      </trkpt>
      <trkpt lat="48.84648" lon="2.27596">
        <ele>86.2</ele>
        <time>2015-01-19T20:43:37.917Z</time>
      </trkpt>
      <trkpt lat="48.84644" lon="2.27607">
        <ele>86</ele>
        <time>2015-01-19T20:43:39.960Z</time>
      </trkpt>
      <trkpt lat="48.84642" lon="2.27612">
        <ele>85.9</ele>
        <time>2015-01-19T20:43:40.971Z</time>
      </trkpt>
      <trkpt lat="48.84638" lon="2.27621">
        <ele>85.7</ele>
        <time>2015-01-19T20:43:42.891Z</time>
      </trkpt>
      <trkpt lat="48.84636" lon="2.27625">
        <ele>85.6</ele>
        <time>2015-01-19T20:43:43.950Z</time>
      </trkpt>
      <trkpt lat="48.84633" lon="2.27634">
        <ele>85.8</ele>
        <time>2015-01-19T20:43:45.878Z</time>
      </trkpt>
      <trkpt lat="48.84631" lon="2.27639">
        <ele>85.7</ele>
        <time>2015-01-19T20:43:46.897Z</time>
      </trkpt>
      <trkpt lat="48.84628" lon="2.27649">
        <ele>85.6</ele>
        <time>2015-01-19T20:43:48.904Z</time>
      </trkpt>
      <trkpt lat="48.84627" lon="2.27654">
        <ele>85.6</ele>
        <time>2015-01-19T20:43:49.942Z</time>
      </trkpt>
      <trkpt lat="48.84623" lon="2.27662">
        <ele>85.6</ele>
        <time>2015-01-19T20:43:51.965Z</time>
      </trkpt>
      <trkpt lat="48.84622" lon="2.27666">
        <ele>85.7</ele>
        <time>2015-01-19T20:43:52.879Z</time>
      </trkpt>
      <trkpt lat="48.84616" lon="2.27676">
        <ele>86.3</ele>
        <time>2015-01-19T20:43:56.942Z</time>
      </trkpt>
      <trkpt lat="48.84615" lon="2.27677">
        <ele>86.4</ele>
        <time>2015-01-19T20:43:57.979Z</time>
      </trkpt>
      <trkpt lat="48.84614" lon="2.27678">
        <ele>86.5</ele>
        <time>2015-01-19T20:43:59.877Z</time>
      </trkpt>
      <trkpt lat="48.84614" lon="2.27678">
        <ele>86.6</ele>
        <time>2015-01-19T20:44:00.891Z</time>
      </trkpt>
      <trkpt lat="48.84614" lon="2.27678">
        <ele>86.5</ele>
        <time>2015-01-19T20:44:01.905Z</time>
      </trkpt>
      <trkpt lat="48.84612" lon="2.27687">
        <ele>85.9</ele>
        <time>2015-01-19T20:44:08.933Z</time>
      </trkpt>
      <trkpt lat="48.8461" lon="2.27691">
        <ele>85.8</ele>
        <time>2015-01-19T20:44:09.950Z</time>
      </trkpt>
      <trkpt lat="48.84605" lon="2.27701">
        <ele>85.7</ele>
        <time>2015-01-19T20:44:12.929Z</time>
      </trkpt>
      <trkpt lat="48.84604" lon="2.27704">
        <ele>85.7</ele>
        <time>2015-01-19T20:44:13.902Z</time>
      </trkpt>
      <trkpt lat="48.84603" lon="2.27715">
        <ele>85.8</ele>
        <time>2015-01-19T20:44:16.934Z</time>
      </trkpt>
      <trkpt lat="48.84603" lon="2.27719">
        <ele>86</ele>
        <time>2015-01-19T20:44:18.038Z</time>
      </trkpt>
      <trkpt lat="48.84604" lon="2.2773">
        <ele>86.6</ele>
        <time>2015-01-19T20:44:20.924Z</time>
      </trkpt>
      <trkpt lat="48.84606" lon="2.27733">
        <ele>86.7</ele>
        <time>2015-01-19T20:44:21.927Z</time>
      </trkpt>
      <trkpt lat="48.84611" lon="2.27741">
        <ele>86.7</ele>
        <time>2015-01-19T20:44:23.939Z</time>
      </trkpt>
      <trkpt lat="48.84613" lon="2.27745">
        <ele>86.6</ele>
        <time>2015-01-19T20:44:24.945Z</time>
      </trkpt>
      <trkpt lat="48.84616" lon="2.27753">
        <ele>86.6</ele>
        <time>2015-01-19T20:44:25.968Z</time>
      </trkpt>
      <trkpt lat="48.84617" lon="2.27759">
        <ele>86.8</ele>
        <time>2015-01-19T20:44:26.970Z</time>
      </trkpt>
      <trkpt lat="48.84618" lon="2.2777">
        <ele>86.5</ele>
        <time>2015-01-19T20:44:28.925Z</time>
      </trkpt>
      <trkpt lat="48.84618" lon="2.27777">
        <ele>86</ele>
        <time>2015-01-19T20:44:29.987Z</time>
      </trkpt>
      <trkpt lat="48.84618" lon="2.2779">
        <ele>85.7</ele>
        <time>2015-01-19T20:44:31.878Z</time>
      </trkpt>
      <trkpt lat="48.84618" lon="2.27797">
        <ele>85.4</ele>
        <time>2015-01-19T20:44:32.960Z</time>
      </trkpt>
      <trkpt lat="48.84618" lon="2.27804">
        <ele>85.1</ele>
        <time>2015-01-19T20:44:33.967Z</time>
      </trkpt>
      <trkpt lat="48.84619" lon="2.27811">
        <ele>84.8</ele>
        <time>2015-01-19T20:44:34.883Z</time>
      </trkpt>
      <trkpt lat="48.8462" lon="2.27818">
        <ele>84.6</ele>
        <time>2015-01-19T20:44:35.910Z</time>
      </trkpt>
      <trkpt lat="48.84621" lon="2.27824">
        <ele>84.4</ele>
        <time>2015-01-19T20:44:36.911Z</time>
      </trkpt>
      <trkpt lat="48.84622" lon="2.27831">
        <ele>84.7</ele>
        <time>2015-01-19T20:44:37.912Z</time>
      </trkpt>
      <trkpt lat="48.84622" lon="2.27838">
        <ele>84.6</ele>
        <time>2015-01-19T20:44:38.925Z</time>
      </trkpt>
      <trkpt lat="48.84624" lon="2.27851">
        <ele>85</ele>
        <time>2015-01-19T20:44:40.947Z</time>
      </trkpt>
      <trkpt lat="48.84626" lon="2.27859">
        <ele>85.4</ele>
        <time>2015-01-19T20:44:41.957Z</time>
      </trkpt>
      <trkpt lat="48.84629" lon="2.27867">
        <ele>85.9</ele>
        <time>2015-01-19T20:44:42.966Z</time>
      </trkpt>
      <trkpt lat="48.84632" lon="2.27875">
        <ele>86.2</ele>
        <time>2015-01-19T20:44:44.060Z</time>
      </trkpt>
      <trkpt lat="48.84635" lon="2.27882">
        <ele>86.9</ele>
        <time>2015-01-19T20:44:44.928Z</time>
      </trkpt>
      <trkpt lat="48.84637" lon="2.27889">
        <ele>87.3</ele>
        <time>2015-01-19T20:44:45.930Z</time>
      </trkpt>
      <trkpt lat="48.84638" lon="2.27896">
        <ele>87.6</ele>
        <time>2015-01-19T20:44:46.939Z</time>
      </trkpt>
      <trkpt lat="48.84639" lon="2.27903">
        <ele>87.7</ele>
        <time>2015-01-19T20:44:47.972Z</time>
      </trkpt>
      <trkpt lat="48.84641" lon="2.27916">
        <ele>87.6</ele>
        <time>2015-01-19T20:44:49.887Z</time>
      </trkpt>
      <trkpt lat="48.84642" lon="2.27923">
        <ele>87.8</ele>
        <time>2015-01-19T20:44:50.936Z</time>
      </trkpt>
      <trkpt lat="48.84644" lon="2.2793">
        <ele>88</ele>
        <time>2015-01-19T20:44:51.891Z</time>
      </trkpt>
      <trkpt lat="48.84646" lon="2.27938">
        <ele>88.2</ele>
        <time>2015-01-19T20:44:52.896Z</time>
      </trkpt>
      <trkpt lat="48.8465" lon="2.27945">
        <ele>89</ele>
        <time>2015-01-19T20:44:53.929Z</time>
      </trkpt>
      <trkpt lat="48.84654" lon="2.27952">
        <ele>89.9</ele>
        <time>2015-01-19T20:44:54.941Z</time>
      </trkpt>
      <trkpt lat="48.84658" lon="2.2796">
        <ele>90.7</ele>
        <time>2015-01-19T20:44:55.959Z</time>
      </trkpt>
      <trkpt lat="48.8466" lon="2.27967">
        <ele>91.1</ele>
        <time>2015-01-19T20:44:56.999Z</time>
      </trkpt>
      <trkpt lat="48.84662" lon="2.27979">
        <ele>89.6</ele>
        <time>2015-01-19T20:44:58.878Z</time>
      </trkpt>
      <trkpt lat="48.84664" lon="2.27985">
        <ele>89.6</ele>
        <time>2015-01-19T20:44:59.893Z</time>
      </trkpt>
      <trkpt lat="48.84667" lon="2.27991">
        <ele>89.7</ele>
        <time>2015-01-19T20:45:00.930Z</time>
      </trkpt>
      <trkpt lat="48.8467" lon="2.27997">
        <ele>89.6</ele>
        <time>2015-01-19T20:45:01.940Z</time>
      </trkpt>
      <trkpt lat="48.84673" lon="2.28003">
        <ele>89.6</ele>
        <time>2015-01-19T20:45:02.963Z</time>
      </trkpt>
      <trkpt lat="48.84675" lon="2.2801">
        <ele>89.6</ele>
        <time>2015-01-19T20:45:03.867Z</time>
      </trkpt>
      <trkpt lat="48.84677" lon="2.28016">
        <ele>89.5</ele>
        <time>2015-01-19T20:45:04.886Z</time>
      </trkpt>
      <trkpt lat="48.84681" lon="2.28021">
        <ele>89.5</ele>
        <time>2015-01-19T20:45:05.947Z</time>
      </trkpt>
      <trkpt lat="48.84684" lon="2.28026">
        <ele>89.4</ele>
        <time>2015-01-19T20:45:06.870Z</time>
      </trkpt>
      <trkpt lat="48.84688" lon="2.28032">
        <ele>89.4</ele>
        <time>2015-01-19T20:45:07.918Z</time>
      </trkpt>
      <trkpt lat="48.84692" lon="2.28037">
        <ele>89.4</ele>
        <time>2015-01-19T20:45:08.941Z</time>
      </trkpt>
      <trkpt lat="48.84697" lon="2.28042">
        <ele>89.7</ele>
        <time>2015-01-19T20:45:09.945Z</time>
      </trkpt>
      <trkpt lat="48.847" lon="2.28049">
        <ele>90.2</ele>
        <time>2015-01-19T20:45:10.962Z</time>
      </trkpt>
      <trkpt lat="48.84701" lon="2.28056">
        <ele>90.8</ele>
        <time>2015-01-19T20:45:11.876Z</time>
      </trkpt>
      <trkpt lat="48.847" lon="2.28064">
        <ele>91.5</ele>
        <time>2015-01-19T20:45:12.902Z</time>
      </trkpt>
      <trkpt lat="48.84697" lon="2.28073">
        <ele>91.9</ele>
        <time>2015-01-19T20:45:14.005Z</time>
      </trkpt>
      <trkpt lat="48.84692" lon="2.28081">
        <ele>92.7</ele>
        <time>2015-01-19T20:45:14.906Z</time>
      </trkpt>
      <trkpt lat="48.84692" lon="2.28088">
        <ele>93.1</ele>
        <time>2015-01-19T20:45:15.903Z</time>
      </trkpt>
      <trkpt lat="48.84692" lon="2.281">
        <ele>93.7</ele>
        <time>2015-01-19T20:45:17.930Z</time>
      </trkpt>
      <trkpt lat="48.84692" lon="2.28107">
        <ele>94.1</ele>
        <time>2015-01-19T20:45:18.881Z</time>
      </trkpt>
      <trkpt lat="48.84691" lon="2.28113">
        <ele>94.5</ele>
        <time>2015-01-19T20:45:19.903Z</time>
      </trkpt>
      <trkpt lat="48.84691" lon="2.2812">
        <ele>94.9</ele>
        <time>2015-01-19T20:45:20.902Z</time>
      </trkpt>
      <trkpt lat="48.84688" lon="2.28132">
        <ele>95.2</ele>
        <time>2015-01-19T20:45:23.023Z</time>
      </trkpt>
      <trkpt lat="48.84687" lon="2.28138">
        <ele>95.2</ele>
        <time>2015-01-19T20:45:23.883Z</time>
      </trkpt>
      <trkpt lat="48.84686" lon="2.28149">
        <ele>95.3</ele>
        <time>2015-01-19T20:45:25.932Z</time>
      </trkpt>
      <trkpt lat="48.84686" lon="2.28155">
        <ele>95.5</ele>
        <time>2015-01-19T20:45:26.944Z</time>
      </trkpt>
      <trkpt lat="48.84685" lon="2.28166">
        <ele>95.9</ele>
        <time>2015-01-19T20:45:28.880Z</time>
      </trkpt>
      <trkpt lat="48.84683" lon="2.28172">
        <ele>96.2</ele>
        <time>2015-01-19T20:45:29.890Z</time>
      </trkpt>
      <trkpt lat="48.84682" lon="2.28178">
        <ele>96.5</ele>
        <time>2015-01-19T20:45:30.917Z</time>
      </trkpt>
      <trkpt lat="48.84679" lon="2.28187">
        <ele>96.2</ele>
        <time>2015-01-19T20:45:31.922Z</time>
      </trkpt>
      <trkpt lat="48.84673" lon="2.28198">
        <ele>95.2</ele>
        <time>2015-01-19T20:45:32.938Z</time>
      </trkpt>
      <trkpt lat="48.84668" lon="2.28209">
        <ele>94.2</ele>
        <time>2015-01-19T20:45:33.861Z</time>
      </trkpt>
      <trkpt lat="48.84665" lon="2.2822">
        <ele>93.8</ele>
        <time>2015-01-19T20:45:34.854Z</time>
      </trkpt>
      <trkpt lat="48.84662" lon="2.28232">
        <ele>93.4</ele>
        <time>2015-01-19T20:45:35.869Z</time>
      </trkpt>
      <trkpt lat="48.84659" lon="2.28241">
        <ele>93</ele>
        <time>2015-01-19T20:45:36.882Z</time>
      </trkpt>
      <trkpt lat="48.84657" lon="2.2825">
        <ele>92.6</ele>
        <time>2015-01-19T20:45:37.895Z</time>
      </trkpt>
      <trkpt lat="48.84656" lon="2.28257">
        <ele>92.2</ele>
        <time>2015-01-19T20:45:38.938Z</time>
      </trkpt>
      <trkpt lat="48.84655" lon="2.28264">
        <ele>91.7</ele>
        <time>2015-01-19T20:45:39.859Z</time>
      </trkpt>
      <trkpt lat="48.84655" lon="2.28271">
        <ele>91.4</ele>
        <time>2015-01-19T20:45:40.872Z</time>
      </trkpt>
      <trkpt lat="48.84653" lon="2.28283">
        <ele>91.8</ele>
        <time>2015-01-19T20:45:42.892Z</time>
      </trkpt>
      <trkpt lat="48.84654" lon="2.28289">
        <ele>91.9</ele>
        <time>2015-01-19T20:45:43.913Z</time>
      </trkpt>
      <trkpt lat="48.84654" lon="2.28299">
        <ele>92.3</ele>
        <time>2015-01-19T20:45:45.942Z</time>
      </trkpt>
      <trkpt lat="48.84653" lon="2.28305">
        <ele>92.6</ele>
        <time>2015-01-19T20:45:46.955Z</time>
      </trkpt>
      <trkpt lat="48.84651" lon="2.28317">
        <ele>93.1</ele>
        <time>2015-01-19T20:45:48.866Z</time>
      </trkpt>
      <trkpt lat="48.8465" lon="2.28324">
        <ele>93.2</ele>
        <time>2015-01-19T20:45:49.881Z</time>
      </trkpt>
      <trkpt lat="48.84648" lon="2.28331">
        <ele>93.4</ele>
        <time>2015-01-19T20:45:50.918Z</time>
      </trkpt>
      <trkpt lat="48.84646" lon="2.28337">
        <ele>93.4</ele>
        <time>2015-01-19T20:45:51.923Z</time>
      </trkpt>
      <trkpt lat="48.84645" lon="2.28344">
        <ele>93.2</ele>
        <time>2015-01-19T20:45:52.944Z</time>
      </trkpt>
      <trkpt lat="48.84643" lon="2.28353">
        <ele>92.6</ele>
        <time>2015-01-19T20:45:53.859Z</time>
      </trkpt>
      <trkpt lat="48.84641" lon="2.2836">
        <ele>92.5</ele>
        <time>2015-01-19T20:45:54.870Z</time>
      </trkpt>
      <trkpt lat="48.84639" lon="2.28368">
        <ele>92.4</ele>
        <time>2015-01-19T20:45:55.902Z</time>
      </trkpt>
      <trkpt lat="48.84637" lon="2.28375">
        <ele>92.4</ele>
        <time>2015-01-19T20:45:56.922Z</time>
      </trkpt>
      <trkpt lat="48.84636" lon="2.28382">
        <ele>92.4</ele>
        <time>2015-01-19T20:45:57.934Z</time>
      </trkpt>
      <trkpt lat="48.84634" lon="2.28389">
        <ele>92.5</ele>
        <time>2015-01-19T20:45:58.947Z</time>
      </trkpt>
      <trkpt lat="48.84633" lon="2.28397">
        <ele>92.6</ele>
        <time>2015-01-19T20:45:59.976Z</time>
      </trkpt>
      <trkpt lat="48.84633" lon="2.28405">
        <ele>92.8</ele>
        <time>2015-01-19T20:46:00.866Z</time>
      </trkpt>
      <trkpt lat="48.84635" lon="2.28416">
        <ele>93.9</ele>
        <time>2015-01-19T20:46:01.864Z</time>
      </trkpt>
      <trkpt lat="48.84635" lon="2.28424">
        <ele>94.2</ele>
        <time>2015-01-19T20:46:02.942Z</time>
      </trkpt>
      <trkpt lat="48.84637" lon="2.28435">
        <ele>94</ele>
        <time>2015-01-19T20:46:03.954Z</time>
      </trkpt>
      <trkpt lat="48.84641" lon="2.28446">
        <ele>93.5</ele>
        <time>2015-01-19T20:46:04.875Z</time>
      </trkpt>
      <trkpt lat="48.84642" lon="2.28457">
        <ele>93.1</ele>
        <time>2015-01-19T20:46:05.886Z</time>
      </trkpt>
      <trkpt lat="48.84644" lon="2.28466">
        <ele>92.6</ele>
        <time>2015-01-19T20:46:06.935Z</time>
      </trkpt>
      <trkpt lat="48.84645" lon="2.28475">
        <ele>92.3</ele>
        <time>2015-01-19T20:46:07.885Z</time>
      </trkpt>
      <trkpt lat="48.84646" lon="2.28482">
        <ele>91.9</ele>
        <time>2015-01-19T20:46:08.937Z</time>
      </trkpt>
      <trkpt lat="48.84649" lon="2.28489">
        <ele>91.7</ele>
        <time>2015-01-19T20:46:09.947Z</time>
      </trkpt>
      <trkpt lat="48.8465" lon="2.28495">
        <ele>91.3</ele>
        <time>2015-01-19T20:46:10.867Z</time>
      </trkpt>
      <trkpt lat="48.84651" lon="2.28502">
        <ele>91.1</ele>
        <time>2015-01-19T20:46:11.862Z</time>
      </trkpt>
      <trkpt lat="48.84652" lon="2.28515">
        <ele>90.8</ele>
        <time>2015-01-19T20:46:13.886Z</time>
      </trkpt>
      <trkpt lat="48.84653" lon="2.28522">
        <ele>90.7</ele>
        <time>2015-01-19T20:46:14.903Z</time>
      </trkpt>
      <trkpt lat="48.84655" lon="2.28535">
        <ele>90.7</ele>
        <time>2015-01-19T20:46:16.929Z</time>
      </trkpt>
      <trkpt lat="48.84656" lon="2.28542">
        <ele>90.8</ele>
        <time>2015-01-19T20:46:17.938Z</time>
      </trkpt>
      <trkpt lat="48.84659" lon="2.28551">
        <ele>90.6</ele>
        <time>2015-01-19T20:46:19.875Z</time>
      </trkpt>
      <trkpt lat="48.84661" lon="2.28554">
        <ele>90.4</ele>
        <time>2015-01-19T20:46:20.916Z</time>
      </trkpt>
      <trkpt lat="48.84667" lon="2.2856">
        <ele>90.4</ele>
        <time>2015-01-19T20:46:22.955Z</time>
      </trkpt>
      <trkpt lat="48.84672" lon="2.28562">
        <ele>90.1</ele>
        <time>2015-01-19T20:46:23.892Z</time>
      </trkpt>
      <trkpt lat="48.84678" lon="2.28568">
        <ele>90.3</ele>
        <time>2015-01-19T20:46:25.929Z</time>
      </trkpt>
      <trkpt lat="48.84682" lon="2.28571">
        <ele>90.4</ele>
        <time>2015-01-19T20:46:26.946Z</time>
      </trkpt>
      <trkpt lat="48.84688" lon="2.28575">
        <ele>90.2</ele>
        <time>2015-01-19T20:46:28.882Z</time>
      </trkpt>
      <trkpt lat="48.84692" lon="2.28577">
        <ele>90.6</ele>
        <time>2015-01-19T20:46:29.942Z</time>
      </trkpt>
      <trkpt lat="48.847" lon="2.28582">
        <ele>91.5</ele>
        <time>2015-01-19T20:46:31.875Z</time>
      </trkpt>
      <trkpt lat="48.84702" lon="2.28585">
        <ele>91.5</ele>
        <time>2015-01-19T20:46:32.950Z</time>
      </trkpt>
      <trkpt lat="48.84708" lon="2.2859">
        <ele>91.8</ele>
        <time>2015-01-19T20:46:34.880Z</time>
      </trkpt>
      <trkpt lat="48.8471" lon="2.28594">
        <ele>91.7</ele>
        <time>2015-01-19T20:46:35.883Z</time>
      </trkpt>
      <trkpt lat="48.84714" lon="2.28603">
        <ele>91.7</ele>
        <time>2015-01-19T20:46:37.846Z</time>
      </trkpt>
      <trkpt lat="48.84716" lon="2.28606">
        <ele>91.8</ele>
        <time>2015-01-19T20:46:38.861Z</time>
      </trkpt>
      <trkpt lat="48.84719" lon="2.28615">
        <ele>92</ele>
        <time>2015-01-19T20:46:40.847Z</time>
      </trkpt>
      <trkpt lat="48.84722" lon="2.28619">
        <ele>92.4</ele>
        <time>2015-01-19T20:46:41.861Z</time>
      </trkpt>
      <trkpt lat="48.8473" lon="2.28624">
        <ele>92.3</ele>
        <time>2015-01-19T20:46:43.908Z</time>
      </trkpt>
      <trkpt lat="48.84733" lon="2.28627">
        <ele>92.2</ele>
        <time>2015-01-19T20:46:44.916Z</time>
      </trkpt>
      <trkpt lat="48.84735" lon="2.28629">
        <ele>92.1</ele>
        <time>2015-01-19T20:46:45.943Z</time>
      </trkpt>
      <trkpt lat="48.84794" lon="2.28674">
        <ele>89.5</ele>
        <time>2015-01-19T20:46:58.867Z</time>
      </trkpt>
      <trkpt lat="48.84798" lon="2.28677">
        <ele>89.5</ele>
        <time>2015-01-19T20:46:59.893Z</time>
      </trkpt>
      <trkpt lat="48.84804" lon="2.28678">
        <ele>89.4</ele>
        <time>2015-01-19T20:47:00.908Z</time>
      </trkpt>
      <trkpt lat="48.8481" lon="2.28679">
        <ele>89.3</ele>
        <time>2015-01-19T20:47:01.913Z</time>
      </trkpt>
      <trkpt lat="48.84814" lon="2.28684">
        <ele>89.3</ele>
        <time>2015-01-19T20:47:02.922Z</time>
      </trkpt>
      <trkpt lat="48.84834" lon="2.28709">
        <ele>88.8</ele>
        <time>2015-01-19T20:47:06.884Z</time>
      </trkpt>
      <trkpt lat="48.84839" lon="2.28714">
        <ele>88.8</ele>
        <time>2015-01-19T20:47:07.986Z</time>
      </trkpt>
      <trkpt lat="48.84844" lon="2.28719">
        <ele>88.8</ele>
        <time>2015-01-19T20:47:08.875Z</time>
      </trkpt>
      <trkpt lat="48.84848" lon="2.28724">
        <ele>88.7</ele>
        <time>2015-01-19T20:47:09.874Z</time>
      </trkpt>
      <trkpt lat="48.84853" lon="2.28729">
        <ele>88.9</ele>
        <time>2015-01-19T20:47:10.881Z</time>
      </trkpt>
      <trkpt lat="48.84857" lon="2.28733">
        <ele>88.8</ele>
        <time>2015-01-19T20:47:11.942Z</time>
      </trkpt>
      <trkpt lat="48.84861" lon="2.28738">
        <ele>88.7</ele>
        <time>2015-01-19T20:47:12.850Z</time>
      </trkpt>
      <trkpt lat="48.84866" lon="2.28742">
        <ele>88.8</ele>
        <time>2015-01-19T20:47:13.911Z</time>
      </trkpt>
      <trkpt lat="48.8487" lon="2.28747">
        <ele>88.8</ele>
        <time>2015-01-19T20:47:14.940Z</time>
      </trkpt>
      <trkpt lat="48.84875" lon="2.28752">
        <ele>88.6</ele>
        <time>2015-01-19T20:47:15.855Z</time>
      </trkpt>
      <trkpt lat="48.8488" lon="2.28756">
        <ele>88.5</ele>
        <time>2015-01-19T20:47:16.860Z</time>
      </trkpt>
      <trkpt lat="48.84888" lon="2.28762">
        <ele>88.5</ele>
        <time>2015-01-19T20:47:18.953Z</time>
      </trkpt>
      <trkpt lat="48.84891" lon="2.28764">
        <ele>88.7</ele>
        <time>2015-01-19T20:47:19.863Z</time>
      </trkpt>
      <trkpt lat="48.849" lon="2.28768">
        <ele>89</ele>
        <time>2015-01-19T20:47:22.038Z</time>
      </trkpt>
      <trkpt lat="48.84905" lon="2.28768">
        <ele>89.1</ele>
        <time>2015-01-19T20:47:22.904Z</time>
      </trkpt>
      <trkpt lat="48.84908" lon="2.28771">
        <ele>89.3</ele>
        <time>2015-01-19T20:47:23.856Z</time>
      </trkpt>
      <trkpt lat="48.84912" lon="2.28776">
        <ele>89.3</ele>
        <time>2015-01-19T20:47:24.859Z</time>
      </trkpt>
      <trkpt lat="48.84916" lon="2.2878">
        <ele>89.5</ele>
        <time>2015-01-19T20:47:25.868Z</time>
      </trkpt>
      <trkpt lat="48.84921" lon="2.28783">
        <ele>89.7</ele>
        <time>2015-01-19T20:47:26.879Z</time>
      </trkpt>
      <trkpt lat="48.84926" lon="2.28787">
        <ele>89.9</ele>
        <time>2015-01-19T20:47:27.886Z</time>
      </trkpt>
      <trkpt lat="48.8493" lon="2.28791">
        <ele>90</ele>
        <time>2015-01-19T20:47:28.890Z</time>
      </trkpt>
      <trkpt lat="48.84935" lon="2.28795">
        <ele>90.1</ele>
        <time>2015-01-19T20:47:29.920Z</time>
      </trkpt>
      <trkpt lat="48.84939" lon="2.288">
        <ele>90.3</ele>
        <time>2015-01-19T20:47:30.924Z</time>
      </trkpt>
      <trkpt lat="48.84944" lon="2.28805">
        <ele>90.4</ele>
        <time>2015-01-19T20:47:32.438Z</time>
      </trkpt>
      <trkpt lat="48.84948" lon="2.2881">
        <ele>90.5</ele>
        <time>2015-01-19T20:47:32.964Z</time>
      </trkpt>
      <trkpt lat="48.84952" lon="2.28814">
        <ele>90.5</ele>
        <time>2015-01-19T20:47:34.794Z</time>
      </trkpt>
      <trkpt lat="48.84955" lon="2.28818">
        <ele>90.5</ele>
        <time>2015-01-19T20:47:34.838Z</time>
      </trkpt>
      <trkpt lat="48.84959" lon="2.28823">
        <ele>90.4</ele>
        <time>2015-01-19T20:47:35.861Z</time>
      </trkpt>
      <trkpt lat="48.84962" lon="2.28828">
        <ele>90.3</ele>
        <time>2015-01-19T20:47:36.853Z</time>
      </trkpt>
      <trkpt lat="48.84966" lon="2.28833">
        <ele>90.2</ele>
        <time>2015-01-19T20:47:37.924Z</time>
      </trkpt>
      <trkpt lat="48.8497" lon="2.28838">
        <ele>90.2</ele>
        <time>2015-01-19T20:47:38.946Z</time>
      </trkpt>
      <trkpt lat="48.84975" lon="2.28842">
        <ele>90.1</ele>
        <time>2015-01-19T20:47:39.850Z</time>
      </trkpt>
      <trkpt lat="48.84979" lon="2.28846">
        <ele>90</ele>
        <time>2015-01-19T20:47:40.858Z</time>
      </trkpt>
      <trkpt lat="48.84984" lon="2.28846">
        <ele>89.8</ele>
        <time>2015-01-19T20:47:41.872Z</time>
      </trkpt>
      <trkpt lat="48.84989" lon="2.28849">
        <ele>89.8</ele>
        <time>2015-01-19T20:47:42.881Z</time>
      </trkpt>
      <trkpt lat="48.84994" lon="2.28854">
        <ele>89.9</ele>
        <time>2015-01-19T20:47:43.888Z</time>
      </trkpt>
      <trkpt lat="48.85" lon="2.28859">
        <ele>90.1</ele>
        <time>2015-01-19T20:47:44.914Z</time>
      </trkpt>
      <trkpt lat="48.85006" lon="2.28861">
        <ele>91.2</ele>
        <time>2015-01-19T20:47:45.927Z</time>
      </trkpt>
      <trkpt lat="48.85011" lon="2.28867">
        <ele>91.2</ele>
        <time>2015-01-19T20:47:46.933Z</time>
      </trkpt>
      <trkpt lat="48.85017" lon="2.28871">
        <ele>91</ele>
        <time>2015-01-19T20:47:47.945Z</time>
      </trkpt>
      <trkpt lat="48.85024" lon="2.28874">
        <ele>90.8</ele>
        <time>2015-01-19T20:47:48.948Z</time>
      </trkpt>
      <trkpt lat="48.8503" lon="2.28878">
        <ele>91.1</ele>
        <time>2015-01-19T20:47:49.866Z</time>
      </trkpt>
      <trkpt lat="48.85036" lon="2.28882">
        <ele>91.2</ele>
        <time>2015-01-19T20:47:50.899Z</time>
      </trkpt>
      <trkpt lat="48.85042" lon="2.28887">
        <ele>91.2</ele>
        <time>2015-01-19T20:47:51.911Z</time>
      </trkpt>
      <trkpt lat="48.85048" lon="2.28891">
        <ele>91</ele>
        <time>2015-01-19T20:47:52.915Z</time>
      </trkpt>
      <trkpt lat="48.85088" lon="2.28926">
        <ele>89.9</ele>
        <time>2015-01-19T20:47:59.878Z</time>
      </trkpt>
      <trkpt lat="48.85096" lon="2.28931">
        <ele>89.5</ele>
        <time>2015-01-19T20:48:00.922Z</time>
      </trkpt>
      <trkpt lat="48.85114" lon="2.28949">
        <ele>89.1</ele>
        <time>2015-01-19T20:48:03.870Z</time>
      </trkpt>
      <trkpt lat="48.85121" lon="2.28953">
        <ele>88.8</ele>
        <time>2015-01-19T20:48:04.968Z</time>
      </trkpt>
      <trkpt lat="48.85126" lon="2.28959">
        <ele>88.5</ele>
        <time>2015-01-19T20:48:05.862Z</time>
      </trkpt>
      <trkpt lat="48.85131" lon="2.28966">
        <ele>88.3</ele>
        <time>2015-01-19T20:48:06.868Z</time>
      </trkpt>
      <trkpt lat="48.85138" lon="2.28969">
        <ele>88.1</ele>
        <time>2015-01-19T20:48:07.877Z</time>
      </trkpt>
      <trkpt lat="48.85142" lon="2.28975">
        <ele>88.2</ele>
        <time>2015-01-19T20:48:08.898Z</time>
      </trkpt>
      <trkpt lat="48.85147" lon="2.28983">
        <ele>88.3</ele>
        <time>2015-01-19T20:48:09.902Z</time>
      </trkpt>
      <trkpt lat="48.8515" lon="2.2899">
        <ele>88.5</ele>
        <time>2015-01-19T20:48:10.931Z</time>
      </trkpt>
      <trkpt lat="48.85155" lon="2.28994">
        <ele>88.8</ele>
        <time>2015-01-19T20:48:11.898Z</time>
      </trkpt>
      <trkpt lat="48.85163" lon="2.28993">
        <ele>88.9</ele>
        <time>2015-01-19T20:48:12.850Z</time>
      </trkpt>
      <trkpt lat="48.85169" lon="2.28995">
        <ele>89.1</ele>
        <time>2015-01-19T20:48:13.876Z</time>
      </trkpt>
      <trkpt lat="48.85174" lon="2.28999">
        <ele>89.3</ele>
        <time>2015-01-19T20:48:14.900Z</time>
      </trkpt>
      <trkpt lat="48.85181" lon="2.29006">
        <ele>90.4</ele>
        <time>2015-01-19T20:48:15.945Z</time>
      </trkpt>
      <trkpt lat="48.85188" lon="2.29011">
        <ele>91.1</ele>
        <time>2015-01-19T20:48:16.865Z</time>
      </trkpt>
      <trkpt lat="48.85195" lon="2.29016">
        <ele>91.7</ele>
        <time>2015-01-19T20:48:17.921Z</time>
      </trkpt>
      <trkpt lat="48.852" lon="2.29022">
        <ele>91.8</ele>
        <time>2015-01-19T20:48:18.891Z</time>
      </trkpt>
      <trkpt lat="48.85205" lon="2.29026">
        <ele>92.1</ele>
        <time>2015-01-19T20:48:19.904Z</time>
      </trkpt>
      <trkpt lat="48.8521" lon="2.2903">
        <ele>91.9</ele>
        <time>2015-01-19T20:48:20.973Z</time>
      </trkpt>
      <trkpt lat="48.85214" lon="2.29034">
        <ele>91.8</ele>
        <time>2015-01-19T20:48:21.850Z</time>
      </trkpt>
      <trkpt lat="48.85221" lon="2.29041">
        <ele>91.9</ele>
        <time>2015-01-19T20:48:23.907Z</time>
      </trkpt>
      <trkpt lat="48.85224" lon="2.29044">
        <ele>92</ele>
        <time>2015-01-19T20:48:24.924Z</time>
      </trkpt>
      <trkpt lat="48.85231" lon="2.2905">
        <ele>92.6</ele>
        <time>2015-01-19T20:48:26.974Z</time>
      </trkpt>
      <trkpt lat="48.85234" lon="2.29053">
        <ele>92.7</ele>
        <time>2015-01-19T20:48:27.871Z</time>
      </trkpt>
      <trkpt lat="48.85241" lon="2.2906">
        <ele>94.4</ele>
        <time>2015-01-19T20:48:34.867Z</time>
      </trkpt>
      <trkpt lat="48.85242" lon="2.29059">
        <ele>94.6</ele>
        <time>2015-01-19T20:48:35.870Z</time>
      </trkpt>
      <trkpt lat="48.85243" lon="2.29058">
        <ele>95.1</ele>
        <time>2015-01-19T20:48:37.923Z</time>
      </trkpt>
      <trkpt lat="48.85243" lon="2.29058">
        <ele>95.3</ele>
        <time>2015-01-19T20:48:38.930Z</time>
      </trkpt>
      <trkpt lat="48.85243" lon="2.29058">
        <ele>95.8</ele>
        <time>2015-01-19T20:48:49.908Z</time>
      </trkpt>
      <trkpt lat="48.85245" lon="2.29059">
        <ele>97.9</ele>
        <time>2015-01-19T20:48:50.939Z</time>
      </trkpt>
      <trkpt lat="48.85252" lon="2.29055">
        <ele>99.7</ele>
        <time>2015-01-19T20:48:55.864Z</time>
      </trkpt>
      <trkpt lat="48.85255" lon="2.29051">
        <ele>100.4</ele>
        <time>2015-01-19T20:48:56.879Z</time>
      </trkpt>
      <trkpt lat="48.8525" lon="2.29055">
        <ele>102.4</ele>
        <time>2015-01-19T20:49:04.832Z</time>
      </trkpt>
      <trkpt lat="48.85247" lon="2.29058">
        <ele>101.2</ele>
        <time>2015-01-19T20:49:05.867Z</time>
      </trkpt>
      <trkpt lat="48.8524" lon="2.29065">
        <ele>99</ele>
        <time>2015-01-19T20:49:08.925Z</time>
      </trkpt>
      <trkpt lat="48.85239" lon="2.29066">
        <ele>98.6</ele>
        <time>2015-01-19T20:49:09.855Z</time>
      </trkpt>
      <trkpt lat="48.85234" lon="2.29071">
        <ele>98.4</ele>
        <time>2015-01-19T20:49:12.932Z</time>
      </trkpt>
      <trkpt lat="48.8523" lon="2.29073">
        <ele>98.2</ele>
        <time>2015-01-19T20:49:13.956Z</time>
      </trkpt>
      <trkpt lat="48.85225" lon="2.2908">
        <ele>98.9</ele>
        <time>2015-01-19T20:49:15.891Z</time>
      </trkpt>
      <trkpt lat="48.85224" lon="2.29083">
        <ele>99.3</ele>
        <time>2015-01-19T20:49:16.895Z</time>
      </trkpt>
      <trkpt lat="48.85221" lon="2.2909">
        <ele>99.9</ele>
        <time>2015-01-19T20:49:18.909Z</time>
      </trkpt>
      <trkpt lat="48.85223" lon="2.29099">
        <ele>98.3</ele>
        <time>2015-01-19T20:49:19.914Z</time>
      </trkpt>
      <trkpt lat="48.85218" lon="2.29108">
        <ele>96.2</ele>
        <time>2015-01-19T20:49:24.872Z</time>
      </trkpt>
      <trkpt lat="48.85215" lon="2.29108">
        <ele>95.9</ele>
        <time>2015-01-19T20:49:25.884Z</time>
      </trkpt>
      <trkpt lat="48.85207" lon="2.29111">
        <ele>95</ele>
        <time>2015-01-19T20:49:28.849Z</time>
      </trkpt>
      <trkpt lat="48.85204" lon="2.29112">
        <ele>94.8</ele>
        <time>2015-01-19T20:49:29.897Z</time>
      </trkpt>
      <trkpt lat="48.85198" lon="2.29115">
        <ele>94.6</ele>
        <time>2015-01-19T20:49:31.923Z</time>
      </trkpt>
      <trkpt lat="48.85195" lon="2.29116">
        <ele>94.2</ele>
        <time>2015-01-19T20:49:32.950Z</time>
      </trkpt>
      <trkpt lat="48.85189" lon="2.29117">
        <ele>93.9</ele>
        <time>2015-01-19T20:49:34.859Z</time>
      </trkpt>
      <trkpt lat="48.85186" lon="2.29116">
        <ele>93.7</ele>
        <time>2015-01-19T20:49:35.906Z</time>
      </trkpt>
      <trkpt lat="48.85177" lon="2.29112">
        <ele>93.8</ele>
        <time>2015-01-19T20:49:38.889Z</time>
      </trkpt>
      <trkpt lat="48.85177" lon="2.29117">
        <ele>94.5</ele>
        <time>2015-01-19T20:49:39.861Z</time>
      </trkpt>
      <trkpt lat="48.85176" lon="2.29125">
        <ele>95.8</ele>
        <time>2015-01-19T20:49:41.898Z</time>
      </trkpt>
      <trkpt lat="48.85178" lon="2.29133">
        <ele>95.6</ele>
        <time>2015-01-19T20:49:42.905Z</time>
      </trkpt>
      <trkpt lat="48.8518" lon="2.29142">
        <ele>94.3</ele>
        <time>2015-01-19T20:49:43.922Z</time>
      </trkpt>
      <trkpt lat="48.85183" lon="2.29152">
        <ele>93</ele>
        <time>2015-01-19T20:49:44.928Z</time>
      </trkpt>
      <trkpt lat="48.85187" lon="2.29161">
        <ele>91.6</ele>
        <time>2015-01-19T20:49:45.936Z</time>
      </trkpt>
      <trkpt lat="48.85191" lon="2.29167">
        <ele>91</ele>
        <time>2015-01-19T20:49:46.855Z</time>
      </trkpt>
      <trkpt lat="48.85195" lon="2.29171">
        <ele>90.2</ele>
        <time>2015-01-19T20:49:47.871Z</time>
      </trkpt>
      <trkpt lat="48.85199" lon="2.29176">
        <ele>89.8</ele>
        <time>2015-01-19T20:49:48.883Z</time>
      </trkpt>
      <trkpt lat="48.85202" lon="2.29181">
        <ele>89.2</ele>
        <time>2015-01-19T20:49:49.927Z</time>
      </trkpt>
      <trkpt lat="48.85206" lon="2.29186">
        <ele>88.7</ele>
        <time>2015-01-19T20:49:50.935Z</time>
      </trkpt>
      <trkpt lat="48.8521" lon="2.29189">
        <ele>88.4</ele>
        <time>2015-01-19T20:49:51.966Z</time>
      </trkpt>
      <trkpt lat="48.85213" lon="2.29195">
        <ele>88</ele>
        <time>2015-01-19T20:49:52.876Z</time>
      </trkpt>
      <trkpt lat="48.85217" lon="2.292">
        <ele>87.5</ele>
        <time>2015-01-19T20:49:53.903Z</time>
      </trkpt>
      <trkpt lat="48.85221" lon="2.29205">
        <ele>87.1</ele>
        <time>2015-01-19T20:49:54.863Z</time>
      </trkpt>
      <trkpt lat="48.85228" lon="2.29216">
        <ele>86.2</ele>
        <time>2015-01-19T20:49:56.897Z</time>
      </trkpt>
      <trkpt lat="48.85231" lon="2.29222">
        <ele>85.9</ele>
        <time>2015-01-19T20:49:57.916Z</time>
      </trkpt>
      <trkpt lat="48.85233" lon="2.29228">
        <ele>85.6</ele>
        <time>2015-01-19T20:49:58.938Z</time>
      </trkpt>
      <trkpt lat="48.85235" lon="2.29234">
        <ele>85.3</ele>
        <time>2015-01-19T20:49:59.828Z</time>
      </trkpt>
      <trkpt lat="48.85238" lon="2.2924">
        <ele>85.1</ele>
        <time>2015-01-19T20:50:00.872Z</time>
      </trkpt>
      <trkpt lat="48.85244" lon="2.29249">
        <ele>84.5</ele>
        <time>2015-01-19T20:50:02.902Z</time>
      </trkpt>
      <trkpt lat="48.85248" lon="2.29254">
        <ele>84.3</ele>
        <time>2015-01-19T20:50:03.929Z</time>
      </trkpt>
      <trkpt lat="48.85252" lon="2.29258">
        <ele>84.2</ele>
        <time>2015-01-19T20:50:04.831Z</time>
      </trkpt>
      <trkpt lat="48.85256" lon="2.29261">
        <ele>84</ele>
        <time>2015-01-19T20:50:05.849Z</time>
      </trkpt>
      <trkpt lat="48.8526" lon="2.29265">
        <ele>84</ele>
        <time>2015-01-19T20:50:06.860Z</time>
      </trkpt>
      <trkpt lat="48.85264" lon="2.29268">
        <ele>84</ele>
        <time>2015-01-19T20:50:07.864Z</time>
      </trkpt>
      <trkpt lat="48.85269" lon="2.2927">
        <ele>84</ele>
        <time>2015-01-19T20:50:08.912Z</time>
      </trkpt>
      <trkpt lat="48.85274" lon="2.29272">
        <ele>83.9</ele>
        <time>2015-01-19T20:50:09.918Z</time>
      </trkpt>
      <trkpt lat="48.85278" lon="2.29276">
        <ele>83.9</ele>
        <time>2015-01-19T20:50:11.332Z</time>
      </trkpt>
      <trkpt lat="48.85283" lon="2.2928">
        <ele>83.8</ele>
        <time>2015-01-19T20:50:11.866Z</time>
      </trkpt>
      <trkpt lat="48.85287" lon="2.29285">
        <ele>83.8</ele>
        <time>2015-01-19T20:50:12.848Z</time>
      </trkpt>
      <trkpt lat="48.85291" lon="2.2929">
        <ele>84.1</ele>
        <time>2015-01-19T20:50:13.863Z</time>
      </trkpt>
      <trkpt lat="48.85295" lon="2.29294">
        <ele>84.3</ele>
        <time>2015-01-19T20:50:14.912Z</time>
      </trkpt>
      <trkpt lat="48.85299" lon="2.29299">
        <ele>84.3</ele>
        <time>2015-01-19T20:50:15.933Z</time>
      </trkpt>
      <trkpt lat="48.85305" lon="2.29309">
        <ele>84.5</ele>
        <time>2015-01-19T20:50:17.855Z</time>
      </trkpt>
      <trkpt lat="48.85307" lon="2.29313">
        <ele>84.6</ele>
        <time>2015-01-19T20:50:18.862Z</time>
      </trkpt>
      <trkpt lat="48.85299" lon="2.29314">
        <ele>87.2</ele>
        <time>2015-01-19T20:50:30.861Z</time>
      </trkpt>
      <trkpt lat="48.85297" lon="2.29312">
        <ele>87.3</ele>
        <time>2015-01-19T20:50:31.867Z</time>
      </trkpt>
      <trkpt lat="48.85295" lon="2.29307">
        <ele>87.5</ele>
        <time>2015-01-19T20:50:34.767Z</time>
      </trkpt>
      <trkpt lat="48.85264" lon="2.29333">
        <ele>89.7</ele>
        <time>2015-01-19T20:50:47.934Z</time>
      </trkpt>
      <trkpt lat="48.85255" lon="2.29333">
        <ele>90.1</ele>
        <time>2015-01-19T20:50:58.820Z</time>
      </trkpt>
      <trkpt lat="48.85254" lon="2.29336">
        <ele>90.2</ele>
        <time>2015-01-19T20:50:59.852Z</time>
      </trkpt>
      <trkpt lat="48.85251" lon="2.29346">
        <ele>90.3</ele>
        <time>2015-01-19T20:51:03.900Z</time>
      </trkpt>
      <trkpt lat="48.85249" lon="2.29348">
        <ele>90.3</ele>
        <time>2015-01-19T20:51:04.920Z</time>
      </trkpt>
      <trkpt lat="48.85243" lon="2.29354">
        <ele>90.7</ele>
        <time>2015-01-19T20:51:08.922Z</time>
      </trkpt>
      <trkpt lat="48.85241" lon="2.29356">
        <ele>90.7</ele>
        <time>2015-01-19T20:51:09.924Z</time>
      </trkpt>
      <trkpt lat="48.85238" lon="2.29364">
        <ele>90.9</ele>
        <time>2015-01-19T20:51:11.933Z</time>
      </trkpt>
      <trkpt lat="48.85237" lon="2.29368">
        <ele>91</ele>
        <time>2015-01-19T20:51:12.951Z</time>
      </trkpt>
      <trkpt lat="48.85231" lon="2.29375">
        <ele>91.1</ele>
        <time>2015-01-19T20:51:16.918Z</time>
      </trkpt>
      <trkpt lat="48.8523" lon="2.29378">
        <ele>91</ele>
        <time>2015-01-19T20:51:17.993Z</time>
      </trkpt>
      <trkpt lat="48.85225" lon="2.29387">
        <ele>90.9</ele>
        <time>2015-01-19T20:51:20.919Z</time>
      </trkpt>
      <trkpt lat="48.85222" lon="2.2939">
        <ele>91</ele>
        <time>2015-01-19T20:51:21.968Z</time>
      </trkpt>
      <trkpt lat="48.85218" lon="2.29399">
        <ele>91.1</ele>
        <time>2015-01-19T20:51:23.918Z</time>
      </trkpt>
      <trkpt lat="48.85216" lon="2.29405">
        <ele>91.7</ele>
        <time>2015-01-19T20:51:24.954Z</time>
      </trkpt>
      <trkpt lat="48.85211" lon="2.29414">
        <ele>90.7</ele>
        <time>2015-01-19T20:51:26.905Z</time>
      </trkpt>
      <trkpt lat="48.85208" lon="2.29418">
        <ele>90.5</ele>
        <time>2015-01-19T20:51:27.912Z</time>
      </trkpt>
      <trkpt lat="48.85201" lon="2.29424">
        <ele>90.3</ele>
        <time>2015-01-19T20:51:29.954Z</time>
      </trkpt>
      <trkpt lat="48.85198" lon="2.29427">
        <ele>90.6</ele>
        <time>2015-01-19T20:51:30.953Z</time>
      </trkpt>
      <trkpt lat="48.85194" lon="2.29433">
        <ele>90.5</ele>
        <time>2015-01-19T20:51:31.866Z</time>
      </trkpt>
      <trkpt lat="48.8519" lon="2.2944">
        <ele>90.3</ele>
        <time>2015-01-19T20:51:32.920Z</time>
      </trkpt>
      <trkpt lat="48.85183" lon="2.29449">
        <ele>89.2</ele>
        <time>2015-01-19T20:51:34.922Z</time>
      </trkpt>
      <trkpt lat="48.85181" lon="2.29453">
        <ele>88.6</ele>
        <time>2015-01-19T20:51:35.935Z</time>
      </trkpt>
      <trkpt lat="48.85179" lon="2.29463">
        <ele>87.6</ele>
        <time>2015-01-19T20:51:37.963Z</time>
      </trkpt>
      <trkpt lat="48.85179" lon="2.29468">
        <ele>87.3</ele>
        <time>2015-01-19T20:51:38.982Z</time>
      </trkpt>
      <trkpt lat="48.8518" lon="2.29481">
        <ele>85</ele>
        <time>2015-01-19T20:51:40.902Z</time>
      </trkpt>
      <trkpt lat="48.85181" lon="2.29488">
        <ele>85.4</ele>
        <time>2015-01-19T20:51:41.921Z</time>
      </trkpt>
      <trkpt lat="48.85182" lon="2.29495">
        <ele>86.2</ele>
        <time>2015-01-19T20:51:42.854Z</time>
      </trkpt>
      <trkpt lat="48.85182" lon="2.29504">
        <ele>87</ele>
        <time>2015-01-19T20:51:43.869Z</time>
      </trkpt>
      <trkpt lat="48.8518" lon="2.29517">
        <ele>87.6</ele>
        <time>2015-01-19T20:51:45.860Z</time>
      </trkpt>
      <trkpt lat="48.85179" lon="2.29524">
        <ele>87.4</ele>
        <time>2015-01-19T20:51:46.880Z</time>
      </trkpt>
      <trkpt lat="48.85177" lon="2.29535">
        <ele>87.1</ele>
        <time>2015-01-19T20:51:48.904Z</time>
      </trkpt>
      <trkpt lat="48.85177" lon="2.2954">
        <ele>86.9</ele>
        <time>2015-01-19T20:51:49.918Z</time>
      </trkpt>
      <trkpt lat="48.85178" lon="2.29549">
        <ele>86.8</ele>
        <time>2015-01-19T20:51:51.868Z</time>
      </trkpt>
      <trkpt lat="48.85179" lon="2.29554">
        <ele>86.8</ele>
        <time>2015-01-19T20:51:52.887Z</time>
      </trkpt>
      <trkpt lat="48.85179" lon="2.29565">
        <ele>86.6</ele>
        <time>2015-01-19T20:51:55.204Z</time>
      </trkpt>
      <trkpt lat="48.85179" lon="2.29571">
        <ele>86.6</ele>
        <time>2015-01-19T20:51:55.899Z</time>
      </trkpt>
      <trkpt lat="48.85177" lon="2.29583">
        <ele>86.1</ele>
        <time>2015-01-19T20:51:57.910Z</time>
      </trkpt>
      <trkpt lat="48.85176" lon="2.29588">
        <ele>86.1</ele>
        <time>2015-01-19T20:51:58.916Z</time>
      </trkpt>
      <trkpt lat="48.85173" lon="2.29597">
        <ele>85.8</ele>
        <time>2015-01-19T20:52:00.931Z</time>
      </trkpt>
      <trkpt lat="48.85169" lon="2.29602">
        <ele>84.6</ele>
        <time>2015-01-19T20:52:01.947Z</time>
      </trkpt>
      <trkpt lat="48.85163" lon="2.29611">
        <ele>85.3</ele>
        <time>2015-01-19T20:52:05.488Z</time>
      </trkpt>
      <trkpt lat="48.85161" lon="2.29613">
        <ele>85.7</ele>
        <time>2015-01-19T20:52:05.940Z</time>
      </trkpt>
      <trkpt lat="48.85157" lon="2.29623">
        <ele>86.8</ele>
        <time>2015-01-19T20:52:09.943Z</time>
      </trkpt>
      <trkpt lat="48.85157" lon="2.29626">
        <ele>87</ele>
        <time>2015-01-19T20:52:11.012Z</time>
      </trkpt>
      <trkpt lat="48.85153" lon="2.29637">
        <ele>88.9</ele>
        <time>2015-01-19T20:52:17.948Z</time>
      </trkpt>
      <trkpt lat="48.8515" lon="2.29639">
        <ele>89.4</ele>
        <time>2015-01-19T20:52:18.961Z</time>
      </trkpt>
      <trkpt lat="48.85141" lon="2.2964">
        <ele>90</ele>
        <time>2015-01-19T20:52:21.896Z</time>
      </trkpt>
      <trkpt lat="48.85139" lon="2.29642">
        <ele>90.2</ele>
        <time>2015-01-19T20:52:22.929Z</time>
      </trkpt>
      <trkpt lat="48.85133" lon="2.29647">
        <ele>90.6</ele>
        <time>2015-01-19T20:52:24.951Z</time>
      </trkpt>
      <trkpt lat="48.8513" lon="2.29649">
        <ele>90.7</ele>
        <time>2015-01-19T20:52:25.876Z</time>
      </trkpt>
      <trkpt lat="48.85123" lon="2.29658">
        <ele>90.9</ele>
        <time>2015-01-19T20:52:27.895Z</time>
      </trkpt>
      <trkpt lat="48.85119" lon="2.29662">
        <ele>91</ele>
        <time>2015-01-19T20:52:28.899Z</time>
      </trkpt>
      <trkpt lat="48.85113" lon="2.29666">
        <ele>90.8</ele>
        <time>2015-01-19T20:52:29.960Z</time>
      </trkpt>
      <trkpt lat="48.8511" lon="2.2967">
        <ele>90.9</ele>
        <time>2015-01-19T20:52:30.861Z</time>
      </trkpt>
      <trkpt lat="48.85102" lon="2.29676">
        <ele>91.2</ele>
        <time>2015-01-19T20:52:33.934Z</time>
      </trkpt>
      <trkpt lat="48.85101" lon="2.29678">
        <ele>91.3</ele>
        <time>2015-01-19T20:52:34.849Z</time>
      </trkpt>
      <trkpt lat="48.85098" lon="2.29685">
        <ele>92.6</ele>
        <time>2015-01-19T20:52:41.835Z</time>
      </trkpt>
      <trkpt lat="48.85095" lon="2.297">
        <ele>92.8</ele>
        <time>2015-01-19T20:52:45.872Z</time>
      </trkpt>
      <trkpt lat="48.85093" lon="2.29712">
        <ele>93.3</ele>
        <time>2015-01-19T20:52:49.938Z</time>
      </trkpt>
      <trkpt lat="48.85093" lon="2.29718">
        <ele>93.3</ele>
        <time>2015-01-19T20:52:50.891Z</time>
      </trkpt>
      <trkpt lat="48.85091" lon="2.29729">
        <ele>93.6</ele>
        <time>2015-01-19T20:52:53.648Z</time>
      </trkpt>
      <trkpt lat="48.85088" lon="2.29736">
        <ele>93.9</ele>
        <time>2015-01-19T20:52:53.932Z</time>
      </trkpt>
      <trkpt lat="48.85083" lon="2.29743">
        <ele>94.1</ele>
        <time>2015-01-19T20:52:54.838Z</time>
      </trkpt>
      <trkpt lat="48.85078" lon="2.29749">
        <ele>94.4</ele>
        <time>2015-01-19T20:52:55.845Z</time>
      </trkpt>
      <trkpt lat="48.85073" lon="2.29751">
        <ele>94.6</ele>
        <time>2015-01-19T20:52:56.864Z</time>
      </trkpt>
      <trkpt lat="48.85069" lon="2.29753">
        <ele>95</ele>
        <time>2015-01-19T20:52:57.868Z</time>
      </trkpt>
      <trkpt lat="48.85061" lon="2.29757">
        <ele>95.4</ele>
        <time>2015-01-19T20:53:00.888Z</time>
      </trkpt>
      <trkpt lat="48.85058" lon="2.29762">
        <ele>95.6</ele>
        <time>2015-01-19T20:53:01.896Z</time>
      </trkpt>
      <trkpt lat="48.85051" lon="2.29769">
        <ele>95.7</ele>
        <time>2015-01-19T20:53:03.920Z</time>
      </trkpt>
      <trkpt lat="48.85049" lon="2.29772">
        <ele>95.7</ele>
        <time>2015-01-19T20:53:04.930Z</time>
      </trkpt>
      <trkpt lat="48.85048" lon="2.29781">
        <ele>95.8</ele>
        <time>2015-01-19T20:53:06.962Z</time>
      </trkpt>
      <trkpt lat="48.85047" lon="2.29787">
        <ele>95.9</ele>
        <time>2015-01-19T20:53:07.976Z</time>
      </trkpt>
      <trkpt lat="48.85047" lon="2.29794">
        <ele>96</ele>
        <time>2015-01-19T20:53:08.851Z</time>
      </trkpt>
      <trkpt lat="48.85047" lon="2.29801">
        <ele>96.1</ele>
        <time>2015-01-19T20:53:09.859Z</time>
      </trkpt>
      <trkpt lat="48.85048" lon="2.29809">
        <ele>96.1</ele>
        <time>2015-01-19T20:53:10.929Z</time>
      </trkpt>
      <trkpt lat="48.8505" lon="2.29816">
        <ele>95.8</ele>
        <time>2015-01-19T20:53:11.937Z</time>
      </trkpt>
      <trkpt lat="48.85056" lon="2.29825">
        <ele>94.8</ele>
        <time>2015-01-19T20:53:12.844Z</time>
      </trkpt>
      <trkpt lat="48.8506" lon="2.29831">
        <ele>94.2</ele>
        <time>2015-01-19T20:53:13.863Z</time>
      </trkpt>
      <trkpt lat="48.85062" lon="2.29838">
        <ele>93.8</ele>
        <time>2015-01-19T20:53:14.886Z</time>
      </trkpt>
      <trkpt lat="48.85063" lon="2.29844">
        <ele>93.6</ele>
        <time>2015-01-19T20:53:15.883Z</time>
      </trkpt>
      <trkpt lat="48.85066" lon="2.29855">
        <ele>93.6</ele>
        <time>2015-01-19T20:53:17.906Z</time>
      </trkpt>
      <trkpt lat="48.85071" lon="2.29863">
        <ele>93.4</ele>
        <time>2015-01-19T20:53:19.948Z</time>
      </trkpt>
      <trkpt lat="48.85074" lon="2.29876">
        <ele>92.8</ele>
        <time>2015-01-19T20:53:22.875Z</time>
      </trkpt>
      <trkpt lat="48.85075" lon="2.29879">
        <ele>92.9</ele>
        <time>2015-01-19T20:53:23.897Z</time>
      </trkpt>
      <trkpt lat="48.85078" lon="2.29889">
        <ele>92.9</ele>
        <time>2015-01-19T20:53:26.919Z</time>
      </trkpt>
      <trkpt lat="48.85079" lon="2.29892">
        <ele>92.8</ele>
        <time>2015-01-19T20:53:27.929Z</time>
      </trkpt>
      <trkpt lat="48.85085" lon="2.29899">
        <ele>92.8</ele>
        <time>2015-01-19T20:53:30.902Z</time>
      </trkpt>
      <trkpt lat="48.85087" lon="2.29901">
        <ele>92.9</ele>
        <time>2015-01-19T20:53:31.932Z</time>
      </trkpt>
      <trkpt lat="48.85093" lon="2.29905">
        <ele>93</ele>
        <time>2015-01-19T20:53:33.943Z</time>
      </trkpt>
      <trkpt lat="48.85096" lon="2.29908">
        <ele>93</ele>
        <time>2015-01-19T20:53:34.877Z</time>
      </trkpt>
      <trkpt lat="48.85101" lon="2.29914">
        <ele>93.6</ele>
        <time>2015-01-19T20:53:36.871Z</time>
      </trkpt>
      <trkpt lat="48.85104" lon="2.29918">
        <ele>93.9</ele>
        <time>2015-01-19T20:53:37.994Z</time>
      </trkpt>
      <trkpt lat="48.85109" lon="2.29924">
        <ele>94.4</ele>
        <time>2015-01-19T20:53:40.022Z</time>
      </trkpt>
      <trkpt lat="48.85112" lon="2.29927">
        <ele>94.8</ele>
        <time>2015-01-19T20:53:40.928Z</time>
      </trkpt>
      <trkpt lat="48.85116" lon="2.29935">
        <ele>95.5</ele>
        <time>2015-01-19T20:53:42.960Z</time>
      </trkpt>
      <trkpt lat="48.85119" lon="2.29938">
        <ele>95.9</ele>
        <time>2015-01-19T20:53:43.869Z</time>
      </trkpt>
      <trkpt lat="48.85124" lon="2.29945">
        <ele>96.4</ele>
        <time>2015-01-19T20:53:45.898Z</time>
      </trkpt>
      <trkpt lat="48.85127" lon="2.29948">
        <ele>96.5</ele>
        <time>2015-01-19T20:53:46.905Z</time>
      </trkpt>
      <trkpt lat="48.85131" lon="2.29956">
        <ele>96.2</ele>
        <time>2015-01-19T20:53:48.917Z</time>
      </trkpt>
      <trkpt lat="48.85132" lon="2.29961">
        <ele>96.4</ele>
        <time>2015-01-19T20:53:49.929Z</time>
      </trkpt>
      <trkpt lat="48.85135" lon="2.2997">
        <ele>96.8</ele>
        <time>2015-01-19T20:53:51.856Z</time>
      </trkpt>
      <trkpt lat="48.85136" lon="2.29973">
        <ele>97</ele>
        <time>2015-01-19T20:53:52.892Z</time>
      </trkpt>
      <trkpt lat="48.85142" lon="2.29984">
        <ele>97.4</ele>
        <time>2015-01-19T20:53:55.829Z</time>
      </trkpt>
      <trkpt lat="48.85145" lon="2.29986">
        <ele>97.4</ele>
        <time>2015-01-19T20:53:56.891Z</time>
      </trkpt>
      <trkpt lat="48.85152" lon="2.29993">
        <ele>97.7</ele>
        <time>2015-01-19T20:54:00.602Z</time>
      </trkpt>
      <trkpt lat="48.85153" lon="2.29995">
        <ele>97.8</ele>
        <time>2015-01-19T20:54:00.872Z</time>
      </trkpt>
      <trkpt lat="48.85157" lon="2.30001">
        <ele>97.9</ele>
        <time>2015-01-19T20:54:03.002Z</time>
      </trkpt>
      <trkpt lat="48.85157" lon="2.30008">
        <ele>96.6</ele>
        <time>2015-01-19T20:54:03.850Z</time>
      </trkpt>
      <trkpt lat="48.8516" lon="2.3002">
        <ele>97.8</ele>
        <time>2015-01-19T20:54:07.925Z</time>
      </trkpt>
      <trkpt lat="48.8516" lon="2.30021">
        <ele>98</ele>
        <time>2015-01-19T20:54:08.946Z</time>
      </trkpt>
      <trkpt lat="48.85163" lon="2.30021">
        <ele>98.7</ele>
        <time>2015-01-19T20:54:14.938Z</time>
      </trkpt>
      <trkpt lat="48.85164" lon="2.30021">
        <ele>99</ele>
        <time>2015-01-19T20:54:15.856Z</time>
      </trkpt>
      <trkpt lat="48.85164" lon="2.30021">
        <ele>99</ele>
        <time>2015-01-19T20:54:21.095Z</time>
      </trkpt>
      <trkpt lat="48.85169" lon="2.30019">
        <ele>99.5</ele>
        <time>2015-01-19T20:54:21.918Z</time>
      </trkpt>
      <trkpt lat="48.85175" lon="2.30012">
        <ele>99.9</ele>
        <time>2015-01-19T20:54:26.136Z</time>
      </trkpt>
      <trkpt lat="48.85178" lon="2.30009">
        <ele>99.9</ele>
        <time>2015-01-19T20:54:26.886Z</time>
      </trkpt>
      <trkpt lat="48.85183" lon="2.30001">
        <ele>100</ele>
        <time>2015-01-19T20:54:29.684Z</time>
      </trkpt>
      <trkpt lat="48.85187" lon="2.29997">
        <ele>100.1</ele>
        <time>2015-01-19T20:54:29.850Z</time>
      </trkpt>
      <trkpt lat="48.85192" lon="2.29989">
        <ele>100.1</ele>
        <time>2015-01-19T20:54:31.919Z</time>
      </trkpt>
      <trkpt lat="48.85195" lon="2.29985">
        <ele>100.1</ele>
        <time>2015-01-19T20:54:32.971Z</time>
      </trkpt>
      <trkpt lat="48.852" lon="2.29976">
        <ele>100.2</ele>
        <time>2015-01-19T20:54:34.834Z</time>
      </trkpt>
      <trkpt lat="48.85204" lon="2.29972">
        <ele>100.2</ele>
        <time>2015-01-19T20:54:35.871Z</time>
      </trkpt>
      <trkpt lat="48.8521" lon="2.29965">
        <ele>100.5</ele>
        <time>2015-01-19T20:54:37.905Z</time>
      </trkpt>
      <trkpt lat="48.85213" lon="2.29961">
        <ele>100.6</ele>
        <time>2015-01-19T20:54:38.923Z</time>
      </trkpt>
      <trkpt lat="48.85219" lon="2.29952">
        <ele>100.7</ele>
        <time>2015-01-19T20:54:40.877Z</time>
      </trkpt>
      <trkpt lat="48.85223" lon="2.29949">
        <ele>100.9</ele>
        <time>2015-01-19T20:54:41.881Z</time>
      </trkpt>
      <trkpt lat="48.85226" lon="2.29939">
        <ele>100.6</ele>
        <time>2015-01-19T20:54:43.911Z</time>
      </trkpt>
      <trkpt lat="48.85229" lon="2.29935">
        <ele>100.5</ele>
        <time>2015-01-19T20:54:44.910Z</time>
      </trkpt>
      <trkpt lat="48.85235" lon="2.29929">
        <ele>100.7</ele>
        <time>2015-01-19T20:54:46.820Z</time>
      </trkpt>
      <trkpt lat="48.85238" lon="2.29925">
        <ele>100.6</ele>
        <time>2015-01-19T20:54:47.845Z</time>
      </trkpt>
      <trkpt lat="48.85244" lon="2.29918">
        <ele>100.6</ele>
        <time>2015-01-19T20:54:49.918Z</time>
      </trkpt>
      <trkpt lat="48.8525" lon="2.2991">
        <ele>100.2</ele>
        <time>2015-01-19T20:54:51.889Z</time>
      </trkpt>
      <trkpt lat="48.85282" lon="2.2987">
        <ele>99.6</ele>
        <time>2015-01-19T20:55:01.947Z</time>
      </trkpt>
      <trkpt lat="48.85286" lon="2.29859">
        <ele>99.7</ele>
        <time>2015-01-19T20:55:03.818Z</time>
      </trkpt>
      <trkpt lat="48.85288" lon="2.29853">
        <ele>99.7</ele>
        <time>2015-01-19T20:55:04.875Z</time>
      </trkpt>
      <trkpt lat="48.85291" lon="2.29846">
        <ele>99.9</ele>
        <time>2015-01-19T20:55:05.844Z</time>
      </trkpt>
      <trkpt lat="48.85294" lon="2.29841">
        <ele>100</ele>
        <time>2015-01-19T20:55:06.818Z</time>
      </trkpt>
      <trkpt lat="48.85296" lon="2.29835">
        <ele>99.9</ele>
        <time>2015-01-19T20:55:07.834Z</time>
      </trkpt>
      <trkpt lat="48.85298" lon="2.29828">
        <ele>100.2</ele>
        <time>2015-01-19T20:55:08.872Z</time>
      </trkpt>
      <trkpt lat="48.85302" lon="2.29819">
        <ele>100.6</ele>
        <time>2015-01-19T20:55:10.825Z</time>
      </trkpt>
      <trkpt lat="48.85305" lon="2.29815">
        <ele>100.8</ele>
        <time>2015-01-19T20:55:11.821Z</time>
      </trkpt>
      <trkpt lat="48.85311" lon="2.29813">
        <ele>100.9</ele>
        <time>2015-01-19T20:55:13.856Z</time>
      </trkpt>
      <trkpt lat="48.85314" lon="2.29812">
        <ele>100.8</ele>
        <time>2015-01-19T20:55:14.889Z</time>
      </trkpt>
      <trkpt lat="48.85321" lon="2.29816">
        <ele>99.3</ele>
        <time>2015-01-19T20:55:16.894Z</time>
      </trkpt>
      <trkpt lat="48.85324" lon="2.2982">
        <ele>98.7</ele>
        <time>2015-01-19T20:55:17.932Z</time>
      </trkpt>
      <trkpt lat="48.85331" lon="2.29828">
        <ele>97.9</ele>
        <time>2015-01-19T20:55:20.535Z</time>
      </trkpt>
      <trkpt lat="48.85334" lon="2.29833">
        <ele>97.7</ele>
        <time>2015-01-19T20:55:20.958Z</time>
      </trkpt>
      <trkpt lat="48.85339" lon="2.29841">
        <ele>97.3</ele>
        <time>2015-01-19T20:55:22.825Z</time>
      </trkpt>
      <trkpt lat="48.85342" lon="2.29845">
        <ele>97</ele>
        <time>2015-01-19T20:55:23.898Z</time>
      </trkpt>
      <trkpt lat="48.85348" lon="2.29851">
        <ele>96.4</ele>
        <time>2015-01-19T20:55:25.904Z</time>
      </trkpt>
      <trkpt lat="48.85352" lon="2.29852">
        <ele>96.7</ele>
        <time>2015-01-19T20:55:26.889Z</time>
      </trkpt>
      <trkpt lat="48.85358" lon="2.29852">
        <ele>96.7</ele>
        <time>2015-01-19T20:55:28.890Z</time>
      </trkpt>
      <trkpt lat="48.85362" lon="2.29851">
        <ele>96.7</ele>
        <time>2015-01-19T20:55:29.849Z</time>
      </trkpt>
      <trkpt lat="48.85371" lon="2.29846">
        <ele>96.7</ele>
        <time>2015-01-19T20:55:31.997Z</time>
      </trkpt>
      <trkpt lat="48.85375" lon="2.29843">
        <ele>96.8</ele>
        <time>2015-01-19T20:55:33.063Z</time>
      </trkpt>
      <trkpt lat="48.85378" lon="2.29839">
        <ele>96.9</ele>
        <time>2015-01-19T20:55:33.905Z</time>
      </trkpt>
      <trkpt lat="48.85382" lon="2.29835">
        <ele>96.7</ele>
        <time>2015-01-19T20:55:34.890Z</time>
      </trkpt>
      <trkpt lat="48.85389" lon="2.29827">
        <ele>96.7</ele>
        <time>2015-01-19T20:55:36.864Z</time>
      </trkpt>
      <trkpt lat="48.85393" lon="2.29823">
        <ele>96.7</ele>
        <time>2015-01-19T20:55:37.912Z</time>
      </trkpt>
      <trkpt lat="48.85396" lon="2.29818">
        <ele>96.6</ele>
        <time>2015-01-19T20:55:38.884Z</time>
      </trkpt>
      <trkpt lat="48.854" lon="2.29814">
        <ele>96.7</ele>
        <time>2015-01-19T20:55:39.924Z</time>
      </trkpt>
      <trkpt lat="48.85403" lon="2.29809">
        <ele>96.6</ele>
        <time>2015-01-19T20:55:40.918Z</time>
      </trkpt>
      <trkpt lat="48.85407" lon="2.29805">
        <ele>96.6</ele>
        <time>2015-01-19T20:55:41.938Z</time>
      </trkpt>
      <trkpt lat="48.85411" lon="2.29801">
        <ele>96.6</ele>
        <time>2015-01-19T20:55:42.840Z</time>
      </trkpt>
      <trkpt lat="48.85416" lon="2.29798">
        <ele>96.7</ele>
        <time>2015-01-19T20:55:43.844Z</time>
      </trkpt>
      <trkpt lat="48.85421" lon="2.29795">
        <ele>97</ele>
        <time>2015-01-19T20:55:44.990Z</time>
      </trkpt>
      <trkpt lat="48.85424" lon="2.2979">
        <ele>97.3</ele>
        <time>2015-01-19T20:55:45.904Z</time>
      </trkpt>
      <trkpt lat="48.85427" lon="2.29779">
        <ele>96</ele>
        <time>2015-01-19T20:55:47.937Z</time>
      </trkpt>
      <trkpt lat="48.8543" lon="2.29773">
        <ele>95.9</ele>
        <time>2015-01-19T20:55:48.850Z</time>
      </trkpt>
      <trkpt lat="48.85433" lon="2.29768">
        <ele>96.1</ele>
        <time>2015-01-19T20:55:49.857Z</time>
      </trkpt>
      <trkpt lat="48.85436" lon="2.29763">
        <ele>96.2</ele>
        <time>2015-01-19T20:55:50.882Z</time>
      </trkpt>
      <trkpt lat="48.85442" lon="2.29753">
        <ele>96.3</ele>
        <time>2015-01-19T20:55:52.918Z</time>
      </trkpt>
      <trkpt lat="48.85445" lon="2.29748">
        <ele>96.4</ele>
        <time>2015-01-19T20:55:53.847Z</time>
      </trkpt>
      <trkpt lat="48.85452" lon="2.29739">
        <ele>96.2</ele>
        <time>2015-01-19T20:55:55.861Z</time>
      </trkpt>
      <trkpt lat="48.85456" lon="2.29736">
        <ele>96.2</ele>
        <time>2015-01-19T20:55:56.946Z</time>
      </trkpt>
      <trkpt lat="48.8546" lon="2.29731">
        <ele>96.3</ele>
        <time>2015-01-19T20:55:57.844Z</time>
      </trkpt>
      <trkpt lat="48.85464" lon="2.29727">
        <ele>96.4</ele>
        <time>2015-01-19T20:55:58.872Z</time>
      </trkpt>
      <trkpt lat="48.85471" lon="2.29719">
        <ele>96.4</ele>
        <time>2015-01-19T20:56:00.893Z</time>
      </trkpt>
      <trkpt lat="48.85473" lon="2.29715">
        <ele>96.4</ele>
        <time>2015-01-19T20:56:01.928Z</time>
      </trkpt>
      <trkpt lat="48.85476" lon="2.29703">
        <ele>95.9</ele>
        <time>2015-01-19T20:56:04.932Z</time>
      </trkpt>
      <trkpt lat="48.85476" lon="2.29702">
        <ele>95.5</ele>
        <time>2015-01-19T20:56:05.856Z</time>
      </trkpt>
      <trkpt lat="48.85476" lon="2.29701">
        <ele>94.9</ele>
        <time>2015-01-19T20:56:07.826Z</time>
      </trkpt>
      <trkpt lat="48.85476" lon="2.29701">
        <ele>94.2</ele>
        <time>2015-01-19T20:56:08.906Z</time>
      </trkpt>
      <trkpt lat="48.85476" lon="2.297">
        <ele>93.7</ele>
        <time>2015-01-19T20:56:09.858Z</time>
      </trkpt>
      <trkpt lat="48.85477" lon="2.29687">
        <ele>90.2</ele>
        <time>2015-01-19T20:56:16.859Z</time>
      </trkpt>
      <trkpt lat="48.85479" lon="2.29684">
        <ele>89.3</ele>
        <time>2015-01-19T20:56:17.938Z</time>
      </trkpt>
      <trkpt lat="48.85485" lon="2.29674">
        <ele>88.1</ele>
        <time>2015-01-19T20:56:21.857Z</time>
      </trkpt>
      <trkpt lat="48.85488" lon="2.29672">
        <ele>88.1</ele>
        <time>2015-01-19T20:56:22.892Z</time>
      </trkpt>
      <trkpt lat="48.85495" lon="2.29671">
        <ele>88.2</ele>
        <time>2015-01-19T20:56:25.852Z</time>
      </trkpt>
      <trkpt lat="48.85498" lon="2.29673">
        <ele>88</ele>
        <time>2015-01-19T20:56:26.875Z</time>
      </trkpt>
      <trkpt lat="48.85504" lon="2.29681">
        <ele>86.7</ele>
        <time>2015-01-19T20:56:29.899Z</time>
      </trkpt>
      <trkpt lat="48.85506" lon="2.29684">
        <ele>86.6</ele>
        <time>2015-01-19T20:56:30.939Z</time>
      </trkpt>
      <trkpt lat="48.85511" lon="2.29691">
        <ele>86.3</ele>
        <time>2015-01-19T20:56:32.972Z</time>
      </trkpt>
      <trkpt lat="48.85513" lon="2.29694">
        <ele>86</ele>
        <time>2015-01-19T20:56:33.882Z</time>
      </trkpt>
      <trkpt lat="48.85519" lon="2.29701">
        <ele>85.8</ele>
        <time>2015-01-19T20:56:35.884Z</time>
      </trkpt>
      <trkpt lat="48.85522" lon="2.29704">
        <ele>85.7</ele>
        <time>2015-01-19T20:56:36.900Z</time>
      </trkpt>
      <trkpt lat="48.85527" lon="2.2971">
        <ele>85.6</ele>
        <time>2015-01-19T20:56:38.933Z</time>
      </trkpt>
      <trkpt lat="48.8553" lon="2.29713">
        <ele>85.7</ele>
        <time>2015-01-19T20:56:39.862Z</time>
      </trkpt>
      <trkpt lat="48.85536" lon="2.29721">
        <ele>85.8</ele>
        <time>2015-01-19T20:56:41.878Z</time>
      </trkpt>
      <trkpt lat="48.85539" lon="2.29725">
        <ele>85.8</ele>
        <time>2015-01-19T20:56:42.887Z</time>
      </trkpt>
      <trkpt lat="48.85544" lon="2.29732">
        <ele>85.6</ele>
        <time>2015-01-19T20:56:44.948Z</time>
      </trkpt>
      <trkpt lat="48.85547" lon="2.29735">
        <ele>85.6</ele>
        <time>2015-01-19T20:56:45.866Z</time>
      </trkpt>
      <trkpt lat="48.85552" lon="2.29744">
        <ele>85.6</ele>
        <time>2015-01-19T20:56:47.888Z</time>
      </trkpt>
      <trkpt lat="48.85554" lon="2.29748">
        <ele>85.7</ele>
        <time>2015-01-19T20:56:48.882Z</time>
      </trkpt>
      <trkpt lat="48.85559" lon="2.29755">
        <ele>85.5</ele>
        <time>2015-01-19T20:56:50.974Z</time>
      </trkpt>
      <trkpt lat="48.85562" lon="2.29759">
        <ele>85.5</ele>
        <time>2015-01-19T20:56:51.880Z</time>
      </trkpt>
      <trkpt lat="48.85567" lon="2.29769">
        <ele>85.3</ele>
        <time>2015-01-19T20:56:53.874Z</time>
      </trkpt>
      <trkpt lat="48.85569" lon="2.29774">
        <ele>84.9</ele>
        <time>2015-01-19T20:56:54.882Z</time>
      </trkpt>
      <trkpt lat="48.85573" lon="2.29785">
        <ele>84.8</ele>
        <time>2015-01-19T20:56:56.956Z</time>
      </trkpt>
      <trkpt lat="48.85575" lon="2.29791">
        <ele>84.6</ele>
        <time>2015-01-19T20:56:57.882Z</time>
      </trkpt>
      <trkpt lat="48.8558" lon="2.29802">
        <ele>84.1</ele>
        <time>2015-01-19T20:56:59.917Z</time>
      </trkpt>
      <trkpt lat="48.85583" lon="2.29807">
        <ele>84</ele>
        <time>2015-01-19T20:57:00.949Z</time>
      </trkpt>
      <trkpt lat="48.85589" lon="2.29816">
        <ele>83.6</ele>
        <time>2015-01-19T20:57:02.995Z</time>
      </trkpt>
      <trkpt lat="48.85592" lon="2.29821">
        <ele>83.6</ele>
        <time>2015-01-19T20:57:03.918Z</time>
      </trkpt>
      <trkpt lat="48.85598" lon="2.29829">
        <ele>83.4</ele>
        <time>2015-01-19T20:57:05.920Z</time>
      </trkpt>
      <trkpt lat="48.85601" lon="2.29833">
        <ele>83.2</ele>
        <time>2015-01-19T20:57:06.877Z</time>
      </trkpt>
      <trkpt lat="48.85609" lon="2.2984">
        <ele>83.3</ele>
        <time>2015-01-19T20:57:08.903Z</time>
      </trkpt>
      <trkpt lat="48.85613" lon="2.29843">
        <ele>83.2</ele>
        <time>2015-01-19T20:57:09.905Z</time>
      </trkpt>
      <trkpt lat="48.8562" lon="2.29848">
        <ele>83.1</ele>
        <time>2015-01-19T20:57:11.895Z</time>
      </trkpt>
      <trkpt lat="48.85624" lon="2.29851">
        <ele>83.2</ele>
        <time>2015-01-19T20:57:12.962Z</time>
      </trkpt>
      <trkpt lat="48.85631" lon="2.29858">
        <ele>83.4</ele>
        <time>2015-01-19T20:57:14.956Z</time>
      </trkpt>
      <trkpt lat="48.85635" lon="2.29861">
        <ele>83.3</ele>
        <time>2015-01-19T20:57:15.885Z</time>
      </trkpt>
      <trkpt lat="48.85641" lon="2.2987">
        <ele>83.5</ele>
        <time>2015-01-19T20:57:17.935Z</time>
      </trkpt>
      <trkpt lat="48.85644" lon="2.29874">
        <ele>83.5</ele>
        <time>2015-01-19T20:57:18.899Z</time>
      </trkpt>
      <trkpt lat="48.85647" lon="2.29879">
        <ele>83.8</ele>
        <time>2015-01-19T20:57:19.913Z</time>
      </trkpt>
      <trkpt lat="48.85651" lon="2.29884">
        <ele>83.8</ele>
        <time>2015-01-19T20:57:20.913Z</time>
      </trkpt>
      <trkpt lat="48.85654" lon="2.29888">
        <ele>83.9</ele>
        <time>2015-01-19T20:57:21.937Z</time>
      </trkpt>
      <trkpt lat="48.85657" lon="2.29893">
        <ele>83.8</ele>
        <time>2015-01-19T20:57:22.944Z</time>
      </trkpt>
      <trkpt lat="48.85664" lon="2.29902">
        <ele>83.9</ele>
        <time>2015-01-19T20:57:24.881Z</time>
      </trkpt>
      <trkpt lat="48.85666" lon="2.29906">
        <ele>84</ele>
        <time>2015-01-19T20:57:25.880Z</time>
      </trkpt>
      <trkpt lat="48.85672" lon="2.29915">
        <ele>84.3</ele>
        <time>2015-01-19T20:57:27.895Z</time>
      </trkpt>
      <trkpt lat="48.85675" lon="2.29919">
        <ele>84.4</ele>
        <time>2015-01-19T20:57:28.878Z</time>
      </trkpt>
      <trkpt lat="48.85681" lon="2.29928">
        <ele>84.7</ele>
        <time>2015-01-19T20:57:30.918Z</time>
      </trkpt>
      <trkpt lat="48.85684" lon="2.29931">
        <ele>84.8</ele>
        <time>2015-01-19T20:57:31.840Z</time>
      </trkpt>
      <trkpt lat="48.85691" lon="2.29938">
        <ele>85</ele>
        <time>2015-01-19T20:57:33.831Z</time>
      </trkpt>
      <trkpt lat="48.85695" lon="2.29943">
        <ele>84.5</ele>
        <time>2015-01-19T20:57:34.844Z</time>
      </trkpt>
      <trkpt lat="48.85699" lon="2.29948">
        <ele>84</ele>
        <time>2015-01-19T20:57:35.861Z</time>
      </trkpt>
      <trkpt lat="48.85702" lon="2.29953">
        <ele>83.9</ele>
        <time>2015-01-19T20:57:36.871Z</time>
      </trkpt>
      <trkpt lat="48.85705" lon="2.29958">
        <ele>83.8</ele>
        <time>2015-01-19T20:57:37.889Z</time>
      </trkpt>
      <trkpt lat="48.85708" lon="2.29964">
        <ele>83.5</ele>
        <time>2015-01-19T20:57:38.895Z</time>
      </trkpt>
      <trkpt lat="48.85711" lon="2.29968">
        <ele>83.7</ele>
        <time>2015-01-19T20:57:39.908Z</time>
      </trkpt>
      <trkpt lat="48.85715" lon="2.29972">
        <ele>84</ele>
        <time>2015-01-19T20:57:40.920Z</time>
      </trkpt>
      <trkpt lat="48.85719" lon="2.29977">
        <ele>84.4</ele>
        <time>2015-01-19T20:57:41.828Z</time>
      </trkpt>
      <trkpt lat="48.85723" lon="2.29981">
        <ele>84.7</ele>
        <time>2015-01-19T20:57:42.833Z</time>
      </trkpt>
      <trkpt lat="48.85727" lon="2.29985">
        <ele>85</ele>
        <time>2015-01-19T20:57:43.862Z</time>
      </trkpt>
      <trkpt lat="48.8573" lon="2.29988">
        <ele>85.7</ele>
        <time>2015-01-19T20:57:44.956Z</time>
      </trkpt>
      <trkpt lat="48.85736" lon="2.29995">
        <ele>86.3</ele>
        <time>2015-01-19T20:57:46.902Z</time>
      </trkpt>
      <trkpt lat="48.85738" lon="2.29998">
        <ele>86.1</ele>
        <time>2015-01-19T20:57:47.870Z</time>
      </trkpt>
      <trkpt lat="48.85742" lon="2.30008">
        <ele>86.3</ele>
        <time>2015-01-19T20:57:50.963Z</time>
      </trkpt>
      <trkpt lat="48.85743" lon="2.3001">
        <ele>86.4</ele>
        <time>2015-01-19T20:57:51.851Z</time>
      </trkpt>
      <trkpt lat="48.8575" lon="2.30019">
        <ele>86.8</ele>
        <time>2015-01-19T20:57:57.954Z</time>
      </trkpt>
      <trkpt lat="48.85752" lon="2.3002">
        <ele>86.9</ele>
        <time>2015-01-19T20:57:58.863Z</time>
      </trkpt>
      <trkpt lat="48.85759" lon="2.30023">
        <ele>87.4</ele>
        <time>2015-01-19T20:58:01.864Z</time>
      </trkpt>
      <trkpt lat="48.85762" lon="2.30023">
        <ele>87.4</ele>
        <time>2015-01-19T20:58:02.918Z</time>
      </trkpt>
      <trkpt lat="48.85768" lon="2.30024">
        <ele>87.9</ele>
        <time>2015-01-19T20:58:04.854Z</time>
      </trkpt>
      <trkpt lat="48.85771" lon="2.30025">
        <ele>88.1</ele>
        <time>2015-01-19T20:58:05.873Z</time>
      </trkpt>
      <trkpt lat="48.85777" lon="2.3003">
        <ele>88.8</ele>
        <time>2015-01-19T20:58:08.916Z</time>
      </trkpt>
      <trkpt lat="48.85779" lon="2.30033">
        <ele>89.1</ele>
        <time>2015-01-19T20:58:09.865Z</time>
      </trkpt>
      <trkpt lat="48.85781" lon="2.30042">
        <ele>89.8</ele>
        <time>2015-01-19T20:58:12.866Z</time>
      </trkpt>
      <trkpt lat="48.85782" lon="2.30047">
        <ele>90</ele>
        <time>2015-01-19T20:58:13.917Z</time>
      </trkpt>
      <trkpt lat="48.85784" lon="2.30057">
        <ele>90.4</ele>
        <time>2015-01-19T20:58:15.848Z</time>
      </trkpt>
      <trkpt lat="48.85785" lon="2.30063">
        <ele>90.4</ele>
        <time>2015-01-19T20:58:16.866Z</time>
      </trkpt>
      <trkpt lat="48.85787" lon="2.30075">
        <ele>90.6</ele>
        <time>2015-01-19T20:58:18.923Z</time>
      </trkpt>
      <trkpt lat="48.85788" lon="2.30081">
        <ele>90.8</ele>
        <time>2015-01-19T20:58:19.872Z</time>
      </trkpt>
      <trkpt lat="48.85791" lon="2.30093">
        <ele>91.1</ele>
        <time>2015-01-19T20:58:21.897Z</time>
      </trkpt>
      <trkpt lat="48.85792" lon="2.30099">
        <ele>91.1</ele>
        <time>2015-01-19T20:58:22.907Z</time>
      </trkpt>
      <trkpt lat="48.85795" lon="2.3011">
        <ele>91.1</ele>
        <time>2015-01-19T20:58:24.854Z</time>
      </trkpt>
      <trkpt lat="48.85795" lon="2.30115">
        <ele>91.1</ele>
        <time>2015-01-19T20:58:25.876Z</time>
      </trkpt>
      <trkpt lat="48.85796" lon="2.30128">
        <ele>91</ele>
        <time>2015-01-19T20:58:27.856Z</time>
      </trkpt>
      <trkpt lat="48.85796" lon="2.30134">
        <ele>90.8</ele>
        <time>2015-01-19T20:58:28.893Z</time>
      </trkpt>
      <trkpt lat="48.85796" lon="2.30146">
        <ele>90.7</ele>
        <time>2015-01-19T20:58:30.913Z</time>
      </trkpt>
      <trkpt lat="48.85797" lon="2.30152">
        <ele>90.7</ele>
        <time>2015-01-19T20:58:31.932Z</time>
      </trkpt>
      <trkpt lat="48.85797" lon="2.30163">
        <ele>90.6</ele>
        <time>2015-01-19T20:58:33.921Z</time>
      </trkpt>
      <trkpt lat="48.85797" lon="2.30169">
        <ele>90.5</ele>
        <time>2015-01-19T20:58:34.845Z</time>
      </trkpt>
      <trkpt lat="48.85798" lon="2.3018">
        <ele>90.7</ele>
        <time>2015-01-19T20:58:36.833Z</time>
      </trkpt>
      <trkpt lat="48.85799" lon="2.30185">
        <ele>90.8</ele>
        <time>2015-01-19T20:58:37.885Z</time>
      </trkpt>
      <trkpt lat="48.85802" lon="2.30195">
        <ele>90.8</ele>
        <time>2015-01-19T20:58:39.810Z</time>
      </trkpt>
      <trkpt lat="48.85803" lon="2.302">
        <ele>90.8</ele>
        <time>2015-01-19T20:58:40.832Z</time>
      </trkpt>
      <trkpt lat="48.85808" lon="2.30208">
        <ele>90.7</ele>
        <time>2015-01-19T20:58:42.813Z</time>
      </trkpt>
      <trkpt lat="48.8581" lon="2.30213">
        <ele>90.7</ele>
        <time>2015-01-19T20:58:43.845Z</time>
      </trkpt>
      <trkpt lat="48.85832" lon="2.30272">
        <ele>88.7</ele>
        <time>2015-01-19T20:59:03.837Z</time>
      </trkpt>
      <trkpt lat="48.85828" lon="2.30275">
        <ele>88.3</ele>
        <time>2015-01-19T20:59:04.860Z</time>
      </trkpt>
      <trkpt lat="48.85823" lon="2.30277">
        <ele>87.8</ele>
        <time>2015-01-19T20:59:05.875Z</time>
      </trkpt>
      <trkpt lat="48.85818" lon="2.3028">
        <ele>87.2</ele>
        <time>2015-01-19T20:59:06.899Z</time>
      </trkpt>
      <trkpt lat="48.85814" lon="2.30281">
        <ele>86.5</ele>
        <time>2015-01-19T20:59:07.818Z</time>
      </trkpt>
      <trkpt lat="48.85808" lon="2.30289">
        <ele>84.7</ele>
        <time>2015-01-19T20:59:11.050Z</time>
      </trkpt>
      <trkpt lat="48.85806" lon="2.30292">
        <ele>83.6</ele>
        <time>2015-01-19T20:59:11.829Z</time>
      </trkpt>
      <trkpt lat="48.858" lon="2.303">
        <ele>80.3</ele>
        <time>2015-01-19T20:59:14.861Z</time>
      </trkpt>
      <trkpt lat="48.85798" lon="2.30303">
        <ele>79.5</ele>
        <time>2015-01-19T20:59:15.912Z</time>
      </trkpt>
      <trkpt lat="48.85792" lon="2.30311">
        <ele>78.1</ele>
        <time>2015-01-19T20:59:17.832Z</time>
      </trkpt>
      <trkpt lat="48.85788" lon="2.30316">
        <ele>77.3</ele>
        <time>2015-01-19T20:59:18.843Z</time>
      </trkpt>
      <trkpt lat="48.85785" lon="2.3032">
        <ele>76.5</ele>
        <time>2015-01-19T20:59:19.867Z</time>
      </trkpt>
      <trkpt lat="48.85781" lon="2.30324">
        <ele>75.8</ele>
        <time>2015-01-19T20:59:20.875Z</time>
      </trkpt>
      <trkpt lat="48.85776" lon="2.30328">
        <ele>74.7</ele>
        <time>2015-01-19T20:59:21.895Z</time>
      </trkpt>
      <trkpt lat="48.85772" lon="2.30332">
        <ele>74.1</ele>
        <time>2015-01-19T20:59:22.835Z</time>
      </trkpt>
      <trkpt lat="48.85768" lon="2.30336">
        <ele>73.2</ele>
        <time>2015-01-19T20:59:23.841Z</time>
      </trkpt>
      <trkpt lat="48.85764" lon="2.3034">
        <ele>72.5</ele>
        <time>2015-01-19T20:59:24.847Z</time>
      </trkpt>
      <trkpt lat="48.85757" lon="2.30343">
        <ele>78</ele>
        <time>2015-01-19T20:59:25.856Z</time>
      </trkpt>
      <trkpt lat="48.85751" lon="2.30346">
        <ele>78.9</ele>
        <time>2015-01-19T20:59:26.863Z</time>
      </trkpt>
      <trkpt lat="48.85747" lon="2.3035">
        <ele>78.9</ele>
        <time>2015-01-19T20:59:27.896Z</time>
      </trkpt>
      <trkpt lat="48.85743" lon="2.30353">
        <ele>79</ele>
        <time>2015-01-19T20:59:28.902Z</time>
      </trkpt>
      <trkpt lat="48.85739" lon="2.30355">
        <ele>79</ele>
        <time>2015-01-19T20:59:29.932Z</time>
      </trkpt>
      <trkpt lat="48.85734" lon="2.3036">
        <ele>78.8</ele>
        <time>2015-01-19T20:59:30.824Z</time>
      </trkpt>
      <trkpt lat="48.85729" lon="2.30362">
        <ele>78.9</ele>
        <time>2015-01-19T20:59:31.825Z</time>
      </trkpt>
      <trkpt lat="48.85724" lon="2.30365">
        <ele>79.8</ele>
        <time>2015-01-19T20:59:32.867Z</time>
      </trkpt>
      <trkpt lat="48.85714" lon="2.30371">
        <ele>84.5</ele>
        <time>2015-01-19T20:59:33.895Z</time>
      </trkpt>
      <trkpt lat="48.85707" lon="2.30375">
        <ele>87.6</ele>
        <time>2015-01-19T20:59:34.904Z</time>
      </trkpt>
      <trkpt lat="48.857" lon="2.3038">
        <ele>89.7</ele>
        <time>2015-01-19T20:59:35.922Z</time>
      </trkpt>
      <trkpt lat="48.85691" lon="2.30379">
        <ele>90.6</ele>
        <time>2015-01-19T20:59:37.820Z</time>
      </trkpt>
      <trkpt lat="48.85688" lon="2.30379">
        <ele>91</ele>
        <time>2015-01-19T20:59:38.856Z</time>
      </trkpt>
      <trkpt lat="48.85677" lon="2.30378">
        <ele>92.3</ele>
        <time>2015-01-19T20:59:42.905Z</time>
      </trkpt>
      <trkpt lat="48.8568" lon="2.30387">
        <ele>90.3</ele>
        <time>2015-01-19T20:59:47.905Z</time>
      </trkpt>
      <trkpt lat="48.85683" lon="2.30388">
        <ele>89.9</ele>
        <time>2015-01-19T20:59:48.952Z</time>
      </trkpt>
      <trkpt lat="48.85688" lon="2.30395">
        <ele>90.2</ele>
        <time>2015-01-19T20:59:51.909Z</time>
      </trkpt>
      <trkpt lat="48.85689" lon="2.30398">
        <ele>90.6</ele>
        <time>2015-01-19T20:59:52.909Z</time>
      </trkpt>
      <trkpt lat="48.85695" lon="2.30408">
        <ele>91.6</ele>
        <time>2015-01-19T20:59:56.953Z</time>
      </trkpt>
      <trkpt lat="48.85695" lon="2.30411">
        <ele>91.6</ele>
        <time>2015-01-19T20:59:57.938Z</time>
      </trkpt>
      <trkpt lat="48.85703" lon="2.30416">
        <ele>93.7</ele>
        <time>2015-01-19T21:00:01.923Z</time>
      </trkpt>
      <trkpt lat="48.85705" lon="2.30418">
        <ele>93.7</ele>
        <time>2015-01-19T21:00:03.018Z</time>
      </trkpt>
      <trkpt lat="48.85709" lon="2.30426">
        <ele>95.5</ele>
        <time>2015-01-19T21:00:06.916Z</time>
      </trkpt>
      <trkpt lat="48.85712" lon="2.30426">
        <ele>95.7</ele>
        <time>2015-01-19T21:00:07.869Z</time>
      </trkpt>
      <trkpt lat="48.85718" lon="2.30431">
        <ele>95.7</ele>
        <time>2015-01-19T21:00:09.837Z</time>
      </trkpt>
      <trkpt lat="48.8572" lon="2.30434">
        <ele>95.8</ele>
        <time>2015-01-19T21:00:10.851Z</time>
      </trkpt>
      <trkpt lat="48.85722" lon="2.30446">
        <ele>96.8</ele>
        <time>2015-01-19T21:00:14.033Z</time>
      </trkpt>
      <trkpt lat="48.85722" lon="2.3045">
        <ele>97.6</ele>
        <time>2015-01-19T21:00:14.898Z</time>
      </trkpt>
      <trkpt lat="48.85723" lon="2.3046">
        <ele>100</ele>
        <time>2015-01-19T21:00:16.885Z</time>
      </trkpt>
      <trkpt lat="48.85724" lon="2.30466">
        <ele>100.8</ele>
        <time>2015-01-19T21:00:17.930Z</time>
      </trkpt>
      <trkpt lat="48.85726" lon="2.30476">
        <ele>101.9</ele>
        <time>2015-01-19T21:00:19.900Z</time>
      </trkpt>
      <trkpt lat="48.85727" lon="2.30482">
        <ele>102.4</ele>
        <time>2015-01-19T21:00:20.935Z</time>
      </trkpt>
      <trkpt lat="48.8573" lon="2.30494">
        <ele>103.3</ele>
        <time>2015-01-19T21:00:22.906Z</time>
      </trkpt>
      <trkpt lat="48.85732" lon="2.305">
        <ele>103.7</ele>
        <time>2015-01-19T21:00:23.882Z</time>
      </trkpt>
      <trkpt lat="48.85736" lon="2.30511">
        <ele>103.5</ele>
        <time>2015-01-19T21:00:25.944Z</time>
      </trkpt>
      <trkpt lat="48.85739" lon="2.30515">
        <ele>104.7</ele>
        <time>2015-01-19T21:00:26.958Z</time>
      </trkpt>
      <trkpt lat="48.85733" lon="2.3052">
        <ele>104.6</ele>
        <time>2015-01-19T21:00:29.900Z</time>
      </trkpt>
      <trkpt lat="48.85729" lon="2.30523">
        <ele>104.8</ele>
        <time>2015-01-19T21:00:30.920Z</time>
      </trkpt>
      <trkpt lat="48.85722" lon="2.30528">
        <ele>104.7</ele>
        <time>2015-01-19T21:00:32.928Z</time>
      </trkpt>
      <trkpt lat="48.85718" lon="2.3053">
        <ele>104.7</ele>
        <time>2015-01-19T21:00:33.944Z</time>
      </trkpt>
      <trkpt lat="48.8571" lon="2.30534">
        <ele>104.5</ele>
        <time>2015-01-19T21:00:35.837Z</time>
      </trkpt>
      <trkpt lat="48.85706" lon="2.30536">
        <ele>104.6</ele>
        <time>2015-01-19T21:00:36.850Z</time>
      </trkpt>
      <trkpt lat="48.85698" lon="2.30539">
        <ele>104.4</ele>
        <time>2015-01-19T21:00:38.944Z</time>
      </trkpt>
      <trkpt lat="48.85693" lon="2.3054">
        <ele>104.2</ele>
        <time>2015-01-19T21:00:39.828Z</time>
      </trkpt>
      <trkpt lat="48.85686" lon="2.30544">
        <ele>104.2</ele>
        <time>2015-01-19T21:00:41.865Z</time>
      </trkpt>
      <trkpt lat="48.85683" lon="2.30545">
        <ele>104.2</ele>
        <time>2015-01-19T21:00:42.879Z</time>
      </trkpt>
      <trkpt lat="48.85677" lon="2.30549">
        <ele>104.1</ele>
        <time>2015-01-19T21:00:44.950Z</time>
      </trkpt>
      <trkpt lat="48.85674" lon="2.3055">
        <ele>104</ele>
        <time>2015-01-19T21:00:45.826Z</time>
      </trkpt>
      <trkpt lat="48.85668" lon="2.30554">
        <ele>103.9</ele>
        <time>2015-01-19T21:00:47.880Z</time>
      </trkpt>
      <trkpt lat="48.85664" lon="2.30555">
        <ele>103.9</ele>
        <time>2015-01-19T21:00:48.887Z</time>
      </trkpt>
      <trkpt lat="48.85661" lon="2.30557">
        <ele>103.9</ele>
        <time>2015-01-19T21:00:49.907Z</time>
      </trkpt>
      <trkpt lat="48.85654" lon="2.30559">
        <ele>103.8</ele>
        <time>2015-01-19T21:00:51.819Z</time>
      </trkpt>
      <trkpt lat="48.85648" lon="2.30558">
        <ele>103.9</ele>
        <time>2015-01-19T21:00:53.845Z</time>
      </trkpt>
      <trkpt lat="48.85681" lon="2.30518">
        <ele>98.8</ele>
        <time>2015-01-19T21:01:42.856Z</time>
      </trkpt>
      <trkpt lat="48.85691" lon="2.30522">
        <ele>98</ele>
        <time>2015-01-19T21:01:43.867Z</time>
      </trkpt>
      <trkpt lat="48.85707" lon="2.30524">
        <ele>95.8</ele>
        <time>2015-01-19T21:01:44.872Z</time>
      </trkpt>
      <trkpt lat="48.85715" lon="2.30528">
        <ele>95.9</ele>
        <time>2015-01-19T21:01:45.894Z</time>
      </trkpt>
      <trkpt lat="48.85721" lon="2.30532">
        <ele>96.5</ele>
        <time>2015-01-19T21:01:46.919Z</time>
      </trkpt>
      <trkpt lat="48.85725" lon="2.30538">
        <ele>95.8</ele>
        <time>2015-01-19T21:01:47.841Z</time>
      </trkpt>
      <trkpt lat="48.8573" lon="2.30543">
        <ele>97</ele>
        <time>2015-01-19T21:01:48.839Z</time>
      </trkpt>
      <trkpt lat="48.85736" lon="2.30546">
        <ele>99.1</ele>
        <time>2015-01-19T21:01:49.852Z</time>
      </trkpt>
      <trkpt lat="48.85742" lon="2.30551">
        <ele>101</ele>
        <time>2015-01-19T21:01:50.879Z</time>
      </trkpt>
      <trkpt lat="48.85746" lon="2.30556">
        <ele>100.6</ele>
        <time>2015-01-19T21:01:51.906Z</time>
      </trkpt>
      <trkpt lat="48.8575" lon="2.30561">
        <ele>100.9</ele>
        <time>2015-01-19T21:01:52.917Z</time>
      </trkpt>
      <trkpt lat="48.85754" lon="2.30566">
        <ele>101.4</ele>
        <time>2015-01-19T21:01:53.850Z</time>
      </trkpt>
      <trkpt lat="48.85757" lon="2.3057">
        <ele>101.1</ele>
        <time>2015-01-19T21:01:54.850Z</time>
      </trkpt>
      <trkpt lat="48.85761" lon="2.30579">
        <ele>102</ele>
        <time>2015-01-19T21:01:56.902Z</time>
      </trkpt>
      <trkpt lat="48.85762" lon="2.30583">
        <ele>102.5</ele>
        <time>2015-01-19T21:01:57.928Z</time>
      </trkpt>
      <trkpt lat="48.85768" lon="2.3059">
        <ele>104.4</ele>
        <time>2015-01-19T21:02:00.861Z</time>
      </trkpt>
      <trkpt lat="48.8577" lon="2.30593">
        <ele>104.4</ele>
        <time>2015-01-19T21:02:01.888Z</time>
      </trkpt>
      <trkpt lat="48.85777" lon="2.30596">
        <ele>102.6</ele>
        <time>2015-01-19T21:02:03.840Z</time>
      </trkpt>
      <trkpt lat="48.85779" lon="2.30598">
        <ele>102.3</ele>
        <time>2015-01-19T21:02:04.849Z</time>
      </trkpt>
      <trkpt lat="48.85785" lon="2.30608">
        <ele>103.1</ele>
        <time>2015-01-19T21:02:08.892Z</time>
      </trkpt>
      <trkpt lat="48.85785" lon="2.30611">
        <ele>103.1</ele>
        <time>2015-01-19T21:02:09.849Z</time>
      </trkpt>
      <trkpt lat="48.85786" lon="2.30619">
        <ele>101.7</ele>
        <time>2015-01-19T21:02:11.883Z</time>
      </trkpt>
      <trkpt lat="48.85785" lon="2.30625">
        <ele>100.8</ele>
        <time>2015-01-19T21:02:12.888Z</time>
      </trkpt>
      <trkpt lat="48.85784" lon="2.30637">
        <ele>99.1</ele>
        <time>2015-01-19T21:02:14.871Z</time>
      </trkpt>
      <trkpt lat="48.85786" lon="2.30647">
        <ele>92.1</ele>
        <time>2015-01-19T21:02:15.878Z</time>
      </trkpt>
      <trkpt lat="48.85787" lon="2.30655">
        <ele>89.7</ele>
        <time>2015-01-19T21:02:16.843Z</time>
      </trkpt>
      <trkpt lat="48.8579" lon="2.30662">
        <ele>86.3</ele>
        <time>2015-01-19T21:02:17.841Z</time>
      </trkpt>
      <trkpt lat="48.8579" lon="2.30673">
        <ele>84.5</ele>
        <time>2015-01-19T21:02:19.857Z</time>
      </trkpt>
      <trkpt lat="48.85791" lon="2.30678">
        <ele>84.3</ele>
        <time>2015-01-19T21:02:20.867Z</time>
      </trkpt>
      <trkpt lat="48.8579" lon="2.30684">
        <ele>84.2</ele>
        <time>2015-01-19T21:02:21.879Z</time>
      </trkpt>
      <trkpt lat="48.85788" lon="2.30691">
        <ele>84.3</ele>
        <time>2015-01-19T21:02:22.992Z</time>
      </trkpt>
      <trkpt lat="48.85788" lon="2.30698">
        <ele>84.1</ele>
        <time>2015-01-19T21:02:23.840Z</time>
      </trkpt>
      <trkpt lat="48.85789" lon="2.30719">
        <ele>82.4</ele>
        <time>2015-01-19T21:02:26.867Z</time>
      </trkpt>
      <trkpt lat="48.8579" lon="2.30727">
        <ele>81.8</ele>
        <time>2015-01-19T21:02:27.874Z</time>
      </trkpt>
      <trkpt lat="48.85789" lon="2.30734">
        <ele>82</ele>
        <time>2015-01-19T21:02:28.879Z</time>
      </trkpt>
      <trkpt lat="48.85785" lon="2.30742">
        <ele>82.6</ele>
        <time>2015-01-19T21:02:29.896Z</time>
      </trkpt>
      <trkpt lat="48.85786" lon="2.30747">
        <ele>82.7</ele>
        <time>2015-01-19T21:02:30.907Z</time>
      </trkpt>
      <trkpt lat="48.85787" lon="2.3076">
        <ele>81</ele>
        <time>2015-01-19T21:02:32.918Z</time>
      </trkpt>
      <trkpt lat="48.85789" lon="2.30765">
        <ele>80.8</ele>
        <time>2015-01-19T21:02:33.843Z</time>
      </trkpt>
      <trkpt lat="48.85792" lon="2.3077">
        <ele>80.1</ele>
        <time>2015-01-19T21:02:34.815Z</time>
      </trkpt>
      <trkpt lat="48.85794" lon="2.30776">
        <ele>80</ele>
        <time>2015-01-19T21:02:35.835Z</time>
      </trkpt>
      <trkpt lat="48.85796" lon="2.30783">
        <ele>79.8</ele>
        <time>2015-01-19T21:02:36.838Z</time>
      </trkpt>
      <trkpt lat="48.85797" lon="2.30789">
        <ele>79.7</ele>
        <time>2015-01-19T21:02:37.850Z</time>
      </trkpt>
      <trkpt lat="48.85796" lon="2.30802">
        <ele>80.1</ele>
        <time>2015-01-19T21:02:39.906Z</time>
      </trkpt>
      <trkpt lat="48.85796" lon="2.30808">
        <ele>80.6</ele>
        <time>2015-01-19T21:02:40.808Z</time>
      </trkpt>
      <trkpt lat="48.85796" lon="2.30815">
        <ele>81.1</ele>
        <time>2015-01-19T21:02:41.848Z</time>
      </trkpt>
      <trkpt lat="48.85797" lon="2.30823">
        <ele>82</ele>
        <time>2015-01-19T21:02:42.825Z</time>
      </trkpt>
      <trkpt lat="48.85797" lon="2.30834">
        <ele>82.4</ele>
        <time>2015-01-19T21:02:44.921Z</time>
      </trkpt>
      <trkpt lat="48.85797" lon="2.3084">
        <ele>82.6</ele>
        <time>2015-01-19T21:02:45.870Z</time>
      </trkpt>
      <trkpt lat="48.85801" lon="2.30849">
        <ele>83</ele>
        <time>2015-01-19T21:02:46.883Z</time>
      </trkpt>
      <trkpt lat="48.85802" lon="2.30856">
        <ele>82.7</ele>
        <time>2015-01-19T21:02:47.887Z</time>
      </trkpt>
      <trkpt lat="48.85802" lon="2.30864">
        <ele>82.6</ele>
        <time>2015-01-19T21:02:48.915Z</time>
      </trkpt>
      <trkpt lat="48.85802" lon="2.3087">
        <ele>82.6</ele>
        <time>2015-01-19T21:02:49.925Z</time>
      </trkpt>
      <trkpt lat="48.85802" lon="2.30877">
        <ele>82.6</ele>
        <time>2015-01-19T21:02:50.939Z</time>
      </trkpt>
      <trkpt lat="48.85801" lon="2.30884">
        <ele>82.5</ele>
        <time>2015-01-19T21:02:51.833Z</time>
      </trkpt>
      <trkpt lat="48.858" lon="2.30897">
        <ele>82.5</ele>
        <time>2015-01-19T21:02:53.845Z</time>
      </trkpt>
      <trkpt lat="48.85799" lon="2.30905">
        <ele>82.6</ele>
        <time>2015-01-19T21:02:54.851Z</time>
      </trkpt>
      <trkpt lat="48.85797" lon="2.30912">
        <ele>82.8</ele>
        <time>2015-01-19T21:02:55.923Z</time>
      </trkpt>
      <trkpt lat="48.85796" lon="2.3092">
        <ele>83</ele>
        <time>2015-01-19T21:02:56.932Z</time>
      </trkpt>
      <trkpt lat="48.85797" lon="2.30927">
        <ele>83.2</ele>
        <time>2015-01-19T21:02:57.833Z</time>
      </trkpt>
      <trkpt lat="48.85796" lon="2.30934">
        <ele>83.3</ele>
        <time>2015-01-19T21:02:58.835Z</time>
      </trkpt>
      <trkpt lat="48.85795" lon="2.30946">
        <ele>83.4</ele>
        <time>2015-01-19T21:03:00.847Z</time>
      </trkpt>
      <trkpt lat="48.85795" lon="2.30951">
        <ele>83.4</ele>
        <time>2015-01-19T21:03:01.886Z</time>
      </trkpt>
      <trkpt lat="48.85793" lon="2.30963">
        <ele>83.6</ele>
        <time>2015-01-19T21:03:03.838Z</time>
      </trkpt>
      <trkpt lat="48.85793" lon="2.30968">
        <ele>83.8</ele>
        <time>2015-01-19T21:03:04.845Z</time>
      </trkpt>
      <trkpt lat="48.85796" lon="2.3098">
        <ele>83.9</ele>
        <time>2015-01-19T21:03:06.866Z</time>
      </trkpt>
      <trkpt lat="48.85798" lon="2.30983">
        <ele>84</ele>
        <time>2015-01-19T21:03:07.889Z</time>
      </trkpt>
      <trkpt lat="48.85801" lon="2.30995">
        <ele>85.2</ele>
        <time>2015-01-19T21:03:13.007Z</time>
      </trkpt>
      <trkpt lat="48.85801" lon="2.30998">
        <ele>85</ele>
        <time>2015-01-19T21:03:13.878Z</time>
      </trkpt>
      <trkpt lat="48.85804" lon="2.3101">
        <ele>86</ele>
        <time>2015-01-19T21:03:17.871Z</time>
      </trkpt>
      <trkpt lat="48.85806" lon="2.31013">
        <ele>86.2</ele>
        <time>2015-01-19T21:03:18.881Z</time>
      </trkpt>
      <trkpt lat="48.85808" lon="2.31023">
        <ele>85.7</ele>
        <time>2015-01-19T21:03:21.869Z</time>
      </trkpt>
      <trkpt lat="48.85809" lon="2.31027">
        <ele>85.5</ele>
        <time>2015-01-19T21:03:22.908Z</time>
      </trkpt>
      <trkpt lat="48.85811" lon="2.3104">
        <ele>86</ele>
        <time>2015-01-19T21:03:26.912Z</time>
      </trkpt>
      <trkpt lat="48.85811" lon="2.31042">
        <ele>86</ele>
        <time>2015-01-19T21:03:27.924Z</time>
      </trkpt>
      <trkpt lat="48.85812" lon="2.31045">
        <ele>85.8</ele>
        <time>2015-01-19T21:03:30.918Z</time>
      </trkpt>
      <trkpt lat="48.85811" lon="2.31045">
        <ele>85.4</ele>
        <time>2015-01-19T21:03:31.934Z</time>
      </trkpt>
      <trkpt lat="48.85811" lon="2.31046">
        <ele>85.9</ele>
        <time>2015-01-19T21:03:33.862Z</time>
      </trkpt>
      <trkpt lat="48.85812" lon="2.31046">
        <ele>86.2</ele>
        <time>2015-01-19T21:03:34.869Z</time>
      </trkpt>
      <trkpt lat="48.85815" lon="2.31059">
        <ele>87.5</ele>
        <time>2015-01-19T21:03:40.859Z</time>
      </trkpt>
      <trkpt lat="48.85814" lon="2.31063">
        <ele>87.5</ele>
        <time>2015-01-19T21:03:41.885Z</time>
      </trkpt>
      <trkpt lat="48.85815" lon="2.31076">
        <ele>87.8</ele>
        <time>2015-01-19T21:03:44.898Z</time>
      </trkpt>
      <trkpt lat="48.85816" lon="2.31081">
        <ele>87.6</ele>
        <time>2015-01-19T21:03:45.925Z</time>
      </trkpt>
      <trkpt lat="48.85816" lon="2.31091">
        <ele>87.5</ele>
        <time>2015-01-19T21:03:47.868Z</time>
      </trkpt>
      <trkpt lat="48.85817" lon="2.31095">
        <ele>87.3</ele>
        <time>2015-01-19T21:03:48.871Z</time>
      </trkpt>
      <trkpt lat="48.85822" lon="2.31106">
        <ele>86.2</ele>
        <time>2015-01-19T21:03:51.912Z</time>
      </trkpt>
      <trkpt lat="48.85823" lon="2.31108">
        <ele>86.1</ele>
        <time>2015-01-19T21:03:52.921Z</time>
      </trkpt>
      <trkpt lat="48.85831" lon="2.31113">
        <ele>85.5</ele>
        <time>2015-01-19T21:03:59.933Z</time>
      </trkpt>
      <trkpt lat="48.85831" lon="2.31114">
        <ele>85.5</ele>
        <time>2015-01-19T21:04:00.915Z</time>
      </trkpt>
      <trkpt lat="48.85833" lon="2.31126">
        <ele>86.2</ele>
        <time>2015-01-19T21:04:05.849Z</time>
      </trkpt>
      <trkpt lat="48.85834" lon="2.3113">
        <ele>86.5</ele>
        <time>2015-01-19T21:04:06.866Z</time>
      </trkpt>
      <trkpt lat="48.85837" lon="2.31141">
        <ele>86.6</ele>
        <time>2015-01-19T21:04:08.925Z</time>
      </trkpt>
      <trkpt lat="48.85838" lon="2.31148">
        <ele>87.2</ele>
        <time>2015-01-19T21:04:10.053Z</time>
      </trkpt>
      <trkpt lat="48.85838" lon="2.31159">
        <ele>87.2</ele>
        <time>2015-01-19T21:04:11.891Z</time>
      </trkpt>
      <trkpt lat="48.85839" lon="2.31164">
        <ele>87.3</ele>
        <time>2015-01-19T21:04:12.952Z</time>
      </trkpt>
      <trkpt lat="48.8584" lon="2.31174">
        <ele>87.6</ele>
        <time>2015-01-19T21:04:14.991Z</time>
      </trkpt>
      <trkpt lat="48.85841" lon="2.31179">
        <ele>87.7</ele>
        <time>2015-01-19T21:04:15.874Z</time>
      </trkpt>
      <trkpt lat="48.85842" lon="2.3119">
        <ele>87.4</ele>
        <time>2015-01-19T21:04:17.858Z</time>
      </trkpt>
      <trkpt lat="48.85843" lon="2.31195">
        <ele>87.5</ele>
        <time>2015-01-19T21:04:18.855Z</time>
      </trkpt>
      <trkpt lat="48.85845" lon="2.31204">
        <ele>87.4</ele>
        <time>2015-01-19T21:04:20.913Z</time>
      </trkpt>
      <trkpt lat="48.85845" lon="2.31209">
        <ele>87.4</ele>
        <time>2015-01-19T21:04:21.932Z</time>
      </trkpt>
      <trkpt lat="48.85846" lon="2.31219">
        <ele>87.1</ele>
        <time>2015-01-19T21:04:23.866Z</time>
      </trkpt>
      <trkpt lat="48.85846" lon="2.31224">
        <ele>86.9</ele>
        <time>2015-01-19T21:04:24.840Z</time>
      </trkpt>
      <trkpt lat="48.85846" lon="2.31235">
        <ele>86.6</ele>
        <time>2015-01-19T21:04:26.880Z</time>
      </trkpt>
      <trkpt lat="48.85846" lon="2.31241">
        <ele>86.7</ele>
        <time>2015-01-19T21:04:27.916Z</time>
      </trkpt>
      <trkpt lat="48.85845" lon="2.31253">
        <ele>86.7</ele>
        <time>2015-01-19T21:04:29.945Z</time>
      </trkpt>
      <trkpt lat="48.85845" lon="2.31259">
        <ele>86.5</ele>
        <time>2015-01-19T21:04:30.946Z</time>
      </trkpt>
      <trkpt lat="48.85845" lon="2.31269">
        <ele>86.1</ele>
        <time>2015-01-19T21:04:32.995Z</time>
      </trkpt>
      <trkpt lat="48.85845" lon="2.31274">
        <ele>85.9</ele>
        <time>2015-01-19T21:04:33.947Z</time>
      </trkpt>
      <trkpt lat="48.85844" lon="2.31286">
        <ele>85.7</ele>
        <time>2015-01-19T21:04:35.868Z</time>
      </trkpt>
      <trkpt lat="48.85844" lon="2.31292">
        <ele>85.6</ele>
        <time>2015-01-19T21:04:36.879Z</time>
      </trkpt>
      <trkpt lat="48.85844" lon="2.31304">
        <ele>85.4</ele>
        <time>2015-01-19T21:04:38.975Z</time>
      </trkpt>
      <trkpt lat="48.85844" lon="2.3131">
        <ele>85.3</ele>
        <time>2015-01-19T21:04:39.882Z</time>
      </trkpt>
      <trkpt lat="48.85842" lon="2.31323">
        <ele>85.1</ele>
        <time>2015-01-19T21:04:41.899Z</time>
      </trkpt>
      <trkpt lat="48.85841" lon="2.31329">
        <ele>85</ele>
        <time>2015-01-19T21:04:42.933Z</time>
      </trkpt>
      <trkpt lat="48.8584" lon="2.31341">
        <ele>84.7</ele>
        <time>2015-01-19T21:04:44.966Z</time>
      </trkpt>
      <trkpt lat="48.85839" lon="2.31347">
        <ele>84.7</ele>
        <time>2015-01-19T21:04:45.843Z</time>
      </trkpt>
      <trkpt lat="48.85837" lon="2.3136">
        <ele>84.7</ele>
        <time>2015-01-19T21:04:47.868Z</time>
      </trkpt>
      <trkpt lat="48.85836" lon="2.31366">
        <ele>84.8</ele>
        <time>2015-01-19T21:04:48.860Z</time>
      </trkpt>
      <trkpt lat="48.85835" lon="2.31377">
        <ele>84.6</ele>
        <time>2015-01-19T21:04:50.926Z</time>
      </trkpt>
      <trkpt lat="48.85834" lon="2.31384">
        <ele>84.2</ele>
        <time>2015-01-19T21:04:51.940Z</time>
      </trkpt>
      <trkpt lat="48.85832" lon="2.3139">
        <ele>83.9</ele>
        <time>2015-01-19T21:04:52.957Z</time>
      </trkpt>
      <trkpt lat="48.8583" lon="2.31396">
        <ele>83.9</ele>
        <time>2015-01-19T21:04:53.896Z</time>
      </trkpt>
      <trkpt lat="48.85828" lon="2.31408">
        <ele>84</ele>
        <time>2015-01-19T21:04:55.920Z</time>
      </trkpt>
      <trkpt lat="48.85827" lon="2.31413">
        <ele>84.1</ele>
        <time>2015-01-19T21:04:56.933Z</time>
      </trkpt>
      <trkpt lat="48.85824" lon="2.31424">
        <ele>84.6</ele>
        <time>2015-01-19T21:04:58.866Z</time>
      </trkpt>
      <trkpt lat="48.85823" lon="2.3143">
        <ele>85</ele>
        <time>2015-01-19T21:04:59.876Z</time>
      </trkpt>
      <trkpt lat="48.85821" lon="2.31439">
        <ele>85.4</ele>
        <time>2015-01-19T21:05:01.923Z</time>
      </trkpt>
      <trkpt lat="48.85818" lon="2.31443">
        <ele>85.6</ele>
        <time>2015-01-19T21:05:02.966Z</time>
      </trkpt>
      <trkpt lat="48.85813" lon="2.31452">
        <ele>86.1</ele>
        <time>2015-01-19T21:05:04.883Z</time>
      </trkpt>
      <trkpt lat="48.8581" lon="2.31455">
        <ele>86.2</ele>
        <time>2015-01-19T21:05:05.913Z</time>
      </trkpt>
      <trkpt lat="48.85806" lon="2.31464">
        <ele>86.1</ele>
        <time>2015-01-19T21:05:07.877Z</time>
      </trkpt>
      <trkpt lat="48.85805" lon="2.31468">
        <ele>86</ele>
        <time>2015-01-19T21:05:08.922Z</time>
      </trkpt>
      <trkpt lat="48.85803" lon="2.31479">
        <ele>86.3</ele>
        <time>2015-01-19T21:05:10.858Z</time>
      </trkpt>
      <trkpt lat="48.85802" lon="2.31483">
        <ele>86.4</ele>
        <time>2015-01-19T21:05:12.006Z</time>
      </trkpt>
      <trkpt lat="48.85799" lon="2.31492">
        <ele>86.5</ele>
        <time>2015-01-19T21:05:13.892Z</time>
      </trkpt>
      <trkpt lat="48.85798" lon="2.31496">
        <ele>86.5</ele>
        <time>2015-01-19T21:05:14.900Z</time>
      </trkpt>
      <trkpt lat="48.85792" lon="2.31506">
        <ele>86.9</ele>
        <time>2015-01-19T21:05:17.871Z</time>
      </trkpt>
      <trkpt lat="48.85787" lon="2.31508">
        <ele>86.5</ele>
        <time>2015-01-19T21:05:18.882Z</time>
      </trkpt>
      <trkpt lat="48.8578" lon="2.3151">
        <ele>85.7</ele>
        <time>2015-01-19T21:05:20.927Z</time>
      </trkpt>
      <trkpt lat="48.85778" lon="2.31511">
        <ele>85.7</ele>
        <time>2015-01-19T21:05:21.963Z</time>
      </trkpt>
      <trkpt lat="48.8577" lon="2.31511">
        <ele>85.8</ele>
        <time>2015-01-19T21:05:25.878Z</time>
      </trkpt>
      <trkpt lat="48.85764" lon="2.3151">
        <ele>85.1</ele>
        <time>2015-01-19T21:05:26.897Z</time>
      </trkpt>
      <trkpt lat="48.85758" lon="2.31509">
        <ele>85.1</ele>
        <time>2015-01-19T21:05:28.932Z</time>
      </trkpt>
      <trkpt lat="48.85754" lon="2.31508">
        <ele>85.1</ele>
        <time>2015-01-19T21:05:29.952Z</time>
      </trkpt>
      <trkpt lat="48.85747" lon="2.31505">
        <ele>85.1</ele>
        <time>2015-01-19T21:05:31.859Z</time>
      </trkpt>
      <trkpt lat="48.85744" lon="2.31504">
        <ele>85</ele>
        <time>2015-01-19T21:05:32.940Z</time>
      </trkpt>
      <trkpt lat="48.85737" lon="2.31502">
        <ele>85</ele>
        <time>2015-01-19T21:05:34.849Z</time>
      </trkpt>
      <trkpt lat="48.85733" lon="2.31501">
        <ele>84.9</ele>
        <time>2015-01-19T21:05:35.953Z</time>
      </trkpt>
      <trkpt lat="48.85725" lon="2.315">
        <ele>84.9</ele>
        <time>2015-01-19T21:05:37.857Z</time>
      </trkpt>
      <trkpt lat="48.85721" lon="2.31499">
        <ele>84.8</ele>
        <time>2015-01-19T21:05:38.910Z</time>
      </trkpt>
      <trkpt lat="48.85714" lon="2.31499">
        <ele>84.6</ele>
        <time>2015-01-19T21:05:40.850Z</time>
      </trkpt>
      <trkpt lat="48.8571" lon="2.31499">
        <ele>84.6</ele>
        <time>2015-01-19T21:05:41.923Z</time>
      </trkpt>
      <trkpt lat="48.85701" lon="2.31497">
        <ele>84.6</ele>
        <time>2015-01-19T21:05:43.885Z</time>
      </trkpt>
      <trkpt lat="48.85697" lon="2.31498">
        <ele>84.7</ele>
        <time>2015-01-19T21:05:44.912Z</time>
      </trkpt>
      <trkpt lat="48.8569" lon="2.31499">
        <ele>84.8</ele>
        <time>2015-01-19T21:05:46.850Z</time>
      </trkpt>
      <trkpt lat="48.85684" lon="2.315">
        <ele>84.1</ele>
        <time>2015-01-19T21:05:47.866Z</time>
      </trkpt>
      <trkpt lat="48.85679" lon="2.31501">
        <ele>83.6</ele>
        <time>2015-01-19T21:05:48.872Z</time>
      </trkpt>
      <trkpt lat="48.85674" lon="2.31502">
        <ele>83.3</ele>
        <time>2015-01-19T21:05:49.892Z</time>
      </trkpt>
      <trkpt lat="48.85666" lon="2.31503">
        <ele>83</ele>
        <time>2015-01-19T21:05:51.905Z</time>
      </trkpt>
      <trkpt lat="48.85662" lon="2.31504">
        <ele>83</ele>
        <time>2015-01-19T21:05:52.912Z</time>
      </trkpt>
      <trkpt lat="48.85655" lon="2.31503">
        <ele>83.1</ele>
        <time>2015-01-19T21:05:54.864Z</time>
      </trkpt>
      <trkpt lat="48.85651" lon="2.31502">
        <ele>83.2</ele>
        <time>2015-01-19T21:05:55.917Z</time>
      </trkpt>
      <trkpt lat="48.85643" lon="2.31501">
        <ele>83.6</ele>
        <time>2015-01-19T21:05:57.910Z</time>
      </trkpt>
      <trkpt lat="48.85637" lon="2.31501">
        <ele>83</ele>
        <time>2015-01-19T21:05:58.855Z</time>
      </trkpt>
      <trkpt lat="48.85628" lon="2.315">
        <ele>82.8</ele>
        <time>2015-01-19T21:06:00.878Z</time>
      </trkpt>
      <trkpt lat="48.85625" lon="2.31499">
        <ele>82.8</ele>
        <time>2015-01-19T21:06:01.888Z</time>
      </trkpt>
      <trkpt lat="48.85618" lon="2.315">
        <ele>82.5</ele>
        <time>2015-01-19T21:06:03.896Z</time>
      </trkpt>
      <trkpt lat="48.85615" lon="2.31502">
        <ele>82.3</ele>
        <time>2015-01-19T21:06:04.901Z</time>
      </trkpt>
      <trkpt lat="48.85613" lon="2.31513">
        <ele>82.7</ele>
        <time>2015-01-19T21:06:09.897Z</time>
      </trkpt>
      <trkpt lat="48.85613" lon="2.31516">
        <ele>82.7</ele>
        <time>2015-01-19T21:06:10.844Z</time>
      </trkpt>
      <trkpt lat="48.85611" lon="2.31528">
        <ele>83.2</ele>
        <time>2015-01-19T21:06:13.876Z</time>
      </trkpt>
      <trkpt lat="48.8561" lon="2.31533">
        <ele>83</ele>
        <time>2015-01-19T21:06:14.940Z</time>
      </trkpt>
      <trkpt lat="48.85606" lon="2.31542">
        <ele>83.1</ele>
        <time>2015-01-19T21:06:16.859Z</time>
      </trkpt>
      <trkpt lat="48.85604" lon="2.31547">
        <ele>83.2</ele>
        <time>2015-01-19T21:06:17.898Z</time>
      </trkpt>
      <trkpt lat="48.856" lon="2.31556">
        <ele>83.3</ele>
        <time>2015-01-19T21:06:19.895Z</time>
      </trkpt>
      <trkpt lat="48.85598" lon="2.31562">
        <ele>83.3</ele>
        <time>2015-01-19T21:06:20.916Z</time>
      </trkpt>
      <trkpt lat="48.85596" lon="2.31572">
        <ele>83.5</ele>
        <time>2015-01-19T21:06:22.944Z</time>
      </trkpt>
      <trkpt lat="48.85594" lon="2.31576">
        <ele>83.4</ele>
        <time>2015-01-19T21:06:23.843Z</time>
      </trkpt>
      <trkpt lat="48.85591" lon="2.31584">
        <ele>83.3</ele>
        <time>2015-01-19T21:06:25.903Z</time>
      </trkpt>
      <trkpt lat="48.85589" lon="2.31589">
        <ele>83.3</ele>
        <time>2015-01-19T21:06:26.966Z</time>
      </trkpt>
      <trkpt lat="48.85586" lon="2.31598">
        <ele>83.4</ele>
        <time>2015-01-19T21:06:28.835Z</time>
      </trkpt>
      <trkpt lat="48.85584" lon="2.31603">
        <ele>83.4</ele>
        <time>2015-01-19T21:06:29.851Z</time>
      </trkpt>
      <trkpt lat="48.85582" lon="2.31615">
        <ele>83.3</ele>
        <time>2015-01-19T21:06:31.870Z</time>
      </trkpt>
      <trkpt lat="48.8558" lon="2.31621">
        <ele>83.3</ele>
        <time>2015-01-19T21:06:32.903Z</time>
      </trkpt>
      <trkpt lat="48.85578" lon="2.31629">
        <ele>83.3</ele>
        <time>2015-01-19T21:06:33.835Z</time>
      </trkpt>
      <trkpt lat="48.85578" lon="2.31638">
        <ele>83.4</ele>
        <time>2015-01-19T21:06:34.848Z</time>
      </trkpt>
      <trkpt lat="48.85577" lon="2.31645">
        <ele>83.3</ele>
        <time>2015-01-19T21:06:35.876Z</time>
      </trkpt>
      <trkpt lat="48.85575" lon="2.31653">
        <ele>83.3</ele>
        <time>2015-01-19T21:06:36.886Z</time>
      </trkpt>
      <trkpt lat="48.85574" lon="2.3166">
        <ele>83.2</ele>
        <time>2015-01-19T21:06:37.910Z</time>
      </trkpt>
      <trkpt lat="48.85573" lon="2.31668">
        <ele>83.1</ele>
        <time>2015-01-19T21:06:38.912Z</time>
      </trkpt>
      <trkpt lat="48.85572" lon="2.31676">
        <ele>82.9</ele>
        <time>2015-01-19T21:06:39.827Z</time>
      </trkpt>
      <trkpt lat="48.8557" lon="2.31684">
        <ele>82.8</ele>
        <time>2015-01-19T21:06:40.832Z</time>
      </trkpt>
      <trkpt lat="48.85568" lon="2.31692">
        <ele>82.7</ele>
        <time>2015-01-19T21:06:41.843Z</time>
      </trkpt>
      <trkpt lat="48.85566" lon="2.31701">
        <ele>82.6</ele>
        <time>2015-01-19T21:06:42.849Z</time>
      </trkpt>
      <trkpt lat="48.85564" lon="2.3171">
        <ele>82.4</ele>
        <time>2015-01-19T21:06:43.871Z</time>
      </trkpt>
      <trkpt lat="48.85563" lon="2.3172">
        <ele>82.3</ele>
        <time>2015-01-19T21:06:44.884Z</time>
      </trkpt>
      <trkpt lat="48.85561" lon="2.3173">
        <ele>82.2</ele>
        <time>2015-01-19T21:06:45.893Z</time>
      </trkpt>
      <trkpt lat="48.8556" lon="2.3174">
        <ele>82</ele>
        <time>2015-01-19T21:06:46.902Z</time>
      </trkpt>
      <trkpt lat="48.85558" lon="2.31749">
        <ele>81.9</ele>
        <time>2015-01-19T21:06:47.908Z</time>
      </trkpt>
      <trkpt lat="48.85556" lon="2.31757">
        <ele>81.8</ele>
        <time>2015-01-19T21:06:48.912Z</time>
      </trkpt>
      <trkpt lat="48.85553" lon="2.31766">
        <ele>81.7</ele>
        <time>2015-01-19T21:06:49.880Z</time>
      </trkpt>
      <trkpt lat="48.85553" lon="2.31778">
        <ele>81.5</ele>
        <time>2015-01-19T21:06:50.885Z</time>
      </trkpt>
      <trkpt lat="48.85551" lon="2.31789">
        <ele>81.4</ele>
        <time>2015-01-19T21:06:51.895Z</time>
      </trkpt>
      <trkpt lat="48.85547" lon="2.31808">
        <ele>81</ele>
        <time>2015-01-19T21:06:53.927Z</time>
      </trkpt>
      <trkpt lat="48.85522" lon="2.31919">
        <ele>79.8</ele>
        <time>2015-01-19T21:07:04.824Z</time>
      </trkpt>
      <trkpt lat="48.85519" lon="2.31931">
        <ele>79.6</ele>
        <time>2015-01-19T21:07:05.822Z</time>
      </trkpt>
      <trkpt lat="48.85365" lon="2.32631">
        <ele>80.4</ele>
        <time>2015-01-19T21:08:32.906Z</time>
      </trkpt>
      <trkpt lat="48.85369" lon="2.32644">
        <ele>80.7</ele>
        <time>2015-01-19T21:08:53.886Z</time>
      </trkpt>
      <trkpt lat="48.85361" lon="2.32647">
        <ele>80.6</ele>
        <time>2015-01-19T21:08:59.823Z</time>
      </trkpt>
      <trkpt lat="48.85359" lon="2.32647">
        <ele>80.6</ele>
        <time>2015-01-19T21:09:00.872Z</time>
      </trkpt>
      <trkpt lat="48.85357" lon="2.32656">
        <ele>79.7</ele>
        <time>2015-01-19T21:09:04.805Z</time>
      </trkpt>
      <trkpt lat="48.85353" lon="2.32658">
        <ele>80</ele>
        <time>2015-01-19T21:09:05.818Z</time>
      </trkpt>
      <trkpt lat="48.8524" lon="2.32698">
        <ele>81.2</ele>
        <time>2015-01-19T21:10:00.843Z</time>
      </trkpt>
      <trkpt lat="48.85236" lon="2.32696">
        <ele>81.3</ele>
        <time>2015-01-19T21:10:01.854Z</time>
      </trkpt>
      <trkpt lat="48.85231" lon="2.32693">
        <ele>81.4</ele>
        <time>2015-01-19T21:10:02.904Z</time>
      </trkpt>
      <trkpt lat="48.85225" lon="2.32687">
        <ele>81.7</ele>
        <time>2015-01-19T21:10:05.876Z</time>
      </trkpt>
      <trkpt lat="48.8522" lon="2.32686">
        <ele>81.3</ele>
        <time>2015-01-19T21:10:06.885Z</time>
      </trkpt>
      <trkpt lat="48.85213" lon="2.32683">
        <ele>81</ele>
        <time>2015-01-19T21:10:10.833Z</time>
      </trkpt>
      <trkpt lat="48.85211" lon="2.32683">
        <ele>80.9</ele>
        <time>2015-01-19T21:10:11.860Z</time>
      </trkpt>
      <trkpt lat="48.85203" lon="2.32683">
        <ele>80.6</ele>
        <time>2015-01-19T21:10:13.899Z</time>
      </trkpt>
      <trkpt lat="48.852" lon="2.32682">
        <ele>80.7</ele>
        <time>2015-01-19T21:10:15Z</time>
      </trkpt>
      <trkpt lat="48.85194" lon="2.32682">
        <ele>80.7</ele>
        <time>2015-01-19T21:10:16.836Z</time>
      </trkpt>
      <trkpt lat="48.8519" lon="2.32683">
        <ele>80.5</ele>
        <time>2015-01-19T21:10:17.859Z</time>
      </trkpt>
      <trkpt lat="48.85183" lon="2.32684">
        <ele>80.7</ele>
        <time>2015-01-19T21:10:19.799Z</time>
      </trkpt>
      <trkpt lat="48.85181" lon="2.32685">
        <ele>80.7</ele>
        <time>2015-01-19T21:10:20.879Z</time>
      </trkpt>
      <trkpt lat="48.85176" lon="2.32685">
        <ele>81.7</ele>
        <time>2015-01-19T21:10:21.898Z</time>
      </trkpt>
      <trkpt lat="48.85171" lon="2.32686">
        <ele>82.8</ele>
        <time>2015-01-19T21:10:22.911Z</time>
      </trkpt>
      <trkpt lat="48.85165" lon="2.32691">
        <ele>84.7</ele>
        <time>2015-01-19T21:10:24.835Z</time>
      </trkpt>
      <trkpt lat="48.85163" lon="2.32696">
        <ele>85</ele>
        <time>2015-01-19T21:10:25.848Z</time>
      </trkpt>
      <trkpt lat="48.85158" lon="2.32706">
        <ele>85.1</ele>
        <time>2015-01-19T21:10:27.888Z</time>
      </trkpt>
      <trkpt lat="48.85159" lon="2.32713">
        <ele>84</ele>
        <time>2015-01-19T21:10:28.979Z</time>
      </trkpt>
      <trkpt lat="48.85157" lon="2.32725">
        <ele>83.2</ele>
        <time>2015-01-19T21:10:30.843Z</time>
      </trkpt>
      <trkpt lat="48.85157" lon="2.32732">
        <ele>82.7</ele>
        <time>2015-01-19T21:10:31.874Z</time>
      </trkpt>
      <trkpt lat="48.85157" lon="2.32739">
        <ele>82.2</ele>
        <time>2015-01-19T21:10:32.901Z</time>
      </trkpt>
      <trkpt lat="48.85158" lon="2.32747">
        <ele>81.4</ele>
        <time>2015-01-19T21:10:33.960Z</time>
      </trkpt>
      <trkpt lat="48.85158" lon="2.32754">
        <ele>81.1</ele>
        <time>2015-01-19T21:10:34.903Z</time>
      </trkpt>
      <trkpt lat="48.85159" lon="2.32761">
        <ele>80.6</ele>
        <time>2015-01-19T21:10:35.918Z</time>
      </trkpt>
      <trkpt lat="48.85159" lon="2.32768">
        <ele>80.4</ele>
        <time>2015-01-19T21:10:36.826Z</time>
      </trkpt>
      <trkpt lat="48.8516" lon="2.32775">
        <ele>80.1</ele>
        <time>2015-01-19T21:10:37.846Z</time>
      </trkpt>
      <trkpt lat="48.85161" lon="2.32783">
        <ele>79.9</ele>
        <time>2015-01-19T21:10:38.882Z</time>
      </trkpt>
      <trkpt lat="48.85162" lon="2.3279">
        <ele>79.8</ele>
        <time>2015-01-19T21:10:39.895Z</time>
      </trkpt>
      <trkpt lat="48.85163" lon="2.32798">
        <ele>79.6</ele>
        <time>2015-01-19T21:10:40.908Z</time>
      </trkpt>
      <trkpt lat="48.85165" lon="2.32805">
        <ele>79.5</ele>
        <time>2015-01-19T21:10:41.915Z</time>
      </trkpt>
      <trkpt lat="48.85166" lon="2.32818">
        <ele>79.4</ele>
        <time>2015-01-19T21:10:43.818Z</time>
      </trkpt>
      <trkpt lat="48.85167" lon="2.32824">
        <ele>79.3</ele>
        <time>2015-01-19T21:10:44.856Z</time>
      </trkpt>
      <trkpt lat="48.85169" lon="2.32831">
        <ele>79.2</ele>
        <time>2015-01-19T21:10:45.863Z</time>
      </trkpt>
      <trkpt lat="48.85173" lon="2.32837">
        <ele>79.1</ele>
        <time>2015-01-19T21:10:46.871Z</time>
      </trkpt>
      <trkpt lat="48.85175" lon="2.32843">
        <ele>79.1</ele>
        <time>2015-01-19T21:10:47.881Z</time>
      </trkpt>
      <trkpt lat="48.85176" lon="2.3285">
        <ele>79.2</ele>
        <time>2015-01-19T21:10:48.898Z</time>
      </trkpt>
      <trkpt lat="48.85178" lon="2.32856">
        <ele>79.2</ele>
        <time>2015-01-19T21:10:49.903Z</time>
      </trkpt>
      <trkpt lat="48.85181" lon="2.32863">
        <ele>79.1</ele>
        <time>2015-01-19T21:10:50.954Z</time>
      </trkpt>
      <trkpt lat="48.85182" lon="2.3287">
        <ele>79</ele>
        <time>2015-01-19T21:10:51.838Z</time>
      </trkpt>
      <trkpt lat="48.85185" lon="2.32876">
        <ele>79</ele>
        <time>2015-01-19T21:10:52.835Z</time>
      </trkpt>
      <trkpt lat="48.85186" lon="2.32883">
        <ele>78.9</ele>
        <time>2015-01-19T21:10:53.842Z</time>
      </trkpt>
      <trkpt lat="48.85187" lon="2.32889">
        <ele>78.7</ele>
        <time>2015-01-19T21:10:54.850Z</time>
      </trkpt>
      <trkpt lat="48.85189" lon="2.32902">
        <ele>78.5</ele>
        <time>2015-01-19T21:10:56.934Z</time>
      </trkpt>
      <trkpt lat="48.8519" lon="2.32909">
        <ele>78.6</ele>
        <time>2015-01-19T21:10:57.910Z</time>
      </trkpt>
      <trkpt lat="48.85192" lon="2.32916">
        <ele>78.7</ele>
        <time>2015-01-19T21:10:58.965Z</time>
      </trkpt>
      <trkpt lat="48.85194" lon="2.32922">
        <ele>78.7</ele>
        <time>2015-01-19T21:10:59.910Z</time>
      </trkpt>
      <trkpt lat="48.85198" lon="2.32934">
        <ele>79.1</ele>
        <time>2015-01-19T21:11:01.920Z</time>
      </trkpt>
      <trkpt lat="48.852" lon="2.3294">
        <ele>79.3</ele>
        <time>2015-01-19T21:11:02.971Z</time>
      </trkpt>
      <trkpt lat="48.852" lon="2.32949">
        <ele>79.6</ele>
        <time>2015-01-19T21:11:04.839Z</time>
      </trkpt>
      <trkpt lat="48.85202" lon="2.32953">
        <ele>79.8</ele>
        <time>2015-01-19T21:11:05.850Z</time>
      </trkpt>
      <trkpt lat="48.85199" lon="2.32964">
        <ele>80.6</ele>
        <time>2015-01-19T21:11:07.870Z</time>
      </trkpt>
      <trkpt lat="48.85197" lon="2.32967">
        <ele>80.9</ele>
        <time>2015-01-19T21:11:08.885Z</time>
      </trkpt>
      <trkpt lat="48.8519" lon="2.32959">
        <ele>82.7</ele>
        <time>2015-01-19T21:11:14.884Z</time>
      </trkpt>
      <trkpt lat="48.8519" lon="2.32957">
        <ele>82.9</ele>
        <time>2015-01-19T21:11:15.921Z</time>
      </trkpt>
      <trkpt lat="48.85185" lon="2.32949">
        <ele>83</ele>
        <time>2015-01-19T21:11:18.887Z</time>
      </trkpt>
      <trkpt lat="48.85183" lon="2.32946">
        <ele>83</ele>
        <time>2015-01-19T21:11:19.915Z</time>
      </trkpt>
      <trkpt lat="48.85178" lon="2.32939">
        <ele>83</ele>
        <time>2015-01-19T21:11:21.864Z</time>
      </trkpt>
      <trkpt lat="48.85172" lon="2.32933">
        <ele>83</ele>
        <time>2015-01-19T21:11:23.917Z</time>
      </trkpt>
      <trkpt lat="48.85134" lon="2.32907">
        <ele>82.9</ele>
        <time>2015-01-19T21:11:33.800Z</time>
      </trkpt>
      <trkpt lat="48.8513" lon="2.32897">
        <ele>82.9</ele>
        <time>2015-01-19T21:11:35.834Z</time>
      </trkpt>
      <trkpt lat="48.85126" lon="2.32892">
        <ele>82.8</ele>
        <time>2015-01-19T21:11:36.845Z</time>
      </trkpt>
      <trkpt lat="48.85121" lon="2.32885">
        <ele>82.7</ele>
        <time>2015-01-19T21:11:38.879Z</time>
      </trkpt>
      <trkpt lat="48.85118" lon="2.32881">
        <ele>82.6</ele>
        <time>2015-01-19T21:11:39.894Z</time>
      </trkpt>
      <trkpt lat="48.85115" lon="2.32876">
        <ele>82.6</ele>
        <time>2015-01-19T21:11:40.782Z</time>
      </trkpt>
      <trkpt lat="48.8511" lon="2.32867">
        <ele>82.6</ele>
        <time>2015-01-19T21:11:42.818Z</time>
      </trkpt>
      <trkpt lat="48.85104" lon="2.32859">
        <ele>82.5</ele>
        <time>2015-01-19T21:11:44.824Z</time>
      </trkpt>
      <trkpt lat="48.85101" lon="2.32855">
        <ele>82.4</ele>
        <time>2015-01-19T21:11:45.823Z</time>
      </trkpt>
      <trkpt lat="48.85096" lon="2.32845">
        <ele>82.2</ele>
        <time>2015-01-19T21:11:48.927Z</time>
      </trkpt>
      <trkpt lat="48.85093" lon="2.32841">
        <ele>82.2</ele>
        <time>2015-01-19T21:11:49.821Z</time>
      </trkpt>
      <trkpt lat="48.85088" lon="2.32833">
        <ele>82.3</ele>
        <time>2015-01-19T21:11:51.866Z</time>
      </trkpt>
      <trkpt lat="48.85085" lon="2.32829">
        <ele>82.4</ele>
        <time>2015-01-19T21:11:52.919Z</time>
      </trkpt>
      <trkpt lat="48.85083" lon="2.32826">
        <ele>82.4</ele>
        <time>2015-01-19T21:11:53.807Z</time>
      </trkpt>
      <trkpt lat="48.85079" lon="2.32819">
        <ele>82.1</ele>
        <time>2015-01-19T21:11:54.815Z</time>
      </trkpt>
      <trkpt lat="48.85073" lon="2.32809">
        <ele>81.3</ele>
        <time>2015-01-19T21:11:55.824Z</time>
      </trkpt>
      <trkpt lat="48.85068" lon="2.32804">
        <ele>80.9</ele>
        <time>2015-01-19T21:11:56.842Z</time>
      </trkpt>
      <trkpt lat="48.85062" lon="2.32798">
        <ele>80.6</ele>
        <time>2015-01-19T21:11:57.854Z</time>
      </trkpt>
      <trkpt lat="48.85057" lon="2.32796">
        <ele>80.5</ele>
        <time>2015-01-19T21:11:58.863Z</time>
      </trkpt>
      <trkpt lat="48.85049" lon="2.32793">
        <ele>80.4</ele>
        <time>2015-01-19T21:12:00.809Z</time>
      </trkpt>
      <trkpt lat="48.85046" lon="2.32795">
        <ele>80.5</ele>
        <time>2015-01-19T21:12:01.815Z</time>
      </trkpt>
      <trkpt lat="48.8504" lon="2.32799">
        <ele>80.5</ele>
        <time>2015-01-19T21:12:03.847Z</time>
      </trkpt>
      <trkpt lat="48.85037" lon="2.32802">
        <ele>80.3</ele>
        <time>2015-01-19T21:12:04.860Z</time>
      </trkpt>
      <trkpt lat="48.85032" lon="2.32807">
        <ele>80.3</ele>
        <time>2015-01-19T21:12:06.815Z</time>
      </trkpt>
      <trkpt lat="48.85021" lon="2.32818">
        <ele>80.4</ele>
        <time>2015-01-19T21:12:10.886Z</time>
      </trkpt>
      <trkpt lat="48.85019" lon="2.32819">
        <ele>80.5</ele>
        <time>2015-01-19T21:12:11.805Z</time>
      </trkpt>
      <trkpt lat="48.84992" lon="2.32823">
        <ele>80.3</ele>
        <time>2015-01-19T21:12:20.852Z</time>
      </trkpt>
      <trkpt lat="48.84986" lon="2.32822">
        <ele>80.1</ele>
        <time>2015-01-19T21:12:21.885Z</time>
      </trkpt>
      <trkpt lat="48.8498" lon="2.32822">
        <ele>79.9</ele>
        <time>2015-01-19T21:12:22.917Z</time>
      </trkpt>
      <trkpt lat="48.84974" lon="2.32824">
        <ele>79.7</ele>
        <time>2015-01-19T21:12:23.821Z</time>
      </trkpt>
      <trkpt lat="48.84968" lon="2.32826">
        <ele>79.6</ele>
        <time>2015-01-19T21:12:24.827Z</time>
      </trkpt>
      <trkpt lat="48.84963" lon="2.32827">
        <ele>79.5</ele>
        <time>2015-01-19T21:12:25.839Z</time>
      </trkpt>
      <trkpt lat="48.84957" lon="2.3283">
        <ele>79.3</ele>
        <time>2015-01-19T21:12:26.865Z</time>
      </trkpt>
      <trkpt lat="48.84949" lon="2.32835">
        <ele>79</ele>
        <time>2015-01-19T21:12:28.903Z</time>
      </trkpt>
      <trkpt lat="48.84944" lon="2.32839">
        <ele>78.8</ele>
        <time>2015-01-19T21:12:29.823Z</time>
      </trkpt>
      <trkpt lat="48.8494" lon="2.32841">
        <ele>78.7</ele>
        <time>2015-01-19T21:12:30.875Z</time>
      </trkpt>
      <trkpt lat="48.84931" lon="2.3284">
        <ele>79.9</ele>
        <time>2015-01-19T21:12:31.889Z</time>
      </trkpt>
      <trkpt lat="48.84924" lon="2.32842">
        <ele>80</ele>
        <time>2015-01-19T21:12:32.898Z</time>
      </trkpt>
      <trkpt lat="48.84921" lon="2.32847">
        <ele>80.2</ele>
        <time>2015-01-19T21:12:33.911Z</time>
      </trkpt>
      <trkpt lat="48.84918" lon="2.32854">
        <ele>80.5</ele>
        <time>2015-01-19T21:12:34.822Z</time>
      </trkpt>
      <trkpt lat="48.84914" lon="2.3286">
        <ele>80.7</ele>
        <time>2015-01-19T21:12:35.817Z</time>
      </trkpt>
      <trkpt lat="48.84909" lon="2.32867">
        <ele>81.2</ele>
        <time>2015-01-19T21:12:37.835Z</time>
      </trkpt>
      <trkpt lat="48.84906" lon="2.32871">
        <ele>81.2</ele>
        <time>2015-01-19T21:12:38.913Z</time>
      </trkpt>
      <trkpt lat="48.84903" lon="2.32875">
        <ele>81.2</ele>
        <time>2015-01-19T21:12:39.800Z</time>
      </trkpt>
      <trkpt lat="48.84899" lon="2.32879">
        <ele>81.4</ele>
        <time>2015-01-19T21:12:40.822Z</time>
      </trkpt>
      <trkpt lat="48.84895" lon="2.32883">
        <ele>81.5</ele>
        <time>2015-01-19T21:12:41.820Z</time>
      </trkpt>
      <trkpt lat="48.84891" lon="2.32885">
        <ele>81.6</ele>
        <time>2015-01-19T21:12:42.823Z</time>
      </trkpt>
      <trkpt lat="48.84887" lon="2.32887">
        <ele>81.8</ele>
        <time>2015-01-19T21:12:43.867Z</time>
      </trkpt>
      <trkpt lat="48.84882" lon="2.3289">
        <ele>81.9</ele>
        <time>2015-01-19T21:12:44.888Z</time>
      </trkpt>
      <trkpt lat="48.84876" lon="2.32892">
        <ele>82</ele>
        <time>2015-01-19T21:12:45.792Z</time>
      </trkpt>
      <trkpt lat="48.84872" lon="2.32895">
        <ele>82.1</ele>
        <time>2015-01-19T21:12:46.805Z</time>
      </trkpt>
      <trkpt lat="48.84868" lon="2.32898">
        <ele>82.1</ele>
        <time>2015-01-19T21:12:47.832Z</time>
      </trkpt>
      <trkpt lat="48.84863" lon="2.32903">
        <ele>82</ele>
        <time>2015-01-19T21:12:48.843Z</time>
      </trkpt>
      <trkpt lat="48.84858" lon="2.32906">
        <ele>82</ele>
        <time>2015-01-19T21:12:49.806Z</time>
      </trkpt>
      <trkpt lat="48.84853" lon="2.32908">
        <ele>82.1</ele>
        <time>2015-01-19T21:12:50.846Z</time>
      </trkpt>
      <trkpt lat="48.84848" lon="2.32911">
        <ele>82.2</ele>
        <time>2015-01-19T21:12:51.855Z</time>
      </trkpt>
      <trkpt lat="48.84843" lon="2.32915">
        <ele>82.2</ele>
        <time>2015-01-19T21:12:52.863Z</time>
      </trkpt>
      <trkpt lat="48.84793" lon="2.32947">
        <ele>82.6</ele>
        <time>2015-01-19T21:13:02.887Z</time>
      </trkpt>
      <trkpt lat="48.84786" lon="2.3295">
        <ele>82.5</ele>
        <time>2015-01-19T21:13:05.385Z</time>
      </trkpt>
      <trkpt lat="48.84784" lon="2.32952">
        <ele>82.7</ele>
        <time>2015-01-19T21:13:05.826Z</time>
      </trkpt>
      <trkpt lat="48.84777" lon="2.32956">
        <ele>85.4</ele>
        <time>2015-01-19T21:13:11.820Z</time>
      </trkpt>
      <trkpt lat="48.84775" lon="2.32958">
        <ele>85.7</ele>
        <time>2015-01-19T21:13:12.812Z</time>
      </trkpt>
      <trkpt lat="48.84769" lon="2.32965">
        <ele>86.2</ele>
        <time>2015-01-19T21:13:15.918Z</time>
      </trkpt>
      <trkpt lat="48.84767" lon="2.32968">
        <ele>86.3</ele>
        <time>2015-01-19T21:13:16.835Z</time>
      </trkpt>
      <trkpt lat="48.84759" lon="2.32975">
        <ele>86.3</ele>
        <time>2015-01-19T21:13:18.864Z</time>
      </trkpt>
      <trkpt lat="48.84754" lon="2.32978">
        <ele>86.3</ele>
        <time>2015-01-19T21:13:19.878Z</time>
      </trkpt>
      <trkpt lat="48.84692" lon="2.33008">
        <ele>86.8</ele>
        <time>2015-01-19T21:13:30.901Z</time>
      </trkpt>
      <trkpt lat="48.84682" lon="2.33013">
        <ele>87</ele>
        <time>2015-01-19T21:13:31.934Z</time>
      </trkpt>
      <trkpt lat="48.84673" lon="2.3302">
        <ele>87</ele>
        <time>2015-01-19T21:13:32.947Z</time>
      </trkpt>
      <trkpt lat="48.84666" lon="2.33025">
        <ele>87.2</ele>
        <time>2015-01-19T21:13:33.831Z</time>
      </trkpt>
      <trkpt lat="48.8465" lon="2.33035">
        <ele>87.2</ele>
        <time>2015-01-19T21:13:36.908Z</time>
      </trkpt>
      <trkpt lat="48.84648" lon="2.33042">
        <ele>87.2</ele>
        <time>2015-01-19T21:13:37.820Z</time>
      </trkpt>
      <trkpt lat="48.84643" lon="2.33048">
        <ele>87.3</ele>
        <time>2015-01-19T21:13:38.862Z</time>
      </trkpt>
      <trkpt lat="48.84637" lon="2.33053">
        <ele>87.2</ele>
        <time>2015-01-19T21:13:39.905Z</time>
      </trkpt>
      <trkpt lat="48.84631" lon="2.33057">
        <ele>87.2</ele>
        <time>2015-01-19T21:13:40.919Z</time>
      </trkpt>
      <trkpt lat="48.84626" lon="2.33061">
        <ele>87.2</ele>
        <time>2015-01-19T21:13:41.852Z</time>
      </trkpt>
      <trkpt lat="48.8462" lon="2.33066">
        <ele>87.3</ele>
        <time>2015-01-19T21:13:42.840Z</time>
      </trkpt>
      <trkpt lat="48.84615" lon="2.33071">
        <ele>87.4</ele>
        <time>2015-01-19T21:13:43.873Z</time>
      </trkpt>
      <trkpt lat="48.84608" lon="2.33076">
        <ele>87.5</ele>
        <time>2015-01-19T21:13:44.887Z</time>
      </trkpt>
      <trkpt lat="48.84595" lon="2.33088">
        <ele>87.5</ele>
        <time>2015-01-19T21:13:46.822Z</time>
      </trkpt>
      <trkpt lat="48.84543" lon="2.33188">
        <ele>91.3</ele>
        <time>2015-01-19T21:13:59.837Z</time>
      </trkpt>
      <trkpt lat="48.84537" lon="2.33192">
        <ele>90.9</ele>
        <time>2015-01-19T21:14:00.816Z</time>
      </trkpt>
      <trkpt lat="48.84531" lon="2.33197">
        <ele>90.8</ele>
        <time>2015-01-19T21:14:01.816Z</time>
      </trkpt>
      <trkpt lat="48.84489" lon="2.33219">
        <ele>89.1</ele>
        <time>2015-01-19T21:14:08.845Z</time>
      </trkpt>
      <trkpt lat="48.84482" lon="2.33226">
        <ele>88.7</ele>
        <time>2015-01-19T21:14:11.813Z</time>
      </trkpt>
      <trkpt lat="48.8448" lon="2.33228">
        <ele>88.3</ele>
        <time>2015-01-19T21:14:12.807Z</time>
      </trkpt>
      <trkpt lat="48.84477" lon="2.33238">
        <ele>84</ele>
        <time>2015-01-19T21:14:15.879Z</time>
      </trkpt>
      <trkpt lat="48.84473" lon="2.33242">
        <ele>84.6</ele>
        <time>2015-01-19T21:14:16.823Z</time>
      </trkpt>
      <trkpt lat="48.84468" lon="2.33247">
        <ele>85</ele>
        <time>2015-01-19T21:14:17.824Z</time>
      </trkpt>
      <trkpt lat="48.84465" lon="2.33251">
        <ele>85.2</ele>
        <time>2015-01-19T21:14:18.832Z</time>
      </trkpt>
      <trkpt lat="48.84457" lon="2.33257">
        <ele>85.8</ele>
        <time>2015-01-19T21:14:20.933Z</time>
      </trkpt>
      <trkpt lat="48.84455" lon="2.3326">
        <ele>86.1</ele>
        <time>2015-01-19T21:14:21.827Z</time>
      </trkpt>
      <trkpt lat="48.84448" lon="2.33267">
        <ele>86.6</ele>
        <time>2015-01-19T21:14:23.805Z</time>
      </trkpt>
      <trkpt lat="48.84447" lon="2.33271">
        <ele>87</ele>
        <time>2015-01-19T21:14:24.862Z</time>
      </trkpt>
      <trkpt lat="48.8444" lon="2.33277">
        <ele>87.3</ele>
        <time>2015-01-19T21:14:26.918Z</time>
      </trkpt>
      <trkpt lat="48.84437" lon="2.33282">
        <ele>87.9</ele>
        <time>2015-01-19T21:14:27.810Z</time>
      </trkpt>
      <trkpt lat="48.84431" lon="2.33291">
        <ele>89.1</ele>
        <time>2015-01-19T21:14:30.652Z</time>
      </trkpt>
      <trkpt lat="48.84428" lon="2.33295">
        <ele>89.7</ele>
        <time>2015-01-19T21:14:30.806Z</time>
      </trkpt>
      <trkpt lat="48.84432" lon="2.33305">
        <ele>90.1</ele>
        <time>2015-01-19T21:14:34.870Z</time>
      </trkpt>
      <trkpt lat="48.84433" lon="2.33308">
        <ele>90.2</ele>
        <time>2015-01-19T21:14:34.945Z</time>
      </trkpt>
      <trkpt lat="48.84435" lon="2.3332">
        <ele>88.8</ele>
        <time>2015-01-19T21:14:37.917Z</time>
      </trkpt>
      <trkpt lat="48.84434" lon="2.33326">
        <ele>88.6</ele>
        <time>2015-01-19T21:14:39.047Z</time>
      </trkpt>
      <trkpt lat="48.84434" lon="2.33336">
        <ele>89</ele>
        <time>2015-01-19T21:14:40.873Z</time>
      </trkpt>
      <trkpt lat="48.84434" lon="2.33341">
        <ele>89.3</ele>
        <time>2015-01-19T21:14:41.889Z</time>
      </trkpt>
      <trkpt lat="48.84433" lon="2.3335">
        <ele>89.8</ele>
        <time>2015-01-19T21:14:43.846Z</time>
      </trkpt>
      <trkpt lat="48.84432" lon="2.33355">
        <ele>90.2</ele>
        <time>2015-01-19T21:14:44.890Z</time>
      </trkpt>
      <trkpt lat="48.84431" lon="2.33368">
        <ele>90.1</ele>
        <time>2015-01-19T21:14:47.823Z</time>
      </trkpt>
      <trkpt lat="48.84429" lon="2.33372">
        <ele>89.9</ele>
        <time>2015-01-19T21:14:48.812Z</time>
      </trkpt>
      <trkpt lat="48.8443" lon="2.33383">
        <ele>90.4</ele>
        <time>2015-01-19T21:14:50.852Z</time>
      </trkpt>
      <trkpt lat="48.84431" lon="2.33388">
        <ele>90.5</ele>
        <time>2015-01-19T21:14:51.862Z</time>
      </trkpt>
      <trkpt lat="48.84431" lon="2.33399">
        <ele>91</ele>
        <time>2015-01-19T21:14:53.883Z</time>
      </trkpt>
      <trkpt lat="48.84431" lon="2.33405">
        <ele>91</ele>
        <time>2015-01-19T21:14:54.895Z</time>
      </trkpt>
      <trkpt lat="48.84431" lon="2.33417">
        <ele>91.5</ele>
        <time>2015-01-19T21:14:56.850Z</time>
      </trkpt>
      <trkpt lat="48.84429" lon="2.33423">
        <ele>91.9</ele>
        <time>2015-01-19T21:14:57.856Z</time>
      </trkpt>
      <trkpt lat="48.84428" lon="2.3343">
        <ele>92.3</ele>
        <time>2015-01-19T21:14:58.881Z</time>
      </trkpt>
      <trkpt lat="48.84427" lon="2.33436">
        <ele>92.3</ele>
        <time>2015-01-19T21:14:59.892Z</time>
      </trkpt>
      <trkpt lat="48.84425" lon="2.33448">
        <ele>91.9</ele>
        <time>2015-01-19T21:15:01.819Z</time>
      </trkpt>
      <trkpt lat="48.84423" lon="2.33454">
        <ele>92.1</ele>
        <time>2015-01-19T21:15:02.900Z</time>
      </trkpt>
      <trkpt lat="48.84424" lon="2.33466">
        <ele>92</ele>
        <time>2015-01-19T21:15:05.429Z</time>
      </trkpt>
      <trkpt lat="48.84423" lon="2.33473">
        <ele>91.9</ele>
        <time>2015-01-19T21:15:06.003Z</time>
      </trkpt>
      <trkpt lat="48.84422" lon="2.33485">
        <ele>92.1</ele>
        <time>2015-01-19T21:15:07.813Z</time>
      </trkpt>
      <trkpt lat="48.84421" lon="2.33493">
        <ele>93</ele>
        <time>2015-01-19T21:15:08.829Z</time>
      </trkpt>
      <trkpt lat="48.8442" lon="2.335">
        <ele>92.9</ele>
        <time>2015-01-19T21:15:10.575Z</time>
      </trkpt>
      <trkpt lat="48.84419" lon="2.33508">
        <ele>92.5</ele>
        <time>2015-01-19T21:15:10.850Z</time>
      </trkpt>
      <trkpt lat="48.8442" lon="2.33515">
        <ele>93.2</ele>
        <time>2015-01-19T21:15:11.795Z</time>
      </trkpt>
      <trkpt lat="48.84421" lon="2.33522">
        <ele>93.4</ele>
        <time>2015-01-19T21:15:12.899Z</time>
      </trkpt>
      <trkpt lat="48.8442" lon="2.33528">
        <ele>93.7</ele>
        <time>2015-01-19T21:15:13.923Z</time>
      </trkpt>
      <trkpt lat="48.84419" lon="2.33536">
        <ele>93.9</ele>
        <time>2015-01-19T21:15:14.929Z</time>
      </trkpt>
      <trkpt lat="48.84417" lon="2.33543">
        <ele>94</ele>
        <time>2015-01-19T21:15:15.790Z</time>
      </trkpt>
      <trkpt lat="48.84418" lon="2.3355">
        <ele>94</ele>
        <time>2015-01-19T21:15:16.935Z</time>
      </trkpt>
      <trkpt lat="48.84418" lon="2.33563">
        <ele>93.8</ele>
        <time>2015-01-19T21:15:18.841Z</time>
      </trkpt>
      <trkpt lat="48.84418" lon="2.33569">
        <ele>93.7</ele>
        <time>2015-01-19T21:15:19.855Z</time>
      </trkpt>
      <trkpt lat="48.84416" lon="2.33577">
        <ele>93.8</ele>
        <time>2015-01-19T21:15:20.887Z</time>
      </trkpt>
      <trkpt lat="48.84415" lon="2.33584">
        <ele>94</ele>
        <time>2015-01-19T21:15:21.905Z</time>
      </trkpt>
      <trkpt lat="48.84414" lon="2.33591">
        <ele>94.2</ele>
        <time>2015-01-19T21:15:22.818Z</time>
      </trkpt>
      <trkpt lat="48.84415" lon="2.336">
        <ele>93.3</ele>
        <time>2015-01-19T21:15:23.830Z</time>
      </trkpt>
      <trkpt lat="48.84417" lon="2.3361">
        <ele>92.5</ele>
        <time>2015-01-19T21:15:24.849Z</time>
      </trkpt>
      <trkpt lat="48.84419" lon="2.3362">
        <ele>91.9</ele>
        <time>2015-01-19T21:15:25.798Z</time>
      </trkpt>
      <trkpt lat="48.8442" lon="2.33628">
        <ele>91.1</ele>
        <time>2015-01-19T21:15:26.847Z</time>
      </trkpt>
      <trkpt lat="48.84417" lon="2.33635">
        <ele>91.2</ele>
        <time>2015-01-19T21:15:27.855Z</time>
      </trkpt>
      <trkpt lat="48.84417" lon="2.33643">
        <ele>91.4</ele>
        <time>2015-01-19T21:15:29.707Z</time>
      </trkpt>
      <trkpt lat="48.84417" lon="2.3365">
        <ele>91.7</ele>
        <time>2015-01-19T21:15:29.867Z</time>
      </trkpt>
      <trkpt lat="48.84417" lon="2.33657">
        <ele>92</ele>
        <time>2015-01-19T21:15:30.886Z</time>
      </trkpt>
      <trkpt lat="48.84417" lon="2.33664">
        <ele>92.3</ele>
        <time>2015-01-19T21:15:31.895Z</time>
      </trkpt>
      <trkpt lat="48.84419" lon="2.33671">
        <ele>92.7</ele>
        <time>2015-01-19T21:15:32.931Z</time>
      </trkpt>
      <trkpt lat="48.8442" lon="2.33678">
        <ele>93.2</ele>
        <time>2015-01-19T21:15:33.832Z</time>
      </trkpt>
      <trkpt lat="48.84421" lon="2.33686">
        <ele>93.6</ele>
        <time>2015-01-19T21:15:34.904Z</time>
      </trkpt>
      <trkpt lat="48.84421" lon="2.33693">
        <ele>93.8</ele>
        <time>2015-01-19T21:15:35.922Z</time>
      </trkpt>
      <trkpt lat="48.84422" lon="2.33699">
        <ele>94.3</ele>
        <time>2015-01-19T21:15:36.832Z</time>
      </trkpt>
      <trkpt lat="48.84424" lon="2.33706">
        <ele>95</ele>
        <time>2015-01-19T21:15:38.043Z</time>
      </trkpt>
      <trkpt lat="48.84425" lon="2.33718">
        <ele>95.6</ele>
        <time>2015-01-19T21:15:39.890Z</time>
      </trkpt>
      <trkpt lat="48.84425" lon="2.33725">
        <ele>95.8</ele>
        <time>2015-01-19T21:15:40.915Z</time>
      </trkpt>
      <trkpt lat="48.84426" lon="2.33737">
        <ele>96.4</ele>
        <time>2015-01-19T21:15:42.912Z</time>
      </trkpt>
      <trkpt lat="48.84426" lon="2.33743">
        <ele>96.7</ele>
        <time>2015-01-19T21:15:43.941Z</time>
      </trkpt>
      <trkpt lat="48.84427" lon="2.33754">
        <ele>96.7</ele>
        <time>2015-01-19T21:15:45.840Z</time>
      </trkpt>
      <trkpt lat="48.84428" lon="2.3376">
        <ele>96.4</ele>
        <time>2015-01-19T21:15:46.840Z</time>
      </trkpt>
      <trkpt lat="48.84426" lon="2.3377">
        <ele>96.4</ele>
        <time>2015-01-19T21:15:48.856Z</time>
      </trkpt>
      <trkpt lat="48.84425" lon="2.33775">
        <ele>96.7</ele>
        <time>2015-01-19T21:15:49.864Z</time>
      </trkpt>
      <trkpt lat="48.84421" lon="2.33786">
        <ele>97.4</ele>
        <time>2015-01-19T21:15:51.903Z</time>
      </trkpt>
      <trkpt lat="48.8442" lon="2.3379">
        <ele>97.2</ele>
        <time>2015-01-19T21:15:52.930Z</time>
      </trkpt>
      <trkpt lat="48.84418" lon="2.33799">
        <ele>97.5</ele>
        <time>2015-01-19T21:15:55.029Z</time>
      </trkpt>
      <trkpt lat="48.84416" lon="2.33805">
        <ele>97.9</ele>
        <time>2015-01-19T21:15:55.856Z</time>
      </trkpt>
      <trkpt lat="48.84414" lon="2.33817">
        <ele>98.6</ele>
        <time>2015-01-19T21:15:57.883Z</time>
      </trkpt>
      <trkpt lat="48.84412" lon="2.33822">
        <ele>98.9</ele>
        <time>2015-01-19T21:15:58.902Z</time>
      </trkpt>
      <trkpt lat="48.84406" lon="2.33831">
        <ele>99.1</ele>
        <time>2015-01-19T21:16:00.849Z</time>
      </trkpt>
      <trkpt lat="48.84403" lon="2.33836">
        <ele>99.3</ele>
        <time>2015-01-19T21:16:01.860Z</time>
      </trkpt>
      <trkpt lat="48.84401" lon="2.33846">
        <ele>99.4</ele>
        <time>2015-01-19T21:16:03.894Z</time>
      </trkpt>
      <trkpt lat="48.84401" lon="2.33851">
        <ele>99.2</ele>
        <time>2015-01-19T21:16:04.903Z</time>
      </trkpt>
      <trkpt lat="48.84402" lon="2.33861">
        <ele>99</ele>
        <time>2015-01-19T21:16:06.851Z</time>
      </trkpt>
      <trkpt lat="48.84402" lon="2.33865">
        <ele>99.1</ele>
        <time>2015-01-19T21:16:07.895Z</time>
      </trkpt>
      <trkpt lat="48.84404" lon="2.33878">
        <ele>99.4</ele>
        <time>2015-01-19T21:17:08.892Z</time>
      </trkpt>
      <trkpt lat="48.84385" lon="2.3391">
        <ele>118.4</ele>
        <time>2015-01-19T21:17:09.901Z</time>
      </trkpt>
      <trkpt lat="48.84387" lon="2.3392">
        <ele>118</ele>
        <time>2015-01-19T21:17:20.864Z</time>
      </trkpt>
      <trkpt lat="48.84386" lon="2.33923">
        <ele>117.8</ele>
        <time>2015-01-19T21:17:21.885Z</time>
      </trkpt>
      <trkpt lat="48.84385" lon="2.33933">
        <ele>116.8</ele>
        <time>2015-01-19T21:17:23.921Z</time>
      </trkpt>
      <trkpt lat="48.84384" lon="2.33937">
        <ele>116.7</ele>
        <time>2015-01-19T21:17:24.940Z</time>
      </trkpt>
      <trkpt lat="48.84385" lon="2.33948">
        <ele>116.6</ele>
        <time>2015-01-19T21:17:26.873Z</time>
      </trkpt>
      <trkpt lat="48.84385" lon="2.33953">
        <ele>116.2</ele>
        <time>2015-01-19T21:17:27.869Z</time>
      </trkpt>
      <trkpt lat="48.84384" lon="2.33962">
        <ele>115.4</ele>
        <time>2015-01-19T21:17:29.892Z</time>
      </trkpt>
      <trkpt lat="48.84382" lon="2.33966">
        <ele>115.1</ele>
        <time>2015-01-19T21:17:30.927Z</time>
      </trkpt>
      <trkpt lat="48.84381" lon="2.33979">
        <ele>114.8</ele>
        <time>2015-01-19T21:17:34.888Z</time>
      </trkpt>
      <trkpt lat="48.84382" lon="2.33983">
        <ele>114.6</ele>
        <time>2015-01-19T21:17:35.855Z</time>
      </trkpt>
      <trkpt lat="48.84385" lon="2.33994">
        <ele>114.4</ele>
        <time>2015-01-19T21:17:38.885Z</time>
      </trkpt>
      <trkpt lat="48.84384" lon="2.33997">
        <ele>114.3</ele>
        <time>2015-01-19T21:17:39.933Z</time>
      </trkpt>
      <trkpt lat="48.84382" lon="2.34009">
        <ele>114.1</ele>
        <time>2015-01-19T21:17:42.880Z</time>
      </trkpt>
      <trkpt lat="48.8438" lon="2.34014">
        <ele>114</ele>
        <time>2015-01-19T21:17:44.020Z</time>
      </trkpt>
      <trkpt lat="48.84377" lon="2.34023">
        <ele>114</ele>
        <time>2015-01-19T21:17:45.885Z</time>
      </trkpt>
      <trkpt lat="48.84376" lon="2.34027">
        <ele>114</ele>
        <time>2015-01-19T21:17:46.906Z</time>
      </trkpt>
      <trkpt lat="48.84373" lon="2.34035">
        <ele>114.1</ele>
        <time>2015-01-19T21:17:48.831Z</time>
      </trkpt>
      <trkpt lat="48.8437" lon="2.3404">
        <ele>114.2</ele>
        <time>2015-01-19T21:17:49.859Z</time>
      </trkpt>
      <trkpt lat="48.84364" lon="2.34048">
        <ele>114.9</ele>
        <time>2015-01-19T21:17:51.904Z</time>
      </trkpt>
      <trkpt lat="48.84362" lon="2.34052">
        <ele>115.2</ele>
        <time>2015-01-19T21:17:52.913Z</time>
      </trkpt>
      <trkpt lat="48.8436" lon="2.34058">
        <ele>115.4</ele>
        <time>2015-01-19T21:17:53.919Z</time>
      </trkpt>
      <trkpt lat="48.84357" lon="2.34065">
        <ele>115.5</ele>
        <time>2015-01-19T21:17:54.812Z</time>
      </trkpt>
      <trkpt lat="48.84356" lon="2.34072">
        <ele>115.6</ele>
        <time>2015-01-19T21:17:55.826Z</time>
      </trkpt>
      <trkpt lat="48.84354" lon="2.34079">
        <ele>115.7</ele>
        <time>2015-01-19T21:17:56.851Z</time>
      </trkpt>
      <trkpt lat="48.84324" lon="2.34129">
        <ele>115.8</ele>
        <time>2015-01-19T21:18:15.832Z</time>
      </trkpt>
      <trkpt lat="48.84337" lon="2.34148">
        <ele>117.3</ele>
        <time>2015-01-19T21:18:16.851Z</time>
      </trkpt>
      <trkpt lat="48.84342" lon="2.34151">
        <ele>117.7</ele>
        <time>2015-01-19T21:18:17.853Z</time>
      </trkpt>
      <trkpt lat="48.84346" lon="2.34153">
        <ele>118</ele>
        <time>2015-01-19T21:18:18.868Z</time>
      </trkpt>
      <trkpt lat="48.8435" lon="2.34157">
        <ele>118.2</ele>
        <time>2015-01-19T21:18:20.848Z</time>
      </trkpt>
      <trkpt lat="48.84355" lon="2.3416">
        <ele>118.4</ele>
        <time>2015-01-19T21:18:20.900Z</time>
      </trkpt>
      <trkpt lat="48.84363" lon="2.34163">
        <ele>119</ele>
        <time>2015-01-19T21:18:24.823Z</time>
      </trkpt>
      <trkpt lat="48.84366" lon="2.34165">
        <ele>119</ele>
        <time>2015-01-19T21:18:25.843Z</time>
      </trkpt>
      <trkpt lat="48.8437" lon="2.34167">
        <ele>119</ele>
        <time>2015-01-19T21:18:27.812Z</time>
      </trkpt>
      <trkpt lat="48.84377" lon="2.3417">
        <ele>119.6</ele>
        <time>2015-01-19T21:18:28.854Z</time>
      </trkpt>
      <trkpt lat="48.84384" lon="2.34178">
        <ele>119.8</ele>
        <time>2015-01-19T21:18:30.882Z</time>
      </trkpt>
      <trkpt lat="48.84388" lon="2.34183">
        <ele>119.7</ele>
        <time>2015-01-19T21:18:31.898Z</time>
      </trkpt>
      <trkpt lat="48.84395" lon="2.3419">
        <ele>120.2</ele>
        <time>2015-01-19T21:18:47.843Z</time>
      </trkpt>
      <trkpt lat="48.84409" lon="2.34212">
        <ele>120.9</ele>
        <time>2015-01-19T21:18:48.921Z</time>
      </trkpt>
      <trkpt lat="48.84416" lon="2.34219">
        <ele>120</ele>
        <time>2015-01-19T21:18:51.862Z</time>
      </trkpt>
      <trkpt lat="48.84418" lon="2.34221">
        <ele>120.1</ele>
        <time>2015-01-19T21:18:52.890Z</time>
      </trkpt>
      <trkpt lat="48.84426" lon="2.34222">
        <ele>120.3</ele>
        <time>2015-01-19T21:18:58.971Z</time>
      </trkpt>
      <trkpt lat="48.84427" lon="2.3422">
        <ele>120.3</ele>
        <time>2015-01-19T21:18:59.853Z</time>
      </trkpt>
      <trkpt lat="48.84432" lon="2.3422">
        <ele>120.4</ele>
        <time>2015-01-19T21:19:01.855Z</time>
      </trkpt>
      <trkpt lat="48.84437" lon="2.34219">
        <ele>120</ele>
        <time>2015-01-19T21:19:02.862Z</time>
      </trkpt>
      <trkpt lat="48.84442" lon="2.34218">
        <ele>119.7</ele>
        <time>2015-01-19T21:19:03.872Z</time>
      </trkpt>
      <trkpt lat="48.84448" lon="2.34219">
        <ele>119.1</ele>
        <time>2015-01-19T21:19:04.888Z</time>
      </trkpt>
      <trkpt lat="48.84454" lon="2.34219">
        <ele>118.4</ele>
        <time>2015-01-19T21:19:05.788Z</time>
      </trkpt>
      <trkpt lat="48.84459" lon="2.34222">
        <ele>118.7</ele>
        <time>2015-01-19T21:19:06.812Z</time>
      </trkpt>
      <trkpt lat="48.84466" lon="2.34226">
        <ele>119.5</ele>
        <time>2015-01-19T21:19:08.870Z</time>
      </trkpt>
      <trkpt lat="48.84473" lon="2.34231">
        <ele>120.1</ele>
        <time>2015-01-19T21:19:09.875Z</time>
      </trkpt>
      <trkpt lat="48.84479" lon="2.34236">
        <ele>120.7</ele>
        <time>2015-01-19T21:19:11.809Z</time>
      </trkpt>
      <trkpt lat="48.84482" lon="2.34237">
        <ele>120.8</ele>
        <time>2015-01-19T21:19:12.841Z</time>
      </trkpt>
      <trkpt lat="48.8449" lon="2.34239">
        <ele>120.8</ele>
        <time>2015-01-19T21:19:16.880Z</time>
      </trkpt>
      <trkpt lat="48.84491" lon="2.3424">
        <ele>120.6</ele>
        <time>2015-01-19T21:19:17.852Z</time>
      </trkpt>
      <trkpt lat="48.84495" lon="2.34246">
        <ele>120.3</ele>
        <time>2015-01-19T21:19:21.279Z</time>
      </trkpt>
      <trkpt lat="48.84498" lon="2.34248">
        <ele>120.5</ele>
        <time>2015-01-19T21:19:21.899Z</time>
      </trkpt>
      <trkpt lat="48.84502" lon="2.34251">
        <ele>120.8</ele>
        <time>2015-01-19T21:19:27.868Z</time>
      </trkpt>
      <trkpt lat="48.84509" lon="2.34257">
        <ele>120.8</ele>
        <time>2015-01-19T21:19:28.853Z</time>
      </trkpt>
      <trkpt lat="48.84511" lon="2.3426">
        <ele>120.7</ele>
        <time>2015-01-19T21:19:31.858Z</time>
      </trkpt>
      <trkpt lat="48.84604" lon="2.34332">
        <ele>120.9</ele>
        <time>2015-01-19T21:19:47.909Z</time>
      </trkpt>
      <trkpt lat="48.84611" lon="2.34333">
        <ele>121.2</ele>
        <time>2015-01-19T21:19:50.826Z</time>
      </trkpt>
      <trkpt lat="48.84614" lon="2.34336">
        <ele>121.3</ele>
        <time>2015-01-19T21:19:51.838Z</time>
      </trkpt>
      <trkpt lat="48.84618" lon="2.34338">
        <ele>121.2</ele>
        <time>2015-01-19T21:19:52.850Z</time>
      </trkpt>
      <trkpt lat="48.84625" lon="2.34336">
        <ele>121.4</ele>
        <time>2015-01-19T21:19:54.914Z</time>
      </trkpt>
      <trkpt lat="48.84633" lon="2.34337">
        <ele>121.2</ele>
        <time>2015-01-19T21:19:56.856Z</time>
      </trkpt>
      <trkpt lat="48.84637" lon="2.34339">
        <ele>121</ele>
        <time>2015-01-19T21:19:57.874Z</time>
      </trkpt>
      <trkpt lat="48.84641" lon="2.3434">
        <ele>121.2</ele>
        <time>2015-01-19T21:19:58.889Z</time>
      </trkpt>
      <trkpt lat="48.84646" lon="2.34341">
        <ele>121.3</ele>
        <time>2015-01-19T21:19:59.894Z</time>
      </trkpt>
      <trkpt lat="48.84651" lon="2.3434">
        <ele>121.7</ele>
        <time>2015-01-19T21:20:00.795Z</time>
      </trkpt>
      <trkpt lat="48.84658" lon="2.34335">
        <ele>120.7</ele>
        <time>2015-01-19T21:20:01.818Z</time>
      </trkpt>
      <trkpt lat="48.84667" lon="2.34337">
        <ele>120.2</ele>
        <time>2015-01-19T21:20:03.903Z</time>
      </trkpt>
      <trkpt lat="48.8467" lon="2.34338">
        <ele>119.8</ele>
        <time>2015-01-19T21:20:04.921Z</time>
      </trkpt>
      <trkpt lat="48.84671" lon="2.34337">
        <ele>119.9</ele>
        <time>2015-01-19T21:20:25.856Z</time>
      </trkpt>
      <trkpt lat="48.84687" lon="2.34337">
        <ele>122.5</ele>
        <time>2015-01-19T21:20:26.952Z</time>
      </trkpt>
      <trkpt lat="48.84695" lon="2.3434">
        <ele>123.4</ele>
        <time>2015-01-19T21:20:30.840Z</time>
      </trkpt>
      <trkpt lat="48.84697" lon="2.34342">
        <ele>123.3</ele>
        <time>2015-01-19T21:20:31.853Z</time>
      </trkpt>
      <trkpt lat="48.84704" lon="2.34345">
        <ele>123.6</ele>
        <time>2015-01-19T21:20:35.882Z</time>
      </trkpt>
      <trkpt lat="48.84706" lon="2.34345">
        <ele>123.5</ele>
        <time>2015-01-19T21:20:36.860Z</time>
      </trkpt>
      <trkpt lat="48.84713" lon="2.34347">
        <ele>123.9</ele>
        <time>2015-01-19T21:20:39.881Z</time>
      </trkpt>
      <trkpt lat="48.84716" lon="2.3435">
        <ele>124</ele>
        <time>2015-01-19T21:20:40.901Z</time>
      </trkpt>
      <trkpt lat="48.84723" lon="2.34356">
        <ele>124.2</ele>
        <time>2015-01-19T21:20:42.811Z</time>
      </trkpt>
      <trkpt lat="48.84727" lon="2.34358">
        <ele>124.1</ele>
        <time>2015-01-19T21:20:43.858Z</time>
      </trkpt>
      <trkpt lat="48.84735" lon="2.34359">
        <ele>123.9</ele>
        <time>2015-01-19T21:20:45.809Z</time>
      </trkpt>
      <trkpt lat="48.84737" lon="2.34358">
        <ele>123.7</ele>
        <time>2015-01-19T21:20:46.816Z</time>
      </trkpt>
      <trkpt lat="48.84743" lon="2.34364">
        <ele>123.9</ele>
        <time>2015-01-19T21:21:14.891Z</time>
      </trkpt>
      <trkpt lat="48.84745" lon="2.3437">
        <ele>123.7</ele>
        <time>2015-01-19T21:21:15.899Z</time>
      </trkpt>
      <trkpt lat="48.84749" lon="2.34375">
        <ele>123.3</ele>
        <time>2015-01-19T21:21:16.869Z</time>
      </trkpt>
      <trkpt lat="48.84756" lon="2.34379">
        <ele>122.9</ele>
        <time>2015-01-19T21:21:17.825Z</time>
      </trkpt>
      <trkpt lat="48.84763" lon="2.34383">
        <ele>122.5</ele>
        <time>2015-01-19T21:21:18.847Z</time>
      </trkpt>
      <trkpt lat="48.84769" lon="2.34387">
        <ele>122.3</ele>
        <time>2015-01-19T21:21:19.847Z</time>
      </trkpt>
      <trkpt lat="48.84776" lon="2.3439">
        <ele>122</ele>
        <time>2015-01-19T21:21:20.846Z</time>
      </trkpt>
      <trkpt lat="48.84783" lon="2.34392">
        <ele>121.5</ele>
        <time>2015-01-19T21:21:21.850Z</time>
      </trkpt>
      <trkpt lat="48.84789" lon="2.34393">
        <ele>121.1</ele>
        <time>2015-01-19T21:21:22.845Z</time>
      </trkpt>
      <trkpt lat="48.84796" lon="2.34395">
        <ele>121</ele>
        <time>2015-01-19T21:21:23.823Z</time>
      </trkpt>
      <trkpt lat="48.84804" lon="2.34397">
        <ele>121</ele>
        <time>2015-01-19T21:21:24.860Z</time>
      </trkpt>
      <trkpt lat="48.84811" lon="2.34399">
        <ele>120.8</ele>
        <time>2015-01-19T21:21:25.845Z</time>
      </trkpt>
      <trkpt lat="48.84817" lon="2.34401">
        <ele>120.3</ele>
        <time>2015-01-19T21:21:26.870Z</time>
      </trkpt>
      <trkpt lat="48.84823" lon="2.34403">
        <ele>120.3</ele>
        <time>2015-01-19T21:21:27.878Z</time>
      </trkpt>
      <trkpt lat="48.8483" lon="2.34406">
        <ele>120.2</ele>
        <time>2015-01-19T21:21:28.895Z</time>
      </trkpt>
      <trkpt lat="48.84835" lon="2.3441">
        <ele>120.3</ele>
        <time>2015-01-19T21:21:29.900Z</time>
      </trkpt>
      <trkpt lat="48.8484" lon="2.34413">
        <ele>119.9</ele>
        <time>2015-01-19T21:21:30.817Z</time>
      </trkpt>
      <trkpt lat="48.84843" lon="2.34416">
        <ele>119.2</ele>
        <time>2015-01-19T21:21:31.796Z</time>
      </trkpt>
      <trkpt lat="48.84848" lon="2.34427">
        <ele>118.5</ele>
        <time>2015-01-19T21:21:33.878Z</time>
      </trkpt>
      <trkpt lat="48.84849" lon="2.34435">
        <ele>117.7</ele>
        <time>2015-01-19T21:21:34.881Z</time>
      </trkpt>
      <trkpt lat="48.84852" lon="2.34441">
        <ele>116.8</ele>
        <time>2015-01-19T21:21:35.936Z</time>
      </trkpt>
      <trkpt lat="48.84855" lon="2.34446">
        <ele>116.3</ele>
        <time>2015-01-19T21:21:36.811Z</time>
      </trkpt>
      <trkpt lat="48.84859" lon="2.3445">
        <ele>115.8</ele>
        <time>2015-01-19T21:21:37.874Z</time>
      </trkpt>
      <trkpt lat="48.84863" lon="2.34454">
        <ele>115.5</ele>
        <time>2015-01-19T21:21:38.910Z</time>
      </trkpt>
      <trkpt lat="48.84867" lon="2.34458">
        <ele>115</ele>
        <time>2015-01-19T21:21:39.793Z</time>
      </trkpt>
      <trkpt lat="48.84872" lon="2.34461">
        <ele>114.7</ele>
        <time>2015-01-19T21:21:40.818Z</time>
      </trkpt>
      <trkpt lat="48.84879" lon="2.34464">
        <ele>114.5</ele>
        <time>2015-01-19T21:21:41.948Z</time>
      </trkpt>
      <trkpt lat="48.84886" lon="2.34468">
        <ele>114.5</ele>
        <time>2015-01-19T21:21:42.867Z</time>
      </trkpt>
      <trkpt lat="48.84894" lon="2.34471">
        <ele>114.3</ele>
        <time>2015-01-19T21:21:43.879Z</time>
      </trkpt>
      <trkpt lat="48.84902" lon="2.34473">
        <ele>114.1</ele>
        <time>2015-01-19T21:21:44.892Z</time>
      </trkpt>
      <trkpt lat="48.8491" lon="2.34475">
        <ele>114</ele>
        <time>2015-01-19T21:21:45.783Z</time>
      </trkpt>
      <trkpt lat="48.84919" lon="2.34477">
        <ele>113.9</ele>
        <time>2015-01-19T21:21:46.815Z</time>
      </trkpt>
      <trkpt lat="48.84927" lon="2.34479">
        <ele>114</ele>
        <time>2015-01-19T21:21:47.825Z</time>
      </trkpt>
      <trkpt lat="48.84935" lon="2.34481">
        <ele>114</ele>
        <time>2015-01-19T21:21:48.880Z</time>
      </trkpt>
      <trkpt lat="48.84944" lon="2.34479">
        <ele>113.6</ele>
        <time>2015-01-19T21:21:49.900Z</time>
      </trkpt>
      <trkpt lat="48.84951" lon="2.3448">
        <ele>113.6</ele>
        <time>2015-01-19T21:21:50.910Z</time>
      </trkpt>
      <trkpt lat="48.84956" lon="2.34481">
        <ele>113</ele>
        <time>2015-01-19T21:21:51.826Z</time>
      </trkpt>
      <trkpt lat="48.84964" lon="2.34486">
        <ele>113.3</ele>
        <time>2015-01-19T21:21:53.900Z</time>
      </trkpt>
      <trkpt lat="48.84962" lon="2.34493">
        <ele>113.5</ele>
        <time>2015-01-19T21:21:54.931Z</time>
      </trkpt>
      <trkpt lat="48.84957" lon="2.34497">
        <ele>112.9</ele>
        <time>2015-01-19T21:22:08.850Z</time>
      </trkpt>
      <trkpt lat="48.84948" lon="2.34491">
        <ele>107.9</ele>
        <time>2015-01-19T21:22:09.837Z</time>
      </trkpt>
      <trkpt lat="48.84954" lon="2.34492">
        <ele>108.3</ele>
        <time>2015-01-19T21:22:11.892Z</time>
      </trkpt>
      <trkpt lat="48.84958" lon="2.34493">
        <ele>109</ele>
        <time>2015-01-19T21:22:12.800Z</time>
      </trkpt>
      <trkpt lat="48.84964" lon="2.34497">
        <ele>109.7</ele>
        <time>2015-01-19T21:22:14.862Z</time>
      </trkpt>
      <trkpt lat="48.84968" lon="2.34499">
        <ele>110.1</ele>
        <time>2015-01-19T21:22:15.826Z</time>
      </trkpt>
      <trkpt lat="48.84975" lon="2.34504">
        <ele>110.9</ele>
        <time>2015-01-19T21:22:17.931Z</time>
      </trkpt>
      <trkpt lat="48.84981" lon="2.34507">
        <ele>111.5</ele>
        <time>2015-01-19T21:22:18.831Z</time>
      </trkpt>
      <trkpt lat="48.84986" lon="2.3451">
        <ele>111.9</ele>
        <time>2015-01-19T21:22:19.892Z</time>
      </trkpt>
      <trkpt lat="48.8499" lon="2.34511">
        <ele>112.1</ele>
        <time>2015-01-19T21:22:20.903Z</time>
      </trkpt>
      <trkpt lat="48.84995" lon="2.34511">
        <ele>111.8</ele>
        <time>2015-01-19T21:22:21.820Z</time>
      </trkpt>
      <trkpt lat="48.85" lon="2.34509">
        <ele>111.3</ele>
        <time>2015-01-19T21:22:22.824Z</time>
      </trkpt>
      <trkpt lat="48.85006" lon="2.34513">
        <ele>111.1</ele>
        <time>2015-01-19T21:22:24.867Z</time>
      </trkpt>
      <trkpt lat="48.85009" lon="2.34516">
        <ele>111.1</ele>
        <time>2015-01-19T21:22:25.917Z</time>
      </trkpt>
      <trkpt lat="48.85016" lon="2.34523">
        <ele>111.2</ele>
        <time>2015-01-19T21:22:26.863Z</time>
      </trkpt>
      <trkpt lat="48.85018" lon="2.34527">
        <ele>111.1</ele>
        <time>2015-01-19T21:22:27.871Z</time>
      </trkpt>
      <trkpt lat="48.85023" lon="2.34538">
        <ele>111.4</ele>
        <time>2015-01-19T21:22:31.802Z</time>
      </trkpt>
      <trkpt lat="48.85025" lon="2.3454">
        <ele>111.6</ele>
        <time>2015-01-19T21:22:32.953Z</time>
      </trkpt>
      <trkpt lat="48.85034" lon="2.34542">
        <ele>112</ele>
        <time>2015-01-19T21:22:34.825Z</time>
      </trkpt>
      <trkpt lat="48.85037" lon="2.34541">
        <ele>112.1</ele>
        <time>2015-01-19T21:22:35.824Z</time>
      </trkpt>
      <trkpt lat="48.85045" lon="2.34541">
        <ele>112.4</ele>
        <time>2015-01-19T21:22:38.903Z</time>
      </trkpt>
      <trkpt lat="48.8505" lon="2.3454">
        <ele>112.1</ele>
        <time>2015-01-19T21:22:39.825Z</time>
      </trkpt>
      <trkpt lat="48.85058" lon="2.34542">
        <ele>111</ele>
        <time>2015-01-19T21:22:41.790Z</time>
      </trkpt>
      <trkpt lat="48.85061" lon="2.34544">
        <ele>110.9</ele>
        <time>2015-01-19T21:22:42.813Z</time>
      </trkpt>
      <trkpt lat="48.85066" lon="2.34546">
        <ele>110.5</ele>
        <time>2015-01-19T21:22:43.822Z</time>
      </trkpt>
      <trkpt lat="48.8507" lon="2.34548">
        <ele>110.5</ele>
        <time>2015-01-19T21:22:44.886Z</time>
      </trkpt>
      <trkpt lat="48.85077" lon="2.34555">
        <ele>109.6</ele>
        <time>2015-01-19T21:22:46.812Z</time>
      </trkpt>
      <trkpt lat="48.85079" lon="2.34559">
        <ele>109.4</ele>
        <time>2015-01-19T21:22:47.830Z</time>
      </trkpt>
      <trkpt lat="48.85083" lon="2.34564">
        <ele>108.6</ele>
        <time>2015-01-19T21:22:48.833Z</time>
      </trkpt>
      <trkpt lat="48.85085" lon="2.34569">
        <ele>107.8</ele>
        <time>2015-01-19T21:22:49.809Z</time>
      </trkpt>
      <trkpt lat="48.8509" lon="2.34579">
        <ele>106.5</ele>
        <time>2015-01-19T21:22:52.856Z</time>
      </trkpt>
      <trkpt lat="48.85092" lon="2.34584">
        <ele>106.1</ele>
        <time>2015-01-19T21:22:53.935Z</time>
      </trkpt>
      <trkpt lat="48.85094" lon="2.34589">
        <ele>105.6</ele>
        <time>2015-01-19T21:22:54.819Z</time>
      </trkpt>
      <trkpt lat="48.85096" lon="2.34596">
        <ele>105.2</ele>
        <time>2015-01-19T21:22:55.826Z</time>
      </trkpt>
      <trkpt lat="48.85098" lon="2.34604">
        <ele>103.1</ele>
        <time>2015-01-19T21:22:56.852Z</time>
      </trkpt>
      <trkpt lat="48.851" lon="2.3461">
        <ele>102.9</ele>
        <time>2015-01-19T21:22:57.927Z</time>
      </trkpt>
      <trkpt lat="48.85103" lon="2.34615">
        <ele>102.5</ele>
        <time>2015-01-19T21:22:58.796Z</time>
      </trkpt>
      <trkpt lat="48.85108" lon="2.34621">
        <ele>102.3</ele>
        <time>2015-01-19T21:22:59.808Z</time>
      </trkpt>
      <trkpt lat="48.85113" lon="2.34631">
        <ele>101.7</ele>
        <time>2015-01-19T21:23:01.848Z</time>
      </trkpt>
      <trkpt lat="48.85115" lon="2.34636">
        <ele>101.4</ele>
        <time>2015-01-19T21:23:02.879Z</time>
      </trkpt>
      <trkpt lat="48.85117" lon="2.34642">
        <ele>101.1</ele>
        <time>2015-01-19T21:23:03.784Z</time>
      </trkpt>
      <trkpt lat="48.85119" lon="2.3465">
        <ele>100.9</ele>
        <time>2015-01-19T21:23:04.779Z</time>
      </trkpt>
      <trkpt lat="48.8512" lon="2.34658">
        <ele>100.6</ele>
        <time>2015-01-19T21:23:05.823Z</time>
      </trkpt>
      <trkpt lat="48.85121" lon="2.34666">
        <ele>100.5</ele>
        <time>2015-01-19T21:23:06.880Z</time>
      </trkpt>
      <trkpt lat="48.85123" lon="2.34674">
        <ele>100.3</ele>
        <time>2015-01-19T21:23:07.833Z</time>
      </trkpt>
      <trkpt lat="48.85125" lon="2.34681">
        <ele>100</ele>
        <time>2015-01-19T21:23:08.916Z</time>
      </trkpt>
      <trkpt lat="48.85125" lon="2.3469">
        <ele>99.8</ele>
        <time>2015-01-19T21:23:10.141Z</time>
      </trkpt>
      <trkpt lat="48.85126" lon="2.34699">
        <ele>99.8</ele>
        <time>2015-01-19T21:23:10.882Z</time>
      </trkpt>
      <trkpt lat="48.85127" lon="2.34707">
        <ele>99.7</ele>
        <time>2015-01-19T21:23:11.890Z</time>
      </trkpt>
      <trkpt lat="48.8513" lon="2.34715">
        <ele>99.9</ele>
        <time>2015-01-19T21:23:12.969Z</time>
      </trkpt>
      <trkpt lat="48.85132" lon="2.34722">
        <ele>100</ele>
        <time>2015-01-19T21:23:13.880Z</time>
      </trkpt>
      <trkpt lat="48.85136" lon="2.34728">
        <ele>99.9</ele>
        <time>2015-01-19T21:23:14.815Z</time>
      </trkpt>
      <trkpt lat="48.85177" lon="2.34788">
        <ele>102.8</ele>
        <time>2015-01-19T21:23:27.864Z</time>
      </trkpt>
      <trkpt lat="48.8518" lon="2.34791">
        <ele>103</ele>
        <time>2015-01-19T21:23:28.902Z</time>
      </trkpt>
      <trkpt lat="48.85187" lon="2.34793">
        <ele>103</ele>
        <time>2015-01-19T21:23:29.814Z</time>
      </trkpt>
      <trkpt lat="48.85195" lon="2.34795">
        <ele>103.3</ele>
        <time>2015-01-19T21:23:30.816Z</time>
      </trkpt>
      <trkpt lat="48.85203" lon="2.34797">
        <ele>103.6</ele>
        <time>2015-01-19T21:23:31.822Z</time>
      </trkpt>
      <trkpt lat="48.85209" lon="2.34798">
        <ele>103.8</ele>
        <time>2015-01-19T21:23:32.883Z</time>
      </trkpt>
      <trkpt lat="48.85215" lon="2.34801">
        <ele>103.7</ele>
        <time>2015-01-19T21:23:33.820Z</time>
      </trkpt>
      <trkpt lat="48.8522" lon="2.34803">
        <ele>103.2</ele>
        <time>2015-01-19T21:23:34.818Z</time>
      </trkpt>
      <trkpt lat="48.85224" lon="2.34804">
        <ele>102.5</ele>
        <time>2015-01-19T21:23:35.829Z</time>
      </trkpt>
      <trkpt lat="48.85231" lon="2.3481">
        <ele>99.9</ele>
        <time>2015-01-19T21:23:36.839Z</time>
      </trkpt>
      <trkpt lat="48.85235" lon="2.34812">
        <ele>99.7</ele>
        <time>2015-01-19T21:23:37.895Z</time>
      </trkpt>
      <trkpt lat="48.85241" lon="2.34816">
        <ele>98.6</ele>
        <time>2015-01-19T21:23:38.904Z</time>
      </trkpt>
      <trkpt lat="48.85245" lon="2.3482">
        <ele>96.8</ele>
        <time>2015-01-19T21:23:39.901Z</time>
      </trkpt>
      <trkpt lat="48.85246" lon="2.34822">
        <ele>94.9</ele>
        <time>2015-01-19T21:23:40.922Z</time>
      </trkpt>
      <trkpt lat="48.85246" lon="2.34822">
        <ele>94.2</ele>
        <time>2015-01-19T21:24:02.965Z</time>
      </trkpt>
      <trkpt lat="48.85244" lon="2.34839">
        <ele>93.6</ele>
        <time>2015-01-19T21:24:03.852Z</time>
      </trkpt>
      <trkpt lat="48.85248" lon="2.34846">
        <ele>93.1</ele>
        <time>2015-01-19T21:24:07.211Z</time>
      </trkpt>
      <trkpt lat="48.8525" lon="2.34848">
        <ele>92.6</ele>
        <time>2015-01-19T21:24:07.823Z</time>
      </trkpt>
      <trkpt lat="48.85257" lon="2.34854">
        <ele>91.9</ele>
        <time>2015-01-19T21:24:10.845Z</time>
      </trkpt>
      <trkpt lat="48.8526" lon="2.34856">
        <ele>91.9</ele>
        <time>2015-01-19T21:24:11.829Z</time>
      </trkpt>
      <trkpt lat="48.85265" lon="2.3486">
        <ele>92.1</ele>
        <time>2015-01-19T21:24:13.877Z</time>
      </trkpt>
      <trkpt lat="48.85269" lon="2.34862">
        <ele>92.4</ele>
        <time>2015-01-19T21:24:14.885Z</time>
      </trkpt>
      <trkpt lat="48.85273" lon="2.34865">
        <ele>92.4</ele>
        <time>2015-01-19T21:24:15.858Z</time>
      </trkpt>
      <trkpt lat="48.85281" lon="2.34869">
        <ele>92.7</ele>
        <time>2015-01-19T21:24:16.862Z</time>
      </trkpt>
      <trkpt lat="48.85287" lon="2.34875">
        <ele>93</ele>
        <time>2015-01-19T21:24:18.886Z</time>
      </trkpt>
      <trkpt lat="48.85292" lon="2.34878">
        <ele>93</ele>
        <time>2015-01-19T21:24:19.833Z</time>
      </trkpt>
      <trkpt lat="48.853" lon="2.34881">
        <ele>92.6</ele>
        <time>2015-01-19T21:24:22.416Z</time>
      </trkpt>
      <trkpt lat="48.85305" lon="2.34882">
        <ele>92.5</ele>
        <time>2015-01-19T21:24:22.902Z</time>
      </trkpt>
      <trkpt lat="48.85312" lon="2.34883">
        <ele>92.4</ele>
        <time>2015-01-19T21:24:24.817Z</time>
      </trkpt>
      <trkpt lat="48.85314" lon="2.34885">
        <ele>92.2</ele>
        <time>2015-01-19T21:24:25.908Z</time>
      </trkpt>
      <trkpt lat="48.85321" lon="2.3489">
        <ele>92</ele>
        <time>2015-01-19T21:24:27.819Z</time>
      </trkpt>
      <trkpt lat="48.85324" lon="2.34893">
        <ele>91.9</ele>
        <time>2015-01-19T21:24:28.886Z</time>
      </trkpt>
      <trkpt lat="48.85332" lon="2.34899">
        <ele>92</ele>
        <time>2015-01-19T21:24:31.888Z</time>
      </trkpt>
      <trkpt lat="48.85334" lon="2.349">
        <ele>91.8</ele>
        <time>2015-01-19T21:24:32.966Z</time>
      </trkpt>
      <trkpt lat="48.85341" lon="2.34901">
        <ele>92.6</ele>
        <time>2015-01-19T21:24:35.939Z</time>
      </trkpt>
      <trkpt lat="48.85344" lon="2.349">
        <ele>92.9</ele>
        <time>2015-01-19T21:24:36.852Z</time>
      </trkpt>
      <trkpt lat="48.85352" lon="2.34899">
        <ele>93.6</ele>
        <time>2015-01-19T21:24:38.988Z</time>
      </trkpt>
      <trkpt lat="48.85354" lon="2.34902">
        <ele>93.7</ele>
        <time>2015-01-19T21:24:39.880Z</time>
      </trkpt>
      <trkpt lat="48.8536" lon="2.34909">
        <ele>94.2</ele>
        <time>2015-01-19T21:24:41.860Z</time>
      </trkpt>
      <trkpt lat="48.85362" lon="2.34913">
        <ele>94.3</ele>
        <time>2015-01-19T21:24:42.887Z</time>
      </trkpt>
      <trkpt lat="48.85368" lon="2.34921">
        <ele>94.9</ele>
        <time>2015-01-19T21:24:46.876Z</time>
      </trkpt>
      <trkpt lat="48.8537" lon="2.34924">
        <ele>94.9</ele>
        <time>2015-01-19T21:24:47.877Z</time>
      </trkpt>
      <trkpt lat="48.85375" lon="2.34932">
        <ele>94.7</ele>
        <time>2015-01-19T21:24:49.822Z</time>
      </trkpt>
      <trkpt lat="48.85378" lon="2.34937">
        <ele>94.9</ele>
        <time>2015-01-19T21:24:50.906Z</time>
      </trkpt>
      <trkpt lat="48.85386" lon="2.34948">
        <ele>94.8</ele>
        <time>2015-01-19T21:24:52.831Z</time>
      </trkpt>
      <trkpt lat="48.8539" lon="2.34951">
        <ele>94.6</ele>
        <time>2015-01-19T21:24:53.811Z</time>
      </trkpt>
      <trkpt lat="48.85395" lon="2.34954">
        <ele>94.4</ele>
        <time>2015-01-19T21:24:54.820Z</time>
      </trkpt>
      <trkpt lat="48.85399" lon="2.34956">
        <ele>94.1</ele>
        <time>2015-01-19T21:24:55.849Z</time>
      </trkpt>
      <trkpt lat="48.85406" lon="2.3496">
        <ele>94.2</ele>
        <time>2015-01-19T21:24:56.913Z</time>
      </trkpt>
      <trkpt lat="48.85416" lon="2.34964">
        <ele>94.1</ele>
        <time>2015-01-19T21:24:57.812Z</time>
      </trkpt>
      <trkpt lat="48.85424" lon="2.34968">
        <ele>94.2</ele>
        <time>2015-01-19T21:24:58.809Z</time>
      </trkpt>
      <trkpt lat="48.8547" lon="2.34998">
        <ele>93.3</ele>
        <time>2015-01-19T21:25:10.788Z</time>
      </trkpt>
      <trkpt lat="48.85473" lon="2.35001">
        <ele>93.4</ele>
        <time>2015-01-19T21:25:11.837Z</time>
      </trkpt>
      <trkpt lat="48.85479" lon="2.35005">
        <ele>93.5</ele>
        <time>2015-01-19T21:25:12.800Z</time>
      </trkpt>
      <trkpt lat="48.85483" lon="2.35008">
        <ele>93.7</ele>
        <time>2015-01-19T21:25:13.864Z</time>
      </trkpt>
      <trkpt lat="48.85488" lon="2.35011">
        <ele>93.5</ele>
        <time>2015-01-19T21:25:14.825Z</time>
      </trkpt>
      <trkpt lat="48.85493" lon="2.3502">
        <ele>93.5</ele>
        <time>2015-01-19T21:25:16.994Z</time>
      </trkpt>
      <trkpt lat="48.85498" lon="2.35024">
        <ele>93.7</ele>
        <time>2015-01-19T21:25:17.884Z</time>
      </trkpt>
      <trkpt lat="48.85503" lon="2.35026">
        <ele>94.2</ele>
        <time>2015-01-19T21:25:18.801Z</time>
      </trkpt>
      <trkpt lat="48.85508" lon="2.35029">
        <ele>93.5</ele>
        <time>2015-01-19T21:25:19.825Z</time>
      </trkpt>
      <trkpt lat="48.85514" lon="2.35034">
        <ele>92</ele>
        <time>2015-01-19T21:25:36.858Z</time>
      </trkpt>
      <trkpt lat="48.85516" lon="2.35035">
        <ele>91.3</ele>
        <time>2015-01-19T21:25:37.833Z</time>
      </trkpt>
      <trkpt lat="48.85522" lon="2.35039">
        <ele>90.8</ele>
        <time>2015-01-19T21:25:40.133Z</time>
      </trkpt>
      <trkpt lat="48.85526" lon="2.35041">
        <ele>90.9</ele>
        <time>2015-01-19T21:25:40.907Z</time>
      </trkpt>
      <trkpt lat="48.85532" lon="2.35046">
        <ele>90.8</ele>
        <time>2015-01-19T21:25:42.955Z</time>
      </trkpt>
      <trkpt lat="48.85535" lon="2.35049">
        <ele>90.7</ele>
        <time>2015-01-19T21:25:43.963Z</time>
      </trkpt>
      <trkpt lat="48.85543" lon="2.35055">
        <ele>90.7</ele>
        <time>2015-01-19T21:25:45.828Z</time>
      </trkpt>
      <trkpt lat="48.85547" lon="2.35057">
        <ele>90.5</ele>
        <time>2015-01-19T21:25:46.843Z</time>
      </trkpt>
      <trkpt lat="48.85551" lon="2.3506">
        <ele>90.4</ele>
        <time>2015-01-19T21:25:47.888Z</time>
      </trkpt>
      <trkpt lat="48.85555" lon="2.35063">
        <ele>90.1</ele>
        <time>2015-01-19T21:25:48.875Z</time>
      </trkpt>
      <trkpt lat="48.85561" lon="2.35068">
        <ele>89.6</ele>
        <time>2015-01-19T21:25:50.878Z</time>
      </trkpt>
      <trkpt lat="48.85564" lon="2.35069">
        <ele>89.3</ele>
        <time>2015-01-19T21:25:51.893Z</time>
      </trkpt>
      <trkpt lat="48.85571" lon="2.35073">
        <ele>88.7</ele>
        <time>2015-01-19T21:25:55.847Z</time>
      </trkpt>
      <trkpt lat="48.85573" lon="2.35074">
        <ele>88.7</ele>
        <time>2015-01-19T21:25:56.890Z</time>
      </trkpt>
      <trkpt lat="48.85575" lon="2.35075">
        <ele>88.5</ele>
        <time>2015-01-19T21:26:04.831Z</time>
      </trkpt>
      <trkpt lat="48.85586" lon="2.35075">
        <ele>89.8</ele>
        <time>2015-01-19T21:26:05.841Z</time>
      </trkpt>
      <trkpt lat="48.8559" lon="2.35075">
        <ele>90.8</ele>
        <time>2015-01-19T21:26:32.903Z</time>
      </trkpt>
      <trkpt lat="48.856" lon="2.3508">
        <ele>94.1</ele>
        <time>2015-01-19T21:26:33.816Z</time>
      </trkpt>
      <trkpt lat="48.85608" lon="2.35076">
        <ele>93.7</ele>
        <time>2015-01-19T21:26:36.817Z</time>
      </trkpt>
      <trkpt lat="48.85612" lon="2.35074">
        <ele>93.2</ele>
        <time>2015-01-19T21:26:37.862Z</time>
      </trkpt>
      <trkpt lat="48.85618" lon="2.35072">
        <ele>93</ele>
        <time>2015-01-19T21:26:39.844Z</time>
      </trkpt>
      <trkpt lat="48.85621" lon="2.35073">
        <ele>93.1</ele>
        <time>2015-01-19T21:26:40.856Z</time>
      </trkpt>
      <trkpt lat="48.85628" lon="2.35074">
        <ele>92.9</ele>
        <time>2015-01-19T21:26:42.840Z</time>
      </trkpt>
      <trkpt lat="48.85631" lon="2.35076">
        <ele>92.9</ele>
        <time>2015-01-19T21:26:43.992Z</time>
      </trkpt>
      <trkpt lat="48.85637" lon="2.35082">
        <ele>93.4</ele>
        <time>2015-01-19T21:26:45.975Z</time>
      </trkpt>
      <trkpt lat="48.8564" lon="2.35086">
        <ele>93.6</ele>
        <time>2015-01-19T21:26:47.036Z</time>
      </trkpt>
      <trkpt lat="48.85645" lon="2.35094">
        <ele>94.1</ele>
        <time>2015-01-19T21:26:48.890Z</time>
      </trkpt>
      <trkpt lat="48.85648" lon="2.35098">
        <ele>94.4</ele>
        <time>2015-01-19T21:26:50.061Z</time>
      </trkpt>
      <trkpt lat="48.8565" lon="2.35103">
        <ele>94.3</ele>
        <time>2015-01-19T21:26:50.902Z</time>
      </trkpt>
      <trkpt lat="48.85654" lon="2.35109">
        <ele>93.1</ele>
        <time>2015-01-19T21:26:51.910Z</time>
      </trkpt>
      <trkpt lat="48.85661" lon="2.35111">
        <ele>91.5</ele>
        <time>2015-01-19T21:26:53.834Z</time>
      </trkpt>
      <trkpt lat="48.85667" lon="2.35109">
        <ele>90.9</ele>
        <time>2015-01-19T21:26:54.830Z</time>
      </trkpt>
      <trkpt lat="48.85672" lon="2.35107">
        <ele>90.3</ele>
        <time>2015-01-19T21:26:55.886Z</time>
      </trkpt>
      <trkpt lat="48.85675" lon="2.35103">
        <ele>90.2</ele>
        <time>2015-01-19T21:26:56.935Z</time>
      </trkpt>
      <trkpt lat="48.8568" lon="2.35098">
        <ele>89.7</ele>
        <time>2015-01-19T21:26:57.918Z</time>
      </trkpt>
      <trkpt lat="48.85683" lon="2.35094">
        <ele>90.1</ele>
        <time>2015-01-19T21:26:58.834Z</time>
      </trkpt>
      <trkpt lat="48.85687" lon="2.35087">
        <ele>90.1</ele>
        <time>2015-01-19T21:26:59.844Z</time>
      </trkpt>
      <trkpt lat="48.85691" lon="2.35081">
        <ele>89.7</ele>
        <time>2015-01-19T21:27:00.834Z</time>
      </trkpt>
      <trkpt lat="48.85695" lon="2.3507">
        <ele>89.7</ele>
        <time>2015-01-19T21:27:02.913Z</time>
      </trkpt>
      <trkpt lat="48.85697" lon="2.35065">
        <ele>89.8</ele>
        <time>2015-01-19T21:27:03.797Z</time>
      </trkpt>
      <trkpt lat="48.857" lon="2.35059">
        <ele>89.8</ele>
        <time>2015-01-19T21:27:04.854Z</time>
      </trkpt>
      <trkpt lat="48.85703" lon="2.35054">
        <ele>89.9</ele>
        <time>2015-01-19T21:27:05.862Z</time>
      </trkpt>
      <trkpt lat="48.85707" lon="2.35044">
        <ele>89.7</ele>
        <time>2015-01-19T21:27:07.825Z</time>
      </trkpt>
      <trkpt lat="48.85709" lon="2.35041">
        <ele>89.6</ele>
        <time>2015-01-19T21:27:08.869Z</time>
      </trkpt>
      <trkpt lat="48.85712" lon="2.35032">
        <ele>89.6</ele>
        <time>2015-01-19T21:27:10.815Z</time>
      </trkpt>
      <trkpt lat="48.85713" lon="2.35028">
        <ele>89.6</ele>
        <time>2015-01-19T21:27:11.814Z</time>
      </trkpt>
      <trkpt lat="48.85715" lon="2.35018">
        <ele>89.5</ele>
        <time>2015-01-19T21:27:13.835Z</time>
      </trkpt>
      <trkpt lat="48.85716" lon="2.35014">
        <ele>89.4</ele>
        <time>2015-01-19T21:27:14.849Z</time>
      </trkpt>
      <trkpt lat="48.85718" lon="2.35001">
        <ele>89</ele>
        <time>2015-01-19T21:27:16.798Z</time>
      </trkpt>
      <trkpt lat="48.85718" lon="2.34996">
        <ele>88.9</ele>
        <time>2015-01-19T21:27:17.810Z</time>
      </trkpt>
      <trkpt lat="48.85719" lon="2.34984">
        <ele>88.7</ele>
        <time>2015-01-19T21:27:20.876Z</time>
      </trkpt>
      <trkpt lat="48.8572" lon="2.34982">
        <ele>88.7</ele>
        <time>2015-01-19T21:27:21.885Z</time>
      </trkpt>
      <trkpt lat="48.85723" lon="2.34979">
        <ele>88.9</ele>
        <time>2015-01-19T21:27:40.819Z</time>
      </trkpt>
      <trkpt lat="48.85728" lon="2.34973">
        <ele>84.7</ele>
        <time>2015-01-19T21:27:42.016Z</time>
      </trkpt>
      <trkpt lat="48.8573" lon="2.34963">
        <ele>84.4</ele>
        <time>2015-01-19T21:27:44.959Z</time>
      </trkpt>
      <trkpt lat="48.85731" lon="2.34959">
        <ele>84.2</ele>
        <time>2015-01-19T21:27:45.825Z</time>
      </trkpt>
      <trkpt lat="48.85733" lon="2.34949">
        <ele>84.1</ele>
        <time>2015-01-19T21:27:47.863Z</time>
      </trkpt>
      <trkpt lat="48.85735" lon="2.34945">
        <ele>84.4</ele>
        <time>2015-01-19T21:27:48.885Z</time>
      </trkpt>
      <trkpt lat="48.85734" lon="2.34935">
        <ele>84.8</ele>
        <time>2015-01-19T21:27:50.861Z</time>
      </trkpt>
      <trkpt lat="48.85734" lon="2.3493">
        <ele>84.8</ele>
        <time>2015-01-19T21:27:51.891Z</time>
      </trkpt>
      <trkpt lat="48.85737" lon="2.3492">
        <ele>84.5</ele>
        <time>2015-01-19T21:27:53.834Z</time>
      </trkpt>
      <trkpt lat="48.85738" lon="2.34916">
        <ele>84.6</ele>
        <time>2015-01-19T21:27:54.865Z</time>
      </trkpt>
      <trkpt lat="48.85741" lon="2.34905">
        <ele>84.3</ele>
        <time>2015-01-19T21:27:56.906Z</time>
      </trkpt>
      <trkpt lat="48.85743" lon="2.349">
        <ele>84.1</ele>
        <time>2015-01-19T21:27:57.915Z</time>
      </trkpt>
      <trkpt lat="48.85747" lon="2.34889">
        <ele>84.1</ele>
        <time>2015-01-19T21:27:59.841Z</time>
      </trkpt>
      <trkpt lat="48.85749" lon="2.34882">
        <ele>83.9</ele>
        <time>2015-01-19T21:28:00.836Z</time>
      </trkpt>
      <trkpt lat="48.85753" lon="2.34871">
        <ele>83.5</ele>
        <time>2015-01-19T21:28:02.942Z</time>
      </trkpt>
      <trkpt lat="48.85755" lon="2.34865">
        <ele>83.6</ele>
        <time>2015-01-19T21:28:03.809Z</time>
      </trkpt>
      <trkpt lat="48.85757" lon="2.34853">
        <ele>83.8</ele>
        <time>2015-01-19T21:28:06.819Z</time>
      </trkpt>
      <trkpt lat="48.85757" lon="2.34847">
        <ele>84.1</ele>
        <time>2015-01-19T21:28:06.863Z</time>
      </trkpt>
      <trkpt lat="48.8576" lon="2.34837">
        <ele>84.4</ele>
        <time>2015-01-19T21:28:08.839Z</time>
      </trkpt>
      <trkpt lat="48.85761" lon="2.34831">
        <ele>84.2</ele>
        <time>2015-01-19T21:28:09.885Z</time>
      </trkpt>
      <trkpt lat="48.85763" lon="2.34821">
        <ele>84.3</ele>
        <time>2015-01-19T21:28:11.950Z</time>
      </trkpt>
      <trkpt lat="48.85764" lon="2.34816">
        <ele>83.9</ele>
        <time>2015-01-19T21:28:12.801Z</time>
      </trkpt>
      <trkpt lat="48.85766" lon="2.34806">
        <ele>84</ele>
        <time>2015-01-19T21:28:14.862Z</time>
      </trkpt>
      <trkpt lat="48.85767" lon="2.34801">
        <ele>83.9</ele>
        <time>2015-01-19T21:28:15.879Z</time>
      </trkpt>
      <trkpt lat="48.85769" lon="2.34788">
        <ele>83.9</ele>
        <time>2015-01-19T21:28:18.806Z</time>
      </trkpt>
      <trkpt lat="48.8577" lon="2.34784">
        <ele>83.8</ele>
        <time>2015-01-19T21:28:19.820Z</time>
      </trkpt>
      <trkpt lat="48.85775" lon="2.34776">
        <ele>83.8</ele>
        <time>2015-01-19T21:28:21.973Z</time>
      </trkpt>
      <trkpt lat="48.85778" lon="2.34772">
        <ele>84</ele>
        <time>2015-01-19T21:28:22.816Z</time>
      </trkpt>
      <trkpt lat="48.8578" lon="2.34765">
        <ele>83.8</ele>
        <time>2015-01-19T21:28:24.843Z</time>
      </trkpt>
      <trkpt lat="48.85782" lon="2.34759">
        <ele>83.7</ele>
        <time>2015-01-19T21:28:25.836Z</time>
      </trkpt>
      <trkpt lat="48.85784" lon="2.34748">
        <ele>83</ele>
        <time>2015-01-19T21:28:27.871Z</time>
      </trkpt>
      <trkpt lat="48.85785" lon="2.34742">
        <ele>82.8</ele>
        <time>2015-01-19T21:28:28.890Z</time>
      </trkpt>
      <trkpt lat="48.8579" lon="2.34731">
        <ele>81.9</ele>
        <time>2015-01-19T21:28:30.821Z</time>
      </trkpt>
      <trkpt lat="48.85794" lon="2.34729">
        <ele>82.1</ele>
        <time>2015-01-19T21:28:31.941Z</time>
      </trkpt>
      <trkpt lat="48.85802" lon="2.34726">
        <ele>82.5</ele>
        <time>2015-01-19T21:28:33.827Z</time>
      </trkpt>
      <trkpt lat="48.85807" lon="2.34727">
        <ele>83</ele>
        <time>2015-01-19T21:28:34.954Z</time>
      </trkpt>
      <trkpt lat="48.85815" lon="2.34731">
        <ele>83.8</ele>
        <time>2015-01-19T21:28:36.906Z</time>
      </trkpt>
      <trkpt lat="48.8582" lon="2.34732">
        <ele>84.2</ele>
        <time>2015-01-19T21:28:37.854Z</time>
      </trkpt>
      <trkpt lat="48.85824" lon="2.34733">
        <ele>84.2</ele>
        <time>2015-01-19T21:28:38.870Z</time>
      </trkpt>
      <trkpt lat="48.85829" lon="2.34731">
        <ele>84.4</ele>
        <time>2015-01-19T21:28:39.881Z</time>
      </trkpt>
      <trkpt lat="48.85835" lon="2.34732">
        <ele>85.5</ele>
        <time>2015-01-19T21:28:41.808Z</time>
      </trkpt>
      <trkpt lat="48.85838" lon="2.34734">
        <ele>86.2</ele>
        <time>2015-01-19T21:28:42.843Z</time>
      </trkpt>
      <trkpt lat="48.85845" lon="2.34734">
        <ele>87.6</ele>
        <time>2015-01-19T21:28:45.874Z</time>
      </trkpt>
      <trkpt lat="48.85848" lon="2.34734">
        <ele>87.9</ele>
        <time>2015-01-19T21:28:46.887Z</time>
      </trkpt>
      <trkpt lat="48.85853" lon="2.34734">
        <ele>87.9</ele>
        <time>2015-01-19T21:28:47.917Z</time>
      </trkpt>
      <trkpt lat="48.85858" lon="2.34734">
        <ele>87.9</ele>
        <time>2015-01-19T21:28:48.817Z</time>
      </trkpt>
      <trkpt lat="48.85863" lon="2.34733">
        <ele>87.6</ele>
        <time>2015-01-19T21:28:49.834Z</time>
      </trkpt>
      <trkpt lat="48.85867" lon="2.34733">
        <ele>87.8</ele>
        <time>2015-01-19T21:28:50.873Z</time>
      </trkpt>
      <trkpt lat="48.85876" lon="2.34732">
        <ele>87.9</ele>
        <time>2015-01-19T21:28:52.893Z</time>
      </trkpt>
      <trkpt lat="48.85881" lon="2.34733">
        <ele>87.9</ele>
        <time>2015-01-19T21:28:53.928Z</time>
      </trkpt>
      <trkpt lat="48.85888" lon="2.34735">
        <ele>88.8</ele>
        <time>2015-01-19T21:28:55.830Z</time>
      </trkpt>
      <trkpt lat="48.85891" lon="2.34733">
        <ele>89.2</ele>
        <time>2015-01-19T21:28:56.897Z</time>
      </trkpt>
      <trkpt lat="48.85897" lon="2.34726">
        <ele>90.2</ele>
        <time>2015-01-19T21:28:59.867Z</time>
      </trkpt>
      <trkpt lat="48.85899" lon="2.34724">
        <ele>90.4</ele>
        <time>2015-01-19T21:29:00.885Z</time>
      </trkpt>
      <trkpt lat="48.85906" lon="2.34717">
        <ele>91.2</ele>
        <time>2015-01-19T21:29:02.983Z</time>
      </trkpt>
      <trkpt lat="48.85909" lon="2.34713">
        <ele>91.2</ele>
        <time>2015-01-19T21:29:03.927Z</time>
      </trkpt>
      <trkpt lat="48.85913" lon="2.34702">
        <ele>92.3</ele>
        <time>2015-01-19T21:29:05.948Z</time>
      </trkpt>
      <trkpt lat="48.85917" lon="2.34699">
        <ele>92.9</ele>
        <time>2015-01-19T21:29:06.868Z</time>
      </trkpt>
      <trkpt lat="48.85924" lon="2.34698">
        <ele>92.7</ele>
        <time>2015-01-19T21:29:09.300Z</time>
      </trkpt>
      <trkpt lat="48.85926" lon="2.347">
        <ele>93</ele>
        <time>2015-01-19T21:29:09.925Z</time>
      </trkpt>
      <trkpt lat="48.85934" lon="2.34705">
        <ele>93.2</ele>
        <time>2015-01-19T21:29:12.861Z</time>
      </trkpt>
      <trkpt lat="48.85936" lon="2.34706">
        <ele>93.3</ele>
        <time>2015-01-19T21:29:13.873Z</time>
      </trkpt>
      <trkpt lat="48.85939" lon="2.34708">
        <ele>93.4</ele>
        <time>2015-01-19T21:29:24.446Z</time>
      </trkpt>
      <trkpt lat="48.85957" lon="2.34719">
        <ele>99.6</ele>
        <time>2015-01-19T21:29:24.894Z</time>
      </trkpt>
      <trkpt lat="48.85959" lon="2.3472">
        <ele>101.3</ele>
        <time>2015-01-19T21:30:09.913Z</time>
      </trkpt>
    </trkseg>
  </trk>
  <trk>
    <name><![CDATA[12/01/2015 20:17]]></name>
    <extensions>
      <line xmlns="http://www.topografix.com/GPX/gpx_style/0/2">
        <color>000000</color>
      </line>
    </extensions>
    <trkseg>
      <trkpt lat="48.85739" lon="2.34721">
        <ele>90</ele>
        <time>2015-01-12T19:17:50.281Z</time>
      </trkpt>
      <trkpt lat="48.8574" lon="2.34723">
        <ele>87.1</ele>
        <time>2015-01-12T19:18:19.695Z</time>
      </trkpt>
      <trkpt lat="48.8574" lon="2.34723">
        <ele>87.1</ele>
        <time>2015-01-12T19:18:20.773Z</time>
      </trkpt>
      <trkpt lat="48.8574" lon="2.34723">
        <ele>87</ele>
        <time>2015-01-12T19:18:21.803Z</time>
      </trkpt>
      <trkpt lat="48.8574" lon="2.34723">
        <ele>87.1</ele>
        <time>2015-01-12T19:18:22.701Z</time>
      </trkpt>
      <trkpt lat="48.8574" lon="2.34724">
        <ele>87.1</ele>
        <time>2015-01-12T19:18:23.734Z</time>
      </trkpt>
      <trkpt lat="48.8574" lon="2.34724">
        <ele>87.1</ele>
        <time>2015-01-12T19:18:25.262Z</time>
      </trkpt>
      <trkpt lat="48.8574" lon="2.34724">
        <ele>87.1</ele>
        <time>2015-01-12T19:18:25.724Z</time>
      </trkpt>
      <trkpt lat="48.8574" lon="2.34725">
        <ele>87.1</ele>
        <time>2015-01-12T19:18:29.773Z</time>
      </trkpt>
      <trkpt lat="48.8574" lon="2.34724">
        <ele>87.4</ele>
        <time>2015-01-12T19:18:30.782Z</time>
      </trkpt>
      <trkpt lat="48.85739" lon="2.34722">
        <ele>87.3</ele>
        <time>2015-01-12T19:18:35.764Z</time>
      </trkpt>
      <trkpt lat="48.85739" lon="2.34722">
        <ele>87.2</ele>
        <time>2015-01-12T19:18:36.763Z</time>
      </trkpt>
      <trkpt lat="48.85739" lon="2.34723">
        <ele>87.3</ele>
        <time>2015-01-12T19:18:45.744Z</time>
      </trkpt>
      <trkpt lat="48.85739" lon="2.34724">
        <ele>87.5</ele>
        <time>2015-01-12T19:18:46.788Z</time>
      </trkpt>
      <trkpt lat="48.85739" lon="2.34724">
        <ele>87.4</ele>
        <time>2015-01-12T19:18:48.711Z</time>
      </trkpt>
      <trkpt lat="48.85739" lon="2.34724">
        <ele>87.4</ele>
        <time>2015-01-12T19:18:49.722Z</time>
      </trkpt>
      <trkpt lat="48.85739" lon="2.34724">
        <ele>87.4</ele>
        <time>2015-01-12T19:18:54.763Z</time>
      </trkpt>
      <trkpt lat="48.8574" lon="2.34725">
        <ele>87.9</ele>
        <time>2015-01-12T19:18:55.762Z</time>
      </trkpt>
      <trkpt lat="48.85739" lon="2.34724">
        <ele>87.8</ele>
        <time>2015-01-12T19:18:57.815Z</time>
      </trkpt>
      <trkpt lat="48.85739" lon="2.34723">
        <ele>87.6</ele>
        <time>2015-01-12T19:18:58.732Z</time>
      </trkpt>
      <trkpt lat="48.85739" lon="2.34723">
        <ele>87.6</ele>
        <time>2015-01-12T19:20:34.732Z</time>
      </trkpt>
      <trkpt lat="48.85743" lon="2.34732">
        <ele>90.3</ele>
        <time>2015-01-12T19:20:35.743Z</time>
      </trkpt>
      <trkpt lat="48.85746" lon="2.34744">
        <ele>90.7</ele>
        <time>2015-01-12T19:20:41.704Z</time>
      </trkpt>
      <trkpt lat="48.85747" lon="2.34746">
        <ele>90.7</ele>
        <time>2015-01-12T19:20:42.843Z</time>
      </trkpt>
      <trkpt lat="48.85753" lon="2.34754">
        <ele>90.9</ele>
        <time>2015-01-12T19:20:47.741Z</time>
      </trkpt>
      <trkpt lat="48.85755" lon="2.34755">
        <ele>90.7</ele>
        <time>2015-01-12T19:20:48.741Z</time>
      </trkpt>
      <trkpt lat="48.85763" lon="2.34759">
        <ele>90.3</ele>
        <time>2015-01-12T19:20:53.702Z</time>
      </trkpt>
      <trkpt lat="48.85765" lon="2.3476">
        <ele>90.5</ele>
        <time>2015-01-12T19:20:54.729Z</time>
      </trkpt>
      <trkpt lat="48.85772" lon="2.34763">
        <ele>90.3</ele>
        <time>2015-01-12T19:20:57.790Z</time>
      </trkpt>
      <trkpt lat="48.85775" lon="2.34765">
        <ele>90.1</ele>
        <time>2015-01-12T19:20:58.939Z</time>
      </trkpt>
      <trkpt lat="48.85782" lon="2.34771">
        <ele>90.2</ele>
        <time>2015-01-12T19:21:02.825Z</time>
      </trkpt>
      <trkpt lat="48.85782" lon="2.34772">
        <ele>90.1</ele>
        <time>2015-01-12T19:21:03.924Z</time>
      </trkpt>
      <trkpt lat="48.85782" lon="2.34773">
        <ele>90.1</ele>
        <time>2015-01-12T19:21:04.717Z</time>
      </trkpt>
      <trkpt lat="48.85782" lon="2.34774">
        <ele>89.8</ele>
        <time>2015-01-12T19:21:15.713Z</time>
      </trkpt>
      <trkpt lat="48.85782" lon="2.34778">
        <ele>85.2</ele>
        <time>2015-01-12T19:21:16.725Z</time>
      </trkpt>
      <trkpt lat="48.85787" lon="2.34784">
        <ele>84.9</ele>
        <time>2015-01-12T19:21:20.771Z</time>
      </trkpt>
      <trkpt lat="48.8579" lon="2.34786">
        <ele>85</ele>
        <time>2015-01-12T19:21:21.807Z</time>
      </trkpt>
      <trkpt lat="48.85796" lon="2.3479">
        <ele>85.3</ele>
        <time>2015-01-12T19:21:23.723Z</time>
      </trkpt>
      <trkpt lat="48.85799" lon="2.34791">
        <ele>85.2</ele>
        <time>2015-01-12T19:21:24.765Z</time>
      </trkpt>
      <trkpt lat="48.85804" lon="2.34796">
        <ele>85.2</ele>
        <time>2015-01-12T19:21:26.845Z</time>
      </trkpt>
      <trkpt lat="48.85807" lon="2.348">
        <ele>84.9</ele>
        <time>2015-01-12T19:21:27.732Z</time>
      </trkpt>
      <trkpt lat="48.85814" lon="2.34804">
        <ele>85</ele>
        <time>2015-01-12T19:21:29.747Z</time>
      </trkpt>
      <trkpt lat="48.85819" lon="2.34805">
        <ele>84.9</ele>
        <time>2015-01-12T19:21:30.776Z</time>
      </trkpt>
      <trkpt lat="48.85826" lon="2.34807">
        <ele>85.1</ele>
        <time>2015-01-12T19:21:32.842Z</time>
      </trkpt>
      <trkpt lat="48.85829" lon="2.34809">
        <ele>85.2</ele>
        <time>2015-01-12T19:21:33.856Z</time>
      </trkpt>
      <trkpt lat="48.85838" lon="2.34811">
        <ele>83.7</ele>
        <time>2015-01-12T19:21:36.900Z</time>
      </trkpt>
      <trkpt lat="48.85838" lon="2.34812">
        <ele>83.8</ele>
        <time>2015-01-12T19:21:37.715Z</time>
      </trkpt>
      <trkpt lat="48.85839" lon="2.34813">
        <ele>84</ele>
        <time>2015-01-12T19:21:38.804Z</time>
      </trkpt>
      <trkpt lat="48.85839" lon="2.34814">
        <ele>84.1</ele>
        <time>2015-01-12T19:21:39.703Z</time>
      </trkpt>
      <trkpt lat="48.85839" lon="2.34815">
        <ele>84.3</ele>
        <time>2015-01-12T19:21:41.776Z</time>
      </trkpt>
      <trkpt lat="48.85839" lon="2.34816">
        <ele>84.2</ele>
        <time>2015-01-12T19:21:42.810Z</time>
      </trkpt>
      <trkpt lat="48.85839" lon="2.34817">
        <ele>84.2</ele>
        <time>2015-01-12T19:21:43.728Z</time>
      </trkpt>
      <trkpt lat="48.8584" lon="2.34817">
        <ele>84.3</ele>
        <time>2015-01-12T19:21:44.836Z</time>
      </trkpt>
      <trkpt lat="48.8584" lon="2.34818">
        <ele>84.6</ele>
        <time>2015-01-12T19:22:01.817Z</time>
      </trkpt>
      <trkpt lat="48.85842" lon="2.34824">
        <ele>85.2</ele>
        <time>2015-01-12T19:22:02.839Z</time>
      </trkpt>
      <trkpt lat="48.8585" lon="2.34827">
        <ele>85.8</ele>
        <time>2015-01-12T19:22:07.792Z</time>
      </trkpt>
      <trkpt lat="48.85852" lon="2.34828">
        <ele>85.7</ele>
        <time>2015-01-12T19:22:08.814Z</time>
      </trkpt>
      <trkpt lat="48.85859" lon="2.34831">
        <ele>85.9</ele>
        <time>2015-01-12T19:22:12.746Z</time>
      </trkpt>
      <trkpt lat="48.85862" lon="2.34833">
        <ele>86.5</ele>
        <time>2015-01-12T19:22:13.770Z</time>
      </trkpt>
      <trkpt lat="48.85864" lon="2.34844">
        <ele>87.3</ele>
        <time>2015-01-12T19:22:19.733Z</time>
      </trkpt>
      <trkpt lat="48.85864" lon="2.34847">
        <ele>87.2</ele>
        <time>2015-01-12T19:22:20.789Z</time>
      </trkpt>
      <trkpt lat="48.85868" lon="2.34857">
        <ele>86.9</ele>
        <time>2015-01-12T19:22:23.812Z</time>
      </trkpt>
      <trkpt lat="48.8587" lon="2.34863">
        <ele>86.6</ele>
        <time>2015-01-12T19:22:24.815Z</time>
      </trkpt>
      <trkpt lat="48.85873" lon="2.34873">
        <ele>86.3</ele>
        <time>2015-01-12T19:22:26.822Z</time>
      </trkpt>
      <trkpt lat="48.85875" lon="2.34879">
        <ele>86.1</ele>
        <time>2015-01-12T19:22:27.720Z</time>
      </trkpt>
      <trkpt lat="48.85875" lon="2.34889">
        <ele>86.2</ele>
        <time>2015-01-12T19:22:29.757Z</time>
      </trkpt>
      <trkpt lat="48.85874" lon="2.34894">
        <ele>86.3</ele>
        <time>2015-01-12T19:22:30.800Z</time>
      </trkpt>
      <trkpt lat="48.85872" lon="2.34904">
        <ele>86.5</ele>
        <time>2015-01-12T19:22:33.256Z</time>
      </trkpt>
      <trkpt lat="48.85872" lon="2.34908">
        <ele>86.6</ele>
        <time>2015-01-12T19:22:33.779Z</time>
      </trkpt>
      <trkpt lat="48.85869" lon="2.3492">
        <ele>86.9</ele>
        <time>2015-01-12T19:22:36.798Z</time>
      </trkpt>
      <trkpt lat="48.85869" lon="2.34923">
        <ele>86.9</ele>
        <time>2015-01-12T19:22:37.741Z</time>
      </trkpt>
      <trkpt lat="48.85866" lon="2.34932">
        <ele>86.8</ele>
        <time>2015-01-12T19:22:39.698Z</time>
      </trkpt>
      <trkpt lat="48.85866" lon="2.34936">
        <ele>86.8</ele>
        <time>2015-01-12T19:22:40.737Z</time>
      </trkpt>
      <trkpt lat="48.85866" lon="2.34949">
        <ele>87.1</ele>
        <time>2015-01-12T19:22:44.760Z</time>
      </trkpt>
      <trkpt lat="48.85866" lon="2.3495">
        <ele>87.1</ele>
        <time>2015-01-12T19:22:45.774Z</time>
      </trkpt>
      <trkpt lat="48.85866" lon="2.34954">
        <ele>87.6</ele>
        <time>2015-01-12T19:22:50.371Z</time>
      </trkpt>
      <trkpt lat="48.85866" lon="2.34955">
        <ele>87.7</ele>
        <time>2015-01-12T19:22:50.755Z</time>
      </trkpt>
      <trkpt lat="48.85866" lon="2.34957">
        <ele>87.6</ele>
        <time>2015-01-12T19:22:51.762Z</time>
      </trkpt>
      <trkpt lat="48.85864" lon="2.34967">
        <ele>87.7</ele>
        <time>2015-01-12T19:22:53.769Z</time>
      </trkpt>
      <trkpt lat="48.85862" lon="2.34971">
        <ele>87.8</ele>
        <time>2015-01-12T19:22:54.790Z</time>
      </trkpt>
      <trkpt lat="48.85856" lon="2.34979">
        <ele>87.7</ele>
        <time>2015-01-12T19:22:56.816Z</time>
      </trkpt>
      <trkpt lat="48.85855" lon="2.34982">
        <ele>87.8</ele>
        <time>2015-01-12T19:22:57.695Z</time>
      </trkpt>
      <trkpt lat="48.85853" lon="2.34995">
        <ele>88.5</ele>
        <time>2015-01-12T19:23:02.791Z</time>
      </trkpt>
      <trkpt lat="48.85852" lon="2.34996">
        <ele>88.9</ele>
        <time>2015-01-12T19:23:03.792Z</time>
      </trkpt>
      <trkpt lat="48.85853" lon="2.35006">
        <ele>92.7</ele>
        <time>2015-01-12T19:23:14.797Z</time>
      </trkpt>
      <trkpt lat="48.85854" lon="2.3501">
        <ele>92.8</ele>
        <time>2015-01-12T19:23:15.707Z</time>
      </trkpt>
      <trkpt lat="48.85856" lon="2.3502">
        <ele>92.8</ele>
        <time>2015-01-12T19:23:17.773Z</time>
      </trkpt>
      <trkpt lat="48.85853" lon="2.35052">
        <ele>92.3</ele>
        <time>2015-01-12T19:23:26.729Z</time>
      </trkpt>
      <trkpt lat="48.85848" lon="2.35061">
        <ele>92.3</ele>
        <time>2015-01-12T19:23:28.746Z</time>
      </trkpt>
      <trkpt lat="48.85845" lon="2.35065">
        <ele>92.2</ele>
        <time>2015-01-12T19:23:29.710Z</time>
      </trkpt>
      <trkpt lat="48.85843" lon="2.35075">
        <ele>92.3</ele>
        <time>2015-01-12T19:23:31.740Z</time>
      </trkpt>
      <trkpt lat="48.85842" lon="2.3508">
        <ele>92.3</ele>
        <time>2015-01-12T19:23:32.746Z</time>
      </trkpt>
      <trkpt lat="48.85839" lon="2.35092">
        <ele>92.3</ele>
        <time>2015-01-12T19:23:36.614Z</time>
      </trkpt>
      <trkpt lat="48.85838" lon="2.35097">
        <ele>92.3</ele>
        <time>2015-01-12T19:23:36.746Z</time>
      </trkpt>
      <trkpt lat="48.85833" lon="2.35106">
        <ele>92.4</ele>
        <time>2015-01-12T19:23:38.729Z</time>
      </trkpt>
      <trkpt lat="48.85837" lon="2.35117">
        <ele>92</ele>
        <time>2015-01-12T19:23:39.729Z</time>
      </trkpt>
      <trkpt lat="48.85835" lon="2.35127">
        <ele>92.1</ele>
        <time>2015-01-12T19:23:42.697Z</time>
      </trkpt>
      <trkpt lat="48.85833" lon="2.35129">
        <ele>92.1</ele>
        <time>2015-01-12T19:23:43.716Z</time>
      </trkpt>
      <trkpt lat="48.85826" lon="2.35137">
        <ele>92.8</ele>
        <time>2015-01-12T19:23:45.732Z</time>
      </trkpt>
      <trkpt lat="48.85825" lon="2.35139">
        <ele>93</ele>
        <time>2015-01-12T19:23:46.849Z</time>
      </trkpt>
      <trkpt lat="48.8582" lon="2.3515">
        <ele>94.7</ele>
        <time>2015-01-12T19:23:52.774Z</time>
      </trkpt>
      <trkpt lat="48.85821" lon="2.35152">
        <ele>95.5</ele>
        <time>2015-01-12T19:23:53.802Z</time>
      </trkpt>
      <trkpt lat="48.85823" lon="2.3516">
        <ele>96.4</ele>
        <time>2015-01-12T19:23:57.733Z</time>
      </trkpt>
      <trkpt lat="48.85826" lon="2.35165">
        <ele>96.9</ele>
        <time>2015-01-12T19:23:58.750Z</time>
      </trkpt>
      <trkpt lat="48.85827" lon="2.35174">
        <ele>97</ele>
        <time>2015-01-12T19:24:01.722Z</time>
      </trkpt>
      <trkpt lat="48.85827" lon="2.35178">
        <ele>97.1</ele>
        <time>2015-01-12T19:24:02.771Z</time>
      </trkpt>
      <trkpt lat="48.85827" lon="2.35191">
        <ele>96.9</ele>
        <time>2015-01-12T19:24:05.696Z</time>
      </trkpt>
      <trkpt lat="48.85827" lon="2.35194">
        <ele>96.9</ele>
        <time>2015-01-12T19:24:06.697Z</time>
      </trkpt>
      <trkpt lat="48.85822" lon="2.35203">
        <ele>96.6</ele>
        <time>2015-01-12T19:24:09.746Z</time>
      </trkpt>
      <trkpt lat="48.85819" lon="2.35205">
        <ele>96.6</ele>
        <time>2015-01-12T19:24:10.767Z</time>
      </trkpt>
      <trkpt lat="48.85816" lon="2.35214">
        <ele>96.5</ele>
        <time>2015-01-12T19:24:12.676Z</time>
      </trkpt>
      <trkpt lat="48.85815" lon="2.35219">
        <ele>96.5</ele>
        <time>2015-01-12T19:24:13.715Z</time>
      </trkpt>
      <trkpt lat="48.85813" lon="2.35231">
        <ele>96.2</ele>
        <time>2015-01-12T19:24:16.677Z</time>
      </trkpt>
      <trkpt lat="48.85813" lon="2.35235">
        <ele>96.1</ele>
        <time>2015-01-12T19:24:17.680Z</time>
      </trkpt>
      <trkpt lat="48.85815" lon="2.35247">
        <ele>95.4</ele>
        <time>2015-01-12T19:24:19.750Z</time>
      </trkpt>
      <trkpt lat="48.85815" lon="2.35253">
        <ele>95.1</ele>
        <time>2015-01-12T19:24:20.757Z</time>
      </trkpt>
      <trkpt lat="48.85813" lon="2.35265">
        <ele>94.7</ele>
        <time>2015-01-12T19:24:23.693Z</time>
      </trkpt>
      <trkpt lat="48.85812" lon="2.35268">
        <ele>94.6</ele>
        <time>2015-01-12T19:24:24.773Z</time>
      </trkpt>
      <trkpt lat="48.85809" lon="2.35272">
        <ele>94.5</ele>
        <time>2015-01-12T19:24:26.751Z</time>
      </trkpt>
      <trkpt lat="48.85804" lon="2.35276">
        <ele>94.6</ele>
        <time>2015-01-12T19:24:27.765Z</time>
      </trkpt>
      <trkpt lat="48.85797" lon="2.35282">
        <ele>94.8</ele>
        <time>2015-01-12T19:24:29.770Z</time>
      </trkpt>
      <trkpt lat="48.85793" lon="2.35285">
        <ele>94.9</ele>
        <time>2015-01-12T19:24:30.764Z</time>
      </trkpt>
      <trkpt lat="48.85787" lon="2.35295">
        <ele>94.5</ele>
        <time>2015-01-12T19:24:34.782Z</time>
      </trkpt>
      <trkpt lat="48.85787" lon="2.35298">
        <ele>94.1</ele>
        <time>2015-01-12T19:24:35.825Z</time>
      </trkpt>
      <trkpt lat="48.85783" lon="2.35307">
        <ele>93.7</ele>
        <time>2015-01-12T19:24:38.843Z</time>
      </trkpt>
      <trkpt lat="48.85782" lon="2.35309">
        <ele>94</ele>
        <time>2015-01-12T19:24:39.726Z</time>
      </trkpt>
      <trkpt lat="48.85779" lon="2.35313">
        <ele>94</ele>
        <time>2015-01-12T19:24:40.742Z</time>
      </trkpt>
      <trkpt lat="48.85779" lon="2.35315">
        <ele>93.9</ele>
        <time>2015-01-12T19:24:41.767Z</time>
      </trkpt>
      <trkpt lat="48.8578" lon="2.35317">
        <ele>94.2</ele>
        <time>2015-01-12T19:24:49.755Z</time>
      </trkpt>
      <trkpt lat="48.85779" lon="2.35324">
        <ele>92.4</ele>
        <time>2015-01-12T19:24:50.763Z</time>
      </trkpt>
      <trkpt lat="48.8578" lon="2.35336">
        <ele>91.1</ele>
        <time>2015-01-12T19:24:54.730Z</time>
      </trkpt>
      <trkpt lat="48.85779" lon="2.35339">
        <ele>90.9</ele>
        <time>2015-01-12T19:24:55.735Z</time>
      </trkpt>
      <trkpt lat="48.85777" lon="2.3535">
        <ele>90.3</ele>
        <time>2015-01-12T19:24:59.711Z</time>
      </trkpt>
      <trkpt lat="48.85776" lon="2.35353">
        <ele>90.3</ele>
        <time>2015-01-12T19:25:00.714Z</time>
      </trkpt>
      <trkpt lat="48.85771" lon="2.35362">
        <ele>89.3</ele>
        <time>2015-01-12T19:25:03.692Z</time>
      </trkpt>
      <trkpt lat="48.8577" lon="2.35366">
        <ele>88.9</ele>
        <time>2015-01-12T19:25:04.720Z</time>
      </trkpt>
      <trkpt lat="48.85765" lon="2.35371">
        <ele>88.4</ele>
        <time>2015-01-12T19:25:06.721Z</time>
      </trkpt>
      <trkpt lat="48.85762" lon="2.35372">
        <ele>88</ele>
        <time>2015-01-12T19:25:07.727Z</time>
      </trkpt>
      <trkpt lat="48.8576" lon="2.35384">
        <ele>87.4</ele>
        <time>2015-01-12T19:25:11.733Z</time>
      </trkpt>
      <trkpt lat="48.85759" lon="2.35387">
        <ele>87.4</ele>
        <time>2015-01-12T19:25:12.716Z</time>
      </trkpt>
      <trkpt lat="48.85753" lon="2.35396">
        <ele>87.8</ele>
        <time>2015-01-12T19:25:18.324Z</time>
      </trkpt>
      <trkpt lat="48.85751" lon="2.35399">
        <ele>87.9</ele>
        <time>2015-01-12T19:25:19.342Z</time>
      </trkpt>
      <trkpt lat="48.85747" lon="2.35407">
        <ele>87.4</ele>
        <time>2015-01-12T19:25:21.352Z</time>
      </trkpt>
      <trkpt lat="48.85744" lon="2.35412">
        <ele>87.3</ele>
        <time>2015-01-12T19:25:22.350Z</time>
      </trkpt>
      <trkpt lat="48.85738" lon="2.35421">
        <ele>86.3</ele>
        <time>2015-01-12T19:25:24.257Z</time>
      </trkpt>
      <trkpt lat="48.85735" lon="2.35425">
        <ele>85.9</ele>
        <time>2015-01-12T19:25:25.313Z</time>
      </trkpt>
      <trkpt lat="48.85731" lon="2.35435">
        <ele>85.1</ele>
        <time>2015-01-12T19:25:27.362Z</time>
      </trkpt>
      <trkpt lat="48.85729" lon="2.3544">
        <ele>84.8</ele>
        <time>2015-01-12T19:25:28.383Z</time>
      </trkpt>
      <trkpt lat="48.85724" lon="2.35449">
        <ele>83.6</ele>
        <time>2015-01-12T19:25:31.018Z</time>
      </trkpt>
      <trkpt lat="48.85721" lon="2.35452">
        <ele>82.8</ele>
        <time>2015-01-12T19:25:31.281Z</time>
      </trkpt>
      <trkpt lat="48.85715" lon="2.35459">
        <ele>81.6</ele>
        <time>2015-01-12T19:25:33.309Z</time>
      </trkpt>
      <trkpt lat="48.85713" lon="2.35462">
        <ele>81.5</ele>
        <time>2015-01-12T19:25:34.297Z</time>
      </trkpt>
      <trkpt lat="48.85708" lon="2.35473">
        <ele>82.1</ele>
        <time>2015-01-12T19:25:37.229Z</time>
      </trkpt>
      <trkpt lat="48.85705" lon="2.35477">
        <ele>82.3</ele>
        <time>2015-01-12T19:25:38.278Z</time>
      </trkpt>
      <trkpt lat="48.85702" lon="2.35486">
        <ele>82.4</ele>
        <time>2015-01-12T19:25:40.389Z</time>
      </trkpt>
      <trkpt lat="48.85699" lon="2.3549">
        <ele>82.5</ele>
        <time>2015-01-12T19:25:41.338Z</time>
      </trkpt>
      <trkpt lat="48.85695" lon="2.35501">
        <ele>82.6</ele>
        <time>2015-01-12T19:25:44.540Z</time>
      </trkpt>
      <trkpt lat="48.85694" lon="2.35505">
        <ele>82.7</ele>
        <time>2015-01-12T19:25:45.342Z</time>
      </trkpt>
      <trkpt lat="48.85696" lon="2.35518">
        <ele>83.7</ele>
        <time>2015-01-12T19:25:48.357Z</time>
      </trkpt>
      <trkpt lat="48.85698" lon="2.35523">
        <ele>84</ele>
        <time>2015-01-12T19:25:49.298Z</time>
      </trkpt>
      <trkpt lat="48.85732" lon="2.35589">
        <ele>86.6</ele>
        <time>2015-01-12T19:26:03.259Z</time>
      </trkpt>
      <trkpt lat="48.85779" lon="2.35687">
        <ele>94</ele>
        <time>2015-01-12T19:26:23.386Z</time>
      </trkpt>
      <trkpt lat="48.85782" lon="2.35698">
        <ele>93.3</ele>
        <time>2015-01-12T19:26:25.320Z</time>
      </trkpt>
      <trkpt lat="48.85782" lon="2.35701">
        <ele>93.7</ele>
        <time>2015-01-12T19:26:26.330Z</time>
      </trkpt>
      <trkpt lat="48.85784" lon="2.35711">
        <ele>92.6</ele>
        <time>2015-01-12T19:26:28.450Z</time>
      </trkpt>
      <trkpt lat="48.85785" lon="2.35715">
        <ele>91.6</ele>
        <time>2015-01-12T19:26:29.349Z</time>
      </trkpt>
      <trkpt lat="48.85784" lon="2.35724">
        <ele>90.5</ele>
        <time>2015-01-12T19:26:31.297Z</time>
      </trkpt>
      <trkpt lat="48.85783" lon="2.35731">
        <ele>89.5</ele>
        <time>2015-01-12T19:26:32.392Z</time>
      </trkpt>
      <trkpt lat="48.85783" lon="2.35744">
        <ele>87.2</ele>
        <time>2015-01-12T19:26:34.322Z</time>
      </trkpt>
      <trkpt lat="48.85785" lon="2.3575">
        <ele>86.3</ele>
        <time>2015-01-12T19:26:35.270Z</time>
      </trkpt>
      <trkpt lat="48.85789" lon="2.35762">
        <ele>85.4</ele>
        <time>2015-01-12T19:26:37.294Z</time>
      </trkpt>
      <trkpt lat="48.85792" lon="2.35767">
        <ele>85.5</ele>
        <time>2015-01-12T19:26:38.308Z</time>
      </trkpt>
      <trkpt lat="48.85798" lon="2.35778">
        <ele>86.3</ele>
        <time>2015-01-12T19:26:40.399Z</time>
      </trkpt>
      <trkpt lat="48.85801" lon="2.35782">
        <ele>86.3</ele>
        <time>2015-01-12T19:26:41.281Z</time>
      </trkpt>
      <trkpt lat="48.85808" lon="2.3579">
        <ele>88.3</ele>
        <time>2015-01-12T19:26:43.317Z</time>
      </trkpt>
      <trkpt lat="48.85811" lon="2.35794">
        <ele>87.7</ele>
        <time>2015-01-12T19:26:44.329Z</time>
      </trkpt>
      <trkpt lat="48.85833" lon="2.35795">
        <ele>81.7</ele>
        <time>2015-01-12T19:26:49.285Z</time>
      </trkpt>
      <trkpt lat="48.85837" lon="2.35792">
        <ele>80.1</ele>
        <time>2015-01-12T19:26:50.348Z</time>
      </trkpt>
      <trkpt lat="48.85841" lon="2.35789">
        <ele>78.5</ele>
        <time>2015-01-12T19:26:51.349Z</time>
      </trkpt>
      <trkpt lat="48.8584" lon="2.35801">
        <ele>80.3</ele>
        <time>2015-01-12T19:26:55.400Z</time>
      </trkpt>
      <trkpt lat="48.85837" lon="2.35805">
        <ele>80.6</ele>
        <time>2015-01-12T19:26:56.344Z</time>
      </trkpt>
      <trkpt lat="48.85832" lon="2.35811">
        <ele>81.4</ele>
        <time>2015-01-12T19:26:58.362Z</time>
      </trkpt>
      <trkpt lat="48.8583" lon="2.35813">
        <ele>82</ele>
        <time>2015-01-12T19:26:59.373Z</time>
      </trkpt>
      <trkpt lat="48.85826" lon="2.35823">
        <ele>82.9</ele>
        <time>2015-01-12T19:27:02.348Z</time>
      </trkpt>
      <trkpt lat="48.85825" lon="2.35826">
        <ele>82.6</ele>
        <time>2015-01-12T19:27:03.352Z</time>
      </trkpt>
      <trkpt lat="48.85827" lon="2.35837">
        <ele>80.6</ele>
        <time>2015-01-12T19:27:06.302Z</time>
      </trkpt>
      <trkpt lat="48.85829" lon="2.3584">
        <ele>80</ele>
        <time>2015-01-12T19:27:07.322Z</time>
      </trkpt>
      <trkpt lat="48.85835" lon="2.35848">
        <ele>79.3</ele>
        <time>2015-01-12T19:27:09.345Z</time>
      </trkpt>
      <trkpt lat="48.85839" lon="2.35853">
        <ele>78.8</ele>
        <time>2015-01-12T19:27:10.379Z</time>
      </trkpt>
      <trkpt lat="48.85845" lon="2.35859">
        <ele>78.5</ele>
        <time>2015-01-12T19:27:12.289Z</time>
      </trkpt>
      <trkpt lat="48.85848" lon="2.35863">
        <ele>78.8</ele>
        <time>2015-01-12T19:27:13.315Z</time>
      </trkpt>
      <trkpt lat="48.85852" lon="2.35868">
        <ele>81.6</ele>
        <time>2015-01-12T19:27:14.353Z</time>
      </trkpt>
      <trkpt lat="48.85855" lon="2.35873">
        <ele>84.8</ele>
        <time>2015-01-12T19:27:15.361Z</time>
      </trkpt>
      <trkpt lat="48.85857" lon="2.35883">
        <ele>87.4</ele>
        <time>2015-01-12T19:27:17.312Z</time>
      </trkpt>
      <trkpt lat="48.85857" lon="2.35887">
        <ele>87.2</ele>
        <time>2015-01-12T19:27:18.326Z</time>
      </trkpt>
      <trkpt lat="48.85852" lon="2.35897">
        <ele>86</ele>
        <time>2015-01-12T19:27:21.366Z</time>
      </trkpt>
      <trkpt lat="48.8585" lon="2.359">
        <ele>85.2</ele>
        <time>2015-01-12T19:27:22.388Z</time>
      </trkpt>
      <trkpt lat="48.85845" lon="2.35911">
        <ele>85.3</ele>
        <time>2015-01-12T19:27:25.337Z</time>
      </trkpt>
      <trkpt lat="48.85843" lon="2.35914">
        <ele>85.9</ele>
        <time>2015-01-12T19:27:26.353Z</time>
      </trkpt>
      <trkpt lat="48.85836" lon="2.35917">
        <ele>87.6</ele>
        <time>2015-01-12T19:27:30.354Z</time>
      </trkpt>
      <trkpt lat="48.85833" lon="2.35917">
        <ele>87.8</ele>
        <time>2015-01-12T19:27:32.376Z</time>
      </trkpt>
      <trkpt lat="48.85825" lon="2.35923">
        <ele>87.9</ele>
        <time>2015-01-12T19:27:35.314Z</time>
      </trkpt>
      <trkpt lat="48.85823" lon="2.35927">
        <ele>87.8</ele>
        <time>2015-01-12T19:27:36.434Z</time>
      </trkpt>
      <trkpt lat="48.85817" lon="2.35934">
        <ele>87.8</ele>
        <time>2015-01-12T19:27:38.390Z</time>
      </trkpt>
      <trkpt lat="48.85814" lon="2.35939">
        <ele>87.8</ele>
        <time>2015-01-12T19:27:39.301Z</time>
      </trkpt>
      <trkpt lat="48.8581" lon="2.35944">
        <ele>87.7</ele>
        <time>2015-01-12T19:27:40.266Z</time>
      </trkpt>
      <trkpt lat="48.85807" lon="2.35949">
        <ele>87.7</ele>
        <time>2015-01-12T19:27:41.304Z</time>
      </trkpt>
      <trkpt lat="48.85804" lon="2.35954">
        <ele>87.7</ele>
        <time>2015-01-12T19:27:42.318Z</time>
      </trkpt>
      <trkpt lat="48.85801" lon="2.35959">
        <ele>87.7</ele>
        <time>2015-01-12T19:27:43.336Z</time>
      </trkpt>
      <trkpt lat="48.85796" lon="2.35969">
        <ele>88</ele>
        <time>2015-01-12T19:27:45.367Z</time>
      </trkpt>
      <trkpt lat="48.85795" lon="2.35972">
        <ele>88</ele>
        <time>2015-01-12T19:27:46.369Z</time>
      </trkpt>
      <trkpt lat="48.8579" lon="2.35981">
        <ele>86.9</ele>
        <time>2015-01-12T19:27:48.267Z</time>
      </trkpt>
      <trkpt lat="48.85788" lon="2.35986">
        <ele>86.7</ele>
        <time>2015-01-12T19:27:49.296Z</time>
      </trkpt>
      <trkpt lat="48.85785" lon="2.35996">
        <ele>86.6</ele>
        <time>2015-01-12T19:27:51.315Z</time>
      </trkpt>
      <trkpt lat="48.85783" lon="2.36002">
        <ele>86.5</ele>
        <time>2015-01-12T19:27:52.341Z</time>
      </trkpt>
      <trkpt lat="48.85778" lon="2.36013">
        <ele>86.5</ele>
        <time>2015-01-12T19:27:54.336Z</time>
      </trkpt>
      <trkpt lat="48.85776" lon="2.36019">
        <ele>86.4</ele>
        <time>2015-01-12T19:27:55.366Z</time>
      </trkpt>
      <trkpt lat="48.85773" lon="2.36029">
        <ele>86.5</ele>
        <time>2015-01-12T19:27:57.309Z</time>
      </trkpt>
      <trkpt lat="48.85771" lon="2.36034">
        <ele>86.6</ele>
        <time>2015-01-12T19:27:58.335Z</time>
      </trkpt>
      <trkpt lat="48.85768" lon="2.36042">
        <ele>86.1</ele>
        <time>2015-01-12T19:28:00.348Z</time>
      </trkpt>
      <trkpt lat="48.85766" lon="2.36046">
        <ele>85.9</ele>
        <time>2015-01-12T19:28:01.362Z</time>
      </trkpt>
      <trkpt lat="48.85761" lon="2.36053">
        <ele>85.7</ele>
        <time>2015-01-12T19:28:03.300Z</time>
      </trkpt>
      <trkpt lat="48.85757" lon="2.36056">
        <ele>85.7</ele>
        <time>2015-01-12T19:28:04.313Z</time>
      </trkpt>
      <trkpt lat="48.85753" lon="2.36061">
        <ele>85.7</ele>
        <time>2015-01-12T19:28:06.180Z</time>
      </trkpt>
      <trkpt lat="48.85749" lon="2.36066">
        <ele>85.7</ele>
        <time>2015-01-12T19:28:06.367Z</time>
      </trkpt>
      <trkpt lat="48.85746" lon="2.36071">
        <ele>85.7</ele>
        <time>2015-01-12T19:28:07.369Z</time>
      </trkpt>
      <trkpt lat="48.85743" lon="2.36078">
        <ele>85.6</ele>
        <time>2015-01-12T19:28:08.393Z</time>
      </trkpt>
      <trkpt lat="48.85741" lon="2.36084">
        <ele>85.6</ele>
        <time>2015-01-12T19:28:09.296Z</time>
      </trkpt>
      <trkpt lat="48.85738" lon="2.36092">
        <ele>85.3</ele>
        <time>2015-01-12T19:28:10.299Z</time>
      </trkpt>
      <trkpt lat="48.85736" lon="2.36098">
        <ele>85.2</ele>
        <time>2015-01-12T19:28:11.419Z</time>
      </trkpt>
      <trkpt lat="48.85733" lon="2.36105">
        <ele>85.2</ele>
        <time>2015-01-12T19:28:12.296Z</time>
      </trkpt>
      <trkpt lat="48.85731" lon="2.36111">
        <ele>85.3</ele>
        <time>2015-01-12T19:28:13.318Z</time>
      </trkpt>
      <trkpt lat="48.85729" lon="2.36117">
        <ele>85.2</ele>
        <time>2015-01-12T19:28:14.355Z</time>
      </trkpt>
      <trkpt lat="48.85724" lon="2.36128">
        <ele>85</ele>
        <time>2015-01-12T19:28:16.267Z</time>
      </trkpt>
      <trkpt lat="48.85722" lon="2.36133">
        <ele>84.8</ele>
        <time>2015-01-12T19:28:17.269Z</time>
      </trkpt>
      <trkpt lat="48.85725" lon="2.36141">
        <ele>84.7</ele>
        <time>2015-01-12T19:28:18.287Z</time>
      </trkpt>
      <trkpt lat="48.85723" lon="2.36151">
        <ele>84.9</ele>
        <time>2015-01-12T19:28:20.333Z</time>
      </trkpt>
      <trkpt lat="48.8572" lon="2.3616">
        <ele>85.2</ele>
        <time>2015-01-12T19:28:22.342Z</time>
      </trkpt>
      <trkpt lat="48.85719" lon="2.36164">
        <ele>85.3</ele>
        <time>2015-01-12T19:28:23.357Z</time>
      </trkpt>
      <trkpt lat="48.85716" lon="2.36176">
        <ele>85.9</ele>
        <time>2015-01-12T19:28:26.309Z</time>
      </trkpt>
      <trkpt lat="48.85714" lon="2.36191">
        <ele>86.7</ele>
        <time>2015-01-12T19:28:29.291Z</time>
      </trkpt>
      <trkpt lat="48.85711" lon="2.36203">
        <ele>88.9</ele>
        <time>2015-01-12T19:28:31.307Z</time>
      </trkpt>
      <trkpt lat="48.8571" lon="2.36209">
        <ele>89.1</ele>
        <time>2015-01-12T19:28:32.314Z</time>
      </trkpt>
      <trkpt lat="48.85706" lon="2.36218">
        <ele>88.5</ele>
        <time>2015-01-12T19:28:34.360Z</time>
      </trkpt>
      <trkpt lat="48.85706" lon="2.36222">
        <ele>88.5</ele>
        <time>2015-01-12T19:28:35.268Z</time>
      </trkpt>
      <trkpt lat="48.85705" lon="2.36226">
        <ele>88.6</ele>
        <time>2015-01-12T19:28:36.437Z</time>
      </trkpt>
      <trkpt lat="48.85696" lon="2.36252">
        <ele>88.1</ele>
        <time>2015-01-12T19:28:41.292Z</time>
      </trkpt>
      <trkpt lat="48.85692" lon="2.36264">
        <ele>87.8</ele>
        <time>2015-01-12T19:28:44.319Z</time>
      </trkpt>
      <trkpt lat="48.85691" lon="2.36268">
        <ele>87.6</ele>
        <time>2015-01-12T19:28:45.354Z</time>
      </trkpt>
      <trkpt lat="48.8569" lon="2.36281">
        <ele>87.4</ele>
        <time>2015-01-12T19:28:47.322Z</time>
      </trkpt>
      <trkpt lat="48.85689" lon="2.36289">
        <ele>87.4</ele>
        <time>2015-01-12T19:28:48.379Z</time>
      </trkpt>
      <trkpt lat="48.85689" lon="2.36302">
        <ele>87.2</ele>
        <time>2015-01-12T19:28:50.307Z</time>
      </trkpt>
      <trkpt lat="48.85687" lon="2.36308">
        <ele>87</ele>
        <time>2015-01-12T19:28:51.351Z</time>
      </trkpt>
      <trkpt lat="48.85682" lon="2.36318">
        <ele>86.5</ele>
        <time>2015-01-12T19:28:53.281Z</time>
      </trkpt>
      <trkpt lat="48.8568" lon="2.36325">
        <ele>86.3</ele>
        <time>2015-01-12T19:28:54.313Z</time>
      </trkpt>
      <trkpt lat="48.85678" lon="2.36331">
        <ele>86.1</ele>
        <time>2015-01-12T19:28:55.381Z</time>
      </trkpt>
      <trkpt lat="48.85675" lon="2.36338">
        <ele>86.1</ele>
        <time>2015-01-12T19:28:56.401Z</time>
      </trkpt>
      <trkpt lat="48.85673" lon="2.36345">
        <ele>86.1</ele>
        <time>2015-01-12T19:28:57.361Z</time>
      </trkpt>
      <trkpt lat="48.85672" lon="2.36351">
        <ele>86</ele>
        <time>2015-01-12T19:28:58.295Z</time>
      </trkpt>
      <trkpt lat="48.8567" lon="2.36363">
        <ele>85.9</ele>
        <time>2015-01-12T19:29:00.444Z</time>
      </trkpt>
      <trkpt lat="48.85668" lon="2.36368">
        <ele>85.8</ele>
        <time>2015-01-12T19:29:01.259Z</time>
      </trkpt>
      <trkpt lat="48.85665" lon="2.3638">
        <ele>85.6</ele>
        <time>2015-01-12T19:29:03.287Z</time>
      </trkpt>
      <trkpt lat="48.85665" lon="2.36386">
        <ele>85.5</ele>
        <time>2015-01-12T19:29:04.288Z</time>
      </trkpt>
      <trkpt lat="48.85665" lon="2.36398">
        <ele>85.1</ele>
        <time>2015-01-12T19:29:05.341Z</time>
      </trkpt>
      <trkpt lat="48.85663" lon="2.36406">
        <ele>86.4</ele>
        <time>2015-01-12T19:29:06.347Z</time>
      </trkpt>
      <trkpt lat="48.85657" lon="2.36413">
        <ele>91.1</ele>
        <time>2015-01-12T19:29:09.376Z</time>
      </trkpt>
      <trkpt lat="48.85656" lon="2.36415">
        <ele>91.8</ele>
        <time>2015-01-12T19:29:10.285Z</time>
      </trkpt>
      <trkpt lat="48.85661" lon="2.36425">
        <ele>92.4</ele>
        <time>2015-01-12T19:29:16.299Z</time>
      </trkpt>
      <trkpt lat="48.85662" lon="2.36427">
        <ele>92.2</ele>
        <time>2015-01-12T19:29:17.301Z</time>
      </trkpt>
      <trkpt lat="48.85667" lon="2.36432">
        <ele>92.2</ele>
        <time>2015-01-12T19:29:20.373Z</time>
      </trkpt>
      <trkpt lat="48.8567" lon="2.36433">
        <ele>92</ele>
        <time>2015-01-12T19:29:21.400Z</time>
      </trkpt>
      <trkpt lat="48.85677" lon="2.36436">
        <ele>92.3</ele>
        <time>2015-01-12T19:29:23.298Z</time>
      </trkpt>
      <trkpt lat="48.85682" lon="2.36437">
        <ele>92.5</ele>
        <time>2015-01-12T19:29:24.319Z</time>
      </trkpt>
      <trkpt lat="48.85686" lon="2.36438">
        <ele>92.7</ele>
        <time>2015-01-12T19:29:25.331Z</time>
      </trkpt>
      <trkpt lat="48.8569" lon="2.36438">
        <ele>92.9</ele>
        <time>2015-01-12T19:29:26.336Z</time>
      </trkpt>
      <trkpt lat="48.85698" lon="2.36441">
        <ele>93.5</ele>
        <time>2015-01-12T19:29:28.317Z</time>
      </trkpt>
      <trkpt lat="48.85701" lon="2.36442">
        <ele>93.8</ele>
        <time>2015-01-12T19:29:29.311Z</time>
      </trkpt>
      <trkpt lat="48.85708" lon="2.36445">
        <ele>93.9</ele>
        <time>2015-01-12T19:29:31.388Z</time>
      </trkpt>
      <trkpt lat="48.85713" lon="2.36447">
        <ele>94</ele>
        <time>2015-01-12T19:29:32.485Z</time>
      </trkpt>
      <trkpt lat="48.85717" lon="2.36448">
        <ele>94</ele>
        <time>2015-01-12T19:29:33.327Z</time>
      </trkpt>
      <trkpt lat="48.85722" lon="2.36449">
        <ele>94.1</ele>
        <time>2015-01-12T19:29:34.339Z</time>
      </trkpt>
      <trkpt lat="48.85728" lon="2.36451">
        <ele>94.1</ele>
        <time>2015-01-12T19:29:35.348Z</time>
      </trkpt>
      <trkpt lat="48.85733" lon="2.36451">
        <ele>94.1</ele>
        <time>2015-01-12T19:29:36.358Z</time>
      </trkpt>
      <trkpt lat="48.85741" lon="2.36455">
        <ele>93.9</ele>
        <time>2015-01-12T19:29:38.389Z</time>
      </trkpt>
      <trkpt lat="48.85746" lon="2.36461">
        <ele>93.4</ele>
        <time>2015-01-12T19:29:39.275Z</time>
      </trkpt>
      <trkpt lat="48.85749" lon="2.36472">
        <ele>93.4</ele>
        <time>2015-01-12T19:29:42.320Z</time>
      </trkpt>
      <trkpt lat="48.85748" lon="2.36477">
        <ele>93.4</ele>
        <time>2015-01-12T19:29:43.307Z</time>
      </trkpt>
      <trkpt lat="48.85747" lon="2.36489">
        <ele>93.5</ele>
        <time>2015-01-12T19:29:45.347Z</time>
      </trkpt>
      <trkpt lat="48.85746" lon="2.36496">
        <ele>93.8</ele>
        <time>2015-01-12T19:29:46.263Z</time>
      </trkpt>
      <trkpt lat="48.85746" lon="2.36507">
        <ele>93.8</ele>
        <time>2015-01-12T19:29:48.300Z</time>
      </trkpt>
      <trkpt lat="48.85746" lon="2.36512">
        <ele>93.7</ele>
        <time>2015-01-12T19:29:49.363Z</time>
      </trkpt>
      <trkpt lat="48.85746" lon="2.36522">
        <ele>93.4</ele>
        <time>2015-01-12T19:29:51.364Z</time>
      </trkpt>
      <trkpt lat="48.85745" lon="2.36529">
        <ele>93.6</ele>
        <time>2015-01-12T19:29:52.387Z</time>
      </trkpt>
      <trkpt lat="48.85743" lon="2.36539">
        <ele>93.7</ele>
        <time>2015-01-12T19:29:54.302Z</time>
      </trkpt>
      <trkpt lat="48.85742" lon="2.36544">
        <ele>93.8</ele>
        <time>2015-01-12T19:29:55.309Z</time>
      </trkpt>
      <trkpt lat="48.85739" lon="2.36555">
        <ele>93.8</ele>
        <time>2015-01-12T19:29:57.337Z</time>
      </trkpt>
      <trkpt lat="48.85736" lon="2.3656">
        <ele>93.5</ele>
        <time>2015-01-12T19:29:58.355Z</time>
      </trkpt>
      <trkpt lat="48.85733" lon="2.3657">
        <ele>93.2</ele>
        <time>2015-01-12T19:30:00.276Z</time>
      </trkpt>
      <trkpt lat="48.85732" lon="2.36575">
        <ele>92.8</ele>
        <time>2015-01-12T19:30:01.339Z</time>
      </trkpt>
      <trkpt lat="48.85729" lon="2.3658">
        <ele>92.6</ele>
        <time>2015-01-12T19:30:02.401Z</time>
      </trkpt>
      <trkpt lat="48.85725" lon="2.36586">
        <ele>92.1</ele>
        <time>2015-01-12T19:30:03.369Z</time>
      </trkpt>
      <trkpt lat="48.85722" lon="2.36597">
        <ele>92.2</ele>
        <time>2015-01-12T19:30:05.302Z</time>
      </trkpt>
      <trkpt lat="48.85722" lon="2.36605">
        <ele>92.4</ele>
        <time>2015-01-12T19:30:06.377Z</time>
      </trkpt>
      <trkpt lat="48.85721" lon="2.36617">
        <ele>92.4</ele>
        <time>2015-01-12T19:30:08.317Z</time>
      </trkpt>
      <trkpt lat="48.85721" lon="2.36624">
        <ele>92.2</ele>
        <time>2015-01-12T19:30:09.265Z</time>
      </trkpt>
      <trkpt lat="48.8572" lon="2.36631">
        <ele>92</ele>
        <time>2015-01-12T19:30:10.353Z</time>
      </trkpt>
      <trkpt lat="48.8572" lon="2.36638">
        <ele>92</ele>
        <time>2015-01-12T19:30:11.416Z</time>
      </trkpt>
      <trkpt lat="48.8572" lon="2.36647">
        <ele>92.2</ele>
        <time>2015-01-12T19:30:12.263Z</time>
      </trkpt>
      <trkpt lat="48.8572" lon="2.36653">
        <ele>92.1</ele>
        <time>2015-01-12T19:30:13.269Z</time>
      </trkpt>
      <trkpt lat="48.85717" lon="2.36663">
        <ele>92.4</ele>
        <time>2015-01-12T19:30:15.331Z</time>
      </trkpt>
      <trkpt lat="48.85715" lon="2.36668">
        <ele>92.4</ele>
        <time>2015-01-12T19:30:16.346Z</time>
      </trkpt>
      <trkpt lat="48.85711" lon="2.36677">
        <ele>93</ele>
        <time>2015-01-12T19:30:18.296Z</time>
      </trkpt>
      <trkpt lat="48.85707" lon="2.36683">
        <ele>92.6</ele>
        <time>2015-01-12T19:30:19.311Z</time>
      </trkpt>
      <trkpt lat="48.85702" lon="2.36688">
        <ele>92.6</ele>
        <time>2015-01-12T19:30:20.332Z</time>
      </trkpt>
      <trkpt lat="48.857" lon="2.36693">
        <ele>92.4</ele>
        <time>2015-01-12T19:30:21.343Z</time>
      </trkpt>
      <trkpt lat="48.85695" lon="2.36703">
        <ele>92.5</ele>
        <time>2015-01-12T19:30:24.306Z</time>
      </trkpt>
      <trkpt lat="48.85693" lon="2.36705">
        <ele>92.6</ele>
        <time>2015-01-12T19:30:25.336Z</time>
      </trkpt>
      <trkpt lat="48.85702" lon="2.36701">
        <ele>92.9</ele>
        <time>2015-01-12T19:30:32.488Z</time>
      </trkpt>
      <trkpt lat="48.85705" lon="2.36698">
        <ele>92.8</ele>
        <time>2015-01-12T19:30:33.274Z</time>
      </trkpt>
      <trkpt lat="48.85712" lon="2.36694">
        <ele>92.6</ele>
        <time>2015-01-12T19:30:35.336Z</time>
      </trkpt>
      <trkpt lat="48.85716" lon="2.36693">
        <ele>92.6</ele>
        <time>2015-01-12T19:30:36.363Z</time>
      </trkpt>
      <trkpt lat="48.85721" lon="2.36692">
        <ele>92.7</ele>
        <time>2015-01-12T19:30:37.294Z</time>
      </trkpt>
      <trkpt lat="48.85727" lon="2.36692">
        <ele>92.8</ele>
        <time>2015-01-12T19:30:38.333Z</time>
      </trkpt>
      <trkpt lat="48.85737" lon="2.36696">
        <ele>93.9</ele>
        <time>2015-01-12T19:30:39.342Z</time>
      </trkpt>
      <trkpt lat="48.85745" lon="2.36698">
        <ele>94.9</ele>
        <time>2015-01-12T19:30:40.368Z</time>
      </trkpt>
      <trkpt lat="48.8575" lon="2.36699">
        <ele>95</ele>
        <time>2015-01-12T19:30:41.380Z</time>
      </trkpt>
      <trkpt lat="48.85754" lon="2.36701">
        <ele>95</ele>
        <time>2015-01-12T19:30:42.383Z</time>
      </trkpt>
      <trkpt lat="48.8576" lon="2.36704">
        <ele>94.9</ele>
        <time>2015-01-12T19:30:43.304Z</time>
      </trkpt>
      <trkpt lat="48.85764" lon="2.36706">
        <ele>94.9</ele>
        <time>2015-01-12T19:30:44.428Z</time>
      </trkpt>
      <trkpt lat="48.85769" lon="2.36709">
        <ele>95</ele>
        <time>2015-01-12T19:30:45.296Z</time>
      </trkpt>
      <trkpt lat="48.85777" lon="2.3671">
        <ele>95.2</ele>
        <time>2015-01-12T19:30:47.305Z</time>
      </trkpt>
      <trkpt lat="48.8578" lon="2.36709">
        <ele>95.3</ele>
        <time>2015-01-12T19:30:48.327Z</time>
      </trkpt>
      <trkpt lat="48.85789" lon="2.36713">
        <ele>95.5</ele>
        <time>2015-01-12T19:30:51.296Z</time>
      </trkpt>
      <trkpt lat="48.85792" lon="2.36713">
        <ele>95.6</ele>
        <time>2015-01-12T19:30:52.309Z</time>
      </trkpt>
      <trkpt lat="48.85799" lon="2.36716">
        <ele>95.8</ele>
        <time>2015-01-12T19:30:54.352Z</time>
      </trkpt>
      <trkpt lat="48.85802" lon="2.36718">
        <ele>95.9</ele>
        <time>2015-01-12T19:30:55.364Z</time>
      </trkpt>
      <trkpt lat="48.85809" lon="2.36721">
        <ele>96.2</ele>
        <time>2015-01-12T19:30:57.296Z</time>
      </trkpt>
      <trkpt lat="48.85813" lon="2.36723">
        <ele>96.4</ele>
        <time>2015-01-12T19:30:58.332Z</time>
      </trkpt>
      <trkpt lat="48.85817" lon="2.36725">
        <ele>96.3</ele>
        <time>2015-01-12T19:30:59.367Z</time>
      </trkpt>
      <trkpt lat="48.85822" lon="2.36729">
        <ele>96.2</ele>
        <time>2015-01-12T19:31:00.393Z</time>
      </trkpt>
      <trkpt lat="48.85827" lon="2.36735">
        <ele>95.8</ele>
        <time>2015-01-12T19:31:01.273Z</time>
      </trkpt>
      <trkpt lat="48.85831" lon="2.3674">
        <ele>95.7</ele>
        <time>2015-01-12T19:31:02.339Z</time>
      </trkpt>
      <trkpt lat="48.85835" lon="2.36744">
        <ele>95.7</ele>
        <time>2015-01-12T19:31:03.362Z</time>
      </trkpt>
      <trkpt lat="48.85838" lon="2.36748">
        <ele>95.5</ele>
        <time>2015-01-12T19:31:04.359Z</time>
      </trkpt>
      <trkpt lat="48.85843" lon="2.36751">
        <ele>95.5</ele>
        <time>2015-01-12T19:31:05.382Z</time>
      </trkpt>
      <trkpt lat="48.8585" lon="2.36754">
        <ele>95.1</ele>
        <time>2015-01-12T19:31:06.296Z</time>
      </trkpt>
      <trkpt lat="48.85856" lon="2.36763">
        <ele>95.1</ele>
        <time>2015-01-12T19:31:10.746Z</time>
      </trkpt>
      <trkpt lat="48.85857" lon="2.36766">
        <ele>95.3</ele>
        <time>2015-01-12T19:31:11.273Z</time>
      </trkpt>
      <trkpt lat="48.8586" lon="2.36775">
        <ele>103.9</ele>
        <time>2015-01-12T19:31:35.382Z</time>
      </trkpt>
      <trkpt lat="48.8586" lon="2.36782">
        <ele>106</ele>
        <time>2015-01-12T19:31:36.291Z</time>
      </trkpt>
      <trkpt lat="48.85859" lon="2.36783">
        <ele>106.4</ele>
        <time>2015-01-12T19:31:37.969Z</time>
      </trkpt>
      <trkpt lat="48.85859" lon="2.36783">
        <ele>106.7</ele>
        <time>2015-01-12T19:31:38.386Z</time>
      </trkpt>
      <trkpt lat="48.85859" lon="2.36783">
        <ele>107.3</ele>
        <time>2015-01-12T19:31:43.295Z</time>
      </trkpt>
      <trkpt lat="48.85861" lon="2.36787">
        <ele>108.4</ele>
        <time>2015-01-12T19:31:44.411Z</time>
      </trkpt>
      <trkpt lat="48.85859" lon="2.36799">
        <ele>109.2</ele>
        <time>2015-01-12T19:31:50.283Z</time>
      </trkpt>
      <trkpt lat="48.85859" lon="2.36801">
        <ele>109.3</ele>
        <time>2015-01-12T19:31:50.381Z</time>
      </trkpt>
      <trkpt lat="48.85863" lon="2.36813">
        <ele>108.9</ele>
        <time>2015-01-12T19:31:59.307Z</time>
      </trkpt>
      <trkpt lat="48.85864" lon="2.36815">
        <ele>108.8</ele>
        <time>2015-01-12T19:32:00.312Z</time>
      </trkpt>
      <trkpt lat="48.85867" lon="2.36826">
        <ele>107.6</ele>
        <time>2015-01-12T19:32:05.748Z</time>
      </trkpt>
      <trkpt lat="48.85867" lon="2.36828">
        <ele>107.3</ele>
        <time>2015-01-12T19:32:06.364Z</time>
      </trkpt>
      <trkpt lat="48.85867" lon="2.3683">
        <ele>107.1</ele>
        <time>2015-01-12T19:32:08.394Z</time>
      </trkpt>
      <trkpt lat="48.85867" lon="2.3683">
        <ele>107</ele>
        <time>2015-01-12T19:32:09.433Z</time>
      </trkpt>
      <trkpt lat="48.85867" lon="2.36831">
        <ele>107.2</ele>
        <time>2015-01-12T19:32:10.815Z</time>
      </trkpt>
      <trkpt lat="48.85865" lon="2.36834">
        <ele>108.7</ele>
        <time>2015-01-12T19:32:11.316Z</time>
      </trkpt>
      <trkpt lat="48.85865" lon="2.36835">
        <ele>109</ele>
        <time>2015-01-12T19:32:12.336Z</time>
      </trkpt>
      <trkpt lat="48.85865" lon="2.36835">
        <ele>109.2</ele>
        <time>2015-01-12T19:32:13.363Z</time>
      </trkpt>
      <trkpt lat="48.85864" lon="2.36833">
        <ele>109.2</ele>
        <time>2015-01-12T19:32:16.294Z</time>
      </trkpt>
      <trkpt lat="48.85865" lon="2.36833">
        <ele>109.3</ele>
        <time>2015-01-12T19:32:17.304Z</time>
      </trkpt>
      <trkpt lat="48.85865" lon="2.36834">
        <ele>109.4</ele>
        <time>2015-01-12T19:32:21.001Z</time>
      </trkpt>
      <trkpt lat="48.85865" lon="2.36834">
        <ele>109.5</ele>
        <time>2015-01-12T19:32:21.280Z</time>
      </trkpt>
      <trkpt lat="48.85863" lon="2.36832">
        <ele>109.1</ele>
        <time>2015-01-12T19:32:24.352Z</time>
      </trkpt>
      <trkpt lat="48.85862" lon="2.36834">
        <ele>109</ele>
        <time>2015-01-12T19:32:25.371Z</time>
      </trkpt>
      <trkpt lat="48.85862" lon="2.36834">
        <ele>109</ele>
        <time>2015-01-12T19:32:26.026Z</time>
      </trkpt>
      <trkpt lat="48.85862" lon="2.36835">
        <ele>109</ele>
        <time>2015-01-12T19:32:26.408Z</time>
      </trkpt>
      <trkpt lat="48.85864" lon="2.36836">
        <ele>109.8</ele>
        <time>2015-01-12T19:32:30.333Z</time>
      </trkpt>
      <trkpt lat="48.85864" lon="2.36836">
        <ele>109.7</ele>
        <time>2015-01-12T19:32:31.339Z</time>
      </trkpt>
      <trkpt lat="48.85863" lon="2.36836">
        <ele>109.5</ele>
        <time>2015-01-12T19:32:35.295Z</time>
      </trkpt>
      <trkpt lat="48.85863" lon="2.36836">
        <ele>109.3</ele>
        <time>2015-01-12T19:32:36.269Z</time>
      </trkpt>
      <trkpt lat="48.85856" lon="2.36843">
        <ele>110.2</ele>
        <time>2015-01-12T19:32:49.756Z</time>
      </trkpt>
      <trkpt lat="48.85855" lon="2.36844">
        <ele>110.1</ele>
        <time>2015-01-12T19:32:50.691Z</time>
      </trkpt>
      <trkpt lat="48.85852" lon="2.36845">
        <ele>109.5</ele>
        <time>2015-01-12T19:32:57.768Z</time>
      </trkpt>
      <trkpt lat="48.85852" lon="2.36845">
        <ele>109.5</ele>
        <time>2015-01-12T19:32:58.760Z</time>
      </trkpt>
      <trkpt lat="48.85852" lon="2.36845">
        <ele>109.5</ele>
        <time>2015-01-12T19:32:59.681Z</time>
      </trkpt>
      <trkpt lat="48.85852" lon="2.36844">
        <ele>109.5</ele>
        <time>2015-01-12T19:33:00.753Z</time>
      </trkpt>
      <trkpt lat="48.85852" lon="2.36844">
        <ele>109.4</ele>
        <time>2015-01-12T19:33:01.778Z</time>
      </trkpt>
      <trkpt lat="48.85852" lon="2.36844">
        <ele>109.5</ele>
        <time>2015-01-12T19:33:02.660Z</time>
      </trkpt>
      <trkpt lat="48.85853" lon="2.36845">
        <ele>109.8</ele>
        <time>2015-01-12T19:33:03.682Z</time>
      </trkpt>
      <trkpt lat="48.85849" lon="2.36856">
        <ele>109.9</ele>
        <time>2015-01-12T19:33:11.711Z</time>
      </trkpt>
      <trkpt lat="48.85848" lon="2.36858">
        <ele>110</ele>
        <time>2015-01-12T19:33:12.736Z</time>
      </trkpt>
      <trkpt lat="48.8584" lon="2.3686">
        <ele>109.9</ele>
        <time>2015-01-12T19:33:15.647Z</time>
      </trkpt>
      <trkpt lat="48.85836" lon="2.3686">
        <ele>109.8</ele>
        <time>2015-01-12T19:33:16.657Z</time>
      </trkpt>
      <trkpt lat="48.8583" lon="2.36858">
        <ele>109.7</ele>
        <time>2015-01-12T19:33:18.671Z</time>
      </trkpt>
      <trkpt lat="48.85827" lon="2.36857">
        <ele>109.6</ele>
        <time>2015-01-12T19:33:19.680Z</time>
      </trkpt>
      <trkpt lat="48.8582" lon="2.36857">
        <ele>109.3</ele>
        <time>2015-01-12T19:33:21.730Z</time>
      </trkpt>
      <trkpt lat="48.85817" lon="2.36856">
        <ele>109</ele>
        <time>2015-01-12T19:33:22.738Z</time>
      </trkpt>
      <trkpt lat="48.85809" lon="2.36856">
        <ele>108.7</ele>
        <time>2015-01-12T19:33:26.074Z</time>
      </trkpt>
      <trkpt lat="48.85807" lon="2.36855">
        <ele>108.6</ele>
        <time>2015-01-12T19:33:26.653Z</time>
      </trkpt>
      <trkpt lat="48.85801" lon="2.36855">
        <ele>108.4</ele>
        <time>2015-01-12T19:33:28.698Z</time>
      </trkpt>
      <trkpt lat="48.85796" lon="2.36856">
        <ele>108.5</ele>
        <time>2015-01-12T19:33:29.692Z</time>
      </trkpt>
      <trkpt lat="48.85791" lon="2.36858">
        <ele>108.8</ele>
        <time>2015-01-12T19:33:31.248Z</time>
      </trkpt>
      <trkpt lat="48.85786" lon="2.36859">
        <ele>108.8</ele>
        <time>2015-01-12T19:33:31.768Z</time>
      </trkpt>
      <trkpt lat="48.85781" lon="2.36861">
        <ele>108.7</ele>
        <time>2015-01-12T19:33:32.672Z</time>
      </trkpt>
      <trkpt lat="48.85777" lon="2.36862">
        <ele>108.7</ele>
        <time>2015-01-12T19:33:33.691Z</time>
      </trkpt>
      <trkpt lat="48.85772" lon="2.36863">
        <ele>108.6</ele>
        <time>2015-01-12T19:33:34.699Z</time>
      </trkpt>
      <trkpt lat="48.85767" lon="2.36865">
        <ele>108</ele>
        <time>2015-01-12T19:33:35.730Z</time>
      </trkpt>
      <trkpt lat="48.85759" lon="2.36866">
        <ele>107.7</ele>
        <time>2015-01-12T19:33:36.655Z</time>
      </trkpt>
      <trkpt lat="48.8575" lon="2.36869">
        <ele>107</ele>
        <time>2015-01-12T19:33:37.664Z</time>
      </trkpt>
      <trkpt lat="48.85741" lon="2.36873">
        <ele>106.1</ele>
        <time>2015-01-12T19:33:39.683Z</time>
      </trkpt>
      <trkpt lat="48.85737" lon="2.36874">
        <ele>105.9</ele>
        <time>2015-01-12T19:33:40.635Z</time>
      </trkpt>
      <trkpt lat="48.85729" lon="2.36877">
        <ele>105.3</ele>
        <time>2015-01-12T19:33:44.747Z</time>
      </trkpt>
      <trkpt lat="48.85727" lon="2.36878">
        <ele>105.3</ele>
        <time>2015-01-12T19:33:45.763Z</time>
      </trkpt>
      <trkpt lat="48.8572" lon="2.36881">
        <ele>105.8</ele>
        <time>2015-01-12T19:33:49.471Z</time>
      </trkpt>
      <trkpt lat="48.85717" lon="2.36884">
        <ele>105.9</ele>
        <time>2015-01-12T19:33:49.854Z</time>
      </trkpt>
      <trkpt lat="48.8571" lon="2.36886">
        <ele>105.8</ele>
        <time>2015-01-12T19:33:52.785Z</time>
      </trkpt>
      <trkpt lat="48.85706" lon="2.36888">
        <ele>105.7</ele>
        <time>2015-01-12T19:33:53.754Z</time>
      </trkpt>
      <trkpt lat="48.85702" lon="2.3689">
        <ele>105.6</ele>
        <time>2015-01-12T19:33:54.663Z</time>
      </trkpt>
      <trkpt lat="48.85698" lon="2.36893">
        <ele>105.7</ele>
        <time>2015-01-12T19:33:55.715Z</time>
      </trkpt>
      <trkpt lat="48.85693" lon="2.36894">
        <ele>105.2</ele>
        <time>2015-01-12T19:33:56.721Z</time>
      </trkpt>
      <trkpt lat="48.85687" lon="2.36897">
        <ele>104.8</ele>
        <time>2015-01-12T19:33:57.726Z</time>
      </trkpt>
      <trkpt lat="48.85683" lon="2.36898">
        <ele>104.7</ele>
        <time>2015-01-12T19:33:58.751Z</time>
      </trkpt>
      <trkpt lat="48.85678" lon="2.36899">
        <ele>104.5</ele>
        <time>2015-01-12T19:33:59.749Z</time>
      </trkpt>
      <trkpt lat="48.85674" lon="2.369">
        <ele>104.3</ele>
        <time>2015-01-12T19:34:00.665Z</time>
      </trkpt>
      <trkpt lat="48.85669" lon="2.36902">
        <ele>104.1</ele>
        <time>2015-01-12T19:34:01.699Z</time>
      </trkpt>
      <trkpt lat="48.85662" lon="2.36903">
        <ele>104</ele>
        <time>2015-01-12T19:34:04.616Z</time>
      </trkpt>
      <trkpt lat="48.85658" lon="2.36904">
        <ele>104</ele>
        <time>2015-01-12T19:34:04.750Z</time>
      </trkpt>
      <trkpt lat="48.85651" lon="2.36907">
        <ele>103.7</ele>
        <time>2015-01-12T19:34:06.719Z</time>
      </trkpt>
      <trkpt lat="48.85646" lon="2.36909">
        <ele>103.3</ele>
        <time>2015-01-12T19:34:07.709Z</time>
      </trkpt>
      <trkpt lat="48.85641" lon="2.36914">
        <ele>102.7</ele>
        <time>2015-01-12T19:34:08.738Z</time>
      </trkpt>
      <trkpt lat="48.85636" lon="2.36917">
        <ele>102.4</ele>
        <time>2015-01-12T19:34:09.660Z</time>
      </trkpt>
      <trkpt lat="48.85629" lon="2.36923">
        <ele>102.4</ele>
        <time>2015-01-12T19:34:11.660Z</time>
      </trkpt>
      <trkpt lat="48.85627" lon="2.36925">
        <ele>102.5</ele>
        <time>2015-01-12T19:34:12.755Z</time>
      </trkpt>
      <trkpt lat="48.85622" lon="2.36929">
        <ele>102.6</ele>
        <time>2015-01-12T19:34:14.745Z</time>
      </trkpt>
      <trkpt lat="48.85619" lon="2.3693">
        <ele>102.7</ele>
        <time>2015-01-12T19:34:15.758Z</time>
      </trkpt>
      <trkpt lat="48.85611" lon="2.36932">
        <ele>103</ele>
        <time>2015-01-12T19:34:17.656Z</time>
      </trkpt>
      <trkpt lat="48.85606" lon="2.36933">
        <ele>103.1</ele>
        <time>2015-01-12T19:34:18.665Z</time>
      </trkpt>
      <trkpt lat="48.85598" lon="2.36935">
        <ele>103.4</ele>
        <time>2015-01-12T19:34:20.696Z</time>
      </trkpt>
      <trkpt lat="48.85593" lon="2.36936">
        <ele>103.5</ele>
        <time>2015-01-12T19:34:21.705Z</time>
      </trkpt>
      <trkpt lat="48.85584" lon="2.36938">
        <ele>103.7</ele>
        <time>2015-01-12T19:34:23.720Z</time>
      </trkpt>
      <trkpt lat="48.8558" lon="2.3694">
        <ele>103.7</ele>
        <time>2015-01-12T19:34:24.729Z</time>
      </trkpt>
      <trkpt lat="48.85576" lon="2.36942">
        <ele>103.8</ele>
        <time>2015-01-12T19:34:25.738Z</time>
      </trkpt>
      <trkpt lat="48.85571" lon="2.36944">
        <ele>104.1</ele>
        <time>2015-01-12T19:34:26.751Z</time>
      </trkpt>
      <trkpt lat="48.85567" lon="2.36945">
        <ele>104.2</ele>
        <time>2015-01-12T19:34:27.665Z</time>
      </trkpt>
      <trkpt lat="48.85561" lon="2.36947">
        <ele>104.2</ele>
        <time>2015-01-12T19:34:28.771Z</time>
      </trkpt>
      <trkpt lat="48.85553" lon="2.36951">
        <ele>103.8</ele>
        <time>2015-01-12T19:34:29.951Z</time>
      </trkpt>
      <trkpt lat="48.85546" lon="2.36954">
        <ele>103.6</ele>
        <time>2015-01-12T19:34:30.656Z</time>
      </trkpt>
      <trkpt lat="48.85537" lon="2.36955">
        <ele>103.9</ele>
        <time>2015-01-12T19:34:31.676Z</time>
      </trkpt>
      <trkpt lat="48.85525" lon="2.36956">
        <ele>104.3</ele>
        <time>2015-01-12T19:34:32.703Z</time>
      </trkpt>
      <trkpt lat="48.85516" lon="2.36958">
        <ele>104.5</ele>
        <time>2015-01-12T19:34:33.726Z</time>
      </trkpt>
      <trkpt lat="48.8551" lon="2.36959">
        <ele>104.7</ele>
        <time>2015-01-12T19:34:34.724Z</time>
      </trkpt>
      <trkpt lat="48.85504" lon="2.36962">
        <ele>104.8</ele>
        <time>2015-01-12T19:34:35.742Z</time>
      </trkpt>
      <trkpt lat="48.85499" lon="2.36963">
        <ele>105.1</ele>
        <time>2015-01-12T19:34:36.650Z</time>
      </trkpt>
      <trkpt lat="48.85495" lon="2.36965">
        <ele>105.4</ele>
        <time>2015-01-12T19:34:37.709Z</time>
      </trkpt>
      <trkpt lat="48.8549" lon="2.36967">
        <ele>105.9</ele>
        <time>2015-01-12T19:34:38.704Z</time>
      </trkpt>
      <trkpt lat="48.85484" lon="2.36971">
        <ele>106.6</ele>
        <time>2015-01-12T19:34:41.652Z</time>
      </trkpt>
      <trkpt lat="48.85482" lon="2.36973">
        <ele>107</ele>
        <time>2015-01-12T19:34:42.688Z</time>
      </trkpt>
      <trkpt lat="48.85481" lon="2.36975">
        <ele>107.2</ele>
        <time>2015-01-12T19:34:43.697Z</time>
      </trkpt>
      <trkpt lat="48.85473" lon="2.36978">
        <ele>106.2</ele>
        <time>2015-01-12T19:34:47.681Z</time>
      </trkpt>
      <trkpt lat="48.85471" lon="2.36979">
        <ele>106.4</ele>
        <time>2015-01-12T19:34:48.692Z</time>
      </trkpt>
      <trkpt lat="48.85464" lon="2.3698">
        <ele>106.9</ele>
        <time>2015-01-12T19:34:51.727Z</time>
      </trkpt>
      <trkpt lat="48.8546" lon="2.36981">
        <ele>107.4</ele>
        <time>2015-01-12T19:34:52.742Z</time>
      </trkpt>
      <trkpt lat="48.85452" lon="2.36979">
        <ele>106.7</ele>
        <time>2015-01-12T19:34:55.924Z</time>
      </trkpt>
      <trkpt lat="48.85449" lon="2.3698">
        <ele>106.7</ele>
        <time>2015-01-12T19:34:56.736Z</time>
      </trkpt>
      <trkpt lat="48.85441" lon="2.36978">
        <ele>105.8</ele>
        <time>2015-01-12T19:35:01.489Z</time>
      </trkpt>
      <trkpt lat="48.85438" lon="2.36978">
        <ele>105.9</ele>
        <time>2015-01-12T19:35:01.726Z</time>
      </trkpt>
      <trkpt lat="48.85431" lon="2.36979">
        <ele>105.2</ele>
        <time>2015-01-12T19:35:04.724Z</time>
      </trkpt>
      <trkpt lat="48.85427" lon="2.36979">
        <ele>104.3</ele>
        <time>2015-01-12T19:35:04.761Z</time>
      </trkpt>
      <trkpt lat="48.8542" lon="2.36976">
        <ele>103.5</ele>
        <time>2015-01-12T19:35:06.756Z</time>
      </trkpt>
      <trkpt lat="48.85417" lon="2.36974">
        <ele>103.2</ele>
        <time>2015-01-12T19:35:07.758Z</time>
      </trkpt>
      <trkpt lat="48.8541" lon="2.36971">
        <ele>102.6</ele>
        <time>2015-01-12T19:35:09.733Z</time>
      </trkpt>
      <trkpt lat="48.85407" lon="2.36969">
        <ele>102.5</ele>
        <time>2015-01-12T19:35:10.713Z</time>
      </trkpt>
      <trkpt lat="48.854" lon="2.36966">
        <ele>101.9</ele>
        <time>2015-01-12T19:35:12.755Z</time>
      </trkpt>
      <trkpt lat="48.85396" lon="2.36963">
        <ele>101.6</ele>
        <time>2015-01-12T19:35:13.757Z</time>
      </trkpt>
      <trkpt lat="48.8539" lon="2.36957">
        <ele>100.8</ele>
        <time>2015-01-12T19:35:15.775Z</time>
      </trkpt>
      <trkpt lat="48.85386" lon="2.36954">
        <ele>100</ele>
        <time>2015-01-12T19:35:16.793Z</time>
      </trkpt>
      <trkpt lat="48.85378" lon="2.3695">
        <ele>98.6</ele>
        <time>2015-01-12T19:35:19.944Z</time>
      </trkpt>
      <trkpt lat="48.85376" lon="2.36948">
        <ele>98.2</ele>
        <time>2015-01-12T19:35:20.763Z</time>
      </trkpt>
      <trkpt lat="48.8537" lon="2.36958">
        <ele>97.9</ele>
        <time>2015-01-12T19:35:26.740Z</time>
      </trkpt>
      <trkpt lat="48.8537" lon="2.36962">
        <ele>97.8</ele>
        <time>2015-01-12T19:35:27.755Z</time>
      </trkpt>
      <trkpt lat="48.85365" lon="2.36973">
        <ele>97.5</ele>
        <time>2015-01-12T19:35:30.687Z</time>
      </trkpt>
      <trkpt lat="48.85364" lon="2.36976">
        <ele>97.3</ele>
        <time>2015-01-12T19:35:31.728Z</time>
      </trkpt>
      <trkpt lat="48.85359" lon="2.36984">
        <ele>97.1</ele>
        <time>2015-01-12T19:35:35.141Z</time>
      </trkpt>
      <trkpt lat="48.85357" lon="2.36986">
        <ele>96.9</ele>
        <time>2015-01-12T19:35:35.768Z</time>
      </trkpt>
      <trkpt lat="48.85349" lon="2.36991">
        <ele>96.4</ele>
        <time>2015-01-12T19:35:38.738Z</time>
      </trkpt>
      <trkpt lat="48.85347" lon="2.36991">
        <ele>96</ele>
        <time>2015-01-12T19:35:39.740Z</time>
      </trkpt>
      <trkpt lat="48.8534" lon="2.36996">
        <ele>95.8</ele>
        <time>2015-01-12T19:35:43.911Z</time>
      </trkpt>
      <trkpt lat="48.85338" lon="2.36996">
        <ele>95.8</ele>
        <time>2015-01-12T19:35:44.750Z</time>
      </trkpt>
      <trkpt lat="48.85332" lon="2.37006">
        <ele>93.4</ele>
        <time>2015-01-12T19:35:54.506Z</time>
      </trkpt>
      <trkpt lat="48.85331" lon="2.37006">
        <ele>93.5</ele>
        <time>2015-01-12T19:35:54.690Z</time>
      </trkpt>
      <trkpt lat="48.85331" lon="2.37006">
        <ele>93.3</ele>
        <time>2015-01-12T19:35:55.722Z</time>
      </trkpt>
      <trkpt lat="48.8533" lon="2.37006">
        <ele>93</ele>
        <time>2015-01-12T19:35:56.720Z</time>
      </trkpt>
      <trkpt lat="48.85323" lon="2.37012">
        <ele>91.2</ele>
        <time>2015-01-12T19:36:02.780Z</time>
      </trkpt>
      <trkpt lat="48.85322" lon="2.37014">
        <ele>91.1</ele>
        <time>2015-01-12T19:36:03.687Z</time>
      </trkpt>
      <trkpt lat="48.85318" lon="2.37023">
        <ele>90.8</ele>
        <time>2015-01-12T19:36:06.722Z</time>
      </trkpt>
      <trkpt lat="48.85317" lon="2.37026">
        <ele>90.8</ele>
        <time>2015-01-12T19:36:07.748Z</time>
      </trkpt>
      <trkpt lat="48.85311" lon="2.37036">
        <ele>91.4</ele>
        <time>2015-01-12T19:36:10.784Z</time>
      </trkpt>
      <trkpt lat="48.85309" lon="2.37039">
        <ele>91.4</ele>
        <time>2015-01-12T19:36:11.681Z</time>
      </trkpt>
      <trkpt lat="48.85304" lon="2.37047">
        <ele>91.4</ele>
        <time>2015-01-12T19:36:14.763Z</time>
      </trkpt>
      <trkpt lat="48.85301" lon="2.37049">
        <ele>91.4</ele>
        <time>2015-01-12T19:36:15.729Z</time>
      </trkpt>
      <trkpt lat="48.85296" lon="2.37054">
        <ele>91.4</ele>
        <time>2015-01-12T19:36:17.722Z</time>
      </trkpt>
      <trkpt lat="48.85294" lon="2.37057">
        <ele>91.3</ele>
        <time>2015-01-12T19:36:18.732Z</time>
      </trkpt>
      <trkpt lat="48.85289" lon="2.37065">
        <ele>91.2</ele>
        <time>2015-01-12T19:36:21.392Z</time>
      </trkpt>
      <trkpt lat="48.85285" lon="2.37069">
        <ele>91.1</ele>
        <time>2015-01-12T19:36:21.747Z</time>
      </trkpt>
      <trkpt lat="48.85281" lon="2.37073">
        <ele>91</ele>
        <time>2015-01-12T19:36:22.688Z</time>
      </trkpt>
      <trkpt lat="48.85277" lon="2.37076">
        <ele>91</ele>
        <time>2015-01-12T19:36:23.695Z</time>
      </trkpt>
      <trkpt lat="48.85272" lon="2.3708">
        <ele>90.9</ele>
        <time>2015-01-12T19:36:24.849Z</time>
      </trkpt>
      <trkpt lat="48.85267" lon="2.37084">
        <ele>90.8</ele>
        <time>2015-01-12T19:36:25.702Z</time>
      </trkpt>
      <trkpt lat="48.85263" lon="2.37087">
        <ele>90.7</ele>
        <time>2015-01-12T19:36:26.717Z</time>
      </trkpt>
      <trkpt lat="48.85259" lon="2.37091">
        <ele>90.8</ele>
        <time>2015-01-12T19:36:27.744Z</time>
      </trkpt>
      <trkpt lat="48.85256" lon="2.37095">
        <ele>90.9</ele>
        <time>2015-01-12T19:36:28.665Z</time>
      </trkpt>
      <trkpt lat="48.85252" lon="2.37101">
        <ele>90.8</ele>
        <time>2015-01-12T19:36:29.669Z</time>
      </trkpt>
      <trkpt lat="48.85248" lon="2.37106">
        <ele>90.8</ele>
        <time>2015-01-12T19:36:30.693Z</time>
      </trkpt>
      <trkpt lat="48.85243" lon="2.3711">
        <ele>90.7</ele>
        <time>2015-01-12T19:36:31.747Z</time>
      </trkpt>
      <trkpt lat="48.85237" lon="2.37113">
        <ele>90.4</ele>
        <time>2015-01-12T19:36:32.653Z</time>
      </trkpt>
      <trkpt lat="48.85233" lon="2.37116">
        <ele>90.4</ele>
        <time>2015-01-12T19:36:33.662Z</time>
      </trkpt>
      <trkpt lat="48.85228" lon="2.3712">
        <ele>90.4</ele>
        <time>2015-01-12T19:36:34.705Z</time>
      </trkpt>
      <trkpt lat="48.85223" lon="2.37125">
        <ele>90.3</ele>
        <time>2015-01-12T19:36:35.712Z</time>
      </trkpt>
      <trkpt lat="48.85218" lon="2.37129">
        <ele>90.2</ele>
        <time>2015-01-12T19:36:36.725Z</time>
      </trkpt>
      <trkpt lat="48.85212" lon="2.37133">
        <ele>90.1</ele>
        <time>2015-01-12T19:36:37.759Z</time>
      </trkpt>
      <trkpt lat="48.85207" lon="2.37137">
        <ele>90</ele>
        <time>2015-01-12T19:36:38.636Z</time>
      </trkpt>
      <trkpt lat="48.85202" lon="2.37142">
        <ele>89.9</ele>
        <time>2015-01-12T19:36:39.645Z</time>
      </trkpt>
      <trkpt lat="48.85198" lon="2.37147">
        <ele>89.8</ele>
        <time>2015-01-12T19:36:40.664Z</time>
      </trkpt>
      <trkpt lat="48.85193" lon="2.3715">
        <ele>89.6</ele>
        <time>2015-01-12T19:36:42.081Z</time>
      </trkpt>
      <trkpt lat="48.85189" lon="2.37153">
        <ele>89.5</ele>
        <time>2015-01-12T19:36:42.666Z</time>
      </trkpt>
      <trkpt lat="48.85184" lon="2.37156">
        <ele>89.3</ele>
        <time>2015-01-12T19:36:43.673Z</time>
      </trkpt>
      <trkpt lat="48.85176" lon="2.37161">
        <ele>89.2</ele>
        <time>2015-01-12T19:36:45.698Z</time>
      </trkpt>
      <trkpt lat="48.85172" lon="2.37163">
        <ele>89.1</ele>
        <time>2015-01-12T19:36:46.710Z</time>
      </trkpt>
      <trkpt lat="48.85165" lon="2.37169">
        <ele>88.9</ele>
        <time>2015-01-12T19:36:48.738Z</time>
      </trkpt>
      <trkpt lat="48.85162" lon="2.37171">
        <ele>88.9</ele>
        <time>2015-01-12T19:36:49.754Z</time>
      </trkpt>
      <trkpt lat="48.85157" lon="2.37176">
        <ele>88.7</ele>
        <time>2015-01-12T19:36:51.653Z</time>
      </trkpt>
      <trkpt lat="48.85154" lon="2.37179">
        <ele>88.5</ele>
        <time>2015-01-12T19:36:52.680Z</time>
      </trkpt>
      <trkpt lat="48.85149" lon="2.37188">
        <ele>88.1</ele>
        <time>2015-01-12T19:36:54.775Z</time>
      </trkpt>
      <trkpt lat="48.85146" lon="2.37192">
        <ele>88</ele>
        <time>2015-01-12T19:36:55.716Z</time>
      </trkpt>
      <trkpt lat="48.85141" lon="2.372">
        <ele>88.3</ele>
        <time>2015-01-12T19:36:57.736Z</time>
      </trkpt>
      <trkpt lat="48.8514" lon="2.37208">
        <ele>89</ele>
        <time>2015-01-12T19:36:58.998Z</time>
      </trkpt>
      <trkpt lat="48.85138" lon="2.37218">
        <ele>89.6</ele>
        <time>2015-01-12T19:37:00.724Z</time>
      </trkpt>
      <trkpt lat="48.85136" lon="2.37222">
        <ele>89.5</ele>
        <time>2015-01-12T19:37:01.767Z</time>
      </trkpt>
      <trkpt lat="48.8513" lon="2.37231">
        <ele>89.1</ele>
        <time>2015-01-12T19:37:03.712Z</time>
      </trkpt>
      <trkpt lat="48.85127" lon="2.37236">
        <ele>89</ele>
        <time>2015-01-12T19:37:04.720Z</time>
      </trkpt>
      <trkpt lat="48.85119" lon="2.37241">
        <ele>89</ele>
        <time>2015-01-12T19:37:06.738Z</time>
      </trkpt>
      <trkpt lat="48.85116" lon="2.37244">
        <ele>89.1</ele>
        <time>2015-01-12T19:37:07.756Z</time>
      </trkpt>
      <trkpt lat="48.85109" lon="2.37251">
        <ele>89.4</ele>
        <time>2015-01-12T19:37:09.671Z</time>
      </trkpt>
      <trkpt lat="48.85104" lon="2.37254">
        <ele>89.5</ele>
        <time>2015-01-12T19:37:10.679Z</time>
      </trkpt>
      <trkpt lat="48.851" lon="2.37258">
        <ele>89.6</ele>
        <time>2015-01-12T19:37:11.721Z</time>
      </trkpt>
      <trkpt lat="48.85096" lon="2.37264">
        <ele>89.6</ele>
        <time>2015-01-12T19:37:12.743Z</time>
      </trkpt>
      <trkpt lat="48.85092" lon="2.37268">
        <ele>89.7</ele>
        <time>2015-01-12T19:37:13.777Z</time>
      </trkpt>
      <trkpt lat="48.85087" lon="2.37273">
        <ele>89.7</ele>
        <time>2015-01-12T19:37:14.680Z</time>
      </trkpt>
      <trkpt lat="48.85082" lon="2.37276">
        <ele>89.7</ele>
        <time>2015-01-12T19:37:15.672Z</time>
      </trkpt>
      <trkpt lat="48.85077" lon="2.37279">
        <ele>89.8</ele>
        <time>2015-01-12T19:37:16.677Z</time>
      </trkpt>
      <trkpt lat="48.85069" lon="2.37283">
        <ele>89.7</ele>
        <time>2015-01-12T19:37:18.710Z</time>
      </trkpt>
      <trkpt lat="48.85065" lon="2.37285">
        <ele>89.7</ele>
        <time>2015-01-12T19:37:19.725Z</time>
      </trkpt>
      <trkpt lat="48.85059" lon="2.37293">
        <ele>90</ele>
        <time>2015-01-12T19:37:21.668Z</time>
      </trkpt>
      <trkpt lat="48.85057" lon="2.37301">
        <ele>90</ele>
        <time>2015-01-12T19:37:22.683Z</time>
      </trkpt>
      <trkpt lat="48.85055" lon="2.37309">
        <ele>89.9</ele>
        <time>2015-01-12T19:37:23.672Z</time>
      </trkpt>
      <trkpt lat="48.85052" lon="2.37314">
        <ele>89.7</ele>
        <time>2015-01-12T19:37:24.664Z</time>
      </trkpt>
      <trkpt lat="48.85046" lon="2.37323">
        <ele>90.1</ele>
        <time>2015-01-12T19:37:26.705Z</time>
      </trkpt>
      <trkpt lat="48.85042" lon="2.37327">
        <ele>90.3</ele>
        <time>2015-01-12T19:37:27.708Z</time>
      </trkpt>
      <trkpt lat="48.85035" lon="2.37333">
        <ele>90.7</ele>
        <time>2015-01-12T19:37:29.729Z</time>
      </trkpt>
      <trkpt lat="48.85032" lon="2.37336">
        <ele>90.9</ele>
        <time>2015-01-12T19:37:30.744Z</time>
      </trkpt>
      <trkpt lat="48.85028" lon="2.3734">
        <ele>91.1</ele>
        <time>2015-01-12T19:37:31.751Z</time>
      </trkpt>
      <trkpt lat="48.85023" lon="2.37347">
        <ele>91.4</ele>
        <time>2015-01-12T19:37:32.647Z</time>
      </trkpt>
      <trkpt lat="48.85017" lon="2.37355">
        <ele>91.3</ele>
        <time>2015-01-12T19:37:34.677Z</time>
      </trkpt>
      <trkpt lat="48.85014" lon="2.37359">
        <ele>91.3</ele>
        <time>2015-01-12T19:37:35.678Z</time>
      </trkpt>
      <trkpt lat="48.8501" lon="2.37365">
        <ele>91.3</ele>
        <time>2015-01-12T19:37:36.695Z</time>
      </trkpt>
      <trkpt lat="48.85007" lon="2.37371">
        <ele>91.3</ele>
        <time>2015-01-12T19:37:37.746Z</time>
      </trkpt>
      <trkpt lat="48.85001" lon="2.37379">
        <ele>91.4</ele>
        <time>2015-01-12T19:37:39.692Z</time>
      </trkpt>
      <trkpt lat="48.84999" lon="2.37382">
        <ele>91.4</ele>
        <time>2015-01-12T19:37:40.678Z</time>
      </trkpt>
      <trkpt lat="48.84994" lon="2.37393">
        <ele>91.6</ele>
        <time>2015-01-12T19:37:42.701Z</time>
      </trkpt>
      <trkpt lat="48.84992" lon="2.37398">
        <ele>91.8</ele>
        <time>2015-01-12T19:37:43.710Z</time>
      </trkpt>
      <trkpt lat="48.84985" lon="2.37405">
        <ele>91.7</ele>
        <time>2015-01-12T19:37:46.142Z</time>
      </trkpt>
      <trkpt lat="48.84983" lon="2.37408">
        <ele>91.7</ele>
        <time>2015-01-12T19:37:46.685Z</time>
      </trkpt>
      <trkpt lat="48.84976" lon="2.37416">
        <ele>91.5</ele>
        <time>2015-01-12T19:37:50.663Z</time>
      </trkpt>
      <trkpt lat="48.84974" lon="2.37417">
        <ele>91.5</ele>
        <time>2015-01-12T19:37:51.681Z</time>
      </trkpt>
      <trkpt lat="48.84972" lon="2.37421">
        <ele>90.6</ele>
        <time>2015-01-12T19:37:56.742Z</time>
      </trkpt>
      <trkpt lat="48.84972" lon="2.37422">
        <ele>90.5</ele>
        <time>2015-01-12T19:37:57.749Z</time>
      </trkpt>
      <trkpt lat="48.8497" lon="2.37422">
        <ele>90.6</ele>
        <time>2015-01-12T19:37:58.654Z</time>
      </trkpt>
      <trkpt lat="48.84965" lon="2.37432">
        <ele>91.5</ele>
        <time>2015-01-12T19:38:02.067Z</time>
      </trkpt>
      <trkpt lat="48.84963" lon="2.37436">
        <ele>91.8</ele>
        <time>2015-01-12T19:38:02.761Z</time>
      </trkpt>
      <trkpt lat="48.8496" lon="2.37445">
        <ele>91.9</ele>
        <time>2015-01-12T19:38:06.650Z</time>
      </trkpt>
      <trkpt lat="48.84959" lon="2.37448">
        <ele>91.9</ele>
        <time>2015-01-12T19:38:06.738Z</time>
      </trkpt>
      <trkpt lat="48.84954" lon="2.37456">
        <ele>91.7</ele>
        <time>2015-01-12T19:38:08.731Z</time>
      </trkpt>
      <trkpt lat="48.8495" lon="2.37458">
        <ele>91.7</ele>
        <time>2015-01-12T19:38:09.735Z</time>
      </trkpt>
      <trkpt lat="48.84944" lon="2.37465">
        <ele>91.8</ele>
        <time>2015-01-12T19:38:11.753Z</time>
      </trkpt>
      <trkpt lat="48.84941" lon="2.37469">
        <ele>91.7</ele>
        <time>2015-01-12T19:38:12.762Z</time>
      </trkpt>
      <trkpt lat="48.84937" lon="2.37473">
        <ele>91.8</ele>
        <time>2015-01-12T19:38:13.777Z</time>
      </trkpt>
      <trkpt lat="48.84933" lon="2.37476">
        <ele>91.8</ele>
        <time>2015-01-12T19:38:14.739Z</time>
      </trkpt>
      <trkpt lat="48.84927" lon="2.37478">
        <ele>91.4</ele>
        <time>2015-01-12T19:38:15.776Z</time>
      </trkpt>
      <trkpt lat="48.84922" lon="2.37479">
        <ele>91.2</ele>
        <time>2015-01-12T19:38:16.680Z</time>
      </trkpt>
      <trkpt lat="48.84914" lon="2.37487">
        <ele>91.6</ele>
        <time>2015-01-12T19:38:18.716Z</time>
      </trkpt>
      <trkpt lat="48.84911" lon="2.37489">
        <ele>91.6</ele>
        <time>2015-01-12T19:38:19.809Z</time>
      </trkpt>
      <trkpt lat="48.84903" lon="2.37494">
        <ele>91.6</ele>
        <time>2015-01-12T19:38:21.661Z</time>
      </trkpt>
      <trkpt lat="48.84899" lon="2.37497">
        <ele>91.6</ele>
        <time>2015-01-12T19:38:22.688Z</time>
      </trkpt>
      <trkpt lat="48.84893" lon="2.37504">
        <ele>91.5</ele>
        <time>2015-01-12T19:38:24.727Z</time>
      </trkpt>
      <trkpt lat="48.8489" lon="2.37507">
        <ele>91.4</ele>
        <time>2015-01-12T19:38:25.746Z</time>
      </trkpt>
      <trkpt lat="48.84883" lon="2.37514">
        <ele>91.1</ele>
        <time>2015-01-12T19:38:27.757Z</time>
      </trkpt>
      <trkpt lat="48.8488" lon="2.37518">
        <ele>90.9</ele>
        <time>2015-01-12T19:38:28.723Z</time>
      </trkpt>
      <trkpt lat="48.84876" lon="2.37526">
        <ele>90.6</ele>
        <time>2015-01-12T19:38:30.693Z</time>
      </trkpt>
      <trkpt lat="48.84873" lon="2.37529">
        <ele>90.4</ele>
        <time>2015-01-12T19:38:31.816Z</time>
      </trkpt>
      <trkpt lat="48.84868" lon="2.37535">
        <ele>90.3</ele>
        <time>2015-01-12T19:38:33.683Z</time>
      </trkpt>
      <trkpt lat="48.84866" lon="2.37539">
        <ele>90.3</ele>
        <time>2015-01-12T19:38:34.709Z</time>
      </trkpt>
      <trkpt lat="48.84862" lon="2.37546">
        <ele>90.3</ele>
        <time>2015-01-12T19:38:36.757Z</time>
      </trkpt>
      <trkpt lat="48.8486" lon="2.3755">
        <ele>90.4</ele>
        <time>2015-01-12T19:38:37.774Z</time>
      </trkpt>
      <trkpt lat="48.84857" lon="2.37561">
        <ele>90.5</ele>
        <time>2015-01-12T19:38:39.988Z</time>
      </trkpt>
      <trkpt lat="48.84854" lon="2.37565">
        <ele>90.5</ele>
        <time>2015-01-12T19:38:40.859Z</time>
      </trkpt>
      <trkpt lat="48.84846" lon="2.37573">
        <ele>90.6</ele>
        <time>2015-01-12T19:38:42.697Z</time>
      </trkpt>
      <trkpt lat="48.84843" lon="2.37576">
        <ele>90.7</ele>
        <time>2015-01-12T19:38:43.812Z</time>
      </trkpt>
      <trkpt lat="48.84836" lon="2.37582">
        <ele>90.6</ele>
        <time>2015-01-12T19:38:45.677Z</time>
      </trkpt>
      <trkpt lat="48.84833" lon="2.37589">
        <ele>90.1</ele>
        <time>2015-01-12T19:38:46.679Z</time>
      </trkpt>
      <trkpt lat="48.84828" lon="2.376">
        <ele>90.1</ele>
        <time>2015-01-12T19:38:49.397Z</time>
      </trkpt>
      <trkpt lat="48.84824" lon="2.37603">
        <ele>90.2</ele>
        <time>2015-01-12T19:38:49.763Z</time>
      </trkpt>
      <trkpt lat="48.84819" lon="2.37608">
        <ele>90.2</ele>
        <time>2015-01-12T19:38:51.687Z</time>
      </trkpt>
      <trkpt lat="48.84817" lon="2.37612">
        <ele>90.2</ele>
        <time>2015-01-12T19:38:52.695Z</time>
      </trkpt>
      <trkpt lat="48.84814" lon="2.3762">
        <ele>90.3</ele>
        <time>2015-01-12T19:38:54.721Z</time>
      </trkpt>
      <trkpt lat="48.84813" lon="2.37624">
        <ele>90.4</ele>
        <time>2015-01-12T19:38:55.732Z</time>
      </trkpt>
      <trkpt lat="48.84809" lon="2.37636">
        <ele>89.8</ele>
        <time>2015-01-12T19:38:57.774Z</time>
      </trkpt>
      <trkpt lat="48.84807" lon="2.37642">
        <ele>90</ele>
        <time>2015-01-12T19:38:58.646Z</time>
      </trkpt>
      <trkpt lat="48.84801" lon="2.37651">
        <ele>90.1</ele>
        <time>2015-01-12T19:39:01.533Z</time>
      </trkpt>
      <trkpt lat="48.84797" lon="2.37654">
        <ele>90</ele>
        <time>2015-01-12T19:39:01.709Z</time>
      </trkpt>
      <trkpt lat="48.8479" lon="2.37661">
        <ele>89.8</ele>
        <time>2015-01-12T19:39:04.587Z</time>
      </trkpt>
      <trkpt lat="48.84787" lon="2.37666">
        <ele>89.8</ele>
        <time>2015-01-12T19:39:04.654Z</time>
      </trkpt>
      <trkpt lat="48.84783" lon="2.3767">
        <ele>89.7</ele>
        <time>2015-01-12T19:39:05.701Z</time>
      </trkpt>
      <trkpt lat="48.8478" lon="2.37675">
        <ele>89.8</ele>
        <time>2015-01-12T19:39:06.740Z</time>
      </trkpt>
      <trkpt lat="48.84774" lon="2.37684">
        <ele>90</ele>
        <time>2015-01-12T19:39:09.685Z</time>
      </trkpt>
      <trkpt lat="48.84771" lon="2.37688">
        <ele>90.1</ele>
        <time>2015-01-12T19:39:09.813Z</time>
      </trkpt>
      <trkpt lat="48.84767" lon="2.37694">
        <ele>89.6</ele>
        <time>2015-01-12T19:39:10.849Z</time>
      </trkpt>
      <trkpt lat="48.84764" lon="2.377">
        <ele>89.2</ele>
        <time>2015-01-12T19:39:11.668Z</time>
      </trkpt>
      <trkpt lat="48.84761" lon="2.37706">
        <ele>88.6</ele>
        <time>2015-01-12T19:39:12.699Z</time>
      </trkpt>
      <trkpt lat="48.84758" lon="2.37712">
        <ele>87.7</ele>
        <time>2015-01-12T19:39:13.723Z</time>
      </trkpt>
      <trkpt lat="48.84755" lon="2.37718">
        <ele>87.3</ele>
        <time>2015-01-12T19:39:14.725Z</time>
      </trkpt>
      <trkpt lat="48.84753" lon="2.37724">
        <ele>86.9</ele>
        <time>2015-01-12T19:39:15.747Z</time>
      </trkpt>
      <trkpt lat="48.8475" lon="2.37731">
        <ele>86.1</ele>
        <time>2015-01-12T19:39:16.645Z</time>
      </trkpt>
      <trkpt lat="48.84747" lon="2.37736">
        <ele>85.7</ele>
        <time>2015-01-12T19:39:17.675Z</time>
      </trkpt>
      <trkpt lat="48.84747" lon="2.37748">
        <ele>86.3</ele>
        <time>2015-01-12T19:39:18.681Z</time>
      </trkpt>
      <trkpt lat="48.84746" lon="2.37756">
        <ele>86.3</ele>
        <time>2015-01-12T19:39:19.717Z</time>
      </trkpt>
      <trkpt lat="48.84741" lon="2.37767">
        <ele>86.5</ele>
        <time>2015-01-12T19:39:21.762Z</time>
      </trkpt>
      <trkpt lat="48.84738" lon="2.37773">
        <ele>86.5</ele>
        <time>2015-01-12T19:39:22.673Z</time>
      </trkpt>
      <trkpt lat="48.84735" lon="2.37779">
        <ele>86.4</ele>
        <time>2015-01-12T19:39:23.682Z</time>
      </trkpt>
      <trkpt lat="48.84731" lon="2.37786">
        <ele>86.4</ele>
        <time>2015-01-12T19:39:24.711Z</time>
      </trkpt>
      <trkpt lat="48.84727" lon="2.3779">
        <ele>86.5</ele>
        <time>2015-01-12T19:39:25.785Z</time>
      </trkpt>
      <trkpt lat="48.84723" lon="2.37794">
        <ele>86.6</ele>
        <time>2015-01-12T19:39:26.702Z</time>
      </trkpt>
      <trkpt lat="48.84719" lon="2.37798">
        <ele>86.5</ele>
        <time>2015-01-12T19:39:27.697Z</time>
      </trkpt>
      <trkpt lat="48.84716" lon="2.37803">
        <ele>86.4</ele>
        <time>2015-01-12T19:39:28.712Z</time>
      </trkpt>
      <trkpt lat="48.84712" lon="2.37808">
        <ele>86.3</ele>
        <time>2015-01-12T19:39:30.015Z</time>
      </trkpt>
      <trkpt lat="48.84709" lon="2.37813">
        <ele>86.2</ele>
        <time>2015-01-12T19:39:30.718Z</time>
      </trkpt>
      <trkpt lat="48.84705" lon="2.37817">
        <ele>86.2</ele>
        <time>2015-01-12T19:39:31.734Z</time>
      </trkpt>
      <trkpt lat="48.84704" lon="2.37825">
        <ele>86.8</ele>
        <time>2015-01-12T19:39:32.752Z</time>
      </trkpt>
      <trkpt lat="48.84702" lon="2.37834">
        <ele>87.1</ele>
        <time>2015-01-12T19:39:33.751Z</time>
      </trkpt>
      <trkpt lat="48.847" lon="2.37842">
        <ele>87.3</ele>
        <time>2015-01-12T19:39:34.769Z</time>
      </trkpt>
      <trkpt lat="48.84697" lon="2.3785">
        <ele>87.6</ele>
        <time>2015-01-12T19:39:35.675Z</time>
      </trkpt>
      <trkpt lat="48.84695" lon="2.37856">
        <ele>87.7</ele>
        <time>2015-01-12T19:39:36.687Z</time>
      </trkpt>
      <trkpt lat="48.8469" lon="2.37867">
        <ele>87.8</ele>
        <time>2015-01-12T19:39:38.711Z</time>
      </trkpt>
      <trkpt lat="48.84689" lon="2.3787">
        <ele>87.8</ele>
        <time>2015-01-12T19:39:39.731Z</time>
      </trkpt>
      <trkpt lat="48.84685" lon="2.3788">
        <ele>87.4</ele>
        <time>2015-01-12T19:39:42.708Z</time>
      </trkpt>
      <trkpt lat="48.84682" lon="2.37881">
        <ele>87.6</ele>
        <time>2015-01-12T19:39:43.827Z</time>
      </trkpt>
      <trkpt lat="48.84673" lon="2.37882">
        <ele>88.9</ele>
        <time>2015-01-12T19:39:47.731Z</time>
      </trkpt>
      <trkpt lat="48.84672" lon="2.37883">
        <ele>89.3</ele>
        <time>2015-01-12T19:39:48.761Z</time>
      </trkpt>
      <trkpt lat="48.84666" lon="2.37889">
        <ele>92</ele>
        <time>2015-01-12T19:39:55.691Z</time>
      </trkpt>
      <trkpt lat="48.84664" lon="2.37889">
        <ele>92.8</ele>
        <time>2015-01-12T19:39:56.724Z</time>
      </trkpt>
      <trkpt lat="48.84659" lon="2.37892">
        <ele>94.3</ele>
        <time>2015-01-12T19:40:00.715Z</time>
      </trkpt>
      <trkpt lat="48.84659" lon="2.37892">
        <ele>94.5</ele>
        <time>2015-01-12T19:40:01.763Z</time>
      </trkpt>
      <trkpt lat="48.84658" lon="2.37892">
        <ele>94.9</ele>
        <time>2015-01-12T19:40:02.766Z</time>
      </trkpt>
      <trkpt lat="48.84653" lon="2.37902">
        <ele>95.9</ele>
        <time>2015-01-12T19:40:07.735Z</time>
      </trkpt>
      <trkpt lat="48.84651" lon="2.37904">
        <ele>95.5</ele>
        <time>2015-01-12T19:40:08.747Z</time>
      </trkpt>
      <trkpt lat="48.84646" lon="2.37909">
        <ele>95.1</ele>
        <time>2015-01-12T19:40:10.708Z</time>
      </trkpt>
      <trkpt lat="48.84643" lon="2.37911">
        <ele>95</ele>
        <time>2015-01-12T19:40:11.742Z</time>
      </trkpt>
      <trkpt lat="48.84637" lon="2.37918">
        <ele>95.1</ele>
        <time>2015-01-12T19:40:13.832Z</time>
      </trkpt>
      <trkpt lat="48.84634" lon="2.37921">
        <ele>95.1</ele>
        <time>2015-01-12T19:40:14.656Z</time>
      </trkpt>
      <trkpt lat="48.84629" lon="2.37926">
        <ele>94.9</ele>
        <time>2015-01-12T19:40:16.692Z</time>
      </trkpt>
      <trkpt lat="48.84626" lon="2.37928">
        <ele>94.9</ele>
        <time>2015-01-12T19:40:17.689Z</time>
      </trkpt>
      <trkpt lat="48.8462" lon="2.37931">
        <ele>94.9</ele>
        <time>2015-01-12T19:40:20.342Z</time>
      </trkpt>
      <trkpt lat="48.84617" lon="2.37932">
        <ele>94.9</ele>
        <time>2015-01-12T19:40:20.735Z</time>
      </trkpt>
      <trkpt lat="48.84609" lon="2.37937">
        <ele>94.8</ele>
        <time>2015-01-12T19:40:23.766Z</time>
      </trkpt>
      <trkpt lat="48.84608" lon="2.3794">
        <ele>94.7</ele>
        <time>2015-01-12T19:40:24.762Z</time>
      </trkpt>
      <trkpt lat="48.84604" lon="2.37949">
        <ele>94.6</ele>
        <time>2015-01-12T19:40:26.685Z</time>
      </trkpt>
      <trkpt lat="48.84603" lon="2.37954">
        <ele>94.5</ele>
        <time>2015-01-12T19:40:27.665Z</time>
      </trkpt>
      <trkpt lat="48.84598" lon="2.37963">
        <ele>94.3</ele>
        <time>2015-01-12T19:40:30.440Z</time>
      </trkpt>
      <trkpt lat="48.84594" lon="2.37968">
        <ele>94.2</ele>
        <time>2015-01-12T19:40:30.684Z</time>
      </trkpt>
      <trkpt lat="48.8459" lon="2.37972">
        <ele>94</ele>
        <time>2015-01-12T19:40:31.708Z</time>
      </trkpt>
      <trkpt lat="48.84585" lon="2.37976">
        <ele>93.8</ele>
        <time>2015-01-12T19:40:32.710Z</time>
      </trkpt>
      <trkpt lat="48.84581" lon="2.3798">
        <ele>93.6</ele>
        <time>2015-01-12T19:40:33.718Z</time>
      </trkpt>
      <trkpt lat="48.84577" lon="2.37983">
        <ele>93.4</ele>
        <time>2015-01-12T19:40:34.730Z</time>
      </trkpt>
      <trkpt lat="48.84573" lon="2.37993">
        <ele>93.3</ele>
        <time>2015-01-12T19:40:36.749Z</time>
      </trkpt>
      <trkpt lat="48.84572" lon="2.37999">
        <ele>93.3</ele>
        <time>2015-01-12T19:40:37.774Z</time>
      </trkpt>
      <trkpt lat="48.84571" lon="2.38011">
        <ele>93.2</ele>
        <time>2015-01-12T19:40:39.657Z</time>
      </trkpt>
      <trkpt lat="48.84569" lon="2.38017">
        <ele>93.1</ele>
        <time>2015-01-12T19:40:40.835Z</time>
      </trkpt>
      <trkpt lat="48.84564" lon="2.38027">
        <ele>93.2</ele>
        <time>2015-01-12T19:40:42.680Z</time>
      </trkpt>
      <trkpt lat="48.84561" lon="2.38031">
        <ele>93.2</ele>
        <time>2015-01-12T19:40:43.686Z</time>
      </trkpt>
      <trkpt lat="48.84556" lon="2.38039">
        <ele>93.3</ele>
        <time>2015-01-12T19:40:46.148Z</time>
      </trkpt>
      <trkpt lat="48.84554" lon="2.38046">
        <ele>93.3</ele>
        <time>2015-01-12T19:40:46.652Z</time>
      </trkpt>
      <trkpt lat="48.84551" lon="2.38052">
        <ele>93.3</ele>
        <time>2015-01-12T19:40:47.663Z</time>
      </trkpt>
      <trkpt lat="48.84551" lon="2.38063">
        <ele>93.3</ele>
        <time>2015-01-12T19:40:48.675Z</time>
      </trkpt>
      <trkpt lat="48.84548" lon="2.38071">
        <ele>93.2</ele>
        <time>2015-01-12T19:40:49.699Z</time>
      </trkpt>
      <trkpt lat="48.84545" lon="2.38077">
        <ele>93.1</ele>
        <time>2015-01-12T19:40:50.729Z</time>
      </trkpt>
      <trkpt lat="48.84543" lon="2.38086">
        <ele>93.4</ele>
        <time>2015-01-12T19:40:51.772Z</time>
      </trkpt>
      <trkpt lat="48.84542" lon="2.38091">
        <ele>93.7</ele>
        <time>2015-01-12T19:40:52.673Z</time>
      </trkpt>
      <trkpt lat="48.84539" lon="2.38097">
        <ele>93.7</ele>
        <time>2015-01-12T19:40:54.877Z</time>
      </trkpt>
      <trkpt lat="48.84537" lon="2.38103">
        <ele>93.7</ele>
        <time>2015-01-12T19:40:55.701Z</time>
      </trkpt>
      <trkpt lat="48.84533" lon="2.38115">
        <ele>93.5</ele>
        <time>2015-01-12T19:40:57.726Z</time>
      </trkpt>
      <trkpt lat="48.84531" lon="2.3812">
        <ele>93.4</ele>
        <time>2015-01-12T19:40:58.729Z</time>
      </trkpt>
      <trkpt lat="48.84526" lon="2.38131">
        <ele>93.1</ele>
        <time>2015-01-12T19:41:00.685Z</time>
      </trkpt>
      <trkpt lat="48.84524" lon="2.38136">
        <ele>92.9</ele>
        <time>2015-01-12T19:41:01.703Z</time>
      </trkpt>
      <trkpt lat="48.84521" lon="2.38147">
        <ele>92.5</ele>
        <time>2015-01-12T19:41:03.753Z</time>
      </trkpt>
      <trkpt lat="48.8452" lon="2.38151">
        <ele>92.4</ele>
        <time>2015-01-12T19:41:04.641Z</time>
      </trkpt>
      <trkpt lat="48.84517" lon="2.38161">
        <ele>92.4</ele>
        <time>2015-01-12T19:41:06.679Z</time>
      </trkpt>
      <trkpt lat="48.84515" lon="2.38167">
        <ele>92.4</ele>
        <time>2015-01-12T19:41:07.774Z</time>
      </trkpt>
      <trkpt lat="48.84513" lon="2.38178">
        <ele>92.2</ele>
        <time>2015-01-12T19:41:09.688Z</time>
      </trkpt>
      <trkpt lat="48.84512" lon="2.38183">
        <ele>92.1</ele>
        <time>2015-01-12T19:41:10.703Z</time>
      </trkpt>
      <trkpt lat="48.8451" lon="2.38194">
        <ele>92.1</ele>
        <time>2015-01-12T19:41:12.771Z</time>
      </trkpt>
      <trkpt lat="48.84509" lon="2.38199">
        <ele>92.1</ele>
        <time>2015-01-12T19:41:13.737Z</time>
      </trkpt>
      <trkpt lat="48.84507" lon="2.3821">
        <ele>92.2</ele>
        <time>2015-01-12T19:41:15.652Z</time>
      </trkpt>
      <trkpt lat="48.84505" lon="2.38217">
        <ele>92</ele>
        <time>2015-01-12T19:41:16.688Z</time>
      </trkpt>
      <trkpt lat="48.84506" lon="2.38224">
        <ele>91.9</ele>
        <time>2015-01-12T19:41:17.715Z</time>
      </trkpt>
      <trkpt lat="48.84506" lon="2.3823">
        <ele>92</ele>
        <time>2015-01-12T19:41:18.632Z</time>
      </trkpt>
      <trkpt lat="48.84507" lon="2.38241">
        <ele>92.2</ele>
        <time>2015-01-12T19:41:20.687Z</time>
      </trkpt>
      <trkpt lat="48.84508" lon="2.38244">
        <ele>92.3</ele>
        <time>2015-01-12T19:41:21.691Z</time>
      </trkpt>
      <trkpt lat="48.8451" lon="2.38256">
        <ele>92.6</ele>
        <time>2015-01-12T19:41:24.760Z</time>
      </trkpt>
      <trkpt lat="48.84511" lon="2.38262">
        <ele>92.6</ele>
        <time>2015-01-12T19:41:25.785Z</time>
      </trkpt>
      <trkpt lat="48.84512" lon="2.38273">
        <ele>92.5</ele>
        <time>2015-01-12T19:41:27.772Z</time>
      </trkpt>
      <trkpt lat="48.84512" lon="2.38277">
        <ele>92.3</ele>
        <time>2015-01-12T19:41:28.681Z</time>
      </trkpt>
      <trkpt lat="48.84511" lon="2.38285">
        <ele>91.4</ele>
        <time>2015-01-12T19:41:30.785Z</time>
      </trkpt>
      <trkpt lat="48.8451" lon="2.38291">
        <ele>91.2</ele>
        <time>2015-01-12T19:41:31.840Z</time>
      </trkpt>
      <trkpt lat="48.84509" lon="2.38299">
        <ele>91.7</ele>
        <time>2015-01-12T19:41:32.701Z</time>
      </trkpt>
      <trkpt lat="48.84508" lon="2.38305">
        <ele>91.8</ele>
        <time>2015-01-12T19:41:33.741Z</time>
      </trkpt>
      <trkpt lat="48.84508" lon="2.38316">
        <ele>91.8</ele>
        <time>2015-01-12T19:41:35.730Z</time>
      </trkpt>
      <trkpt lat="48.84503" lon="2.38323">
        <ele>92.1</ele>
        <time>2015-01-12T19:41:36.746Z</time>
      </trkpt>
      <trkpt lat="48.84496" lon="2.38331">
        <ele>92.1</ele>
        <time>2015-01-12T19:41:37.784Z</time>
      </trkpt>
      <trkpt lat="48.8449" lon="2.38338">
        <ele>92.3</ele>
        <time>2015-01-12T19:41:38.676Z</time>
      </trkpt>
      <trkpt lat="48.84485" lon="2.38345">
        <ele>92.6</ele>
        <time>2015-01-12T19:41:39.681Z</time>
      </trkpt>
      <trkpt lat="48.84481" lon="2.38352">
        <ele>92.9</ele>
        <time>2015-01-12T19:41:40.693Z</time>
      </trkpt>
      <trkpt lat="48.84478" lon="2.38358">
        <ele>93.4</ele>
        <time>2015-01-12T19:41:41.708Z</time>
      </trkpt>
      <trkpt lat="48.84476" lon="2.38364">
        <ele>93.7</ele>
        <time>2015-01-12T19:41:42.717Z</time>
      </trkpt>
      <trkpt lat="48.84471" lon="2.38375">
        <ele>93.9</ele>
        <time>2015-01-12T19:41:44.651Z</time>
      </trkpt>
      <trkpt lat="48.84471" lon="2.38379">
        <ele>93.8</ele>
        <time>2015-01-12T19:41:45.716Z</time>
      </trkpt>
      <trkpt lat="48.84468" lon="2.38389">
        <ele>93.8</ele>
        <time>2015-01-12T19:41:47.761Z</time>
      </trkpt>
      <trkpt lat="48.84466" lon="2.38394">
        <ele>93.7</ele>
        <time>2015-01-12T19:41:48.827Z</time>
      </trkpt>
      <trkpt lat="48.84462" lon="2.38401">
        <ele>93.6</ele>
        <time>2015-01-12T19:41:50.763Z</time>
      </trkpt>
      <trkpt lat="48.8446" lon="2.38406">
        <ele>93.8</ele>
        <time>2015-01-12T19:41:51.691Z</time>
      </trkpt>
      <trkpt lat="48.84457" lon="2.38416">
        <ele>93.7</ele>
        <time>2015-01-12T19:41:54.519Z</time>
      </trkpt>
      <trkpt lat="48.84456" lon="2.38421">
        <ele>94.2</ele>
        <time>2015-01-12T19:41:54.670Z</time>
      </trkpt>
      <trkpt lat="48.84453" lon="2.38433">
        <ele>94.6</ele>
        <time>2015-01-12T19:41:56.651Z</time>
      </trkpt>
      <trkpt lat="48.84451" lon="2.38439">
        <ele>94.9</ele>
        <time>2015-01-12T19:41:57.681Z</time>
      </trkpt>
      <trkpt lat="48.84446" lon="2.38446">
        <ele>94.9</ele>
        <time>2015-01-12T19:41:59.721Z</time>
      </trkpt>
      <trkpt lat="48.84439" lon="2.38445">
        <ele>94.4</ele>
        <time>2015-01-12T19:42:00.807Z</time>
      </trkpt>
      <trkpt lat="48.8443" lon="2.38443">
        <ele>93.7</ele>
        <time>2015-01-12T19:42:01.809Z</time>
      </trkpt>
      <trkpt lat="48.84423" lon="2.38443">
        <ele>93.2</ele>
        <time>2015-01-12T19:42:02.664Z</time>
      </trkpt>
      <trkpt lat="48.84417" lon="2.38444">
        <ele>93.1</ele>
        <time>2015-01-12T19:42:04.672Z</time>
      </trkpt>
      <trkpt lat="48.84413" lon="2.38447">
        <ele>92.9</ele>
        <time>2015-01-12T19:42:04.715Z</time>
      </trkpt>
      <trkpt lat="48.84405" lon="2.38452">
        <ele>92.4</ele>
        <time>2015-01-12T19:42:06.718Z</time>
      </trkpt>
      <trkpt lat="48.84401" lon="2.38455">
        <ele>92.1</ele>
        <time>2015-01-12T19:42:07.824Z</time>
      </trkpt>
      <trkpt lat="48.84394" lon="2.38461">
        <ele>91.6</ele>
        <time>2015-01-12T19:42:09.768Z</time>
      </trkpt>
      <trkpt lat="48.84391" lon="2.38465">
        <ele>91.3</ele>
        <time>2015-01-12T19:42:10.732Z</time>
      </trkpt>
      <trkpt lat="48.84387" lon="2.38468">
        <ele>91.1</ele>
        <time>2015-01-12T19:42:11.743Z</time>
      </trkpt>
      <trkpt lat="48.84382" lon="2.38471">
        <ele>90.9</ele>
        <time>2015-01-12T19:42:12.764Z</time>
      </trkpt>
      <trkpt lat="48.84378" lon="2.38475">
        <ele>90.8</ele>
        <time>2015-01-12T19:42:13.796Z</time>
      </trkpt>
      <trkpt lat="48.84374" lon="2.38478">
        <ele>90.8</ele>
        <time>2015-01-12T19:42:14.680Z</time>
      </trkpt>
      <trkpt lat="48.8437" lon="2.38482">
        <ele>90.8</ele>
        <time>2015-01-12T19:42:15.673Z</time>
      </trkpt>
      <trkpt lat="48.84365" lon="2.38485">
        <ele>90.7</ele>
        <time>2015-01-12T19:42:16.706Z</time>
      </trkpt>
      <trkpt lat="48.84361" lon="2.3849">
        <ele>90.5</ele>
        <time>2015-01-12T19:42:17.738Z</time>
      </trkpt>
      <trkpt lat="48.84358" lon="2.38495">
        <ele>90.5</ele>
        <time>2015-01-12T19:42:18.747Z</time>
      </trkpt>
      <trkpt lat="48.84354" lon="2.38499">
        <ele>90.5</ele>
        <time>2015-01-12T19:42:19.854Z</time>
      </trkpt>
      <trkpt lat="48.8435" lon="2.38503">
        <ele>90.4</ele>
        <time>2015-01-12T19:42:20.647Z</time>
      </trkpt>
      <trkpt lat="48.84343" lon="2.38511">
        <ele>90.5</ele>
        <time>2015-01-12T19:42:22.673Z</time>
      </trkpt>
      <trkpt lat="48.8434" lon="2.38516">
        <ele>90.3</ele>
        <time>2015-01-12T19:42:23.692Z</time>
      </trkpt>
      <trkpt lat="48.84336" lon="2.3852">
        <ele>90.4</ele>
        <time>2015-01-12T19:42:24.706Z</time>
      </trkpt>
      <trkpt lat="48.84332" lon="2.38524">
        <ele>90.3</ele>
        <time>2015-01-12T19:42:25.717Z</time>
      </trkpt>
      <trkpt lat="48.84329" lon="2.38529">
        <ele>90.4</ele>
        <time>2015-01-12T19:42:26.736Z</time>
      </trkpt>
      <trkpt lat="48.84325" lon="2.38533">
        <ele>90.3</ele>
        <time>2015-01-12T19:42:27.745Z</time>
      </trkpt>
      <trkpt lat="48.84321" lon="2.38537">
        <ele>90.5</ele>
        <time>2015-01-12T19:42:28.748Z</time>
      </trkpt>
      <trkpt lat="48.84318" lon="2.38541">
        <ele>90.6</ele>
        <time>2015-01-12T19:42:29.757Z</time>
      </trkpt>
      <trkpt lat="48.84312" lon="2.38549">
        <ele>90.8</ele>
        <time>2015-01-12T19:42:31.716Z</time>
      </trkpt>
      <trkpt lat="48.84309" lon="2.38553">
        <ele>90.9</ele>
        <time>2015-01-12T19:42:32.737Z</time>
      </trkpt>
      <trkpt lat="48.84303" lon="2.38561">
        <ele>91</ele>
        <time>2015-01-12T19:42:34.662Z</time>
      </trkpt>
      <trkpt lat="48.843" lon="2.38564">
        <ele>91</ele>
        <time>2015-01-12T19:42:35.681Z</time>
      </trkpt>
      <trkpt lat="48.84295" lon="2.38571">
        <ele>90.9</ele>
        <time>2015-01-12T19:42:37.711Z</time>
      </trkpt>
      <trkpt lat="48.84293" lon="2.38574">
        <ele>90.8</ele>
        <time>2015-01-12T19:42:38.740Z</time>
      </trkpt>
      <trkpt lat="48.84288" lon="2.38577">
        <ele>90.7</ele>
        <time>2015-01-12T19:42:40.653Z</time>
      </trkpt>
      <trkpt lat="48.84284" lon="2.38578">
        <ele>90.5</ele>
        <time>2015-01-12T19:42:41.661Z</time>
      </trkpt>
      <trkpt lat="48.84276" lon="2.38583">
        <ele>89.9</ele>
        <time>2015-01-12T19:42:43.687Z</time>
      </trkpt>
      <trkpt lat="48.84273" lon="2.38585">
        <ele>89.7</ele>
        <time>2015-01-12T19:42:44.698Z</time>
      </trkpt>
      <trkpt lat="48.84265" lon="2.38592">
        <ele>89.8</ele>
        <time>2015-01-12T19:42:46.770Z</time>
      </trkpt>
      <trkpt lat="48.84261" lon="2.38594">
        <ele>89.4</ele>
        <time>2015-01-12T19:42:47.734Z</time>
      </trkpt>
      <trkpt lat="48.84255" lon="2.386">
        <ele>89</ele>
        <time>2015-01-12T19:42:49.848Z</time>
      </trkpt>
      <trkpt lat="48.84252" lon="2.38602">
        <ele>89</ele>
        <time>2015-01-12T19:42:50.742Z</time>
      </trkpt>
      <trkpt lat="48.84251" lon="2.38613">
        <ele>88.8</ele>
        <time>2015-01-12T19:43:00.650Z</time>
      </trkpt>
      <trkpt lat="48.84251" lon="2.38616">
        <ele>88.7</ele>
        <time>2015-01-12T19:43:01.756Z</time>
      </trkpt>
      <trkpt lat="48.84247" lon="2.38626">
        <ele>90.3</ele>
        <time>2015-01-12T19:43:10.689Z</time>
      </trkpt>
      <trkpt lat="48.84247" lon="2.38628">
        <ele>90.4</ele>
        <time>2015-01-12T19:43:11.785Z</time>
      </trkpt>
      <trkpt lat="48.84248" lon="2.38637">
        <ele>90.4</ele>
        <time>2015-01-12T19:43:17.725Z</time>
      </trkpt>
      <trkpt lat="48.84247" lon="2.38637">
        <ele>90.4</ele>
        <time>2015-01-12T19:43:18.745Z</time>
      </trkpt>
      <trkpt lat="48.84247" lon="2.38638">
        <ele>90.5</ele>
        <time>2015-01-12T19:43:19.782Z</time>
      </trkpt>
      <trkpt lat="48.84249" lon="2.38651">
        <ele>91.1</ele>
        <time>2015-01-12T19:43:28.711Z</time>
      </trkpt>
      <trkpt lat="48.8425" lon="2.38652">
        <ele>91</ele>
        <time>2015-01-12T19:43:29.709Z</time>
      </trkpt>
      <trkpt lat="48.84249" lon="2.3866">
        <ele>92</ele>
        <time>2015-01-12T19:43:37.753Z</time>
      </trkpt>
      <trkpt lat="48.84249" lon="2.38661">
        <ele>92.1</ele>
        <time>2015-01-12T19:43:38.756Z</time>
      </trkpt>
      <trkpt lat="48.84249" lon="2.38662">
        <ele>92</ele>
        <time>2015-01-12T19:43:39.650Z</time>
      </trkpt>
      <trkpt lat="48.84248" lon="2.38673">
        <ele>92.3</ele>
        <time>2015-01-12T19:43:45.427Z</time>
      </trkpt>
      <trkpt lat="48.84248" lon="2.38676">
        <ele>92.5</ele>
        <time>2015-01-12T19:43:45.696Z</time>
      </trkpt>
      <trkpt lat="48.84249" lon="2.38689">
        <ele>93</ele>
        <time>2015-01-12T19:43:49.690Z</time>
      </trkpt>
      <trkpt lat="48.84249" lon="2.38693">
        <ele>93.1</ele>
        <time>2015-01-12T19:43:50.723Z</time>
      </trkpt>
      <trkpt lat="48.84244" lon="2.38704">
        <ele>93.2</ele>
        <time>2015-01-12T19:43:54.680Z</time>
      </trkpt>
      <trkpt lat="48.84243" lon="2.38707">
        <ele>93.4</ele>
        <time>2015-01-12T19:43:55.856Z</time>
      </trkpt>
      <trkpt lat="48.8424" lon="2.38718">
        <ele>93.5</ele>
        <time>2015-01-12T19:43:59.722Z</time>
      </trkpt>
      <trkpt lat="48.84239" lon="2.38721">
        <ele>93.5</ele>
        <time>2015-01-12T19:44:00.645Z</time>
      </trkpt>
      <trkpt lat="48.84237" lon="2.38732">
        <ele>94.3</ele>
        <time>2015-01-12T19:44:05.646Z</time>
      </trkpt>
      <trkpt lat="48.84236" lon="2.38734">
        <ele>94.3</ele>
        <time>2015-01-12T19:44:06.678Z</time>
      </trkpt>
      <trkpt lat="48.84232" lon="2.38746">
        <ele>93.6</ele>
        <time>2015-01-12T19:44:13.795Z</time>
      </trkpt>
      <trkpt lat="48.84232" lon="2.38747">
        <ele>93.4</ele>
        <time>2015-01-12T19:44:14.709Z</time>
      </trkpt>
      <trkpt lat="48.84229" lon="2.38758">
        <ele>93</ele>
        <time>2015-01-12T19:44:20.665Z</time>
      </trkpt>
      <trkpt lat="48.84229" lon="2.3876">
        <ele>92.7</ele>
        <time>2015-01-12T19:44:21.676Z</time>
      </trkpt>
      <trkpt lat="48.84227" lon="2.38771">
        <ele>92.5</ele>
        <time>2015-01-12T19:44:26.766Z</time>
      </trkpt>
      <trkpt lat="48.84226" lon="2.38773">
        <ele>92.8</ele>
        <time>2015-01-12T19:44:27.667Z</time>
      </trkpt>
      <trkpt lat="48.84223" lon="2.38786">
        <ele>93.1</ele>
        <time>2015-01-12T19:44:32.796Z</time>
      </trkpt>
      <trkpt lat="48.84223" lon="2.38788">
        <ele>93.2</ele>
        <time>2015-01-12T19:44:33.704Z</time>
      </trkpt>
      <trkpt lat="48.8422" lon="2.38799">
        <ele>93.7</ele>
        <time>2015-01-12T19:44:38.722Z</time>
      </trkpt>
      <trkpt lat="48.84219" lon="2.38802">
        <ele>94.1</ele>
        <time>2015-01-12T19:44:39.742Z</time>
      </trkpt>
      <trkpt lat="48.84217" lon="2.38814">
        <ele>94.5</ele>
        <time>2015-01-12T19:44:45.886Z</time>
      </trkpt>
      <trkpt lat="48.84216" lon="2.38816">
        <ele>94.8</ele>
        <time>2015-01-12T19:44:46.658Z</time>
      </trkpt>
      <trkpt lat="48.84215" lon="2.38829">
        <ele>95.1</ele>
        <time>2015-01-12T19:44:59.891Z</time>
      </trkpt>
      <trkpt lat="48.84214" lon="2.38829">
        <ele>95.2</ele>
        <time>2015-01-12T19:45:00.650Z</time>
      </trkpt>
      <trkpt lat="48.84211" lon="2.38838">
        <ele>94.4</ele>
        <time>2015-01-12T19:45:18.676Z</time>
      </trkpt>
      <trkpt lat="48.84211" lon="2.38845">
        <ele>94.1</ele>
        <time>2015-01-12T19:45:19.710Z</time>
      </trkpt>
      <trkpt lat="48.8421" lon="2.38851">
        <ele>94.8</ele>
        <time>2015-01-12T19:45:25.061Z</time>
      </trkpt>
      <trkpt lat="48.84209" lon="2.38852">
        <ele>95.1</ele>
        <time>2015-01-12T19:45:25.769Z</time>
      </trkpt>
      <trkpt lat="48.84209" lon="2.38852">
        <ele>95</ele>
        <time>2015-01-12T19:45:50.694Z</time>
      </trkpt>
      <trkpt lat="48.8421" lon="2.38851">
        <ele>94.8</ele>
        <time>2015-01-12T19:45:51.702Z</time>
      </trkpt>
      <trkpt lat="48.8421" lon="2.38852">
        <ele>94.7</ele>
        <time>2015-01-12T19:45:52.722Z</time>
      </trkpt>
      <trkpt lat="48.84211" lon="2.38853">
        <ele>94.7</ele>
        <time>2015-01-12T19:45:53.743Z</time>
      </trkpt>
      <trkpt lat="48.8421" lon="2.38855">
        <ele>95.2</ele>
        <time>2015-01-12T19:45:58.674Z</time>
      </trkpt>
      <trkpt lat="48.84207" lon="2.38858">
        <ele>96.6</ele>
        <time>2015-01-12T19:45:59.711Z</time>
      </trkpt>
      <trkpt lat="48.84204" lon="2.38869">
        <ele>96.6</ele>
        <time>2015-01-12T19:46:05.671Z</time>
      </trkpt>
      <trkpt lat="48.84203" lon="2.38872">
        <ele>96.7</ele>
        <time>2015-01-12T19:46:06.680Z</time>
      </trkpt>
      <trkpt lat="48.842" lon="2.38882">
        <ele>97.8</ele>
        <time>2015-01-12T19:46:10.660Z</time>
      </trkpt>
      <trkpt lat="48.842" lon="2.38886">
        <ele>97.9</ele>
        <time>2015-01-12T19:46:11.678Z</time>
      </trkpt>
      <trkpt lat="48.84197" lon="2.38896">
        <ele>98.5</ele>
        <time>2015-01-12T19:46:15.734Z</time>
      </trkpt>
      <trkpt lat="48.84197" lon="2.38899">
        <ele>98.5</ele>
        <time>2015-01-12T19:46:16.740Z</time>
      </trkpt>
      <trkpt lat="48.84193" lon="2.3891">
        <ele>99.2</ele>
        <time>2015-01-12T19:46:23.667Z</time>
      </trkpt>
      <trkpt lat="48.84193" lon="2.38912">
        <ele>99.7</ele>
        <time>2015-01-12T19:46:24.676Z</time>
      </trkpt>
      <trkpt lat="48.84193" lon="2.38912">
        <ele>99.7</ele>
        <time>2015-01-12T19:46:24.990Z</time>
      </trkpt>
      <trkpt lat="48.84192" lon="2.38913">
        <ele>100</ele>
        <time>2015-01-12T19:46:25.729Z</time>
      </trkpt>
      <trkpt lat="48.84192" lon="2.38915">
        <ele>100.4</ele>
        <time>2015-01-12T19:46:26.890Z</time>
      </trkpt>
      <trkpt lat="48.8419" lon="2.38917">
        <ele>101.2</ele>
        <time>2015-01-12T19:46:28.721Z</time>
      </trkpt>
      <trkpt lat="48.8419" lon="2.38918">
        <ele>101.6</ele>
        <time>2015-01-12T19:46:29.726Z</time>
      </trkpt>
      <trkpt lat="48.8419" lon="2.38918">
        <ele>101.6</ele>
        <time>2015-01-12T19:46:30.102Z</time>
      </trkpt>
      <trkpt lat="48.84189" lon="2.3892">
        <ele>101.9</ele>
        <time>2015-01-12T19:46:30.740Z</time>
      </trkpt>
      <trkpt lat="48.84189" lon="2.3893">
        <ele>101.5</ele>
        <time>2015-01-12T19:46:33.662Z</time>
      </trkpt>
      <trkpt lat="48.84188" lon="2.38935">
        <ele>101.7</ele>
        <time>2015-01-12T19:46:34.707Z</time>
      </trkpt>
      <trkpt lat="48.84187" lon="2.38946">
        <ele>102.3</ele>
        <time>2015-01-12T19:46:36.713Z</time>
      </trkpt>
      <trkpt lat="48.84186" lon="2.38952">
        <ele>102.7</ele>
        <time>2015-01-12T19:46:37.722Z</time>
      </trkpt>
      <trkpt lat="48.84185" lon="2.38964">
        <ele>103.1</ele>
        <time>2015-01-12T19:46:40.672Z</time>
      </trkpt>
      <trkpt lat="48.84186" lon="2.38967">
        <ele>103.2</ele>
        <time>2015-01-12T19:46:41.677Z</time>
      </trkpt>
      <trkpt lat="48.84185" lon="2.3898">
        <ele>103.6</ele>
        <time>2015-01-12T19:46:45.310Z</time>
      </trkpt>
      <trkpt lat="48.84185" lon="2.38985">
        <ele>103.8</ele>
        <time>2015-01-12T19:46:45.740Z</time>
      </trkpt>
      <trkpt lat="48.84185" lon="2.38995">
        <ele>104</ele>
        <time>2015-01-12T19:46:47.643Z</time>
      </trkpt>
      <trkpt lat="48.84184" lon="2.39">
        <ele>104.1</ele>
        <time>2015-01-12T19:46:48.658Z</time>
      </trkpt>
      <trkpt lat="48.84182" lon="2.39014">
        <ele>104.1</ele>
        <time>2015-01-12T19:46:51.706Z</time>
      </trkpt>
      <trkpt lat="48.84182" lon="2.39018">
        <ele>104.2</ele>
        <time>2015-01-12T19:46:52.717Z</time>
      </trkpt>
      <trkpt lat="48.84182" lon="2.39028">
        <ele>104.6</ele>
        <time>2015-01-12T19:46:54.663Z</time>
      </trkpt>
      <trkpt lat="48.84182" lon="2.39033">
        <ele>104.6</ele>
        <time>2015-01-12T19:46:55.725Z</time>
      </trkpt>
      <trkpt lat="48.84179" lon="2.39045">
        <ele>104.5</ele>
        <time>2015-01-12T19:46:58.684Z</time>
      </trkpt>
      <trkpt lat="48.8418" lon="2.39048">
        <ele>104.5</ele>
        <time>2015-01-12T19:46:59.709Z</time>
      </trkpt>
      <trkpt lat="48.84181" lon="2.3906">
        <ele>104.8</ele>
        <time>2015-01-12T19:47:02.633Z</time>
      </trkpt>
      <trkpt lat="48.84181" lon="2.39065">
        <ele>105</ele>
        <time>2015-01-12T19:47:03.656Z</time>
      </trkpt>
      <trkpt lat="48.84179" lon="2.39074">
        <ele>105</ele>
        <time>2015-01-12T19:47:05.673Z</time>
      </trkpt>
      <trkpt lat="48.84178" lon="2.39079">
        <ele>105.1</ele>
        <time>2015-01-12T19:47:06.731Z</time>
      </trkpt>
      <trkpt lat="48.84175" lon="2.3909">
        <ele>105.5</ele>
        <time>2015-01-12T19:47:08.675Z</time>
      </trkpt>
      <trkpt lat="48.84175" lon="2.39096">
        <ele>105.9</ele>
        <time>2015-01-12T19:47:09.702Z</time>
      </trkpt>
      <trkpt lat="48.84175" lon="2.39103">
        <ele>106.2</ele>
        <time>2015-01-12T19:47:10.698Z</time>
      </trkpt>
      <trkpt lat="48.84175" lon="2.3911">
        <ele>106.7</ele>
        <time>2015-01-12T19:47:11.716Z</time>
      </trkpt>
      <trkpt lat="48.84174" lon="2.39123">
        <ele>107.3</ele>
        <time>2015-01-12T19:47:13.771Z</time>
      </trkpt>
      <trkpt lat="48.84173" lon="2.39128">
        <ele>107.4</ele>
        <time>2015-01-12T19:47:14.655Z</time>
      </trkpt>
      <trkpt lat="48.84169" lon="2.39139">
        <ele>107.6</ele>
        <time>2015-01-12T19:47:16.738Z</time>
      </trkpt>
      <trkpt lat="48.84167" lon="2.39144">
        <ele>107.6</ele>
        <time>2015-01-12T19:47:17.649Z</time>
      </trkpt>
      <trkpt lat="48.84164" lon="2.3915">
        <ele>107.6</ele>
        <time>2015-01-12T19:47:18.661Z</time>
      </trkpt>
      <trkpt lat="48.84161" lon="2.39156">
        <ele>107.7</ele>
        <time>2015-01-12T19:47:19.721Z</time>
      </trkpt>
      <trkpt lat="48.84157" lon="2.39168">
        <ele>107.8</ele>
        <time>2015-01-12T19:47:21.734Z</time>
      </trkpt>
      <trkpt lat="48.84156" lon="2.39172">
        <ele>108</ele>
        <time>2015-01-12T19:47:22.709Z</time>
      </trkpt>
      <trkpt lat="48.84153" lon="2.39177">
        <ele>107.9</ele>
        <time>2015-01-12T19:47:23.643Z</time>
      </trkpt>
      <trkpt lat="48.84148" lon="2.39184">
        <ele>107.5</ele>
        <time>2015-01-12T19:47:24.675Z</time>
      </trkpt>
      <trkpt lat="48.84143" lon="2.39191">
        <ele>107.2</ele>
        <time>2015-01-12T19:47:25.706Z</time>
      </trkpt>
      <trkpt lat="48.84139" lon="2.39197">
        <ele>106.9</ele>
        <time>2015-01-12T19:47:26.720Z</time>
      </trkpt>
      <trkpt lat="48.84136" lon="2.39202">
        <ele>106.5</ele>
        <time>2015-01-12T19:47:27.729Z</time>
      </trkpt>
      <trkpt lat="48.84133" lon="2.39207">
        <ele>106.4</ele>
        <time>2015-01-12T19:47:28.726Z</time>
      </trkpt>
      <trkpt lat="48.84129" lon="2.39216">
        <ele>106.1</ele>
        <time>2015-01-12T19:47:30.739Z</time>
      </trkpt>
      <trkpt lat="48.84127" lon="2.39221">
        <ele>106</ele>
        <time>2015-01-12T19:47:31.752Z</time>
      </trkpt>
      <trkpt lat="48.84124" lon="2.39232">
        <ele>106.4</ele>
        <time>2015-01-12T19:47:33.810Z</time>
      </trkpt>
      <trkpt lat="48.84122" lon="2.39237">
        <ele>106.6</ele>
        <time>2015-01-12T19:47:34.722Z</time>
      </trkpt>
      <trkpt lat="48.84118" lon="2.39249">
        <ele>107</ele>
        <time>2015-01-12T19:47:36.734Z</time>
      </trkpt>
      <trkpt lat="48.84118" lon="2.39254">
        <ele>107.2</ele>
        <time>2015-01-12T19:47:37.734Z</time>
      </trkpt>
      <trkpt lat="48.84115" lon="2.39263">
        <ele>107.8</ele>
        <time>2015-01-12T19:47:40.802Z</time>
      </trkpt>
      <trkpt lat="48.84113" lon="2.39268">
        <ele>108</ele>
        <time>2015-01-12T19:47:41.050Z</time>
      </trkpt>
      <trkpt lat="48.8411" lon="2.39277">
        <ele>108.7</ele>
        <time>2015-01-12T19:47:42.756Z</time>
      </trkpt>
      <trkpt lat="48.84109" lon="2.39282">
        <ele>109</ele>
        <time>2015-01-12T19:47:43.763Z</time>
      </trkpt>
      <trkpt lat="48.84109" lon="2.39292">
        <ele>109.4</ele>
        <time>2015-01-12T19:47:45.834Z</time>
      </trkpt>
      <trkpt lat="48.8411" lon="2.39297">
        <ele>109.6</ele>
        <time>2015-01-12T19:47:46.710Z</time>
      </trkpt>
      <trkpt lat="48.8411" lon="2.39308">
        <ele>109.9</ele>
        <time>2015-01-12T19:47:49.635Z</time>
      </trkpt>
      <trkpt lat="48.84109" lon="2.39313">
        <ele>110</ele>
        <time>2015-01-12T19:47:49.697Z</time>
      </trkpt>
      <trkpt lat="48.84107" lon="2.39323">
        <ele>110.2</ele>
        <time>2015-01-12T19:47:51.732Z</time>
      </trkpt>
      <trkpt lat="48.84104" lon="2.39329">
        <ele>110.1</ele>
        <time>2015-01-12T19:47:52.747Z</time>
      </trkpt>
      <trkpt lat="48.84101" lon="2.39334">
        <ele>109.9</ele>
        <time>2015-01-12T19:47:53.675Z</time>
      </trkpt>
      <trkpt lat="48.84097" lon="2.3934">
        <ele>109.9</ele>
        <time>2015-01-12T19:47:54.707Z</time>
      </trkpt>
      <trkpt lat="48.84091" lon="2.39348">
        <ele>109.8</ele>
        <time>2015-01-12T19:47:56.713Z</time>
      </trkpt>
      <trkpt lat="48.84089" lon="2.3935">
        <ele>109.8</ele>
        <time>2015-01-12T19:47:57.649Z</time>
      </trkpt>
      <trkpt lat="48.84096" lon="2.39344">
        <ele>112.3</ele>
        <time>2015-01-12T19:48:04.728Z</time>
      </trkpt>
      <trkpt lat="48.84098" lon="2.39344">
        <ele>112.7</ele>
        <time>2015-01-12T19:48:05.655Z</time>
      </trkpt>
      <trkpt lat="48.841" lon="2.39346">
        <ele>114.6</ele>
        <time>2015-01-12T19:48:09.752Z</time>
      </trkpt>
      <trkpt lat="48.841" lon="2.39346">
        <ele>115.4</ele>
        <time>2015-01-12T19:48:10.764Z</time>
      </trkpt>
      <trkpt lat="48.841" lon="2.39347">
        <ele>116.3</ele>
        <time>2015-01-12T19:48:11.710Z</time>
      </trkpt>
      <trkpt lat="48.84103" lon="2.3935">
        <ele>118.1</ele>
        <time>2015-01-12T19:48:17.718Z</time>
      </trkpt>
      <trkpt lat="48.84104" lon="2.39351">
        <ele>118.2</ele>
        <time>2015-01-12T19:48:18.727Z</time>
      </trkpt>
      <trkpt lat="48.84105" lon="2.39351">
        <ele>118.7</ele>
        <time>2015-01-12T19:48:19.681Z</time>
      </trkpt>
      <trkpt lat="48.84107" lon="2.39352">
        <ele>119.2</ele>
        <time>2015-01-12T19:48:20.715Z</time>
      </trkpt>
      <trkpt lat="48.84113" lon="2.39357">
        <ele>121</ele>
        <time>2015-01-12T19:48:24.774Z</time>
      </trkpt>
      <trkpt lat="48.84116" lon="2.39358">
        <ele>122</ele>
        <time>2015-01-12T19:48:25.790Z</time>
      </trkpt>
      <trkpt lat="48.84116" lon="2.39358">
        <ele>122</ele>
        <time>2015-01-12T19:48:26.115Z</time>
      </trkpt>
      <trkpt lat="48.84117" lon="2.39359">
        <ele>122.5</ele>
        <time>2015-01-12T19:48:26.683Z</time>
      </trkpt>
      <trkpt lat="48.84118" lon="2.3936">
        <ele>123</ele>
        <time>2015-01-12T19:48:27.691Z</time>
      </trkpt>
      <trkpt lat="48.84121" lon="2.3936">
        <ele>124.4</ele>
        <time>2015-01-12T19:48:31.164Z</time>
      </trkpt>
      <trkpt lat="48.84122" lon="2.39361">
        <ele>124.8</ele>
        <time>2015-01-12T19:48:31.744Z</time>
      </trkpt>
      <trkpt lat="48.84122" lon="2.39362">
        <ele>124.8</ele>
        <time>2015-01-12T19:48:33.645Z</time>
      </trkpt>
      <trkpt lat="48.84123" lon="2.3937">
        <ele>124.3</ele>
        <time>2015-01-12T19:48:34.666Z</time>
      </trkpt>
      <trkpt lat="48.84122" lon="2.39383">
        <ele>123.6</ele>
        <time>2015-01-12T19:48:43.935Z</time>
      </trkpt>
      <trkpt lat="48.84122" lon="2.39385">
        <ele>123.6</ele>
        <time>2015-01-12T19:48:44.731Z</time>
      </trkpt>
      <trkpt lat="48.84121" lon="2.39386">
        <ele>123.8</ele>
        <time>2015-01-12T19:48:46.351Z</time>
      </trkpt>
      <trkpt lat="48.8412" lon="2.39385">
        <ele>123.8</ele>
        <time>2015-01-12T19:48:46.650Z</time>
      </trkpt>
      <trkpt lat="48.84119" lon="2.39382">
        <ele>123.6</ele>
        <time>2015-01-12T19:48:52.703Z</time>
      </trkpt>
      <trkpt lat="48.84119" lon="2.39381">
        <ele>124</ele>
        <time>2015-01-12T19:48:53.659Z</time>
      </trkpt>
      <trkpt lat="48.84111" lon="2.39387">
        <ele>123.9</ele>
        <time>2015-01-12T19:48:59.677Z</time>
      </trkpt>
      <trkpt lat="48.8411" lon="2.39388">
        <ele>123.9</ele>
        <time>2015-01-12T19:49:00.680Z</time>
      </trkpt>
      <trkpt lat="48.84105" lon="2.39399">
        <ele>124.6</ele>
        <time>2015-01-12T19:49:06.634Z</time>
      </trkpt>
      <trkpt lat="48.84104" lon="2.39401">
        <ele>124.7</ele>
        <time>2015-01-12T19:49:07.690Z</time>
      </trkpt>
      <trkpt lat="48.84105" lon="2.39413">
        <ele>124.7</ele>
        <time>2015-01-12T19:49:12.801Z</time>
      </trkpt>
      <trkpt lat="48.84105" lon="2.39416">
        <ele>124.7</ele>
        <time>2015-01-12T19:49:13.744Z</time>
      </trkpt>
      <trkpt lat="48.84109" lon="2.39424">
        <ele>124.2</ele>
        <time>2015-01-12T19:49:15.659Z</time>
      </trkpt>
      <trkpt lat="48.84111" lon="2.39428">
        <ele>123.8</ele>
        <time>2015-01-12T19:49:16.686Z</time>
      </trkpt>
      <trkpt lat="48.84116" lon="2.39438">
        <ele>122.2</ele>
        <time>2015-01-12T19:49:18.724Z</time>
      </trkpt>
      <trkpt lat="48.84119" lon="2.39444">
        <ele>120.1</ele>
        <time>2015-01-12T19:49:19.744Z</time>
      </trkpt>
      <trkpt lat="48.84122" lon="2.3945">
        <ele>118.8</ele>
        <time>2015-01-12T19:49:20.669Z</time>
      </trkpt>
      <trkpt lat="48.84125" lon="2.39456">
        <ele>118.1</ele>
        <time>2015-01-12T19:49:21.704Z</time>
      </trkpt>
      <trkpt lat="48.84128" lon="2.39462">
        <ele>117.6</ele>
        <time>2015-01-12T19:49:22.710Z</time>
      </trkpt>
      <trkpt lat="48.84131" lon="2.39467">
        <ele>117.2</ele>
        <time>2015-01-12T19:49:23.722Z</time>
      </trkpt>
      <trkpt lat="48.84137" lon="2.39475">
        <ele>116.8</ele>
        <time>2015-01-12T19:49:25.755Z</time>
      </trkpt>
      <trkpt lat="48.8414" lon="2.3948">
        <ele>116.9</ele>
        <time>2015-01-12T19:49:26.666Z</time>
      </trkpt>
      <trkpt lat="48.84144" lon="2.39485">
        <ele>116.1</ele>
        <time>2015-01-12T19:49:27.669Z</time>
      </trkpt>
      <trkpt lat="48.84146" lon="2.39492">
        <ele>115.5</ele>
        <time>2015-01-12T19:49:28.683Z</time>
      </trkpt>
      <trkpt lat="48.84149" lon="2.39498">
        <ele>115.1</ele>
        <time>2015-01-12T19:49:29.933Z</time>
      </trkpt>
      <trkpt lat="48.84151" lon="2.39504">
        <ele>114.6</ele>
        <time>2015-01-12T19:49:30.729Z</time>
      </trkpt>
      <trkpt lat="48.84155" lon="2.39509">
        <ele>114.2</ele>
        <time>2015-01-12T19:49:31.741Z</time>
      </trkpt>
      <trkpt lat="48.84158" lon="2.39515">
        <ele>113.8</ele>
        <time>2015-01-12T19:49:32.750Z</time>
      </trkpt>
      <trkpt lat="48.84161" lon="2.39521">
        <ele>113.4</ele>
        <time>2015-01-12T19:49:33.662Z</time>
      </trkpt>
      <trkpt lat="48.84163" lon="2.39527">
        <ele>113.1</ele>
        <time>2015-01-12T19:49:34.658Z</time>
      </trkpt>
      <trkpt lat="48.84166" lon="2.39533">
        <ele>113</ele>
        <time>2015-01-12T19:49:35.659Z</time>
      </trkpt>
      <trkpt lat="48.8417" lon="2.39539">
        <ele>112.7</ele>
        <time>2015-01-12T19:49:36.686Z</time>
      </trkpt>
      <trkpt lat="48.84173" lon="2.39545">
        <ele>112.6</ele>
        <time>2015-01-12T19:49:37.694Z</time>
      </trkpt>
      <trkpt lat="48.84176" lon="2.39551">
        <ele>112.3</ele>
        <time>2015-01-12T19:49:38.760Z</time>
      </trkpt>
      <trkpt lat="48.84178" lon="2.39557">
        <ele>111.9</ele>
        <time>2015-01-12T19:49:39.630Z</time>
      </trkpt>
      <trkpt lat="48.84181" lon="2.39563">
        <ele>111.6</ele>
        <time>2015-01-12T19:49:40.656Z</time>
      </trkpt>
      <trkpt lat="48.84185" lon="2.39573">
        <ele>110.7</ele>
        <time>2015-01-12T19:49:42.710Z</time>
      </trkpt>
      <trkpt lat="48.84187" lon="2.39578">
        <ele>110.4</ele>
        <time>2015-01-12T19:49:43.747Z</time>
      </trkpt>
      <trkpt lat="48.84193" lon="2.39586">
        <ele>109.9</ele>
        <time>2015-01-12T19:49:45.669Z</time>
      </trkpt>
      <trkpt lat="48.84195" lon="2.3959">
        <ele>109.7</ele>
        <time>2015-01-12T19:49:46.698Z</time>
      </trkpt>
      <trkpt lat="48.842" lon="2.396">
        <ele>109.5</ele>
        <time>2015-01-12T19:49:48.665Z</time>
      </trkpt>
      <trkpt lat="48.84202" lon="2.39607">
        <ele>109.8</ele>
        <time>2015-01-12T19:49:49.701Z</time>
      </trkpt>
      <trkpt lat="48.84205" lon="2.39612">
        <ele>110</ele>
        <time>2015-01-12T19:49:50.665Z</time>
      </trkpt>
      <trkpt lat="48.84208" lon="2.39618">
        <ele>110.2</ele>
        <time>2015-01-12T19:49:51.666Z</time>
      </trkpt>
      <trkpt lat="48.84212" lon="2.39628">
        <ele>110.1</ele>
        <time>2015-01-12T19:49:53.667Z</time>
      </trkpt>
      <trkpt lat="48.84213" lon="2.39634">
        <ele>110.1</ele>
        <time>2015-01-12T19:49:54.682Z</time>
      </trkpt>
      <trkpt lat="48.84218" lon="2.39637">
        <ele>110.1</ele>
        <time>2015-01-12T19:49:55.776Z</time>
      </trkpt>
      <trkpt lat="48.84221" lon="2.39642">
        <ele>110.1</ele>
        <time>2015-01-12T19:49:56.663Z</time>
      </trkpt>
      <trkpt lat="48.84225" lon="2.39653">
        <ele>110.7</ele>
        <time>2015-01-12T19:49:58.687Z</time>
      </trkpt>
      <trkpt lat="48.84227" lon="2.39659">
        <ele>111.2</ele>
        <time>2015-01-12T19:49:59.699Z</time>
      </trkpt>
      <trkpt lat="48.8423" lon="2.39667">
        <ele>111.6</ele>
        <time>2015-01-12T19:50:00.731Z</time>
      </trkpt>
      <trkpt lat="48.84232" lon="2.39674">
        <ele>111.9</ele>
        <time>2015-01-12T19:50:01.742Z</time>
      </trkpt>
      <trkpt lat="48.84234" lon="2.39682">
        <ele>112.3</ele>
        <time>2015-01-12T19:50:02.676Z</time>
      </trkpt>
      <trkpt lat="48.84237" lon="2.39689">
        <ele>112.4</ele>
        <time>2015-01-12T19:50:03.680Z</time>
      </trkpt>
      <trkpt lat="48.84239" lon="2.39695">
        <ele>112.2</ele>
        <time>2015-01-12T19:50:04.694Z</time>
      </trkpt>
      <trkpt lat="48.84241" lon="2.39701">
        <ele>112.1</ele>
        <time>2015-01-12T19:50:05.799Z</time>
      </trkpt>
      <trkpt lat="48.84245" lon="2.39713">
        <ele>112</ele>
        <time>2015-01-12T19:50:07.709Z</time>
      </trkpt>
      <trkpt lat="48.84246" lon="2.39718">
        <ele>112.1</ele>
        <time>2015-01-12T19:50:08.725Z</time>
      </trkpt>
      <trkpt lat="48.84249" lon="2.39729">
        <ele>112.4</ele>
        <time>2015-01-12T19:50:10.678Z</time>
      </trkpt>
      <trkpt lat="48.84253" lon="2.39731">
        <ele>113.1</ele>
        <time>2015-01-12T19:50:11.718Z</time>
      </trkpt>
      <trkpt lat="48.84259" lon="2.39738">
        <ele>114.5</ele>
        <time>2015-01-12T19:50:13.699Z</time>
      </trkpt>
      <trkpt lat="48.84262" lon="2.3974">
        <ele>115.6</ele>
        <time>2015-01-12T19:50:14.711Z</time>
      </trkpt>
      <trkpt lat="48.84269" lon="2.39744">
        <ele>117.8</ele>
        <time>2015-01-12T19:50:17.672Z</time>
      </trkpt>
      <trkpt lat="48.8427" lon="2.39744">
        <ele>118</ele>
        <time>2015-01-12T19:50:18.675Z</time>
      </trkpt>
      <trkpt lat="48.84271" lon="2.39743">
        <ele>118.1</ele>
        <time>2015-01-12T19:50:19.714Z</time>
      </trkpt>
      <trkpt lat="48.84275" lon="2.39751">
        <ele>120</ele>
        <time>2015-01-12T19:50:24.697Z</time>
      </trkpt>
      <trkpt lat="48.84276" lon="2.39755">
        <ele>120.4</ele>
        <time>2015-01-12T19:50:25.711Z</time>
      </trkpt>
      <trkpt lat="48.84279" lon="2.39767">
        <ele>121.9</ele>
        <time>2015-01-12T19:50:28.750Z</time>
      </trkpt>
      <trkpt lat="48.8428" lon="2.39773">
        <ele>122.4</ele>
        <time>2015-01-12T19:50:29.694Z</time>
      </trkpt>
      <trkpt lat="48.84283" lon="2.39783">
        <ele>123.5</ele>
        <time>2015-01-12T19:50:31.745Z</time>
      </trkpt>
      <trkpt lat="48.84284" lon="2.39788">
        <ele>123.9</ele>
        <time>2015-01-12T19:50:32.678Z</time>
      </trkpt>
      <trkpt lat="48.84286" lon="2.39798">
        <ele>124.5</ele>
        <time>2015-01-12T19:50:34.737Z</time>
      </trkpt>
      <trkpt lat="48.84287" lon="2.39804">
        <ele>124.7</ele>
        <time>2015-01-12T19:50:35.739Z</time>
      </trkpt>
      <trkpt lat="48.84288" lon="2.39815">
        <ele>125.1</ele>
        <time>2015-01-12T19:50:37.697Z</time>
      </trkpt>
      <trkpt lat="48.84288" lon="2.39822">
        <ele>125</ele>
        <time>2015-01-12T19:50:38.687Z</time>
      </trkpt>
      <trkpt lat="48.84288" lon="2.39835">
        <ele>125</ele>
        <time>2015-01-12T19:50:40.661Z</time>
      </trkpt>
      <trkpt lat="48.84288" lon="2.39841">
        <ele>125</ele>
        <time>2015-01-12T19:50:41.659Z</time>
      </trkpt>
      <trkpt lat="48.84289" lon="2.39848">
        <ele>124.7</ele>
        <time>2015-01-12T19:50:42.679Z</time>
      </trkpt>
      <trkpt lat="48.8429" lon="2.39854">
        <ele>124.6</ele>
        <time>2015-01-12T19:50:43.696Z</time>
      </trkpt>
      <trkpt lat="48.8429" lon="2.39868">
        <ele>124.3</ele>
        <time>2015-01-12T19:50:45.708Z</time>
      </trkpt>
      <trkpt lat="48.84291" lon="2.39875">
        <ele>124.2</ele>
        <time>2015-01-12T19:50:46.720Z</time>
      </trkpt>
      <trkpt lat="48.84291" lon="2.39882">
        <ele>124</ele>
        <time>2015-01-12T19:50:47.662Z</time>
      </trkpt>
      <trkpt lat="48.84292" lon="2.39889">
        <ele>123.8</ele>
        <time>2015-01-12T19:50:48.665Z</time>
      </trkpt>
      <trkpt lat="48.84293" lon="2.39896">
        <ele>123.5</ele>
        <time>2015-01-12T19:50:49.701Z</time>
      </trkpt>
      <trkpt lat="48.84294" lon="2.39902">
        <ele>123.3</ele>
        <time>2015-01-12T19:50:50.694Z</time>
      </trkpt>
      <trkpt lat="48.84294" lon="2.39909">
        <ele>123.2</ele>
        <time>2015-01-12T19:50:51.703Z</time>
      </trkpt>
      <trkpt lat="48.84294" lon="2.39916">
        <ele>123.3</ele>
        <time>2015-01-12T19:50:52.714Z</time>
      </trkpt>
      <trkpt lat="48.84293" lon="2.39924">
        <ele>123.4</ele>
        <time>2015-01-12T19:50:53.721Z</time>
      </trkpt>
      <trkpt lat="48.84292" lon="2.39931">
        <ele>123.6</ele>
        <time>2015-01-12T19:50:54.725Z</time>
      </trkpt>
      <trkpt lat="48.8429" lon="2.39939">
        <ele>123.6</ele>
        <time>2015-01-12T19:50:55.729Z</time>
      </trkpt>
      <trkpt lat="48.84288" lon="2.39946">
        <ele>123.6</ele>
        <time>2015-01-12T19:50:56.738Z</time>
      </trkpt>
      <trkpt lat="48.84287" lon="2.39954">
        <ele>123.7</ele>
        <time>2015-01-12T19:50:57.751Z</time>
      </trkpt>
      <trkpt lat="48.84286" lon="2.39962">
        <ele>123.7</ele>
        <time>2015-01-12T19:50:58.658Z</time>
      </trkpt>
      <trkpt lat="48.84285" lon="2.39969">
        <ele>123.6</ele>
        <time>2015-01-12T19:50:59.652Z</time>
      </trkpt>
      <trkpt lat="48.84285" lon="2.39975">
        <ele>123.4</ele>
        <time>2015-01-12T19:51:00.667Z</time>
      </trkpt>
      <trkpt lat="48.84286" lon="2.39988">
        <ele>123.2</ele>
        <time>2015-01-12T19:51:02.730Z</time>
      </trkpt>
      <trkpt lat="48.84286" lon="2.39995">
        <ele>123.2</ele>
        <time>2015-01-12T19:51:03.802Z</time>
      </trkpt>
      <trkpt lat="48.84287" lon="2.40002">
        <ele>123.1</ele>
        <time>2015-01-12T19:51:04.643Z</time>
      </trkpt>
      <trkpt lat="48.84287" lon="2.40009">
        <ele>123.1</ele>
        <time>2015-01-12T19:51:05.652Z</time>
      </trkpt>
      <trkpt lat="48.84288" lon="2.40022">
        <ele>123.3</ele>
        <time>2015-01-12T19:51:07.691Z</time>
      </trkpt>
      <trkpt lat="48.84288" lon="2.40028">
        <ele>123.5</ele>
        <time>2015-01-12T19:51:08.705Z</time>
      </trkpt>
      <trkpt lat="48.84287" lon="2.40034">
        <ele>123.8</ele>
        <time>2015-01-12T19:51:09.715Z</time>
      </trkpt>
      <trkpt lat="48.84286" lon="2.40042">
        <ele>124.6</ele>
        <time>2015-01-12T19:51:10.677Z</time>
      </trkpt>
      <trkpt lat="48.84285" lon="2.4005">
        <ele>125.2</ele>
        <time>2015-01-12T19:51:11.682Z</time>
      </trkpt>
      <trkpt lat="48.84285" lon="2.40056">
        <ele>125.7</ele>
        <time>2015-01-12T19:51:12.797Z</time>
      </trkpt>
      <trkpt lat="48.84288" lon="2.40065">
        <ele>126.2</ele>
        <time>2015-01-12T19:51:13.721Z</time>
      </trkpt>
      <trkpt lat="48.8429" lon="2.40074">
        <ele>127</ele>
        <time>2015-01-12T19:51:14.764Z</time>
      </trkpt>
      <trkpt lat="48.84292" lon="2.40082">
        <ele>128</ele>
        <time>2015-01-12T19:51:15.660Z</time>
      </trkpt>
      <trkpt lat="48.84293" lon="2.40089">
        <ele>128.8</ele>
        <time>2015-01-12T19:51:16.662Z</time>
      </trkpt>
      <trkpt lat="48.84296" lon="2.40097">
        <ele>130</ele>
        <time>2015-01-12T19:51:17.686Z</time>
      </trkpt>
      <trkpt lat="48.84302" lon="2.40103">
        <ele>130.8</ele>
        <time>2015-01-12T19:51:18.699Z</time>
      </trkpt>
      <trkpt lat="48.84304" lon="2.40114">
        <ele>130.2</ele>
        <time>2015-01-12T19:51:20.660Z</time>
      </trkpt>
      <trkpt lat="48.84304" lon="2.4012">
        <ele>130.2</ele>
        <time>2015-01-12T19:51:21.676Z</time>
      </trkpt>
      <trkpt lat="48.84307" lon="2.40129">
        <ele>129.7</ele>
        <time>2015-01-12T19:51:23.678Z</time>
      </trkpt>
      <trkpt lat="48.84308" lon="2.40132">
        <ele>129.7</ele>
        <time>2015-01-12T19:51:24.685Z</time>
      </trkpt>
      <trkpt lat="48.8431" lon="2.40134">
        <ele>129.8</ele>
        <time>2015-01-12T19:51:25.708Z</time>
      </trkpt>
      <trkpt lat="48.84311" lon="2.40135">
        <ele>129.8</ele>
        <time>2015-01-12T19:51:26.738Z</time>
      </trkpt>
      <trkpt lat="48.84311" lon="2.40135">
        <ele>129.7</ele>
        <time>2015-01-12T19:51:37.705Z</time>
      </trkpt>
      <trkpt lat="48.84305" lon="2.40146">
        <ele>132.4</ele>
        <time>2015-01-12T19:51:38.721Z</time>
      </trkpt>
      <trkpt lat="48.84305" lon="2.40147">
        <ele>132.5</ele>
        <time>2015-01-12T19:51:39.760Z</time>
      </trkpt>
      <trkpt lat="48.84304" lon="2.40149">
        <ele>133</ele>
        <time>2015-01-12T19:51:40.656Z</time>
      </trkpt>
      <trkpt lat="48.84302" lon="2.40153">
        <ele>135</ele>
        <time>2015-01-12T19:51:42.679Z</time>
      </trkpt>
      <trkpt lat="48.84301" lon="2.40154">
        <ele>133.6</ele>
        <time>2015-01-12T19:51:43.713Z</time>
      </trkpt>
      <trkpt lat="48.84302" lon="2.40152">
        <ele>129.7</ele>
        <time>2015-01-12T19:51:51.711Z</time>
      </trkpt>
      <trkpt lat="48.84303" lon="2.40151">
        <ele>128.7</ele>
        <time>2015-01-12T19:51:52.739Z</time>
      </trkpt>
      <trkpt lat="48.84304" lon="2.40151">
        <ele>127.7</ele>
        <time>2015-01-12T19:51:53.762Z</time>
      </trkpt>
      <trkpt lat="48.84305" lon="2.40152">
        <ele>127.6</ele>
        <time>2015-01-12T19:51:54.648Z</time>
      </trkpt>
      <trkpt lat="48.84305" lon="2.40152">
        <ele>127.6</ele>
        <time>2015-01-12T19:51:55.708Z</time>
      </trkpt>
      <trkpt lat="48.84306" lon="2.40152">
        <ele>127.6</ele>
        <time>2015-01-12T19:51:56.666Z</time>
      </trkpt>
      <trkpt lat="48.84306" lon="2.40153">
        <ele>127.6</ele>
        <time>2015-01-12T19:51:57.661Z</time>
      </trkpt>
      <trkpt lat="48.84307" lon="2.40158">
        <ele>128.1</ele>
        <time>2015-01-12T19:52:03.755Z</time>
      </trkpt>
      <trkpt lat="48.84307" lon="2.40158">
        <ele>128.2</ele>
        <time>2015-01-12T19:52:04.766Z</time>
      </trkpt>
      <trkpt lat="48.84306" lon="2.40158">
        <ele>128.3</ele>
        <time>2015-01-12T19:52:09.679Z</time>
      </trkpt>
      <trkpt lat="48.84302" lon="2.4016">
        <ele>129.3</ele>
        <time>2015-01-12T19:52:10.717Z</time>
      </trkpt>
      <trkpt lat="48.84299" lon="2.4016">
        <ele>130</ele>
        <time>2015-01-12T19:52:11.769Z</time>
      </trkpt>
      <trkpt lat="48.84298" lon="2.4016">
        <ele>130.4</ele>
        <time>2015-01-12T19:52:12.685Z</time>
      </trkpt>
      <trkpt lat="48.84298" lon="2.4016">
        <ele>130.4</ele>
        <time>2015-01-12T19:52:22.654Z</time>
      </trkpt>
      <trkpt lat="48.84291" lon="2.40157">
        <ele>130.9</ele>
        <time>2015-01-12T19:52:23.744Z</time>
      </trkpt>
      <trkpt lat="48.84292" lon="2.40157">
        <ele>131.3</ele>
        <time>2015-01-12T19:52:26.694Z</time>
      </trkpt>
      <trkpt lat="48.84292" lon="2.40158">
        <ele>131.3</ele>
        <time>2015-01-12T19:52:27.661Z</time>
      </trkpt>
      <trkpt lat="48.84293" lon="2.40155">
        <ele>130.4</ele>
        <time>2015-01-12T19:52:28.706Z</time>
      </trkpt>
      <trkpt lat="48.84292" lon="2.40154">
        <ele>129.7</ele>
        <time>2015-01-12T19:52:29.715Z</time>
      </trkpt>
      <trkpt lat="48.84293" lon="2.40153">
        <ele>129.4</ele>
        <time>2015-01-12T19:52:37.698Z</time>
      </trkpt>
      <trkpt lat="48.84292" lon="2.4015">
        <ele>129.1</ele>
        <time>2015-01-12T19:52:38.718Z</time>
      </trkpt>
      <trkpt lat="48.84287" lon="2.40161">
        <ele>128.7</ele>
        <time>2015-01-12T19:52:45.715Z</time>
      </trkpt>
      <trkpt lat="48.84286" lon="2.40163">
        <ele>128.4</ele>
        <time>2015-01-12T19:52:46.729Z</time>
      </trkpt>
      <trkpt lat="48.84283" lon="2.40172">
        <ele>127.6</ele>
        <time>2015-01-12T19:52:49.793Z</time>
      </trkpt>
      <trkpt lat="48.84283" lon="2.40176">
        <ele>127.3</ele>
        <time>2015-01-12T19:52:50.657Z</time>
      </trkpt>
      <trkpt lat="48.84282" lon="2.40187">
        <ele>127.2</ele>
        <time>2015-01-12T19:52:53.686Z</time>
      </trkpt>
      <trkpt lat="48.8428" lon="2.40191">
        <ele>127.3</ele>
        <time>2015-01-12T19:52:54.709Z</time>
      </trkpt>
      <trkpt lat="48.84278" lon="2.40202">
        <ele>127.3</ele>
        <time>2015-01-12T19:52:58.695Z</time>
      </trkpt>
      <trkpt lat="48.84278" lon="2.40205">
        <ele>127.3</ele>
        <time>2015-01-12T19:52:59.697Z</time>
      </trkpt>
      <trkpt lat="48.8428" lon="2.40215">
        <ele>126.7</ele>
        <time>2015-01-12T19:53:00.671Z</time>
      </trkpt>
      <trkpt lat="48.84282" lon="2.40221">
        <ele>126.7</ele>
        <time>2015-01-12T19:53:01.698Z</time>
      </trkpt>
      <trkpt lat="48.84283" lon="2.40231">
        <ele>126.2</ele>
        <time>2015-01-12T19:53:04.749Z</time>
      </trkpt>
      <trkpt lat="48.84284" lon="2.40234">
        <ele>126.1</ele>
        <time>2015-01-12T19:53:05.780Z</time>
      </trkpt>
      <trkpt lat="48.84287" lon="2.40245">
        <ele>127.2</ele>
        <time>2015-01-12T19:53:09.775Z</time>
      </trkpt>
      <trkpt lat="48.84287" lon="2.40248">
        <ele>127.4</ele>
        <time>2015-01-12T19:53:10.664Z</time>
      </trkpt>
      <trkpt lat="48.84287" lon="2.40258">
        <ele>127.7</ele>
        <time>2015-01-12T19:53:12.713Z</time>
      </trkpt>
      <trkpt lat="48.84287" lon="2.40265">
        <ele>127.6</ele>
        <time>2015-01-12T19:53:13.791Z</time>
      </trkpt>
      <trkpt lat="48.84287" lon="2.40272">
        <ele>127.5</ele>
        <time>2015-01-12T19:53:14.660Z</time>
      </trkpt>
      <trkpt lat="48.84286" lon="2.40279">
        <ele>127.3</ele>
        <time>2015-01-12T19:53:15.669Z</time>
      </trkpt>
      <trkpt lat="48.8429" lon="2.4029">
        <ele>127.2</ele>
        <time>2015-01-12T19:53:16.675Z</time>
      </trkpt>
      <trkpt lat="48.84296" lon="2.403">
        <ele>126.9</ele>
        <time>2015-01-12T19:53:17.685Z</time>
      </trkpt>
      <trkpt lat="48.84297" lon="2.40311">
        <ele>126.7</ele>
        <time>2015-01-12T19:53:18.693Z</time>
      </trkpt>
      <trkpt lat="48.843" lon="2.40321">
        <ele>126.5</ele>
        <time>2015-01-12T19:53:19.707Z</time>
      </trkpt>
      <trkpt lat="48.84303" lon="2.40329">
        <ele>126.4</ele>
        <time>2015-01-12T19:53:20.735Z</time>
      </trkpt>
      <trkpt lat="48.84307" lon="2.40343">
        <ele>126.1</ele>
        <time>2015-01-12T19:53:21.635Z</time>
      </trkpt>
      <trkpt lat="48.84308" lon="2.40351">
        <ele>126</ele>
        <time>2015-01-12T19:53:22.670Z</time>
      </trkpt>
      <trkpt lat="48.84309" lon="2.40359">
        <ele>125.9</ele>
        <time>2015-01-12T19:53:23.676Z</time>
      </trkpt>
      <trkpt lat="48.84309" lon="2.40366">
        <ele>125.9</ele>
        <time>2015-01-12T19:53:24.687Z</time>
      </trkpt>
      <trkpt lat="48.84308" lon="2.40373">
        <ele>125.8</ele>
        <time>2015-01-12T19:53:25.692Z</time>
      </trkpt>
      <trkpt lat="48.84306" lon="2.40381">
        <ele>125.8</ele>
        <time>2015-01-12T19:53:26.727Z</time>
      </trkpt>
      <trkpt lat="48.84305" lon="2.4039">
        <ele>125.9</ele>
        <time>2015-01-12T19:53:27.652Z</time>
      </trkpt>
      <trkpt lat="48.84304" lon="2.40398">
        <ele>125.9</ele>
        <time>2015-01-12T19:53:28.650Z</time>
      </trkpt>
      <trkpt lat="48.84302" lon="2.40407">
        <ele>126</ele>
        <time>2015-01-12T19:53:29.680Z</time>
      </trkpt>
      <trkpt lat="48.843" lon="2.40418">
        <ele>126</ele>
        <time>2015-01-12T19:53:30.721Z</time>
      </trkpt>
      <trkpt lat="48.84299" lon="2.40431">
        <ele>125.6</ele>
        <time>2015-01-12T19:53:31.738Z</time>
      </trkpt>
      <trkpt lat="48.84297" lon="2.40441">
        <ele>125.6</ele>
        <time>2015-01-12T19:53:32.712Z</time>
      </trkpt>
      <trkpt lat="48.84295" lon="2.4045">
        <ele>125.5</ele>
        <time>2015-01-12T19:53:33.704Z</time>
      </trkpt>
      <trkpt lat="48.84294" lon="2.40457">
        <ele>125.3</ele>
        <time>2015-01-12T19:53:34.659Z</time>
      </trkpt>
      <trkpt lat="48.84292" lon="2.40464">
        <ele>125.3</ele>
        <time>2015-01-12T19:53:35.664Z</time>
      </trkpt>
      <trkpt lat="48.84292" lon="2.40477">
        <ele>124.8</ele>
        <time>2015-01-12T19:53:37.711Z</time>
      </trkpt>
      <trkpt lat="48.84294" lon="2.40486">
        <ele>123.5</ele>
        <time>2015-01-12T19:53:38.740Z</time>
      </trkpt>
      <trkpt lat="48.84296" lon="2.40495">
        <ele>122.2</ele>
        <time>2015-01-12T19:53:39.663Z</time>
      </trkpt>
      <trkpt lat="48.84296" lon="2.40502">
        <ele>121</ele>
        <time>2015-01-12T19:53:40.674Z</time>
      </trkpt>
      <trkpt lat="48.84294" lon="2.40514">
        <ele>118.8</ele>
        <time>2015-01-12T19:53:44.758Z</time>
      </trkpt>
      <trkpt lat="48.84294" lon="2.40515">
        <ele>118.3</ele>
        <time>2015-01-12T19:53:45.670Z</time>
      </trkpt>
      <trkpt lat="48.84299" lon="2.40525">
        <ele>118</ele>
        <time>2015-01-12T19:53:50.663Z</time>
      </trkpt>
      <trkpt lat="48.84301" lon="2.40528">
        <ele>118.1</ele>
        <time>2015-01-12T19:53:51.669Z</time>
      </trkpt>
      <trkpt lat="48.84308" lon="2.40533">
        <ele>118.2</ele>
        <time>2015-01-12T19:53:54.698Z</time>
      </trkpt>
      <trkpt lat="48.8431" lon="2.40534">
        <ele>118.3</ele>
        <time>2015-01-12T19:53:55.710Z</time>
      </trkpt>
      <trkpt lat="48.84315" lon="2.40539">
        <ele>118.3</ele>
        <time>2015-01-12T19:53:58.670Z</time>
      </trkpt>
      <trkpt lat="48.84317" lon="2.4054">
        <ele>118.3</ele>
        <time>2015-01-12T19:53:59.708Z</time>
      </trkpt>
      <trkpt lat="48.84319" lon="2.4054">
        <ele>118.5</ele>
        <time>2015-01-12T19:54:00.638Z</time>
      </trkpt>
      <trkpt lat="48.84321" lon="2.4055">
        <ele>119.8</ele>
        <time>2015-01-12T19:54:05.767Z</time>
      </trkpt>
      <trkpt lat="48.84321" lon="2.40554">
        <ele>120.2</ele>
        <time>2015-01-12T19:54:06.715Z</time>
      </trkpt>
      <trkpt lat="48.8432" lon="2.40566">
        <ele>121.7</ele>
        <time>2015-01-12T19:54:09.809Z</time>
      </trkpt>
      <trkpt lat="48.84319" lon="2.40572">
        <ele>122.2</ele>
        <time>2015-01-12T19:54:10.810Z</time>
      </trkpt>
      <trkpt lat="48.84318" lon="2.4058">
        <ele>122.5</ele>
        <time>2015-01-12T19:54:11.709Z</time>
      </trkpt>
      <trkpt lat="48.84317" lon="2.40587">
        <ele>122.7</ele>
        <time>2015-01-12T19:54:12.716Z</time>
      </trkpt>
      <trkpt lat="48.84314" lon="2.40599">
        <ele>123.2</ele>
        <time>2015-01-12T19:54:14.745Z</time>
      </trkpt>
      <trkpt lat="48.84313" lon="2.40605">
        <ele>123.5</ele>
        <time>2015-01-12T19:54:15.810Z</time>
      </trkpt>
      <trkpt lat="48.84312" lon="2.40617">
        <ele>123.6</ele>
        <time>2015-01-12T19:54:17.667Z</time>
      </trkpt>
      <trkpt lat="48.84312" lon="2.40622">
        <ele>123.5</ele>
        <time>2015-01-12T19:54:18.690Z</time>
      </trkpt>
      <trkpt lat="48.84311" lon="2.40634">
        <ele>123.3</ele>
        <time>2015-01-12T19:54:20.769Z</time>
      </trkpt>
      <trkpt lat="48.84309" lon="2.4064">
        <ele>123.2</ele>
        <time>2015-01-12T19:54:21.702Z</time>
      </trkpt>
      <trkpt lat="48.84307" lon="2.40652">
        <ele>123.3</ele>
        <time>2015-01-12T19:54:23.636Z</time>
      </trkpt>
      <trkpt lat="48.84308" lon="2.40659">
        <ele>123.3</ele>
        <time>2015-01-12T19:54:24.705Z</time>
      </trkpt>
      <trkpt lat="48.84305" lon="2.40672">
        <ele>123.3</ele>
        <time>2015-01-12T19:54:26.692Z</time>
      </trkpt>
      <trkpt lat="48.84303" lon="2.40678">
        <ele>123.2</ele>
        <time>2015-01-12T19:54:27.716Z</time>
      </trkpt>
      <trkpt lat="48.84302" lon="2.40685">
        <ele>123.1</ele>
        <time>2015-01-12T19:54:28.712Z</time>
      </trkpt>
      <trkpt lat="48.843" lon="2.40692">
        <ele>123.1</ele>
        <time>2015-01-12T19:54:29.740Z</time>
      </trkpt>
      <trkpt lat="48.84299" lon="2.40699">
        <ele>123.1</ele>
        <time>2015-01-12T19:54:30.640Z</time>
      </trkpt>
      <trkpt lat="48.84298" lon="2.40706">
        <ele>123.1</ele>
        <time>2015-01-12T19:54:31.711Z</time>
      </trkpt>
      <trkpt lat="48.84296" lon="2.40719">
        <ele>123.2</ele>
        <time>2015-01-12T19:54:33.622Z</time>
      </trkpt>
      <trkpt lat="48.84296" lon="2.40726">
        <ele>123.1</ele>
        <time>2015-01-12T19:54:34.636Z</time>
      </trkpt>
      <trkpt lat="48.84297" lon="2.40736">
        <ele>123</ele>
        <time>2015-01-12T19:54:35.638Z</time>
      </trkpt>
      <trkpt lat="48.84298" lon="2.40742">
        <ele>123</ele>
        <time>2015-01-12T19:54:36.646Z</time>
      </trkpt>
      <trkpt lat="48.84301" lon="2.40753">
        <ele>122.6</ele>
        <time>2015-01-12T19:54:38.752Z</time>
      </trkpt>
      <trkpt lat="48.84302" lon="2.40758">
        <ele>122.6</ele>
        <time>2015-01-12T19:54:39.668Z</time>
      </trkpt>
      <trkpt lat="48.84302" lon="2.40769">
        <ele>122.3</ele>
        <time>2015-01-12T19:54:42.722Z</time>
      </trkpt>
      <trkpt lat="48.84302" lon="2.40773">
        <ele>122.2</ele>
        <time>2015-01-12T19:54:43.645Z</time>
      </trkpt>
      <trkpt lat="48.84303" lon="2.40781">
        <ele>120.4</ele>
        <time>2015-01-12T19:54:49.538Z</time>
      </trkpt>
      <trkpt lat="48.84303" lon="2.40781">
        <ele>119.9</ele>
        <time>2015-01-12T19:54:49.665Z</time>
      </trkpt>
      <trkpt lat="48.84304" lon="2.4078">
        <ele>119.6</ele>
        <time>2015-01-12T19:54:58.704Z</time>
      </trkpt>
      <trkpt lat="48.84304" lon="2.40776">
        <ele>117.7</ele>
        <time>2015-01-12T19:54:59.738Z</time>
      </trkpt>
      <trkpt lat="48.84305" lon="2.40782">
        <ele>116.8</ele>
        <time>2015-01-12T19:55:07.685Z</time>
      </trkpt>
      <trkpt lat="48.84306" lon="2.40782">
        <ele>116.9</ele>
        <time>2015-01-12T19:55:08.682Z</time>
      </trkpt>
      <trkpt lat="48.84307" lon="2.40784">
        <ele>116.9</ele>
        <time>2015-01-12T19:55:09.706Z</time>
      </trkpt>
      <trkpt lat="48.84314" lon="2.40788">
        <ele>116.6</ele>
        <time>2015-01-12T19:55:15.640Z</time>
      </trkpt>
      <trkpt lat="48.84316" lon="2.40788">
        <ele>116.5</ele>
        <time>2015-01-12T19:55:16.711Z</time>
      </trkpt>
      <trkpt lat="48.84323" lon="2.40787">
        <ele>116.2</ele>
        <time>2015-01-12T19:55:20.102Z</time>
      </trkpt>
      <trkpt lat="48.84326" lon="2.40788">
        <ele>116.1</ele>
        <time>2015-01-12T19:55:20.635Z</time>
      </trkpt>
      <trkpt lat="48.84334" lon="2.40794">
        <ele>115.7</ele>
        <time>2015-01-12T19:55:23.680Z</time>
      </trkpt>
      <trkpt lat="48.84337" lon="2.40795">
        <ele>115.6</ele>
        <time>2015-01-12T19:55:24.683Z</time>
      </trkpt>
      <trkpt lat="48.84342" lon="2.40801">
        <ele>115.2</ele>
        <time>2015-01-12T19:55:27.667Z</time>
      </trkpt>
      <trkpt lat="48.84345" lon="2.40803">
        <ele>115.1</ele>
        <time>2015-01-12T19:55:28.688Z</time>
      </trkpt>
      <trkpt lat="48.8435" lon="2.40809">
        <ele>114.9</ele>
        <time>2015-01-12T19:55:30.647Z</time>
      </trkpt>
      <trkpt lat="48.84353" lon="2.40812">
        <ele>114.9</ele>
        <time>2015-01-12T19:55:31.714Z</time>
      </trkpt>
      <trkpt lat="48.84356" lon="2.40814">
        <ele>114.6</ele>
        <time>2015-01-12T19:55:32.712Z</time>
      </trkpt>
      <trkpt lat="48.84365" lon="2.40808">
        <ele>110.8</ele>
        <time>2015-01-12T19:55:33.821Z</time>
      </trkpt>
      <trkpt lat="48.84374" lon="2.40811">
        <ele>110.9</ele>
        <time>2015-01-12T19:55:35.707Z</time>
      </trkpt>
      <trkpt lat="48.84377" lon="2.40812">
        <ele>111.1</ele>
        <time>2015-01-12T19:55:36.793Z</time>
      </trkpt>
      <trkpt lat="48.84383" lon="2.4082">
        <ele>110.7</ele>
        <time>2015-01-12T19:55:40.296Z</time>
      </trkpt>
      <trkpt lat="48.84384" lon="2.40823">
        <ele>110.6</ele>
        <time>2015-01-12T19:55:40.661Z</time>
      </trkpt>
      <trkpt lat="48.8439" lon="2.40829">
        <ele>111.2</ele>
        <time>2015-01-12T19:55:46.741Z</time>
      </trkpt>
      <trkpt lat="48.84391" lon="2.40832">
        <ele>111</ele>
        <time>2015-01-12T19:55:47.773Z</time>
      </trkpt>
      <trkpt lat="48.84391" lon="2.40843">
        <ele>111.2</ele>
        <time>2015-01-12T19:55:52.634Z</time>
      </trkpt>
      <trkpt lat="48.8439" lon="2.40845">
        <ele>111.1</ele>
        <time>2015-01-12T19:55:53.663Z</time>
      </trkpt>
      <trkpt lat="48.84387" lon="2.40857">
        <ele>109.7</ele>
        <time>2015-01-12T19:56:01.707Z</time>
      </trkpt>
      <trkpt lat="48.84386" lon="2.40857">
        <ele>109.5</ele>
        <time>2015-01-12T19:56:02.717Z</time>
      </trkpt>
      <trkpt lat="48.84385" lon="2.40859">
        <ele>109.4</ele>
        <time>2015-01-12T19:56:14.972Z</time>
      </trkpt>
      <trkpt lat="48.84385" lon="2.40859">
        <ele>109.6</ele>
        <time>2015-01-12T19:56:15.745Z</time>
      </trkpt>
      <trkpt lat="48.84386" lon="2.40859">
        <ele>109.7</ele>
        <time>2015-01-12T19:56:18.661Z</time>
      </trkpt>
      <trkpt lat="48.84386" lon="2.40857">
        <ele>109.7</ele>
        <time>2015-01-12T19:56:19.687Z</time>
      </trkpt>
      <trkpt lat="48.84386" lon="2.40856">
        <ele>109.7</ele>
        <time>2015-01-12T19:56:20.688Z</time>
      </trkpt>
      <trkpt lat="48.84386" lon="2.40854">
        <ele>109.6</ele>
        <time>2015-01-12T19:56:21.714Z</time>
      </trkpt>
      <trkpt lat="48.84386" lon="2.40854">
        <ele>109.7</ele>
        <time>2015-01-12T19:56:22.731Z</time>
      </trkpt>
      <trkpt lat="48.84385" lon="2.40854">
        <ele>109.6</ele>
        <time>2015-01-12T19:56:23.733Z</time>
      </trkpt>
      <trkpt lat="48.84386" lon="2.40853">
        <ele>109.7</ele>
        <time>2015-01-12T19:56:26.760Z</time>
      </trkpt>
      <trkpt lat="48.84387" lon="2.40852">
        <ele>109.3</ele>
        <time>2015-01-12T19:56:27.765Z</time>
      </trkpt>
      <trkpt lat="48.8439" lon="2.40842">
        <ele>109.7</ele>
        <time>2015-01-12T19:56:32.633Z</time>
      </trkpt>
      <trkpt lat="48.84391" lon="2.40838">
        <ele>110.1</ele>
        <time>2015-01-12T19:56:33.741Z</time>
      </trkpt>
      <trkpt lat="48.84393" lon="2.40827">
        <ele>111.4</ele>
        <time>2015-01-12T19:56:36.655Z</time>
      </trkpt>
      <trkpt lat="48.84393" lon="2.40825">
        <ele>111.3</ele>
        <time>2015-01-12T19:56:37.685Z</time>
      </trkpt>
      <trkpt lat="48.84401" lon="2.40819">
        <ele>111.1</ele>
        <time>2015-01-12T19:56:43.771Z</time>
      </trkpt>
      <trkpt lat="48.84403" lon="2.4082">
        <ele>110.8</ele>
        <time>2015-01-12T19:56:44.653Z</time>
      </trkpt>
      <trkpt lat="48.84411" lon="2.4082">
        <ele>110.8</ele>
        <time>2015-01-12T19:56:47.625Z</time>
      </trkpt>
      <trkpt lat="48.84414" lon="2.40821">
        <ele>110.8</ele>
        <time>2015-01-12T19:56:48.656Z</time>
      </trkpt>
      <trkpt lat="48.8442" lon="2.40821">
        <ele>110.5</ele>
        <time>2015-01-12T19:56:51.697Z</time>
      </trkpt>
      <trkpt lat="48.84423" lon="2.40823">
        <ele>109.9</ele>
        <time>2015-01-12T19:56:52.725Z</time>
      </trkpt>
      <trkpt lat="48.84431" lon="2.40825">
        <ele>109.1</ele>
        <time>2015-01-12T19:56:56.188Z</time>
      </trkpt>
      <trkpt lat="48.84435" lon="2.40831">
        <ele>107.4</ele>
        <time>2015-01-12T19:56:56.759Z</time>
      </trkpt>
      <trkpt lat="48.84438" lon="2.40841">
        <ele>107.4</ele>
        <time>2015-01-12T19:56:59.761Z</time>
      </trkpt>
      <trkpt lat="48.8444" lon="2.40844">
        <ele>107.5</ele>
        <time>2015-01-12T19:57:00.664Z</time>
      </trkpt>
      <trkpt lat="48.84442" lon="2.40853">
        <ele>107.5</ele>
        <time>2015-01-12T19:57:03.687Z</time>
      </trkpt>
      <trkpt lat="48.84442" lon="2.40857">
        <ele>107.4</ele>
        <time>2015-01-12T19:57:04.708Z</time>
      </trkpt>
      <trkpt lat="48.84443" lon="2.40871">
        <ele>108</ele>
        <time>2015-01-12T19:57:10.748Z</time>
      </trkpt>
      <trkpt lat="48.84443" lon="2.40871">
        <ele>108.2</ele>
        <time>2015-01-12T19:57:11.661Z</time>
      </trkpt>
      <trkpt lat="48.84436" lon="2.40871">
        <ele>109.2</ele>
        <time>2015-01-12T19:57:14.967Z</time>
      </trkpt>
      <trkpt lat="48.84433" lon="2.40871">
        <ele>109.5</ele>
        <time>2015-01-12T19:57:15.699Z</time>
      </trkpt>
      <trkpt lat="48.84426" lon="2.40872">
        <ele>109.6</ele>
        <time>2015-01-12T19:57:17.737Z</time>
      </trkpt>
      <trkpt lat="48.84423" lon="2.40871">
        <ele>109.6</ele>
        <time>2015-01-12T19:57:18.756Z</time>
      </trkpt>
      <trkpt lat="48.84414" lon="2.40872">
        <ele>110.3</ele>
        <time>2015-01-12T19:57:20.653Z</time>
      </trkpt>
      <trkpt lat="48.8441" lon="2.40872">
        <ele>110.6</ele>
        <time>2015-01-12T19:57:21.667Z</time>
      </trkpt>
      <trkpt lat="48.84405" lon="2.40872">
        <ele>110.9</ele>
        <time>2015-01-12T19:57:22.672Z</time>
      </trkpt>
      <trkpt lat="48.844" lon="2.40873">
        <ele>111.5</ele>
        <time>2015-01-12T19:57:23.697Z</time>
      </trkpt>
      <trkpt lat="48.84392" lon="2.40875">
        <ele>110.8</ele>
        <time>2015-01-12T19:57:26.741Z</time>
      </trkpt>
      <trkpt lat="48.84389" lon="2.40877">
        <ele>110.3</ele>
        <time>2015-01-12T19:57:27.726Z</time>
      </trkpt>
      <trkpt lat="48.84381" lon="2.40878">
        <ele>109.9</ele>
        <time>2015-01-12T19:57:30.677Z</time>
      </trkpt>
      <trkpt lat="48.84379" lon="2.40878">
        <ele>109.9</ele>
        <time>2015-01-12T19:57:31.682Z</time>
      </trkpt>
      <trkpt lat="48.84381" lon="2.40889">
        <ele>110.2</ele>
        <time>2015-01-12T19:57:36.694Z</time>
      </trkpt>
      <trkpt lat="48.84382" lon="2.40891">
        <ele>110.3</ele>
        <time>2015-01-12T19:57:37.723Z</time>
      </trkpt>
      <trkpt lat="48.84381" lon="2.40894">
        <ele>110.4</ele>
        <time>2015-01-12T19:57:45.652Z</time>
      </trkpt>
      <trkpt lat="48.84352" lon="2.40902">
        <ele>110.3</ele>
        <time>2015-01-12T19:58:05.624Z</time>
      </trkpt>
      <trkpt lat="48.84346" lon="2.40909">
        <ele>109.9</ele>
        <time>2015-01-12T19:58:10.085Z</time>
      </trkpt>
      <trkpt lat="48.84345" lon="2.40911">
        <ele>109.9</ele>
        <time>2015-01-12T19:58:10.644Z</time>
      </trkpt>
      <trkpt lat="48.84338" lon="2.40918">
        <ele>109.9</ele>
        <time>2015-01-12T19:58:15.177Z</time>
      </trkpt>
      <trkpt lat="48.84335" lon="2.40922">
        <ele>109.6</ele>
        <time>2015-01-12T19:58:15.648Z</time>
      </trkpt>
      <trkpt lat="48.84312" lon="2.40944">
        <ele>108.5</ele>
        <time>2015-01-12T19:58:27.688Z</time>
      </trkpt>
      <trkpt lat="48.84294" lon="2.40956">
        <ele>109</ele>
        <time>2015-01-12T19:58:35.665Z</time>
      </trkpt>
      <trkpt lat="48.84285" lon="2.40959">
        <ele>108.4</ele>
        <time>2015-01-12T19:58:40.492Z</time>
      </trkpt>
      <trkpt lat="48.84283" lon="2.4096">
        <ele>108.9</ele>
        <time>2015-01-12T19:58:40.703Z</time>
      </trkpt>
      <trkpt lat="48.84275" lon="2.40963">
        <ele>111.2</ele>
        <time>2015-01-12T19:58:43.743Z</time>
      </trkpt>
      <trkpt lat="48.84272" lon="2.40963">
        <ele>112.1</ele>
        <time>2015-01-12T19:58:44.684Z</time>
      </trkpt>
      <trkpt lat="48.84264" lon="2.40967">
        <ele>116.7</ele>
        <time>2015-01-12T19:58:49.751Z</time>
      </trkpt>
      <trkpt lat="48.84262" lon="2.40967">
        <ele>117</ele>
        <time>2015-01-12T19:58:50.642Z</time>
      </trkpt>
      <trkpt lat="48.84254" lon="2.4097">
        <ele>120.4</ele>
        <time>2015-01-12T19:58:54.712Z</time>
      </trkpt>
      <trkpt lat="48.84253" lon="2.40971">
        <ele>121.3</ele>
        <time>2015-01-12T19:58:55.731Z</time>
      </trkpt>
      <trkpt lat="48.84244" lon="2.4097">
        <ele>122.1</ele>
        <time>2015-01-12T19:58:59.783Z</time>
      </trkpt>
      <trkpt lat="48.84242" lon="2.4097">
        <ele>122.8</ele>
        <time>2015-01-12T19:59:00.676Z</time>
      </trkpt>
      <trkpt lat="48.84235" lon="2.40971">
        <ele>124.6</ele>
        <time>2015-01-12T19:59:03.670Z</time>
      </trkpt>
      <trkpt lat="48.84233" lon="2.40972">
        <ele>126.3</ele>
        <time>2015-01-12T19:59:04.693Z</time>
      </trkpt>
      <trkpt lat="48.84224" lon="2.40975">
        <ele>130.4</ele>
        <time>2015-01-12T19:59:08.682Z</time>
      </trkpt>
      <trkpt lat="48.84222" lon="2.40975">
        <ele>131</ele>
        <time>2015-01-12T19:59:09.707Z</time>
      </trkpt>
      <trkpt lat="48.84214" lon="2.40979">
        <ele>133</ele>
        <time>2015-01-12T19:59:13.764Z</time>
      </trkpt>
      <trkpt lat="48.84212" lon="2.40981">
        <ele>133.3</ele>
        <time>2015-01-12T19:59:14.683Z</time>
      </trkpt>
      <trkpt lat="48.84203" lon="2.40979">
        <ele>131.9</ele>
        <time>2015-01-12T19:59:17.730Z</time>
      </trkpt>
      <trkpt lat="48.842" lon="2.4098">
        <ele>132.5</ele>
        <time>2015-01-12T19:59:18.628Z</time>
      </trkpt>
      <trkpt lat="48.84193" lon="2.40982">
        <ele>133.4</ele>
        <time>2015-01-12T19:59:20.655Z</time>
      </trkpt>
      <trkpt lat="48.84189" lon="2.40982">
        <ele>133.8</ele>
        <time>2015-01-12T19:59:21.663Z</time>
      </trkpt>
      <trkpt lat="48.84181" lon="2.40978">
        <ele>133.2</ele>
        <time>2015-01-12T19:59:23.670Z</time>
      </trkpt>
      <trkpt lat="48.84177" lon="2.40977">
        <ele>133.8</ele>
        <time>2015-01-12T19:59:24.690Z</time>
      </trkpt>
      <trkpt lat="48.84172" lon="2.40976">
        <ele>134.3</ele>
        <time>2015-01-12T19:59:25.714Z</time>
      </trkpt>
      <trkpt lat="48.84167" lon="2.40974">
        <ele>135.1</ele>
        <time>2015-01-12T19:59:26.744Z</time>
      </trkpt>
      <trkpt lat="48.84159" lon="2.40972">
        <ele>136.5</ele>
        <time>2015-01-12T19:59:28.659Z</time>
      </trkpt>
      <trkpt lat="48.84154" lon="2.40972">
        <ele>137.6</ele>
        <time>2015-01-12T19:59:29.681Z</time>
      </trkpt>
      <trkpt lat="48.84149" lon="2.40971">
        <ele>138.5</ele>
        <time>2015-01-12T19:59:30.691Z</time>
      </trkpt>
      <trkpt lat="48.84144" lon="2.40971">
        <ele>139.3</ele>
        <time>2015-01-12T19:59:31.729Z</time>
      </trkpt>
      <trkpt lat="48.84138" lon="2.4097">
        <ele>140.4</ele>
        <time>2015-01-12T19:59:32.662Z</time>
      </trkpt>
      <trkpt lat="48.84132" lon="2.40969">
        <ele>141.2</ele>
        <time>2015-01-12T19:59:33.666Z</time>
      </trkpt>
      <trkpt lat="48.84126" lon="2.40968">
        <ele>142</ele>
        <time>2015-01-12T19:59:35.266Z</time>
      </trkpt>
      <trkpt lat="48.84121" lon="2.40967">
        <ele>142.7</ele>
        <time>2015-01-12T19:59:35.685Z</time>
      </trkpt>
      <trkpt lat="48.84115" lon="2.40966">
        <ele>143.4</ele>
        <time>2015-01-12T19:59:36.692Z</time>
      </trkpt>
      <trkpt lat="48.8411" lon="2.40964">
        <ele>143.9</ele>
        <time>2015-01-12T19:59:37.703Z</time>
      </trkpt>
      <trkpt lat="48.84106" lon="2.40962">
        <ele>144</ele>
        <time>2015-01-12T19:59:38.710Z</time>
      </trkpt>
      <trkpt lat="48.84101" lon="2.4096">
        <ele>144.4</ele>
        <time>2015-01-12T19:59:39.722Z</time>
      </trkpt>
      <trkpt lat="48.84097" lon="2.40959">
        <ele>144.3</ele>
        <time>2015-01-12T19:59:40.640Z</time>
      </trkpt>
      <trkpt lat="48.84093" lon="2.40952">
        <ele>142.1</ele>
        <time>2015-01-12T19:59:41.637Z</time>
      </trkpt>
      <trkpt lat="48.84089" lon="2.40947">
        <ele>140.3</ele>
        <time>2015-01-12T19:59:42.651Z</time>
      </trkpt>
      <trkpt lat="48.84085" lon="2.40944">
        <ele>138.8</ele>
        <time>2015-01-12T19:59:43.704Z</time>
      </trkpt>
      <trkpt lat="48.84077" lon="2.40946">
        <ele>136.6</ele>
        <time>2015-01-12T19:59:47.724Z</time>
      </trkpt>
      <trkpt lat="48.84076" lon="2.40948">
        <ele>136.6</ele>
        <time>2015-01-12T19:59:48.748Z</time>
      </trkpt>
      <trkpt lat="48.84075" lon="2.40956">
        <ele>137.2</ele>
        <time>2015-01-12T19:59:54.674Z</time>
      </trkpt>
      <trkpt lat="48.84074" lon="2.40957">
        <ele>138</ele>
        <time>2015-01-12T19:59:55.755Z</time>
      </trkpt>
      <trkpt lat="48.84074" lon="2.40957">
        <ele>138.1</ele>
        <time>2015-01-12T20:00:02.715Z</time>
      </trkpt>
      <trkpt lat="48.84073" lon="2.40958">
        <ele>138.4</ele>
        <time>2015-01-12T20:00:03.650Z</time>
      </trkpt>
      <trkpt lat="48.84068" lon="2.40967">
        <ele>137.5</ele>
        <time>2015-01-12T20:00:08.746Z</time>
      </trkpt>
      <trkpt lat="48.84066" lon="2.4097">
        <ele>137.8</ele>
        <time>2015-01-12T20:00:09.658Z</time>
      </trkpt>
      <trkpt lat="48.84064" lon="2.40982">
        <ele>138.4</ele>
        <time>2015-01-12T20:00:12.715Z</time>
      </trkpt>
      <trkpt lat="48.84063" lon="2.40985">
        <ele>138.4</ele>
        <time>2015-01-12T20:00:13.727Z</time>
      </trkpt>
      <trkpt lat="48.84065" lon="2.40998">
        <ele>137</ele>
        <time>2015-01-12T20:00:17.655Z</time>
      </trkpt>
      <trkpt lat="48.84066" lon="2.41002">
        <ele>136.8</ele>
        <time>2015-01-12T20:00:18.662Z</time>
      </trkpt>
      <trkpt lat="48.84067" lon="2.41012">
        <ele>136.3</ele>
        <time>2015-01-12T20:00:20.653Z</time>
      </trkpt>
      <trkpt lat="48.84067" lon="2.41017">
        <ele>135.8</ele>
        <time>2015-01-12T20:00:21.654Z</time>
      </trkpt>
      <trkpt lat="48.84068" lon="2.41028">
        <ele>134.8</ele>
        <time>2015-01-12T20:00:23.697Z</time>
      </trkpt>
      <trkpt lat="48.84068" lon="2.41032">
        <ele>133</ele>
        <time>2015-01-12T20:00:24.701Z</time>
      </trkpt>
      <trkpt lat="48.84069" lon="2.41042">
        <ele>132.2</ele>
        <time>2015-01-12T20:00:26.700Z</time>
      </trkpt>
      <trkpt lat="48.84071" lon="2.41047">
        <ele>131.3</ele>
        <time>2015-01-12T20:00:27.761Z</time>
      </trkpt>
      <trkpt lat="48.84073" lon="2.41058">
        <ele>130.6</ele>
        <time>2015-01-12T20:00:29.657Z</time>
      </trkpt>
      <trkpt lat="48.84074" lon="2.41063">
        <ele>130.4</ele>
        <time>2015-01-12T20:00:30.714Z</time>
      </trkpt>
      <trkpt lat="48.84074" lon="2.41075">
        <ele>130.2</ele>
        <time>2015-01-12T20:00:32.650Z</time>
      </trkpt>
      <trkpt lat="48.84075" lon="2.41082">
        <ele>130.4</ele>
        <time>2015-01-12T20:00:33.660Z</time>
      </trkpt>
      <trkpt lat="48.84077" lon="2.4109">
        <ele>130</ele>
        <time>2015-01-12T20:00:34.681Z</time>
      </trkpt>
      <trkpt lat="48.8408" lon="2.41097">
        <ele>126.9</ele>
        <time>2015-01-12T20:00:35.695Z</time>
      </trkpt>
      <trkpt lat="48.84082" lon="2.41104">
        <ele>124</ele>
        <time>2015-01-12T20:00:36.718Z</time>
      </trkpt>
      <trkpt lat="48.84085" lon="2.41109">
        <ele>121.5</ele>
        <time>2015-01-12T20:00:37.730Z</time>
      </trkpt>
      <trkpt lat="48.84091" lon="2.41119">
        <ele>118.1</ele>
        <time>2015-01-12T20:00:39.677Z</time>
      </trkpt>
      <trkpt lat="48.84095" lon="2.41124">
        <ele>117.3</ele>
        <time>2015-01-12T20:00:40.786Z</time>
      </trkpt>
      <trkpt lat="48.84099" lon="2.41128">
        <ele>116.5</ele>
        <time>2015-01-12T20:00:41.659Z</time>
      </trkpt>
      <trkpt lat="48.84102" lon="2.41132">
        <ele>115.9</ele>
        <time>2015-01-12T20:00:42.666Z</time>
      </trkpt>
      <trkpt lat="48.84106" lon="2.41143">
        <ele>114.6</ele>
        <time>2015-01-12T20:00:44.656Z</time>
      </trkpt>
      <trkpt lat="48.84107" lon="2.41147">
        <ele>114.3</ele>
        <time>2015-01-12T20:00:45.664Z</time>
      </trkpt>
      <trkpt lat="48.84109" lon="2.41157">
        <ele>113.8</ele>
        <time>2015-01-12T20:00:47.690Z</time>
      </trkpt>
      <trkpt lat="48.84109" lon="2.41163">
        <ele>113.9</ele>
        <time>2015-01-12T20:00:48.699Z</time>
      </trkpt>
      <trkpt lat="48.84111" lon="2.41174">
        <ele>114.1</ele>
        <time>2015-01-12T20:00:50.640Z</time>
      </trkpt>
      <trkpt lat="48.84112" lon="2.4118">
        <ele>113.5</ele>
        <time>2015-01-12T20:00:51.653Z</time>
      </trkpt>
      <trkpt lat="48.84114" lon="2.41192">
        <ele>112.7</ele>
        <time>2015-01-12T20:00:53.669Z</time>
      </trkpt>
      <trkpt lat="48.84115" lon="2.412">
        <ele>112.5</ele>
        <time>2015-01-12T20:00:54.682Z</time>
      </trkpt>
      <trkpt lat="48.84117" lon="2.41212">
        <ele>111.7</ele>
        <time>2015-01-12T20:00:56.721Z</time>
      </trkpt>
      <trkpt lat="48.84119" lon="2.41217">
        <ele>111.1</ele>
        <time>2015-01-12T20:00:57.765Z</time>
      </trkpt>
      <trkpt lat="48.84122" lon="2.41224">
        <ele>110.8</ele>
        <time>2015-01-12T20:00:58.646Z</time>
      </trkpt>
      <trkpt lat="48.84124" lon="2.4123">
        <ele>110.8</ele>
        <time>2015-01-12T20:00:59.686Z</time>
      </trkpt>
      <trkpt lat="48.84126" lon="2.41237">
        <ele>110.6</ele>
        <time>2015-01-12T20:01:00.663Z</time>
      </trkpt>
      <trkpt lat="48.84128" lon="2.41245">
        <ele>110.3</ele>
        <time>2015-01-12T20:01:01.694Z</time>
      </trkpt>
      <trkpt lat="48.8413" lon="2.41254">
        <ele>109.9</ele>
        <time>2015-01-12T20:01:02.647Z</time>
      </trkpt>
      <trkpt lat="48.84131" lon="2.41262">
        <ele>109.6</ele>
        <time>2015-01-12T20:01:03.688Z</time>
      </trkpt>
      <trkpt lat="48.84132" lon="2.41271">
        <ele>109.7</ele>
        <time>2015-01-12T20:01:04.799Z</time>
      </trkpt>
      <trkpt lat="48.84134" lon="2.4128">
        <ele>109.6</ele>
        <time>2015-01-12T20:01:05.651Z</time>
      </trkpt>
      <trkpt lat="48.84136" lon="2.41288">
        <ele>109.3</ele>
        <time>2015-01-12T20:01:06.661Z</time>
      </trkpt>
      <trkpt lat="48.84139" lon="2.41296">
        <ele>109</ele>
        <time>2015-01-12T20:01:07.698Z</time>
      </trkpt>
      <trkpt lat="48.84141" lon="2.41305">
        <ele>108.7</ele>
        <time>2015-01-12T20:01:08.722Z</time>
      </trkpt>
      <trkpt lat="48.84143" lon="2.41311">
        <ele>108.6</ele>
        <time>2015-01-12T20:01:09.625Z</time>
      </trkpt>
      <trkpt lat="48.84149" lon="2.41317">
        <ele>107.9</ele>
        <time>2015-01-12T20:01:11.648Z</time>
      </trkpt>
      <trkpt lat="48.84153" lon="2.41317">
        <ele>107.3</ele>
        <time>2015-01-12T20:01:12.689Z</time>
      </trkpt>
      <trkpt lat="48.84158" lon="2.41317">
        <ele>107</ele>
        <time>2015-01-12T20:01:13.748Z</time>
      </trkpt>
      <trkpt lat="48.84164" lon="2.41316">
        <ele>106.5</ele>
        <time>2015-01-12T20:01:14.758Z</time>
      </trkpt>
      <trkpt lat="48.84172" lon="2.41315">
        <ele>106.1</ele>
        <time>2015-01-12T20:01:16.682Z</time>
      </trkpt>
      <trkpt lat="48.84176" lon="2.41315">
        <ele>106.1</ele>
        <time>2015-01-12T20:01:17.688Z</time>
      </trkpt>
      <trkpt lat="48.84184" lon="2.41316">
        <ele>106.1</ele>
        <time>2015-01-12T20:01:19.753Z</time>
      </trkpt>
      <trkpt lat="48.84189" lon="2.41315">
        <ele>105.8</ele>
        <time>2015-01-12T20:01:20.767Z</time>
      </trkpt>
      <trkpt lat="48.84194" lon="2.41315">
        <ele>105.9</ele>
        <time>2015-01-12T20:01:21.680Z</time>
      </trkpt>
      <trkpt lat="48.84199" lon="2.41314">
        <ele>106.3</ele>
        <time>2015-01-12T20:01:22.699Z</time>
      </trkpt>
      <trkpt lat="48.84205" lon="2.41314">
        <ele>106.9</ele>
        <time>2015-01-12T20:01:23.712Z</time>
      </trkpt>
      <trkpt lat="48.84209" lon="2.41313">
        <ele>107.1</ele>
        <time>2015-01-12T20:01:24.739Z</time>
      </trkpt>
      <trkpt lat="48.84217" lon="2.41312">
        <ele>107.5</ele>
        <time>2015-01-12T20:01:27.585Z</time>
      </trkpt>
      <trkpt lat="48.84222" lon="2.41311">
        <ele>108</ele>
        <time>2015-01-12T20:01:27.638Z</time>
      </trkpt>
      <trkpt lat="48.8423" lon="2.41307">
        <ele>108.2</ele>
        <time>2015-01-12T20:01:29.705Z</time>
      </trkpt>
      <trkpt lat="48.84235" lon="2.41304">
        <ele>107.9</ele>
        <time>2015-01-12T20:01:30.709Z</time>
      </trkpt>
      <trkpt lat="48.8424" lon="2.41303">
        <ele>107.5</ele>
        <time>2015-01-12T20:01:31.752Z</time>
      </trkpt>
      <trkpt lat="48.84245" lon="2.41302">
        <ele>107.3</ele>
        <time>2015-01-12T20:01:32.643Z</time>
      </trkpt>
      <trkpt lat="48.8425" lon="2.41301">
        <ele>107.2</ele>
        <time>2015-01-12T20:01:33.663Z</time>
      </trkpt>
      <trkpt lat="48.84254" lon="2.41301">
        <ele>107.1</ele>
        <time>2015-01-12T20:01:34.675Z</time>
      </trkpt>
      <trkpt lat="48.84259" lon="2.413">
        <ele>106.9</ele>
        <time>2015-01-12T20:01:35.694Z</time>
      </trkpt>
      <trkpt lat="48.84265" lon="2.41299">
        <ele>106.9</ele>
        <time>2015-01-12T20:01:36.707Z</time>
      </trkpt>
      <trkpt lat="48.8427" lon="2.41299">
        <ele>106.9</ele>
        <time>2015-01-12T20:01:37.953Z</time>
      </trkpt>
      <trkpt lat="48.84274" lon="2.41299">
        <ele>106.7</ele>
        <time>2015-01-12T20:01:38.731Z</time>
      </trkpt>
      <trkpt lat="48.84279" lon="2.413">
        <ele>106.6</ele>
        <time>2015-01-12T20:01:39.651Z</time>
      </trkpt>
      <trkpt lat="48.84284" lon="2.41301">
        <ele>106.1</ele>
        <time>2015-01-12T20:01:40.662Z</time>
      </trkpt>
      <trkpt lat="48.84289" lon="2.41302">
        <ele>105.8</ele>
        <time>2015-01-12T20:01:41.678Z</time>
      </trkpt>
      <trkpt lat="48.84293" lon="2.41301">
        <ele>105.7</ele>
        <time>2015-01-12T20:01:42.683Z</time>
      </trkpt>
      <trkpt lat="48.84298" lon="2.41301">
        <ele>105.7</ele>
        <time>2015-01-12T20:01:43.698Z</time>
      </trkpt>
      <trkpt lat="48.84302" lon="2.413">
        <ele>105.7</ele>
        <time>2015-01-12T20:01:44.709Z</time>
      </trkpt>
      <trkpt lat="48.84309" lon="2.41299">
        <ele>105.9</ele>
        <time>2015-01-12T20:01:46.715Z</time>
      </trkpt>
      <trkpt lat="48.84313" lon="2.41299">
        <ele>106</ele>
        <time>2015-01-12T20:01:47.733Z</time>
      </trkpt>
      <trkpt lat="48.84321" lon="2.41297">
        <ele>106</ele>
        <time>2015-01-12T20:01:49.741Z</time>
      </trkpt>
      <trkpt lat="48.84325" lon="2.41296">
        <ele>106.1</ele>
        <time>2015-01-12T20:01:50.640Z</time>
      </trkpt>
      <trkpt lat="48.84334" lon="2.41294">
        <ele>105.3</ele>
        <time>2015-01-12T20:01:52.661Z</time>
      </trkpt>
      <trkpt lat="48.84338" lon="2.41294">
        <ele>105</ele>
        <time>2015-01-12T20:01:53.661Z</time>
      </trkpt>
      <trkpt lat="48.84346" lon="2.41295">
        <ele>104.4</ele>
        <time>2015-01-12T20:01:55.750Z</time>
      </trkpt>
      <trkpt lat="48.84349" lon="2.41296">
        <ele>104.3</ele>
        <time>2015-01-12T20:01:56.773Z</time>
      </trkpt>
      <trkpt lat="48.84354" lon="2.41298">
        <ele>104.8</ele>
        <time>2015-01-12T20:01:59.645Z</time>
      </trkpt>
      <trkpt lat="48.84357" lon="2.413">
        <ele>104.6</ele>
        <time>2015-01-12T20:01:59.691Z</time>
      </trkpt>
      <trkpt lat="48.84365" lon="2.41303">
        <ele>104.7</ele>
        <time>2015-01-12T20:02:02.716Z</time>
      </trkpt>
      <trkpt lat="48.84368" lon="2.41303">
        <ele>104.8</ele>
        <time>2015-01-12T20:02:03.684Z</time>
      </trkpt>
      <trkpt lat="48.84376" lon="2.41302">
        <ele>104.5</ele>
        <time>2015-01-12T20:02:07.720Z</time>
      </trkpt>
      <trkpt lat="48.84379" lon="2.41302">
        <ele>104</ele>
        <time>2015-01-12T20:02:08.757Z</time>
      </trkpt>
      <trkpt lat="48.84386" lon="2.41305">
        <ele>101.7</ele>
        <time>2015-01-12T20:02:12.685Z</time>
      </trkpt>
      <trkpt lat="48.84388" lon="2.41304">
        <ele>101.2</ele>
        <time>2015-01-12T20:02:13.693Z</time>
      </trkpt>
      <trkpt lat="48.84394" lon="2.41314">
        <ele>101</ele>
        <time>2015-01-12T20:02:19.967Z</time>
      </trkpt>
      <trkpt lat="48.84394" lon="2.41318">
        <ele>101.3</ele>
        <time>2015-01-12T20:02:20.706Z</time>
      </trkpt>
      <trkpt lat="48.84394" lon="2.4133">
        <ele>101.6</ele>
        <time>2015-01-12T20:02:23.646Z</time>
      </trkpt>
      <trkpt lat="48.84394" lon="2.41335">
        <ele>101.7</ele>
        <time>2015-01-12T20:02:24.666Z</time>
      </trkpt>
      <trkpt lat="48.84395" lon="2.41344">
        <ele>101.7</ele>
        <time>2015-01-12T20:02:26.699Z</time>
      </trkpt>
      <trkpt lat="48.84395" lon="2.41349">
        <ele>101.6</ele>
        <time>2015-01-12T20:02:27.749Z</time>
      </trkpt>
      <trkpt lat="48.84396" lon="2.41359">
        <ele>101.3</ele>
        <time>2015-01-12T20:02:30.050Z</time>
      </trkpt>
      <trkpt lat="48.84396" lon="2.41364">
        <ele>101.3</ele>
        <time>2015-01-12T20:02:30.718Z</time>
      </trkpt>
      <trkpt lat="48.84397" lon="2.41374">
        <ele>101.2</ele>
        <time>2015-01-12T20:02:32.647Z</time>
      </trkpt>
      <trkpt lat="48.84397" lon="2.41379">
        <ele>101.2</ele>
        <time>2015-01-12T20:02:33.642Z</time>
      </trkpt>
      <trkpt lat="48.84398" lon="2.41391">
        <ele>101.5</ele>
        <time>2015-01-12T20:02:36.730Z</time>
      </trkpt>
      <trkpt lat="48.84398" lon="2.41394">
        <ele>101.5</ele>
        <time>2015-01-12T20:02:37.861Z</time>
      </trkpt>
      <trkpt lat="48.84399" lon="2.41407">
        <ele>101.6</ele>
        <time>2015-01-12T20:02:40.688Z</time>
      </trkpt>
      <trkpt lat="48.84399" lon="2.41411">
        <ele>101.7</ele>
        <time>2015-01-12T20:02:41.697Z</time>
      </trkpt>
      <trkpt lat="48.84401" lon="2.41423">
        <ele>101.9</ele>
        <time>2015-01-12T20:02:44.745Z</time>
      </trkpt>
      <trkpt lat="48.84402" lon="2.41427">
        <ele>101.8</ele>
        <time>2015-01-12T20:02:45.765Z</time>
      </trkpt>
      <trkpt lat="48.84407" lon="2.41435">
        <ele>102.1</ele>
        <time>2015-01-12T20:02:49.596Z</time>
      </trkpt>
      <trkpt lat="48.84409" lon="2.41437">
        <ele>101.9</ele>
        <time>2015-01-12T20:02:49.697Z</time>
      </trkpt>
      <trkpt lat="48.84417" lon="2.41441">
        <ele>101.4</ele>
        <time>2015-01-12T20:02:52.658Z</time>
      </trkpt>
      <trkpt lat="48.84419" lon="2.41443">
        <ele>101.3</ele>
        <time>2015-01-12T20:02:53.679Z</time>
      </trkpt>
      <trkpt lat="48.84427" lon="2.41447">
        <ele>102</ele>
        <time>2015-01-12T20:02:57.720Z</time>
      </trkpt>
      <trkpt lat="48.8443" lon="2.41448">
        <ele>102.3</ele>
        <time>2015-01-12T20:02:58.734Z</time>
      </trkpt>
      <trkpt lat="48.84437" lon="2.41448">
        <ele>102</ele>
        <time>2015-01-12T20:03:00.650Z</time>
      </trkpt>
      <trkpt lat="48.84441" lon="2.41448">
        <ele>101.8</ele>
        <time>2015-01-12T20:03:01.744Z</time>
      </trkpt>
      <trkpt lat="48.84449" lon="2.41449">
        <ele>101.7</ele>
        <time>2015-01-12T20:03:03.697Z</time>
      </trkpt>
      <trkpt lat="48.84453" lon="2.4145">
        <ele>101.7</ele>
        <time>2015-01-12T20:03:04.736Z</time>
      </trkpt>
      <trkpt lat="48.84457" lon="2.41451">
        <ele>101.6</ele>
        <time>2015-01-12T20:03:05.734Z</time>
      </trkpt>
      <trkpt lat="48.84462" lon="2.41452">
        <ele>101.6</ele>
        <time>2015-01-12T20:03:06.758Z</time>
      </trkpt>
      <trkpt lat="48.8447" lon="2.41455">
        <ele>101.6</ele>
        <time>2015-01-12T20:03:08.689Z</time>
      </trkpt>
      <trkpt lat="48.84474" lon="2.41457">
        <ele>101.6</ele>
        <time>2015-01-12T20:03:09.737Z</time>
      </trkpt>
      <trkpt lat="48.84481" lon="2.4146">
        <ele>101.6</ele>
        <time>2015-01-12T20:03:11.681Z</time>
      </trkpt>
      <trkpt lat="48.84484" lon="2.41461">
        <ele>101.6</ele>
        <time>2015-01-12T20:03:12.805Z</time>
      </trkpt>
      <trkpt lat="48.84493" lon="2.41466">
        <ele>101.5</ele>
        <time>2015-01-12T20:03:15.728Z</time>
      </trkpt>
      <trkpt lat="48.84495" lon="2.41467">
        <ele>101.4</ele>
        <time>2015-01-12T20:03:16.734Z</time>
      </trkpt>
      <trkpt lat="48.84501" lon="2.4147">
        <ele>101.6</ele>
        <time>2015-01-12T20:03:20.118Z</time>
      </trkpt>
      <trkpt lat="48.84504" lon="2.41472">
        <ele>101.5</ele>
        <time>2015-01-12T20:03:20.707Z</time>
      </trkpt>
      <trkpt lat="48.84508" lon="2.41478">
        <ele>101.4</ele>
        <time>2015-01-12T20:03:22.751Z</time>
      </trkpt>
      <trkpt lat="48.84511" lon="2.41483">
        <ele>101.6</ele>
        <time>2015-01-12T20:03:23.665Z</time>
      </trkpt>
      <trkpt lat="48.84516" lon="2.41491">
        <ele>102.9</ele>
        <time>2015-01-12T20:03:25.726Z</time>
      </trkpt>
      <trkpt lat="48.84517" lon="2.41495">
        <ele>102.8</ele>
        <time>2015-01-12T20:03:26.746Z</time>
      </trkpt>
      <trkpt lat="48.84518" lon="2.41505">
        <ele>102.6</ele>
        <time>2015-01-12T20:03:28.666Z</time>
      </trkpt>
      <trkpt lat="48.84519" lon="2.4151">
        <ele>102.4</ele>
        <time>2015-01-12T20:03:29.679Z</time>
      </trkpt>
      <trkpt lat="48.84521" lon="2.41519">
        <ele>102.3</ele>
        <time>2015-01-12T20:03:31.712Z</time>
      </trkpt>
      <trkpt lat="48.84522" lon="2.41524">
        <ele>102.1</ele>
        <time>2015-01-12T20:03:32.745Z</time>
      </trkpt>
      <trkpt lat="48.84524" lon="2.41534">
        <ele>101.8</ele>
        <time>2015-01-12T20:03:35.546Z</time>
      </trkpt>
      <trkpt lat="48.84524" lon="2.41539">
        <ele>101.9</ele>
        <time>2015-01-12T20:03:35.649Z</time>
      </trkpt>
      <trkpt lat="48.84527" lon="2.4155">
        <ele>102.7</ele>
        <time>2015-01-12T20:03:39.639Z</time>
      </trkpt>
      <trkpt lat="48.84529" lon="2.41551">
        <ele>103</ele>
        <time>2015-01-12T20:03:40.648Z</time>
      </trkpt>
      <trkpt lat="48.84537" lon="2.41552">
        <ele>104.7</ele>
        <time>2015-01-12T20:03:44.759Z</time>
      </trkpt>
      <trkpt lat="48.8454" lon="2.41551">
        <ele>105.3</ele>
        <time>2015-01-12T20:03:45.662Z</time>
      </trkpt>
      <trkpt lat="48.84546" lon="2.41551">
        <ele>106</ele>
        <time>2015-01-12T20:03:47.696Z</time>
      </trkpt>
      <trkpt lat="48.8455" lon="2.41551">
        <ele>106.4</ele>
        <time>2015-01-12T20:03:48.706Z</time>
      </trkpt>
      <trkpt lat="48.84558" lon="2.41551">
        <ele>107.8</ele>
        <time>2015-01-12T20:03:52.645Z</time>
      </trkpt>
      <trkpt lat="48.8456" lon="2.41551">
        <ele>108.1</ele>
        <time>2015-01-12T20:03:53.642Z</time>
      </trkpt>
      <trkpt lat="48.84566" lon="2.41552">
        <ele>108.9</ele>
        <time>2015-01-12T20:03:55.675Z</time>
      </trkpt>
      <trkpt lat="48.84569" lon="2.41552">
        <ele>109.3</ele>
        <time>2015-01-12T20:03:56.675Z</time>
      </trkpt>
      <trkpt lat="48.84576" lon="2.41552">
        <ele>110.1</ele>
        <time>2015-01-12T20:03:59.016Z</time>
      </trkpt>
      <trkpt lat="48.8458" lon="2.41552">
        <ele>110.4</ele>
        <time>2015-01-12T20:03:59.741Z</time>
      </trkpt>
      <trkpt lat="48.84589" lon="2.41554">
        <ele>110.9</ele>
        <time>2015-01-12T20:04:02.708Z</time>
      </trkpt>
      <trkpt lat="48.84592" lon="2.41555">
        <ele>111</ele>
        <time>2015-01-12T20:04:03.720Z</time>
      </trkpt>
      <trkpt lat="48.84599" lon="2.41558">
        <ele>111.1</ele>
        <time>2015-01-12T20:04:05.649Z</time>
      </trkpt>
      <trkpt lat="48.84602" lon="2.41559">
        <ele>111.1</ele>
        <time>2015-01-12T20:04:06.688Z</time>
      </trkpt>
      <trkpt lat="48.8461" lon="2.41565">
        <ele>110.5</ele>
        <time>2015-01-12T20:04:08.610Z</time>
      </trkpt>
      <trkpt lat="48.84613" lon="2.41569">
        <ele>109.8</ele>
        <time>2015-01-12T20:04:09.672Z</time>
      </trkpt>
      <trkpt lat="48.84619" lon="2.41574">
        <ele>108.6</ele>
        <time>2015-01-12T20:04:11.643Z</time>
      </trkpt>
      <trkpt lat="48.84622" lon="2.41574">
        <ele>107.8</ele>
        <time>2015-01-12T20:04:12.689Z</time>
      </trkpt>
      <trkpt lat="48.84629" lon="2.4158">
        <ele>107.7</ele>
        <time>2015-01-12T20:04:15.761Z</time>
      </trkpt>
      <trkpt lat="48.84631" lon="2.41587">
        <ele>107.9</ele>
        <time>2015-01-12T20:04:16.655Z</time>
      </trkpt>
      <trkpt lat="48.84632" lon="2.41599">
        <ele>107.6</ele>
        <time>2015-01-12T20:04:19.972Z</time>
      </trkpt>
      <trkpt lat="48.84633" lon="2.41603">
        <ele>107.4</ele>
        <time>2015-01-12T20:04:20.650Z</time>
      </trkpt>
      <trkpt lat="48.84633" lon="2.41614">
        <ele>107</ele>
        <time>2015-01-12T20:04:23.677Z</time>
      </trkpt>
      <trkpt lat="48.84634" lon="2.41618">
        <ele>107</ele>
        <time>2015-01-12T20:04:24.784Z</time>
      </trkpt>
      <trkpt lat="48.84635" lon="2.41628">
        <ele>106.5</ele>
        <time>2015-01-12T20:04:27.747Z</time>
      </trkpt>
      <trkpt lat="48.84635" lon="2.41632">
        <ele>106.3</ele>
        <time>2015-01-12T20:04:28.709Z</time>
      </trkpt>
      <trkpt lat="48.84637" lon="2.41644">
        <ele>106.2</ele>
        <time>2015-01-12T20:04:31.693Z</time>
      </trkpt>
      <trkpt lat="48.84637" lon="2.41648">
        <ele>106</ele>
        <time>2015-01-12T20:04:32.712Z</time>
      </trkpt>
      <trkpt lat="48.84636" lon="2.41658">
        <ele>105.7</ele>
        <time>2015-01-12T20:04:35.168Z</time>
      </trkpt>
      <trkpt lat="48.84636" lon="2.41662">
        <ele>105.6</ele>
        <time>2015-01-12T20:04:35.706Z</time>
      </trkpt>
      <trkpt lat="48.84635" lon="2.41675">
        <ele>105.2</ele>
        <time>2015-01-12T20:04:38.644Z</time>
      </trkpt>
      <trkpt lat="48.84635" lon="2.41679">
        <ele>105</ele>
        <time>2015-01-12T20:04:39.707Z</time>
      </trkpt>
      <trkpt lat="48.84633" lon="2.41692">
        <ele>104.1</ele>
        <time>2015-01-12T20:04:42.806Z</time>
      </trkpt>
      <trkpt lat="48.84633" lon="2.41696">
        <ele>103.8</ele>
        <time>2015-01-12T20:04:43.739Z</time>
      </trkpt>
      <trkpt lat="48.84633" lon="2.41706">
        <ele>103.5</ele>
        <time>2015-01-12T20:04:45.634Z</time>
      </trkpt>
      <trkpt lat="48.84634" lon="2.41711">
        <ele>103.4</ele>
        <time>2015-01-12T20:04:46.667Z</time>
      </trkpt>
      <trkpt lat="48.84635" lon="2.41724">
        <ele>103.9</ele>
        <time>2015-01-12T20:04:50.671Z</time>
      </trkpt>
      <trkpt lat="48.84635" lon="2.41727">
        <ele>103.9</ele>
        <time>2015-01-12T20:04:51.667Z</time>
      </trkpt>
      <trkpt lat="48.84635" lon="2.4174">
        <ele>104.2</ele>
        <time>2015-01-12T20:04:55.734Z</time>
      </trkpt>
      <trkpt lat="48.84636" lon="2.41742">
        <ele>104.3</ele>
        <time>2015-01-12T20:04:56.641Z</time>
      </trkpt>
      <trkpt lat="48.84641" lon="2.41752">
        <ele>105.1</ele>
        <time>2015-01-12T20:05:02.647Z</time>
      </trkpt>
      <trkpt lat="48.84642" lon="2.41753">
        <ele>105.2</ele>
        <time>2015-01-12T20:05:03.675Z</time>
      </trkpt>
      <trkpt lat="48.84649" lon="2.41761">
        <ele>105.4</ele>
        <time>2015-01-12T20:05:10.646Z</time>
      </trkpt>
      <trkpt lat="48.8465" lon="2.41763">
        <ele>105.4</ele>
        <time>2015-01-12T20:05:11.650Z</time>
      </trkpt>
      <trkpt lat="48.84658" lon="2.41767">
        <ele>106.4</ele>
        <time>2015-01-12T20:05:18.672Z</time>
      </trkpt>
      <trkpt lat="48.84659" lon="2.41766">
        <ele>106.4</ele>
        <time>2015-01-12T20:05:19.737Z</time>
      </trkpt>
      <trkpt lat="48.84666" lon="2.41763">
        <ele>106.1</ele>
        <time>2015-01-12T20:05:22.683Z</time>
      </trkpt>
      <trkpt lat="48.84668" lon="2.41762">
        <ele>106.5</ele>
        <time>2015-01-12T20:05:23.676Z</time>
      </trkpt>
      <trkpt lat="48.84677" lon="2.41761">
        <ele>107.9</ele>
        <time>2015-01-12T20:05:26.780Z</time>
      </trkpt>
      <trkpt lat="48.8468" lon="2.41762">
        <ele>108.3</ele>
        <time>2015-01-12T20:05:27.797Z</time>
      </trkpt>
      <trkpt lat="48.84689" lon="2.41763">
        <ele>110</ele>
        <time>2015-01-12T20:05:30.747Z</time>
      </trkpt>
      <trkpt lat="48.84691" lon="2.41762">
        <ele>110.7</ele>
        <time>2015-01-12T20:05:31.748Z</time>
      </trkpt>
      <trkpt lat="48.847" lon="2.41759">
        <ele>111.3</ele>
        <time>2015-01-12T20:05:35.182Z</time>
      </trkpt>
      <trkpt lat="48.84704" lon="2.4176">
        <ele>111.6</ele>
        <time>2015-01-12T20:05:35.685Z</time>
      </trkpt>
      <trkpt lat="48.84712" lon="2.41762">
        <ele>111.9</ele>
        <time>2015-01-12T20:05:37.673Z</time>
      </trkpt>
      <trkpt lat="48.84716" lon="2.41762">
        <ele>112.1</ele>
        <time>2015-01-12T20:05:38.803Z</time>
      </trkpt>
      <trkpt lat="48.84721" lon="2.41763">
        <ele>112.3</ele>
        <time>2015-01-12T20:05:40.301Z</time>
      </trkpt>
      <trkpt lat="48.84726" lon="2.41764">
        <ele>112.5</ele>
        <time>2015-01-12T20:05:40.664Z</time>
      </trkpt>
      <trkpt lat="48.84735" lon="2.41762">
        <ele>113.5</ele>
        <time>2015-01-12T20:05:41.685Z</time>
      </trkpt>
      <trkpt lat="48.84743" lon="2.41761">
        <ele>114.4</ele>
        <time>2015-01-12T20:05:42.694Z</time>
      </trkpt>
      <trkpt lat="48.84749" lon="2.41762">
        <ele>115.1</ele>
        <time>2015-01-12T20:05:43.728Z</time>
      </trkpt>
      <trkpt lat="48.84753" lon="2.41763">
        <ele>115.4</ele>
        <time>2015-01-12T20:05:44.642Z</time>
      </trkpt>
      <trkpt lat="48.8476" lon="2.41764">
        <ele>115.9</ele>
        <time>2015-01-12T20:05:46.649Z</time>
      </trkpt>
      <trkpt lat="48.84763" lon="2.41766">
        <ele>116</ele>
        <time>2015-01-12T20:05:47.655Z</time>
      </trkpt>
      <trkpt lat="48.84769" lon="2.41769">
        <ele>116.3</ele>
        <time>2015-01-12T20:05:49.688Z</time>
      </trkpt>
      <trkpt lat="48.84773" lon="2.41769">
        <ele>116.5</ele>
        <time>2015-01-12T20:05:50.676Z</time>
      </trkpt>
      <trkpt lat="48.84781" lon="2.41768">
        <ele>116.9</ele>
        <time>2015-01-12T20:05:52.709Z</time>
      </trkpt>
      <trkpt lat="48.84785" lon="2.41769">
        <ele>117.1</ele>
        <time>2015-01-12T20:05:53.723Z</time>
      </trkpt>
      <trkpt lat="48.84793" lon="2.4177">
        <ele>117.3</ele>
        <time>2015-01-12T20:05:55.685Z</time>
      </trkpt>
      <trkpt lat="48.84798" lon="2.41772">
        <ele>117.2</ele>
        <time>2015-01-12T20:05:56.688Z</time>
      </trkpt>
      <trkpt lat="48.84807" lon="2.41772">
        <ele>116.7</ele>
        <time>2015-01-12T20:05:58.706Z</time>
      </trkpt>
      <trkpt lat="48.84811" lon="2.41772">
        <ele>116.9</ele>
        <time>2015-01-12T20:05:59.709Z</time>
      </trkpt>
      <trkpt lat="48.84819" lon="2.41773">
        <ele>117.6</ele>
        <time>2015-01-12T20:06:01.737Z</time>
      </trkpt>
      <trkpt lat="48.84823" lon="2.41774">
        <ele>117.8</ele>
        <time>2015-01-12T20:06:02.754Z</time>
      </trkpt>
      <trkpt lat="48.84831" lon="2.41776">
        <ele>118</ele>
        <time>2015-01-12T20:06:04.879Z</time>
      </trkpt>
      <trkpt lat="48.84835" lon="2.41777">
        <ele>118.3</ele>
        <time>2015-01-12T20:06:05.746Z</time>
      </trkpt>
      <trkpt lat="48.84843" lon="2.41777">
        <ele>118.9</ele>
        <time>2015-01-12T20:06:07.811Z</time>
      </trkpt>
      <trkpt lat="48.84846" lon="2.41777">
        <ele>119</ele>
        <time>2015-01-12T20:06:08.648Z</time>
      </trkpt>
      <trkpt lat="48.84853" lon="2.41779">
        <ele>119.2</ele>
        <time>2015-01-12T20:06:10.709Z</time>
      </trkpt>
      <trkpt lat="48.84857" lon="2.4178">
        <ele>119.2</ele>
        <time>2015-01-12T20:06:11.720Z</time>
      </trkpt>
      <trkpt lat="48.84865" lon="2.4178">
        <ele>119.2</ele>
        <time>2015-01-12T20:06:13.733Z</time>
      </trkpt>
      <trkpt lat="48.84868" lon="2.41781">
        <ele>119.1</ele>
        <time>2015-01-12T20:06:14.661Z</time>
      </trkpt>
      <trkpt lat="48.84875" lon="2.41782">
        <ele>119.2</ele>
        <time>2015-01-12T20:06:16.661Z</time>
      </trkpt>
      <trkpt lat="48.84879" lon="2.41782">
        <ele>119.3</ele>
        <time>2015-01-12T20:06:17.665Z</time>
      </trkpt>
      <trkpt lat="48.84887" lon="2.41782">
        <ele>119.7</ele>
        <time>2015-01-12T20:06:20.146Z</time>
      </trkpt>
      <trkpt lat="48.84891" lon="2.4178">
        <ele>119.8</ele>
        <time>2015-01-12T20:06:20.672Z</time>
      </trkpt>
      <trkpt lat="48.84896" lon="2.41779">
        <ele>119.6</ele>
        <time>2015-01-12T20:06:21.647Z</time>
      </trkpt>
      <trkpt lat="48.84901" lon="2.41775">
        <ele>118.1</ele>
        <time>2015-01-12T20:06:22.677Z</time>
      </trkpt>
      <trkpt lat="48.84908" lon="2.41769">
        <ele>116.2</ele>
        <time>2015-01-12T20:06:25.261Z</time>
      </trkpt>
      <trkpt lat="48.84911" lon="2.4177">
        <ele>115.9</ele>
        <time>2015-01-12T20:06:25.787Z</time>
      </trkpt>
      <trkpt lat="48.84916" lon="2.41773">
        <ele>115.6</ele>
        <time>2015-01-12T20:06:26.663Z</time>
      </trkpt>
      <trkpt lat="48.8492" lon="2.41777">
        <ele>115.3</ele>
        <time>2015-01-12T20:06:27.662Z</time>
      </trkpt>
      <trkpt lat="48.84926" lon="2.41784">
        <ele>115.1</ele>
        <time>2015-01-12T20:06:30.348Z</time>
      </trkpt>
      <trkpt lat="48.84929" lon="2.41786">
        <ele>115</ele>
        <time>2015-01-12T20:06:30.696Z</time>
      </trkpt>
      <trkpt lat="48.84935" lon="2.41789">
        <ele>114.4</ele>
        <time>2015-01-12T20:06:32.728Z</time>
      </trkpt>
      <trkpt lat="48.84938" lon="2.41791">
        <ele>114.1</ele>
        <time>2015-01-12T20:06:33.624Z</time>
      </trkpt>
      <trkpt lat="48.84944" lon="2.41796">
        <ele>113.9</ele>
        <time>2015-01-12T20:06:35.681Z</time>
      </trkpt>
      <trkpt lat="48.84948" lon="2.41798">
        <ele>114.3</ele>
        <time>2015-01-12T20:06:36.715Z</time>
      </trkpt>
      <trkpt lat="48.84955" lon="2.418">
        <ele>114.5</ele>
        <time>2015-01-12T20:06:38.628Z</time>
      </trkpt>
      <trkpt lat="48.8496" lon="2.41801">
        <ele>114.6</ele>
        <time>2015-01-12T20:06:39.646Z</time>
      </trkpt>
      <trkpt lat="48.84968" lon="2.41802">
        <ele>114.7</ele>
        <time>2015-01-12T20:06:41.680Z</time>
      </trkpt>
      <trkpt lat="48.84974" lon="2.418">
        <ele>113.3</ele>
        <time>2015-01-12T20:06:42.749Z</time>
      </trkpt>
      <trkpt lat="48.84983" lon="2.41801">
        <ele>113.1</ele>
        <time>2015-01-12T20:06:45.638Z</time>
      </trkpt>
      <trkpt lat="48.84987" lon="2.418">
        <ele>113.3</ele>
        <time>2015-01-12T20:06:45.683Z</time>
      </trkpt>
      <trkpt lat="48.84993" lon="2.41802">
        <ele>114</ele>
        <time>2015-01-12T20:06:47.715Z</time>
      </trkpt>
      <trkpt lat="48.84996" lon="2.41804">
        <ele>114.5</ele>
        <time>2015-01-12T20:06:48.797Z</time>
      </trkpt>
      <trkpt lat="48.85004" lon="2.41808">
        <ele>115.3</ele>
        <time>2015-01-12T20:06:50.658Z</time>
      </trkpt>
      <trkpt lat="48.85007" lon="2.41809">
        <ele>115.5</ele>
        <time>2015-01-12T20:06:51.680Z</time>
      </trkpt>
      <trkpt lat="48.85014" lon="2.41811">
        <ele>116</ele>
        <time>2015-01-12T20:06:54.585Z</time>
      </trkpt>
      <trkpt lat="48.85022" lon="2.41821">
        <ele>115.3</ele>
        <time>2015-01-12T20:06:54.634Z</time>
      </trkpt>
      <trkpt lat="48.8503" lon="2.41823">
        <ele>115.7</ele>
        <time>2015-01-12T20:06:56.652Z</time>
      </trkpt>
      <trkpt lat="48.85034" lon="2.41823">
        <ele>116.1</ele>
        <time>2015-01-12T20:06:57.681Z</time>
      </trkpt>
      <trkpt lat="48.85041" lon="2.41823">
        <ele>116.5</ele>
        <time>2015-01-12T20:06:59.698Z</time>
      </trkpt>
      <trkpt lat="48.85044" lon="2.41823">
        <ele>116.6</ele>
        <time>2015-01-12T20:07:00.632Z</time>
      </trkpt>
      <trkpt lat="48.8505" lon="2.41827">
        <ele>115.9</ele>
        <time>2015-01-12T20:07:02.619Z</time>
      </trkpt>
      <trkpt lat="48.85053" lon="2.41828">
        <ele>115.4</ele>
        <time>2015-01-12T20:07:03.650Z</time>
      </trkpt>
      <trkpt lat="48.85061" lon="2.41827">
        <ele>114.2</ele>
        <time>2015-01-12T20:07:05.661Z</time>
      </trkpt>
      <trkpt lat="48.85064" lon="2.41828">
        <ele>113.7</ele>
        <time>2015-01-12T20:07:06.670Z</time>
      </trkpt>
      <trkpt lat="48.85071" lon="2.41829">
        <ele>114.4</ele>
        <time>2015-01-12T20:07:09.883Z</time>
      </trkpt>
      <trkpt lat="48.85074" lon="2.41831">
        <ele>114.7</ele>
        <time>2015-01-12T20:07:10.674Z</time>
      </trkpt>
      <trkpt lat="48.85081" lon="2.41832">
        <ele>115.4</ele>
        <time>2015-01-12T20:07:12.648Z</time>
      </trkpt>
      <trkpt lat="48.85084" lon="2.41832">
        <ele>115.6</ele>
        <time>2015-01-12T20:07:13.652Z</time>
      </trkpt>
      <trkpt lat="48.8509" lon="2.41832">
        <ele>115.3</ele>
        <time>2015-01-12T20:07:15.627Z</time>
      </trkpt>
      <trkpt lat="48.85094" lon="2.41832">
        <ele>115.6</ele>
        <time>2015-01-12T20:07:16.717Z</time>
      </trkpt>
      <trkpt lat="48.85101" lon="2.41831">
        <ele>116.1</ele>
        <time>2015-01-12T20:07:18.620Z</time>
      </trkpt>
      <trkpt lat="48.85105" lon="2.4183">
        <ele>116.3</ele>
        <time>2015-01-12T20:07:19.720Z</time>
      </trkpt>
      <trkpt lat="48.85112" lon="2.41829">
        <ele>116.6</ele>
        <time>2015-01-12T20:07:21.660Z</time>
      </trkpt>
      <trkpt lat="48.85116" lon="2.41829">
        <ele>116.8</ele>
        <time>2015-01-12T20:07:22.666Z</time>
      </trkpt>
      <trkpt lat="48.85125" lon="2.41829">
        <ele>117.1</ele>
        <time>2015-01-12T20:07:25.197Z</time>
      </trkpt>
      <trkpt lat="48.85129" lon="2.41829">
        <ele>117</ele>
        <time>2015-01-12T20:07:25.693Z</time>
      </trkpt>
      <trkpt lat="48.8514" lon="2.41826">
        <ele>117.3</ele>
        <time>2015-01-12T20:07:28.664Z</time>
      </trkpt>
      <trkpt lat="48.85147" lon="2.41824">
        <ele>117.5</ele>
        <time>2015-01-12T20:07:31.702Z</time>
      </trkpt>
      <trkpt lat="48.8515" lon="2.41824">
        <ele>117.4</ele>
        <time>2015-01-12T20:07:32.785Z</time>
      </trkpt>
      <trkpt lat="48.85158" lon="2.4182">
        <ele>116.7</ele>
        <time>2015-01-12T20:07:37.708Z</time>
      </trkpt>
      <trkpt lat="48.8516" lon="2.4182">
        <ele>116.8</ele>
        <time>2015-01-12T20:07:38.725Z</time>
      </trkpt>
      <trkpt lat="48.85169" lon="2.41822">
        <ele>117.1</ele>
        <time>2015-01-12T20:07:42.603Z</time>
      </trkpt>
      <trkpt lat="48.85173" lon="2.41822">
        <ele>117.5</ele>
        <time>2015-01-12T20:07:43.655Z</time>
      </trkpt>
      <trkpt lat="48.85178" lon="2.41822">
        <ele>117.8</ele>
        <time>2015-01-12T20:07:45.657Z</time>
      </trkpt>
      <trkpt lat="48.85183" lon="2.4182">
        <ele>118.1</ele>
        <time>2015-01-12T20:07:45.714Z</time>
      </trkpt>
      <trkpt lat="48.85188" lon="2.41819">
        <ele>118.5</ele>
        <time>2015-01-12T20:07:46.650Z</time>
      </trkpt>
      <trkpt lat="48.85193" lon="2.41817">
        <ele>118.9</ele>
        <time>2015-01-12T20:07:47.655Z</time>
      </trkpt>
      <trkpt lat="48.85201" lon="2.41814">
        <ele>119.6</ele>
        <time>2015-01-12T20:07:49.670Z</time>
      </trkpt>
      <trkpt lat="48.85204" lon="2.41814">
        <ele>119.9</ele>
        <time>2015-01-12T20:07:50.741Z</time>
      </trkpt>
      <trkpt lat="48.85211" lon="2.41812">
        <ele>120.8</ele>
        <time>2015-01-12T20:07:52.639Z</time>
      </trkpt>
      <trkpt lat="48.85214" lon="2.41811">
        <ele>121.3</ele>
        <time>2015-01-12T20:07:53.648Z</time>
      </trkpt>
      <trkpt lat="48.85221" lon="2.41807">
        <ele>122.4</ele>
        <time>2015-01-12T20:07:56.844Z</time>
      </trkpt>
      <trkpt lat="48.85224" lon="2.41806">
        <ele>123</ele>
        <time>2015-01-12T20:07:57.665Z</time>
      </trkpt>
      <trkpt lat="48.85231" lon="2.41809">
        <ele>124.9</ele>
        <time>2015-01-12T20:07:59.840Z</time>
      </trkpt>
      <trkpt lat="48.85233" lon="2.41809">
        <ele>125.2</ele>
        <time>2015-01-12T20:08:00.728Z</time>
      </trkpt>
      <trkpt lat="48.85239" lon="2.41802">
        <ele>124</ele>
        <time>2015-01-12T20:08:03.637Z</time>
      </trkpt>
      <trkpt lat="48.85241" lon="2.418">
        <ele>123.4</ele>
        <time>2015-01-12T20:08:04.647Z</time>
      </trkpt>
      <trkpt lat="48.85248" lon="2.41794">
        <ele>120.5</ele>
        <time>2015-01-12T20:08:09.982Z</time>
      </trkpt>
      <trkpt lat="48.8525" lon="2.41794">
        <ele>120.4</ele>
        <time>2015-01-12T20:08:10.647Z</time>
      </trkpt>
      <trkpt lat="48.85258" lon="2.41795">
        <ele>121.4</ele>
        <time>2015-01-12T20:08:15.093Z</time>
      </trkpt>
      <trkpt lat="48.8526" lon="2.41795">
        <ele>121.8</ele>
        <time>2015-01-12T20:08:15.650Z</time>
      </trkpt>
      <trkpt lat="48.85266" lon="2.41795">
        <ele>122.6</ele>
        <time>2015-01-12T20:08:17.678Z</time>
      </trkpt>
      <trkpt lat="48.8527" lon="2.41795">
        <ele>122.9</ele>
        <time>2015-01-12T20:08:18.691Z</time>
      </trkpt>
      <trkpt lat="48.85277" lon="2.41794">
        <ele>123.8</ele>
        <time>2015-01-12T20:08:20.732Z</time>
      </trkpt>
      <trkpt lat="48.8528" lon="2.41794">
        <ele>124</ele>
        <time>2015-01-12T20:08:21.676Z</time>
      </trkpt>
      <trkpt lat="48.85288" lon="2.41791">
        <ele>124.9</ele>
        <time>2015-01-12T20:08:23.715Z</time>
      </trkpt>
      <trkpt lat="48.85293" lon="2.41789">
        <ele>125.1</ele>
        <time>2015-01-12T20:08:24.717Z</time>
      </trkpt>
      <trkpt lat="48.85297" lon="2.41787">
        <ele>125</ele>
        <time>2015-01-12T20:08:25.737Z</time>
      </trkpt>
      <trkpt lat="48.85302" lon="2.41786">
        <ele>125.3</ele>
        <time>2015-01-12T20:08:26.649Z</time>
      </trkpt>
      <trkpt lat="48.85306" lon="2.41785">
        <ele>125.6</ele>
        <time>2015-01-12T20:08:27.666Z</time>
      </trkpt>
      <trkpt lat="48.85311" lon="2.41785">
        <ele>125.8</ele>
        <time>2015-01-12T20:08:28.680Z</time>
      </trkpt>
      <trkpt lat="48.85316" lon="2.41784">
        <ele>126.3</ele>
        <time>2015-01-12T20:08:30.680Z</time>
      </trkpt>
      <trkpt lat="48.8532" lon="2.41783">
        <ele>126.8</ele>
        <time>2015-01-12T20:08:30.710Z</time>
      </trkpt>
      <trkpt lat="48.85327" lon="2.41781">
        <ele>127.6</ele>
        <time>2015-01-12T20:08:32.743Z</time>
      </trkpt>
      <trkpt lat="48.85331" lon="2.41779">
        <ele>128.1</ele>
        <time>2015-01-12T20:08:33.644Z</time>
      </trkpt>
      <trkpt lat="48.85338" lon="2.41777">
        <ele>128.2</ele>
        <time>2015-01-12T20:08:35.667Z</time>
      </trkpt>
      <trkpt lat="48.85341" lon="2.41777">
        <ele>128</ele>
        <time>2015-01-12T20:08:36.698Z</time>
      </trkpt>
      <trkpt lat="48.85345" lon="2.41776">
        <ele>127.6</ele>
        <time>2015-01-12T20:08:37.729Z</time>
      </trkpt>
      <trkpt lat="48.85352" lon="2.41773">
        <ele>125.4</ele>
        <time>2015-01-12T20:08:38.727Z</time>
      </trkpt>
      <trkpt lat="48.85358" lon="2.4177">
        <ele>124.2</ele>
        <time>2015-01-12T20:08:40.286Z</time>
      </trkpt>
      <trkpt lat="48.85362" lon="2.41768">
        <ele>123.5</ele>
        <time>2015-01-12T20:08:40.658Z</time>
      </trkpt>
      <trkpt lat="48.85367" lon="2.41766">
        <ele>122.8</ele>
        <time>2015-01-12T20:08:41.672Z</time>
      </trkpt>
      <trkpt lat="48.85371" lon="2.41765">
        <ele>122.1</ele>
        <time>2015-01-12T20:08:42.680Z</time>
      </trkpt>
      <trkpt lat="48.85377" lon="2.41765">
        <ele>122.6</ele>
        <time>2015-01-12T20:08:45.364Z</time>
      </trkpt>
      <trkpt lat="48.85381" lon="2.41764">
        <ele>122.6</ele>
        <time>2015-01-12T20:08:45.630Z</time>
      </trkpt>
      <trkpt lat="48.85387" lon="2.41763">
        <ele>122.5</ele>
        <time>2015-01-12T20:08:47.647Z</time>
      </trkpt>
      <trkpt lat="48.8539" lon="2.41762">
        <ele>122.6</ele>
        <time>2015-01-12T20:08:48.673Z</time>
      </trkpt>
      <trkpt lat="48.85396" lon="2.41762">
        <ele>123.6</ele>
        <time>2015-01-12T20:08:50.655Z</time>
      </trkpt>
      <trkpt lat="48.85399" lon="2.41761">
        <ele>124</ele>
        <time>2015-01-12T20:08:51.666Z</time>
      </trkpt>
      <trkpt lat="48.85405" lon="2.41758">
        <ele>125.1</ele>
        <time>2015-01-12T20:08:53.697Z</time>
      </trkpt>
      <trkpt lat="48.85409" lon="2.41754">
        <ele>125.9</ele>
        <time>2015-01-12T20:08:54.790Z</time>
      </trkpt>
      <trkpt lat="48.85412" lon="2.4175">
        <ele>126.7</ele>
        <time>2015-01-12T20:08:55.674Z</time>
      </trkpt>
      <trkpt lat="48.85416" lon="2.41745">
        <ele>127.2</ele>
        <time>2015-01-12T20:08:56.678Z</time>
      </trkpt>
      <trkpt lat="48.85422" lon="2.41737">
        <ele>128.1</ele>
        <time>2015-01-12T20:08:58.699Z</time>
      </trkpt>
      <trkpt lat="48.85424" lon="2.41735">
        <ele>128.3</ele>
        <time>2015-01-12T20:08:59.709Z</time>
      </trkpt>
      <trkpt lat="48.85432" lon="2.41729">
        <ele>128.9</ele>
        <time>2015-01-12T20:09:01.688Z</time>
      </trkpt>
      <trkpt lat="48.85435" lon="2.41731">
        <ele>129.1</ele>
        <time>2015-01-12T20:09:02.700Z</time>
      </trkpt>
      <trkpt lat="48.85443" lon="2.41729">
        <ele>129.4</ele>
        <time>2015-01-12T20:09:05.741Z</time>
      </trkpt>
      <trkpt lat="48.85446" lon="2.41729">
        <ele>129.5</ele>
        <time>2015-01-12T20:09:06.654Z</time>
      </trkpt>
      <trkpt lat="48.85454" lon="2.41729">
        <ele>130</ele>
        <time>2015-01-12T20:09:11.651Z</time>
      </trkpt>
      <trkpt lat="48.85454" lon="2.41731">
        <ele>130.4</ele>
        <time>2015-01-12T20:09:12.768Z</time>
      </trkpt>
      <trkpt lat="48.85456" lon="2.41734">
        <ele>130.3</ele>
        <time>2015-01-12T20:09:13.676Z</time>
      </trkpt>
      <trkpt lat="48.85464" lon="2.41736">
        <ele>128.7</ele>
        <time>2015-01-12T20:09:20.641Z</time>
      </trkpt>
      <trkpt lat="48.85465" lon="2.41735">
        <ele>128.5</ele>
        <time>2015-01-12T20:09:21.641Z</time>
      </trkpt>
      <trkpt lat="48.85464" lon="2.41723">
        <ele>128.1</ele>
        <time>2015-01-12T20:09:28.637Z</time>
      </trkpt>
      <trkpt lat="48.85463" lon="2.41721">
        <ele>128.2</ele>
        <time>2015-01-12T20:09:29.644Z</time>
      </trkpt>
      <trkpt lat="48.8546" lon="2.4171">
        <ele>128.6</ele>
        <time>2015-01-12T20:09:33.635Z</time>
      </trkpt>
      <trkpt lat="48.85458" lon="2.41707">
        <ele>128.8</ele>
        <time>2015-01-12T20:09:34.688Z</time>
      </trkpt>
      <trkpt lat="48.85456" lon="2.41695">
        <ele>129.2</ele>
        <time>2015-01-12T20:09:37.682Z</time>
      </trkpt>
      <trkpt lat="48.85454" lon="2.41689">
        <ele>129.3</ele>
        <time>2015-01-12T20:09:38.684Z</time>
      </trkpt>
      <trkpt lat="48.85453" lon="2.41676">
        <ele>130.3</ele>
        <time>2015-01-12T20:09:40.700Z</time>
      </trkpt>
      <trkpt lat="48.85452" lon="2.4167">
        <ele>130.7</ele>
        <time>2015-01-12T20:09:41.728Z</time>
      </trkpt>
      <trkpt lat="48.85452" lon="2.41662">
        <ele>131.1</ele>
        <time>2015-01-12T20:09:42.672Z</time>
      </trkpt>
      <trkpt lat="48.85451" lon="2.41653">
        <ele>131.8</ele>
        <time>2015-01-12T20:09:43.684Z</time>
      </trkpt>
      <trkpt lat="48.85448" lon="2.41641">
        <ele>132.7</ele>
        <time>2015-01-12T20:09:44.690Z</time>
      </trkpt>
      <trkpt lat="48.85446" lon="2.41627">
        <ele>132.7</ele>
        <time>2015-01-12T20:09:45.721Z</time>
      </trkpt>
      <trkpt lat="48.85446" lon="2.41627">
        <ele>132.7</ele>
        <time>2015-01-12T20:09:45.683Z</time>
      </trkpt>
      <trkpt lat="48.85443" lon="2.41614">
        <ele>133.3</ele>
        <time>2015-01-12T20:09:46.647Z</time>
      </trkpt>
      <trkpt lat="48.85439" lon="2.41601">
        <ele>132.8</ele>
        <time>2015-01-12T20:09:47.657Z</time>
      </trkpt>
      <trkpt lat="48.85436" lon="2.41589">
        <ele>132.8</ele>
        <time>2015-01-12T20:09:49.569Z</time>
      </trkpt>
      <trkpt lat="48.85433" lon="2.41576">
        <ele>132.2</ele>
        <time>2015-01-12T20:09:49.695Z</time>
      </trkpt>
      <trkpt lat="48.85432" lon="2.41566">
        <ele>131.5</ele>
        <time>2015-01-12T20:09:50.752Z</time>
      </trkpt>
      <trkpt lat="48.8543" lon="2.41557">
        <ele>131.3</ele>
        <time>2015-01-12T20:09:51.643Z</time>
      </trkpt>
      <trkpt lat="48.85428" lon="2.41544">
        <ele>130</ele>
        <time>2015-01-12T20:09:54.676Z</time>
      </trkpt>
      <trkpt lat="48.85428" lon="2.4154">
        <ele>129.3</ele>
        <time>2015-01-12T20:09:54.721Z</time>
      </trkpt>
      <trkpt lat="48.8543" lon="2.41527">
        <ele>129.1</ele>
        <time>2015-01-12T20:09:58.720Z</time>
      </trkpt>
      <trkpt lat="48.85431" lon="2.41524">
        <ele>129.1</ele>
        <time>2015-01-12T20:09:59.742Z</time>
      </trkpt>
      <trkpt lat="48.85437" lon="2.41516">
        <ele>129.1</ele>
        <time>2015-01-12T20:10:03.700Z</time>
      </trkpt>
      <trkpt lat="48.85437" lon="2.41516">
        <ele>129.3</ele>
        <time>2015-01-12T20:10:04.742Z</time>
      </trkpt>
      <trkpt lat="48.85437" lon="2.41518">
        <ele>129.2</ele>
        <time>2015-01-12T20:10:33.652Z</time>
      </trkpt>
      <trkpt lat="48.85437" lon="2.41517">
        <ele>128.3</ele>
        <time>2015-01-12T20:10:34.690Z</time>
      </trkpt>
      <trkpt lat="48.85442" lon="2.41508">
        <ele>127.4</ele>
        <time>2015-01-12T20:10:38.685Z</time>
      </trkpt>
      <trkpt lat="48.85443" lon="2.41506">
        <ele>126.9</ele>
        <time>2015-01-12T20:10:39.698Z</time>
      </trkpt>
      <trkpt lat="48.85444" lon="2.41495">
        <ele>127.1</ele>
        <time>2015-01-12T20:10:43.742Z</time>
      </trkpt>
      <trkpt lat="48.85443" lon="2.41492">
        <ele>127.2</ele>
        <time>2015-01-12T20:10:44.622Z</time>
      </trkpt>
      <trkpt lat="48.85441" lon="2.41479">
        <ele>126.8</ele>
        <time>2015-01-12T20:10:48.645Z</time>
      </trkpt>
      <trkpt lat="48.8544" lon="2.41477">
        <ele>126.5</ele>
        <time>2015-01-12T20:10:49.697Z</time>
      </trkpt>
      <trkpt lat="48.85447" lon="2.41471">
        <ele>125.4</ele>
        <time>2015-01-12T20:10:54.727Z</time>
      </trkpt>
      <trkpt lat="48.85449" lon="2.4147">
        <ele>124.5</ele>
        <time>2015-01-12T20:10:55.902Z</time>
      </trkpt>
      <trkpt lat="48.85456" lon="2.41464">
        <ele>122.3</ele>
        <time>2015-01-12T20:10:59.693Z</time>
      </trkpt>
      <trkpt lat="48.85458" lon="2.41462">
        <ele>122.1</ele>
        <time>2015-01-12T20:11:00.701Z</time>
      </trkpt>
      <trkpt lat="48.85464" lon="2.41456">
        <ele>120.8</ele>
        <time>2015-01-12T20:11:03.855Z</time>
      </trkpt>
      <trkpt lat="48.85466" lon="2.41454">
        <ele>120.3</ele>
        <time>2015-01-12T20:11:04.663Z</time>
      </trkpt>
      <trkpt lat="48.85472" lon="2.41447">
        <ele>118.7</ele>
        <time>2015-01-12T20:11:08.750Z</time>
      </trkpt>
      <trkpt lat="48.85473" lon="2.41444">
        <ele>117.8</ele>
        <time>2015-01-12T20:11:09.767Z</time>
      </trkpt>
      <trkpt lat="48.85475" lon="2.41433">
        <ele>116.6</ele>
        <time>2015-01-12T20:11:16.636Z</time>
      </trkpt>
      <trkpt lat="48.85475" lon="2.4143">
        <ele>116.5</ele>
        <time>2015-01-12T20:11:16.727Z</time>
      </trkpt>
      <trkpt lat="48.85476" lon="2.41418">
        <ele>115.3</ele>
        <time>2015-01-12T20:11:21.774Z</time>
      </trkpt>
      <trkpt lat="48.85476" lon="2.41414">
        <ele>115.1</ele>
        <time>2015-01-12T20:11:21.822Z</time>
      </trkpt>
      <trkpt lat="48.85478" lon="2.41402">
        <ele>115.1</ele>
        <time>2015-01-12T20:11:24.702Z</time>
      </trkpt>
      <trkpt lat="48.85478" lon="2.41399">
        <ele>115.1</ele>
        <time>2015-01-12T20:11:25.717Z</time>
      </trkpt>
      <trkpt lat="48.8548" lon="2.41386">
        <ele>115.3</ele>
        <time>2015-01-12T20:11:29.695Z</time>
      </trkpt>
      <trkpt lat="48.85481" lon="2.41383">
        <ele>115.3</ele>
        <time>2015-01-12T20:11:30.704Z</time>
      </trkpt>
      <trkpt lat="48.85481" lon="2.41372">
        <ele>115.3</ele>
        <time>2015-01-12T20:11:34.761Z</time>
      </trkpt>
      <trkpt lat="48.85481" lon="2.41369">
        <ele>115.3</ele>
        <time>2015-01-12T20:11:35.634Z</time>
      </trkpt>
      <trkpt lat="48.85479" lon="2.41356">
        <ele>115.4</ele>
        <time>2015-01-12T20:11:40.740Z</time>
      </trkpt>
      <trkpt lat="48.85478" lon="2.41354">
        <ele>115.3</ele>
        <time>2015-01-12T20:11:41.744Z</time>
      </trkpt>
      <trkpt lat="48.85477" lon="2.41342">
        <ele>114.4</ele>
        <time>2015-01-12T20:11:49.577Z</time>
      </trkpt>
      <trkpt lat="48.85476" lon="2.41337">
        <ele>115.4</ele>
        <time>2015-01-12T20:11:49.720Z</time>
      </trkpt>
      <trkpt lat="48.85471" lon="2.41326">
        <ele>114.9</ele>
        <time>2015-01-12T20:11:54.730Z</time>
      </trkpt>
      <trkpt lat="48.85469" lon="2.41323">
        <ele>114.7</ele>
        <time>2015-01-12T20:11:55.751Z</time>
      </trkpt>
      <trkpt lat="48.85465" lon="2.41315">
        <ele>114.7</ele>
        <time>2015-01-12T20:11:58.740Z</time>
      </trkpt>
      <trkpt lat="48.85463" lon="2.41312">
        <ele>114.6</ele>
        <time>2015-01-12T20:11:59.765Z</time>
      </trkpt>
      <trkpt lat="48.85458" lon="2.41301">
        <ele>114.6</ele>
        <time>2015-01-12T20:12:03.723Z</time>
      </trkpt>
      <trkpt lat="48.85457" lon="2.413">
        <ele>114.7</ele>
        <time>2015-01-12T20:12:04.739Z</time>
      </trkpt>
      <trkpt lat="48.85451" lon="2.4129">
        <ele>114.2</ele>
        <time>2015-01-12T20:12:09.956Z</time>
      </trkpt>
      <trkpt lat="48.85451" lon="2.41287">
        <ele>114.2</ele>
        <time>2015-01-12T20:12:10.664Z</time>
      </trkpt>
      <trkpt lat="48.85452" lon="2.41275">
        <ele>113</ele>
        <time>2015-01-12T20:12:13.677Z</time>
      </trkpt>
      <trkpt lat="48.85453" lon="2.41272">
        <ele>112.7</ele>
        <time>2015-01-12T20:12:14.691Z</time>
      </trkpt>
      <trkpt lat="48.85456" lon="2.41262">
        <ele>112.2</ele>
        <time>2015-01-12T20:12:17.629Z</time>
      </trkpt>
      <trkpt lat="48.85457" lon="2.41258">
        <ele>111.9</ele>
        <time>2015-01-12T20:12:18.722Z</time>
      </trkpt>
      <trkpt lat="48.85462" lon="2.41249">
        <ele>111.7</ele>
        <time>2015-01-12T20:12:21.691Z</time>
      </trkpt>
      <trkpt lat="48.85464" lon="2.41246">
        <ele>111.7</ele>
        <time>2015-01-12T20:12:22.671Z</time>
      </trkpt>
      <trkpt lat="48.85467" lon="2.41235">
        <ele>111.2</ele>
        <time>2015-01-12T20:12:25.712Z</time>
      </trkpt>
      <trkpt lat="48.85468" lon="2.41232">
        <ele>111.2</ele>
        <time>2015-01-12T20:12:26.648Z</time>
      </trkpt>
      <trkpt lat="48.85466" lon="2.41221">
        <ele>111.5</ele>
        <time>2015-01-12T20:12:30.347Z</time>
      </trkpt>
      <trkpt lat="48.85463" lon="2.41217">
        <ele>111.6</ele>
        <time>2015-01-12T20:12:30.651Z</time>
      </trkpt>
      <trkpt lat="48.85457" lon="2.41212">
        <ele>111.6</ele>
        <time>2015-01-12T20:12:33.744Z</time>
      </trkpt>
      <trkpt lat="48.85455" lon="2.41211">
        <ele>111.7</ele>
        <time>2015-01-12T20:12:34.638Z</time>
      </trkpt>
      <trkpt lat="48.85448" lon="2.41209">
        <ele>111.8</ele>
        <time>2015-01-12T20:12:36.666Z</time>
      </trkpt>
      <trkpt lat="48.85445" lon="2.41208">
        <ele>111.6</ele>
        <time>2015-01-12T20:12:37.698Z</time>
      </trkpt>
      <trkpt lat="48.85437" lon="2.41206">
        <ele>111.5</ele>
        <time>2015-01-12T20:12:40.553Z</time>
      </trkpt>
      <trkpt lat="48.85433" lon="2.41205">
        <ele>111.3</ele>
        <time>2015-01-12T20:12:40.604Z</time>
      </trkpt>
      <trkpt lat="48.85425" lon="2.41204">
        <ele>111.5</ele>
        <time>2015-01-12T20:12:42.670Z</time>
      </trkpt>
      <trkpt lat="48.85421" lon="2.41203">
        <ele>111.4</ele>
        <time>2015-01-12T20:12:43.683Z</time>
      </trkpt>
      <trkpt lat="48.85414" lon="2.41203">
        <ele>111</ele>
        <time>2015-01-12T20:12:45.768Z</time>
      </trkpt>
      <trkpt lat="48.8541" lon="2.41204">
        <ele>110.9</ele>
        <time>2015-01-12T20:12:46.616Z</time>
      </trkpt>
      <trkpt lat="48.85402" lon="2.41202">
        <ele>110.9</ele>
        <time>2015-01-12T20:12:49.606Z</time>
      </trkpt>
      <trkpt lat="48.85398" lon="2.41202">
        <ele>110.8</ele>
        <time>2015-01-12T20:12:49.686Z</time>
      </trkpt>
      <trkpt lat="48.85391" lon="2.412">
        <ele>110.8</ele>
        <time>2015-01-12T20:12:51.641Z</time>
      </trkpt>
      <trkpt lat="48.85387" lon="2.41199">
        <ele>110.9</ele>
        <time>2015-01-12T20:12:52.676Z</time>
      </trkpt>
      <trkpt lat="48.85381" lon="2.41193">
        <ele>110.9</ele>
        <time>2015-01-12T20:12:54.836Z</time>
      </trkpt>
      <trkpt lat="48.85379" lon="2.41188">
        <ele>110.9</ele>
        <time>2015-01-12T20:12:55.694Z</time>
      </trkpt>
      <trkpt lat="48.85376" lon="2.41176">
        <ele>110.9</ele>
        <time>2015-01-12T20:12:57.770Z</time>
      </trkpt>
      <trkpt lat="48.85375" lon="2.4117">
        <ele>110.9</ele>
        <time>2015-01-12T20:12:58.691Z</time>
      </trkpt>
      <trkpt lat="48.85374" lon="2.41158">
        <ele>110.2</ele>
        <time>2015-01-12T20:13:00.728Z</time>
      </trkpt>
      <trkpt lat="48.85372" lon="2.41151">
        <ele>109.9</ele>
        <time>2015-01-12T20:13:01.745Z</time>
      </trkpt>
      <trkpt lat="48.8537" lon="2.41139">
        <ele>109.5</ele>
        <time>2015-01-12T20:13:03.649Z</time>
      </trkpt>
      <trkpt lat="48.85369" lon="2.41133">
        <ele>109.4</ele>
        <time>2015-01-12T20:13:04.678Z</time>
      </trkpt>
      <trkpt lat="48.85367" lon="2.41123">
        <ele>109.2</ele>
        <time>2015-01-12T20:13:06.711Z</time>
      </trkpt>
      <trkpt lat="48.85366" lon="2.41117">
        <ele>109.2</ele>
        <time>2015-01-12T20:13:07.716Z</time>
      </trkpt>
      <trkpt lat="48.85364" lon="2.41107">
        <ele>109.1</ele>
        <time>2015-01-12T20:13:09.988Z</time>
      </trkpt>
      <trkpt lat="48.85364" lon="2.41103">
        <ele>109.1</ele>
        <time>2015-01-12T20:13:10.657Z</time>
      </trkpt>
      <trkpt lat="48.85362" lon="2.41091">
        <ele>109.2</ele>
        <time>2015-01-12T20:13:13.685Z</time>
      </trkpt>
      <trkpt lat="48.85362" lon="2.41087">
        <ele>109.2</ele>
        <time>2015-01-12T20:13:14.698Z</time>
      </trkpt>
      <trkpt lat="48.85361" lon="2.41076">
        <ele>109.9</ele>
        <time>2015-01-12T20:13:17.761Z</time>
      </trkpt>
      <trkpt lat="48.85361" lon="2.41073">
        <ele>110</ele>
        <time>2015-01-12T20:13:18.646Z</time>
      </trkpt>
      <trkpt lat="48.85357" lon="2.41062">
        <ele>110.3</ele>
        <time>2015-01-12T20:13:21.691Z</time>
      </trkpt>
      <trkpt lat="48.85356" lon="2.41057">
        <ele>110.5</ele>
        <time>2015-01-12T20:13:22.705Z</time>
      </trkpt>
      <trkpt lat="48.85351" lon="2.41048">
        <ele>110.8</ele>
        <time>2015-01-12T20:13:25.392Z</time>
      </trkpt>
      <trkpt lat="48.8535" lon="2.41044">
        <ele>110.5</ele>
        <time>2015-01-12T20:13:25.767Z</time>
      </trkpt>
      <trkpt lat="48.85346" lon="2.41035">
        <ele>110.5</ele>
        <time>2015-01-12T20:13:27.648Z</time>
      </trkpt>
      <trkpt lat="48.85346" lon="2.4103">
        <ele>110.4</ele>
        <time>2015-01-12T20:13:28.652Z</time>
      </trkpt>
      <trkpt lat="48.85344" lon="2.4102">
        <ele>110.3</ele>
        <time>2015-01-12T20:13:30.680Z</time>
      </trkpt>
      <trkpt lat="48.85343" lon="2.41015">
        <ele>110.3</ele>
        <time>2015-01-12T20:13:31.694Z</time>
      </trkpt>
      <trkpt lat="48.8534" lon="2.41003">
        <ele>110.2</ele>
        <time>2015-01-12T20:13:33.725Z</time>
      </trkpt>
      <trkpt lat="48.85339" lon="2.40998">
        <ele>110.2</ele>
        <time>2015-01-12T20:13:34.673Z</time>
      </trkpt>
      <trkpt lat="48.85337" lon="2.40985">
        <ele>110.4</ele>
        <time>2015-01-12T20:13:36.698Z</time>
      </trkpt>
      <trkpt lat="48.85337" lon="2.40979">
        <ele>110.8</ele>
        <time>2015-01-12T20:13:37.870Z</time>
      </trkpt>
      <trkpt lat="48.85335" lon="2.40967">
        <ele>111</ele>
        <time>2015-01-12T20:13:40.529Z</time>
      </trkpt>
      <trkpt lat="48.85334" lon="2.4096">
        <ele>111</ele>
        <time>2015-01-12T20:13:40.707Z</time>
      </trkpt>
      <trkpt lat="48.85332" lon="2.40949">
        <ele>110.8</ele>
        <time>2015-01-12T20:13:42.734Z</time>
      </trkpt>
      <trkpt lat="48.85332" lon="2.40943">
        <ele>110.9</ele>
        <time>2015-01-12T20:13:43.783Z</time>
      </trkpt>
      <trkpt lat="48.85331" lon="2.40936">
        <ele>110.9</ele>
        <time>2015-01-12T20:13:45.540Z</time>
      </trkpt>
      <trkpt lat="48.8533" lon="2.40929">
        <ele>110.9</ele>
        <time>2015-01-12T20:13:45.650Z</time>
      </trkpt>
      <trkpt lat="48.85328" lon="2.40922">
        <ele>111.1</ele>
        <time>2015-01-12T20:13:46.684Z</time>
      </trkpt>
      <trkpt lat="48.85327" lon="2.40915">
        <ele>111.3</ele>
        <time>2015-01-12T20:13:47.682Z</time>
      </trkpt>
      <trkpt lat="48.85325" lon="2.40902">
        <ele>111.6</ele>
        <time>2015-01-12T20:13:49.704Z</time>
      </trkpt>
      <trkpt lat="48.85324" lon="2.40895">
        <ele>111.7</ele>
        <time>2015-01-12T20:13:50.716Z</time>
      </trkpt>
      <trkpt lat="48.85323" lon="2.40882">
        <ele>111.9</ele>
        <time>2015-01-12T20:13:52.738Z</time>
      </trkpt>
      <trkpt lat="48.85322" lon="2.40875">
        <ele>112.1</ele>
        <time>2015-01-12T20:13:53.642Z</time>
      </trkpt>
      <trkpt lat="48.85322" lon="2.40868">
        <ele>112.2</ele>
        <time>2015-01-12T20:13:54.655Z</time>
      </trkpt>
      <trkpt lat="48.8532" lon="2.40861">
        <ele>112.3</ele>
        <time>2015-01-12T20:13:55.667Z</time>
      </trkpt>
      <trkpt lat="48.85319" lon="2.40854">
        <ele>112.2</ele>
        <time>2015-01-12T20:13:56.659Z</time>
      </trkpt>
      <trkpt lat="48.85317" lon="2.40846">
        <ele>112.1</ele>
        <time>2015-01-12T20:13:57.769Z</time>
      </trkpt>
      <trkpt lat="48.85314" lon="2.40839">
        <ele>112.1</ele>
        <time>2015-01-12T20:13:58.645Z</time>
      </trkpt>
      <trkpt lat="48.85311" lon="2.40832">
        <ele>112.1</ele>
        <time>2015-01-12T20:13:59.647Z</time>
      </trkpt>
      <trkpt lat="48.8531" lon="2.40826">
        <ele>112.1</ele>
        <time>2015-01-12T20:14:00.665Z</time>
      </trkpt>
      <trkpt lat="48.85308" lon="2.40818">
        <ele>112.3</ele>
        <time>2015-01-12T20:14:01.686Z</time>
      </trkpt>
      <trkpt lat="48.85305" lon="2.40805">
        <ele>112.7</ele>
        <time>2015-01-12T20:14:03.706Z</time>
      </trkpt>
      <trkpt lat="48.85304" lon="2.40799">
        <ele>112.7</ele>
        <time>2015-01-12T20:14:04.790Z</time>
      </trkpt>
      <trkpt lat="48.85303" lon="2.40793">
        <ele>112.8</ele>
        <time>2015-01-12T20:14:05.637Z</time>
      </trkpt>
      <trkpt lat="48.85302" lon="2.40785">
        <ele>112.7</ele>
        <time>2015-01-12T20:14:06.641Z</time>
      </trkpt>
      <trkpt lat="48.85301" lon="2.40776">
        <ele>112.7</ele>
        <time>2015-01-12T20:14:07.683Z</time>
      </trkpt>
      <trkpt lat="48.85301" lon="2.40766">
        <ele>112.9</ele>
        <time>2015-01-12T20:14:08.680Z</time>
      </trkpt>
      <trkpt lat="48.853" lon="2.40758">
        <ele>112.9</ele>
        <time>2015-01-12T20:14:09.692Z</time>
      </trkpt>
      <trkpt lat="48.85299" lon="2.40752">
        <ele>112.6</ele>
        <time>2015-01-12T20:14:10.704Z</time>
      </trkpt>
      <trkpt lat="48.85298" lon="2.40745">
        <ele>112.6</ele>
        <time>2015-01-12T20:14:11.629Z</time>
      </trkpt>
      <trkpt lat="48.85297" lon="2.40737">
        <ele>112.6</ele>
        <time>2015-01-12T20:14:12.644Z</time>
      </trkpt>
      <trkpt lat="48.85296" lon="2.4073">
        <ele>112.4</ele>
        <time>2015-01-12T20:14:13.679Z</time>
      </trkpt>
      <trkpt lat="48.85295" lon="2.40723">
        <ele>112.5</ele>
        <time>2015-01-12T20:14:14.700Z</time>
      </trkpt>
      <trkpt lat="48.85294" lon="2.4071">
        <ele>112.1</ele>
        <time>2015-01-12T20:14:16.732Z</time>
      </trkpt>
      <trkpt lat="48.85293" lon="2.40704">
        <ele>112.1</ele>
        <time>2015-01-12T20:14:17.643Z</time>
      </trkpt>
      <trkpt lat="48.85291" lon="2.40692">
        <ele>111.9</ele>
        <time>2015-01-12T20:14:19.738Z</time>
      </trkpt>
      <trkpt lat="48.8529" lon="2.40686">
        <ele>111.9</ele>
        <time>2015-01-12T20:14:20.612Z</time>
      </trkpt>
      <trkpt lat="48.85289" lon="2.40674">
        <ele>111.9</ele>
        <time>2015-01-12T20:14:22.623Z</time>
      </trkpt>
      <trkpt lat="48.85288" lon="2.40668">
        <ele>111.8</ele>
        <time>2015-01-12T20:14:23.679Z</time>
      </trkpt>
      <trkpt lat="48.85286" lon="2.40657">
        <ele>111.7</ele>
        <time>2015-01-12T20:14:25.739Z</time>
      </trkpt>
      <trkpt lat="48.85286" lon="2.40653">
        <ele>111.7</ele>
        <time>2015-01-12T20:14:26.622Z</time>
      </trkpt>
      <trkpt lat="48.85283" lon="2.40644">
        <ele>111.4</ele>
        <time>2015-01-12T20:14:28.665Z</time>
      </trkpt>
      <trkpt lat="48.85282" lon="2.40639">
        <ele>111.2</ele>
        <time>2015-01-12T20:14:29.693Z</time>
      </trkpt>
      <trkpt lat="48.85281" lon="2.40628">
        <ele>111.3</ele>
        <time>2015-01-12T20:14:33.712Z</time>
      </trkpt>
      <trkpt lat="48.8528" lon="2.40626">
        <ele>111.3</ele>
        <time>2015-01-12T20:14:34.631Z</time>
      </trkpt>
      <trkpt lat="48.85279" lon="2.40617">
        <ele>111</ele>
        <time>2015-01-12T20:14:39.717Z</time>
      </trkpt>
      <trkpt lat="48.85279" lon="2.40617">
        <ele>111.2</ele>
        <time>2015-01-12T20:14:40.626Z</time>
      </trkpt>
      <trkpt lat="48.85279" lon="2.40617">
        <ele>111.3</ele>
        <time>2015-01-12T20:14:52.646Z</time>
      </trkpt>
      <trkpt lat="48.85278" lon="2.40616">
        <ele>111.6</ele>
        <time>2015-01-12T20:14:53.655Z</time>
      </trkpt>
      <trkpt lat="48.85275" lon="2.40606">
        <ele>111.8</ele>
        <time>2015-01-12T20:14:57.681Z</time>
      </trkpt>
      <trkpt lat="48.85273" lon="2.40601">
        <ele>111.7</ele>
        <time>2015-01-12T20:14:58.705Z</time>
      </trkpt>
      <trkpt lat="48.8527" lon="2.40591">
        <ele>111.7</ele>
        <time>2015-01-12T20:15:00.651Z</time>
      </trkpt>
      <trkpt lat="48.85269" lon="2.40587">
        <ele>111.5</ele>
        <time>2015-01-12T20:15:01.688Z</time>
      </trkpt>
      <trkpt lat="48.85267" lon="2.40577">
        <ele>110.9</ele>
        <time>2015-01-12T20:15:03.719Z</time>
      </trkpt>
      <trkpt lat="48.85266" lon="2.40572">
        <ele>110.8</ele>
        <time>2015-01-12T20:15:04.621Z</time>
      </trkpt>
      <trkpt lat="48.85263" lon="2.4056">
        <ele>110.4</ele>
        <time>2015-01-12T20:15:06.755Z</time>
      </trkpt>
      <trkpt lat="48.85262" lon="2.40555">
        <ele>110.2</ele>
        <time>2015-01-12T20:15:07.664Z</time>
      </trkpt>
      <trkpt lat="48.8526" lon="2.40542">
        <ele>110</ele>
        <time>2015-01-12T20:15:09.727Z</time>
      </trkpt>
      <trkpt lat="48.85258" lon="2.40535">
        <ele>110</ele>
        <time>2015-01-12T20:15:10.626Z</time>
      </trkpt>
      <trkpt lat="48.85256" lon="2.40528">
        <ele>109.7</ele>
        <time>2015-01-12T20:15:11.632Z</time>
      </trkpt>
      <trkpt lat="48.85254" lon="2.40522">
        <ele>109.5</ele>
        <time>2015-01-12T20:15:12.640Z</time>
      </trkpt>
      <trkpt lat="48.85253" lon="2.40515">
        <ele>109.4</ele>
        <time>2015-01-12T20:15:13.659Z</time>
      </trkpt>
      <trkpt lat="48.85252" lon="2.40508">
        <ele>109.4</ele>
        <time>2015-01-12T20:15:14.657Z</time>
      </trkpt>
      <trkpt lat="48.85251" lon="2.40494">
        <ele>109.2</ele>
        <time>2015-01-12T20:15:17.283Z</time>
      </trkpt>
      <trkpt lat="48.8525" lon="2.40488">
        <ele>109.2</ele>
        <time>2015-01-12T20:15:17.604Z</time>
      </trkpt>
      <trkpt lat="48.85248" lon="2.40476">
        <ele>109.3</ele>
        <time>2015-01-12T20:15:19.766Z</time>
      </trkpt>
      <trkpt lat="48.85247" lon="2.4047">
        <ele>109.2</ele>
        <time>2015-01-12T20:15:20.690Z</time>
      </trkpt>
      <trkpt lat="48.85246" lon="2.40462">
        <ele>108.9</ele>
        <time>2015-01-12T20:15:21.659Z</time>
      </trkpt>
      <trkpt lat="48.85245" lon="2.40455">
        <ele>108.8</ele>
        <time>2015-01-12T20:15:22.641Z</time>
      </trkpt>
      <trkpt lat="48.85245" lon="2.40446">
        <ele>108.8</ele>
        <time>2015-01-12T20:15:23.645Z</time>
      </trkpt>
      <trkpt lat="48.85244" lon="2.40438">
        <ele>108.8</ele>
        <time>2015-01-12T20:15:24.659Z</time>
      </trkpt>
      <trkpt lat="48.85243" lon="2.40429">
        <ele>108.8</ele>
        <time>2015-01-12T20:15:25.693Z</time>
      </trkpt>
      <trkpt lat="48.85242" lon="2.40419">
        <ele>108.7</ele>
        <time>2015-01-12T20:15:26.716Z</time>
      </trkpt>
      <trkpt lat="48.8524" lon="2.4041">
        <ele>108.7</ele>
        <time>2015-01-12T20:15:27.704Z</time>
      </trkpt>
      <trkpt lat="48.85239" lon="2.40402">
        <ele>108.7</ele>
        <time>2015-01-12T20:15:28.721Z</time>
      </trkpt>
      <trkpt lat="48.85238" lon="2.40394">
        <ele>108.7</ele>
        <time>2015-01-12T20:15:30.111Z</time>
      </trkpt>
      <trkpt lat="48.85236" lon="2.40386">
        <ele>108.6</ele>
        <time>2015-01-12T20:15:30.645Z</time>
      </trkpt>
      <trkpt lat="48.85235" lon="2.40379">
        <ele>108.5</ele>
        <time>2015-01-12T20:15:31.692Z</time>
      </trkpt>
      <trkpt lat="48.85234" lon="2.40371">
        <ele>108.5</ele>
        <time>2015-01-12T20:15:32.693Z</time>
      </trkpt>
      <trkpt lat="48.85233" lon="2.40363">
        <ele>108.5</ele>
        <time>2015-01-12T20:15:33.727Z</time>
      </trkpt>
      <trkpt lat="48.85231" lon="2.40355">
        <ele>108.6</ele>
        <time>2015-01-12T20:15:34.631Z</time>
      </trkpt>
      <trkpt lat="48.8523" lon="2.40346">
        <ele>109</ele>
        <time>2015-01-12T20:15:35.636Z</time>
      </trkpt>
      <trkpt lat="48.85229" lon="2.40337">
        <ele>109.1</ele>
        <time>2015-01-12T20:15:36.645Z</time>
      </trkpt>
      <trkpt lat="48.85227" lon="2.40328">
        <ele>109.2</ele>
        <time>2015-01-12T20:15:37.657Z</time>
      </trkpt>
      <trkpt lat="48.85225" lon="2.4032">
        <ele>109.5</ele>
        <time>2015-01-12T20:15:38.657Z</time>
      </trkpt>
      <trkpt lat="48.85223" lon="2.40311">
        <ele>109.6</ele>
        <time>2015-01-12T20:15:39.668Z</time>
      </trkpt>
      <trkpt lat="48.85221" lon="2.40302">
        <ele>109.6</ele>
        <time>2015-01-12T20:15:40.702Z</time>
      </trkpt>
      <trkpt lat="48.8522" lon="2.40293">
        <ele>109.7</ele>
        <time>2015-01-12T20:15:41.724Z</time>
      </trkpt>
      <trkpt lat="48.85219" lon="2.40285">
        <ele>109.7</ele>
        <time>2015-01-12T20:15:42.750Z</time>
      </trkpt>
      <trkpt lat="48.85218" lon="2.40276">
        <ele>109.6</ele>
        <time>2015-01-12T20:15:43.663Z</time>
      </trkpt>
      <trkpt lat="48.85216" lon="2.40267">
        <ele>109.5</ele>
        <time>2015-01-12T20:15:44.664Z</time>
      </trkpt>
      <trkpt lat="48.85215" lon="2.40258">
        <ele>109.6</ele>
        <time>2015-01-12T20:15:45.699Z</time>
      </trkpt>
      <trkpt lat="48.85213" lon="2.40249">
        <ele>109.5</ele>
        <time>2015-01-12T20:15:46.707Z</time>
      </trkpt>
      <trkpt lat="48.85212" lon="2.40241">
        <ele>109.5</ele>
        <time>2015-01-12T20:15:47.715Z</time>
      </trkpt>
      <trkpt lat="48.85211" lon="2.40233">
        <ele>109.5</ele>
        <time>2015-01-12T20:15:48.631Z</time>
      </trkpt>
      <trkpt lat="48.8521" lon="2.40225">
        <ele>109.5</ele>
        <time>2015-01-12T20:15:49.732Z</time>
      </trkpt>
      <trkpt lat="48.85209" lon="2.40217">
        <ele>109.7</ele>
        <time>2015-01-12T20:15:50.631Z</time>
      </trkpt>
      <trkpt lat="48.85208" lon="2.40208">
        <ele>109.7</ele>
        <time>2015-01-12T20:15:51.639Z</time>
      </trkpt>
      <trkpt lat="48.85206" lon="2.40199">
        <ele>109.7</ele>
        <time>2015-01-12T20:15:52.644Z</time>
      </trkpt>
      <trkpt lat="48.85205" lon="2.40191">
        <ele>109.9</ele>
        <time>2015-01-12T20:15:53.652Z</time>
      </trkpt>
      <trkpt lat="48.85204" lon="2.40182">
        <ele>110</ele>
        <time>2015-01-12T20:15:54.663Z</time>
      </trkpt>
      <trkpt lat="48.85202" lon="2.40175">
        <ele>110</ele>
        <time>2015-01-12T20:15:55.748Z</time>
      </trkpt>
      <trkpt lat="48.85201" lon="2.40167">
        <ele>110.1</ele>
        <time>2015-01-12T20:15:56.633Z</time>
      </trkpt>
      <trkpt lat="48.85199" lon="2.40158">
        <ele>110.1</ele>
        <time>2015-01-12T20:15:57.637Z</time>
      </trkpt>
      <trkpt lat="48.85198" lon="2.40151">
        <ele>110.2</ele>
        <time>2015-01-12T20:15:58.643Z</time>
      </trkpt>
      <trkpt lat="48.85196" lon="2.40142">
        <ele>110</ele>
        <time>2015-01-12T20:15:59.666Z</time>
      </trkpt>
      <trkpt lat="48.85194" lon="2.40134">
        <ele>109.8</ele>
        <time>2015-01-12T20:16:00.703Z</time>
      </trkpt>
      <trkpt lat="48.85191" lon="2.40124">
        <ele>110.2</ele>
        <time>2015-01-12T20:16:01.752Z</time>
      </trkpt>
      <trkpt lat="48.85188" lon="2.40113">
        <ele>110.9</ele>
        <time>2015-01-12T20:16:02.717Z</time>
      </trkpt>
      <trkpt lat="48.85186" lon="2.40103">
        <ele>111.2</ele>
        <time>2015-01-12T20:16:03.639Z</time>
      </trkpt>
      <trkpt lat="48.85183" lon="2.40093">
        <ele>111.3</ele>
        <time>2015-01-12T20:16:04.650Z</time>
      </trkpt>
      <trkpt lat="48.85182" lon="2.40084">
        <ele>111.1</ele>
        <time>2015-01-12T20:16:05.656Z</time>
      </trkpt>
      <trkpt lat="48.8518" lon="2.40076">
        <ele>111</ele>
        <time>2015-01-12T20:16:06.672Z</time>
      </trkpt>
      <trkpt lat="48.85179" lon="2.40068">
        <ele>111.2</ele>
        <time>2015-01-12T20:16:07.694Z</time>
      </trkpt>
      <trkpt lat="48.85178" lon="2.4006">
        <ele>111.1</ele>
        <time>2015-01-12T20:16:08.705Z</time>
      </trkpt>
      <trkpt lat="48.85176" lon="2.40051">
        <ele>110.8</ele>
        <time>2015-01-12T20:16:09.614Z</time>
      </trkpt>
      <trkpt lat="48.85174" lon="2.40042">
        <ele>110.6</ele>
        <time>2015-01-12T20:16:10.624Z</time>
      </trkpt>
      <trkpt lat="48.85173" lon="2.40034">
        <ele>110.7</ele>
        <time>2015-01-12T20:16:11.645Z</time>
      </trkpt>
      <trkpt lat="48.85172" lon="2.40026">
        <ele>110.8</ele>
        <time>2015-01-12T20:16:12.647Z</time>
      </trkpt>
      <trkpt lat="48.85172" lon="2.40018">
        <ele>111</ele>
        <time>2015-01-12T20:16:13.669Z</time>
      </trkpt>
      <trkpt lat="48.85171" lon="2.40011">
        <ele>111</ele>
        <time>2015-01-12T20:16:14.668Z</time>
      </trkpt>
      <trkpt lat="48.85169" lon="2.40003">
        <ele>111</ele>
        <time>2015-01-12T20:16:15.611Z</time>
      </trkpt>
      <trkpt lat="48.85167" lon="2.39996">
        <ele>110.9</ele>
        <time>2015-01-12T20:16:16.639Z</time>
      </trkpt>
      <trkpt lat="48.85165" lon="2.3999">
        <ele>110.8</ele>
        <time>2015-01-12T20:16:17.686Z</time>
      </trkpt>
      <trkpt lat="48.85163" lon="2.39983">
        <ele>110.6</ele>
        <time>2015-01-12T20:16:18.694Z</time>
      </trkpt>
      <trkpt lat="48.85161" lon="2.39976">
        <ele>110.6</ele>
        <time>2015-01-12T20:16:19.721Z</time>
      </trkpt>
      <trkpt lat="48.85158" lon="2.39969">
        <ele>110.4</ele>
        <time>2015-01-12T20:16:20.659Z</time>
      </trkpt>
      <trkpt lat="48.85156" lon="2.39961">
        <ele>110.5</ele>
        <time>2015-01-12T20:16:21.625Z</time>
      </trkpt>
      <trkpt lat="48.85155" lon="2.39953">
        <ele>110.6</ele>
        <time>2015-01-12T20:16:22.625Z</time>
      </trkpt>
      <trkpt lat="48.85153" lon="2.39946">
        <ele>110.6</ele>
        <time>2015-01-12T20:16:23.702Z</time>
      </trkpt>
      <trkpt lat="48.85152" lon="2.39938">
        <ele>110.6</ele>
        <time>2015-01-12T20:16:24.739Z</time>
      </trkpt>
      <trkpt lat="48.85151" lon="2.39931">
        <ele>110.8</ele>
        <time>2015-01-12T20:16:25.769Z</time>
      </trkpt>
      <trkpt lat="48.85149" lon="2.39924">
        <ele>110.8</ele>
        <time>2015-01-12T20:16:26.647Z</time>
      </trkpt>
      <trkpt lat="48.85148" lon="2.39911">
        <ele>110.6</ele>
        <time>2015-01-12T20:16:28.725Z</time>
      </trkpt>
      <trkpt lat="48.85146" lon="2.39905">
        <ele>110.5</ele>
        <time>2015-01-12T20:16:29.751Z</time>
      </trkpt>
      <trkpt lat="48.85143" lon="2.39892">
        <ele>110.4</ele>
        <time>2015-01-12T20:16:31.702Z</time>
      </trkpt>
      <trkpt lat="48.85141" lon="2.39885">
        <ele>110.5</ele>
        <time>2015-01-12T20:16:32.703Z</time>
      </trkpt>
      <trkpt lat="48.8514" lon="2.39873">
        <ele>110.9</ele>
        <time>2015-01-12T20:16:34.633Z</time>
      </trkpt>
      <trkpt lat="48.85139" lon="2.39867">
        <ele>110.9</ele>
        <time>2015-01-12T20:16:35.633Z</time>
      </trkpt>
      <trkpt lat="48.85138" lon="2.3986">
        <ele>110.9</ele>
        <time>2015-01-12T20:16:36.677Z</time>
      </trkpt>
      <trkpt lat="48.85137" lon="2.39854">
        <ele>111.1</ele>
        <time>2015-01-12T20:16:37.686Z</time>
      </trkpt>
      <trkpt lat="48.85135" lon="2.39842">
        <ele>111.2</ele>
        <time>2015-01-12T20:16:39.729Z</time>
      </trkpt>
      <trkpt lat="48.85135" lon="2.39838">
        <ele>111.2</ele>
        <time>2015-01-12T20:16:40.638Z</time>
      </trkpt>
      <trkpt lat="48.85133" lon="2.39826">
        <ele>110.6</ele>
        <time>2015-01-12T20:16:43.685Z</time>
      </trkpt>
      <trkpt lat="48.85133" lon="2.39824">
        <ele>110</ele>
        <time>2015-01-12T20:16:44.648Z</time>
      </trkpt>
      <trkpt lat="48.85124" lon="2.39826">
        <ele>105.8</ele>
        <time>2015-01-12T20:16:48.666Z</time>
      </trkpt>
      <trkpt lat="48.85121" lon="2.39827">
        <ele>105.4</ele>
        <time>2015-01-12T20:16:49.737Z</time>
      </trkpt>
      <trkpt lat="48.85113" lon="2.39831">
        <ele>104.7</ele>
        <time>2015-01-12T20:16:52.713Z</time>
      </trkpt>
      <trkpt lat="48.8511" lon="2.39832">
        <ele>104.5</ele>
        <time>2015-01-12T20:16:53.634Z</time>
      </trkpt>
      <trkpt lat="48.85102" lon="2.39836">
        <ele>105.1</ele>
        <time>2015-01-12T20:16:56.760Z</time>
      </trkpt>
      <trkpt lat="48.85098" lon="2.39837">
        <ele>105.2</ele>
        <time>2015-01-12T20:16:57.713Z</time>
      </trkpt>
      <trkpt lat="48.8509" lon="2.3984">
        <ele>104.8</ele>
        <time>2015-01-12T20:17:00.679Z</time>
      </trkpt>
      <trkpt lat="48.85087" lon="2.39842">
        <ele>104.5</ele>
        <time>2015-01-12T20:17:01.686Z</time>
      </trkpt>
      <trkpt lat="48.8508" lon="2.39847">
        <ele>104.2</ele>
        <time>2015-01-12T20:17:03.710Z</time>
      </trkpt>
      <trkpt lat="48.85077" lon="2.39849">
        <ele>104.3</ele>
        <time>2015-01-12T20:17:04.718Z</time>
      </trkpt>
      <trkpt lat="48.8507" lon="2.39852">
        <ele>104.5</ele>
        <time>2015-01-12T20:17:06.671Z</time>
      </trkpt>
      <trkpt lat="48.85067" lon="2.39855">
        <ele>104.4</ele>
        <time>2015-01-12T20:17:07.682Z</time>
      </trkpt>
      <trkpt lat="48.8506" lon="2.39858">
        <ele>104.6</ele>
        <time>2015-01-12T20:17:09.719Z</time>
      </trkpt>
      <trkpt lat="48.85056" lon="2.3986">
        <ele>104.6</ele>
        <time>2015-01-12T20:17:10.766Z</time>
      </trkpt>
      <trkpt lat="48.85048" lon="2.39863">
        <ele>104.8</ele>
        <time>2015-01-12T20:17:12.735Z</time>
      </trkpt>
      <trkpt lat="48.85044" lon="2.39864">
        <ele>105.2</ele>
        <time>2015-01-12T20:17:13.682Z</time>
      </trkpt>
      <trkpt lat="48.85035" lon="2.39868">
        <ele>105.9</ele>
        <time>2015-01-12T20:17:16.718Z</time>
      </trkpt>
      <trkpt lat="48.85033" lon="2.39869">
        <ele>106.2</ele>
        <time>2015-01-12T20:17:17.731Z</time>
      </trkpt>
      <trkpt lat="48.85027" lon="2.3987">
        <ele>107.1</ele>
        <time>2015-01-12T20:17:20.641Z</time>
      </trkpt>
      <trkpt lat="48.85024" lon="2.39872">
        <ele>107.1</ele>
        <time>2015-01-12T20:17:21.661Z</time>
      </trkpt>
      <trkpt lat="48.85016" lon="2.39876">
        <ele>107.6</ele>
        <time>2015-01-12T20:17:24.720Z</time>
      </trkpt>
      <trkpt lat="48.85013" lon="2.39877">
        <ele>108</ele>
        <time>2015-01-12T20:17:25.987Z</time>
      </trkpt>
      <trkpt lat="48.85007" lon="2.39879">
        <ele>108.3</ele>
        <time>2015-01-12T20:17:27.666Z</time>
      </trkpt>
      <trkpt lat="48.85004" lon="2.3988">
        <ele>108.4</ele>
        <time>2015-01-12T20:17:28.675Z</time>
      </trkpt>
      <trkpt lat="48.84996" lon="2.39884">
        <ele>108.5</ele>
        <time>2015-01-12T20:17:30.630Z</time>
      </trkpt>
      <trkpt lat="48.84992" lon="2.39886">
        <ele>108.7</ele>
        <time>2015-01-12T20:17:31.712Z</time>
      </trkpt>
      <trkpt lat="48.84985" lon="2.3989">
        <ele>109.2</ele>
        <time>2015-01-12T20:17:33.645Z</time>
      </trkpt>
      <trkpt lat="48.8498" lon="2.39891">
        <ele>109.6</ele>
        <time>2015-01-12T20:17:34.751Z</time>
      </trkpt>
      <trkpt lat="48.84972" lon="2.39893">
        <ele>110.5</ele>
        <time>2015-01-12T20:17:36.671Z</time>
      </trkpt>
      <trkpt lat="48.84968" lon="2.39895">
        <ele>110.8</ele>
        <time>2015-01-12T20:17:37.735Z</time>
      </trkpt>
      <trkpt lat="48.8496" lon="2.39897">
        <ele>111.6</ele>
        <time>2015-01-12T20:17:39.707Z</time>
      </trkpt>
      <trkpt lat="48.84957" lon="2.39898">
        <ele>111.8</ele>
        <time>2015-01-12T20:17:40.712Z</time>
      </trkpt>
      <trkpt lat="48.84949" lon="2.39901">
        <ele>112.4</ele>
        <time>2015-01-12T20:17:42.650Z</time>
      </trkpt>
      <trkpt lat="48.84945" lon="2.39903">
        <ele>112.9</ele>
        <time>2015-01-12T20:17:43.747Z</time>
      </trkpt>
      <trkpt lat="48.84937" lon="2.39909">
        <ele>114.1</ele>
        <time>2015-01-12T20:17:45.640Z</time>
      </trkpt>
      <trkpt lat="48.84934" lon="2.39912">
        <ele>114.5</ele>
        <time>2015-01-12T20:17:46.752Z</time>
      </trkpt>
      <trkpt lat="48.84927" lon="2.39918">
        <ele>114.8</ele>
        <time>2015-01-12T20:17:48.638Z</time>
      </trkpt>
      <trkpt lat="48.84922" lon="2.39918">
        <ele>115</ele>
        <time>2015-01-12T20:17:49.685Z</time>
      </trkpt>
      <trkpt lat="48.84913" lon="2.3992">
        <ele>115.5</ele>
        <time>2015-01-12T20:17:51.637Z</time>
      </trkpt>
      <trkpt lat="48.84909" lon="2.39921">
        <ele>115.6</ele>
        <time>2015-01-12T20:17:52.640Z</time>
      </trkpt>
      <trkpt lat="48.84901" lon="2.39922">
        <ele>116</ele>
        <time>2015-01-12T20:17:54.727Z</time>
      </trkpt>
      <trkpt lat="48.84897" lon="2.39924">
        <ele>116</ele>
        <time>2015-01-12T20:17:55.744Z</time>
      </trkpt>
      <trkpt lat="48.84892" lon="2.39927">
        <ele>116.1</ele>
        <time>2015-01-12T20:17:56.628Z</time>
      </trkpt>
      <trkpt lat="48.84886" lon="2.3993">
        <ele>117.1</ele>
        <time>2015-01-12T20:17:57.633Z</time>
      </trkpt>
      <trkpt lat="48.84882" lon="2.39933">
        <ele>117.8</ele>
        <time>2015-01-12T20:17:58.640Z</time>
      </trkpt>
      <trkpt lat="48.84877" lon="2.39934">
        <ele>118.2</ele>
        <time>2015-01-12T20:17:59.651Z</time>
      </trkpt>
      <trkpt lat="48.84868" lon="2.39933">
        <ele>118.2</ele>
        <time>2015-01-12T20:18:01.674Z</time>
      </trkpt>
      <trkpt lat="48.84864" lon="2.39933">
        <ele>118.4</ele>
        <time>2015-01-12T20:18:02.673Z</time>
      </trkpt>
      <trkpt lat="48.84855" lon="2.39931">
        <ele>118.5</ele>
        <time>2015-01-12T20:18:04.697Z</time>
      </trkpt>
      <trkpt lat="48.8485" lon="2.3993">
        <ele>118.5</ele>
        <time>2015-01-12T20:18:05.611Z</time>
      </trkpt>
      <trkpt lat="48.84842" lon="2.39926">
        <ele>117.9</ele>
        <time>2015-01-12T20:18:07.680Z</time>
      </trkpt>
      <trkpt lat="48.84839" lon="2.39925">
        <ele>117.7</ele>
        <time>2015-01-12T20:18:08.736Z</time>
      </trkpt>
      <trkpt lat="48.8483" lon="2.39922">
        <ele>117.8</ele>
        <time>2015-01-12T20:18:11.663Z</time>
      </trkpt>
      <trkpt lat="48.84828" lon="2.39921">
        <ele>117.7</ele>
        <time>2015-01-12T20:18:12.672Z</time>
      </trkpt>
      <trkpt lat="48.84821" lon="2.39913">
        <ele>115.2</ele>
        <time>2015-01-12T20:18:17.723Z</time>
      </trkpt>
      <trkpt lat="48.8482" lon="2.39909">
        <ele>113.8</ele>
        <time>2015-01-12T20:18:18.607Z</time>
      </trkpt>
      <trkpt lat="48.84814" lon="2.39899">
        <ele>111.6</ele>
        <time>2015-01-12T20:18:22.681Z</time>
      </trkpt>
      <trkpt lat="48.84813" lon="2.39897">
        <ele>111</ele>
        <time>2015-01-12T20:18:23.708Z</time>
      </trkpt>
      <trkpt lat="48.84812" lon="2.39897">
        <ele>111.1</ele>
        <time>2015-01-12T20:18:26.696Z</time>
      </trkpt>
      <trkpt lat="48.84812" lon="2.39897">
        <ele>110.7</ele>
        <time>2015-01-12T20:18:27.714Z</time>
      </trkpt>
      <trkpt lat="48.84812" lon="2.39897">
        <ele>110.5</ele>
        <time>2015-01-12T20:18:41.637Z</time>
      </trkpt>
      <trkpt lat="48.84812" lon="2.39895">
        <ele>108.9</ele>
        <time>2015-01-12T20:18:42.889Z</time>
      </trkpt>
      <trkpt lat="48.84813" lon="2.39882">
        <ele>106.7</ele>
        <time>2015-01-12T20:18:58.762Z</time>
      </trkpt>
      <trkpt lat="48.84814" lon="2.3988">
        <ele>106.6</ele>
        <time>2015-01-12T20:18:59.791Z</time>
      </trkpt>
      <trkpt lat="48.84818" lon="2.39869">
        <ele>106.3</ele>
        <time>2015-01-12T20:19:03.769Z</time>
      </trkpt>
      <trkpt lat="48.84819" lon="2.39866">
        <ele>106.4</ele>
        <time>2015-01-12T20:19:04.646Z</time>
      </trkpt>
      <trkpt lat="48.84822" lon="2.39857">
        <ele>106</ele>
        <time>2015-01-12T20:19:06.681Z</time>
      </trkpt>
      <trkpt lat="48.84823" lon="2.39852">
        <ele>106</ele>
        <time>2015-01-12T20:19:07.768Z</time>
      </trkpt>
      <trkpt lat="48.84824" lon="2.39842">
        <ele>105.8</ele>
        <time>2015-01-12T20:19:10.047Z</time>
      </trkpt>
      <trkpt lat="48.84825" lon="2.39837">
        <ele>105.6</ele>
        <time>2015-01-12T20:19:10.656Z</time>
      </trkpt>
      <trkpt lat="48.84827" lon="2.39826">
        <ele>105.2</ele>
        <time>2015-01-12T20:19:12.695Z</time>
      </trkpt>
      <trkpt lat="48.84827" lon="2.39818">
        <ele>104.8</ele>
        <time>2015-01-12T20:19:13.738Z</time>
      </trkpt>
      <trkpt lat="48.84829" lon="2.39805">
        <ele>104.2</ele>
        <time>2015-01-12T20:19:15.642Z</time>
      </trkpt>
      <trkpt lat="48.8483" lon="2.39799">
        <ele>103.8</ele>
        <time>2015-01-12T20:19:16.681Z</time>
      </trkpt>
      <trkpt lat="48.84832" lon="2.39788">
        <ele>103.7</ele>
        <time>2015-01-12T20:19:18.727Z</time>
      </trkpt>
      <trkpt lat="48.84833" lon="2.39784">
        <ele>103.6</ele>
        <time>2015-01-12T20:19:19.743Z</time>
      </trkpt>
      <trkpt lat="48.84834" lon="2.39771">
        <ele>103.1</ele>
        <time>2015-01-12T20:19:22.691Z</time>
      </trkpt>
      <trkpt lat="48.84835" lon="2.39766">
        <ele>103</ele>
        <time>2015-01-12T20:19:23.701Z</time>
      </trkpt>
      <trkpt lat="48.84838" lon="2.39758">
        <ele>102.9</ele>
        <time>2015-01-12T20:19:25.672Z</time>
      </trkpt>
      <trkpt lat="48.84839" lon="2.39753">
        <ele>102.8</ele>
        <time>2015-01-12T20:19:26.690Z</time>
      </trkpt>
      <trkpt lat="48.84842" lon="2.39743">
        <ele>103</ele>
        <time>2015-01-12T20:19:28.621Z</time>
      </trkpt>
      <trkpt lat="48.84843" lon="2.39738">
        <ele>103.1</ele>
        <time>2015-01-12T20:19:29.624Z</time>
      </trkpt>
      <trkpt lat="48.84845" lon="2.39725">
        <ele>102.9</ele>
        <time>2015-01-12T20:19:31.702Z</time>
      </trkpt>
      <trkpt lat="48.84846" lon="2.39718">
        <ele>103</ele>
        <time>2015-01-12T20:19:32.709Z</time>
      </trkpt>
      <trkpt lat="48.84848" lon="2.39707">
        <ele>102.6</ele>
        <time>2015-01-12T20:19:34.617Z</time>
      </trkpt>
      <trkpt lat="48.8485" lon="2.39701">
        <ele>102.4</ele>
        <time>2015-01-12T20:19:35.622Z</time>
      </trkpt>
      <trkpt lat="48.84852" lon="2.39695">
        <ele>102.2</ele>
        <time>2015-01-12T20:19:36.676Z</time>
      </trkpt>
      <trkpt lat="48.84854" lon="2.39689">
        <ele>102</ele>
        <time>2015-01-12T20:19:37.684Z</time>
      </trkpt>
      <trkpt lat="48.84859" lon="2.39678">
        <ele>101.6</ele>
        <time>2015-01-12T20:19:39.700Z</time>
      </trkpt>
      <trkpt lat="48.84862" lon="2.39672">
        <ele>101.6</ele>
        <time>2015-01-12T20:19:40.717Z</time>
      </trkpt>
      <trkpt lat="48.84865" lon="2.39668">
        <ele>101.6</ele>
        <time>2015-01-12T20:19:41.646Z</time>
      </trkpt>
      <trkpt lat="48.84869" lon="2.39663">
        <ele>101.5</ele>
        <time>2015-01-12T20:19:42.666Z</time>
      </trkpt>
      <trkpt lat="48.84875" lon="2.39655">
        <ele>101.1</ele>
        <time>2015-01-12T20:19:44.647Z</time>
      </trkpt>
      <trkpt lat="48.84878" lon="2.3965">
        <ele>101.1</ele>
        <time>2015-01-12T20:19:45.651Z</time>
      </trkpt>
      <trkpt lat="48.84883" lon="2.39639">
        <ele>101.3</ele>
        <time>2015-01-12T20:19:47.673Z</time>
      </trkpt>
      <trkpt lat="48.84884" lon="2.39633">
        <ele>101.3</ele>
        <time>2015-01-12T20:19:48.687Z</time>
      </trkpt>
      <trkpt lat="48.84885" lon="2.39627">
        <ele>101.1</ele>
        <time>2015-01-12T20:19:49.738Z</time>
      </trkpt>
      <trkpt lat="48.84886" lon="2.39619">
        <ele>101</ele>
        <time>2015-01-12T20:19:50.702Z</time>
      </trkpt>
      <trkpt lat="48.84887" lon="2.39612">
        <ele>101.2</ele>
        <time>2015-01-12T20:19:51.714Z</time>
      </trkpt>
      <trkpt lat="48.84887" lon="2.39605">
        <ele>101.1</ele>
        <time>2015-01-12T20:19:52.726Z</time>
      </trkpt>
      <trkpt lat="48.84887" lon="2.39598">
        <ele>100.8</ele>
        <time>2015-01-12T20:19:53.645Z</time>
      </trkpt>
      <trkpt lat="48.84887" lon="2.39592">
        <ele>100.7</ele>
        <time>2015-01-12T20:19:54.647Z</time>
      </trkpt>
      <trkpt lat="48.84886" lon="2.39578">
        <ele>100.6</ele>
        <time>2015-01-12T20:19:56.689Z</time>
      </trkpt>
      <trkpt lat="48.84885" lon="2.39572">
        <ele>100.3</ele>
        <time>2015-01-12T20:19:57.709Z</time>
      </trkpt>
      <trkpt lat="48.84882" lon="2.39562">
        <ele>100</ele>
        <time>2015-01-12T20:19:59.637Z</time>
      </trkpt>
      <trkpt lat="48.84879" lon="2.39557">
        <ele>99.4</ele>
        <time>2015-01-12T20:20:00.635Z</time>
      </trkpt>
      <trkpt lat="48.84876" lon="2.39547">
        <ele>99.4</ele>
        <time>2015-01-12T20:20:02.693Z</time>
      </trkpt>
      <trkpt lat="48.84874" lon="2.39543">
        <ele>99.3</ele>
        <time>2015-01-12T20:20:03.617Z</time>
      </trkpt>
      <trkpt lat="48.84869" lon="2.39537">
        <ele>99.5</ele>
        <time>2015-01-12T20:20:05.906Z</time>
      </trkpt>
      <trkpt lat="48.84866" lon="2.39535">
        <ele>99.6</ele>
        <time>2015-01-12T20:20:06.695Z</time>
      </trkpt>
      <trkpt lat="48.8486" lon="2.39534">
        <ele>100</ele>
        <time>2015-01-12T20:20:08.714Z</time>
      </trkpt>
      <trkpt lat="48.84856" lon="2.39534">
        <ele>99.9</ele>
        <time>2015-01-12T20:20:09.723Z</time>
      </trkpt>
      <trkpt lat="48.8485" lon="2.39534">
        <ele>99.7</ele>
        <time>2015-01-12T20:20:11.645Z</time>
      </trkpt>
      <trkpt lat="48.84847" lon="2.39534">
        <ele>99.6</ele>
        <time>2015-01-12T20:20:12.692Z</time>
      </trkpt>
      <trkpt lat="48.84839" lon="2.39537">
        <ele>98.9</ele>
        <time>2015-01-12T20:20:14.704Z</time>
      </trkpt>
      <trkpt lat="48.84835" lon="2.39538">
        <ele>98.4</ele>
        <time>2015-01-12T20:20:15.744Z</time>
      </trkpt>
      <trkpt lat="48.84829" lon="2.3954">
        <ele>98</ele>
        <time>2015-01-12T20:20:16.683Z</time>
      </trkpt>
      <trkpt lat="48.84824" lon="2.39542">
        <ele>97.5</ele>
        <time>2015-01-12T20:20:17.696Z</time>
      </trkpt>
      <trkpt lat="48.8482" lon="2.39545">
        <ele>97.2</ele>
        <time>2015-01-12T20:20:18.707Z</time>
      </trkpt>
      <trkpt lat="48.84816" lon="2.39549">
        <ele>96.9</ele>
        <time>2015-01-12T20:20:19.716Z</time>
      </trkpt>
      <trkpt lat="48.84809" lon="2.39557">
        <ele>96.8</ele>
        <time>2015-01-12T20:20:21.736Z</time>
      </trkpt>
      <trkpt lat="48.84807" lon="2.39563">
        <ele>96.8</ele>
        <time>2015-01-12T20:20:22.751Z</time>
      </trkpt>
      <trkpt lat="48.84804" lon="2.39574">
        <ele>96.8</ele>
        <time>2015-01-12T20:20:24.647Z</time>
      </trkpt>
      <trkpt lat="48.84804" lon="2.3958">
        <ele>96.9</ele>
        <time>2015-01-12T20:20:25.717Z</time>
      </trkpt>
      <trkpt lat="48.84804" lon="2.39594">
        <ele>96.9</ele>
        <time>2015-01-12T20:20:27.622Z</time>
      </trkpt>
      <trkpt lat="48.84803" lon="2.396">
        <ele>96.3</ele>
        <time>2015-01-12T20:20:28.625Z</time>
      </trkpt>
      <trkpt lat="48.84805" lon="2.39612">
        <ele>96.2</ele>
        <time>2015-01-12T20:20:31.150Z</time>
      </trkpt>
      <trkpt lat="48.84806" lon="2.39619">
        <ele>96</ele>
        <time>2015-01-12T20:20:31.689Z</time>
      </trkpt>
      <trkpt lat="48.84808" lon="2.39631">
        <ele>95.8</ele>
        <time>2015-01-12T20:20:33.697Z</time>
      </trkpt>
      <trkpt lat="48.8481" lon="2.39637">
        <ele>95.8</ele>
        <time>2015-01-12T20:20:34.716Z</time>
      </trkpt>
      <trkpt lat="48.84812" lon="2.39649">
        <ele>95.9</ele>
        <time>2015-01-12T20:20:36.651Z</time>
      </trkpt>
      <trkpt lat="48.84814" lon="2.39655">
        <ele>95.7</ele>
        <time>2015-01-12T20:20:37.686Z</time>
      </trkpt>
      <trkpt lat="48.84815" lon="2.39667">
        <ele>95.8</ele>
        <time>2015-01-12T20:20:39.712Z</time>
      </trkpt>
      <trkpt lat="48.84817" lon="2.39673">
        <ele>95.8</ele>
        <time>2015-01-12T20:20:40.689Z</time>
      </trkpt>
      <trkpt lat="48.84818" lon="2.39685">
        <ele>96</ele>
        <time>2015-01-12T20:20:42.674Z</time>
      </trkpt>
      <trkpt lat="48.84818" lon="2.39691">
        <ele>96.1</ele>
        <time>2015-01-12T20:20:43.730Z</time>
      </trkpt>
      <trkpt lat="48.84818" lon="2.39702">
        <ele>96.4</ele>
        <time>2015-01-12T20:20:46.380Z</time>
      </trkpt>
      <trkpt lat="48.84818" lon="2.39707">
        <ele>96.7</ele>
        <time>2015-01-12T20:20:46.678Z</time>
      </trkpt>
      <trkpt lat="48.84819" lon="2.39718">
        <ele>96.8</ele>
        <time>2015-01-12T20:20:49.589Z</time>
      </trkpt>
      <trkpt lat="48.84818" lon="2.39722">
        <ele>96.8</ele>
        <time>2015-01-12T20:20:49.736Z</time>
      </trkpt>
      <trkpt lat="48.84814" lon="2.39733">
        <ele>97.5</ele>
        <time>2015-01-12T20:20:52.683Z</time>
      </trkpt>
      <trkpt lat="48.8481" lon="2.39742">
        <ele>99</ele>
        <time>2015-01-12T20:20:53.821Z</time>
      </trkpt>
      <trkpt lat="48.84806" lon="2.39752">
        <ele>99.3</ele>
        <time>2015-01-12T20:20:55.707Z</time>
      </trkpt>
      <trkpt lat="48.84805" lon="2.39757">
        <ele>99.6</ele>
        <time>2015-01-12T20:20:56.803Z</time>
      </trkpt>
      <trkpt lat="48.84802" lon="2.39768">
        <ele>99.8</ele>
        <time>2015-01-12T20:20:58.651Z</time>
      </trkpt>
      <trkpt lat="48.84801" lon="2.39774">
        <ele>99.9</ele>
        <time>2015-01-12T20:20:59.754Z</time>
      </trkpt>
      <trkpt lat="48.84799" lon="2.39786">
        <ele>99.5</ele>
        <time>2015-01-12T20:21:02.708Z</time>
      </trkpt>
      <trkpt lat="48.84798" lon="2.39791">
        <ele>99.7</ele>
        <time>2015-01-12T20:21:03.713Z</time>
      </trkpt>
      <trkpt lat="48.84794" lon="2.39802">
        <ele>99.8</ele>
        <time>2015-01-12T20:21:05.622Z</time>
      </trkpt>
      <trkpt lat="48.84792" lon="2.39808">
        <ele>100</ele>
        <time>2015-01-12T20:21:06.637Z</time>
      </trkpt>
      <trkpt lat="48.84785" lon="2.39816">
        <ele>100</ele>
        <time>2015-01-12T20:21:08.683Z</time>
      </trkpt>
      <trkpt lat="48.84782" lon="2.39818">
        <ele>99.9</ele>
        <time>2015-01-12T20:21:09.697Z</time>
      </trkpt>
      <trkpt lat="48.84773" lon="2.39816">
        <ele>99.7</ele>
        <time>2015-01-12T20:21:11.718Z</time>
      </trkpt>
      <trkpt lat="48.84769" lon="2.39816">
        <ele>99.8</ele>
        <time>2015-01-12T20:21:12.736Z</time>
      </trkpt>
      <trkpt lat="48.84762" lon="2.3982">
        <ele>100.2</ele>
        <time>2015-01-12T20:21:15.624Z</time>
      </trkpt>
      <trkpt lat="48.84759" lon="2.3982">
        <ele>100.3</ele>
        <time>2015-01-12T20:21:16.646Z</time>
      </trkpt>
      <trkpt lat="48.84755" lon="2.39822">
        <ele>100.6</ele>
        <time>2015-01-12T20:21:18.620Z</time>
      </trkpt>
      <trkpt lat="48.8475" lon="2.39822">
        <ele>101</ele>
        <time>2015-01-12T20:21:19.682Z</time>
      </trkpt>
      <trkpt lat="48.84742" lon="2.39826">
        <ele>101.4</ele>
        <time>2015-01-12T20:21:23.753Z</time>
      </trkpt>
      <trkpt lat="48.84741" lon="2.39827">
        <ele>101.6</ele>
        <time>2015-01-12T20:21:24.667Z</time>
      </trkpt>
      <trkpt lat="48.84732" lon="2.39828">
        <ele>102.2</ele>
        <time>2015-01-12T20:21:28.638Z</time>
      </trkpt>
      <trkpt lat="48.84731" lon="2.39828">
        <ele>102.2</ele>
        <time>2015-01-12T20:21:29.635Z</time>
      </trkpt>
      <trkpt lat="48.84723" lon="2.39832">
        <ele>102.9</ele>
        <time>2015-01-12T20:21:35.519Z</time>
      </trkpt>
      <trkpt lat="48.84721" lon="2.39832">
        <ele>103</ele>
        <time>2015-01-12T20:21:35.605Z</time>
      </trkpt>
      <trkpt lat="48.84714" lon="2.39837">
        <ele>103</ele>
        <time>2015-01-12T20:21:38.677Z</time>
      </trkpt>
      <trkpt lat="48.84711" lon="2.39839">
        <ele>103</ele>
        <time>2015-01-12T20:21:39.685Z</time>
      </trkpt>
      <trkpt lat="48.84703" lon="2.39841">
        <ele>103.1</ele>
        <time>2015-01-12T20:21:41.696Z</time>
      </trkpt>
      <trkpt lat="48.847" lon="2.39842">
        <ele>103</ele>
        <time>2015-01-12T20:21:42.700Z</time>
      </trkpt>
      <trkpt lat="48.84693" lon="2.39841">
        <ele>103.1</ele>
        <time>2015-01-12T20:21:45.729Z</time>
      </trkpt>
      <trkpt lat="48.8469" lon="2.39843">
        <ele>103.3</ele>
        <time>2015-01-12T20:21:45.768Z</time>
      </trkpt>
      <trkpt lat="48.84684" lon="2.39847">
        <ele>103.5</ele>
        <time>2015-01-12T20:21:47.620Z</time>
      </trkpt>
      <trkpt lat="48.84681" lon="2.39849">
        <ele>103.6</ele>
        <time>2015-01-12T20:21:48.654Z</time>
      </trkpt>
      <trkpt lat="48.84675" lon="2.39853">
        <ele>103.6</ele>
        <time>2015-01-12T20:21:50.686Z</time>
      </trkpt>
      <trkpt lat="48.8467" lon="2.39853">
        <ele>103.2</ele>
        <time>2015-01-12T20:21:51.699Z</time>
      </trkpt>
      <trkpt lat="48.84665" lon="2.39853">
        <ele>103.1</ele>
        <time>2015-01-12T20:21:52.620Z</time>
      </trkpt>
      <trkpt lat="48.84661" lon="2.39853">
        <ele>103.5</ele>
        <time>2015-01-12T20:21:53.625Z</time>
      </trkpt>
      <trkpt lat="48.84653" lon="2.39853">
        <ele>103.6</ele>
        <time>2015-01-12T20:21:55.656Z</time>
      </trkpt>
      <trkpt lat="48.8465" lon="2.39854">
        <ele>103.8</ele>
        <time>2015-01-12T20:21:56.671Z</time>
      </trkpt>
      <trkpt lat="48.84644" lon="2.39858">
        <ele>103.8</ele>
        <time>2015-01-12T20:21:58.624Z</time>
      </trkpt>
      <trkpt lat="48.84641" lon="2.3986">
        <ele>103.7</ele>
        <time>2015-01-12T20:21:59.648Z</time>
      </trkpt>
      <trkpt lat="48.84635" lon="2.39867">
        <ele>103.7</ele>
        <time>2015-01-12T20:22:01.716Z</time>
      </trkpt>
      <trkpt lat="48.84632" lon="2.3987">
        <ele>103.7</ele>
        <time>2015-01-12T20:22:02.609Z</time>
      </trkpt>
      <trkpt lat="48.84627" lon="2.39871">
        <ele>103.8</ele>
        <time>2015-01-12T20:22:03.613Z</time>
      </trkpt>
      <trkpt lat="48.84622" lon="2.39873">
        <ele>104.1</ele>
        <time>2015-01-12T20:22:04.619Z</time>
      </trkpt>
      <trkpt lat="48.84615" lon="2.39879">
        <ele>104.6</ele>
        <time>2015-01-12T20:22:06.603Z</time>
      </trkpt>
      <trkpt lat="48.84611" lon="2.39881">
        <ele>104.8</ele>
        <time>2015-01-12T20:22:07.698Z</time>
      </trkpt>
      <trkpt lat="48.84605" lon="2.39881">
        <ele>105.2</ele>
        <time>2015-01-12T20:22:08.681Z</time>
      </trkpt>
      <trkpt lat="48.846" lon="2.39882">
        <ele>105.5</ele>
        <time>2015-01-12T20:22:09.687Z</time>
      </trkpt>
      <trkpt lat="48.84591" lon="2.39882">
        <ele>105.9</ele>
        <time>2015-01-12T20:22:11.618Z</time>
      </trkpt>
      <trkpt lat="48.84587" lon="2.39883">
        <ele>106.1</ele>
        <time>2015-01-12T20:22:12.660Z</time>
      </trkpt>
      <trkpt lat="48.84579" lon="2.39887">
        <ele>106.7</ele>
        <time>2015-01-12T20:22:15.108Z</time>
      </trkpt>
      <trkpt lat="48.84576" lon="2.3989">
        <ele>107.1</ele>
        <time>2015-01-12T20:22:15.620Z</time>
      </trkpt>
      <trkpt lat="48.8457" lon="2.39894">
        <ele>107.7</ele>
        <time>2015-01-12T20:22:18.704Z</time>
      </trkpt>
      <trkpt lat="48.84567" lon="2.39895">
        <ele>107.8</ele>
        <time>2015-01-12T20:22:19.670Z</time>
      </trkpt>
      <trkpt lat="48.8456" lon="2.39903">
        <ele>108</ele>
        <time>2015-01-12T20:22:23.622Z</time>
      </trkpt>
      <trkpt lat="48.8456" lon="2.39904">
        <ele>107.8</ele>
        <time>2015-01-12T20:22:24.631Z</time>
      </trkpt>
      <trkpt lat="48.84552" lon="2.39909">
        <ele>108.1</ele>
        <time>2015-01-12T20:22:30.640Z</time>
      </trkpt>
      <trkpt lat="48.84551" lon="2.39908">
        <ele>107.5</ele>
        <time>2015-01-12T20:22:31.661Z</time>
      </trkpt>
      <trkpt lat="48.84548" lon="2.39897">
        <ele>104.8</ele>
        <time>2015-01-12T20:22:35.661Z</time>
      </trkpt>
      <trkpt lat="48.84547" lon="2.39893">
        <ele>104.9</ele>
        <time>2015-01-12T20:22:36.681Z</time>
      </trkpt>
      <trkpt lat="48.84544" lon="2.39885">
        <ele>104.7</ele>
        <time>2015-01-12T20:22:39.702Z</time>
      </trkpt>
      <trkpt lat="48.8454" lon="2.39881">
        <ele>105.5</ele>
        <time>2015-01-12T20:22:40.622Z</time>
      </trkpt>
      <trkpt lat="48.84536" lon="2.39872">
        <ele>107.1</ele>
        <time>2015-01-12T20:22:42.623Z</time>
      </trkpt>
      <trkpt lat="48.84536" lon="2.39868">
        <ele>107.6</ele>
        <time>2015-01-12T20:22:43.653Z</time>
      </trkpt>
      <trkpt lat="48.84536" lon="2.39857">
        <ele>108.6</ele>
        <time>2015-01-12T20:22:46.621Z</time>
      </trkpt>
      <trkpt lat="48.84537" lon="2.39852">
        <ele>109</ele>
        <time>2015-01-12T20:22:47.622Z</time>
      </trkpt>
      <trkpt lat="48.84535" lon="2.39841">
        <ele>109.7</ele>
        <time>2015-01-12T20:22:49.656Z</time>
      </trkpt>
      <trkpt lat="48.84535" lon="2.39837">
        <ele>109.9</ele>
        <time>2015-01-12T20:22:50.676Z</time>
      </trkpt>
      <trkpt lat="48.84534" lon="2.39826">
        <ele>110.2</ele>
        <time>2015-01-12T20:22:52.705Z</time>
      </trkpt>
      <trkpt lat="48.84533" lon="2.39819">
        <ele>110.2</ele>
        <time>2015-01-12T20:22:53.717Z</time>
      </trkpt>
      <trkpt lat="48.84533" lon="2.39807">
        <ele>110.5</ele>
        <time>2015-01-12T20:22:55.694Z</time>
      </trkpt>
      <trkpt lat="48.84533" lon="2.39803">
        <ele>110.5</ele>
        <time>2015-01-12T20:22:56.684Z</time>
      </trkpt>
      <trkpt lat="48.84535" lon="2.39792">
        <ele>109.4</ele>
        <time>2015-01-12T20:22:59.796Z</time>
      </trkpt>
      <trkpt lat="48.84536" lon="2.39788">
        <ele>108.9</ele>
        <time>2015-01-12T20:23:00.737Z</time>
      </trkpt>
      <trkpt lat="48.84537" lon="2.39778">
        <ele>108.2</ele>
        <time>2015-01-12T20:23:02.656Z</time>
      </trkpt>
      <trkpt lat="48.84539" lon="2.39773">
        <ele>108.1</ele>
        <time>2015-01-12T20:23:03.671Z</time>
      </trkpt>
      <trkpt lat="48.84541" lon="2.39761">
        <ele>107.5</ele>
        <time>2015-01-12T20:23:05.693Z</time>
      </trkpt>
      <trkpt lat="48.84543" lon="2.39755">
        <ele>107.3</ele>
        <time>2015-01-12T20:23:06.621Z</time>
      </trkpt>
      <trkpt lat="48.84544" lon="2.39748">
        <ele>106.9</ele>
        <time>2015-01-12T20:23:07.666Z</time>
      </trkpt>
      <trkpt lat="48.84547" lon="2.39739">
        <ele>105.5</ele>
        <time>2015-01-12T20:23:08.674Z</time>
      </trkpt>
      <trkpt lat="48.8455" lon="2.3973">
        <ele>104.2</ele>
        <time>2015-01-12T20:23:09.940Z</time>
      </trkpt>
      <trkpt lat="48.84553" lon="2.39722">
        <ele>103.2</ele>
        <time>2015-01-12T20:23:10.619Z</time>
      </trkpt>
      <trkpt lat="48.84555" lon="2.39715">
        <ele>102.8</ele>
        <time>2015-01-12T20:23:11.652Z</time>
      </trkpt>
      <trkpt lat="48.84557" lon="2.3971">
        <ele>102.5</ele>
        <time>2015-01-12T20:23:12.683Z</time>
      </trkpt>
      <trkpt lat="48.84558" lon="2.39699">
        <ele>101</ele>
        <time>2015-01-12T20:23:13.702Z</time>
      </trkpt>
      <trkpt lat="48.8456" lon="2.39689">
        <ele>99.9</ele>
        <time>2015-01-12T20:23:14.706Z</time>
      </trkpt>
      <trkpt lat="48.84561" lon="2.39681">
        <ele>99.1</ele>
        <time>2015-01-12T20:23:15.722Z</time>
      </trkpt>
      <trkpt lat="48.84563" lon="2.39672">
        <ele>98.5</ele>
        <time>2015-01-12T20:23:16.624Z</time>
      </trkpt>
      <trkpt lat="48.84563" lon="2.39663">
        <ele>98.8</ele>
        <time>2015-01-12T20:23:17.656Z</time>
      </trkpt>
      <trkpt lat="48.84562" lon="2.39651">
        <ele>98.6</ele>
        <time>2015-01-12T20:23:18.659Z</time>
      </trkpt>
      <trkpt lat="48.84563" lon="2.39642">
        <ele>98.1</ele>
        <time>2015-01-12T20:23:20.127Z</time>
      </trkpt>
      <trkpt lat="48.84563" lon="2.39632">
        <ele>97.9</ele>
        <time>2015-01-12T20:23:20.678Z</time>
      </trkpt>
      <trkpt lat="48.84563" lon="2.39622">
        <ele>98.2</ele>
        <time>2015-01-12T20:23:21.683Z</time>
      </trkpt>
      <trkpt lat="48.84562" lon="2.39612">
        <ele>98.4</ele>
        <time>2015-01-12T20:23:22.689Z</time>
      </trkpt>
      <trkpt lat="48.84562" lon="2.39602">
        <ele>98.6</ele>
        <time>2015-01-12T20:23:23.706Z</time>
      </trkpt>
      <trkpt lat="48.84562" lon="2.39594">
        <ele>98.5</ele>
        <time>2015-01-12T20:23:24.663Z</time>
      </trkpt>
      <trkpt lat="48.84563" lon="2.39587">
        <ele>98.1</ele>
        <time>2015-01-12T20:23:25.736Z</time>
      </trkpt>
      <trkpt lat="48.84563" lon="2.39578">
        <ele>98.1</ele>
        <time>2015-01-12T20:23:26.619Z</time>
      </trkpt>
      <trkpt lat="48.84563" lon="2.39569">
        <ele>99</ele>
        <time>2015-01-12T20:23:27.651Z</time>
      </trkpt>
      <trkpt lat="48.84562" lon="2.39559">
        <ele>100</ele>
        <time>2015-01-12T20:23:28.665Z</time>
      </trkpt>
      <trkpt lat="48.84561" lon="2.39551">
        <ele>100.9</ele>
        <time>2015-01-12T20:23:29.673Z</time>
      </trkpt>
      <trkpt lat="48.84559" lon="2.3954">
        <ele>101.9</ele>
        <time>2015-01-12T20:23:30.682Z</time>
      </trkpt>
      <trkpt lat="48.84556" lon="2.39526">
        <ele>103.7</ele>
        <time>2015-01-12T20:23:31.686Z</time>
      </trkpt>
      <trkpt lat="48.84554" lon="2.39515">
        <ele>105.2</ele>
        <time>2015-01-12T20:23:32.691Z</time>
      </trkpt>
      <trkpt lat="48.84555" lon="2.39509">
        <ele>105.5</ele>
        <time>2015-01-12T20:23:33.620Z</time>
      </trkpt>
      <trkpt lat="48.84559" lon="2.39502">
        <ele>105.9</ele>
        <time>2015-01-12T20:23:35.613Z</time>
      </trkpt>
      <trkpt lat="48.84561" lon="2.39499">
        <ele>106.2</ele>
        <time>2015-01-12T20:23:36.625Z</time>
      </trkpt>
      <trkpt lat="48.84568" lon="2.39494">
        <ele>106.9</ele>
        <time>2015-01-12T20:23:38.623Z</time>
      </trkpt>
      <trkpt lat="48.84572" lon="2.39492">
        <ele>107.1</ele>
        <time>2015-01-12T20:23:39.637Z</time>
      </trkpt>
      <trkpt lat="48.84576" lon="2.3949">
        <ele>107.5</ele>
        <time>2015-01-12T20:23:40.664Z</time>
      </trkpt>
      <trkpt lat="48.84581" lon="2.39489">
        <ele>107.6</ele>
        <time>2015-01-12T20:23:41.668Z</time>
      </trkpt>
      <trkpt lat="48.84588" lon="2.39481">
        <ele>108</ele>
        <time>2015-01-12T20:23:43.695Z</time>
      </trkpt>
      <trkpt lat="48.8459" lon="2.39479">
        <ele>108.2</ele>
        <time>2015-01-12T20:23:44.781Z</time>
      </trkpt>
      <trkpt lat="48.84596" lon="2.39475">
        <ele>108.6</ele>
        <time>2015-01-12T20:23:46.658Z</time>
      </trkpt>
      <trkpt lat="48.846" lon="2.39473">
        <ele>108.6</ele>
        <time>2015-01-12T20:23:47.702Z</time>
      </trkpt>
      <trkpt lat="48.84606" lon="2.39471">
        <ele>108.7</ele>
        <time>2015-01-12T20:23:49.649Z</time>
      </trkpt>
      <trkpt lat="48.84609" lon="2.3947">
        <ele>108.8</ele>
        <time>2015-01-12T20:23:50.650Z</time>
      </trkpt>
      <trkpt lat="48.84618" lon="2.3947">
        <ele>109.1</ele>
        <time>2015-01-12T20:23:53.712Z</time>
      </trkpt>
      <trkpt lat="48.84622" lon="2.39469">
        <ele>109.2</ele>
        <time>2015-01-12T20:23:54.625Z</time>
      </trkpt>
      <trkpt lat="48.84628" lon="2.39466">
        <ele>109.3</ele>
        <time>2015-01-12T20:23:55.722Z</time>
      </trkpt>
      <trkpt lat="48.84632" lon="2.39464">
        <ele>109.3</ele>
        <time>2015-01-12T20:23:56.723Z</time>
      </trkpt>
      <trkpt lat="48.84636" lon="2.39461">
        <ele>109.3</ele>
        <time>2015-01-12T20:23:57.605Z</time>
      </trkpt>
      <trkpt lat="48.8464" lon="2.39458">
        <ele>109.4</ele>
        <time>2015-01-12T20:23:58.621Z</time>
      </trkpt>
      <trkpt lat="48.84644" lon="2.39455">
        <ele>109.5</ele>
        <time>2015-01-12T20:23:59.636Z</time>
      </trkpt>
      <trkpt lat="48.84649" lon="2.39451">
        <ele>109.6</ele>
        <time>2015-01-12T20:24:00.643Z</time>
      </trkpt>
      <trkpt lat="48.84653" lon="2.39448">
        <ele>109.7</ele>
        <time>2015-01-12T20:24:01.665Z</time>
      </trkpt>
      <trkpt lat="48.84658" lon="2.39446">
        <ele>109.9</ele>
        <time>2015-01-12T20:24:02.659Z</time>
      </trkpt>
      <trkpt lat="48.84662" lon="2.39444">
        <ele>109.9</ele>
        <time>2015-01-12T20:24:03.669Z</time>
      </trkpt>
      <trkpt lat="48.84666" lon="2.39441">
        <ele>110.1</ele>
        <time>2015-01-12T20:24:04.687Z</time>
      </trkpt>
      <trkpt lat="48.84671" lon="2.39439">
        <ele>110.2</ele>
        <time>2015-01-12T20:24:06.271Z</time>
      </trkpt>
      <trkpt lat="48.84676" lon="2.39436">
        <ele>110.3</ele>
        <time>2015-01-12T20:24:06.601Z</time>
      </trkpt>
      <trkpt lat="48.84682" lon="2.39431">
        <ele>110.9</ele>
        <time>2015-01-12T20:24:07.652Z</time>
      </trkpt>
      <trkpt lat="48.84689" lon="2.39429">
        <ele>111</ele>
        <time>2015-01-12T20:24:08.667Z</time>
      </trkpt>
      <trkpt lat="48.84695" lon="2.39428">
        <ele>111.1</ele>
        <time>2015-01-12T20:24:09.677Z</time>
      </trkpt>
      <trkpt lat="48.84701" lon="2.39426">
        <ele>111.2</ele>
        <time>2015-01-12T20:24:10.689Z</time>
      </trkpt>
      <trkpt lat="48.84706" lon="2.39423">
        <ele>111.3</ele>
        <time>2015-01-12T20:24:11.709Z</time>
      </trkpt>
      <trkpt lat="48.8471" lon="2.39417">
        <ele>111.8</ele>
        <time>2015-01-12T20:24:12.728Z</time>
      </trkpt>
      <trkpt lat="48.84711" lon="2.39405">
        <ele>113</ele>
        <time>2015-01-12T20:24:14.637Z</time>
      </trkpt>
      <trkpt lat="48.8471" lon="2.394">
        <ele>113.1</ele>
        <time>2015-01-12T20:24:15.643Z</time>
      </trkpt>
      <trkpt lat="48.84717" lon="2.39391">
        <ele>113.4</ele>
        <time>2015-01-12T20:24:18.614Z</time>
      </trkpt>
      <trkpt lat="48.8472" lon="2.39383">
        <ele>111.2</ele>
        <time>2015-01-12T20:24:19.672Z</time>
      </trkpt>
      <trkpt lat="48.84725" lon="2.39374">
        <ele>109.2</ele>
        <time>2015-01-12T20:24:20.675Z</time>
      </trkpt>
      <trkpt lat="48.84728" lon="2.3937">
        <ele>109.1</ele>
        <time>2015-01-12T20:24:21.685Z</time>
      </trkpt>
      <trkpt lat="48.84732" lon="2.39367">
        <ele>109.2</ele>
        <time>2015-01-12T20:24:22.786Z</time>
      </trkpt>
      <trkpt lat="48.84736" lon="2.39362">
        <ele>109.5</ele>
        <time>2015-01-12T20:24:23.690Z</time>
      </trkpt>
      <trkpt lat="48.84739" lon="2.39358">
        <ele>109.6</ele>
        <time>2015-01-12T20:24:24.712Z</time>
      </trkpt>
      <trkpt lat="48.84743" lon="2.39353">
        <ele>109.7</ele>
        <time>2015-01-12T20:24:25.721Z</time>
      </trkpt>
      <trkpt lat="48.84746" lon="2.39348">
        <ele>110.2</ele>
        <time>2015-01-12T20:24:26.636Z</time>
      </trkpt>
      <trkpt lat="48.8475" lon="2.39344">
        <ele>110.5</ele>
        <time>2015-01-12T20:24:27.655Z</time>
      </trkpt>
      <trkpt lat="48.84757" lon="2.39335">
        <ele>111</ele>
        <time>2015-01-12T20:24:29.676Z</time>
      </trkpt>
      <trkpt lat="48.84762" lon="2.39331">
        <ele>111.6</ele>
        <time>2015-01-12T20:24:30.709Z</time>
      </trkpt>
      <trkpt lat="48.84767" lon="2.39325">
        <ele>111.8</ele>
        <time>2015-01-12T20:24:32.676Z</time>
      </trkpt>
      <trkpt lat="48.8477" lon="2.39323">
        <ele>111.9</ele>
        <time>2015-01-12T20:24:33.750Z</time>
      </trkpt>
      <trkpt lat="48.84777" lon="2.39316">
        <ele>111.9</ele>
        <time>2015-01-12T20:24:35.615Z</time>
      </trkpt>
      <trkpt lat="48.8478" lon="2.39311">
        <ele>111.5</ele>
        <time>2015-01-12T20:24:36.714Z</time>
      </trkpt>
      <trkpt lat="48.84786" lon="2.39301">
        <ele>109.7</ele>
        <time>2015-01-12T20:24:38.609Z</time>
      </trkpt>
      <trkpt lat="48.84788" lon="2.39299">
        <ele>109.5</ele>
        <time>2015-01-12T20:24:39.631Z</time>
      </trkpt>
      <trkpt lat="48.84796" lon="2.39293">
        <ele>109.4</ele>
        <time>2015-01-12T20:24:43.747Z</time>
      </trkpt>
      <trkpt lat="48.84797" lon="2.39291">
        <ele>109.6</ele>
        <time>2015-01-12T20:24:44.635Z</time>
      </trkpt>
      <trkpt lat="48.84805" lon="2.39286">
        <ele>110.1</ele>
        <time>2015-01-12T20:24:48.655Z</time>
      </trkpt>
      <trkpt lat="48.84809" lon="2.39287">
        <ele>110.3</ele>
        <time>2015-01-12T20:24:49.676Z</time>
      </trkpt>
      <trkpt lat="48.84814" lon="2.39287">
        <ele>110.5</ele>
        <time>2015-01-12T20:24:50.712Z</time>
      </trkpt>
      <trkpt lat="48.84818" lon="2.39285">
        <ele>110.4</ele>
        <time>2015-01-12T20:24:51.620Z</time>
      </trkpt>
      <trkpt lat="48.84823" lon="2.39282">
        <ele>110.4</ele>
        <time>2015-01-12T20:24:52.635Z</time>
      </trkpt>
      <trkpt lat="48.84827" lon="2.39279">
        <ele>110.4</ele>
        <time>2015-01-12T20:24:53.646Z</time>
      </trkpt>
      <trkpt lat="48.84832" lon="2.39274">
        <ele>109.9</ele>
        <time>2015-01-12T20:24:54.660Z</time>
      </trkpt>
      <trkpt lat="48.84839" lon="2.39266">
        <ele>108</ele>
        <time>2015-01-12T20:24:55.681Z</time>
      </trkpt>
      <trkpt lat="48.84844" lon="2.39259">
        <ele>106.7</ele>
        <time>2015-01-12T20:24:56.692Z</time>
      </trkpt>
      <trkpt lat="48.8485" lon="2.39252">
        <ele>105.2</ele>
        <time>2015-01-12T20:24:57.699Z</time>
      </trkpt>
      <trkpt lat="48.84856" lon="2.39246">
        <ele>104.8</ele>
        <time>2015-01-12T20:24:59.708Z</time>
      </trkpt>
      <trkpt lat="48.84859" lon="2.39242">
        <ele>104.7</ele>
        <time>2015-01-12T20:25:00.621Z</time>
      </trkpt>
      <trkpt lat="48.84862" lon="2.39238">
        <ele>104.5</ele>
        <time>2015-01-12T20:25:01.675Z</time>
      </trkpt>
      <trkpt lat="48.84866" lon="2.39232">
        <ele>103.6</ele>
        <time>2015-01-12T20:25:02.674Z</time>
      </trkpt>
      <trkpt lat="48.8487" lon="2.39229">
        <ele>103.4</ele>
        <time>2015-01-12T20:25:03.735Z</time>
      </trkpt>
      <trkpt lat="48.84875" lon="2.39223">
        <ele>102.5</ele>
        <time>2015-01-12T20:25:04.685Z</time>
      </trkpt>
      <trkpt lat="48.84879" lon="2.39218">
        <ele>101.8</ele>
        <time>2015-01-12T20:25:05.725Z</time>
      </trkpt>
      <trkpt lat="48.84883" lon="2.39213">
        <ele>101.3</ele>
        <time>2015-01-12T20:25:06.638Z</time>
      </trkpt>
      <trkpt lat="48.8489" lon="2.39206">
        <ele>100.8</ele>
        <time>2015-01-12T20:25:08.736Z</time>
      </trkpt>
      <trkpt lat="48.84892" lon="2.39202">
        <ele>100.8</ele>
        <time>2015-01-12T20:25:09.659Z</time>
      </trkpt>
      <trkpt lat="48.84898" lon="2.39195">
        <ele>101.1</ele>
        <time>2015-01-12T20:25:11.661Z</time>
      </trkpt>
      <trkpt lat="48.84901" lon="2.39191">
        <ele>101.1</ele>
        <time>2015-01-12T20:25:12.786Z</time>
      </trkpt>
      <trkpt lat="48.84908" lon="2.39186">
        <ele>101.3</ele>
        <time>2015-01-12T20:25:14.633Z</time>
      </trkpt>
      <trkpt lat="48.84912" lon="2.39184">
        <ele>101.5</ele>
        <time>2015-01-12T20:25:15.649Z</time>
      </trkpt>
      <trkpt lat="48.84921" lon="2.39182">
        <ele>101.9</ele>
        <time>2015-01-12T20:25:17.733Z</time>
      </trkpt>
      <trkpt lat="48.84925" lon="2.39179">
        <ele>102.1</ele>
        <time>2015-01-12T20:25:18.661Z</time>
      </trkpt>
      <trkpt lat="48.84929" lon="2.39176">
        <ele>102.3</ele>
        <time>2015-01-12T20:25:19.685Z</time>
      </trkpt>
      <trkpt lat="48.84934" lon="2.39172">
        <ele>102.5</ele>
        <time>2015-01-12T20:25:20.598Z</time>
      </trkpt>
      <trkpt lat="48.84942" lon="2.39167">
        <ele>102.7</ele>
        <time>2015-01-12T20:25:22.645Z</time>
      </trkpt>
      <trkpt lat="48.84943" lon="2.39158">
        <ele>104.2</ele>
        <time>2015-01-12T20:25:23.657Z</time>
      </trkpt>
      <trkpt lat="48.84946" lon="2.39152">
        <ele>105.1</ele>
        <time>2015-01-12T20:25:24.673Z</time>
      </trkpt>
      <trkpt lat="48.84951" lon="2.39149">
        <ele>105.3</ele>
        <time>2015-01-12T20:25:25.676Z</time>
      </trkpt>
      <trkpt lat="48.84955" lon="2.39146">
        <ele>105.2</ele>
        <time>2015-01-12T20:25:26.688Z</time>
      </trkpt>
      <trkpt lat="48.8496" lon="2.39144">
        <ele>105.2</ele>
        <time>2015-01-12T20:25:27.715Z</time>
      </trkpt>
      <trkpt lat="48.84965" lon="2.39138">
        <ele>105.6</ele>
        <time>2015-01-12T20:25:28.632Z</time>
      </trkpt>
      <trkpt lat="48.84969" lon="2.39133">
        <ele>105.7</ele>
        <time>2015-01-12T20:25:29.670Z</time>
      </trkpt>
      <trkpt lat="48.84972" lon="2.39126">
        <ele>105.9</ele>
        <time>2015-01-12T20:25:30.839Z</time>
      </trkpt>
      <trkpt lat="48.84976" lon="2.39119">
        <ele>106.1</ele>
        <time>2015-01-12T20:25:31.679Z</time>
      </trkpt>
      <trkpt lat="48.8498" lon="2.39113">
        <ele>106.4</ele>
        <time>2015-01-12T20:25:32.681Z</time>
      </trkpt>
      <trkpt lat="48.84984" lon="2.39106">
        <ele>106.7</ele>
        <time>2015-01-12T20:25:33.697Z</time>
      </trkpt>
      <trkpt lat="48.84989" lon="2.39099">
        <ele>107</ele>
        <time>2015-01-12T20:25:34.623Z</time>
      </trkpt>
      <trkpt lat="48.84993" lon="2.39092">
        <ele>107.1</ele>
        <time>2015-01-12T20:25:35.630Z</time>
      </trkpt>
      <trkpt lat="48.84997" lon="2.39087">
        <ele>107.2</ele>
        <time>2015-01-12T20:25:36.644Z</time>
      </trkpt>
      <trkpt lat="48.85001" lon="2.39085">
        <ele>107.6</ele>
        <time>2015-01-12T20:25:37.658Z</time>
      </trkpt>
      <trkpt lat="48.85008" lon="2.39082">
        <ele>108.5</ele>
        <time>2015-01-12T20:25:40.636Z</time>
      </trkpt>
      <trkpt lat="48.85012" lon="2.39081">
        <ele>108.6</ele>
        <time>2015-01-12T20:25:41.633Z</time>
      </trkpt>
      <trkpt lat="48.85019" lon="2.39078">
        <ele>109.2</ele>
        <time>2015-01-12T20:25:43.672Z</time>
      </trkpt>
      <trkpt lat="48.85021" lon="2.39075">
        <ele>109.9</ele>
        <time>2015-01-12T20:25:44.700Z</time>
      </trkpt>
      <trkpt lat="48.85024" lon="2.39062">
        <ele>109.6</ele>
        <time>2015-01-12T20:25:46.617Z</time>
      </trkpt>
      <trkpt lat="48.85027" lon="2.39058">
        <ele>108.9</ele>
        <time>2015-01-12T20:25:47.633Z</time>
      </trkpt>
      <trkpt lat="48.85032" lon="2.39055">
        <ele>109.9</ele>
        <time>2015-01-12T20:25:49.679Z</time>
      </trkpt>
      <trkpt lat="48.85037" lon="2.39054">
        <ele>110.4</ele>
        <time>2015-01-12T20:25:50.687Z</time>
      </trkpt>
      <trkpt lat="48.85045" lon="2.39052">
        <ele>111.6</ele>
        <time>2015-01-12T20:25:52.711Z</time>
      </trkpt>
      <trkpt lat="48.8505" lon="2.3905">
        <ele>111.9</ele>
        <time>2015-01-12T20:25:53.634Z</time>
      </trkpt>
      <trkpt lat="48.85056" lon="2.39047">
        <ele>112.2</ele>
        <time>2015-01-12T20:25:54.628Z</time>
      </trkpt>
      <trkpt lat="48.85061" lon="2.39043">
        <ele>112.6</ele>
        <time>2015-01-12T20:25:55.647Z</time>
      </trkpt>
      <trkpt lat="48.85066" lon="2.39039">
        <ele>112.9</ele>
        <time>2015-01-12T20:25:56.656Z</time>
      </trkpt>
      <trkpt lat="48.85071" lon="2.39032">
        <ele>113</ele>
        <time>2015-01-12T20:25:57.666Z</time>
      </trkpt>
      <trkpt lat="48.85075" lon="2.39024">
        <ele>113.4</ele>
        <time>2015-01-12T20:25:58.678Z</time>
      </trkpt>
      <trkpt lat="48.85081" lon="2.39016">
        <ele>114.4</ele>
        <time>2015-01-12T20:25:59.686Z</time>
      </trkpt>
      <trkpt lat="48.85085" lon="2.39011">
        <ele>114.6</ele>
        <time>2015-01-12T20:26:00.597Z</time>
      </trkpt>
      <trkpt lat="48.8509" lon="2.39007">
        <ele>114.7</ele>
        <time>2015-01-12T20:26:01.662Z</time>
      </trkpt>
      <trkpt lat="48.85094" lon="2.39001">
        <ele>114.7</ele>
        <time>2015-01-12T20:26:02.770Z</time>
      </trkpt>
      <trkpt lat="48.85098" lon="2.38994">
        <ele>114.9</ele>
        <time>2015-01-12T20:26:03.622Z</time>
      </trkpt>
      <trkpt lat="48.85104" lon="2.38984">
        <ele>114.8</ele>
        <time>2015-01-12T20:26:04.681Z</time>
      </trkpt>
      <trkpt lat="48.85109" lon="2.38974">
        <ele>114.7</ele>
        <time>2015-01-12T20:26:05.586Z</time>
      </trkpt>
      <trkpt lat="48.85114" lon="2.38962">
        <ele>114.4</ele>
        <time>2015-01-12T20:26:06.720Z</time>
      </trkpt>
      <trkpt lat="48.85121" lon="2.38955">
        <ele>114.6</ele>
        <time>2015-01-12T20:26:07.685Z</time>
      </trkpt>
      <trkpt lat="48.85128" lon="2.38947">
        <ele>115.4</ele>
        <time>2015-01-12T20:26:08.659Z</time>
      </trkpt>
      <trkpt lat="48.85134" lon="2.38941">
        <ele>116</ele>
        <time>2015-01-12T20:26:09.678Z</time>
      </trkpt>
      <trkpt lat="48.85138" lon="2.38939">
        <ele>116.4</ele>
        <time>2015-01-12T20:26:10.689Z</time>
      </trkpt>
      <trkpt lat="48.85142" lon="2.38936">
        <ele>116.8</ele>
        <time>2015-01-12T20:26:11.687Z</time>
      </trkpt>
      <trkpt lat="48.85147" lon="2.38936">
        <ele>117</ele>
        <time>2015-01-12T20:26:12.691Z</time>
      </trkpt>
      <trkpt lat="48.85152" lon="2.38934">
        <ele>117.4</ele>
        <time>2015-01-12T20:26:13.707Z</time>
      </trkpt>
      <trkpt lat="48.8516" lon="2.38929">
        <ele>118.1</ele>
        <time>2015-01-12T20:26:14.623Z</time>
      </trkpt>
      <trkpt lat="48.85167" lon="2.38933">
        <ele>118.6</ele>
        <time>2015-01-12T20:26:15.599Z</time>
      </trkpt>
      <trkpt lat="48.8517" lon="2.38934">
        <ele>118.9</ele>
        <time>2015-01-12T20:26:16.603Z</time>
      </trkpt>
      <trkpt lat="48.85179" lon="2.38932">
        <ele>118.8</ele>
        <time>2015-01-12T20:26:17.609Z</time>
      </trkpt>
      <trkpt lat="48.85187" lon="2.38931">
        <ele>118.6</ele>
        <time>2015-01-12T20:26:18.614Z</time>
      </trkpt>
      <trkpt lat="48.85194" lon="2.3893">
        <ele>118.5</ele>
        <time>2015-01-12T20:26:19.628Z</time>
      </trkpt>
      <trkpt lat="48.852" lon="2.38929">
        <ele>118.7</ele>
        <time>2015-01-12T20:26:20.636Z</time>
      </trkpt>
      <trkpt lat="48.85207" lon="2.38927">
        <ele>118.6</ele>
        <time>2015-01-12T20:26:22.663Z</time>
      </trkpt>
      <trkpt lat="48.8521" lon="2.38926">
        <ele>118.3</ele>
        <time>2015-01-12T20:26:23.670Z</time>
      </trkpt>
      <trkpt lat="48.85218" lon="2.38923">
        <ele>117.4</ele>
        <time>2015-01-12T20:26:25.715Z</time>
      </trkpt>
      <trkpt lat="48.85221" lon="2.38923">
        <ele>117.1</ele>
        <time>2015-01-12T20:26:26.628Z</time>
      </trkpt>
      <trkpt lat="48.85227" lon="2.3892">
        <ele>116.3</ele>
        <time>2015-01-12T20:26:27.671Z</time>
      </trkpt>
      <trkpt lat="48.8523" lon="2.38916">
        <ele>116</ele>
        <time>2015-01-12T20:26:28.679Z</time>
      </trkpt>
      <trkpt lat="48.85234" lon="2.38907">
        <ele>117.1</ele>
        <time>2015-01-12T20:26:45.630Z</time>
      </trkpt>
      <trkpt lat="48.85245" lon="2.38906">
        <ele>119.9</ele>
        <time>2015-01-12T20:26:46.642Z</time>
      </trkpt>
      <trkpt lat="48.8525" lon="2.38901">
        <ele>119.9</ele>
        <time>2015-01-12T20:26:48.702Z</time>
      </trkpt>
      <trkpt lat="48.85254" lon="2.38898">
        <ele>120.1</ele>
        <time>2015-01-12T20:26:49.718Z</time>
      </trkpt>
      <trkpt lat="48.85259" lon="2.38889">
        <ele>119.6</ele>
        <time>2015-01-12T20:26:51.684Z</time>
      </trkpt>
      <trkpt lat="48.85263" lon="2.38884">
        <ele>119</ele>
        <time>2015-01-12T20:26:52.700Z</time>
      </trkpt>
      <trkpt lat="48.85268" lon="2.38876">
        <ele>117.1</ele>
        <time>2015-01-12T20:26:53.621Z</time>
      </trkpt>
      <trkpt lat="48.85273" lon="2.38868">
        <ele>115</ele>
        <time>2015-01-12T20:26:54.620Z</time>
      </trkpt>
      <trkpt lat="48.85277" lon="2.38862">
        <ele>113.6</ele>
        <time>2015-01-12T20:26:55.656Z</time>
      </trkpt>
      <trkpt lat="48.85281" lon="2.38856">
        <ele>112.1</ele>
        <time>2015-01-12T20:26:56.664Z</time>
      </trkpt>
      <trkpt lat="48.85285" lon="2.38851">
        <ele>111.1</ele>
        <time>2015-01-12T20:26:57.671Z</time>
      </trkpt>
      <trkpt lat="48.85289" lon="2.38847">
        <ele>111</ele>
        <time>2015-01-12T20:26:58.677Z</time>
      </trkpt>
      <trkpt lat="48.85293" lon="2.38843">
        <ele>110.8</ele>
        <time>2015-01-12T20:26:59.683Z</time>
      </trkpt>
      <trkpt lat="48.85297" lon="2.38839">
        <ele>110.9</ele>
        <time>2015-01-12T20:27:00.693Z</time>
      </trkpt>
      <trkpt lat="48.853" lon="2.38836">
        <ele>111.2</ele>
        <time>2015-01-12T20:27:01.704Z</time>
      </trkpt>
      <trkpt lat="48.85304" lon="2.38832">
        <ele>111.1</ele>
        <time>2015-01-12T20:27:02.709Z</time>
      </trkpt>
      <trkpt lat="48.85311" lon="2.38825">
        <ele>111.5</ele>
        <time>2015-01-12T20:27:04.623Z</time>
      </trkpt>
      <trkpt lat="48.85313" lon="2.38824">
        <ele>111.7</ele>
        <time>2015-01-12T20:27:05.633Z</time>
      </trkpt>
      <trkpt lat="48.85319" lon="2.38824">
        <ele>112.1</ele>
        <time>2015-01-12T20:27:07.694Z</time>
      </trkpt>
      <trkpt lat="48.85322" lon="2.38827">
        <ele>111.4</ele>
        <time>2015-01-12T20:27:08.719Z</time>
      </trkpt>
      <trkpt lat="48.8533" lon="2.38825">
        <ele>112.7</ele>
        <time>2015-01-12T20:27:11.630Z</time>
      </trkpt>
      <trkpt lat="48.85332" lon="2.38823">
        <ele>113.1</ele>
        <time>2015-01-12T20:27:12.642Z</time>
      </trkpt>
      <trkpt lat="48.85335" lon="2.3882">
        <ele>113.4</ele>
        <time>2015-01-12T20:27:13.687Z</time>
      </trkpt>
      <trkpt lat="48.85341" lon="2.38817">
        <ele>113.4</ele>
        <time>2015-01-12T20:27:14.692Z</time>
      </trkpt>
      <trkpt lat="48.85348" lon="2.38815">
        <ele>113</ele>
        <time>2015-01-12T20:27:15.621Z</time>
      </trkpt>
      <trkpt lat="48.85355" lon="2.38811">
        <ele>113</ele>
        <time>2015-01-12T20:27:16.608Z</time>
      </trkpt>
      <trkpt lat="48.8542" lon="2.38801">
        <ele>114.3</ele>
        <time>2015-01-12T20:27:27.622Z</time>
      </trkpt>
      <trkpt lat="48.85426" lon="2.38797">
        <ele>114.5</ele>
        <time>2015-01-12T20:27:28.634Z</time>
      </trkpt>
      <trkpt lat="48.85432" lon="2.38791">
        <ele>114.9</ele>
        <time>2015-01-12T20:27:29.657Z</time>
      </trkpt>
      <trkpt lat="48.85436" lon="2.38783">
        <ele>115.6</ele>
        <time>2015-01-12T20:27:30.594Z</time>
      </trkpt>
      <trkpt lat="48.85439" lon="2.38777">
        <ele>116.2</ele>
        <time>2015-01-12T20:27:31.645Z</time>
      </trkpt>
      <trkpt lat="48.85442" lon="2.38771">
        <ele>116.3</ele>
        <time>2015-01-12T20:27:32.648Z</time>
      </trkpt>
      <trkpt lat="48.85449" lon="2.38764">
        <ele>116.3</ele>
        <time>2015-01-12T20:27:33.741Z</time>
      </trkpt>
      <trkpt lat="48.85456" lon="2.38761">
        <ele>116.1</ele>
        <time>2015-01-12T20:27:34.663Z</time>
      </trkpt>
      <trkpt lat="48.85464" lon="2.38755">
        <ele>115.7</ele>
        <time>2015-01-12T20:27:35.666Z</time>
      </trkpt>
      <trkpt lat="48.85471" lon="2.3875">
        <ele>115.6</ele>
        <time>2015-01-12T20:27:36.673Z</time>
      </trkpt>
      <trkpt lat="48.85477" lon="2.38744">
        <ele>115.5</ele>
        <time>2015-01-12T20:27:37.689Z</time>
      </trkpt>
      <trkpt lat="48.85482" lon="2.38739">
        <ele>115.2</ele>
        <time>2015-01-12T20:27:38.705Z</time>
      </trkpt>
      <trkpt lat="48.85487" lon="2.38737">
        <ele>115.2</ele>
        <time>2015-01-12T20:27:39.615Z</time>
      </trkpt>
      <trkpt lat="48.85492" lon="2.38734">
        <ele>115.1</ele>
        <time>2015-01-12T20:27:40.627Z</time>
      </trkpt>
      <trkpt lat="48.85497" lon="2.38725">
        <ele>113.8</ele>
        <time>2015-01-12T20:27:41.630Z</time>
      </trkpt>
      <trkpt lat="48.85502" lon="2.38717">
        <ele>112.3</ele>
        <time>2015-01-12T20:27:42.656Z</time>
      </trkpt>
      <trkpt lat="48.85507" lon="2.38714">
        <ele>112.6</ele>
        <time>2015-01-12T20:27:43.669Z</time>
      </trkpt>
      <trkpt lat="48.85512" lon="2.38711">
        <ele>112.5</ele>
        <time>2015-01-12T20:27:44.683Z</time>
      </trkpt>
      <trkpt lat="48.85517" lon="2.38708">
        <ele>112.5</ele>
        <time>2015-01-12T20:27:45.694Z</time>
      </trkpt>
      <trkpt lat="48.85524" lon="2.38702">
        <ele>112.5</ele>
        <time>2015-01-12T20:27:47.618Z</time>
      </trkpt>
      <trkpt lat="48.85527" lon="2.38696">
        <ele>112.2</ele>
        <time>2015-01-12T20:27:48.632Z</time>
      </trkpt>
      <trkpt lat="48.85532" lon="2.38686">
        <ele>111.9</ele>
        <time>2015-01-12T20:27:50.645Z</time>
      </trkpt>
      <trkpt lat="48.85535" lon="2.38683">
        <ele>111.3</ele>
        <time>2015-01-12T20:27:51.652Z</time>
      </trkpt>
      <trkpt lat="48.85539" lon="2.38674">
        <ele>110.3</ele>
        <time>2015-01-12T20:27:53.701Z</time>
      </trkpt>
      <trkpt lat="48.8554" lon="2.38668">
        <ele>110.2</ele>
        <time>2015-01-12T20:27:54.703Z</time>
      </trkpt>
      <trkpt lat="48.85541" lon="2.38658">
        <ele>110.1</ele>
        <time>2015-01-12T20:27:56.748Z</time>
      </trkpt>
      <trkpt lat="48.85544" lon="2.38654">
        <ele>110.1</ele>
        <time>2015-01-12T20:27:57.635Z</time>
      </trkpt>
      <trkpt lat="48.85551" lon="2.38648">
        <ele>109.7</ele>
        <time>2015-01-12T20:27:58.639Z</time>
      </trkpt>
      <trkpt lat="48.85557" lon="2.38641">
        <ele>109.8</ele>
        <time>2015-01-12T20:27:59.708Z</time>
      </trkpt>
      <trkpt lat="48.85563" lon="2.38637">
        <ele>109.7</ele>
        <time>2015-01-12T20:28:00.597Z</time>
      </trkpt>
      <trkpt lat="48.85567" lon="2.38634">
        <ele>109.7</ele>
        <time>2015-01-12T20:28:01.661Z</time>
      </trkpt>
      <trkpt lat="48.85575" lon="2.38634">
        <ele>109.8</ele>
        <time>2015-01-12T20:28:06.774Z</time>
      </trkpt>
      <trkpt lat="48.85581" lon="2.3863">
        <ele>109.8</ele>
        <time>2015-01-12T20:28:07.797Z</time>
      </trkpt>
      <trkpt lat="48.85587" lon="2.38626">
        <ele>110</ele>
        <time>2015-01-12T20:28:09.313Z</time>
      </trkpt>
      <trkpt lat="48.85593" lon="2.3862">
        <ele>110.3</ele>
        <time>2015-01-12T20:28:09.639Z</time>
      </trkpt>
      <trkpt lat="48.856" lon="2.38613">
        <ele>110.3</ele>
        <time>2015-01-12T20:28:10.647Z</time>
      </trkpt>
      <trkpt lat="48.85609" lon="2.38605">
        <ele>109.5</ele>
        <time>2015-01-12T20:28:11.661Z</time>
      </trkpt>
      <trkpt lat="48.85617" lon="2.38599">
        <ele>109.1</ele>
        <time>2015-01-12T20:28:12.664Z</time>
      </trkpt>
      <trkpt lat="48.85625" lon="2.38593">
        <ele>109</ele>
        <time>2015-01-12T20:28:13.670Z</time>
      </trkpt>
      <trkpt lat="48.85632" lon="2.38589">
        <ele>108.5</ele>
        <time>2015-01-12T20:28:14.587Z</time>
      </trkpt>
      <trkpt lat="48.8564" lon="2.38586">
        <ele>108.3</ele>
        <time>2015-01-12T20:28:15.613Z</time>
      </trkpt>
      <trkpt lat="48.85648" lon="2.38584">
        <ele>108.3</ele>
        <time>2015-01-12T20:28:16.630Z</time>
      </trkpt>
      <trkpt lat="48.85655" lon="2.3858">
        <ele>108.1</ele>
        <time>2015-01-12T20:28:17.636Z</time>
      </trkpt>
      <trkpt lat="48.8566" lon="2.38575">
        <ele>107.7</ele>
        <time>2015-01-12T20:28:18.654Z</time>
      </trkpt>
      <trkpt lat="48.85663" lon="2.38568">
        <ele>107.5</ele>
        <time>2015-01-12T20:28:19.662Z</time>
      </trkpt>
      <trkpt lat="48.85666" lon="2.38562">
        <ele>107.5</ele>
        <time>2015-01-12T20:28:20.677Z</time>
      </trkpt>
      <trkpt lat="48.8567" lon="2.38557">
        <ele>107.3</ele>
        <time>2015-01-12T20:28:21.683Z</time>
      </trkpt>
      <trkpt lat="48.85676" lon="2.38553">
        <ele>107.7</ele>
        <time>2015-01-12T20:28:22.686Z</time>
      </trkpt>
      <trkpt lat="48.8568" lon="2.38549">
        <ele>108.4</ele>
        <time>2015-01-12T20:28:23.697Z</time>
      </trkpt>
      <trkpt lat="48.85684" lon="2.38544">
        <ele>109.1</ele>
        <time>2015-01-12T20:28:24.715Z</time>
      </trkpt>
      <trkpt lat="48.85691" lon="2.38542">
        <ele>109.6</ele>
        <time>2015-01-12T20:28:25.725Z</time>
      </trkpt>
      <trkpt lat="48.85696" lon="2.38537">
        <ele>110</ele>
        <time>2015-01-12T20:28:26.629Z</time>
      </trkpt>
      <trkpt lat="48.85698" lon="2.3853">
        <ele>110.5</ele>
        <time>2015-01-12T20:28:27.640Z</time>
      </trkpt>
      <trkpt lat="48.85702" lon="2.38526">
        <ele>110.4</ele>
        <time>2015-01-12T20:28:28.644Z</time>
      </trkpt>
      <trkpt lat="48.85706" lon="2.38521">
        <ele>110.4</ele>
        <time>2015-01-12T20:28:29.659Z</time>
      </trkpt>
      <trkpt lat="48.85711" lon="2.3851">
        <ele>110.8</ele>
        <time>2015-01-12T20:28:31.681Z</time>
      </trkpt>
      <trkpt lat="48.85714" lon="2.38507">
        <ele>111.2</ele>
        <time>2015-01-12T20:28:32.724Z</time>
      </trkpt>
      <trkpt lat="48.85718" lon="2.385">
        <ele>111.2</ele>
        <time>2015-01-12T20:28:35.624Z</time>
      </trkpt>
      <trkpt lat="48.85721" lon="2.38495">
        <ele>111.8</ele>
        <time>2015-01-12T20:28:36.649Z</time>
      </trkpt>
      <trkpt lat="48.85724" lon="2.38489">
        <ele>112</ele>
        <time>2015-01-12T20:28:37.696Z</time>
      </trkpt>
      <trkpt lat="48.85729" lon="2.38486">
        <ele>111.9</ele>
        <time>2015-01-12T20:28:38.692Z</time>
      </trkpt>
      <trkpt lat="48.85735" lon="2.38483">
        <ele>112.2</ele>
        <time>2015-01-12T20:28:39.737Z</time>
      </trkpt>
      <trkpt lat="48.8574" lon="2.3848">
        <ele>112.4</ele>
        <time>2015-01-12T20:28:40.639Z</time>
      </trkpt>
      <trkpt lat="48.85746" lon="2.38475">
        <ele>112.8</ele>
        <time>2015-01-12T20:28:41.639Z</time>
      </trkpt>
      <trkpt lat="48.85753" lon="2.38472">
        <ele>113.2</ele>
        <time>2015-01-12T20:28:42.643Z</time>
      </trkpt>
      <trkpt lat="48.8576" lon="2.3847">
        <ele>113.6</ele>
        <time>2015-01-12T20:28:43.681Z</time>
      </trkpt>
      <trkpt lat="48.85767" lon="2.38468">
        <ele>113.5</ele>
        <time>2015-01-12T20:28:44.708Z</time>
      </trkpt>
      <trkpt lat="48.85772" lon="2.38461">
        <ele>113.7</ele>
        <time>2015-01-12T20:28:45.647Z</time>
      </trkpt>
      <trkpt lat="48.85776" lon="2.38457">
        <ele>114.3</ele>
        <time>2015-01-12T20:28:46.658Z</time>
      </trkpt>
      <trkpt lat="48.85781" lon="2.38454">
        <ele>114.9</ele>
        <time>2015-01-12T20:28:47.684Z</time>
      </trkpt>
      <trkpt lat="48.85784" lon="2.3845">
        <ele>115.6</ele>
        <time>2015-01-12T20:28:48.666Z</time>
      </trkpt>
      <trkpt lat="48.85787" lon="2.38446">
        <ele>116.2</ele>
        <time>2015-01-12T20:28:49.742Z</time>
      </trkpt>
      <trkpt lat="48.85791" lon="2.38442">
        <ele>116.6</ele>
        <time>2015-01-12T20:28:50.631Z</time>
      </trkpt>
      <trkpt lat="48.85798" lon="2.38435">
        <ele>117.8</ele>
        <time>2015-01-12T20:28:52.627Z</time>
      </trkpt>
      <trkpt lat="48.85803" lon="2.3843">
        <ele>118.4</ele>
        <time>2015-01-12T20:28:53.675Z</time>
      </trkpt>
      <trkpt lat="48.85809" lon="2.38427">
        <ele>118.8</ele>
        <time>2015-01-12T20:28:54.713Z</time>
      </trkpt>
      <trkpt lat="48.85814" lon="2.38425">
        <ele>119.3</ele>
        <time>2015-01-12T20:28:55.721Z</time>
      </trkpt>
      <trkpt lat="48.85819" lon="2.38422">
        <ele>119.6</ele>
        <time>2015-01-12T20:28:56.631Z</time>
      </trkpt>
      <trkpt lat="48.85825" lon="2.38416">
        <ele>120.1</ele>
        <time>2015-01-12T20:28:57.632Z</time>
      </trkpt>
      <trkpt lat="48.85828" lon="2.3841">
        <ele>120.6</ele>
        <time>2015-01-12T20:28:58.646Z</time>
      </trkpt>
      <trkpt lat="48.85831" lon="2.38403">
        <ele>120.7</ele>
        <time>2015-01-12T20:28:59.660Z</time>
      </trkpt>
      <trkpt lat="48.85831" lon="2.38394">
        <ele>120.4</ele>
        <time>2015-01-12T20:29:16.676Z</time>
      </trkpt>
      <trkpt lat="48.85847" lon="2.38366">
        <ele>117.6</ele>
        <time>2015-01-12T20:29:17.731Z</time>
      </trkpt>
      <trkpt lat="48.85853" lon="2.38364">
        <ele>117</ele>
        <time>2015-01-12T20:29:19.648Z</time>
      </trkpt>
      <trkpt lat="48.85857" lon="2.38362">
        <ele>117.3</ele>
        <time>2015-01-12T20:29:20.659Z</time>
      </trkpt>
      <trkpt lat="48.85864" lon="2.3836">
        <ele>117.2</ele>
        <time>2015-01-12T20:29:22.679Z</time>
      </trkpt>
      <trkpt lat="48.8587" lon="2.38359">
        <ele>117.4</ele>
        <time>2015-01-12T20:29:23.715Z</time>
      </trkpt>
      <trkpt lat="48.85875" lon="2.38357">
        <ele>117.6</ele>
        <time>2015-01-12T20:29:24.666Z</time>
      </trkpt>
      <trkpt lat="48.8588" lon="2.38355">
        <ele>117.7</ele>
        <time>2015-01-12T20:29:25.683Z</time>
      </trkpt>
      <trkpt lat="48.85885" lon="2.38354">
        <ele>117.9</ele>
        <time>2015-01-12T20:29:26.786Z</time>
      </trkpt>
      <trkpt lat="48.85891" lon="2.38353">
        <ele>118.1</ele>
        <time>2015-01-12T20:29:27.664Z</time>
      </trkpt>
      <trkpt lat="48.85897" lon="2.38353">
        <ele>118.6</ele>
        <time>2015-01-12T20:29:28.679Z</time>
      </trkpt>
      <trkpt lat="48.85903" lon="2.3835">
        <ele>118.8</ele>
        <time>2015-01-12T20:29:29.845Z</time>
      </trkpt>
      <trkpt lat="48.85907" lon="2.38345">
        <ele>118.7</ele>
        <time>2015-01-12T20:29:30.673Z</time>
      </trkpt>
      <trkpt lat="48.85911" lon="2.38341">
        <ele>118.7</ele>
        <time>2015-01-12T20:29:31.685Z</time>
      </trkpt>
      <trkpt lat="48.85916" lon="2.38338">
        <ele>118.9</ele>
        <time>2015-01-12T20:29:32.606Z</time>
      </trkpt>
      <trkpt lat="48.85919" lon="2.38334">
        <ele>118.6</ele>
        <time>2015-01-12T20:29:33.644Z</time>
      </trkpt>
      <trkpt lat="48.85924" lon="2.38331">
        <ele>118.6</ele>
        <time>2015-01-12T20:29:34.690Z</time>
      </trkpt>
      <trkpt lat="48.85927" lon="2.38326">
        <ele>118.3</ele>
        <time>2015-01-12T20:29:35.698Z</time>
      </trkpt>
      <trkpt lat="48.8593" lon="2.38321">
        <ele>118.1</ele>
        <time>2015-01-12T20:29:36.592Z</time>
      </trkpt>
      <trkpt lat="48.85933" lon="2.38316">
        <ele>117.7</ele>
        <time>2015-01-12T20:29:37.629Z</time>
      </trkpt>
      <trkpt lat="48.85936" lon="2.38305">
        <ele>115.7</ele>
        <time>2015-01-12T20:29:38.660Z</time>
      </trkpt>
      <trkpt lat="48.85939" lon="2.38299">
        <ele>115.2</ele>
        <time>2015-01-12T20:29:39.674Z</time>
      </trkpt>
      <trkpt lat="48.85942" lon="2.38294">
        <ele>114.9</ele>
        <time>2015-01-12T20:29:40.720Z</time>
      </trkpt>
      <trkpt lat="48.85946" lon="2.38289">
        <ele>114.5</ele>
        <time>2015-01-12T20:29:41.623Z</time>
      </trkpt>
      <trkpt lat="48.85952" lon="2.3828">
        <ele>114</ele>
        <time>2015-01-12T20:29:43.663Z</time>
      </trkpt>
      <trkpt lat="48.85955" lon="2.38274">
        <ele>114.2</ele>
        <time>2015-01-12T20:29:44.667Z</time>
      </trkpt>
      <trkpt lat="48.85959" lon="2.38268">
        <ele>114.1</ele>
        <time>2015-01-12T20:29:45.814Z</time>
      </trkpt>
      <trkpt lat="48.85962" lon="2.38263">
        <ele>114</ele>
        <time>2015-01-12T20:29:46.643Z</time>
      </trkpt>
      <trkpt lat="48.85966" lon="2.38259">
        <ele>114.1</ele>
        <time>2015-01-12T20:29:47.639Z</time>
      </trkpt>
      <trkpt lat="48.8597" lon="2.38255">
        <ele>114.1</ele>
        <time>2015-01-12T20:29:48.644Z</time>
      </trkpt>
      <trkpt lat="48.85975" lon="2.38245">
        <ele>114</ele>
        <time>2015-01-12T20:29:50.719Z</time>
      </trkpt>
      <trkpt lat="48.85979" lon="2.38241">
        <ele>113.7</ele>
        <time>2015-01-12T20:29:51.685Z</time>
      </trkpt>
      <trkpt lat="48.85985" lon="2.38232">
        <ele>114</ele>
        <time>2015-01-12T20:29:53.629Z</time>
      </trkpt>
      <trkpt lat="48.85989" lon="2.38228">
        <ele>114.3</ele>
        <time>2015-01-12T20:29:54.643Z</time>
      </trkpt>
      <trkpt lat="48.85994" lon="2.38228">
        <ele>114.2</ele>
        <time>2015-01-12T20:29:55.673Z</time>
      </trkpt>
      <trkpt lat="48.86" lon="2.38228">
        <ele>113.8</ele>
        <time>2015-01-12T20:29:56.673Z</time>
      </trkpt>
      <trkpt lat="48.86004" lon="2.38226">
        <ele>113.8</ele>
        <time>2015-01-12T20:29:57.677Z</time>
      </trkpt>
      <trkpt lat="48.86008" lon="2.38222">
        <ele>113.5</ele>
        <time>2015-01-12T20:29:58.687Z</time>
      </trkpt>
      <trkpt lat="48.86014" lon="2.38214">
        <ele>113.7</ele>
        <time>2015-01-12T20:30:00.597Z</time>
      </trkpt>
      <trkpt lat="48.86018" lon="2.38211">
        <ele>113.7</ele>
        <time>2015-01-12T20:30:01.725Z</time>
      </trkpt>
      <trkpt lat="48.86022" lon="2.38209">
        <ele>113.9</ele>
        <time>2015-01-12T20:30:02.598Z</time>
      </trkpt>
      <trkpt lat="48.86027" lon="2.38207">
        <ele>113.8</ele>
        <time>2015-01-12T20:30:03.598Z</time>
      </trkpt>
      <trkpt lat="48.86031" lon="2.38203">
        <ele>113.8</ele>
        <time>2015-01-12T20:30:04.621Z</time>
      </trkpt>
      <trkpt lat="48.86037" lon="2.38199">
        <ele>113.8</ele>
        <time>2015-01-12T20:30:05.642Z</time>
      </trkpt>
      <trkpt lat="48.86043" lon="2.38195">
        <ele>113.8</ele>
        <time>2015-01-12T20:30:06.659Z</time>
      </trkpt>
      <trkpt lat="48.86049" lon="2.3819">
        <ele>113.8</ele>
        <time>2015-01-12T20:30:07.673Z</time>
      </trkpt>
      <trkpt lat="48.86054" lon="2.38185">
        <ele>114.1</ele>
        <time>2015-01-12T20:30:08.592Z</time>
      </trkpt>
      <trkpt lat="48.86058" lon="2.3818">
        <ele>114</ele>
        <time>2015-01-12T20:30:09.595Z</time>
      </trkpt>
      <trkpt lat="48.86064" lon="2.38174">
        <ele>114</ele>
        <time>2015-01-12T20:30:10.647Z</time>
      </trkpt>
      <trkpt lat="48.86069" lon="2.38169">
        <ele>114.1</ele>
        <time>2015-01-12T20:30:11.652Z</time>
      </trkpt>
      <trkpt lat="48.86074" lon="2.38163">
        <ele>114.1</ele>
        <time>2015-01-12T20:30:12.823Z</time>
      </trkpt>
      <trkpt lat="48.86079" lon="2.3816">
        <ele>114.2</ele>
        <time>2015-01-12T20:30:13.756Z</time>
      </trkpt>
      <trkpt lat="48.86084" lon="2.38157">
        <ele>114.2</ele>
        <time>2015-01-12T20:30:14.618Z</time>
      </trkpt>
      <trkpt lat="48.86088" lon="2.38154">
        <ele>114.2</ele>
        <time>2015-01-12T20:30:15.613Z</time>
      </trkpt>
      <trkpt lat="48.86093" lon="2.38153">
        <ele>114.2</ele>
        <time>2015-01-12T20:30:16.621Z</time>
      </trkpt>
      <trkpt lat="48.86097" lon="2.3815">
        <ele>114</ele>
        <time>2015-01-12T20:30:17.629Z</time>
      </trkpt>
      <trkpt lat="48.86103" lon="2.38141">
        <ele>113.1</ele>
        <time>2015-01-12T20:30:19.664Z</time>
      </trkpt>
      <trkpt lat="48.86108" lon="2.38135">
        <ele>112.9</ele>
        <time>2015-01-12T20:30:20.693Z</time>
      </trkpt>
      <trkpt lat="48.86114" lon="2.38131">
        <ele>112.5</ele>
        <time>2015-01-12T20:30:21.733Z</time>
      </trkpt>
      <trkpt lat="48.86118" lon="2.38127">
        <ele>112.1</ele>
        <time>2015-01-12T20:30:22.811Z</time>
      </trkpt>
      <trkpt lat="48.86123" lon="2.38116">
        <ele>111.7</ele>
        <time>2015-01-12T20:30:24.637Z</time>
      </trkpt>
      <trkpt lat="48.86125" lon="2.3811">
        <ele>111.8</ele>
        <time>2015-01-12T20:30:25.775Z</time>
      </trkpt>
      <trkpt lat="48.86129" lon="2.38102">
        <ele>111.6</ele>
        <time>2015-01-12T20:30:26.627Z</time>
      </trkpt>
      <trkpt lat="48.86133" lon="2.38095">
        <ele>111.5</ele>
        <time>2015-01-12T20:30:27.631Z</time>
      </trkpt>
      <trkpt lat="48.86137" lon="2.38086">
        <ele>111.1</ele>
        <time>2015-01-12T20:30:28.663Z</time>
      </trkpt>
      <trkpt lat="48.86143" lon="2.38077">
        <ele>111.2</ele>
        <time>2015-01-12T20:30:29.670Z</time>
      </trkpt>
      <trkpt lat="48.86148" lon="2.38071">
        <ele>110.8</ele>
        <time>2015-01-12T20:30:30.980Z</time>
      </trkpt>
      <trkpt lat="48.86154" lon="2.38066">
        <ele>110.6</ele>
        <time>2015-01-12T20:30:31.688Z</time>
      </trkpt>
      <trkpt lat="48.86157" lon="2.38059">
        <ele>110.8</ele>
        <time>2015-01-12T20:30:32.696Z</time>
      </trkpt>
      <trkpt lat="48.86162" lon="2.38051">
        <ele>110.9</ele>
        <time>2015-01-12T20:30:33.706Z</time>
      </trkpt>
      <trkpt lat="48.86167" lon="2.38045">
        <ele>111.6</ele>
        <time>2015-01-12T20:30:34.624Z</time>
      </trkpt>
      <trkpt lat="48.86171" lon="2.38038">
        <ele>112</ele>
        <time>2015-01-12T20:30:35.623Z</time>
      </trkpt>
      <trkpt lat="48.86175" lon="2.38032">
        <ele>112.4</ele>
        <time>2015-01-12T20:30:36.641Z</time>
      </trkpt>
      <trkpt lat="48.8618" lon="2.38026">
        <ele>112.6</ele>
        <time>2015-01-12T20:30:37.664Z</time>
      </trkpt>
      <trkpt lat="48.86185" lon="2.38021">
        <ele>112.8</ele>
        <time>2015-01-12T20:30:38.664Z</time>
      </trkpt>
      <trkpt lat="48.86189" lon="2.38015">
        <ele>112.6</ele>
        <time>2015-01-12T20:30:39.671Z</time>
      </trkpt>
      <trkpt lat="48.86195" lon="2.38009">
        <ele>112.4</ele>
        <time>2015-01-12T20:30:40.681Z</time>
      </trkpt>
      <trkpt lat="48.86199" lon="2.38004">
        <ele>112.4</ele>
        <time>2015-01-12T20:30:41.713Z</time>
      </trkpt>
      <trkpt lat="48.86204" lon="2.38001">
        <ele>112.6</ele>
        <time>2015-01-12T20:30:42.638Z</time>
      </trkpt>
      <trkpt lat="48.86209" lon="2.37997">
        <ele>112.7</ele>
        <time>2015-01-12T20:30:43.665Z</time>
      </trkpt>
      <trkpt lat="48.86215" lon="2.37994">
        <ele>112.5</ele>
        <time>2015-01-12T20:30:44.662Z</time>
      </trkpt>
      <trkpt lat="48.8622" lon="2.3799">
        <ele>112.6</ele>
        <time>2015-01-12T20:30:45.722Z</time>
      </trkpt>
      <trkpt lat="48.86226" lon="2.37986">
        <ele>112.4</ele>
        <time>2015-01-12T20:30:46.637Z</time>
      </trkpt>
      <trkpt lat="48.86233" lon="2.37986">
        <ele>111.3</ele>
        <time>2015-01-12T20:30:47.655Z</time>
      </trkpt>
      <trkpt lat="48.86241" lon="2.37987">
        <ele>111</ele>
        <time>2015-01-12T20:30:48.681Z</time>
      </trkpt>
      <trkpt lat="48.86248" lon="2.37983">
        <ele>111</ele>
        <time>2015-01-12T20:30:49.696Z</time>
      </trkpt>
      <trkpt lat="48.86254" lon="2.37979">
        <ele>111.1</ele>
        <time>2015-01-12T20:30:50.630Z</time>
      </trkpt>
      <trkpt lat="48.8626" lon="2.37977">
        <ele>111.1</ele>
        <time>2015-01-12T20:30:51.625Z</time>
      </trkpt>
      <trkpt lat="48.86264" lon="2.37973">
        <ele>111.1</ele>
        <time>2015-01-12T20:30:52.627Z</time>
      </trkpt>
      <trkpt lat="48.86268" lon="2.37969">
        <ele>111.1</ele>
        <time>2015-01-12T20:30:53.640Z</time>
      </trkpt>
      <trkpt lat="48.86273" lon="2.37963">
        <ele>111.7</ele>
        <time>2015-01-12T20:30:55.673Z</time>
      </trkpt>
      <trkpt lat="48.86278" lon="2.3796">
        <ele>112.2</ele>
        <time>2015-01-12T20:30:56.680Z</time>
      </trkpt>
      <trkpt lat="48.86283" lon="2.3795">
        <ele>112.9</ele>
        <time>2015-01-12T20:30:59.653Z</time>
      </trkpt>
      <trkpt lat="48.86286" lon="2.37948">
        <ele>112.7</ele>
        <time>2015-01-12T20:31:00.647Z</time>
      </trkpt>
      <trkpt lat="48.86289" lon="2.37941">
        <ele>113</ele>
        <time>2015-01-12T20:31:05.684Z</time>
      </trkpt>
      <trkpt lat="48.86295" lon="2.37932">
        <ele>112.8</ele>
        <time>2015-01-12T20:31:06.729Z</time>
      </trkpt>
      <trkpt lat="48.86299" lon="2.37922">
        <ele>114.4</ele>
        <time>2015-01-12T20:31:21.635Z</time>
      </trkpt>
      <trkpt lat="48.86308" lon="2.37916">
        <ele>114.7</ele>
        <time>2015-01-12T20:31:22.701Z</time>
      </trkpt>
      <trkpt lat="48.86308" lon="2.37916">
        <ele>114.7</ele>
        <time>2015-01-12T20:31:23.053Z</time>
      </trkpt>
      <trkpt lat="48.86317" lon="2.3791">
        <ele>115.1</ele>
        <time>2015-01-12T20:31:23.746Z</time>
      </trkpt>
      <trkpt lat="48.86326" lon="2.37904">
        <ele>115.5</ele>
        <time>2015-01-12T20:31:24.662Z</time>
      </trkpt>
      <trkpt lat="48.86336" lon="2.37898">
        <ele>115.6</ele>
        <time>2015-01-12T20:31:25.697Z</time>
      </trkpt>
      <trkpt lat="48.86347" lon="2.37898">
        <ele>115.6</ele>
        <time>2015-01-12T20:31:26.594Z</time>
      </trkpt>
      <trkpt lat="48.86355" lon="2.37901">
        <ele>115.6</ele>
        <time>2015-01-12T20:31:28.548Z</time>
      </trkpt>
      <trkpt lat="48.86364" lon="2.37891">
        <ele>114.8</ele>
        <time>2015-01-12T20:31:28.697Z</time>
      </trkpt>
      <trkpt lat="48.86369" lon="2.37885">
        <ele>115.3</ele>
        <time>2015-01-12T20:31:29.629Z</time>
      </trkpt>
      <trkpt lat="48.86374" lon="2.3788">
        <ele>115.7</ele>
        <time>2015-01-12T20:31:30.627Z</time>
      </trkpt>
      <trkpt lat="48.86385" lon="2.37868">
        <ele>114.2</ele>
        <time>2015-01-12T20:31:31.650Z</time>
      </trkpt>
      <trkpt lat="48.86397" lon="2.37852">
        <ele>110.6</ele>
        <time>2015-01-12T20:31:32.664Z</time>
      </trkpt>
      <trkpt lat="48.86408" lon="2.37837">
        <ele>107.5</ele>
        <time>2015-01-12T20:31:33.687Z</time>
      </trkpt>
      <trkpt lat="48.86419" lon="2.37826">
        <ele>107.3</ele>
        <time>2015-01-12T20:31:34.709Z</time>
      </trkpt>
      <trkpt lat="48.8643" lon="2.37813">
        <ele>105.8</ele>
        <time>2015-01-12T20:31:35.647Z</time>
      </trkpt>
      <trkpt lat="48.86437" lon="2.37805">
        <ele>104.2</ele>
        <time>2015-01-12T20:31:36.695Z</time>
      </trkpt>
      <trkpt lat="48.86442" lon="2.37801">
        <ele>105</ele>
        <time>2015-01-12T20:31:37.696Z</time>
      </trkpt>
      <trkpt lat="48.86445" lon="2.37797">
        <ele>106.2</ele>
        <time>2015-01-12T20:31:38.710Z</time>
      </trkpt>
      <trkpt lat="48.86448" lon="2.37791">
        <ele>107.7</ele>
        <time>2015-01-12T20:33:16.623Z</time>
      </trkpt>
      <trkpt lat="48.86466" lon="2.37783">
        <ele>128.8</ele>
        <time>2015-01-12T20:33:17.628Z</time>
      </trkpt>
      <trkpt lat="48.86473" lon="2.37785">
        <ele>129</ele>
        <time>2015-01-12T20:33:20.680Z</time>
      </trkpt>
      <trkpt lat="48.86477" lon="2.37783">
        <ele>129</ele>
        <time>2015-01-12T20:33:21.702Z</time>
      </trkpt>
      <trkpt lat="48.86481" lon="2.37782">
        <ele>128.8</ele>
        <time>2015-01-12T20:33:22.592Z</time>
      </trkpt>
      <trkpt lat="48.86487" lon="2.37779">
        <ele>128.2</ele>
        <time>2015-01-12T20:33:23.623Z</time>
      </trkpt>
      <trkpt lat="48.86492" lon="2.37774">
        <ele>127.4</ele>
        <time>2015-01-12T20:33:25.671Z</time>
      </trkpt>
      <trkpt lat="48.86494" lon="2.37769">
        <ele>127.2</ele>
        <time>2015-01-12T20:33:26.668Z</time>
      </trkpt>
      <trkpt lat="48.86501" lon="2.37761">
        <ele>126.2</ele>
        <time>2015-01-12T20:33:28.626Z</time>
      </trkpt>
      <trkpt lat="48.86504" lon="2.37759">
        <ele>125.9</ele>
        <time>2015-01-12T20:33:29.641Z</time>
      </trkpt>
      <trkpt lat="48.86512" lon="2.3776">
        <ele>125.1</ele>
        <time>2015-01-12T20:33:32.614Z</time>
      </trkpt>
      <trkpt lat="48.86518" lon="2.37761">
        <ele>125</ele>
        <time>2015-01-12T20:33:33.611Z</time>
      </trkpt>
      <trkpt lat="48.86525" lon="2.37759">
        <ele>124.7</ele>
        <time>2015-01-12T20:33:35.637Z</time>
      </trkpt>
      <trkpt lat="48.8653" lon="2.37758">
        <ele>124.9</ele>
        <time>2015-01-12T20:33:36.771Z</time>
      </trkpt>
      <trkpt lat="48.86537" lon="2.37757">
        <ele>124.6</ele>
        <time>2015-01-12T20:33:38.608Z</time>
      </trkpt>
      <trkpt lat="48.86541" lon="2.37756">
        <ele>124.5</ele>
        <time>2015-01-12T20:33:39.638Z</time>
      </trkpt>
      <trkpt lat="48.86546" lon="2.37755">
        <ele>123.6</ele>
        <time>2015-01-12T20:33:40.649Z</time>
      </trkpt>
      <trkpt lat="48.8655" lon="2.37747">
        <ele>121.3</ele>
        <time>2015-01-12T20:33:41.655Z</time>
      </trkpt>
      <trkpt lat="48.86556" lon="2.37738">
        <ele>118.3</ele>
        <time>2015-01-12T20:33:43.708Z</time>
      </trkpt>
      <trkpt lat="48.86558" lon="2.37737">
        <ele>117.8</ele>
        <time>2015-01-12T20:33:44.626Z</time>
      </trkpt>
      <trkpt lat="48.86565" lon="2.37731">
        <ele>117.6</ele>
        <time>2015-01-12T20:33:48.693Z</time>
      </trkpt>
      <trkpt lat="48.86568" lon="2.37729">
        <ele>117.6</ele>
        <time>2015-01-12T20:33:49.682Z</time>
      </trkpt>
      <trkpt lat="48.86575" lon="2.37722">
        <ele>117.8</ele>
        <time>2015-01-12T20:33:51.635Z</time>
      </trkpt>
      <trkpt lat="48.86579" lon="2.37717">
        <ele>117.9</ele>
        <time>2015-01-12T20:33:52.649Z</time>
      </trkpt>
      <trkpt lat="48.86582" lon="2.37713">
        <ele>117.7</ele>
        <time>2015-01-12T20:33:53.671Z</time>
      </trkpt>
      <trkpt lat="48.86585" lon="2.37707">
        <ele>117.2</ele>
        <time>2015-01-12T20:33:54.687Z</time>
      </trkpt>
      <trkpt lat="48.86589" lon="2.377">
        <ele>117</ele>
        <time>2015-01-12T20:33:55.687Z</time>
      </trkpt>
      <trkpt lat="48.86594" lon="2.37694">
        <ele>117</ele>
        <time>2015-01-12T20:33:56.702Z</time>
      </trkpt>
      <trkpt lat="48.86599" lon="2.37689">
        <ele>116.9</ele>
        <time>2015-01-12T20:33:57.750Z</time>
      </trkpt>
      <trkpt lat="48.86602" lon="2.37684">
        <ele>116.9</ele>
        <time>2015-01-12T20:33:58.618Z</time>
      </trkpt>
      <trkpt lat="48.86606" lon="2.3768">
        <ele>117.1</ele>
        <time>2015-01-12T20:33:59.645Z</time>
      </trkpt>
      <trkpt lat="48.86611" lon="2.37677">
        <ele>117.3</ele>
        <time>2015-01-12T20:34:00.665Z</time>
      </trkpt>
      <trkpt lat="48.8662" lon="2.37675">
        <ele>118</ele>
        <time>2015-01-12T20:34:02.628Z</time>
      </trkpt>
      <trkpt lat="48.86623" lon="2.37674">
        <ele>118.2</ele>
        <time>2015-01-12T20:34:03.649Z</time>
      </trkpt>
      <trkpt lat="48.86628" lon="2.37664">
        <ele>118.3</ele>
        <time>2015-01-12T20:34:06.958Z</time>
      </trkpt>
      <trkpt lat="48.86631" lon="2.3766">
        <ele>118.5</ele>
        <time>2015-01-12T20:34:07.698Z</time>
      </trkpt>
      <trkpt lat="48.86638" lon="2.37654">
        <ele>118.6</ele>
        <time>2015-01-12T20:34:10.611Z</time>
      </trkpt>
      <trkpt lat="48.86641" lon="2.37653">
        <ele>118.6</ele>
        <time>2015-01-12T20:34:11.625Z</time>
      </trkpt>
      <trkpt lat="48.86646" lon="2.37652">
        <ele>118.5</ele>
        <time>2015-01-12T20:34:12.640Z</time>
      </trkpt>
      <trkpt lat="48.86653" lon="2.37651">
        <ele>118.5</ele>
        <time>2015-01-12T20:34:13.662Z</time>
      </trkpt>
      <trkpt lat="48.86662" lon="2.37649">
        <ele>118.6</ele>
        <time>2015-01-12T20:34:14.670Z</time>
      </trkpt>
      <trkpt lat="48.8667" lon="2.37647">
        <ele>118.6</ele>
        <time>2015-01-12T20:34:15.639Z</time>
      </trkpt>
      <trkpt lat="48.86677" lon="2.37645">
        <ele>118.7</ele>
        <time>2015-01-12T20:34:17.084Z</time>
      </trkpt>
      <trkpt lat="48.86681" lon="2.37643">
        <ele>118.8</ele>
        <time>2015-01-12T20:34:17.733Z</time>
      </trkpt>
      <trkpt lat="48.86687" lon="2.37638">
        <ele>119</ele>
        <time>2015-01-12T20:34:19.661Z</time>
      </trkpt>
      <trkpt lat="48.86689" lon="2.37637">
        <ele>119.4</ele>
        <time>2015-01-12T20:34:20.795Z</time>
      </trkpt>
      <trkpt lat="48.86696" lon="2.37631">
        <ele>119</ele>
        <time>2015-01-12T20:34:22.629Z</time>
      </trkpt>
      <trkpt lat="48.86698" lon="2.37625">
        <ele>118.9</ele>
        <time>2015-01-12T20:34:23.654Z</time>
      </trkpt>
      <trkpt lat="48.86702" lon="2.37621">
        <ele>119</ele>
        <time>2015-01-12T20:34:25.684Z</time>
      </trkpt>
      <trkpt lat="48.86706" lon="2.37615">
        <ele>116.1</ele>
        <time>2015-01-12T20:34:26.713Z</time>
      </trkpt>
      <trkpt lat="48.86711" lon="2.37607">
        <ele>113.9</ele>
        <time>2015-01-12T20:34:27.730Z</time>
      </trkpt>
      <trkpt lat="48.86714" lon="2.37604">
        <ele>114</ele>
        <time>2015-01-12T20:34:28.727Z</time>
      </trkpt>
      <trkpt lat="48.86721" lon="2.376">
        <ele>114.4</ele>
        <time>2015-01-12T20:34:30.659Z</time>
      </trkpt>
      <trkpt lat="48.86725" lon="2.37597">
        <ele>114.1</ele>
        <time>2015-01-12T20:34:31.692Z</time>
      </trkpt>
      <trkpt lat="48.86732" lon="2.37594">
        <ele>113.6</ele>
        <time>2015-01-12T20:34:32.728Z</time>
      </trkpt>
      <trkpt lat="48.86736" lon="2.37589">
        <ele>113.1</ele>
        <time>2015-01-12T20:34:33.702Z</time>
      </trkpt>
      <trkpt lat="48.86741" lon="2.37582">
        <ele>113.2</ele>
        <time>2015-01-12T20:34:34.657Z</time>
      </trkpt>
      <trkpt lat="48.86743" lon="2.37577">
        <ele>113.2</ele>
        <time>2015-01-12T20:34:35.665Z</time>
      </trkpt>
      <trkpt lat="48.86746" lon="2.37566">
        <ele>112.5</ele>
        <time>2015-01-12T20:34:50.706Z</time>
      </trkpt>
      <trkpt lat="48.86779" lon="2.37542">
        <ele>115</ele>
        <time>2015-01-12T20:34:51.728Z</time>
      </trkpt>
      <trkpt lat="48.86787" lon="2.37537">
        <ele>114.8</ele>
        <time>2015-01-12T20:34:52.635Z</time>
      </trkpt>
      <trkpt lat="48.86796" lon="2.37534">
        <ele>114.7</ele>
        <time>2015-01-12T20:34:54.706Z</time>
      </trkpt>
      <trkpt lat="48.86803" lon="2.37532">
        <ele>114.3</ele>
        <time>2015-01-12T20:34:54.748Z</time>
      </trkpt>
      <trkpt lat="48.86811" lon="2.37525">
        <ele>113.9</ele>
        <time>2015-01-12T20:34:56.718Z</time>
      </trkpt>
      <trkpt lat="48.86815" lon="2.37512">
        <ele>111.4</ele>
        <time>2015-01-12T20:34:57.634Z</time>
      </trkpt>
      <trkpt lat="48.8682" lon="2.37504">
        <ele>109.8</ele>
        <time>2015-01-12T20:34:58.639Z</time>
      </trkpt>
      <trkpt lat="48.86824" lon="2.375">
        <ele>109.7</ele>
        <time>2015-01-12T20:34:59.658Z</time>
      </trkpt>
      <trkpt lat="48.86829" lon="2.37493">
        <ele>109.9</ele>
        <time>2015-01-12T20:35:02.097Z</time>
      </trkpt>
      <trkpt lat="48.86832" lon="2.37489">
        <ele>110.2</ele>
        <time>2015-01-12T20:35:02.704Z</time>
      </trkpt>
      <trkpt lat="48.86836" lon="2.37485">
        <ele>110.4</ele>
        <time>2015-01-12T20:35:03.603Z</time>
      </trkpt>
      <trkpt lat="48.86839" lon="2.37481">
        <ele>110.5</ele>
        <time>2015-01-12T20:35:04.639Z</time>
      </trkpt>
      <trkpt lat="48.86843" lon="2.37479">
        <ele>110.7</ele>
        <time>2015-01-12T20:35:05.688Z</time>
      </trkpt>
      <trkpt lat="48.86849" lon="2.37477">
        <ele>110.9</ele>
        <time>2015-01-12T20:35:06.694Z</time>
      </trkpt>
      <trkpt lat="48.86855" lon="2.37476">
        <ele>111</ele>
        <time>2015-01-12T20:35:07.709Z</time>
      </trkpt>
      <trkpt lat="48.86862" lon="2.37474">
        <ele>111</ele>
        <time>2015-01-12T20:35:08.654Z</time>
      </trkpt>
      <trkpt lat="48.86867" lon="2.3747">
        <ele>110.8</ele>
        <time>2015-01-12T20:35:09.637Z</time>
      </trkpt>
      <trkpt lat="48.86872" lon="2.37467">
        <ele>110.7</ele>
        <time>2015-01-12T20:35:10.654Z</time>
      </trkpt>
      <trkpt lat="48.86877" lon="2.37462">
        <ele>110.7</ele>
        <time>2015-01-12T20:35:11.666Z</time>
      </trkpt>
      <trkpt lat="48.8688" lon="2.37457">
        <ele>110.8</ele>
        <time>2015-01-12T20:35:12.672Z</time>
      </trkpt>
      <trkpt lat="48.86883" lon="2.37448">
        <ele>110.6</ele>
        <time>2015-01-12T20:35:14.683Z</time>
      </trkpt>
      <trkpt lat="48.86882" lon="2.37443">
        <ele>110.2</ele>
        <time>2015-01-12T20:35:15.708Z</time>
      </trkpt>
      <trkpt lat="48.86889" lon="2.37438">
        <ele>108.3</ele>
        <time>2015-01-12T20:35:19.701Z</time>
      </trkpt>
      <trkpt lat="48.86893" lon="2.37432">
        <ele>108.2</ele>
        <time>2015-01-12T20:35:20.716Z</time>
      </trkpt>
      <trkpt lat="48.86898" lon="2.37422">
        <ele>108.5</ele>
        <time>2015-01-12T20:35:22.635Z</time>
      </trkpt>
      <trkpt lat="48.86899" lon="2.37415">
        <ele>108.4</ele>
        <time>2015-01-12T20:35:23.661Z</time>
      </trkpt>
      <trkpt lat="48.86901" lon="2.37413">
        <ele>108.6</ele>
        <time>2015-01-12T20:35:24.718Z</time>
      </trkpt>
      <trkpt lat="48.86903" lon="2.37413">
        <ele>108.7</ele>
        <time>2015-01-12T20:35:40.138Z</time>
      </trkpt>
      <trkpt lat="48.86936" lon="2.37402">
        <ele>108.4</ele>
        <time>2015-01-12T20:35:40.706Z</time>
      </trkpt>
      <trkpt lat="48.86943" lon="2.37398">
        <ele>109.9</ele>
        <time>2015-01-12T20:35:45.256Z</time>
      </trkpt>
      <trkpt lat="48.86945" lon="2.37395">
        <ele>110.3</ele>
        <time>2015-01-12T20:35:45.637Z</time>
      </trkpt>
      <trkpt lat="48.8695" lon="2.37387">
        <ele>111.6</ele>
        <time>2015-01-12T20:35:47.659Z</time>
      </trkpt>
      <trkpt lat="48.86953" lon="2.37382">
        <ele>111.7</ele>
        <time>2015-01-12T20:35:48.687Z</time>
      </trkpt>
      <trkpt lat="48.86962" lon="2.37378">
        <ele>111.8</ele>
        <time>2015-01-12T20:35:50.628Z</time>
      </trkpt>
      <trkpt lat="48.86966" lon="2.37378">
        <ele>111.8</ele>
        <time>2015-01-12T20:35:51.680Z</time>
      </trkpt>
      <trkpt lat="48.86975" lon="2.37379">
        <ele>111.9</ele>
        <time>2015-01-12T20:35:53.589Z</time>
      </trkpt>
      <trkpt lat="48.86978" lon="2.37378">
        <ele>112.1</ele>
        <time>2015-01-12T20:35:54.640Z</time>
      </trkpt>
      <trkpt lat="48.86981" lon="2.37375">
        <ele>112.4</ele>
        <time>2015-01-12T20:35:55.661Z</time>
      </trkpt>
      <trkpt lat="48.86985" lon="2.37367">
        <ele>112.5</ele>
        <time>2015-01-12T20:35:56.664Z</time>
      </trkpt>
      <trkpt lat="48.86991" lon="2.37358">
        <ele>112.4</ele>
        <time>2015-01-12T20:35:57.595Z</time>
      </trkpt>
      <trkpt lat="48.86995" lon="2.37349">
        <ele>112.8</ele>
        <time>2015-01-12T20:35:58.612Z</time>
      </trkpt>
      <trkpt lat="48.86999" lon="2.37341">
        <ele>113.1</ele>
        <time>2015-01-12T20:35:59.692Z</time>
      </trkpt>
      <trkpt lat="48.87001" lon="2.37335">
        <ele>113.4</ele>
        <time>2015-01-12T20:36:00.589Z</time>
      </trkpt>
      <trkpt lat="48.87007" lon="2.37329">
        <ele>113.5</ele>
        <time>2015-01-12T20:36:02.587Z</time>
      </trkpt>
      <trkpt lat="48.8701" lon="2.37324">
        <ele>113.9</ele>
        <time>2015-01-12T20:36:03.607Z</time>
      </trkpt>
      <trkpt lat="48.87013" lon="2.37313">
        <ele>114.2</ele>
        <time>2015-01-12T20:36:05.608Z</time>
      </trkpt>
      <trkpt lat="48.87014" lon="2.37308">
        <ele>114.4</ele>
        <time>2015-01-12T20:36:06.620Z</time>
      </trkpt>
      <trkpt lat="48.87022" lon="2.37301">
        <ele>114.3</ele>
        <time>2015-01-12T20:36:09.637Z</time>
      </trkpt>
      <trkpt lat="48.87026" lon="2.373">
        <ele>113</ele>
        <time>2015-01-12T20:36:10.621Z</time>
      </trkpt>
      <trkpt lat="48.87032" lon="2.37297">
        <ele>111.8</ele>
        <time>2015-01-12T20:36:11.713Z</time>
      </trkpt>
      <trkpt lat="48.8704" lon="2.37294">
        <ele>111.9</ele>
        <time>2015-01-12T20:36:12.727Z</time>
      </trkpt>
      <trkpt lat="48.87048" lon="2.37292">
        <ele>113</ele>
        <time>2015-01-12T20:36:14.705Z</time>
      </trkpt>
      <trkpt lat="48.87051" lon="2.3729">
        <ele>113.7</ele>
        <time>2015-01-12T20:36:15.701Z</time>
      </trkpt>
      <trkpt lat="48.87057" lon="2.37286">
        <ele>115.1</ele>
        <time>2015-01-12T20:36:17.621Z</time>
      </trkpt>
      <trkpt lat="48.87061" lon="2.37283">
        <ele>115.8</ele>
        <time>2015-01-12T20:36:18.629Z</time>
      </trkpt>
      <trkpt lat="48.87068" lon="2.37278">
        <ele>116.4</ele>
        <time>2015-01-12T20:36:19.675Z</time>
      </trkpt>
      <trkpt lat="48.87073" lon="2.37277">
        <ele>116.9</ele>
        <time>2015-01-12T20:36:20.667Z</time>
      </trkpt>
      <trkpt lat="48.87079" lon="2.37273">
        <ele>117.4</ele>
        <time>2015-01-12T20:36:21.698Z</time>
      </trkpt>
      <trkpt lat="48.87084" lon="2.37271">
        <ele>118</ele>
        <time>2015-01-12T20:36:22.617Z</time>
      </trkpt>
      <trkpt lat="48.87089" lon="2.37269">
        <ele>118.5</ele>
        <time>2015-01-12T20:36:23.599Z</time>
      </trkpt>
      <trkpt lat="48.87093" lon="2.37265">
        <ele>118.5</ele>
        <time>2015-01-12T20:36:24.634Z</time>
      </trkpt>
      <trkpt lat="48.871" lon="2.3726">
        <ele>119.1</ele>
        <time>2015-01-12T20:36:28.648Z</time>
      </trkpt>
      <trkpt lat="48.87102" lon="2.3726">
        <ele>119.2</ele>
        <time>2015-01-12T20:36:29.704Z</time>
      </trkpt>
      <trkpt lat="48.87109" lon="2.37259">
        <ele>118.7</ele>
        <time>2015-01-12T20:36:35.625Z</time>
      </trkpt>
      <trkpt lat="48.87115" lon="2.3726">
        <ele>117.9</ele>
        <time>2015-01-12T20:36:36.623Z</time>
      </trkpt>
      <trkpt lat="48.87123" lon="2.37258">
        <ele>116.5</ele>
        <time>2015-01-12T20:36:38.627Z</time>
      </trkpt>
      <trkpt lat="48.87129" lon="2.37253">
        <ele>115.5</ele>
        <time>2015-01-12T20:36:39.630Z</time>
      </trkpt>
      <trkpt lat="48.87136" lon="2.3724">
        <ele>112.2</ele>
        <time>2015-01-12T20:36:40.642Z</time>
      </trkpt>
      <trkpt lat="48.87143" lon="2.37231">
        <ele>110.9</ele>
        <time>2015-01-12T20:36:41.664Z</time>
      </trkpt>
      <trkpt lat="48.87147" lon="2.37226">
        <ele>111</ele>
        <time>2015-01-12T20:36:42.667Z</time>
      </trkpt>
      <trkpt lat="48.87154" lon="2.3722">
        <ele>111.8</ele>
        <time>2015-01-12T20:36:43.689Z</time>
      </trkpt>
      <trkpt lat="48.87156" lon="2.37217">
        <ele>112.3</ele>
        <time>2015-01-12T20:36:44.697Z</time>
      </trkpt>
      <trkpt lat="48.87159" lon="2.3721">
        <ele>113.7</ele>
        <time>2015-01-12T20:36:47.630Z</time>
      </trkpt>
      <trkpt lat="48.87165" lon="2.37204">
        <ele>115.1</ele>
        <time>2015-01-12T20:36:48.643Z</time>
      </trkpt>
      <trkpt lat="48.87172" lon="2.37196">
        <ele>115.6</ele>
        <time>2015-01-12T20:36:50.676Z</time>
      </trkpt>
      <trkpt lat="48.87174" lon="2.37192">
        <ele>115.6</ele>
        <time>2015-01-12T20:36:51.711Z</time>
      </trkpt>
      <trkpt lat="48.87178" lon="2.37184">
        <ele>115.7</ele>
        <time>2015-01-12T20:36:52.622Z</time>
      </trkpt>
      <trkpt lat="48.87183" lon="2.37177">
        <ele>115.8</ele>
        <time>2015-01-12T20:36:53.630Z</time>
      </trkpt>
      <trkpt lat="48.87187" lon="2.3717">
        <ele>115.7</ele>
        <time>2015-01-12T20:36:54.633Z</time>
      </trkpt>
      <trkpt lat="48.87191" lon="2.37165">
        <ele>115.5</ele>
        <time>2015-01-12T20:36:55.684Z</time>
      </trkpt>
      <trkpt lat="48.87196" lon="2.37162">
        <ele>115.7</ele>
        <time>2015-01-12T20:36:56.618Z</time>
      </trkpt>
      <trkpt lat="48.87199" lon="2.37157">
        <ele>115.7</ele>
        <time>2015-01-12T20:36:57.640Z</time>
      </trkpt>
      <trkpt lat="48.87204" lon="2.37149">
        <ele>115.8</ele>
        <time>2015-01-12T20:36:58.653Z</time>
      </trkpt>
      <trkpt lat="48.87209" lon="2.37144">
        <ele>115.9</ele>
        <time>2015-01-12T20:36:59.670Z</time>
      </trkpt>
      <trkpt lat="48.87216" lon="2.37139">
        <ele>116</ele>
        <time>2015-01-12T20:37:01.665Z</time>
      </trkpt>
      <trkpt lat="48.8722" lon="2.37134">
        <ele>115.9</ele>
        <time>2015-01-12T20:37:02.744Z</time>
      </trkpt>
      <trkpt lat="48.87225" lon="2.37129">
        <ele>116.1</ele>
        <time>2015-01-12T20:37:03.611Z</time>
      </trkpt>
      <trkpt lat="48.87232" lon="2.37128">
        <ele>115.6</ele>
        <time>2015-01-12T20:37:04.606Z</time>
      </trkpt>
      <trkpt lat="48.87238" lon="2.37127">
        <ele>114.9</ele>
        <time>2015-01-12T20:37:05.651Z</time>
      </trkpt>
      <trkpt lat="48.87243" lon="2.37121">
        <ele>114.6</ele>
        <time>2015-01-12T20:37:06.665Z</time>
      </trkpt>
      <trkpt lat="48.87248" lon="2.37116">
        <ele>114.7</ele>
        <time>2015-01-12T20:37:07.702Z</time>
      </trkpt>
      <trkpt lat="48.87253" lon="2.37112">
        <ele>114.8</ele>
        <time>2015-01-12T20:37:08.601Z</time>
      </trkpt>
      <trkpt lat="48.87257" lon="2.3711">
        <ele>114.8</ele>
        <time>2015-01-12T20:37:09.609Z</time>
      </trkpt>
      <trkpt lat="48.87262" lon="2.37109">
        <ele>114.8</ele>
        <time>2015-01-12T20:37:10.617Z</time>
      </trkpt>
      <trkpt lat="48.87268" lon="2.37109">
        <ele>114.8</ele>
        <time>2015-01-12T20:37:11.636Z</time>
      </trkpt>
      <trkpt lat="48.87272" lon="2.37108">
        <ele>114.7</ele>
        <time>2015-01-12T20:37:12.650Z</time>
      </trkpt>
      <trkpt lat="48.87276" lon="2.37105">
        <ele>114.8</ele>
        <time>2015-01-12T20:37:13.675Z</time>
      </trkpt>
      <trkpt lat="48.87282" lon="2.37102">
        <ele>114.7</ele>
        <time>2015-01-12T20:37:14.690Z</time>
      </trkpt>
      <trkpt lat="48.87288" lon="2.37099">
        <ele>114.7</ele>
        <time>2015-01-12T20:37:15.709Z</time>
      </trkpt>
      <trkpt lat="48.87293" lon="2.37098">
        <ele>114.6</ele>
        <time>2015-01-12T20:37:16.593Z</time>
      </trkpt>
      <trkpt lat="48.87298" lon="2.37097">
        <ele>114.4</ele>
        <time>2015-01-12T20:37:17.629Z</time>
      </trkpt>
      <trkpt lat="48.87303" lon="2.37095">
        <ele>114.3</ele>
        <time>2015-01-12T20:37:18.646Z</time>
      </trkpt>
      <trkpt lat="48.87308" lon="2.37093">
        <ele>114.2</ele>
        <time>2015-01-12T20:37:19.691Z</time>
      </trkpt>
      <trkpt lat="48.87311" lon="2.37089">
        <ele>114.2</ele>
        <time>2015-01-12T20:37:20.592Z</time>
      </trkpt>
      <trkpt lat="48.87316" lon="2.37083">
        <ele>114.1</ele>
        <time>2015-01-12T20:37:21.622Z</time>
      </trkpt>
      <trkpt lat="48.8732" lon="2.37077">
        <ele>114</ele>
        <time>2015-01-12T20:37:22.628Z</time>
      </trkpt>
      <trkpt lat="48.87326" lon="2.37072">
        <ele>113.9</ele>
        <time>2015-01-12T20:37:23.740Z</time>
      </trkpt>
      <trkpt lat="48.8733" lon="2.37066">
        <ele>113.5</ele>
        <time>2015-01-12T20:37:24.612Z</time>
      </trkpt>
      <trkpt lat="48.87337" lon="2.37058">
        <ele>112.4</ele>
        <time>2015-01-12T20:37:26.663Z</time>
      </trkpt>
      <trkpt lat="48.87341" lon="2.37047">
        <ele>109.6</ele>
        <time>2015-01-12T20:37:27.674Z</time>
      </trkpt>
      <trkpt lat="48.87345" lon="2.37036">
        <ele>106.7</ele>
        <time>2015-01-12T20:37:29.624Z</time>
      </trkpt>
      <trkpt lat="48.87347" lon="2.37035">
        <ele>106.9</ele>
        <time>2015-01-12T20:37:30.633Z</time>
      </trkpt>
      <trkpt lat="48.87354" lon="2.37032">
        <ele>108.1</ele>
        <time>2015-01-12T20:37:32.611Z</time>
      </trkpt>
      <trkpt lat="48.87359" lon="2.37032">
        <ele>108.5</ele>
        <time>2015-01-12T20:37:33.710Z</time>
      </trkpt>
      <trkpt lat="48.87367" lon="2.37034">
        <ele>108.5</ele>
        <time>2015-01-12T20:37:35.638Z</time>
      </trkpt>
      <trkpt lat="48.87368" lon="2.37035">
        <ele>108.6</ele>
        <time>2015-01-12T20:37:36.653Z</time>
      </trkpt>
      <trkpt lat="48.8737" lon="2.37036">
        <ele>108.7</ele>
        <time>2015-01-12T20:37:58.690Z</time>
      </trkpt>
      <trkpt lat="48.87383" lon="2.37058">
        <ele>105.3</ele>
        <time>2015-01-12T20:37:59.633Z</time>
      </trkpt>
      <trkpt lat="48.87387" lon="2.37069">
        <ele>104.7</ele>
        <time>2015-01-12T20:38:02.668Z</time>
      </trkpt>
      <trkpt lat="48.87387" lon="2.37073">
        <ele>104.7</ele>
        <time>2015-01-12T20:38:03.697Z</time>
      </trkpt>
      <trkpt lat="48.8739" lon="2.37086">
        <ele>104.4</ele>
        <time>2015-01-12T20:38:06.617Z</time>
      </trkpt>
      <trkpt lat="48.87391" lon="2.3709">
        <ele>104.4</ele>
        <time>2015-01-12T20:38:07.651Z</time>
      </trkpt>
      <trkpt lat="48.87393" lon="2.371">
        <ele>103.9</ele>
        <time>2015-01-12T20:38:09.598Z</time>
      </trkpt>
      <trkpt lat="48.87394" lon="2.37103">
        <ele>103.5</ele>
        <time>2015-01-12T20:38:10.637Z</time>
      </trkpt>
      <trkpt lat="48.87398" lon="2.37113">
        <ele>102.8</ele>
        <time>2015-01-12T20:38:13.744Z</time>
      </trkpt>
      <trkpt lat="48.874" lon="2.37119">
        <ele>102.3</ele>
        <time>2015-01-12T20:38:14.645Z</time>
      </trkpt>
      <trkpt lat="48.87401" lon="2.37124">
        <ele>102.3</ele>
        <time>2015-01-12T20:38:16.515Z</time>
      </trkpt>
      <trkpt lat="48.87405" lon="2.37138">
        <ele>102.5</ele>
        <time>2015-01-12T20:38:18.623Z</time>
      </trkpt>
      <trkpt lat="48.87406" lon="2.37143">
        <ele>102.2</ele>
        <time>2015-01-12T20:38:19.720Z</time>
      </trkpt>
      <trkpt lat="48.87415" lon="2.37268">
        <ele>103.9</ele>
        <time>2015-01-12T20:38:37.625Z</time>
      </trkpt>
      <trkpt lat="48.87415" lon="2.37276">
        <ele>104.6</ele>
        <time>2015-01-12T20:38:38.587Z</time>
      </trkpt>
      <trkpt lat="48.87413" lon="2.37285">
        <ele>105.1</ele>
        <time>2015-01-12T20:38:39.590Z</time>
      </trkpt>
      <trkpt lat="48.87413" lon="2.37296">
        <ele>105.7</ele>
        <time>2015-01-12T20:38:41.616Z</time>
      </trkpt>
      <trkpt lat="48.87414" lon="2.37299">
        <ele>106</ele>
        <time>2015-01-12T20:38:42.629Z</time>
      </trkpt>
      <trkpt lat="48.87423" lon="2.373">
        <ele>105.5</ele>
        <time>2015-01-12T20:38:45.609Z</time>
      </trkpt>
      <trkpt lat="48.87426" lon="2.373">
        <ele>104.9</ele>
        <time>2015-01-12T20:38:46.650Z</time>
      </trkpt>
      <trkpt lat="48.87433" lon="2.37293">
        <ele>104.1</ele>
        <time>2015-01-12T20:38:48.604Z</time>
      </trkpt>
      <trkpt lat="48.87435" lon="2.37288">
        <ele>103.6</ele>
        <time>2015-01-12T20:38:49.672Z</time>
      </trkpt>
      <trkpt lat="48.87435" lon="2.37288">
        <ele>103.6</ele>
        <time>2015-01-12T20:39:03.662Z</time>
      </trkpt>
      <trkpt lat="48.87462" lon="2.37274">
        <ele>108.6</ele>
        <time>2015-01-12T20:39:04.603Z</time>
      </trkpt>
      <trkpt lat="48.87464" lon="2.37285">
        <ele>110.9</ele>
        <time>2015-01-12T20:39:08.601Z</time>
      </trkpt>
      <trkpt lat="48.87464" lon="2.37289">
        <ele>111.3</ele>
        <time>2015-01-12T20:39:09.607Z</time>
      </trkpt>
      <trkpt lat="48.87457" lon="2.37296">
        <ele>113.8</ele>
        <time>2015-01-12T20:39:15.629Z</time>
      </trkpt>
      <trkpt lat="48.87457" lon="2.373">
        <ele>114.2</ele>
        <time>2015-01-12T20:39:16.650Z</time>
      </trkpt>
      <trkpt lat="48.87455" lon="2.37306">
        <ele>114.9</ele>
        <time>2015-01-12T20:39:18.684Z</time>
      </trkpt>
      <trkpt lat="48.87453" lon="2.37313">
        <ele>114.7</ele>
        <time>2015-01-12T20:39:19.703Z</time>
      </trkpt>
      <trkpt lat="48.87452" lon="2.3732">
        <ele>114.9</ele>
        <time>2015-01-12T20:39:20.617Z</time>
      </trkpt>
      <trkpt lat="48.87451" lon="2.37328">
        <ele>115.3</ele>
        <time>2015-01-12T20:39:21.627Z</time>
      </trkpt>
      <trkpt lat="48.87449" lon="2.37338">
        <ele>116.6</ele>
        <time>2015-01-12T20:39:23.586Z</time>
      </trkpt>
      <trkpt lat="48.87449" lon="2.37341">
        <ele>116.9</ele>
        <time>2015-01-12T20:39:24.678Z</time>
      </trkpt>
      <trkpt lat="48.87446" lon="2.37353">
        <ele>117.7</ele>
        <time>2015-01-12T20:39:28.279Z</time>
      </trkpt>
      <trkpt lat="48.87445" lon="2.37361">
        <ele>117.4</ele>
        <time>2015-01-12T20:39:28.640Z</time>
      </trkpt>
      <trkpt lat="48.87444" lon="2.37371">
        <ele>116.5</ele>
        <time>2015-01-12T20:39:29.665Z</time>
      </trkpt>
      <trkpt lat="48.87444" lon="2.37379">
        <ele>116.4</ele>
        <time>2015-01-12T20:39:30.704Z</time>
      </trkpt>
      <trkpt lat="48.87442" lon="2.37388">
        <ele>116.6</ele>
        <time>2015-01-12T20:39:31.721Z</time>
      </trkpt>
      <trkpt lat="48.87442" lon="2.37395">
        <ele>116.7</ele>
        <time>2015-01-12T20:39:32.597Z</time>
      </trkpt>
      <trkpt lat="48.87446" lon="2.37404">
        <ele>116.6</ele>
        <time>2015-01-12T20:39:36.672Z</time>
      </trkpt>
      <trkpt lat="48.87446" lon="2.37406">
        <ele>116.8</ele>
        <time>2015-01-12T20:39:37.681Z</time>
      </trkpt>
      <trkpt lat="48.87446" lon="2.37406">
        <ele>116.8</ele>
        <time>2015-01-12T20:40:25.671Z</time>
      </trkpt>
      <trkpt lat="48.87456" lon="2.3745">
        <ele>126.5</ele>
        <time>2015-01-12T20:40:26.583Z</time>
      </trkpt>
      <trkpt lat="48.87458" lon="2.3746">
        <ele>126.2</ele>
        <time>2015-01-12T20:40:28.631Z</time>
      </trkpt>
      <trkpt lat="48.87459" lon="2.37466">
        <ele>125.8</ele>
        <time>2015-01-12T20:40:29.645Z</time>
      </trkpt>
      <trkpt lat="48.87459" lon="2.37479">
        <ele>124.8</ele>
        <time>2015-01-12T20:40:31.693Z</time>
      </trkpt>
      <trkpt lat="48.87457" lon="2.37485">
        <ele>124.5</ele>
        <time>2015-01-12T20:40:32.588Z</time>
      </trkpt>
      <trkpt lat="48.87457" lon="2.37496">
        <ele>124.2</ele>
        <time>2015-01-12T20:40:34.640Z</time>
      </trkpt>
      <trkpt lat="48.87458" lon="2.37501">
        <ele>124.2</ele>
        <time>2015-01-12T20:40:35.646Z</time>
      </trkpt>
      <trkpt lat="48.87461" lon="2.37509">
        <ele>124.4</ele>
        <time>2015-01-12T20:40:39.588Z</time>
      </trkpt>
      <trkpt lat="48.87462" lon="2.37513">
        <ele>124</ele>
        <time>2015-01-12T20:40:40.587Z</time>
      </trkpt>
      <trkpt lat="48.87465" lon="2.3752">
        <ele>123.2</ele>
        <time>2015-01-12T20:40:46.699Z</time>
      </trkpt>
      <trkpt lat="48.87477" lon="2.3753">
        <ele>125.8</ele>
        <time>2015-01-12T20:41:03.589Z</time>
      </trkpt>
      <trkpt lat="48.87477" lon="2.3753">
        <ele>125.8</ele>
        <time>2015-01-12T20:41:12.625Z</time>
      </trkpt>
      <trkpt lat="48.87489" lon="2.37536">
        <ele>130.4</ele>
        <time>2015-01-12T20:41:13.639Z</time>
      </trkpt>
      <trkpt lat="48.87493" lon="2.37548">
        <ele>131.1</ele>
        <time>2015-01-12T20:41:17.669Z</time>
      </trkpt>
      <trkpt lat="48.87517" lon="2.37596">
        <ele>125.6</ele>
        <time>2015-01-12T20:41:29.697Z</time>
      </trkpt>
      <trkpt lat="48.87523" lon="2.37593">
        <ele>125.4</ele>
        <time>2015-01-12T20:41:33.678Z</time>
      </trkpt>
      <trkpt lat="48.87526" lon="2.3759">
        <ele>125.2</ele>
        <time>2015-01-12T20:41:34.606Z</time>
      </trkpt>
      <trkpt lat="48.8753" lon="2.3758">
        <ele>124.2</ele>
        <time>2015-01-12T20:41:36.745Z</time>
      </trkpt>
      <trkpt lat="48.87532" lon="2.37577">
        <ele>124.2</ele>
        <time>2015-01-12T20:41:37.694Z</time>
      </trkpt>
      <trkpt lat="48.87534" lon="2.37574">
        <ele>124.3</ele>
        <time>2015-01-12T20:42:31.771Z</time>
      </trkpt>
      <trkpt lat="48.8756" lon="2.37587">
        <ele>131.2</ele>
        <time>2015-01-12T20:42:49.602Z</time>
      </trkpt>
      <trkpt lat="48.87566" lon="2.37591">
        <ele>131</ele>
        <time>2015-01-12T20:42:52.651Z</time>
      </trkpt>
      <trkpt lat="48.87569" lon="2.37592">
        <ele>130.8</ele>
        <time>2015-01-12T20:42:53.562Z</time>
      </trkpt>
      <trkpt lat="48.87574" lon="2.3759">
        <ele>130.5</ele>
        <time>2015-01-12T20:42:56.773Z</time>
      </trkpt>
      <trkpt lat="48.87586" lon="2.37588">
        <ele>130.3</ele>
        <time>2015-01-12T20:43:02.630Z</time>
      </trkpt>
      <trkpt lat="48.87592" lon="2.37595">
        <ele>130.8</ele>
        <time>2015-01-12T20:43:06.630Z</time>
      </trkpt>
      <trkpt lat="48.87593" lon="2.37597">
        <ele>131.7</ele>
        <time>2015-01-12T20:43:07.659Z</time>
      </trkpt>
      <trkpt lat="48.87601" lon="2.37595">
        <ele>134.8</ele>
        <time>2015-01-12T20:43:12.645Z</time>
      </trkpt>
      <trkpt lat="48.87604" lon="2.37597">
        <ele>135.5</ele>
        <time>2015-01-12T20:43:13.679Z</time>
      </trkpt>
      <trkpt lat="48.87612" lon="2.37599">
        <ele>136.7</ele>
        <time>2015-01-12T20:44:12.723Z</time>
      </trkpt>
      <trkpt lat="48.87637" lon="2.37605">
        <ele>135.2</ele>
        <time>2015-01-12T20:44:13.633Z</time>
      </trkpt>
      <trkpt lat="48.8764" lon="2.37596">
        <ele>134.1</ele>
        <time>2015-01-12T20:44:16.319Z</time>
      </trkpt>
      <trkpt lat="48.87641" lon="2.37592">
        <ele>133.7</ele>
        <time>2015-01-12T20:44:16.719Z</time>
      </trkpt>
      <trkpt lat="48.87641" lon="2.37581">
        <ele>132.9</ele>
        <time>2015-01-12T20:44:18.635Z</time>
      </trkpt>
      <trkpt lat="48.87641" lon="2.37575">
        <ele>132.4</ele>
        <time>2015-01-12T20:44:19.622Z</time>
      </trkpt>
      <trkpt lat="48.87641" lon="2.37562">
        <ele>132</ele>
        <time>2015-01-12T20:44:22.650Z</time>
      </trkpt>
      <trkpt lat="48.87641" lon="2.37556">
        <ele>131.8</ele>
        <time>2015-01-12T20:44:23.659Z</time>
      </trkpt>
      <trkpt lat="48.8764" lon="2.37546">
        <ele>132.4</ele>
        <time>2015-01-12T20:44:25.748Z</time>
      </trkpt>
      <trkpt lat="48.8764" lon="2.37541">
        <ele>132.9</ele>
        <time>2015-01-12T20:44:26.685Z</time>
      </trkpt>
      <trkpt lat="48.87641" lon="2.37528">
        <ele>133</ele>
        <time>2015-01-12T20:44:28.674Z</time>
      </trkpt>
      <trkpt lat="48.87643" lon="2.37523">
        <ele>133.6</ele>
        <time>2015-01-12T20:44:29.831Z</time>
      </trkpt>
      <trkpt lat="48.87647" lon="2.37515">
        <ele>133.9</ele>
        <time>2015-01-12T20:44:31.674Z</time>
      </trkpt>
      <trkpt lat="48.87649" lon="2.3751">
        <ele>134</ele>
        <time>2015-01-12T20:44:32.699Z</time>
      </trkpt>
      <trkpt lat="48.87653" lon="2.37499">
        <ele>134.4</ele>
        <time>2015-01-12T20:44:35.332Z</time>
      </trkpt>
      <trkpt lat="48.87655" lon="2.37494">
        <ele>134.5</ele>
        <time>2015-01-12T20:44:35.712Z</time>
      </trkpt>
      <trkpt lat="48.87659" lon="2.37485">
        <ele>134.7</ele>
        <time>2015-01-12T20:44:37.629Z</time>
      </trkpt>
      <trkpt lat="48.87661" lon="2.3748">
        <ele>134.8</ele>
        <time>2015-01-12T20:44:38.649Z</time>
      </trkpt>
      <trkpt lat="48.87669" lon="2.37474">
        <ele>134.9</ele>
        <time>2015-01-12T20:44:40.613Z</time>
      </trkpt>
      <trkpt lat="48.87674" lon="2.37473">
        <ele>134.1</ele>
        <time>2015-01-12T20:44:41.600Z</time>
      </trkpt>
      <trkpt lat="48.87678" lon="2.3747">
        <ele>133.9</ele>
        <time>2015-01-12T20:44:42.634Z</time>
      </trkpt>
      <trkpt lat="48.87683" lon="2.37467">
        <ele>133.7</ele>
        <time>2015-01-12T20:44:43.650Z</time>
      </trkpt>
      <trkpt lat="48.87689" lon="2.37464">
        <ele>134</ele>
        <time>2015-01-12T20:44:45.656Z</time>
      </trkpt>
      <trkpt lat="48.87692" lon="2.37462">
        <ele>134.5</ele>
        <time>2015-01-12T20:44:46.680Z</time>
      </trkpt>
      <trkpt lat="48.87699" lon="2.37457">
        <ele>135</ele>
        <time>2015-01-12T20:44:49.543Z</time>
      </trkpt>
      <trkpt lat="48.87702" lon="2.37456">
        <ele>135.3</ele>
        <time>2015-01-12T20:44:49.639Z</time>
      </trkpt>
      <trkpt lat="48.8771" lon="2.37453">
        <ele>135.3</ele>
        <time>2015-01-12T20:44:51.670Z</time>
      </trkpt>
      <trkpt lat="48.87714" lon="2.37452">
        <ele>135.5</ele>
        <time>2015-01-12T20:44:52.675Z</time>
      </trkpt>
      <trkpt lat="48.87719" lon="2.3745">
        <ele>135.8</ele>
        <time>2015-01-12T20:44:54.553Z</time>
      </trkpt>
      <trkpt lat="48.87723" lon="2.37448">
        <ele>135.7</ele>
        <time>2015-01-12T20:44:54.592Z</time>
      </trkpt>
      <trkpt lat="48.8773" lon="2.37443">
        <ele>135.9</ele>
        <time>2015-01-12T20:44:56.615Z</time>
      </trkpt>
      <trkpt lat="48.87736" lon="2.37436">
        <ele>136</ele>
        <time>2015-01-12T20:44:57.612Z</time>
      </trkpt>
      <trkpt lat="48.87743" lon="2.37429">
        <ele>135.9</ele>
        <time>2015-01-12T20:44:58.619Z</time>
      </trkpt>
      <trkpt lat="48.8775" lon="2.37417">
        <ele>136.3</ele>
        <time>2015-01-12T20:44:59.686Z</time>
      </trkpt>
      <trkpt lat="48.87756" lon="2.37413">
        <ele>136.3</ele>
        <time>2015-01-12T20:45:00.603Z</time>
      </trkpt>
      <trkpt lat="48.87763" lon="2.37412">
        <ele>136.3</ele>
        <time>2015-01-12T20:45:01.661Z</time>
      </trkpt>
      <trkpt lat="48.8777" lon="2.37415">
        <ele>136.8</ele>
        <time>2015-01-12T20:45:03.663Z</time>
      </trkpt>
      <trkpt lat="48.87773" lon="2.37417">
        <ele>137</ele>
        <time>2015-01-12T20:45:04.678Z</time>
      </trkpt>
      <trkpt lat="48.87781" lon="2.37416">
        <ele>136.1</ele>
        <time>2015-01-12T20:45:06.636Z</time>
      </trkpt>
      <trkpt lat="48.87785" lon="2.37414">
        <ele>135.3</ele>
        <time>2015-01-12T20:45:07.707Z</time>
      </trkpt>
      <trkpt lat="48.87793" lon="2.37419">
        <ele>135.2</ele>
        <time>2015-01-12T20:45:09.608Z</time>
      </trkpt>
      <trkpt lat="48.87797" lon="2.37423">
        <ele>135.5</ele>
        <time>2015-01-12T20:45:10.625Z</time>
      </trkpt>
      <trkpt lat="48.87802" lon="2.37427">
        <ele>135.5</ele>
        <time>2015-01-12T20:45:11.633Z</time>
      </trkpt>
      <trkpt lat="48.87809" lon="2.37427">
        <ele>135.2</ele>
        <time>2015-01-12T20:45:12.645Z</time>
      </trkpt>
      <trkpt lat="48.87816" lon="2.37429">
        <ele>134.6</ele>
        <time>2015-01-12T20:45:13.655Z</time>
      </trkpt>
      <trkpt lat="48.87822" lon="2.37433">
        <ele>134.2</ele>
        <time>2015-01-12T20:45:14.659Z</time>
      </trkpt>
      <trkpt lat="48.87829" lon="2.37435">
        <ele>133.1</ele>
        <time>2015-01-12T20:45:16.600Z</time>
      </trkpt>
      <trkpt lat="48.87833" lon="2.37435">
        <ele>133.1</ele>
        <time>2015-01-12T20:45:17.609Z</time>
      </trkpt>
      <trkpt lat="48.87839" lon="2.37432">
        <ele>132</ele>
        <time>2015-01-12T20:45:18.645Z</time>
      </trkpt>
      <trkpt lat="48.87848" lon="2.37429">
        <ele>131.4</ele>
        <time>2015-01-12T20:45:19.648Z</time>
      </trkpt>
      <trkpt lat="48.87856" lon="2.37427">
        <ele>130.9</ele>
        <time>2015-01-12T20:45:20.677Z</time>
      </trkpt>
      <trkpt lat="48.87861" lon="2.37425">
        <ele>130.6</ele>
        <time>2015-01-12T20:45:21.595Z</time>
      </trkpt>
      <trkpt lat="48.87866" lon="2.37426">
        <ele>130.6</ele>
        <time>2015-01-12T20:45:22.628Z</time>
      </trkpt>
      <trkpt lat="48.87873" lon="2.37429">
        <ele>130.7</ele>
        <time>2015-01-12T20:45:23.682Z</time>
      </trkpt>
      <trkpt lat="48.8788" lon="2.3743">
        <ele>131.1</ele>
        <time>2015-01-12T20:45:24.596Z</time>
      </trkpt>
      <trkpt lat="48.87887" lon="2.37432">
        <ele>131.5</ele>
        <time>2015-01-12T20:45:25.636Z</time>
      </trkpt>
      <trkpt lat="48.87894" lon="2.37435">
        <ele>132</ele>
        <time>2015-01-12T20:45:26.650Z</time>
      </trkpt>
      <trkpt lat="48.879" lon="2.37437">
        <ele>132.5</ele>
        <time>2015-01-12T20:45:27.655Z</time>
      </trkpt>
      <trkpt lat="48.87912" lon="2.37445">
        <ele>132.8</ele>
        <time>2015-01-12T20:45:30.601Z</time>
      </trkpt>
      <trkpt lat="48.87919" lon="2.37445">
        <ele>132.6</ele>
        <time>2015-01-12T20:45:31.684Z</time>
      </trkpt>
      <trkpt lat="48.87926" lon="2.37447">
        <ele>131.9</ele>
        <time>2015-01-12T20:45:32.582Z</time>
      </trkpt>
      <trkpt lat="48.87932" lon="2.37448">
        <ele>131.9</ele>
        <time>2015-01-12T20:45:33.610Z</time>
      </trkpt>
      <trkpt lat="48.87938" lon="2.37447">
        <ele>131.8</ele>
        <time>2015-01-12T20:45:34.626Z</time>
      </trkpt>
      <trkpt lat="48.87945" lon="2.37446">
        <ele>131.6</ele>
        <time>2015-01-12T20:45:35.640Z</time>
      </trkpt>
      <trkpt lat="48.87952" lon="2.37444">
        <ele>131.1</ele>
        <time>2015-01-12T20:45:36.652Z</time>
      </trkpt>
      <trkpt lat="48.87959" lon="2.37446">
        <ele>130</ele>
        <time>2015-01-12T20:45:37.657Z</time>
      </trkpt>
      <trkpt lat="48.87965" lon="2.37446">
        <ele>129</ele>
        <time>2015-01-12T20:45:38.669Z</time>
      </trkpt>
      <trkpt lat="48.87971" lon="2.37445">
        <ele>128.5</ele>
        <time>2015-01-12T20:45:39.735Z</time>
      </trkpt>
      <trkpt lat="48.87976" lon="2.37443">
        <ele>128.1</ele>
        <time>2015-01-12T20:45:40.569Z</time>
      </trkpt>
      <trkpt lat="48.87985" lon="2.37443">
        <ele>128.1</ele>
        <time>2015-01-12T20:45:42.616Z</time>
      </trkpt>
      <trkpt lat="48.8799" lon="2.37443">
        <ele>128.6</ele>
        <time>2015-01-12T20:45:43.659Z</time>
      </trkpt>
      <trkpt lat="48.87994" lon="2.37443">
        <ele>128.9</ele>
        <time>2015-01-12T20:45:44.681Z</time>
      </trkpt>
      <trkpt lat="48.88" lon="2.37441">
        <ele>129.3</ele>
        <time>2015-01-12T20:45:45.585Z</time>
      </trkpt>
      <trkpt lat="48.88004" lon="2.37438">
        <ele>128.8</ele>
        <time>2015-01-12T20:45:46.588Z</time>
      </trkpt>
      <trkpt lat="48.88009" lon="2.37435">
        <ele>128.6</ele>
        <time>2015-01-12T20:45:47.602Z</time>
      </trkpt>
      <trkpt lat="48.88013" lon="2.37431">
        <ele>128.2</ele>
        <time>2015-01-12T20:45:48.610Z</time>
      </trkpt>
      <trkpt lat="48.88018" lon="2.37428">
        <ele>127.9</ele>
        <time>2015-01-12T20:45:49.613Z</time>
      </trkpt>
      <trkpt lat="48.88025" lon="2.37425">
        <ele>126.9</ele>
        <time>2015-01-12T20:45:51.672Z</time>
      </trkpt>
      <trkpt lat="48.88029" lon="2.37423">
        <ele>126.3</ele>
        <time>2015-01-12T20:45:52.665Z</time>
      </trkpt>
      <trkpt lat="48.88034" lon="2.37421">
        <ele>125.7</ele>
        <time>2015-01-12T20:45:53.577Z</time>
      </trkpt>
      <trkpt lat="48.88041" lon="2.37419">
        <ele>126</ele>
        <time>2015-01-12T20:45:54.595Z</time>
      </trkpt>
      <trkpt lat="48.88046" lon="2.37416">
        <ele>126.6</ele>
        <time>2015-01-12T20:45:55.617Z</time>
      </trkpt>
      <trkpt lat="48.8805" lon="2.37414">
        <ele>125.9</ele>
        <time>2015-01-12T20:45:56.622Z</time>
      </trkpt>
      <trkpt lat="48.88055" lon="2.37411">
        <ele>125.9</ele>
        <time>2015-01-12T20:45:57.645Z</time>
      </trkpt>
      <trkpt lat="48.8806" lon="2.37407">
        <ele>125.7</ele>
        <time>2015-01-12T20:45:58.655Z</time>
      </trkpt>
      <trkpt lat="48.88065" lon="2.37402">
        <ele>125.4</ele>
        <time>2015-01-12T20:45:59.681Z</time>
      </trkpt>
      <trkpt lat="48.8807" lon="2.37398">
        <ele>125</ele>
        <time>2015-01-12T20:46:00.601Z</time>
      </trkpt>
      <trkpt lat="48.88076" lon="2.37394">
        <ele>124.8</ele>
        <time>2015-01-12T20:46:01.627Z</time>
      </trkpt>
      <trkpt lat="48.88081" lon="2.37389">
        <ele>124.8</ele>
        <time>2015-01-12T20:46:02.640Z</time>
      </trkpt>
      <trkpt lat="48.88088" lon="2.37381">
        <ele>124</ele>
        <time>2015-01-12T20:46:03.643Z</time>
      </trkpt>
      <trkpt lat="48.88094" lon="2.37373">
        <ele>123.6</ele>
        <time>2015-01-12T20:46:04.659Z</time>
      </trkpt>
      <trkpt lat="48.881" lon="2.37364">
        <ele>123.2</ele>
        <time>2015-01-12T20:46:05.583Z</time>
      </trkpt>
      <trkpt lat="48.88106" lon="2.37358">
        <ele>122.8</ele>
        <time>2015-01-12T20:46:06.594Z</time>
      </trkpt>
      <trkpt lat="48.88111" lon="2.37351">
        <ele>122.7</ele>
        <time>2015-01-12T20:46:07.629Z</time>
      </trkpt>
      <trkpt lat="48.88115" lon="2.37343">
        <ele>122.7</ele>
        <time>2015-01-12T20:46:08.653Z</time>
      </trkpt>
      <trkpt lat="48.88119" lon="2.37335">
        <ele>122.5</ele>
        <time>2015-01-12T20:46:09.585Z</time>
      </trkpt>
      <trkpt lat="48.88122" lon="2.37329">
        <ele>122.9</ele>
        <time>2015-01-12T20:46:10.588Z</time>
      </trkpt>
      <trkpt lat="48.88126" lon="2.3732">
        <ele>123.2</ele>
        <time>2015-01-12T20:46:12.608Z</time>
      </trkpt>
      <trkpt lat="48.88132" lon="2.37321">
        <ele>122.8</ele>
        <time>2015-01-12T20:46:13.658Z</time>
      </trkpt>
      <trkpt lat="48.88137" lon="2.37324">
        <ele>122.5</ele>
        <time>2015-01-12T20:46:14.632Z</time>
      </trkpt>
      <trkpt lat="48.8814" lon="2.37328">
        <ele>122.2</ele>
        <time>2015-01-12T20:46:15.637Z</time>
      </trkpt>
      <trkpt lat="48.88142" lon="2.37335">
        <ele>121.9</ele>
        <time>2015-01-12T20:46:16.651Z</time>
      </trkpt>
      <trkpt lat="48.88143" lon="2.37342">
        <ele>121.7</ele>
        <time>2015-01-12T20:46:17.687Z</time>
      </trkpt>
      <trkpt lat="48.88148" lon="2.37348">
        <ele>122.1</ele>
        <time>2015-01-12T20:46:18.572Z</time>
      </trkpt>
      <trkpt lat="48.8815" lon="2.37356">
        <ele>122.2</ele>
        <time>2015-01-12T20:46:19.630Z</time>
      </trkpt>
      <trkpt lat="48.88151" lon="2.37363">
        <ele>121.9</ele>
        <time>2015-01-12T20:46:20.617Z</time>
      </trkpt>
      <trkpt lat="48.88153" lon="2.37369">
        <ele>122.2</ele>
        <time>2015-01-12T20:46:21.611Z</time>
      </trkpt>
      <trkpt lat="48.88155" lon="2.37382">
        <ele>122.4</ele>
        <time>2015-01-12T20:46:23.660Z</time>
      </trkpt>
      <trkpt lat="48.88158" lon="2.37387">
        <ele>122.9</ele>
        <time>2015-01-12T20:46:24.687Z</time>
      </trkpt>
      <trkpt lat="48.88163" lon="2.37397">
        <ele>123.6</ele>
        <time>2015-01-12T20:46:26.608Z</time>
      </trkpt>
      <trkpt lat="48.88165" lon="2.374">
        <ele>123.4</ele>
        <time>2015-01-12T20:46:27.615Z</time>
      </trkpt>
      <trkpt lat="48.88169" lon="2.374">
        <ele>122.9</ele>
        <time>2015-01-12T20:46:28.646Z</time>
      </trkpt>
      <trkpt lat="48.88174" lon="2.37398">
        <ele>122.4</ele>
        <time>2015-01-12T20:46:29.665Z</time>
      </trkpt>
      <trkpt lat="48.88182" lon="2.37401">
        <ele>122</ele>
        <time>2015-01-12T20:46:31.632Z</time>
      </trkpt>
      <trkpt lat="48.88185" lon="2.37404">
        <ele>121.4</ele>
        <time>2015-01-12T20:46:32.654Z</time>
      </trkpt>
      <trkpt lat="48.88189" lon="2.3741">
        <ele>120.7</ele>
        <time>2015-01-12T20:46:34.655Z</time>
      </trkpt>
      <trkpt lat="48.88191" lon="2.37414">
        <ele>120.6</ele>
        <time>2015-01-12T20:46:35.656Z</time>
      </trkpt>
      <trkpt lat="48.88196" lon="2.37423">
        <ele>119.7</ele>
        <time>2015-01-12T20:46:37.665Z</time>
      </trkpt>
      <trkpt lat="48.88198" lon="2.37428">
        <ele>119.7</ele>
        <time>2015-01-12T20:46:38.642Z</time>
      </trkpt>
      <trkpt lat="48.88203" lon="2.37437">
        <ele>119.9</ele>
        <time>2015-01-12T20:46:40.585Z</time>
      </trkpt>
      <trkpt lat="48.88205" lon="2.37442">
        <ele>119.9</ele>
        <time>2015-01-12T20:46:41.648Z</time>
      </trkpt>
      <trkpt lat="48.88211" lon="2.37452">
        <ele>120</ele>
        <time>2015-01-12T20:46:43.658Z</time>
      </trkpt>
      <trkpt lat="48.88213" lon="2.37455">
        <ele>120.2</ele>
        <time>2015-01-12T20:46:44.582Z</time>
      </trkpt>
      <trkpt lat="48.88221" lon="2.37461">
        <ele>120</ele>
        <time>2015-01-12T20:46:46.617Z</time>
      </trkpt>
      <trkpt lat="48.88227" lon="2.3746">
        <ele>118.7</ele>
        <time>2015-01-12T20:46:47.623Z</time>
      </trkpt>
      <trkpt lat="48.88232" lon="2.37469">
        <ele>118.4</ele>
        <time>2015-01-12T20:46:49.689Z</time>
      </trkpt>
      <trkpt lat="48.88235" lon="2.37474">
        <ele>118.3</ele>
        <time>2015-01-12T20:46:50.602Z</time>
      </trkpt>
      <trkpt lat="48.88241" lon="2.37483">
        <ele>117.7</ele>
        <time>2015-01-12T20:46:52.628Z</time>
      </trkpt>
      <trkpt lat="48.88246" lon="2.37485">
        <ele>117.2</ele>
        <time>2015-01-12T20:46:53.640Z</time>
      </trkpt>
      <trkpt lat="48.88251" lon="2.37488">
        <ele>117.1</ele>
        <time>2015-01-12T20:46:54.653Z</time>
      </trkpt>
      <trkpt lat="48.88255" lon="2.37491">
        <ele>116.5</ele>
        <time>2015-01-12T20:46:55.656Z</time>
      </trkpt>
      <trkpt lat="48.88261" lon="2.37492">
        <ele>115.9</ele>
        <time>2015-01-12T20:46:56.586Z</time>
      </trkpt>
      <trkpt lat="48.88263" lon="2.37497">
        <ele>115.8</ele>
        <time>2015-01-12T20:46:57.617Z</time>
      </trkpt>
      <trkpt lat="48.88259" lon="2.37511">
        <ele>116.1</ele>
        <time>2015-01-12T20:46:58.622Z</time>
      </trkpt>
      <trkpt lat="48.88265" lon="2.37522">
        <ele>116.1</ele>
        <time>2015-01-12T20:47:00.650Z</time>
      </trkpt>
      <trkpt lat="48.88268" lon="2.37526">
        <ele>116.3</ele>
        <time>2015-01-12T20:47:01.659Z</time>
      </trkpt>
      <trkpt lat="48.88273" lon="2.37536">
        <ele>116.7</ele>
        <time>2015-01-12T20:47:03.603Z</time>
      </trkpt>
      <trkpt lat="48.88279" lon="2.3754">
        <ele>117.7</ele>
        <time>2015-01-12T20:47:04.672Z</time>
      </trkpt>
      <trkpt lat="48.88285" lon="2.37542">
        <ele>118.7</ele>
        <time>2015-01-12T20:47:05.591Z</time>
      </trkpt>
      <trkpt lat="48.8829" lon="2.37546">
        <ele>119.2</ele>
        <time>2015-01-12T20:47:06.593Z</time>
      </trkpt>
      <trkpt lat="48.88293" lon="2.37551">
        <ele>119.6</ele>
        <time>2015-01-12T20:47:07.670Z</time>
      </trkpt>
      <trkpt lat="48.88296" lon="2.37557">
        <ele>119.8</ele>
        <time>2015-01-12T20:47:08.590Z</time>
      </trkpt>
      <trkpt lat="48.88299" lon="2.37562">
        <ele>119.6</ele>
        <time>2015-01-12T20:47:09.614Z</time>
      </trkpt>
      <trkpt lat="48.88302" lon="2.37568">
        <ele>119.8</ele>
        <time>2015-01-12T20:47:10.601Z</time>
      </trkpt>
      <trkpt lat="48.88304" lon="2.37574">
        <ele>119.7</ele>
        <time>2015-01-12T20:47:11.641Z</time>
      </trkpt>
      <trkpt lat="48.88305" lon="2.37582">
        <ele>120</ele>
        <time>2015-01-12T20:47:12.649Z</time>
      </trkpt>
      <trkpt lat="48.88308" lon="2.37587">
        <ele>120</ele>
        <time>2015-01-12T20:47:13.668Z</time>
      </trkpt>
      <trkpt lat="48.88309" lon="2.37594">
        <ele>119.9</ele>
        <time>2015-01-12T20:47:14.584Z</time>
      </trkpt>
      <trkpt lat="48.88312" lon="2.37602">
        <ele>119.8</ele>
        <time>2015-01-12T20:47:15.596Z</time>
      </trkpt>
      <trkpt lat="48.88313" lon="2.3761">
        <ele>119.4</ele>
        <time>2015-01-12T20:47:16.602Z</time>
      </trkpt>
      <trkpt lat="48.88315" lon="2.37617">
        <ele>119.2</ele>
        <time>2015-01-12T20:47:17.605Z</time>
      </trkpt>
      <trkpt lat="48.88318" lon="2.37622">
        <ele>118.9</ele>
        <time>2015-01-12T20:47:18.614Z</time>
      </trkpt>
      <trkpt lat="48.88319" lon="2.37629">
        <ele>118.3</ele>
        <time>2015-01-12T20:47:19.624Z</time>
      </trkpt>
      <trkpt lat="48.88319" lon="2.37638">
        <ele>117.7</ele>
        <time>2015-01-12T20:47:20.640Z</time>
      </trkpt>
      <trkpt lat="48.88319" lon="2.37647">
        <ele>117.3</ele>
        <time>2015-01-12T20:47:21.648Z</time>
      </trkpt>
      <trkpt lat="48.8832" lon="2.37656">
        <ele>116.8</ele>
        <time>2015-01-12T20:47:22.670Z</time>
      </trkpt>
      <trkpt lat="48.88321" lon="2.37663">
        <ele>116.6</ele>
        <time>2015-01-12T20:47:23.578Z</time>
      </trkpt>
      <trkpt lat="48.88322" lon="2.3767">
        <ele>116.6</ele>
        <time>2015-01-12T20:47:24.578Z</time>
      </trkpt>
      <trkpt lat="48.88323" lon="2.37678">
        <ele>116.2</ele>
        <time>2015-01-12T20:47:25.607Z</time>
      </trkpt>
      <trkpt lat="48.88323" lon="2.37687">
        <ele>115.5</ele>
        <time>2015-01-12T20:47:26.608Z</time>
      </trkpt>
      <trkpt lat="48.88323" lon="2.37695">
        <ele>114.9</ele>
        <time>2015-01-12T20:47:27.620Z</time>
      </trkpt>
      <trkpt lat="48.88333" lon="2.37691">
        <ele>114</ele>
        <time>2015-01-12T20:47:28.634Z</time>
      </trkpt>
      <trkpt lat="48.88338" lon="2.37695">
        <ele>113.5</ele>
        <time>2015-01-12T20:47:29.566Z</time>
      </trkpt>
      <trkpt lat="48.88344" lon="2.37697">
        <ele>113.2</ele>
        <time>2015-01-12T20:47:30.605Z</time>
      </trkpt>
      <trkpt lat="48.88352" lon="2.37697">
        <ele>113.1</ele>
        <time>2015-01-12T20:47:31.652Z</time>
      </trkpt>
      <trkpt lat="48.8836" lon="2.37697">
        <ele>113</ele>
        <time>2015-01-12T20:47:32.674Z</time>
      </trkpt>
      <trkpt lat="48.88363" lon="2.37703">
        <ele>112.8</ele>
        <time>2015-01-12T20:47:33.695Z</time>
      </trkpt>
      <trkpt lat="48.88366" lon="2.37709">
        <ele>112.8</ele>
        <time>2015-01-12T20:47:34.608Z</time>
      </trkpt>
      <trkpt lat="48.88367" lon="2.37716">
        <ele>112.5</ele>
        <time>2015-01-12T20:47:35.590Z</time>
      </trkpt>
      <trkpt lat="48.88371" lon="2.37723">
        <ele>112.4</ele>
        <time>2015-01-12T20:47:36.596Z</time>
      </trkpt>
      <trkpt lat="48.88374" lon="2.37728">
        <ele>112.3</ele>
        <time>2015-01-12T20:47:37.634Z</time>
      </trkpt>
      <trkpt lat="48.88378" lon="2.37733">
        <ele>111.9</ele>
        <time>2015-01-12T20:47:38.628Z</time>
      </trkpt>
      <trkpt lat="48.88381" lon="2.37739">
        <ele>111.5</ele>
        <time>2015-01-12T20:47:39.645Z</time>
      </trkpt>
      <trkpt lat="48.88384" lon="2.37748">
        <ele>111.3</ele>
        <time>2015-01-12T20:47:40.589Z</time>
      </trkpt>
      <trkpt lat="48.88385" lon="2.37758">
        <ele>111.3</ele>
        <time>2015-01-12T20:47:41.570Z</time>
      </trkpt>
      <trkpt lat="48.88387" lon="2.3777">
        <ele>111.9</ele>
        <time>2015-01-12T20:47:42.595Z</time>
      </trkpt>
      <trkpt lat="48.8839" lon="2.3778">
        <ele>112.5</ele>
        <time>2015-01-12T20:47:43.617Z</time>
      </trkpt>
      <trkpt lat="48.88395" lon="2.37786">
        <ele>112.1</ele>
        <time>2015-01-12T20:47:44.627Z</time>
      </trkpt>
      <trkpt lat="48.88399" lon="2.37792">
        <ele>111.8</ele>
        <time>2015-01-12T20:47:45.638Z</time>
      </trkpt>
      <trkpt lat="48.88403" lon="2.37799">
        <ele>111.8</ele>
        <time>2015-01-12T20:47:46.689Z</time>
      </trkpt>
      <trkpt lat="48.88404" lon="2.37809">
        <ele>111.7</ele>
        <time>2015-01-12T20:47:47.595Z</time>
      </trkpt>
      <trkpt lat="48.88409" lon="2.37814">
        <ele>111.7</ele>
        <time>2015-01-12T20:47:48.600Z</time>
      </trkpt>
      <trkpt lat="48.88412" lon="2.37821">
        <ele>111.7</ele>
        <time>2015-01-12T20:47:49.631Z</time>
      </trkpt>
      <trkpt lat="48.88417" lon="2.37825">
        <ele>111.6</ele>
        <time>2015-01-12T20:47:50.635Z</time>
      </trkpt>
      <trkpt lat="48.88421" lon="2.3783">
        <ele>111.2</ele>
        <time>2015-01-12T20:47:51.643Z</time>
      </trkpt>
      <trkpt lat="48.88424" lon="2.37837">
        <ele>111</ele>
        <time>2015-01-12T20:47:52.657Z</time>
      </trkpt>
      <trkpt lat="48.88427" lon="2.37845">
        <ele>110.7</ele>
        <time>2015-01-12T20:47:53.606Z</time>
      </trkpt>
      <trkpt lat="48.88431" lon="2.37849">
        <ele>110.5</ele>
        <time>2015-01-12T20:47:54.605Z</time>
      </trkpt>
      <trkpt lat="48.88435" lon="2.37854">
        <ele>109.9</ele>
        <time>2015-01-12T20:47:55.646Z</time>
      </trkpt>
      <trkpt lat="48.8844" lon="2.37858">
        <ele>109.4</ele>
        <time>2015-01-12T20:47:56.594Z</time>
      </trkpt>
      <trkpt lat="48.88444" lon="2.37861">
        <ele>109.1</ele>
        <time>2015-01-12T20:47:57.596Z</time>
      </trkpt>
      <trkpt lat="48.88448" lon="2.37865">
        <ele>108.9</ele>
        <time>2015-01-12T20:47:58.606Z</time>
      </trkpt>
      <trkpt lat="48.88453" lon="2.37875">
        <ele>108.5</ele>
        <time>2015-01-12T20:48:00.685Z</time>
      </trkpt>
      <trkpt lat="48.88455" lon="2.3788">
        <ele>108.2</ele>
        <time>2015-01-12T20:48:01.643Z</time>
      </trkpt>
      <trkpt lat="48.88459" lon="2.3789">
        <ele>108.7</ele>
        <time>2015-01-12T20:48:03.651Z</time>
      </trkpt>
      <trkpt lat="48.8846" lon="2.37897">
        <ele>109.2</ele>
        <time>2015-01-12T20:48:04.701Z</time>
      </trkpt>
      <trkpt lat="48.88461" lon="2.37905">
        <ele>109.5</ele>
        <time>2015-01-12T20:48:05.679Z</time>
      </trkpt>
      <trkpt lat="48.88461" lon="2.37918">
        <ele>109.3</ele>
        <time>2015-01-12T20:48:06.592Z</time>
      </trkpt>
      <trkpt lat="48.88465" lon="2.37931">
        <ele>109.8</ele>
        <time>2015-01-12T20:48:08.590Z</time>
      </trkpt>
      <trkpt lat="48.88467" lon="2.37936">
        <ele>109.8</ele>
        <time>2015-01-12T20:48:09.616Z</time>
      </trkpt>
      <trkpt lat="48.88472" lon="2.37947">
        <ele>110.5</ele>
        <time>2015-01-12T20:48:11.646Z</time>
      </trkpt>
      <trkpt lat="48.88471" lon="2.37954">
        <ele>110.9</ele>
        <time>2015-01-12T20:48:12.659Z</time>
      </trkpt>
      <trkpt lat="48.88468" lon="2.37966">
        <ele>112.8</ele>
        <time>2015-01-12T20:48:14.755Z</time>
      </trkpt>
      <trkpt lat="48.88466" lon="2.37972">
        <ele>113.9</ele>
        <time>2015-01-12T20:48:15.598Z</time>
      </trkpt>
      <trkpt lat="48.88465" lon="2.37983">
        <ele>116.6</ele>
        <time>2015-01-12T20:48:19.681Z</time>
      </trkpt>
      <trkpt lat="48.88465" lon="2.37986">
        <ele>116.7</ele>
        <time>2015-01-12T20:48:20.641Z</time>
      </trkpt>
      <trkpt lat="48.88468" lon="2.37995">
        <ele>117.2</ele>
        <time>2015-01-12T20:48:23.598Z</time>
      </trkpt>
      <trkpt lat="48.8847" lon="2.38002">
        <ele>117.3</ele>
        <time>2015-01-12T20:48:24.644Z</time>
      </trkpt>
      <trkpt lat="48.88472" lon="2.38013">
        <ele>117.3</ele>
        <time>2015-01-12T20:48:26.583Z</time>
      </trkpt>
      <trkpt lat="48.88475" lon="2.38018">
        <ele>117.3</ele>
        <time>2015-01-12T20:48:27.596Z</time>
      </trkpt>
      <trkpt lat="48.8848" lon="2.38025">
        <ele>117.3</ele>
        <time>2015-01-12T20:48:29.624Z</time>
      </trkpt>
      <trkpt lat="48.88483" lon="2.38028">
        <ele>117.3</ele>
        <time>2015-01-12T20:48:30.633Z</time>
      </trkpt>
      <trkpt lat="48.88488" lon="2.38035">
        <ele>116.7</ele>
        <time>2015-01-12T20:48:32.588Z</time>
      </trkpt>
      <trkpt lat="48.8849" lon="2.38039">
        <ele>116.4</ele>
        <time>2015-01-12T20:48:33.598Z</time>
      </trkpt>
      <trkpt lat="48.88491" lon="2.3805">
        <ele>116.2</ele>
        <time>2015-01-12T20:48:35.626Z</time>
      </trkpt>
      <trkpt lat="48.8849" lon="2.38057">
        <ele>116.2</ele>
        <time>2015-01-12T20:48:36.639Z</time>
      </trkpt>
      <trkpt lat="48.88488" lon="2.38065">
        <ele>116.3</ele>
        <time>2015-01-12T20:48:37.662Z</time>
      </trkpt>
      <trkpt lat="48.88484" lon="2.38073">
        <ele>116.5</ele>
        <time>2015-01-12T20:48:38.558Z</time>
      </trkpt>
      <trkpt lat="48.88481" lon="2.38082">
        <ele>117</ele>
        <time>2015-01-12T20:48:39.581Z</time>
      </trkpt>
      <trkpt lat="48.8848" lon="2.38087">
        <ele>117.8</ele>
        <time>2015-01-12T20:48:40.578Z</time>
      </trkpt>
      <trkpt lat="48.88478" lon="2.38097">
        <ele>118.6</ele>
        <time>2015-01-12T20:48:42.607Z</time>
      </trkpt>
      <trkpt lat="48.88479" lon="2.38102">
        <ele>118.9</ele>
        <time>2015-01-12T20:48:43.628Z</time>
      </trkpt>
      <trkpt lat="48.88481" lon="2.38111">
        <ele>119.7</ele>
        <time>2015-01-12T20:48:45.649Z</time>
      </trkpt>
      <trkpt lat="48.88483" lon="2.38117">
        <ele>119.7</ele>
        <time>2015-01-12T20:48:46.654Z</time>
      </trkpt>
      <trkpt lat="48.88485" lon="2.38126">
        <ele>119.1</ele>
        <time>2015-01-12T20:48:47.586Z</time>
      </trkpt>
      <trkpt lat="48.88487" lon="2.38136">
        <ele>118.5</ele>
        <time>2015-01-12T20:48:48.588Z</time>
      </trkpt>
      <trkpt lat="48.8849" lon="2.38149">
        <ele>116.9</ele>
        <time>2015-01-12T20:48:49.615Z</time>
      </trkpt>
      <trkpt lat="48.88492" lon="2.38167">
        <ele>115.7</ele>
        <time>2015-01-12T20:48:51.664Z</time>
      </trkpt>
      <trkpt lat="48.88492" lon="2.38176">
        <ele>114.9</ele>
        <time>2015-01-12T20:48:52.581Z</time>
      </trkpt>
      <trkpt lat="48.88491" lon="2.38184">
        <ele>114.3</ele>
        <time>2015-01-12T20:48:53.577Z</time>
      </trkpt>
      <trkpt lat="48.88489" lon="2.38193">
        <ele>113.8</ele>
        <time>2015-01-12T20:48:54.580Z</time>
      </trkpt>
      <trkpt lat="48.88486" lon="2.38204">
        <ele>113.9</ele>
        <time>2015-01-12T20:48:55.599Z</time>
      </trkpt>
      <trkpt lat="48.88487" lon="2.38211">
        <ele>113.9</ele>
        <time>2015-01-12T20:48:56.605Z</time>
      </trkpt>
      <trkpt lat="48.88487" lon="2.38219">
        <ele>114</ele>
        <time>2015-01-12T20:48:57.628Z</time>
      </trkpt>
      <trkpt lat="48.8849" lon="2.3823">
        <ele>114.6</ele>
        <time>2015-01-12T20:48:59.652Z</time>
      </trkpt>
      <trkpt lat="48.88492" lon="2.38235">
        <ele>115.7</ele>
        <time>2015-01-12T20:49:00.567Z</time>
      </trkpt>
      <trkpt lat="48.88497" lon="2.38244">
        <ele>117.1</ele>
        <time>2015-01-12T20:49:02.635Z</time>
      </trkpt>
      <trkpt lat="48.88498" lon="2.38249">
        <ele>117.4</ele>
        <time>2015-01-12T20:49:03.687Z</time>
      </trkpt>
      <trkpt lat="48.88498" lon="2.38259">
        <ele>118.1</ele>
        <time>2015-01-12T20:49:05.637Z</time>
      </trkpt>
      <trkpt lat="48.88497" lon="2.38264">
        <ele>118</ele>
        <time>2015-01-12T20:49:06.655Z</time>
      </trkpt>
      <trkpt lat="48.88499" lon="2.38276">
        <ele>118.6</ele>
        <time>2015-01-12T20:49:09.590Z</time>
      </trkpt>
      <trkpt lat="48.885" lon="2.38282">
        <ele>118.9</ele>
        <time>2015-01-12T20:49:10.602Z</time>
      </trkpt>
      <trkpt lat="48.88503" lon="2.38291">
        <ele>119.4</ele>
        <time>2015-01-12T20:49:12.640Z</time>
      </trkpt>
      <trkpt lat="48.88504" lon="2.38296">
        <ele>119.7</ele>
        <time>2015-01-12T20:49:13.649Z</time>
      </trkpt>
      <trkpt lat="48.8851" lon="2.38304">
        <ele>123.6</ele>
        <time>2015-01-12T20:49:29.630Z</time>
      </trkpt>
      <trkpt lat="48.88511" lon="2.38304">
        <ele>123.8</ele>
        <time>2015-01-12T20:49:30.604Z</time>
      </trkpt>
      <trkpt lat="48.88515" lon="2.38295">
        <ele>125.3</ele>
        <time>2015-01-12T20:49:34.653Z</time>
      </trkpt>
      <trkpt lat="48.88519" lon="2.38289">
        <ele>125.3</ele>
        <time>2015-01-12T20:49:35.588Z</time>
      </trkpt>
      <trkpt lat="48.88525" lon="2.38287">
        <ele>125.7</ele>
        <time>2015-01-12T20:49:36.589Z</time>
      </trkpt>
      <trkpt lat="48.8853" lon="2.38285">
        <ele>125.9</ele>
        <time>2015-01-12T20:49:37.623Z</time>
      </trkpt>
      <trkpt lat="48.88537" lon="2.38282">
        <ele>126.2</ele>
        <time>2015-01-12T20:49:38.638Z</time>
      </trkpt>
      <trkpt lat="48.88543" lon="2.3828">
        <ele>126.5</ele>
        <time>2015-01-12T20:49:39.604Z</time>
      </trkpt>
      <trkpt lat="48.8855" lon="2.38277">
        <ele>127</ele>
        <time>2015-01-12T20:49:40.663Z</time>
      </trkpt>
      <trkpt lat="48.88556" lon="2.38274">
        <ele>127.4</ele>
        <time>2015-01-12T20:49:41.679Z</time>
      </trkpt>
      <trkpt lat="48.8856" lon="2.3827">
        <ele>127.8</ele>
        <time>2015-01-12T20:49:42.687Z</time>
      </trkpt>
      <trkpt lat="48.88565" lon="2.38267">
        <ele>128</ele>
        <time>2015-01-12T20:49:43.786Z</time>
      </trkpt>
      <trkpt lat="48.88569" lon="2.38264">
        <ele>128.3</ele>
        <time>2015-01-12T20:49:44.611Z</time>
      </trkpt>
      <trkpt lat="48.88573" lon="2.38261">
        <ele>128.8</ele>
        <time>2015-01-12T20:49:45.663Z</time>
      </trkpt>
      <trkpt lat="48.88578" lon="2.38256">
        <ele>129.2</ele>
        <time>2015-01-12T20:49:46.682Z</time>
      </trkpt>
      <trkpt lat="48.88583" lon="2.38253">
        <ele>129.6</ele>
        <time>2015-01-12T20:49:47.697Z</time>
      </trkpt>
      <trkpt lat="48.8859" lon="2.38245">
        <ele>129.6</ele>
        <time>2015-01-12T20:49:49.690Z</time>
      </trkpt>
      <trkpt lat="48.88593" lon="2.3824">
        <ele>129.6</ele>
        <time>2015-01-12T20:49:50.603Z</time>
      </trkpt>
      <trkpt lat="48.88594" lon="2.38228">
        <ele>128.3</ele>
        <time>2015-01-12T20:49:52.618Z</time>
      </trkpt>
      <trkpt lat="48.88595" lon="2.38224">
        <ele>128.2</ele>
        <time>2015-01-12T20:49:53.627Z</time>
      </trkpt>
      <trkpt lat="48.88602" lon="2.38215">
        <ele>122.9</ele>
        <time>2015-01-12T20:50:02.664Z</time>
      </trkpt>
      <trkpt lat="48.88604" lon="2.38212">
        <ele>122.7</ele>
        <time>2015-01-12T20:50:03.680Z</time>
      </trkpt>
      <trkpt lat="48.88608" lon="2.38204">
        <ele>121.9</ele>
        <time>2015-01-12T20:50:05.599Z</time>
      </trkpt>
      <trkpt lat="48.8861" lon="2.382">
        <ele>121.3</ele>
        <time>2015-01-12T20:50:06.611Z</time>
      </trkpt>
      <trkpt lat="48.88616" lon="2.38192">
        <ele>119.9</ele>
        <time>2015-01-12T20:50:09.657Z</time>
      </trkpt>
      <trkpt lat="48.88618" lon="2.3819">
        <ele>118.8</ele>
        <time>2015-01-12T20:50:10.683Z</time>
      </trkpt>
      <trkpt lat="48.88626" lon="2.38184">
        <ele>117.3</ele>
        <time>2015-01-12T20:50:13.635Z</time>
      </trkpt>
      <trkpt lat="48.88629" lon="2.3818">
        <ele>117.4</ele>
        <time>2015-01-12T20:50:14.637Z</time>
      </trkpt>
      <trkpt lat="48.88637" lon="2.38174">
        <ele>117.3</ele>
        <time>2015-01-12T20:50:16.670Z</time>
      </trkpt>
      <trkpt lat="48.88641" lon="2.38171">
        <ele>117.4</ele>
        <time>2015-01-12T20:50:17.677Z</time>
      </trkpt>
      <trkpt lat="48.88649" lon="2.38168">
        <ele>117.7</ele>
        <time>2015-01-12T20:50:19.625Z</time>
      </trkpt>
      <trkpt lat="48.88653" lon="2.38166">
        <ele>117.8</ele>
        <time>2015-01-12T20:50:20.653Z</time>
      </trkpt>
      <trkpt lat="48.8866" lon="2.38162">
        <ele>118.5</ele>
        <time>2015-01-12T20:50:22.612Z</time>
      </trkpt>
      <trkpt lat="48.88663" lon="2.38157">
        <ele>119.3</ele>
        <time>2015-01-12T20:50:23.615Z</time>
      </trkpt>
      <trkpt lat="48.88668" lon="2.38147">
        <ele>120.2</ele>
        <time>2015-01-12T20:50:25.694Z</time>
      </trkpt>
      <trkpt lat="48.8867" lon="2.38142">
        <ele>120.6</ele>
        <time>2015-01-12T20:50:26.582Z</time>
      </trkpt>
      <trkpt lat="48.88676" lon="2.38136">
        <ele>120.6</ele>
        <time>2015-01-12T20:50:28.613Z</time>
      </trkpt>
      <trkpt lat="48.88679" lon="2.38133">
        <ele>120.7</ele>
        <time>2015-01-12T20:50:29.644Z</time>
      </trkpt>
      <trkpt lat="48.88683" lon="2.38128">
        <ele>121.6</ele>
        <time>2015-01-12T20:50:30.688Z</time>
      </trkpt>
      <trkpt lat="48.88686" lon="2.38125">
        <ele>121.7</ele>
        <time>2015-01-12T20:50:31.713Z</time>
      </trkpt>
      <trkpt lat="48.8869" lon="2.38117">
        <ele>121</ele>
        <time>2015-01-12T20:50:33.602Z</time>
      </trkpt>
      <trkpt lat="48.88693" lon="2.38113">
        <ele>120.3</ele>
        <time>2015-01-12T20:50:34.648Z</time>
      </trkpt>
      <trkpt lat="48.88699" lon="2.38105">
        <ele>120.1</ele>
        <time>2015-01-12T20:50:36.587Z</time>
      </trkpt>
      <trkpt lat="48.88701" lon="2.38102">
        <ele>119.8</ele>
        <time>2015-01-12T20:50:37.622Z</time>
      </trkpt>
      <trkpt lat="48.88708" lon="2.38096">
        <ele>118.9</ele>
        <time>2015-01-12T20:50:39.592Z</time>
      </trkpt>
      <trkpt lat="48.88711" lon="2.38093">
        <ele>118.6</ele>
        <time>2015-01-12T20:50:40.617Z</time>
      </trkpt>
      <trkpt lat="48.88716" lon="2.38087">
        <ele>118.1</ele>
        <time>2015-01-12T20:50:42.684Z</time>
      </trkpt>
      <trkpt lat="48.8872" lon="2.38085">
        <ele>118</ele>
        <time>2015-01-12T20:50:43.739Z</time>
      </trkpt>
      <trkpt lat="48.88724" lon="2.38082">
        <ele>118</ele>
        <time>2015-01-12T20:50:44.608Z</time>
      </trkpt>
      <trkpt lat="48.88727" lon="2.38077">
        <ele>118.4</ele>
        <time>2015-01-12T20:50:45.800Z</time>
      </trkpt>
      <trkpt lat="48.88731" lon="2.38073">
        <ele>118.2</ele>
        <time>2015-01-12T20:50:46.651Z</time>
      </trkpt>
      <trkpt lat="48.88734" lon="2.38067">
        <ele>117.8</ele>
        <time>2015-01-12T20:50:47.670Z</time>
      </trkpt>
      <trkpt lat="48.88737" lon="2.38063">
        <ele>117.5</ele>
        <time>2015-01-12T20:50:48.691Z</time>
      </trkpt>
      <trkpt lat="48.8874" lon="2.38057">
        <ele>117.5</ele>
        <time>2015-01-12T20:50:49.895Z</time>
      </trkpt>
      <trkpt lat="48.88745" lon="2.38047">
        <ele>117</ele>
        <time>2015-01-12T20:50:51.602Z</time>
      </trkpt>
      <trkpt lat="48.88748" lon="2.38042">
        <ele>116.7</ele>
        <time>2015-01-12T20:50:52.624Z</time>
      </trkpt>
      <trkpt lat="48.88753" lon="2.38033">
        <ele>116.1</ele>
        <time>2015-01-12T20:50:54.779Z</time>
      </trkpt>
      <trkpt lat="48.88756" lon="2.38029">
        <ele>116.1</ele>
        <time>2015-01-12T20:50:55.624Z</time>
      </trkpt>
      <trkpt lat="48.88761" lon="2.38019">
        <ele>116.7</ele>
        <time>2015-01-12T20:50:57.578Z</time>
      </trkpt>
      <trkpt lat="48.88765" lon="2.38015">
        <ele>116.4</ele>
        <time>2015-01-12T20:50:58.779Z</time>
      </trkpt>
      <trkpt lat="48.88773" lon="2.38009">
        <ele>116.5</ele>
        <time>2015-01-12T20:51:00.606Z</time>
      </trkpt>
      <trkpt lat="48.88777" lon="2.38006">
        <ele>116.6</ele>
        <time>2015-01-12T20:51:01.670Z</time>
      </trkpt>
      <trkpt lat="48.88784" lon="2.38">
        <ele>116.6</ele>
        <time>2015-01-12T20:51:04.176Z</time>
      </trkpt>
      <trkpt lat="48.88788" lon="2.37998">
        <ele>117</ele>
        <time>2015-01-12T20:51:04.592Z</time>
      </trkpt>
      <trkpt lat="48.88794" lon="2.3799">
        <ele>117.3</ele>
        <time>2015-01-12T20:51:07.692Z</time>
      </trkpt>
      <trkpt lat="48.88796" lon="2.37987">
        <ele>117</ele>
        <time>2015-01-12T20:51:08.594Z</time>
      </trkpt>
      <trkpt lat="48.88803" lon="2.3798">
        <ele>116.6</ele>
        <time>2015-01-12T20:51:11.614Z</time>
      </trkpt>
      <trkpt lat="48.88807" lon="2.37977">
        <ele>116.5</ele>
        <time>2015-01-12T20:51:12.651Z</time>
      </trkpt>
      <trkpt lat="48.88815" lon="2.37972">
        <ele>116.7</ele>
        <time>2015-01-12T20:51:15.662Z</time>
      </trkpt>
      <trkpt lat="48.88816" lon="2.3797">
        <ele>116.1</ele>
        <time>2015-01-12T20:51:16.671Z</time>
      </trkpt>
      <trkpt lat="48.88824" lon="2.37964">
        <ele>116.3</ele>
        <time>2015-01-12T20:51:19.806Z</time>
      </trkpt>
      <trkpt lat="48.88825" lon="2.37962">
        <ele>116.4</ele>
        <time>2015-01-12T20:51:20.615Z</time>
      </trkpt>
      <trkpt lat="48.88833" lon="2.37955">
        <ele>116.6</ele>
        <time>2015-01-12T20:51:25.692Z</time>
      </trkpt>
      <trkpt lat="48.88834" lon="2.37954">
        <ele>117</ele>
        <time>2015-01-12T20:51:26.594Z</time>
      </trkpt>
      <trkpt lat="48.88839" lon="2.37944">
        <ele>117</ele>
        <time>2015-01-12T20:51:29.850Z</time>
      </trkpt>
      <trkpt lat="48.88842" lon="2.3794">
        <ele>117.3</ele>
        <time>2015-01-12T20:51:30.676Z</time>
      </trkpt>
      <trkpt lat="48.88848" lon="2.3793">
        <ele>118.2</ele>
        <time>2015-01-12T20:51:33.597Z</time>
      </trkpt>
      <trkpt lat="48.88849" lon="2.37928">
        <ele>118.6</ele>
        <time>2015-01-12T20:51:34.654Z</time>
      </trkpt>
      <trkpt lat="48.88854" lon="2.37919">
        <ele>116.1</ele>
        <time>2015-01-12T20:51:40.695Z</time>
      </trkpt>
      <trkpt lat="48.88856" lon="2.37917">
        <ele>115.9</ele>
        <time>2015-01-12T20:51:41.714Z</time>
      </trkpt>
      <trkpt lat="48.8886" lon="2.37906">
        <ele>115.2</ele>
        <time>2015-01-12T20:51:46.590Z</time>
      </trkpt>
      <trkpt lat="48.88863" lon="2.37905">
        <ele>115.4</ele>
        <time>2015-01-12T20:51:47.600Z</time>
      </trkpt>
      <trkpt lat="48.8887" lon="2.37899">
        <ele>115.5</ele>
        <time>2015-01-12T20:51:49.626Z</time>
      </trkpt>
      <trkpt lat="48.88871" lon="2.37895">
        <ele>115.5</ele>
        <time>2015-01-12T20:51:50.633Z</time>
      </trkpt>
      <trkpt lat="48.88875" lon="2.37888">
        <ele>115.5</ele>
        <time>2015-01-12T20:51:52.657Z</time>
      </trkpt>
      <trkpt lat="48.88877" lon="2.37884">
        <ele>115.3</ele>
        <time>2015-01-12T20:51:53.667Z</time>
      </trkpt>
      <trkpt lat="48.88881" lon="2.37876">
        <ele>114.6</ele>
        <time>2015-01-12T20:51:55.628Z</time>
      </trkpt>
      <trkpt lat="48.88882" lon="2.37871">
        <ele>114.3</ele>
        <time>2015-01-12T20:51:56.634Z</time>
      </trkpt>
      <trkpt lat="48.88882" lon="2.37862">
        <ele>114.9</ele>
        <time>2015-01-12T20:51:58.571Z</time>
      </trkpt>
      <trkpt lat="48.88881" lon="2.37856">
        <ele>115.1</ele>
        <time>2015-01-12T20:51:59.603Z</time>
      </trkpt>
      <trkpt lat="48.88875" lon="2.37847">
        <ele>115.5</ele>
        <time>2015-01-12T20:52:01.657Z</time>
      </trkpt>
      <trkpt lat="48.88873" lon="2.37843">
        <ele>115.7</ele>
        <time>2015-01-12T20:52:02.660Z</time>
      </trkpt>
      <trkpt lat="48.88866" lon="2.37836">
        <ele>115.6</ele>
        <time>2015-01-12T20:52:04.592Z</time>
      </trkpt>
      <trkpt lat="48.88863" lon="2.37833">
        <ele>115.8</ele>
        <time>2015-01-12T20:52:05.599Z</time>
      </trkpt>
      <trkpt lat="48.88865" lon="2.37823">
        <ele>116.7</ele>
        <time>2015-01-12T20:52:08.659Z</time>
      </trkpt>
      <trkpt lat="48.88868" lon="2.37818">
        <ele>117.5</ele>
        <time>2015-01-12T20:52:09.681Z</time>
      </trkpt>
      <trkpt lat="48.88874" lon="2.37812">
        <ele>117.1</ele>
        <time>2015-01-12T20:52:11.606Z</time>
      </trkpt>
      <trkpt lat="48.88877" lon="2.37808">
        <ele>117.2</ele>
        <time>2015-01-12T20:52:12.614Z</time>
      </trkpt>
      <trkpt lat="48.88882" lon="2.37801">
        <ele>117.9</ele>
        <time>2015-01-12T20:52:14.676Z</time>
      </trkpt>
      <trkpt lat="48.88885" lon="2.37796">
        <ele>117.9</ele>
        <time>2015-01-12T20:52:15.682Z</time>
      </trkpt>
      <trkpt lat="48.88889" lon="2.37791">
        <ele>117.9</ele>
        <time>2015-01-12T20:52:16.568Z</time>
      </trkpt>
      <trkpt lat="48.88895" lon="2.37785">
        <ele>118.2</ele>
        <time>2015-01-12T20:52:17.624Z</time>
      </trkpt>
      <trkpt lat="48.88901" lon="2.37776">
        <ele>117.8</ele>
        <time>2015-01-12T20:52:19.834Z</time>
      </trkpt>
      <trkpt lat="48.88904" lon="2.37772">
        <ele>117.7</ele>
        <time>2015-01-12T20:52:20.637Z</time>
      </trkpt>
      <trkpt lat="48.88908" lon="2.37762">
        <ele>117.8</ele>
        <time>2015-01-12T20:52:22.649Z</time>
      </trkpt>
      <trkpt lat="48.88911" lon="2.37757">
        <ele>117.9</ele>
        <time>2015-01-12T20:52:23.651Z</time>
      </trkpt>
      <trkpt lat="48.88914" lon="2.37751">
        <ele>117.9</ele>
        <time>2015-01-12T20:52:24.658Z</time>
      </trkpt>
      <trkpt lat="48.88917" lon="2.37746">
        <ele>118</ele>
        <time>2015-01-12T20:52:25.671Z</time>
      </trkpt>
      <trkpt lat="48.8892" lon="2.37738">
        <ele>118.3</ele>
        <time>2015-01-12T20:52:27.457Z</time>
      </trkpt>
      <trkpt lat="48.88923" lon="2.37733">
        <ele>118.5</ele>
        <time>2015-01-12T20:52:27.588Z</time>
      </trkpt>
      <trkpt lat="48.88927" lon="2.37727">
        <ele>119</ele>
        <time>2015-01-12T20:52:28.625Z</time>
      </trkpt>
      <trkpt lat="48.8893" lon="2.3772">
        <ele>119.4</ele>
        <time>2015-01-12T20:52:29.627Z</time>
      </trkpt>
      <trkpt lat="48.88933" lon="2.37711">
        <ele>119.7</ele>
        <time>2015-01-12T20:52:30.650Z</time>
      </trkpt>
      <trkpt lat="48.88936" lon="2.37704">
        <ele>120</ele>
        <time>2015-01-12T20:52:31.667Z</time>
      </trkpt>
      <trkpt lat="48.88941" lon="2.37697">
        <ele>120.4</ele>
        <time>2015-01-12T20:52:32.679Z</time>
      </trkpt>
      <trkpt lat="48.88944" lon="2.37689">
        <ele>120.6</ele>
        <time>2015-01-12T20:52:33.589Z</time>
      </trkpt>
      <trkpt lat="48.88946" lon="2.37682">
        <ele>120.8</ele>
        <time>2015-01-12T20:52:34.610Z</time>
      </trkpt>
      <trkpt lat="48.88949" lon="2.37676">
        <ele>120.8</ele>
        <time>2015-01-12T20:52:35.622Z</time>
      </trkpt>
      <trkpt lat="48.88952" lon="2.37669">
        <ele>120.9</ele>
        <time>2015-01-12T20:52:36.635Z</time>
      </trkpt>
      <trkpt lat="48.88955" lon="2.37663">
        <ele>120.9</ele>
        <time>2015-01-12T20:52:37.646Z</time>
      </trkpt>
      <trkpt lat="48.88961" lon="2.37653">
        <ele>120.5</ele>
        <time>2015-01-12T20:52:39.575Z</time>
      </trkpt>
      <trkpt lat="48.88963" lon="2.37648">
        <ele>120.4</ele>
        <time>2015-01-12T20:52:40.578Z</time>
      </trkpt>
      <trkpt lat="48.88968" lon="2.3764">
        <ele>120.3</ele>
        <time>2015-01-12T20:52:42.687Z</time>
      </trkpt>
      <trkpt lat="48.8897" lon="2.37635">
        <ele>120.2</ele>
        <time>2015-01-12T20:52:43.574Z</time>
      </trkpt>
      <trkpt lat="48.88976" lon="2.37626">
        <ele>119.7</ele>
        <time>2015-01-12T20:52:45.641Z</time>
      </trkpt>
      <trkpt lat="48.88978" lon="2.37621">
        <ele>119.7</ele>
        <time>2015-01-12T20:52:46.726Z</time>
      </trkpt>
      <trkpt lat="48.88984" lon="2.37613">
        <ele>120.1</ele>
        <time>2015-01-12T20:52:48.566Z</time>
      </trkpt>
      <trkpt lat="48.88987" lon="2.3761">
        <ele>120.2</ele>
        <time>2015-01-12T20:52:49.630Z</time>
      </trkpt>
      <trkpt lat="48.88991" lon="2.37605">
        <ele>120.8</ele>
        <time>2015-01-12T20:52:51.570Z</time>
      </trkpt>
      <trkpt lat="48.8899" lon="2.37597">
        <ele>120.5</ele>
        <time>2015-01-12T20:52:52.627Z</time>
      </trkpt>
      <trkpt lat="48.88989" lon="2.37584">
        <ele>120.8</ele>
        <time>2015-01-12T20:52:55.621Z</time>
      </trkpt>
      <trkpt lat="48.88988" lon="2.37582">
        <ele>121</ele>
        <time>2015-01-12T20:52:56.644Z</time>
      </trkpt>
      <trkpt lat="48.88985" lon="2.37573">
        <ele>121.6</ele>
        <time>2015-01-12T20:52:59.587Z</time>
      </trkpt>
      <trkpt lat="48.88982" lon="2.37571">
        <ele>121.2</ele>
        <time>2015-01-12T20:53:00.592Z</time>
      </trkpt>
      <trkpt lat="48.88975" lon="2.37565">
        <ele>119.5</ele>
        <time>2015-01-12T20:53:02.645Z</time>
      </trkpt>
      <trkpt lat="48.88969" lon="2.37563">
        <ele>118.5</ele>
        <time>2015-01-12T20:53:03.668Z</time>
      </trkpt>
      <trkpt lat="48.88962" lon="2.3756">
        <ele>117</ele>
        <time>2015-01-12T20:53:05.578Z</time>
      </trkpt>
      <trkpt lat="48.8896" lon="2.37558">
        <ele>117.2</ele>
        <time>2015-01-12T20:53:06.588Z</time>
      </trkpt>
      <trkpt lat="48.88958" lon="2.37549">
        <ele>116.3</ele>
        <time>2015-01-12T20:53:15.595Z</time>
      </trkpt>
      <trkpt lat="48.88953" lon="2.37544">
        <ele>114.9</ele>
        <time>2015-01-12T20:53:16.607Z</time>
      </trkpt>
      <trkpt lat="48.88947" lon="2.37535">
        <ele>112.8</ele>
        <time>2015-01-12T20:53:19.628Z</time>
      </trkpt>
      <trkpt lat="48.88946" lon="2.37533">
        <ele>112.1</ele>
        <time>2015-01-12T20:53:20.574Z</time>
      </trkpt>
      <trkpt lat="48.88941" lon="2.37522">
        <ele>111.7</ele>
        <time>2015-01-12T20:53:25.633Z</time>
      </trkpt>
      <trkpt lat="48.8894" lon="2.37517">
        <ele>112.3</ele>
        <time>2015-01-12T20:53:26.646Z</time>
      </trkpt>
      <trkpt lat="48.88933" lon="2.37509">
        <ele>114.8</ele>
        <time>2015-01-12T20:53:29.709Z</time>
      </trkpt>
      <trkpt lat="48.88931" lon="2.37506">
        <ele>115.5</ele>
        <time>2015-01-12T20:53:30.599Z</time>
      </trkpt>
      <trkpt lat="48.88924" lon="2.37497">
        <ele>116.1</ele>
        <time>2015-01-12T20:53:33.666Z</time>
      </trkpt>
      <trkpt lat="48.88922" lon="2.37494">
        <ele>116.2</ele>
        <time>2015-01-12T20:53:34.640Z</time>
      </trkpt>
      <trkpt lat="48.88915" lon="2.37491">
        <ele>116.2</ele>
        <time>2015-01-12T20:53:37.693Z</time>
      </trkpt>
      <trkpt lat="48.88912" lon="2.3749">
        <ele>115.8</ele>
        <time>2015-01-12T20:53:38.566Z</time>
      </trkpt>
      <trkpt lat="48.88906" lon="2.37487">
        <ele>114.4</ele>
        <time>2015-01-12T20:53:40.629Z</time>
      </trkpt>
      <trkpt lat="48.88903" lon="2.37484">
        <ele>114.1</ele>
        <time>2015-01-12T20:53:41.670Z</time>
      </trkpt>
      <trkpt lat="48.88897" lon="2.37478">
        <ele>114.5</ele>
        <time>2015-01-12T20:53:43.736Z</time>
      </trkpt>
      <trkpt lat="48.88894" lon="2.37474">
        <ele>114.2</ele>
        <time>2015-01-12T20:53:44.642Z</time>
      </trkpt>
      <trkpt lat="48.88888" lon="2.37466">
        <ele>114.3</ele>
        <time>2015-01-12T20:53:46.671Z</time>
      </trkpt>
      <trkpt lat="48.88884" lon="2.37462">
        <ele>114.4</ele>
        <time>2015-01-12T20:53:47.685Z</time>
      </trkpt>
      <trkpt lat="48.88878" lon="2.37454">
        <ele>114.3</ele>
        <time>2015-01-12T20:53:49.608Z</time>
      </trkpt>
      <trkpt lat="48.88875" lon="2.37451">
        <ele>114.1</ele>
        <time>2015-01-12T20:53:50.623Z</time>
      </trkpt>
      <trkpt lat="48.88872" lon="2.37446">
        <ele>113.6</ele>
        <time>2015-01-12T20:53:51.652Z</time>
      </trkpt>
      <trkpt lat="48.88868" lon="2.37442">
        <ele>113.4</ele>
        <time>2015-01-12T20:53:52.661Z</time>
      </trkpt>
      <trkpt lat="48.88864" lon="2.37437">
        <ele>113.3</ele>
        <time>2015-01-12T20:53:53.670Z</time>
      </trkpt>
      <trkpt lat="48.88861" lon="2.37433">
        <ele>113.1</ele>
        <time>2015-01-12T20:53:54.677Z</time>
      </trkpt>
      <trkpt lat="48.88854" lon="2.37424">
        <ele>112.4</ele>
        <time>2015-01-12T20:53:57.625Z</time>
      </trkpt>
      <trkpt lat="48.88852" lon="2.37423">
        <ele>112.3</ele>
        <time>2015-01-12T20:53:58.626Z</time>
      </trkpt>
      <trkpt lat="48.88848" lon="2.37414">
        <ele>112.5</ele>
        <time>2015-01-12T20:54:01.660Z</time>
      </trkpt>
      <trkpt lat="48.88848" lon="2.3741">
        <ele>112.8</ele>
        <time>2015-01-12T20:54:02.699Z</time>
      </trkpt>
      <trkpt lat="48.88848" lon="2.37396">
        <ele>113</ele>
        <time>2015-01-12T20:54:05.592Z</time>
      </trkpt>
      <trkpt lat="48.88848" lon="2.3739">
        <ele>113.3</ele>
        <time>2015-01-12T20:54:06.611Z</time>
      </trkpt>
      <trkpt lat="48.88851" lon="2.37381">
        <ele>113.2</ele>
        <time>2015-01-12T20:54:09.647Z</time>
      </trkpt>
      <trkpt lat="48.88852" lon="2.37376">
        <ele>113.2</ele>
        <time>2015-01-12T20:54:10.666Z</time>
      </trkpt>
      <trkpt lat="48.88855" lon="2.37366">
        <ele>113.2</ele>
        <time>2015-01-12T20:54:12.605Z</time>
      </trkpt>
      <trkpt lat="48.88856" lon="2.3736">
        <ele>113.3</ele>
        <time>2015-01-12T20:54:13.638Z</time>
      </trkpt>
      <trkpt lat="48.88859" lon="2.37352">
        <ele>112.2</ele>
        <time>2015-01-12T20:54:14.688Z</time>
      </trkpt>
      <trkpt lat="48.88862" lon="2.37344">
        <ele>110.7</ele>
        <time>2015-01-12T20:54:15.702Z</time>
      </trkpt>
      <trkpt lat="48.88866" lon="2.37337">
        <ele>109.6</ele>
        <time>2015-01-12T20:54:16.590Z</time>
      </trkpt>
      <trkpt lat="48.8887" lon="2.37331">
        <ele>108.8</ele>
        <time>2015-01-12T20:54:17.589Z</time>
      </trkpt>
      <trkpt lat="48.88875" lon="2.37325">
        <ele>108.4</ele>
        <time>2015-01-12T20:54:19.039Z</time>
      </trkpt>
      <trkpt lat="48.88879" lon="2.37319">
        <ele>108</ele>
        <time>2015-01-12T20:54:19.623Z</time>
      </trkpt>
      <trkpt lat="48.88881" lon="2.37313">
        <ele>108.3</ele>
        <time>2015-01-12T20:54:20.629Z</time>
      </trkpt>
      <trkpt lat="48.88884" lon="2.37307">
        <ele>108.3</ele>
        <time>2015-01-12T20:54:21.642Z</time>
      </trkpt>
      <trkpt lat="48.88886" lon="2.37299">
        <ele>108.4</ele>
        <time>2015-01-12T20:54:22.656Z</time>
      </trkpt>
      <trkpt lat="48.88888" lon="2.37292">
        <ele>108.5</ele>
        <time>2015-01-12T20:54:23.661Z</time>
      </trkpt>
      <trkpt lat="48.88889" lon="2.37285">
        <ele>108.9</ele>
        <time>2015-01-12T20:54:24.674Z</time>
      </trkpt>
      <trkpt lat="48.88893" lon="2.37278">
        <ele>109.1</ele>
        <time>2015-01-12T20:54:25.683Z</time>
      </trkpt>
      <trkpt lat="48.88897" lon="2.37273">
        <ele>109.3</ele>
        <time>2015-01-12T20:54:26.588Z</time>
      </trkpt>
      <trkpt lat="48.88899" lon="2.37265">
        <ele>109.6</ele>
        <time>2015-01-12T20:54:27.591Z</time>
      </trkpt>
      <trkpt lat="48.88898" lon="2.37257">
        <ele>109.5</ele>
        <time>2015-01-12T20:54:28.594Z</time>
      </trkpt>
      <trkpt lat="48.889" lon="2.3725">
        <ele>109.8</ele>
        <time>2015-01-12T20:54:29.598Z</time>
      </trkpt>
      <trkpt lat="48.88902" lon="2.37243">
        <ele>110.1</ele>
        <time>2015-01-12T20:54:30.612Z</time>
      </trkpt>
      <trkpt lat="48.88905" lon="2.37236">
        <ele>110.5</ele>
        <time>2015-01-12T20:54:31.629Z</time>
      </trkpt>
      <trkpt lat="48.88908" lon="2.37224">
        <ele>110.5</ele>
        <time>2015-01-12T20:54:33.587Z</time>
      </trkpt>
      <trkpt lat="48.88909" lon="2.37218">
        <ele>110.2</ele>
        <time>2015-01-12T20:54:34.689Z</time>
      </trkpt>
      <trkpt lat="48.88912" lon="2.37206">
        <ele>110.7</ele>
        <time>2015-01-12T20:54:36.603Z</time>
      </trkpt>
      <trkpt lat="48.88914" lon="2.372">
        <ele>110.7</ele>
        <time>2015-01-12T20:54:37.657Z</time>
      </trkpt>
      <trkpt lat="48.88918" lon="2.3719">
        <ele>110.8</ele>
        <time>2015-01-12T20:54:39.594Z</time>
      </trkpt>
      <trkpt lat="48.8892" lon="2.37184">
        <ele>110.8</ele>
        <time>2015-01-12T20:54:40.631Z</time>
      </trkpt>
      <trkpt lat="48.88926" lon="2.37176">
        <ele>111.1</ele>
        <time>2015-01-12T20:54:42.669Z</time>
      </trkpt>
      <trkpt lat="48.88927" lon="2.3717">
        <ele>110.8</ele>
        <time>2015-01-12T20:54:43.690Z</time>
      </trkpt>
      <trkpt lat="48.88928" lon="2.37157">
        <ele>108.6</ele>
        <time>2015-01-12T20:54:46.812Z</time>
      </trkpt>
      <trkpt lat="48.88931" lon="2.37153">
        <ele>108.7</ele>
        <time>2015-01-12T20:54:47.655Z</time>
      </trkpt>
      <trkpt lat="48.88934" lon="2.37142">
        <ele>109</ele>
        <time>2015-01-12T20:54:49.637Z</time>
      </trkpt>
      <trkpt lat="48.88935" lon="2.37136">
        <ele>109.4</ele>
        <time>2015-01-12T20:54:50.632Z</time>
      </trkpt>
      <trkpt lat="48.88936" lon="2.37125">
        <ele>110</ele>
        <time>2015-01-12T20:54:52.665Z</time>
      </trkpt>
      <trkpt lat="48.88936" lon="2.37119">
        <ele>110.3</ele>
        <time>2015-01-12T20:54:53.577Z</time>
      </trkpt>
      <trkpt lat="48.88933" lon="2.37108">
        <ele>109.2</ele>
        <time>2015-01-12T20:54:55.635Z</time>
      </trkpt>
      <trkpt lat="48.88932" lon="2.37103">
        <ele>108.5</ele>
        <time>2015-01-12T20:54:56.627Z</time>
      </trkpt>
      <trkpt lat="48.88931" lon="2.37092">
        <ele>107.5</ele>
        <time>2015-01-12T20:54:59.654Z</time>
      </trkpt>
      <trkpt lat="48.88932" lon="2.37087">
        <ele>107.5</ele>
        <time>2015-01-12T20:54:59.741Z</time>
      </trkpt>
      <trkpt lat="48.88935" lon="2.37076">
        <ele>107.3</ele>
        <time>2015-01-12T20:55:01.662Z</time>
      </trkpt>
      <trkpt lat="48.88937" lon="2.37071">
        <ele>107.5</ele>
        <time>2015-01-12T20:55:02.642Z</time>
      </trkpt>
      <trkpt lat="48.8894" lon="2.37059">
        <ele>108</ele>
        <time>2015-01-12T20:55:04.706Z</time>
      </trkpt>
      <trkpt lat="48.8894" lon="2.37052">
        <ele>108.4</ele>
        <time>2015-01-12T20:55:05.552Z</time>
      </trkpt>
      <trkpt lat="48.88942" lon="2.3704">
        <ele>109.2</ele>
        <time>2015-01-12T20:55:07.643Z</time>
      </trkpt>
      <trkpt lat="48.88943" lon="2.37034">
        <ele>109.6</ele>
        <time>2015-01-12T20:55:08.649Z</time>
      </trkpt>
      <trkpt lat="48.88946" lon="2.37023">
        <ele>110.8</ele>
        <time>2015-01-12T20:55:10.555Z</time>
      </trkpt>
      <trkpt lat="48.88947" lon="2.37017">
        <ele>111.6</ele>
        <time>2015-01-12T20:55:11.633Z</time>
      </trkpt>
      <trkpt lat="48.88949" lon="2.37005">
        <ele>112.4</ele>
        <time>2015-01-12T20:55:13.653Z</time>
      </trkpt>
      <trkpt lat="48.88951" lon="2.37">
        <ele>112.6</ele>
        <time>2015-01-12T20:55:14.565Z</time>
      </trkpt>
      <trkpt lat="48.88952" lon="2.3699">
        <ele>112.2</ele>
        <time>2015-01-12T20:55:16.578Z</time>
      </trkpt>
      <trkpt lat="48.88953" lon="2.36984">
        <ele>112.2</ele>
        <time>2015-01-12T20:55:17.593Z</time>
      </trkpt>
      <trkpt lat="48.88955" lon="2.36972">
        <ele>112.7</ele>
        <time>2015-01-12T20:55:20.180Z</time>
      </trkpt>
      <trkpt lat="48.88957" lon="2.36967">
        <ele>113</ele>
        <time>2015-01-12T20:55:20.659Z</time>
      </trkpt>
      <trkpt lat="48.88961" lon="2.36955">
        <ele>114.2</ele>
        <time>2015-01-12T20:55:22.677Z</time>
      </trkpt>
      <trkpt lat="48.88963" lon="2.36949">
        <ele>114.5</ele>
        <time>2015-01-12T20:55:23.681Z</time>
      </trkpt>
      <trkpt lat="48.88968" lon="2.3694">
        <ele>114.8</ele>
        <time>2015-01-12T20:55:25.603Z</time>
      </trkpt>
      <trkpt lat="48.8897" lon="2.36934">
        <ele>115.1</ele>
        <time>2015-01-12T20:55:26.615Z</time>
      </trkpt>
      <trkpt lat="48.88973" lon="2.36923">
        <ele>115.3</ele>
        <time>2015-01-12T20:55:28.765Z</time>
      </trkpt>
      <trkpt lat="48.88974" lon="2.36917">
        <ele>115.3</ele>
        <time>2015-01-12T20:55:29.599Z</time>
      </trkpt>
      <trkpt lat="48.88974" lon="2.36907">
        <ele>114.1</ele>
        <time>2015-01-12T20:55:32.307Z</time>
      </trkpt>
      <trkpt lat="48.88974" lon="2.36901">
        <ele>113.9</ele>
        <time>2015-01-12T20:55:32.649Z</time>
      </trkpt>
      <trkpt lat="48.88975" lon="2.36888">
        <ele>114.3</ele>
        <time>2015-01-12T20:55:35.468Z</time>
      </trkpt>
      <trkpt lat="48.88975" lon="2.36881">
        <ele>114.9</ele>
        <time>2015-01-12T20:55:35.560Z</time>
      </trkpt>
      <trkpt lat="48.88977" lon="2.36868">
        <ele>115.7</ele>
        <time>2015-01-12T20:55:37.663Z</time>
      </trkpt>
      <trkpt lat="48.88977" lon="2.36862">
        <ele>116.3</ele>
        <time>2015-01-12T20:55:38.560Z</time>
      </trkpt>
      <trkpt lat="48.88977" lon="2.3685">
        <ele>116.7</ele>
        <time>2015-01-12T20:55:40.586Z</time>
      </trkpt>
      <trkpt lat="48.88976" lon="2.36844">
        <ele>116.2</ele>
        <time>2015-01-12T20:55:41.600Z</time>
      </trkpt>
      <trkpt lat="48.88975" lon="2.36834">
        <ele>115.7</ele>
        <time>2015-01-12T20:55:43.630Z</time>
      </trkpt>
      <trkpt lat="48.88975" lon="2.36829">
        <ele>115.5</ele>
        <time>2015-01-12T20:55:44.629Z</time>
      </trkpt>
      <trkpt lat="48.88973" lon="2.36819">
        <ele>115.2</ele>
        <time>2015-01-12T20:55:46.667Z</time>
      </trkpt>
      <trkpt lat="48.88973" lon="2.36814">
        <ele>115.1</ele>
        <time>2015-01-12T20:55:47.586Z</time>
      </trkpt>
      <trkpt lat="48.88973" lon="2.36804">
        <ele>115</ele>
        <time>2015-01-12T20:55:49.817Z</time>
      </trkpt>
      <trkpt lat="48.88974" lon="2.36798">
        <ele>115</ele>
        <time>2015-01-12T20:55:50.626Z</time>
      </trkpt>
      <trkpt lat="48.88974" lon="2.36786">
        <ele>115.3</ele>
        <time>2015-01-12T20:55:52.666Z</time>
      </trkpt>
      <trkpt lat="48.88973" lon="2.36779">
        <ele>115</ele>
        <time>2015-01-12T20:55:53.589Z</time>
      </trkpt>
      <trkpt lat="48.88973" lon="2.36766">
        <ele>114.2</ele>
        <time>2015-01-12T20:55:55.705Z</time>
      </trkpt>
      <trkpt lat="48.88973" lon="2.3676">
        <ele>114</ele>
        <time>2015-01-12T20:55:56.561Z</time>
      </trkpt>
      <trkpt lat="48.88974" lon="2.36753">
        <ele>113.5</ele>
        <time>2015-01-12T20:55:57.584Z</time>
      </trkpt>
      <trkpt lat="48.88974" lon="2.36745">
        <ele>112.9</ele>
        <time>2015-01-12T20:55:58.602Z</time>
      </trkpt>
      <trkpt lat="48.88975" lon="2.36738">
        <ele>112.2</ele>
        <time>2015-01-12T20:55:59.832Z</time>
      </trkpt>
      <trkpt lat="48.88977" lon="2.36731">
        <ele>111.8</ele>
        <time>2015-01-12T20:56:00.637Z</time>
      </trkpt>
      <trkpt lat="48.88977" lon="2.36724">
        <ele>111.3</ele>
        <time>2015-01-12T20:56:01.698Z</time>
      </trkpt>
      <trkpt lat="48.88977" lon="2.36715">
        <ele>111.3</ele>
        <time>2015-01-12T20:56:02.582Z</time>
      </trkpt>
      <trkpt lat="48.88978" lon="2.36708">
        <ele>111.1</ele>
        <time>2015-01-12T20:56:03.597Z</time>
      </trkpt>
      <trkpt lat="48.88979" lon="2.36702">
        <ele>110.9</ele>
        <time>2015-01-12T20:56:04.602Z</time>
      </trkpt>
      <trkpt lat="48.88979" lon="2.36688">
        <ele>110.6</ele>
        <time>2015-01-12T20:56:06.595Z</time>
      </trkpt>
      <trkpt lat="48.88979" lon="2.36681">
        <ele>110.4</ele>
        <time>2015-01-12T20:56:07.633Z</time>
      </trkpt>
      <trkpt lat="48.8898" lon="2.36674">
        <ele>110.3</ele>
        <time>2015-01-12T20:56:08.593Z</time>
      </trkpt>
      <trkpt lat="48.88981" lon="2.36667">
        <ele>110.5</ele>
        <time>2015-01-12T20:56:09.618Z</time>
      </trkpt>
      <trkpt lat="48.88981" lon="2.36659">
        <ele>110.3</ele>
        <time>2015-01-12T20:56:10.647Z</time>
      </trkpt>
      <trkpt lat="48.88981" lon="2.36652">
        <ele>109.6</ele>
        <time>2015-01-12T20:56:11.661Z</time>
      </trkpt>
      <trkpt lat="48.88981" lon="2.36644">
        <ele>109.3</ele>
        <time>2015-01-12T20:56:12.635Z</time>
      </trkpt>
      <trkpt lat="48.88981" lon="2.36637">
        <ele>109</ele>
        <time>2015-01-12T20:56:13.642Z</time>
      </trkpt>
      <trkpt lat="48.88982" lon="2.3663">
        <ele>108.8</ele>
        <time>2015-01-12T20:56:14.656Z</time>
      </trkpt>
      <trkpt lat="48.88982" lon="2.36623">
        <ele>108.8</ele>
        <time>2015-01-12T20:56:15.673Z</time>
      </trkpt>
      <trkpt lat="48.88983" lon="2.3661">
        <ele>108</ele>
        <time>2015-01-12T20:56:17.583Z</time>
      </trkpt>
      <trkpt lat="48.88983" lon="2.36603">
        <ele>107.9</ele>
        <time>2015-01-12T20:56:18.636Z</time>
      </trkpt>
      <trkpt lat="48.88984" lon="2.3659">
        <ele>107.8</ele>
        <time>2015-01-12T20:56:20.659Z</time>
      </trkpt>
      <trkpt lat="48.88985" lon="2.36584">
        <ele>107.9</ele>
        <time>2015-01-12T20:56:21.740Z</time>
      </trkpt>
      <trkpt lat="48.88985" lon="2.36572">
        <ele>107.7</ele>
        <time>2015-01-12T20:56:23.636Z</time>
      </trkpt>
      <trkpt lat="48.88986" lon="2.36565">
        <ele>107.9</ele>
        <time>2015-01-12T20:56:24.650Z</time>
      </trkpt>
      <trkpt lat="48.88986" lon="2.36553">
        <ele>107.6</ele>
        <time>2015-01-12T20:56:27.611Z</time>
      </trkpt>
      <trkpt lat="48.88987" lon="2.36546">
        <ele>107.6</ele>
        <time>2015-01-12T20:56:27.682Z</time>
      </trkpt>
      <trkpt lat="48.88987" lon="2.36539">
        <ele>107.5</ele>
        <time>2015-01-12T20:56:28.619Z</time>
      </trkpt>
      <trkpt lat="48.88988" lon="2.36532">
        <ele>107.4</ele>
        <time>2015-01-12T20:56:29.628Z</time>
      </trkpt>
      <trkpt lat="48.88988" lon="2.36524">
        <ele>107.3</ele>
        <time>2015-01-12T20:56:30.687Z</time>
      </trkpt>
      <trkpt lat="48.88988" lon="2.36516">
        <ele>107.2</ele>
        <time>2015-01-12T20:56:31.648Z</time>
      </trkpt>
      <trkpt lat="48.88988" lon="2.36509">
        <ele>107.4</ele>
        <time>2015-01-12T20:56:32.643Z</time>
      </trkpt>
      <trkpt lat="48.88989" lon="2.36502">
        <ele>107.6</ele>
        <time>2015-01-12T20:56:33.659Z</time>
      </trkpt>
      <trkpt lat="48.88989" lon="2.36493">
        <ele>107.6</ele>
        <time>2015-01-12T20:56:34.672Z</time>
      </trkpt>
      <trkpt lat="48.88989" lon="2.36486">
        <ele>107.8</ele>
        <time>2015-01-12T20:56:35.682Z</time>
      </trkpt>
      <trkpt lat="48.88989" lon="2.36478">
        <ele>107.7</ele>
        <time>2015-01-12T20:56:36.573Z</time>
      </trkpt>
      <trkpt lat="48.88989" lon="2.3647">
        <ele>107.9</ele>
        <time>2015-01-12T20:56:37.642Z</time>
      </trkpt>
      <trkpt lat="48.88988" lon="2.36457">
        <ele>107.9</ele>
        <time>2015-01-12T20:56:40.714Z</time>
      </trkpt>
      <trkpt lat="48.88988" lon="2.36453">
        <ele>107.5</ele>
        <time>2015-01-12T20:56:41.563Z</time>
      </trkpt>
      <trkpt lat="48.8899" lon="2.36441">
        <ele>107.8</ele>
        <time>2015-01-12T20:56:45.595Z</time>
      </trkpt>
      <trkpt lat="48.88991" lon="2.36438">
        <ele>108</ele>
        <time>2015-01-12T20:56:46.627Z</time>
      </trkpt>
      <trkpt lat="48.8899" lon="2.36428">
        <ele>108.3</ele>
        <time>2015-01-12T20:56:49.702Z</time>
      </trkpt>
      <trkpt lat="48.8899" lon="2.36424">
        <ele>108.2</ele>
        <time>2015-01-12T20:56:50.587Z</time>
      </trkpt>
      <trkpt lat="48.88989" lon="2.36412">
        <ele>108.3</ele>
        <time>2015-01-12T20:56:53.665Z</time>
      </trkpt>
      <trkpt lat="48.88989" lon="2.36407">
        <ele>108.4</ele>
        <time>2015-01-12T20:56:54.667Z</time>
      </trkpt>
      <trkpt lat="48.8899" lon="2.36394">
        <ele>107.2</ele>
        <time>2015-01-12T20:56:57.676Z</time>
      </trkpt>
      <trkpt lat="48.8899" lon="2.36389">
        <ele>106.8</ele>
        <time>2015-01-12T20:56:58.677Z</time>
      </trkpt>
      <trkpt lat="48.88992" lon="2.3638">
        <ele>106.3</ele>
        <time>2015-01-12T20:57:00.600Z</time>
      </trkpt>
      <trkpt lat="48.88993" lon="2.36376">
        <ele>106.1</ele>
        <time>2015-01-12T20:57:01.647Z</time>
      </trkpt>
      <trkpt lat="48.88993" lon="2.36362">
        <ele>105.6</ele>
        <time>2015-01-12T20:57:04.595Z</time>
      </trkpt>
      <trkpt lat="48.88994" lon="2.36358">
        <ele>105.3</ele>
        <time>2015-01-12T20:57:05.602Z</time>
      </trkpt>
      <trkpt lat="48.88993" lon="2.36346">
        <ele>104.9</ele>
        <time>2015-01-12T20:57:07.634Z</time>
      </trkpt>
      <trkpt lat="48.88992" lon="2.36342">
        <ele>104.8</ele>
        <time>2015-01-12T20:57:08.647Z</time>
      </trkpt>
      <trkpt lat="48.88988" lon="2.3633">
        <ele>108</ele>
        <time>2015-01-12T20:57:10.671Z</time>
      </trkpt>
      <trkpt lat="48.88987" lon="2.36327">
        <ele>108.4</ele>
        <time>2015-01-12T20:57:11.571Z</time>
      </trkpt>
      <trkpt lat="48.88985" lon="2.36315">
        <ele>109.8</ele>
        <time>2015-01-12T20:57:14.657Z</time>
      </trkpt>
      <trkpt lat="48.88984" lon="2.36312">
        <ele>110.6</ele>
        <time>2015-01-12T20:57:15.676Z</time>
      </trkpt>
      <trkpt lat="48.88983" lon="2.36308">
        <ele>112.2</ele>
        <time>2015-01-12T20:57:43.713Z</time>
      </trkpt>
      <trkpt lat="48.88984" lon="2.36285">
        <ele>122.3</ele>
        <time>2015-01-12T20:57:44.611Z</time>
      </trkpt>
      <trkpt lat="48.88985" lon="2.36275">
        <ele>121.9</ele>
        <time>2015-01-12T20:57:46.594Z</time>
      </trkpt>
      <trkpt lat="48.88986" lon="2.36269">
        <ele>121.8</ele>
        <time>2015-01-12T20:57:47.607Z</time>
      </trkpt>
      <trkpt lat="48.88987" lon="2.36257">
        <ele>121.1</ele>
        <time>2015-01-12T20:57:49.639Z</time>
      </trkpt>
      <trkpt lat="48.88988" lon="2.36252">
        <ele>120.7</ele>
        <time>2015-01-12T20:57:50.615Z</time>
      </trkpt>
      <trkpt lat="48.88994" lon="2.36242">
        <ele>120</ele>
        <time>2015-01-12T20:57:53.767Z</time>
      </trkpt>
      <trkpt lat="48.88996" lon="2.36237">
        <ele>119.8</ele>
        <time>2015-01-12T20:57:54.582Z</time>
      </trkpt>
      <trkpt lat="48.89" lon="2.36228">
        <ele>119.6</ele>
        <time>2015-01-12T20:57:57.595Z</time>
      </trkpt>
      <trkpt lat="48.89001" lon="2.36224">
        <ele>119.5</ele>
        <time>2015-01-12T20:57:58.626Z</time>
      </trkpt>
      <trkpt lat="48.89006" lon="2.36216">
        <ele>119.5</ele>
        <time>2015-01-12T20:58:00.934Z</time>
      </trkpt>
      <trkpt lat="48.89007" lon="2.36213">
        <ele>119.4</ele>
        <time>2015-01-12T20:58:01.621Z</time>
      </trkpt>
      <trkpt lat="48.89011" lon="2.36201">
        <ele>119.2</ele>
        <time>2015-01-12T20:58:05.617Z</time>
      </trkpt>
      <trkpt lat="48.89012" lon="2.36197">
        <ele>119.2</ele>
        <time>2015-01-12T20:58:06.633Z</time>
      </trkpt>
      <trkpt lat="48.89012" lon="2.36187">
        <ele>118.9</ele>
        <time>2015-01-12T20:58:08.632Z</time>
      </trkpt>
      <trkpt lat="48.89012" lon="2.36181">
        <ele>118.7</ele>
        <time>2015-01-12T20:58:09.565Z</time>
      </trkpt>
      <trkpt lat="48.8901" lon="2.36169">
        <ele>118.1</ele>
        <time>2015-01-12T20:58:11.653Z</time>
      </trkpt>
      <trkpt lat="48.8901" lon="2.36163">
        <ele>118.2</ele>
        <time>2015-01-12T20:58:12.626Z</time>
      </trkpt>
      <trkpt lat="48.89013" lon="2.36151">
        <ele>117.8</ele>
        <time>2015-01-12T20:58:14.616Z</time>
      </trkpt>
      <trkpt lat="48.89014" lon="2.36145">
        <ele>117.8</ele>
        <time>2015-01-12T20:58:15.668Z</time>
      </trkpt>
      <trkpt lat="48.89013" lon="2.36134">
        <ele>117.5</ele>
        <time>2015-01-12T20:58:17.561Z</time>
      </trkpt>
      <trkpt lat="48.89013" lon="2.3613">
        <ele>117.1</ele>
        <time>2015-01-12T20:58:18.700Z</time>
      </trkpt>
      <trkpt lat="48.89017" lon="2.36122">
        <ele>116.1</ele>
        <time>2015-01-12T20:58:20.566Z</time>
      </trkpt>
      <trkpt lat="48.8902" lon="2.36119">
        <ele>116</ele>
        <time>2015-01-12T20:58:21.733Z</time>
      </trkpt>
      <trkpt lat="48.89027" lon="2.36112">
        <ele>115.1</ele>
        <time>2015-01-12T20:58:23.671Z</time>
      </trkpt>
      <trkpt lat="48.89031" lon="2.36109">
        <ele>114.7</ele>
        <time>2015-01-12T20:58:24.686Z</time>
      </trkpt>
      <trkpt lat="48.89035" lon="2.36098">
        <ele>113.3</ele>
        <time>2015-01-12T20:58:27.573Z</time>
      </trkpt>
      <trkpt lat="48.89034" lon="2.36091">
        <ele>113</ele>
        <time>2015-01-12T20:58:28.610Z</time>
      </trkpt>
      <trkpt lat="48.89031" lon="2.36078">
        <ele>111.9</ele>
        <time>2015-01-12T20:58:30.648Z</time>
      </trkpt>
      <trkpt lat="48.8903" lon="2.36072">
        <ele>111.5</ele>
        <time>2015-01-12T20:58:31.672Z</time>
      </trkpt>
      <trkpt lat="48.89029" lon="2.36066">
        <ele>111.2</ele>
        <time>2015-01-12T20:58:32.580Z</time>
      </trkpt>
      <trkpt lat="48.89027" lon="2.36058">
        <ele>110.8</ele>
        <time>2015-01-12T20:58:33.589Z</time>
      </trkpt>
      <trkpt lat="48.89027" lon="2.36052">
        <ele>110.8</ele>
        <time>2015-01-12T20:58:34.606Z</time>
      </trkpt>
      <trkpt lat="48.89027" lon="2.36045">
        <ele>110.9</ele>
        <time>2015-01-12T20:58:35.616Z</time>
      </trkpt>
      <trkpt lat="48.89029" lon="2.36032">
        <ele>110.3</ele>
        <time>2015-01-12T20:58:37.633Z</time>
      </trkpt>
      <trkpt lat="48.89029" lon="2.36029">
        <ele>109.7</ele>
        <time>2015-01-12T20:58:38.645Z</time>
      </trkpt>
      <trkpt lat="48.89029" lon="2.36018">
        <ele>110.3</ele>
        <time>2015-01-12T20:58:41.619Z</time>
      </trkpt>
      <trkpt lat="48.8903" lon="2.36015">
        <ele>111.1</ele>
        <time>2015-01-12T20:58:42.630Z</time>
      </trkpt>
      <trkpt lat="48.8903" lon="2.36017">
        <ele>110.4</ele>
        <time>2015-01-12T20:59:13.596Z</time>
      </trkpt>
      <trkpt lat="48.89026" lon="2.35997">
        <ele>118.8</ele>
        <time>2015-01-12T20:59:14.610Z</time>
      </trkpt>
      <trkpt lat="48.89027" lon="2.35986">
        <ele>118.6</ele>
        <time>2015-01-12T20:59:17.636Z</time>
      </trkpt>
      <trkpt lat="48.89027" lon="2.35982">
        <ele>118.5</ele>
        <time>2015-01-12T20:59:18.696Z</time>
      </trkpt>
      <trkpt lat="48.89026" lon="2.3597">
        <ele>118</ele>
        <time>2015-01-12T20:59:21.617Z</time>
      </trkpt>
      <trkpt lat="48.89026" lon="2.35966">
        <ele>117.5</ele>
        <time>2015-01-12T20:59:22.644Z</time>
      </trkpt>
      <trkpt lat="48.89026" lon="2.35955">
        <ele>117.1</ele>
        <time>2015-01-12T20:59:26.089Z</time>
      </trkpt>
      <trkpt lat="48.89027" lon="2.35952">
        <ele>117.1</ele>
        <time>2015-01-12T20:59:26.577Z</time>
      </trkpt>
      <trkpt lat="48.8903" lon="2.3594">
        <ele>117.1</ele>
        <time>2015-01-12T20:59:30.565Z</time>
      </trkpt>
      <trkpt lat="48.89031" lon="2.35936">
        <ele>117.2</ele>
        <time>2015-01-12T20:59:31.627Z</time>
      </trkpt>
      <trkpt lat="48.8903" lon="2.35926">
        <ele>117.8</ele>
        <time>2015-01-12T20:59:33.669Z</time>
      </trkpt>
      <trkpt lat="48.8903" lon="2.35919">
        <ele>118.1</ele>
        <time>2015-01-12T20:59:34.600Z</time>
      </trkpt>
      <trkpt lat="48.8903" lon="2.35907">
        <ele>118.7</ele>
        <time>2015-01-12T20:59:36.595Z</time>
      </trkpt>
      <trkpt lat="48.8903" lon="2.35899">
        <ele>119</ele>
        <time>2015-01-12T20:59:37.634Z</time>
      </trkpt>
      <trkpt lat="48.8903" lon="2.35891">
        <ele>119.1</ele>
        <time>2015-01-12T20:59:38.647Z</time>
      </trkpt>
      <trkpt lat="48.8903" lon="2.35883">
        <ele>119</ele>
        <time>2015-01-12T20:59:39.655Z</time>
      </trkpt>
      <trkpt lat="48.8903" lon="2.35875">
        <ele>118.9</ele>
        <time>2015-01-12T20:59:40.558Z</time>
      </trkpt>
      <trkpt lat="48.89029" lon="2.35868">
        <ele>118.6</ele>
        <time>2015-01-12T20:59:41.617Z</time>
      </trkpt>
      <trkpt lat="48.8903" lon="2.35856">
        <ele>118.6</ele>
        <time>2015-01-12T20:59:43.664Z</time>
      </trkpt>
      <trkpt lat="48.8903" lon="2.35852">
        <ele>118.7</ele>
        <time>2015-01-12T20:59:44.668Z</time>
      </trkpt>
      <trkpt lat="48.89035" lon="2.35841">
        <ele>119.7</ele>
        <time>2015-01-12T20:59:46.613Z</time>
      </trkpt>
      <trkpt lat="48.89036" lon="2.35835">
        <ele>119.3</ele>
        <time>2015-01-12T20:59:47.623Z</time>
      </trkpt>
      <trkpt lat="48.89036" lon="2.35826">
        <ele>119</ele>
        <time>2015-01-12T20:59:48.636Z</time>
      </trkpt>
      <trkpt lat="48.89036" lon="2.35817">
        <ele>118.3</ele>
        <time>2015-01-12T20:59:49.642Z</time>
      </trkpt>
      <trkpt lat="48.89036" lon="2.3581">
        <ele>117.7</ele>
        <time>2015-01-12T20:59:50.648Z</time>
      </trkpt>
      <trkpt lat="48.89036" lon="2.35802">
        <ele>117.2</ele>
        <time>2015-01-12T20:59:51.655Z</time>
      </trkpt>
      <trkpt lat="48.89036" lon="2.35794">
        <ele>116.5</ele>
        <time>2015-01-12T20:59:52.660Z</time>
      </trkpt>
      <trkpt lat="48.89036" lon="2.35785">
        <ele>116.2</ele>
        <time>2015-01-12T20:59:53.671Z</time>
      </trkpt>
      <trkpt lat="48.89036" lon="2.35777">
        <ele>116.2</ele>
        <time>2015-01-12T20:59:54.745Z</time>
      </trkpt>
      <trkpt lat="48.89036" lon="2.35769">
        <ele>115.8</ele>
        <time>2015-01-12T20:59:55.770Z</time>
      </trkpt>
      <trkpt lat="48.89035" lon="2.35762">
        <ele>114.4</ele>
        <time>2015-01-12T20:59:56.598Z</time>
      </trkpt>
      <trkpt lat="48.89036" lon="2.35755">
        <ele>113.6</ele>
        <time>2015-01-12T20:59:57.615Z</time>
      </trkpt>
      <trkpt lat="48.89036" lon="2.35741">
        <ele>112.6</ele>
        <time>2015-01-12T20:59:59.801Z</time>
      </trkpt>
      <trkpt lat="48.89036" lon="2.35734">
        <ele>111.9</ele>
        <time>2015-01-12T21:00:00.652Z</time>
      </trkpt>
      <trkpt lat="48.89036" lon="2.35726">
        <ele>111.2</ele>
        <time>2015-01-12T21:00:01.678Z</time>
      </trkpt>
      <trkpt lat="48.89037" lon="2.35718">
        <ele>111.2</ele>
        <time>2015-01-12T21:00:02.701Z</time>
      </trkpt>
      <trkpt lat="48.89037" lon="2.35705">
        <ele>110.9</ele>
        <time>2015-01-12T21:00:04.850Z</time>
      </trkpt>
      <trkpt lat="48.89037" lon="2.35697">
        <ele>109.9</ele>
        <time>2015-01-12T21:00:05.681Z</time>
      </trkpt>
      <trkpt lat="48.89038" lon="2.3569">
        <ele>109.8</ele>
        <time>2015-01-12T21:00:06.610Z</time>
      </trkpt>
      <trkpt lat="48.89038" lon="2.35681">
        <ele>109.4</ele>
        <time>2015-01-12T21:00:07.672Z</time>
      </trkpt>
      <trkpt lat="48.89038" lon="2.35672">
        <ele>110.4</ele>
        <time>2015-01-12T21:00:08.596Z</time>
      </trkpt>
      <trkpt lat="48.89039" lon="2.35664">
        <ele>110.2</ele>
        <time>2015-01-12T21:00:09.599Z</time>
      </trkpt>
      <trkpt lat="48.89038" lon="2.35656">
        <ele>110.2</ele>
        <time>2015-01-12T21:00:10.610Z</time>
      </trkpt>
      <trkpt lat="48.89038" lon="2.35648">
        <ele>110.3</ele>
        <time>2015-01-12T21:00:11.623Z</time>
      </trkpt>
      <trkpt lat="48.89038" lon="2.35641">
        <ele>110.2</ele>
        <time>2015-01-12T21:00:12.636Z</time>
      </trkpt>
      <trkpt lat="48.89038" lon="2.35634">
        <ele>110.3</ele>
        <time>2015-01-12T21:00:13.655Z</time>
      </trkpt>
      <trkpt lat="48.89039" lon="2.35627">
        <ele>110.1</ele>
        <time>2015-01-12T21:00:14.967Z</time>
      </trkpt>
      <trkpt lat="48.89039" lon="2.3562">
        <ele>110</ele>
        <time>2015-01-12T21:00:15.712Z</time>
      </trkpt>
      <trkpt lat="48.89039" lon="2.35611">
        <ele>110.1</ele>
        <time>2015-01-12T21:00:16.604Z</time>
      </trkpt>
      <trkpt lat="48.89039" lon="2.35603">
        <ele>110.1</ele>
        <time>2015-01-12T21:00:17.643Z</time>
      </trkpt>
      <trkpt lat="48.8904" lon="2.35596">
        <ele>110.2</ele>
        <time>2015-01-12T21:00:18.681Z</time>
      </trkpt>
      <trkpt lat="48.8904" lon="2.35589">
        <ele>110.1</ele>
        <time>2015-01-12T21:00:19.699Z</time>
      </trkpt>
      <trkpt lat="48.8904" lon="2.35582">
        <ele>110.2</ele>
        <time>2015-01-12T21:00:20.586Z</time>
      </trkpt>
      <trkpt lat="48.8904" lon="2.35574">
        <ele>110</ele>
        <time>2015-01-12T21:00:21.588Z</time>
      </trkpt>
      <trkpt lat="48.89039" lon="2.3556">
        <ele>109.9</ele>
        <time>2015-01-12T21:00:23.655Z</time>
      </trkpt>
      <trkpt lat="48.89039" lon="2.35555">
        <ele>109.9</ele>
        <time>2015-01-12T21:00:24.578Z</time>
      </trkpt>
      <trkpt lat="48.89038" lon="2.35542">
        <ele>109.3</ele>
        <time>2015-01-12T21:00:27.586Z</time>
      </trkpt>
      <trkpt lat="48.89038" lon="2.3554">
        <ele>109.2</ele>
        <time>2015-01-12T21:00:28.601Z</time>
      </trkpt>
      <trkpt lat="48.89039" lon="2.35529">
        <ele>109</ele>
        <time>2015-01-12T21:00:31.656Z</time>
      </trkpt>
      <trkpt lat="48.89038" lon="2.35524">
        <ele>109.2</ele>
        <time>2015-01-12T21:00:32.594Z</time>
      </trkpt>
      <trkpt lat="48.89041" lon="2.35513">
        <ele>109.5</ele>
        <time>2015-01-12T21:00:35.650Z</time>
      </trkpt>
      <trkpt lat="48.89042" lon="2.3551">
        <ele>109.7</ele>
        <time>2015-01-12T21:00:36.558Z</time>
      </trkpt>
      <trkpt lat="48.89045" lon="2.35497">
        <ele>109.9</ele>
        <time>2015-01-12T21:00:39.675Z</time>
      </trkpt>
      <trkpt lat="48.89044" lon="2.35491">
        <ele>109.9</ele>
        <time>2015-01-12T21:00:40.585Z</time>
      </trkpt>
      <trkpt lat="48.89042" lon="2.35478">
        <ele>109.5</ele>
        <time>2015-01-12T21:00:42.607Z</time>
      </trkpt>
      <trkpt lat="48.89041" lon="2.35471">
        <ele>109.5</ele>
        <time>2015-01-12T21:00:43.627Z</time>
      </trkpt>
      <trkpt lat="48.89038" lon="2.35458">
        <ele>109.2</ele>
        <time>2015-01-12T21:00:45.647Z</time>
      </trkpt>
      <trkpt lat="48.89037" lon="2.35451">
        <ele>109.3</ele>
        <time>2015-01-12T21:00:46.653Z</time>
      </trkpt>
      <trkpt lat="48.89037" lon="2.35445">
        <ele>109.7</ele>
        <time>2015-01-12T21:00:47.657Z</time>
      </trkpt>
      <trkpt lat="48.89037" lon="2.35438">
        <ele>109.8</ele>
        <time>2015-01-12T21:00:48.608Z</time>
      </trkpt>
      <trkpt lat="48.89037" lon="2.35429">
        <ele>109.8</ele>
        <time>2015-01-12T21:00:50.645Z</time>
      </trkpt>
      <trkpt lat="48.89038" lon="2.35424">
        <ele>109.8</ele>
        <time>2015-01-12T21:00:51.651Z</time>
      </trkpt>
      <trkpt lat="48.89037" lon="2.35411">
        <ele>109.9</ele>
        <time>2015-01-12T21:00:53.580Z</time>
      </trkpt>
      <trkpt lat="48.89037" lon="2.35404">
        <ele>109.9</ele>
        <time>2015-01-12T21:00:54.596Z</time>
      </trkpt>
      <trkpt lat="48.89037" lon="2.35393">
        <ele>109.9</ele>
        <time>2015-01-12T21:00:56.624Z</time>
      </trkpt>
      <trkpt lat="48.89038" lon="2.35388">
        <ele>109.9</ele>
        <time>2015-01-12T21:00:57.559Z</time>
      </trkpt>
      <trkpt lat="48.89041" lon="2.35375">
        <ele>109</ele>
        <time>2015-01-12T21:00:59.638Z</time>
      </trkpt>
      <trkpt lat="48.89043" lon="2.35366">
        <ele>108.4</ele>
        <time>2015-01-12T21:01:00.651Z</time>
      </trkpt>
      <trkpt lat="48.89044" lon="2.35358">
        <ele>108.1</ele>
        <time>2015-01-12T21:01:01.703Z</time>
      </trkpt>
      <trkpt lat="48.89044" lon="2.35351">
        <ele>108.4</ele>
        <time>2015-01-12T21:01:02.575Z</time>
      </trkpt>
      <trkpt lat="48.89042" lon="2.35343">
        <ele>108.1</ele>
        <time>2015-01-12T21:01:03.575Z</time>
      </trkpt>
      <trkpt lat="48.89041" lon="2.35338">
        <ele>107.9</ele>
        <time>2015-01-12T21:01:04.593Z</time>
      </trkpt>
      <trkpt lat="48.89041" lon="2.35325">
        <ele>108.4</ele>
        <time>2015-01-12T21:01:07.703Z</time>
      </trkpt>
      <trkpt lat="48.89041" lon="2.3532">
        <ele>108.6</ele>
        <time>2015-01-12T21:01:08.585Z</time>
      </trkpt>
      <trkpt lat="48.89041" lon="2.35307">
        <ele>109.4</ele>
        <time>2015-01-12T21:01:11.591Z</time>
      </trkpt>
      <trkpt lat="48.89041" lon="2.35303">
        <ele>109.8</ele>
        <time>2015-01-12T21:01:12.580Z</time>
      </trkpt>
      <trkpt lat="48.89043" lon="2.35293">
        <ele>110.6</ele>
        <time>2015-01-12T21:01:14.641Z</time>
      </trkpt>
      <trkpt lat="48.89045" lon="2.35287">
        <ele>110.7</ele>
        <time>2015-01-12T21:01:15.658Z</time>
      </trkpt>
      <trkpt lat="48.89047" lon="2.35275">
        <ele>111.5</ele>
        <time>2015-01-12T21:01:17.600Z</time>
      </trkpt>
      <trkpt lat="48.89046" lon="2.35269">
        <ele>112.3</ele>
        <time>2015-01-12T21:01:18.572Z</time>
      </trkpt>
      <trkpt lat="48.89047" lon="2.35256">
        <ele>112.9</ele>
        <time>2015-01-12T21:01:20.621Z</time>
      </trkpt>
      <trkpt lat="48.89047" lon="2.35251">
        <ele>113.3</ele>
        <time>2015-01-12T21:01:21.663Z</time>
      </trkpt>
      <trkpt lat="48.89049" lon="2.35238">
        <ele>113.9</ele>
        <time>2015-01-12T21:01:23.594Z</time>
      </trkpt>
      <trkpt lat="48.89049" lon="2.35233">
        <ele>114.1</ele>
        <time>2015-01-12T21:01:24.615Z</time>
      </trkpt>
      <trkpt lat="48.89049" lon="2.35225">
        <ele>113.6</ele>
        <time>2015-01-12T21:01:25.624Z</time>
      </trkpt>
      <trkpt lat="48.89049" lon="2.35217">
        <ele>113.6</ele>
        <time>2015-01-12T21:01:26.563Z</time>
      </trkpt>
      <trkpt lat="48.89048" lon="2.35209">
        <ele>113.6</ele>
        <time>2015-01-12T21:01:27.584Z</time>
      </trkpt>
      <trkpt lat="48.89047" lon="2.35198">
        <ele>112.8</ele>
        <time>2015-01-12T21:01:28.592Z</time>
      </trkpt>
      <trkpt lat="48.89046" lon="2.3519">
        <ele>112.8</ele>
        <time>2015-01-12T21:01:29.649Z</time>
      </trkpt>
      <trkpt lat="48.89046" lon="2.35182">
        <ele>113.2</ele>
        <time>2015-01-12T21:01:30.584Z</time>
      </trkpt>
      <trkpt lat="48.89046" lon="2.35176">
        <ele>113.5</ele>
        <time>2015-01-12T21:01:31.605Z</time>
      </trkpt>
      <trkpt lat="48.89046" lon="2.35168">
        <ele>113.7</ele>
        <time>2015-01-12T21:01:32.607Z</time>
      </trkpt>
      <trkpt lat="48.89046" lon="2.35162">
        <ele>114.1</ele>
        <time>2015-01-12T21:01:33.640Z</time>
      </trkpt>
      <trkpt lat="48.89046" lon="2.35154">
        <ele>114.7</ele>
        <time>2015-01-12T21:01:34.659Z</time>
      </trkpt>
      <trkpt lat="48.89047" lon="2.35142">
        <ele>115.2</ele>
        <time>2015-01-12T21:01:36.572Z</time>
      </trkpt>
      <trkpt lat="48.89049" lon="2.35137">
        <ele>115.3</ele>
        <time>2015-01-12T21:01:37.671Z</time>
      </trkpt>
      <trkpt lat="48.89049" lon="2.35125">
        <ele>114.6</ele>
        <time>2015-01-12T21:01:40.599Z</time>
      </trkpt>
      <trkpt lat="48.89048" lon="2.3512">
        <ele>114.9</ele>
        <time>2015-01-12T21:01:41.632Z</time>
      </trkpt>
      <trkpt lat="48.89046" lon="2.35108">
        <ele>115.2</ele>
        <time>2015-01-12T21:01:45.581Z</time>
      </trkpt>
      <trkpt lat="48.89046" lon="2.35104">
        <ele>115.3</ele>
        <time>2015-01-12T21:01:46.587Z</time>
      </trkpt>
      <trkpt lat="48.89046" lon="2.35091">
        <ele>115.8</ele>
        <time>2015-01-12T21:01:49.698Z</time>
      </trkpt>
      <trkpt lat="48.89048" lon="2.35086">
        <ele>115.9</ele>
        <time>2015-01-12T21:01:50.559Z</time>
      </trkpt>
      <trkpt lat="48.89051" lon="2.35075">
        <ele>116.9</ele>
        <time>2015-01-12T21:01:52.621Z</time>
      </trkpt>
      <trkpt lat="48.89051" lon="2.3507">
        <ele>117.1</ele>
        <time>2015-01-12T21:01:53.627Z</time>
      </trkpt>
      <trkpt lat="48.89051" lon="2.3506">
        <ele>117.5</ele>
        <time>2015-01-12T21:01:55.619Z</time>
      </trkpt>
      <trkpt lat="48.89052" lon="2.35054">
        <ele>117.5</ele>
        <time>2015-01-12T21:01:56.622Z</time>
      </trkpt>
      <trkpt lat="48.89053" lon="2.35042">
        <ele>117.8</ele>
        <time>2015-01-12T21:01:58.637Z</time>
      </trkpt>
      <trkpt lat="48.89054" lon="2.35035">
        <ele>117.8</ele>
        <time>2015-01-12T21:01:59.559Z</time>
      </trkpt>
      <trkpt lat="48.89055" lon="2.35021">
        <ele>117.6</ele>
        <time>2015-01-12T21:02:01.633Z</time>
      </trkpt>
      <trkpt lat="48.89055" lon="2.35015">
        <ele>117.4</ele>
        <time>2015-01-12T21:02:02.619Z</time>
      </trkpt>
      <trkpt lat="48.89053" lon="2.35007">
        <ele>117.2</ele>
        <time>2015-01-12T21:02:03.638Z</time>
      </trkpt>
      <trkpt lat="48.89053" lon="2.35">
        <ele>116.9</ele>
        <time>2015-01-12T21:02:04.560Z</time>
      </trkpt>
      <trkpt lat="48.89053" lon="2.34993">
        <ele>117</ele>
        <time>2015-01-12T21:02:06.050Z</time>
      </trkpt>
      <trkpt lat="48.89051" lon="2.34987">
        <ele>117</ele>
        <time>2015-01-12T21:02:06.600Z</time>
      </trkpt>
      <trkpt lat="48.89045" lon="2.34977">
        <ele>117.5</ele>
        <time>2015-01-12T21:02:10.013Z</time>
      </trkpt>
      <trkpt lat="48.89042" lon="2.34974">
        <ele>117.4</ele>
        <time>2015-01-12T21:02:10.606Z</time>
      </trkpt>
      <trkpt lat="48.89038" lon="2.34963">
        <ele>119.3</ele>
        <time>2015-01-12T21:02:15.056Z</time>
      </trkpt>
      <trkpt lat="48.89037" lon="2.34961">
        <ele>119.4</ele>
        <time>2015-01-12T21:02:15.672Z</time>
      </trkpt>
      <trkpt lat="48.89036" lon="2.34949">
        <ele>117.9</ele>
        <time>2015-01-12T21:02:20.679Z</time>
      </trkpt>
      <trkpt lat="48.89036" lon="2.34944">
        <ele>117.6</ele>
        <time>2015-01-12T21:02:21.556Z</time>
      </trkpt>
      <trkpt lat="48.89036" lon="2.3493">
        <ele>117.2</ele>
        <time>2015-01-12T21:02:23.611Z</time>
      </trkpt>
      <trkpt lat="48.89036" lon="2.34925">
        <ele>117.2</ele>
        <time>2015-01-12T21:02:24.662Z</time>
      </trkpt>
      <trkpt lat="48.89038" lon="2.34913">
        <ele>117.4</ele>
        <time>2015-01-12T21:02:26.554Z</time>
      </trkpt>
      <trkpt lat="48.89039" lon="2.34906">
        <ele>117.4</ele>
        <time>2015-01-12T21:02:27.637Z</time>
      </trkpt>
      <trkpt lat="48.8904" lon="2.34899">
        <ele>117.3</ele>
        <time>2015-01-12T21:02:28.646Z</time>
      </trkpt>
      <trkpt lat="48.8904" lon="2.34891">
        <ele>117</ele>
        <time>2015-01-12T21:02:29.661Z</time>
      </trkpt>
      <trkpt lat="48.89042" lon="2.34879">
        <ele>116.8</ele>
        <time>2015-01-12T21:02:31.629Z</time>
      </trkpt>
      <trkpt lat="48.89045" lon="2.34875">
        <ele>116.5</ele>
        <time>2015-01-12T21:02:32.629Z</time>
      </trkpt>
      <trkpt lat="48.89049" lon="2.34866">
        <ele>116</ele>
        <time>2015-01-12T21:02:34.675Z</time>
      </trkpt>
      <trkpt lat="48.89051" lon="2.34861">
        <ele>115.9</ele>
        <time>2015-01-12T21:02:35.553Z</time>
      </trkpt>
      <trkpt lat="48.89048" lon="2.34851">
        <ele>114.4</ele>
        <time>2015-01-12T21:02:37.651Z</time>
      </trkpt>
      <trkpt lat="48.89049" lon="2.34846">
        <ele>114.4</ele>
        <time>2015-01-12T21:02:38.671Z</time>
      </trkpt>
      <trkpt lat="48.8905" lon="2.34834">
        <ele>114.9</ele>
        <time>2015-01-12T21:02:40.589Z</time>
      </trkpt>
      <trkpt lat="48.89049" lon="2.34827">
        <ele>115.2</ele>
        <time>2015-01-12T21:02:41.604Z</time>
      </trkpt>
      <trkpt lat="48.89049" lon="2.34819">
        <ele>115.4</ele>
        <time>2015-01-12T21:02:42.617Z</time>
      </trkpt>
      <trkpt lat="48.89046" lon="2.34812">
        <ele>115.6</ele>
        <time>2015-01-12T21:02:43.644Z</time>
      </trkpt>
      <trkpt lat="48.89043" lon="2.34804">
        <ele>115.8</ele>
        <time>2015-01-12T21:02:44.586Z</time>
      </trkpt>
      <trkpt lat="48.8904" lon="2.34795">
        <ele>115.9</ele>
        <time>2015-01-12T21:02:45.590Z</time>
      </trkpt>
      <trkpt lat="48.89038" lon="2.34787">
        <ele>116.3</ele>
        <time>2015-01-12T21:02:46.602Z</time>
      </trkpt>
      <trkpt lat="48.89036" lon="2.34779">
        <ele>116.5</ele>
        <time>2015-01-12T21:02:47.628Z</time>
      </trkpt>
      <trkpt lat="48.89034" lon="2.34772">
        <ele>116.6</ele>
        <time>2015-01-12T21:02:48.622Z</time>
      </trkpt>
      <trkpt lat="48.89033" lon="2.34765">
        <ele>117</ele>
        <time>2015-01-12T21:02:49.669Z</time>
      </trkpt>
      <trkpt lat="48.89031" lon="2.34757">
        <ele>117.3</ele>
        <time>2015-01-12T21:02:50.639Z</time>
      </trkpt>
      <trkpt lat="48.8903" lon="2.34749">
        <ele>117.4</ele>
        <time>2015-01-12T21:02:51.573Z</time>
      </trkpt>
      <trkpt lat="48.89028" lon="2.34739">
        <ele>117.3</ele>
        <time>2015-01-12T21:02:53.587Z</time>
      </trkpt>
      <trkpt lat="48.89028" lon="2.34735">
        <ele>117.9</ele>
        <time>2015-01-12T21:02:54.601Z</time>
      </trkpt>
      <trkpt lat="48.89026" lon="2.34726">
        <ele>119</ele>
        <time>2015-01-12T21:02:56.749Z</time>
      </trkpt>
      <trkpt lat="48.89024" lon="2.34719">
        <ele>119.2</ele>
        <time>2015-01-12T21:02:57.583Z</time>
      </trkpt>
      <trkpt lat="48.89023" lon="2.34708">
        <ele>119.7</ele>
        <time>2015-01-12T21:02:59.608Z</time>
      </trkpt>
      <trkpt lat="48.89025" lon="2.34702">
        <ele>120.2</ele>
        <time>2015-01-12T21:03:00.765Z</time>
      </trkpt>
      <trkpt lat="48.89026" lon="2.34691">
        <ele>121</ele>
        <time>2015-01-12T21:03:02.536Z</time>
      </trkpt>
      <trkpt lat="48.89026" lon="2.34686">
        <ele>121.2</ele>
        <time>2015-01-12T21:03:03.631Z</time>
      </trkpt>
      <trkpt lat="48.89026" lon="2.34674">
        <ele>121.6</ele>
        <time>2015-01-12T21:03:05.651Z</time>
      </trkpt>
      <trkpt lat="48.89026" lon="2.34664">
        <ele>121.6</ele>
        <time>2015-01-12T21:03:06.534Z</time>
      </trkpt>
      <trkpt lat="48.89029" lon="2.34655">
        <ele>121.7</ele>
        <time>2015-01-12T21:03:07.562Z</time>
      </trkpt>
      <trkpt lat="48.89031" lon="2.34645">
        <ele>121.8</ele>
        <time>2015-01-12T21:03:08.579Z</time>
      </trkpt>
      <trkpt lat="48.89034" lon="2.34635">
        <ele>122.1</ele>
        <time>2015-01-12T21:03:09.605Z</time>
      </trkpt>
      <trkpt lat="48.89038" lon="2.34626">
        <ele>122.3</ele>
        <time>2015-01-12T21:03:10.703Z</time>
      </trkpt>
      <trkpt lat="48.89043" lon="2.34615">
        <ele>122.4</ele>
        <time>2015-01-12T21:03:11.565Z</time>
      </trkpt>
      <trkpt lat="48.89046" lon="2.34607">
        <ele>122.8</ele>
        <time>2015-01-12T21:03:12.560Z</time>
      </trkpt>
      <trkpt lat="48.8905" lon="2.346">
        <ele>123</ele>
        <time>2015-01-12T21:03:13.583Z</time>
      </trkpt>
      <trkpt lat="48.89052" lon="2.34592">
        <ele>123</ele>
        <time>2015-01-12T21:03:14.587Z</time>
      </trkpt>
      <trkpt lat="48.89055" lon="2.34584">
        <ele>123.1</ele>
        <time>2015-01-12T21:03:15.599Z</time>
      </trkpt>
      <trkpt lat="48.89057" lon="2.34578">
        <ele>123.3</ele>
        <time>2015-01-12T21:03:16.609Z</time>
      </trkpt>
      <trkpt lat="48.8906" lon="2.34571">
        <ele>123.8</ele>
        <time>2015-01-12T21:03:17.629Z</time>
      </trkpt>
      <trkpt lat="48.89063" lon="2.34561">
        <ele>124.6</ele>
        <time>2015-01-12T21:03:18.661Z</time>
      </trkpt>
      <trkpt lat="48.89066" lon="2.34552">
        <ele>125.4</ele>
        <time>2015-01-12T21:03:19.626Z</time>
      </trkpt>
      <trkpt lat="48.8907" lon="2.34546">
        <ele>125.9</ele>
        <time>2015-01-12T21:03:20.627Z</time>
      </trkpt>
      <trkpt lat="48.89075" lon="2.34535">
        <ele>127.1</ele>
        <time>2015-01-12T21:03:23.603Z</time>
      </trkpt>
      <trkpt lat="48.89075" lon="2.34532">
        <ele>127.1</ele>
        <time>2015-01-12T21:03:24.627Z</time>
      </trkpt>
      <trkpt lat="48.89082" lon="2.34527">
        <ele>136.3</ele>
        <time>2015-01-12T21:03:57.632Z</time>
      </trkpt>
      <trkpt lat="48.89083" lon="2.34525">
        <ele>136.1</ele>
        <time>2015-01-12T21:03:58.626Z</time>
      </trkpt>
      <trkpt lat="48.89088" lon="2.34518">
        <ele>136.1</ele>
        <time>2015-01-12T21:04:00.544Z</time>
      </trkpt>
      <trkpt lat="48.89089" lon="2.34512">
        <ele>136</ele>
        <time>2015-01-12T21:04:01.791Z</time>
      </trkpt>
      <trkpt lat="48.89092" lon="2.34506">
        <ele>135.9</ele>
        <time>2015-01-12T21:04:02.573Z</time>
      </trkpt>
      <trkpt lat="48.89096" lon="2.345">
        <ele>135.9</ele>
        <time>2015-01-12T21:04:03.580Z</time>
      </trkpt>
      <trkpt lat="48.89099" lon="2.34495">
        <ele>135.8</ele>
        <time>2015-01-12T21:04:04.608Z</time>
      </trkpt>
      <trkpt lat="48.89101" lon="2.34488">
        <ele>135.8</ele>
        <time>2015-01-12T21:04:05.587Z</time>
      </trkpt>
      <trkpt lat="48.89106" lon="2.34477">
        <ele>136</ele>
        <time>2015-01-12T21:04:07.649Z</time>
      </trkpt>
      <trkpt lat="48.89109" lon="2.34471">
        <ele>136.2</ele>
        <time>2015-01-12T21:04:08.557Z</time>
      </trkpt>
      <trkpt lat="48.89112" lon="2.34464">
        <ele>136.2</ele>
        <time>2015-01-12T21:04:09.812Z</time>
      </trkpt>
      <trkpt lat="48.89116" lon="2.34456">
        <ele>136.2</ele>
        <time>2015-01-12T21:04:10.564Z</time>
      </trkpt>
      <trkpt lat="48.89118" lon="2.34448">
        <ele>136.1</ele>
        <time>2015-01-12T21:04:11.655Z</time>
      </trkpt>
      <trkpt lat="48.89118" lon="2.34436">
        <ele>134.5</ele>
        <time>2015-01-12T21:04:12.675Z</time>
      </trkpt>
      <trkpt lat="48.89116" lon="2.34426">
        <ele>133.4</ele>
        <time>2015-01-12T21:04:13.677Z</time>
      </trkpt>
      <trkpt lat="48.89115" lon="2.34418">
        <ele>132.5</ele>
        <time>2015-01-12T21:04:14.585Z</time>
      </trkpt>
      <trkpt lat="48.89115" lon="2.3441">
        <ele>131.7</ele>
        <time>2015-01-12T21:04:15.605Z</time>
      </trkpt>
      <trkpt lat="48.89115" lon="2.34403">
        <ele>131</ele>
        <time>2015-01-12T21:04:16.655Z</time>
      </trkpt>
      <trkpt lat="48.89116" lon="2.34394">
        <ele>130.2</ele>
        <time>2015-01-12T21:04:17.572Z</time>
      </trkpt>
      <trkpt lat="48.89117" lon="2.34386">
        <ele>129.6</ele>
        <time>2015-01-12T21:04:18.584Z</time>
      </trkpt>
      <trkpt lat="48.89118" lon="2.34378">
        <ele>129</ele>
        <time>2015-01-12T21:04:19.613Z</time>
      </trkpt>
      <trkpt lat="48.8912" lon="2.3437">
        <ele>128.6</ele>
        <time>2015-01-12T21:04:20.617Z</time>
      </trkpt>
      <trkpt lat="48.89119" lon="2.34357">
        <ele>127.5</ele>
        <time>2015-01-12T21:04:22.571Z</time>
      </trkpt>
      <trkpt lat="48.89118" lon="2.34355">
        <ele>127.2</ele>
        <time>2015-01-12T21:04:23.665Z</time>
      </trkpt>
      <trkpt lat="48.89124" lon="2.34358">
        <ele>127.5</ele>
        <time>2015-01-12T21:04:38.644Z</time>
      </trkpt>
      <trkpt lat="48.89133" lon="2.3435">
        <ele>129.2</ele>
        <time>2015-01-12T21:04:39.585Z</time>
      </trkpt>
      <trkpt lat="48.89135" lon="2.34342">
        <ele>128.3</ele>
        <time>2015-01-12T21:04:41.575Z</time>
      </trkpt>
      <trkpt lat="48.89138" lon="2.34337">
        <ele>127.9</ele>
        <time>2015-01-12T21:04:42.595Z</time>
      </trkpt>
      <trkpt lat="48.89141" lon="2.34326">
        <ele>127.8</ele>
        <time>2015-01-12T21:04:44.615Z</time>
      </trkpt>
      <trkpt lat="48.89142" lon="2.34318">
        <ele>127.3</ele>
        <time>2015-01-12T21:04:45.627Z</time>
      </trkpt>
      <trkpt lat="48.89142" lon="2.34311">
        <ele>127</ele>
        <time>2015-01-12T21:04:46.578Z</time>
      </trkpt>
      <trkpt lat="48.89143" lon="2.34303">
        <ele>126.8</ele>
        <time>2015-01-12T21:04:47.577Z</time>
      </trkpt>
      <trkpt lat="48.89144" lon="2.34296">
        <ele>126.5</ele>
        <time>2015-01-12T21:04:48.586Z</time>
      </trkpt>
      <trkpt lat="48.89145" lon="2.34289">
        <ele>126.4</ele>
        <time>2015-01-12T21:04:49.610Z</time>
      </trkpt>
      <trkpt lat="48.89148" lon="2.34283">
        <ele>126.3</ele>
        <time>2015-01-12T21:04:50.609Z</time>
      </trkpt>
      <trkpt lat="48.89149" lon="2.34276">
        <ele>126.3</ele>
        <time>2015-01-12T21:04:51.618Z</time>
      </trkpt>
      <trkpt lat="48.89148" lon="2.34269">
        <ele>126.4</ele>
        <time>2015-01-12T21:04:52.627Z</time>
      </trkpt>
      <trkpt lat="48.89148" lon="2.34261">
        <ele>126.5</ele>
        <time>2015-01-12T21:04:53.644Z</time>
      </trkpt>
      <trkpt lat="48.89147" lon="2.34253">
        <ele>126.7</ele>
        <time>2015-01-12T21:04:54.562Z</time>
      </trkpt>
      <trkpt lat="48.89147" lon="2.34245">
        <ele>126.8</ele>
        <time>2015-01-12T21:04:55.675Z</time>
      </trkpt>
      <trkpt lat="48.89148" lon="2.34237">
        <ele>126.9</ele>
        <time>2015-01-12T21:04:56.582Z</time>
      </trkpt>
      <trkpt lat="48.89148" lon="2.3423">
        <ele>127.1</ele>
        <time>2015-01-12T21:04:57.588Z</time>
      </trkpt>
      <trkpt lat="48.89146" lon="2.34223">
        <ele>126.8</ele>
        <time>2015-01-12T21:04:58.598Z</time>
      </trkpt>
      <trkpt lat="48.89144" lon="2.34217">
        <ele>126.3</ele>
        <time>2015-01-12T21:04:59.609Z</time>
      </trkpt>
      <trkpt lat="48.89144" lon="2.34206">
        <ele>125.5</ele>
        <time>2015-01-12T21:05:01.642Z</time>
      </trkpt>
      <trkpt lat="48.89144" lon="2.342">
        <ele>125.7</ele>
        <time>2015-01-12T21:05:02.562Z</time>
      </trkpt>
      <trkpt lat="48.89142" lon="2.34187">
        <ele>125.8</ele>
        <time>2015-01-12T21:05:04.585Z</time>
      </trkpt>
      <trkpt lat="48.8914" lon="2.3418">
        <ele>125.9</ele>
        <time>2015-01-12T21:05:05.619Z</time>
      </trkpt>
      <trkpt lat="48.89137" lon="2.34172">
        <ele>126.5</ele>
        <time>2015-01-12T21:05:06.655Z</time>
      </trkpt>
      <trkpt lat="48.89136" lon="2.34164">
        <ele>126.4</ele>
        <time>2015-01-12T21:05:07.679Z</time>
      </trkpt>
      <trkpt lat="48.89135" lon="2.34157">
        <ele>126.3</ele>
        <time>2015-01-12T21:05:08.585Z</time>
      </trkpt>
      <trkpt lat="48.89135" lon="2.34148">
        <ele>126.1</ele>
        <time>2015-01-12T21:05:09.566Z</time>
      </trkpt>
      <trkpt lat="48.89134" lon="2.3414">
        <ele>126.4</ele>
        <time>2015-01-12T21:05:10.578Z</time>
      </trkpt>
      <trkpt lat="48.89133" lon="2.34131">
        <ele>127.1</ele>
        <time>2015-01-12T21:05:11.589Z</time>
      </trkpt>
      <trkpt lat="48.89131" lon="2.34122">
        <ele>127.7</ele>
        <time>2015-01-12T21:05:12.615Z</time>
      </trkpt>
      <trkpt lat="48.89131" lon="2.34113">
        <ele>128.1</ele>
        <time>2015-01-12T21:05:13.608Z</time>
      </trkpt>
      <trkpt lat="48.8913" lon="2.34103">
        <ele>128.9</ele>
        <time>2015-01-12T21:05:14.627Z</time>
      </trkpt>
      <trkpt lat="48.8913" lon="2.34096">
        <ele>129.1</ele>
        <time>2015-01-12T21:05:15.639Z</time>
      </trkpt>
      <trkpt lat="48.89129" lon="2.34088">
        <ele>129.7</ele>
        <time>2015-01-12T21:05:16.642Z</time>
      </trkpt>
      <trkpt lat="48.89129" lon="2.34081">
        <ele>130.2</ele>
        <time>2015-01-12T21:05:17.551Z</time>
      </trkpt>
      <trkpt lat="48.89125" lon="2.3407">
        <ele>130.7</ele>
        <time>2015-01-12T21:05:19.589Z</time>
      </trkpt>
      <trkpt lat="48.89125" lon="2.34064">
        <ele>130.7</ele>
        <time>2015-01-12T21:05:20.632Z</time>
      </trkpt>
      <trkpt lat="48.89124" lon="2.34051">
        <ele>131.1</ele>
        <time>2015-01-12T21:05:22.575Z</time>
      </trkpt>
      <trkpt lat="48.89124" lon="2.34044">
        <ele>131.2</ele>
        <time>2015-01-12T21:05:23.626Z</time>
      </trkpt>
      <trkpt lat="48.89124" lon="2.34037">
        <ele>131.3</ele>
        <time>2015-01-12T21:05:24.577Z</time>
      </trkpt>
      <trkpt lat="48.89123" lon="2.34027">
        <ele>131.2</ele>
        <time>2015-01-12T21:05:25.641Z</time>
      </trkpt>
      <trkpt lat="48.89122" lon="2.34019">
        <ele>131.4</ele>
        <time>2015-01-12T21:05:26.634Z</time>
      </trkpt>
      <trkpt lat="48.89121" lon="2.34011">
        <ele>131.6</ele>
        <time>2015-01-12T21:05:27.652Z</time>
      </trkpt>
      <trkpt lat="48.8912" lon="2.34002">
        <ele>131.1</ele>
        <time>2015-01-12T21:05:28.804Z</time>
      </trkpt>
      <trkpt lat="48.89119" lon="2.33994">
        <ele>130.8</ele>
        <time>2015-01-12T21:05:29.682Z</time>
      </trkpt>
      <trkpt lat="48.89118" lon="2.33986">
        <ele>130.6</ele>
        <time>2015-01-12T21:05:30.596Z</time>
      </trkpt>
      <trkpt lat="48.89117" lon="2.33978">
        <ele>131</ele>
        <time>2015-01-12T21:05:31.621Z</time>
      </trkpt>
      <trkpt lat="48.89118" lon="2.33965">
        <ele>131.9</ele>
        <time>2015-01-12T21:05:33.659Z</time>
      </trkpt>
      <trkpt lat="48.89117" lon="2.3396">
        <ele>132.1</ele>
        <time>2015-01-12T21:05:34.696Z</time>
      </trkpt>
      <trkpt lat="48.89117" lon="2.3395">
        <ele>132.1</ele>
        <time>2015-01-12T21:05:36.614Z</time>
      </trkpt>
      <trkpt lat="48.89116" lon="2.33944">
        <ele>132.7</ele>
        <time>2015-01-12T21:05:37.675Z</time>
      </trkpt>
      <trkpt lat="48.89116" lon="2.33936">
        <ele>132.2</ele>
        <time>2015-01-12T21:05:53.621Z</time>
      </trkpt>
      <trkpt lat="48.89118" lon="2.33921">
        <ele>127.1</ele>
        <time>2015-01-12T21:05:54.640Z</time>
      </trkpt>
      <trkpt lat="48.89122" lon="2.33909">
        <ele>127.3</ele>
        <time>2015-01-12T21:05:57.674Z</time>
      </trkpt>
      <trkpt lat="48.89123" lon="2.33905">
        <ele>127.4</ele>
        <time>2015-01-12T21:05:58.571Z</time>
      </trkpt>
      <trkpt lat="48.89127" lon="2.33895">
        <ele>127.4</ele>
        <time>2015-01-12T21:06:00.592Z</time>
      </trkpt>
      <trkpt lat="48.89129" lon="2.3389">
        <ele>127.6</ele>
        <time>2015-01-12T21:06:01.682Z</time>
      </trkpt>
      <trkpt lat="48.89133" lon="2.33879">
        <ele>128.2</ele>
        <time>2015-01-12T21:06:03.578Z</time>
      </trkpt>
      <trkpt lat="48.89135" lon="2.33874">
        <ele>128.4</ele>
        <time>2015-01-12T21:06:04.620Z</time>
      </trkpt>
      <trkpt lat="48.89139" lon="2.33863">
        <ele>128.9</ele>
        <time>2015-01-12T21:06:06.639Z</time>
      </trkpt>
      <trkpt lat="48.89141" lon="2.33857">
        <ele>129</ele>
        <time>2015-01-12T21:06:07.648Z</time>
      </trkpt>
      <trkpt lat="48.89144" lon="2.33845">
        <ele>129.6</ele>
        <time>2015-01-12T21:06:10.116Z</time>
      </trkpt>
      <trkpt lat="48.89146" lon="2.3384">
        <ele>129.8</ele>
        <time>2015-01-12T21:06:10.592Z</time>
      </trkpt>
      <trkpt lat="48.89148" lon="2.33827">
        <ele>129.9</ele>
        <time>2015-01-12T21:06:12.603Z</time>
      </trkpt>
      <trkpt lat="48.89148" lon="2.33821">
        <ele>130</ele>
        <time>2015-01-12T21:06:13.619Z</time>
      </trkpt>
      <trkpt lat="48.89151" lon="2.33814">
        <ele>130.3</ele>
        <time>2015-01-12T21:06:15.288Z</time>
      </trkpt>
      <trkpt lat="48.89154" lon="2.33809">
        <ele>130.7</ele>
        <time>2015-01-12T21:06:15.641Z</time>
      </trkpt>
      <trkpt lat="48.89157" lon="2.33803">
        <ele>130.7</ele>
        <time>2015-01-12T21:06:16.656Z</time>
      </trkpt>
      <trkpt lat="48.89159" lon="2.33796">
        <ele>130.8</ele>
        <time>2015-01-12T21:06:17.734Z</time>
      </trkpt>
      <trkpt lat="48.89161" lon="2.33783">
        <ele>130.8</ele>
        <time>2015-01-12T21:06:20.388Z</time>
      </trkpt>
      <trkpt lat="48.89162" lon="2.33777">
        <ele>130.7</ele>
        <time>2015-01-12T21:06:20.539Z</time>
      </trkpt>
      <trkpt lat="48.89163" lon="2.33763">
        <ele>130.3</ele>
        <time>2015-01-12T21:06:22.561Z</time>
      </trkpt>
      <trkpt lat="48.89162" lon="2.33756">
        <ele>130.4</ele>
        <time>2015-01-12T21:06:23.571Z</time>
      </trkpt>
      <trkpt lat="48.89163" lon="2.33744">
        <ele>130.5</ele>
        <time>2015-01-12T21:06:25.587Z</time>
      </trkpt>
      <trkpt lat="48.89164" lon="2.33738">
        <ele>130.4</ele>
        <time>2015-01-12T21:06:26.593Z</time>
      </trkpt>
      <trkpt lat="48.89166" lon="2.33731">
        <ele>130.5</ele>
        <time>2015-01-12T21:06:27.606Z</time>
      </trkpt>
      <trkpt lat="48.89167" lon="2.33724">
        <ele>130.5</ele>
        <time>2015-01-12T21:06:28.653Z</time>
      </trkpt>
      <trkpt lat="48.89168" lon="2.33717">
        <ele>130.6</ele>
        <time>2015-01-12T21:06:30.658Z</time>
      </trkpt>
      <trkpt lat="48.89168" lon="2.3371">
        <ele>130.7</ele>
        <time>2015-01-12T21:06:30.684Z</time>
      </trkpt>
      <trkpt lat="48.89167" lon="2.33701">
        <ele>130.6</ele>
        <time>2015-01-12T21:06:31.694Z</time>
      </trkpt>
      <trkpt lat="48.89165" lon="2.33693">
        <ele>131</ele>
        <time>2015-01-12T21:06:32.594Z</time>
      </trkpt>
      <trkpt lat="48.89163" lon="2.33685">
        <ele>131.2</ele>
        <time>2015-01-12T21:06:33.647Z</time>
      </trkpt>
      <trkpt lat="48.89162" lon="2.33678">
        <ele>131.3</ele>
        <time>2015-01-12T21:06:34.641Z</time>
      </trkpt>
      <trkpt lat="48.89161" lon="2.33671">
        <ele>131.3</ele>
        <time>2015-01-12T21:06:35.698Z</time>
      </trkpt>
      <trkpt lat="48.8916" lon="2.33664">
        <ele>131.3</ele>
        <time>2015-01-12T21:06:36.593Z</time>
      </trkpt>
      <trkpt lat="48.89158" lon="2.33656">
        <ele>131.5</ele>
        <time>2015-01-12T21:06:37.610Z</time>
      </trkpt>
      <trkpt lat="48.89157" lon="2.33648">
        <ele>131.5</ele>
        <time>2015-01-12T21:06:38.642Z</time>
      </trkpt>
      <trkpt lat="48.89158" lon="2.33635">
        <ele>131.3</ele>
        <time>2015-01-12T21:06:40.614Z</time>
      </trkpt>
      <trkpt lat="48.89158" lon="2.33628">
        <ele>131.1</ele>
        <time>2015-01-12T21:06:41.617Z</time>
      </trkpt>
      <trkpt lat="48.89162" lon="2.33618">
        <ele>130.6</ele>
        <time>2015-01-12T21:06:43.657Z</time>
      </trkpt>
      <trkpt lat="48.89163" lon="2.33612">
        <ele>130.6</ele>
        <time>2015-01-12T21:06:44.644Z</time>
      </trkpt>
      <trkpt lat="48.89162" lon="2.33599">
        <ele>129.9</ele>
        <time>2015-01-12T21:06:46.568Z</time>
      </trkpt>
      <trkpt lat="48.89163" lon="2.33594">
        <ele>129.6</ele>
        <time>2015-01-12T21:06:47.651Z</time>
      </trkpt>
      <trkpt lat="48.89162" lon="2.33582">
        <ele>129.7</ele>
        <time>2015-01-12T21:06:49.620Z</time>
      </trkpt>
      <trkpt lat="48.89162" lon="2.33576">
        <ele>129.6</ele>
        <time>2015-01-12T21:06:50.574Z</time>
      </trkpt>
      <trkpt lat="48.89162" lon="2.33564">
        <ele>129.2</ele>
        <time>2015-01-12T21:06:52.561Z</time>
      </trkpt>
      <trkpt lat="48.89162" lon="2.33558">
        <ele>129.1</ele>
        <time>2015-01-12T21:06:53.572Z</time>
      </trkpt>
      <trkpt lat="48.89162" lon="2.33546">
        <ele>128.7</ele>
        <time>2015-01-12T21:06:55.635Z</time>
      </trkpt>
      <trkpt lat="48.89162" lon="2.3354">
        <ele>128.6</ele>
        <time>2015-01-12T21:06:56.651Z</time>
      </trkpt>
      <trkpt lat="48.89162" lon="2.3353">
        <ele>128.3</ele>
        <time>2015-01-12T21:06:58.565Z</time>
      </trkpt>
      <trkpt lat="48.89163" lon="2.33526">
        <ele>128.2</ele>
        <time>2015-01-12T21:06:59.576Z</time>
      </trkpt>
      <trkpt lat="48.89164" lon="2.33514">
        <ele>127.5</ele>
        <time>2015-01-12T21:07:02.652Z</time>
      </trkpt>
      <trkpt lat="48.89163" lon="2.33509">
        <ele>127.2</ele>
        <time>2015-01-12T21:07:03.556Z</time>
      </trkpt>
      <trkpt lat="48.89166" lon="2.33498">
        <ele>126.5</ele>
        <time>2015-01-12T21:07:06.683Z</time>
      </trkpt>
      <trkpt lat="48.89168" lon="2.33495">
        <ele>126.6</ele>
        <time>2015-01-12T21:07:07.701Z</time>
      </trkpt>
      <trkpt lat="48.89171" lon="2.33487">
        <ele>126.9</ele>
        <time>2015-01-12T21:07:09.590Z</time>
      </trkpt>
      <trkpt lat="48.89171" lon="2.33482">
        <ele>127.1</ele>
        <time>2015-01-12T21:07:10.600Z</time>
      </trkpt>
      <trkpt lat="48.89172" lon="2.33473">
        <ele>127.2</ele>
        <time>2015-01-12T21:07:12.562Z</time>
      </trkpt>
      <trkpt lat="48.89173" lon="2.33469">
        <ele>126.9</ele>
        <time>2015-01-12T21:07:13.605Z</time>
      </trkpt>
      <trkpt lat="48.89173" lon="2.33458">
        <ele>126.6</ele>
        <time>2015-01-12T21:07:15.572Z</time>
      </trkpt>
      <trkpt lat="48.89174" lon="2.33453">
        <ele>126.4</ele>
        <time>2015-01-12T21:07:16.577Z</time>
      </trkpt>
      <trkpt lat="48.89176" lon="2.33441">
        <ele>126.3</ele>
        <time>2015-01-12T21:07:18.611Z</time>
      </trkpt>
      <trkpt lat="48.89177" lon="2.33435">
        <ele>126.5</ele>
        <time>2015-01-12T21:07:19.641Z</time>
      </trkpt>
      <trkpt lat="48.89178" lon="2.33427">
        <ele>126.6</ele>
        <time>2015-01-12T21:07:20.563Z</time>
      </trkpt>
      <trkpt lat="48.8918" lon="2.33419">
        <ele>126.7</ele>
        <time>2015-01-12T21:07:21.565Z</time>
      </trkpt>
      <trkpt lat="48.8918" lon="2.33411">
        <ele>126.7</ele>
        <time>2015-01-12T21:07:22.569Z</time>
      </trkpt>
      <trkpt lat="48.89181" lon="2.33403">
        <ele>126.7</ele>
        <time>2015-01-12T21:07:23.578Z</time>
      </trkpt>
      <trkpt lat="48.89182" lon="2.33396">
        <ele>126.6</ele>
        <time>2015-01-12T21:07:24.608Z</time>
      </trkpt>
      <trkpt lat="48.89182" lon="2.33389">
        <ele>126.2</ele>
        <time>2015-01-12T21:07:25.619Z</time>
      </trkpt>
      <trkpt lat="48.89183" lon="2.33381">
        <ele>126</ele>
        <time>2015-01-12T21:07:26.653Z</time>
      </trkpt>
      <trkpt lat="48.89184" lon="2.33374">
        <ele>125.8</ele>
        <time>2015-01-12T21:07:27.561Z</time>
      </trkpt>
      <trkpt lat="48.89184" lon="2.33362">
        <ele>125.9</ele>
        <time>2015-01-12T21:07:29.567Z</time>
      </trkpt>
      <trkpt lat="48.89185" lon="2.33356">
        <ele>125.9</ele>
        <time>2015-01-12T21:07:30.592Z</time>
      </trkpt>
      <trkpt lat="48.89184" lon="2.33349">
        <ele>125.9</ele>
        <time>2015-01-12T21:07:31.691Z</time>
      </trkpt>
      <trkpt lat="48.89182" lon="2.33343">
        <ele>125.8</ele>
        <time>2015-01-12T21:07:32.565Z</time>
      </trkpt>
      <trkpt lat="48.89177" lon="2.33335">
        <ele>125.1</ele>
        <time>2015-01-12T21:07:34.647Z</time>
      </trkpt>
      <trkpt lat="48.89174" lon="2.33331">
        <ele>124.6</ele>
        <time>2015-01-12T21:07:35.555Z</time>
      </trkpt>
      <trkpt lat="48.89169" lon="2.3332">
        <ele>124.6</ele>
        <time>2015-01-12T21:07:37.687Z</time>
      </trkpt>
      <trkpt lat="48.89165" lon="2.33315">
        <ele>124.6</ele>
        <time>2015-01-12T21:07:38.570Z</time>
      </trkpt>
      <trkpt lat="48.89161" lon="2.33309">
        <ele>124.9</ele>
        <time>2015-01-12T21:07:39.685Z</time>
      </trkpt>
      <trkpt lat="48.89157" lon="2.33303">
        <ele>125</ele>
        <time>2015-01-12T21:07:40.555Z</time>
      </trkpt>
      <trkpt lat="48.89154" lon="2.33297">
        <ele>125</ele>
        <time>2015-01-12T21:07:41.638Z</time>
      </trkpt>
      <trkpt lat="48.89152" lon="2.33291">
        <ele>124.8</ele>
        <time>2015-01-12T21:07:42.648Z</time>
      </trkpt>
      <trkpt lat="48.8915" lon="2.33282">
        <ele>124.8</ele>
        <time>2015-01-12T21:07:43.656Z</time>
      </trkpt>
      <trkpt lat="48.89149" lon="2.33275">
        <ele>124.9</ele>
        <time>2015-01-12T21:07:44.673Z</time>
      </trkpt>
      <trkpt lat="48.89148" lon="2.33267">
        <ele>124.7</ele>
        <time>2015-01-12T21:07:45.594Z</time>
      </trkpt>
      <trkpt lat="48.89146" lon="2.33262">
        <ele>124.2</ele>
        <time>2015-01-12T21:07:46.610Z</time>
      </trkpt>
      <trkpt lat="48.89143" lon="2.33256">
        <ele>123.7</ele>
        <time>2015-01-12T21:07:47.622Z</time>
      </trkpt>
      <trkpt lat="48.89139" lon="2.33251">
        <ele>123.9</ele>
        <time>2015-01-12T21:07:48.630Z</time>
      </trkpt>
      <trkpt lat="48.89136" lon="2.33242">
        <ele>124.7</ele>
        <time>2015-01-12T21:07:49.670Z</time>
      </trkpt>
      <trkpt lat="48.89136" lon="2.33235">
        <ele>124.7</ele>
        <time>2015-01-12T21:07:50.570Z</time>
      </trkpt>
      <trkpt lat="48.89134" lon="2.33229">
        <ele>124.5</ele>
        <time>2015-01-12T21:07:51.586Z</time>
      </trkpt>
      <trkpt lat="48.89131" lon="2.33223">
        <ele>124.6</ele>
        <time>2015-01-12T21:07:52.596Z</time>
      </trkpt>
      <trkpt lat="48.89129" lon="2.33217">
        <ele>124.2</ele>
        <time>2015-01-12T21:07:53.640Z</time>
      </trkpt>
      <trkpt lat="48.89126" lon="2.33211">
        <ele>124.8</ele>
        <time>2015-01-12T21:07:54.646Z</time>
      </trkpt>
      <trkpt lat="48.89124" lon="2.33204">
        <ele>125</ele>
        <time>2015-01-12T21:07:55.662Z</time>
      </trkpt>
      <trkpt lat="48.89122" lon="2.33199">
        <ele>124.7</ele>
        <time>2015-01-12T21:07:56.584Z</time>
      </trkpt>
      <trkpt lat="48.8912" lon="2.33192">
        <ele>124.8</ele>
        <time>2015-01-12T21:07:57.624Z</time>
      </trkpt>
      <trkpt lat="48.89117" lon="2.33186">
        <ele>124.6</ele>
        <time>2015-01-12T21:07:58.630Z</time>
      </trkpt>
      <trkpt lat="48.89112" lon="2.33176">
        <ele>124.4</ele>
        <time>2015-01-12T21:08:00.556Z</time>
      </trkpt>
      <trkpt lat="48.89109" lon="2.33173">
        <ele>123.9</ele>
        <time>2015-01-12T21:08:01.668Z</time>
      </trkpt>
      <trkpt lat="48.89104" lon="2.33165">
        <ele>122.7</ele>
        <time>2015-01-12T21:08:03.585Z</time>
      </trkpt>
      <trkpt lat="48.89102" lon="2.3316">
        <ele>122.4</ele>
        <time>2015-01-12T21:08:04.599Z</time>
      </trkpt>
      <trkpt lat="48.89099" lon="2.33149">
        <ele>122</ele>
        <time>2015-01-12T21:08:06.623Z</time>
      </trkpt>
      <trkpt lat="48.89097" lon="2.33145">
        <ele>121.8</ele>
        <time>2015-01-12T21:08:07.637Z</time>
      </trkpt>
      <trkpt lat="48.89093" lon="2.33135">
        <ele>121.5</ele>
        <time>2015-01-12T21:08:09.718Z</time>
      </trkpt>
      <trkpt lat="48.89092" lon="2.3313">
        <ele>121.3</ele>
        <time>2015-01-12T21:08:10.569Z</time>
      </trkpt>
      <trkpt lat="48.89086" lon="2.33123">
        <ele>120.5</ele>
        <time>2015-01-12T21:08:12.587Z</time>
      </trkpt>
      <trkpt lat="48.89082" lon="2.33119">
        <ele>120.5</ele>
        <time>2015-01-12T21:08:13.603Z</time>
      </trkpt>
      <trkpt lat="48.89076" lon="2.33111">
        <ele>121.8</ele>
        <time>2015-01-12T21:08:17.577Z</time>
      </trkpt>
      <trkpt lat="48.89074" lon="2.33108">
        <ele>121.8</ele>
        <time>2015-01-12T21:08:18.538Z</time>
      </trkpt>
      <trkpt lat="48.89069" lon="2.33103">
        <ele>121.6</ele>
        <time>2015-01-12T21:08:20.603Z</time>
      </trkpt>
      <trkpt lat="48.89067" lon="2.33098">
        <ele>122.3</ele>
        <time>2015-01-12T21:08:21.618Z</time>
      </trkpt>
      <trkpt lat="48.89064" lon="2.33086">
        <ele>123.1</ele>
        <time>2015-01-12T21:08:23.651Z</time>
      </trkpt>
      <trkpt lat="48.89063" lon="2.33081">
        <ele>123.1</ele>
        <time>2015-01-12T21:08:24.664Z</time>
      </trkpt>
      <trkpt lat="48.8906" lon="2.33069">
        <ele>123.3</ele>
        <time>2015-01-12T21:08:26.549Z</time>
      </trkpt>
      <trkpt lat="48.89057" lon="2.33063">
        <ele>123.2</ele>
        <time>2015-01-12T21:08:27.585Z</time>
      </trkpt>
      <trkpt lat="48.89053" lon="2.33053">
        <ele>123.1</ele>
        <time>2015-01-12T21:08:29.617Z</time>
      </trkpt>
      <trkpt lat="48.8905" lon="2.33049">
        <ele>122.9</ele>
        <time>2015-01-12T21:08:30.622Z</time>
      </trkpt>
      <trkpt lat="48.89046" lon="2.3304">
        <ele>122.3</ele>
        <time>2015-01-12T21:08:32.559Z</time>
      </trkpt>
      <trkpt lat="48.89044" lon="2.33035">
        <ele>121.8</ele>
        <time>2015-01-12T21:08:33.565Z</time>
      </trkpt>
      <trkpt lat="48.89041" lon="2.33026">
        <ele>121.3</ele>
        <time>2015-01-12T21:08:35.614Z</time>
      </trkpt>
      <trkpt lat="48.89039" lon="2.3302">
        <ele>121.2</ele>
        <time>2015-01-12T21:08:36.648Z</time>
      </trkpt>
      <trkpt lat="48.89035" lon="2.33009">
        <ele>120.7</ele>
        <time>2015-01-12T21:08:38.564Z</time>
      </trkpt>
      <trkpt lat="48.89033" lon="2.33004">
        <ele>120.3</ele>
        <time>2015-01-12T21:08:39.642Z</time>
      </trkpt>
      <trkpt lat="48.89027" lon="2.32994">
        <ele>120</ele>
        <time>2015-01-12T21:08:41.584Z</time>
      </trkpt>
      <trkpt lat="48.89025" lon="2.32989">
        <ele>119.7</ele>
        <time>2015-01-12T21:08:42.651Z</time>
      </trkpt>
      <trkpt lat="48.89022" lon="2.32978">
        <ele>119.2</ele>
        <time>2015-01-12T21:08:44.627Z</time>
      </trkpt>
      <trkpt lat="48.88955" lon="2.3287">
        <ele>120</ele>
        <time>2015-01-12T21:09:10.579Z</time>
      </trkpt>
      <trkpt lat="48.88951" lon="2.32868">
        <ele>119.9</ele>
        <time>2015-01-12T21:09:11.621Z</time>
      </trkpt>
      <trkpt lat="48.88947" lon="2.32862">
        <ele>119.6</ele>
        <time>2015-01-12T21:09:12.628Z</time>
      </trkpt>
      <trkpt lat="48.88943" lon="2.32859">
        <ele>119.6</ele>
        <time>2015-01-12T21:09:13.641Z</time>
      </trkpt>
      <trkpt lat="48.88939" lon="2.32855">
        <ele>119.7</ele>
        <time>2015-01-12T21:09:14.523Z</time>
      </trkpt>
      <trkpt lat="48.88931" lon="2.32848">
        <ele>119.9</ele>
        <time>2015-01-12T21:09:16.587Z</time>
      </trkpt>
      <trkpt lat="48.88927" lon="2.32843">
        <ele>120.3</ele>
        <time>2015-01-12T21:09:17.607Z</time>
      </trkpt>
      <trkpt lat="48.8892" lon="2.32837">
        <ele>120.3</ele>
        <time>2015-01-12T21:09:20.183Z</time>
      </trkpt>
      <trkpt lat="48.88916" lon="2.32834">
        <ele>120.1</ele>
        <time>2015-01-12T21:09:20.562Z</time>
      </trkpt>
      <trkpt lat="48.8891" lon="2.32828">
        <ele>119.6</ele>
        <time>2015-01-12T21:09:22.594Z</time>
      </trkpt>
      <trkpt lat="48.88907" lon="2.32826">
        <ele>119.6</ele>
        <time>2015-01-12T21:09:23.629Z</time>
      </trkpt>
      <trkpt lat="48.88902" lon="2.32819">
        <ele>119.2</ele>
        <time>2015-01-12T21:09:25.669Z</time>
      </trkpt>
      <trkpt lat="48.88899" lon="2.32816">
        <ele>119</ele>
        <time>2015-01-12T21:09:26.556Z</time>
      </trkpt>
      <trkpt lat="48.88895" lon="2.3281">
        <ele>118.6</ele>
        <time>2015-01-12T21:09:27.551Z</time>
      </trkpt>
      <trkpt lat="48.88891" lon="2.32806">
        <ele>118</ele>
        <time>2015-01-12T21:09:28.563Z</time>
      </trkpt>
      <trkpt lat="48.88887" lon="2.328">
        <ele>117.4</ele>
        <time>2015-01-12T21:09:30.526Z</time>
      </trkpt>
      <trkpt lat="48.88883" lon="2.32795">
        <ele>117.2</ele>
        <time>2015-01-12T21:09:30.569Z</time>
      </trkpt>
      <trkpt lat="48.88871" lon="2.32785">
        <ele>116.6</ele>
        <time>2015-01-12T21:09:33.633Z</time>
      </trkpt>
      <trkpt lat="48.88866" lon="2.32781">
        <ele>116.6</ele>
        <time>2015-01-12T21:09:34.669Z</time>
      </trkpt>
      <trkpt lat="48.88862" lon="2.32778">
        <ele>116.6</ele>
        <time>2015-01-12T21:09:35.590Z</time>
      </trkpt>
      <trkpt lat="48.88857" lon="2.32777">
        <ele>116.5</ele>
        <time>2015-01-12T21:09:36.572Z</time>
      </trkpt>
      <trkpt lat="48.88852" lon="2.32775">
        <ele>116.5</ele>
        <time>2015-01-12T21:09:37.680Z</time>
      </trkpt>
      <trkpt lat="48.88847" lon="2.32771">
        <ele>116.8</ele>
        <time>2015-01-12T21:09:38.561Z</time>
      </trkpt>
      <trkpt lat="48.88822" lon="2.32762">
        <ele>119.3</ele>
        <time>2015-01-12T21:09:45.626Z</time>
      </trkpt>
      <trkpt lat="48.88817" lon="2.32769">
        <ele>120</ele>
        <time>2015-01-12T21:09:48.576Z</time>
      </trkpt>
      <trkpt lat="48.88814" lon="2.32772">
        <ele>120.3</ele>
        <time>2015-01-12T21:09:49.636Z</time>
      </trkpt>
      <trkpt lat="48.8881" lon="2.32782">
        <ele>123.3</ele>
        <time>2015-01-12T21:09:55.607Z</time>
      </trkpt>
      <trkpt lat="48.88806" lon="2.32787">
        <ele>124.2</ele>
        <time>2015-01-12T21:09:56.679Z</time>
      </trkpt>
      <trkpt lat="48.88803" lon="2.32789">
        <ele>124.6</ele>
        <time>2015-01-12T21:10:01.634Z</time>
      </trkpt>
      <trkpt lat="48.88789" lon="2.32808">
        <ele>125</ele>
        <time>2015-01-12T21:10:02.554Z</time>
      </trkpt>
      <trkpt lat="48.88785" lon="2.32812">
        <ele>124.9</ele>
        <time>2015-01-12T21:10:03.557Z</time>
      </trkpt>
      <trkpt lat="48.88782" lon="2.32816">
        <ele>124.9</ele>
        <time>2015-01-12T21:10:04.591Z</time>
      </trkpt>
      <trkpt lat="48.88776" lon="2.32818">
        <ele>124.8</ele>
        <time>2015-01-12T21:10:06.634Z</time>
      </trkpt>
      <trkpt lat="48.88771" lon="2.32819">
        <ele>124.4</ele>
        <time>2015-01-12T21:10:07.638Z</time>
      </trkpt>
      <trkpt lat="48.88765" lon="2.32824">
        <ele>123.3</ele>
        <time>2015-01-12T21:10:08.649Z</time>
      </trkpt>
      <trkpt lat="48.88753" lon="2.3283">
        <ele>119.9</ele>
        <time>2015-01-12T21:10:09.745Z</time>
      </trkpt>
      <trkpt lat="48.88749" lon="2.32834">
        <ele>119.3</ele>
        <time>2015-01-12T21:10:10.556Z</time>
      </trkpt>
      <trkpt lat="48.88744" lon="2.32838">
        <ele>118.9</ele>
        <time>2015-01-12T21:10:11.566Z</time>
      </trkpt>
      <trkpt lat="48.88737" lon="2.32843">
        <ele>119.4</ele>
        <time>2015-01-12T21:10:13.718Z</time>
      </trkpt>
      <trkpt lat="48.88734" lon="2.32843">
        <ele>119.5</ele>
        <time>2015-01-12T21:10:14.666Z</time>
      </trkpt>
      <trkpt lat="48.88727" lon="2.32837">
        <ele>119.5</ele>
        <time>2015-01-12T21:10:17.597Z</time>
      </trkpt>
      <trkpt lat="48.88725" lon="2.32835">
        <ele>119.8</ele>
        <time>2015-01-12T21:10:18.633Z</time>
      </trkpt>
      <trkpt lat="48.88718" lon="2.32829">
        <ele>119.9</ele>
        <time>2015-01-12T21:10:21.571Z</time>
      </trkpt>
      <trkpt lat="48.88715" lon="2.32825">
        <ele>119.8</ele>
        <time>2015-01-12T21:10:22.580Z</time>
      </trkpt>
      <trkpt lat="48.8871" lon="2.32815">
        <ele>121.9</ele>
        <time>2015-01-12T21:10:26.601Z</time>
      </trkpt>
      <trkpt lat="48.88708" lon="2.32811">
        <ele>122.3</ele>
        <time>2015-01-12T21:10:27.608Z</time>
      </trkpt>
      <trkpt lat="48.88702" lon="2.32803">
        <ele>123.8</ele>
        <time>2015-01-12T21:10:31.652Z</time>
      </trkpt>
      <trkpt lat="48.887" lon="2.32801">
        <ele>124</ele>
        <time>2015-01-12T21:10:32.579Z</time>
      </trkpt>
      <trkpt lat="48.88695" lon="2.32791">
        <ele>124.4</ele>
        <time>2015-01-12T21:10:36.643Z</time>
      </trkpt>
      <trkpt lat="48.88694" lon="2.32788">
        <ele>124.1</ele>
        <time>2015-01-12T21:10:37.649Z</time>
      </trkpt>
      <trkpt lat="48.88689" lon="2.32788">
        <ele>124.1</ele>
        <time>2015-01-12T21:10:39.570Z</time>
      </trkpt>
      <trkpt lat="48.8868" lon="2.32784">
        <ele>124.3</ele>
        <time>2015-01-12T21:10:46.645Z</time>
      </trkpt>
      <trkpt lat="48.8868" lon="2.32784">
        <ele>124.3</ele>
        <time>2015-01-12T21:12:12.580Z</time>
      </trkpt>
      <trkpt lat="48.88678" lon="2.3277">
        <ele>125.8</ele>
        <time>2015-01-12T21:12:13.579Z</time>
      </trkpt>
      <trkpt lat="48.88655" lon="2.32788">
        <ele>125.1</ele>
        <time>2015-01-12T21:12:20.529Z</time>
      </trkpt>
      <trkpt lat="48.88647" lon="2.32789">
        <ele>124.9</ele>
        <time>2015-01-12T21:12:23.524Z</time>
      </trkpt>
      <trkpt lat="48.88645" lon="2.32791">
        <ele>124.6</ele>
        <time>2015-01-12T21:12:24.528Z</time>
      </trkpt>
      <trkpt lat="48.8864" lon="2.32796">
        <ele>124.1</ele>
        <time>2015-01-12T21:12:26.581Z</time>
      </trkpt>
      <trkpt lat="48.88637" lon="2.32799">
        <ele>123.9</ele>
        <time>2015-01-12T21:12:27.548Z</time>
      </trkpt>
      <trkpt lat="48.88621" lon="2.32801">
        <ele>123.5</ele>
        <time>2015-01-12T21:12:31.615Z</time>
      </trkpt>
      <trkpt lat="48.88573" lon="2.32864">
        <ele>124.7</ele>
        <time>2015-01-12T21:12:58.552Z</time>
      </trkpt>
      <trkpt lat="48.88573" lon="2.32864">
        <ele>124.7</ele>
        <time>2015-01-12T21:13:00.554Z</time>
      </trkpt>
      <trkpt lat="48.88567" lon="2.32877">
        <ele>125.4</ele>
        <time>2015-01-12T21:13:01.592Z</time>
      </trkpt>
      <trkpt lat="48.88562" lon="2.32883">
        <ele>126.1</ele>
        <time>2015-01-12T21:13:03.549Z</time>
      </trkpt>
      <trkpt lat="48.8847" lon="2.32966">
        <ele>125.3</ele>
        <time>2015-01-12T21:13:28.636Z</time>
      </trkpt>
      <trkpt lat="48.88463" lon="2.32972">
        <ele>125.3</ele>
        <time>2015-01-12T21:13:30.571Z</time>
      </trkpt>
      <trkpt lat="48.88461" lon="2.32973">
        <ele>125.2</ele>
        <time>2015-01-12T21:13:31.645Z</time>
      </trkpt>
      <trkpt lat="48.88455" lon="2.3298">
        <ele>124.9</ele>
        <time>2015-01-12T21:13:41.636Z</time>
      </trkpt>
      <trkpt lat="48.88455" lon="2.3299">
        <ele>129</ele>
        <time>2015-01-12T21:13:42.656Z</time>
      </trkpt>
      <trkpt lat="48.88454" lon="2.33003">
        <ele>130.6</ele>
        <time>2015-01-12T21:13:45.631Z</time>
      </trkpt>
      <trkpt lat="48.88454" lon="2.33007">
        <ele>131</ele>
        <time>2015-01-12T21:13:46.715Z</time>
      </trkpt>
      <trkpt lat="48.88453" lon="2.33018">
        <ele>130.8</ele>
        <time>2015-01-12T21:13:48.599Z</time>
      </trkpt>
      <trkpt lat="48.88452" lon="2.33023">
        <ele>130.8</ele>
        <time>2015-01-12T21:13:49.747Z</time>
      </trkpt>
      <trkpt lat="48.88444" lon="2.33019">
        <ele>137.7</ele>
        <time>2015-01-12T21:14:26.681Z</time>
      </trkpt>
      <trkpt lat="48.88439" lon="2.33016">
        <ele>137.4</ele>
        <time>2015-01-12T21:14:27.585Z</time>
      </trkpt>
      <trkpt lat="48.88431" lon="2.33014">
        <ele>137.4</ele>
        <time>2015-01-12T21:14:29.609Z</time>
      </trkpt>
      <trkpt lat="48.88427" lon="2.33013">
        <ele>137.5</ele>
        <time>2015-01-12T21:14:30.621Z</time>
      </trkpt>
      <trkpt lat="48.88421" lon="2.33011">
        <ele>137.8</ele>
        <time>2015-01-12T21:14:31.670Z</time>
      </trkpt>
      <trkpt lat="48.88417" lon="2.33008">
        <ele>137.8</ele>
        <time>2015-01-12T21:14:32.553Z</time>
      </trkpt>
      <trkpt lat="48.88412" lon="2.33004">
        <ele>137.5</ele>
        <time>2015-01-12T21:14:33.553Z</time>
      </trkpt>
      <trkpt lat="48.88407" lon="2.33">
        <ele>137.4</ele>
        <time>2015-01-12T21:14:34.557Z</time>
      </trkpt>
      <trkpt lat="48.88399" lon="2.32995">
        <ele>136.8</ele>
        <time>2015-01-12T21:14:36.566Z</time>
      </trkpt>
      <trkpt lat="48.88396" lon="2.32992">
        <ele>136.2</ele>
        <time>2015-01-12T21:14:37.594Z</time>
      </trkpt>
      <trkpt lat="48.88388" lon="2.32987">
        <ele>134.6</ele>
        <time>2015-01-12T21:14:40.617Z</time>
      </trkpt>
      <trkpt lat="48.88385" lon="2.32988">
        <ele>134.6</ele>
        <time>2015-01-12T21:14:41.631Z</time>
      </trkpt>
      <trkpt lat="48.88377" lon="2.32989">
        <ele>134.2</ele>
        <time>2015-01-12T21:14:43.598Z</time>
      </trkpt>
      <trkpt lat="48.88373" lon="2.3299">
        <ele>134.2</ele>
        <time>2015-01-12T21:14:44.598Z</time>
      </trkpt>
      <trkpt lat="48.88367" lon="2.3299">
        <ele>134.3</ele>
        <time>2015-01-12T21:14:46.633Z</time>
      </trkpt>
      <trkpt lat="48.88364" lon="2.32991">
        <ele>135</ele>
        <time>2015-01-12T21:14:47.640Z</time>
      </trkpt>
      <trkpt lat="48.8836" lon="2.32991">
        <ele>135</ele>
        <time>2015-01-12T21:14:50.606Z</time>
      </trkpt>
      <trkpt lat="48.88355" lon="2.32988">
        <ele>135.3</ele>
        <time>2015-01-12T21:14:51.647Z</time>
      </trkpt>
      <trkpt lat="48.88351" lon="2.32985">
        <ele>135.6</ele>
        <time>2015-01-12T21:14:52.657Z</time>
      </trkpt>
      <trkpt lat="48.88346" lon="2.32981">
        <ele>136</ele>
        <time>2015-01-12T21:14:53.551Z</time>
      </trkpt>
      <trkpt lat="48.88341" lon="2.32977">
        <ele>136.5</ele>
        <time>2015-01-12T21:14:54.576Z</time>
      </trkpt>
      <trkpt lat="48.88335" lon="2.32974">
        <ele>136.4</ele>
        <time>2015-01-12T21:14:55.590Z</time>
      </trkpt>
      <trkpt lat="48.88328" lon="2.32971">
        <ele>136.9</ele>
        <time>2015-01-12T21:14:57.646Z</time>
      </trkpt>
      <trkpt lat="48.88325" lon="2.32971">
        <ele>136.9</ele>
        <time>2015-01-12T21:14:58.563Z</time>
      </trkpt>
      <trkpt lat="48.88317" lon="2.32968">
        <ele>137.5</ele>
        <time>2015-01-12T21:15:02.642Z</time>
      </trkpt>
      <trkpt lat="48.88316" lon="2.3297">
        <ele>137.3</ele>
        <time>2015-01-12T21:15:03.565Z</time>
      </trkpt>
      <trkpt lat="48.88311" lon="2.32973">
        <ele>136.3</ele>
        <time>2015-01-12T21:15:06.561Z</time>
      </trkpt>
      <trkpt lat="48.88305" lon="2.32978">
        <ele>136.7</ele>
        <time>2015-01-12T21:15:07.601Z</time>
      </trkpt>
      <trkpt lat="48.88298" lon="2.32985">
        <ele>136.7</ele>
        <time>2015-01-12T21:15:08.540Z</time>
      </trkpt>
      <trkpt lat="48.88291" lon="2.32991">
        <ele>136.9</ele>
        <time>2015-01-12T21:15:09.548Z</time>
      </trkpt>
      <trkpt lat="48.88287" lon="2.32998">
        <ele>136.9</ele>
        <time>2015-01-12T21:15:10.670Z</time>
      </trkpt>
      <trkpt lat="48.88284" lon="2.33006">
        <ele>136.8</ele>
        <time>2015-01-12T21:15:11.666Z</time>
      </trkpt>
      <trkpt lat="48.88282" lon="2.33014">
        <ele>136.8</ele>
        <time>2015-01-12T21:15:12.585Z</time>
      </trkpt>
      <trkpt lat="48.88279" lon="2.33022">
        <ele>136.6</ele>
        <time>2015-01-12T21:15:13.560Z</time>
      </trkpt>
      <trkpt lat="48.88275" lon="2.33034">
        <ele>136.4</ele>
        <time>2015-01-12T21:15:15.592Z</time>
      </trkpt>
      <trkpt lat="48.88266" lon="2.33052">
        <ele>135.8</ele>
        <time>2015-01-12T21:15:18.545Z</time>
      </trkpt>
      <trkpt lat="48.88263" lon="2.33059">
        <ele>135.8</ele>
        <time>2015-01-12T21:15:19.571Z</time>
      </trkpt>
      <trkpt lat="48.8826" lon="2.33066">
        <ele>135.8</ele>
        <time>2015-01-12T21:15:20.591Z</time>
      </trkpt>
      <trkpt lat="48.88256" lon="2.33072">
        <ele>135.6</ele>
        <time>2015-01-12T21:15:21.618Z</time>
      </trkpt>
      <trkpt lat="48.88252" lon="2.33079">
        <ele>135.5</ele>
        <time>2015-01-12T21:15:22.532Z</time>
      </trkpt>
      <trkpt lat="48.88234" lon="2.33124">
        <ele>134.8</ele>
        <time>2015-01-12T21:15:29.545Z</time>
      </trkpt>
      <trkpt lat="48.88231" lon="2.33135">
        <ele>135.1</ele>
        <time>2015-01-12T21:15:31.588Z</time>
      </trkpt>
      <trkpt lat="48.88228" lon="2.33139">
        <ele>134.9</ele>
        <time>2015-01-12T21:15:32.542Z</time>
      </trkpt>
      <trkpt lat="48.88225" lon="2.33147">
        <ele>134.5</ele>
        <time>2015-01-12T21:15:33.549Z</time>
      </trkpt>
      <trkpt lat="48.8822" lon="2.33151">
        <ele>133.7</ele>
        <time>2015-01-12T21:15:34.559Z</time>
      </trkpt>
      <trkpt lat="48.88215" lon="2.33154">
        <ele>133</ele>
        <time>2015-01-12T21:15:35.571Z</time>
      </trkpt>
      <trkpt lat="48.88211" lon="2.33156">
        <ele>132.1</ele>
        <time>2015-01-12T21:15:36.602Z</time>
      </trkpt>
      <trkpt lat="48.88205" lon="2.33156">
        <ele>130.1</ele>
        <time>2015-01-12T21:15:38.540Z</time>
      </trkpt>
      <trkpt lat="48.88185" lon="2.33155">
        <ele>128.1</ele>
        <time>2015-01-12T21:15:41.514Z</time>
      </trkpt>
      <trkpt lat="48.8818" lon="2.33154">
        <ele>127.7</ele>
        <time>2015-01-12T21:15:42.528Z</time>
      </trkpt>
      <trkpt lat="48.88176" lon="2.33153">
        <ele>127.3</ele>
        <time>2015-01-12T21:15:43.571Z</time>
      </trkpt>
      <trkpt lat="48.88171" lon="2.33152">
        <ele>126.9</ele>
        <time>2015-01-12T21:15:44.583Z</time>
      </trkpt>
      <trkpt lat="48.88167" lon="2.33149">
        <ele>126.6</ele>
        <time>2015-01-12T21:15:45.589Z</time>
      </trkpt>
      <trkpt lat="48.88138" lon="2.33145">
        <ele>127</ele>
        <time>2015-01-12T21:15:50.555Z</time>
      </trkpt>
      <trkpt lat="48.88133" lon="2.33147">
        <ele>126.9</ele>
        <time>2015-01-12T21:15:51.629Z</time>
      </trkpt>
      <trkpt lat="48.87976" lon="2.33136">
        <ele>130.1</ele>
        <time>2015-01-12T21:16:18.516Z</time>
      </trkpt>
      <trkpt lat="48.87968" lon="2.33127">
        <ele>129.2</ele>
        <time>2015-01-12T21:16:20.574Z</time>
      </trkpt>
      <trkpt lat="48.87963" lon="2.33123">
        <ele>128.8</ele>
        <time>2015-01-12T21:16:21.583Z</time>
      </trkpt>
      <trkpt lat="48.87959" lon="2.33119">
        <ele>128.5</ele>
        <time>2015-01-12T21:16:22.532Z</time>
      </trkpt>
      <trkpt lat="48.87872" lon="2.33136">
        <ele>129.9</ele>
        <time>2015-01-12T21:16:38.593Z</time>
      </trkpt>
      <trkpt lat="48.87865" lon="2.33143">
        <ele>129.7</ele>
        <time>2015-01-12T21:16:40.531Z</time>
      </trkpt>
      <trkpt lat="48.87861" lon="2.33146">
        <ele>129.6</ele>
        <time>2015-01-12T21:16:41.553Z</time>
      </trkpt>
      <trkpt lat="48.87856" lon="2.33148">
        <ele>129.4</ele>
        <time>2015-01-12T21:16:42.560Z</time>
      </trkpt>
      <trkpt lat="48.87851" lon="2.3315">
        <ele>129.3</ele>
        <time>2015-01-12T21:16:43.580Z</time>
      </trkpt>
      <trkpt lat="48.87843" lon="2.33153">
        <ele>128.8</ele>
        <time>2015-01-12T21:16:45.600Z</time>
      </trkpt>
      <trkpt lat="48.87839" lon="2.33155">
        <ele>128.5</ele>
        <time>2015-01-12T21:16:46.607Z</time>
      </trkpt>
      <trkpt lat="48.87834" lon="2.33158">
        <ele>128.3</ele>
        <time>2015-01-12T21:16:47.527Z</time>
      </trkpt>
      <trkpt lat="48.87829" lon="2.33161">
        <ele>128.1</ele>
        <time>2015-01-12T21:16:48.526Z</time>
      </trkpt>
      <trkpt lat="48.87821" lon="2.33163">
        <ele>127.8</ele>
        <time>2015-01-12T21:16:49.615Z</time>
      </trkpt>
      <trkpt lat="48.87815" lon="2.33166">
        <ele>127.4</ele>
        <time>2015-01-12T21:16:50.547Z</time>
      </trkpt>
      <trkpt lat="48.87809" lon="2.33169">
        <ele>127.1</ele>
        <time>2015-01-12T21:16:51.544Z</time>
      </trkpt>
      <trkpt lat="48.87804" lon="2.33171">
        <ele>126.5</ele>
        <time>2015-01-12T21:16:52.561Z</time>
      </trkpt>
      <trkpt lat="48.87799" lon="2.33174">
        <ele>126.3</ele>
        <time>2015-01-12T21:16:53.605Z</time>
      </trkpt>
      <trkpt lat="48.87793" lon="2.33178">
        <ele>125.9</ele>
        <time>2015-01-12T21:16:54.614Z</time>
      </trkpt>
      <trkpt lat="48.87789" lon="2.33182">
        <ele>125.8</ele>
        <time>2015-01-12T21:16:55.620Z</time>
      </trkpt>
      <trkpt lat="48.87784" lon="2.33184">
        <ele>125.1</ele>
        <time>2015-01-12T21:16:56.540Z</time>
      </trkpt>
      <trkpt lat="48.87779" lon="2.33187">
        <ele>120.7</ele>
        <time>2015-01-12T21:16:59.557Z</time>
      </trkpt>
      <trkpt lat="48.87774" lon="2.33187">
        <ele>119.8</ele>
        <time>2015-01-12T21:17:00.599Z</time>
      </trkpt>
      <trkpt lat="48.87769" lon="2.3319">
        <ele>118.4</ele>
        <time>2015-01-12T21:17:01.631Z</time>
      </trkpt>
      <trkpt lat="48.87765" lon="2.33193">
        <ele>118.3</ele>
        <time>2015-01-12T21:17:02.544Z</time>
      </trkpt>
      <trkpt lat="48.87756" lon="2.33196">
        <ele>117.7</ele>
        <time>2015-01-12T21:17:04.591Z</time>
      </trkpt>
      <trkpt lat="48.87752" lon="2.33198">
        <ele>117.4</ele>
        <time>2015-01-12T21:17:05.537Z</time>
      </trkpt>
      <trkpt lat="48.87747" lon="2.33198">
        <ele>117</ele>
        <time>2015-01-12T21:17:06.695Z</time>
      </trkpt>
      <trkpt lat="48.87743" lon="2.33198">
        <ele>116.6</ele>
        <time>2015-01-12T21:17:07.678Z</time>
      </trkpt>
      <trkpt lat="48.87737" lon="2.33198">
        <ele>116.3</ele>
        <time>2015-01-12T21:17:08.540Z</time>
      </trkpt>
      <trkpt lat="48.87732" lon="2.33198">
        <ele>116.1</ele>
        <time>2015-01-12T21:17:09.548Z</time>
      </trkpt>
      <trkpt lat="48.87726" lon="2.33198">
        <ele>115.5</ele>
        <time>2015-01-12T21:17:10.734Z</time>
      </trkpt>
      <trkpt lat="48.8772" lon="2.33198">
        <ele>115.2</ele>
        <time>2015-01-12T21:17:11.558Z</time>
      </trkpt>
      <trkpt lat="48.87716" lon="2.33197">
        <ele>115</ele>
        <time>2015-01-12T21:17:12.566Z</time>
      </trkpt>
      <trkpt lat="48.87711" lon="2.33197">
        <ele>114.5</ele>
        <time>2015-01-12T21:17:13.579Z</time>
      </trkpt>
      <trkpt lat="48.87706" lon="2.33197">
        <ele>114.3</ele>
        <time>2015-01-12T21:17:14.616Z</time>
      </trkpt>
      <trkpt lat="48.87702" lon="2.33198">
        <ele>114</ele>
        <time>2015-01-12T21:17:15.536Z</time>
      </trkpt>
      <trkpt lat="48.87697" lon="2.33205">
        <ele>113.1</ele>
        <time>2015-01-12T21:17:16.533Z</time>
      </trkpt>
      <trkpt lat="48.87693" lon="2.3321">
        <ele>112.4</ele>
        <time>2015-01-12T21:17:17.530Z</time>
      </trkpt>
      <trkpt lat="48.87689" lon="2.33216">
        <ele>111.8</ele>
        <time>2015-01-12T21:17:18.554Z</time>
      </trkpt>
      <trkpt lat="48.87684" lon="2.33219">
        <ele>111.5</ele>
        <time>2015-01-12T21:17:19.596Z</time>
      </trkpt>
      <trkpt lat="48.8768" lon="2.33222">
        <ele>111.1</ele>
        <time>2015-01-12T21:17:20.603Z</time>
      </trkpt>
      <trkpt lat="48.87676" lon="2.33226">
        <ele>111</ele>
        <time>2015-01-12T21:17:21.509Z</time>
      </trkpt>
      <trkpt lat="48.87672" lon="2.33229">
        <ele>110.5</ele>
        <time>2015-01-12T21:17:22.526Z</time>
      </trkpt>
      <trkpt lat="48.87667" lon="2.33231">
        <ele>110.4</ele>
        <time>2015-01-12T21:17:23.530Z</time>
      </trkpt>
      <trkpt lat="48.8766" lon="2.33231">
        <ele>110.1</ele>
        <time>2015-01-12T21:17:25.583Z</time>
      </trkpt>
      <trkpt lat="48.87656" lon="2.3323">
        <ele>109.8</ele>
        <time>2015-01-12T21:17:26.596Z</time>
      </trkpt>
      <trkpt lat="48.8765" lon="2.33223">
        <ele>110.3</ele>
        <time>2015-01-12T21:17:28.541Z</time>
      </trkpt>
      <trkpt lat="48.87648" lon="2.33217">
        <ele>110.8</ele>
        <time>2015-01-12T21:17:29.554Z</time>
      </trkpt>
      <trkpt lat="48.87645" lon="2.33212">
        <ele>111.3</ele>
        <time>2015-01-12T21:17:30.563Z</time>
      </trkpt>
      <trkpt lat="48.87643" lon="2.33206">
        <ele>112.1</ele>
        <time>2015-01-12T21:17:31.603Z</time>
      </trkpt>
      <trkpt lat="48.87638" lon="2.33194">
        <ele>112.9</ele>
        <time>2015-01-12T21:17:33.638Z</time>
      </trkpt>
      <trkpt lat="48.87635" lon="2.33187">
        <ele>113.4</ele>
        <time>2015-01-12T21:17:34.648Z</time>
      </trkpt>
      <trkpt lat="48.87629" lon="2.33178">
        <ele>114.5</ele>
        <time>2015-01-12T21:17:36.556Z</time>
      </trkpt>
      <trkpt lat="48.87627" lon="2.33175">
        <ele>114.9</ele>
        <time>2015-01-12T21:17:37.593Z</time>
      </trkpt>
      <trkpt lat="48.87621" lon="2.3318">
        <ele>105.7</ele>
        <time>2015-01-12T21:18:00.601Z</time>
      </trkpt>
      <trkpt lat="48.87619" lon="2.33184">
        <ele>103.3</ele>
        <time>2015-01-12T21:18:01.625Z</time>
      </trkpt>
      <trkpt lat="48.87614" lon="2.3319">
        <ele>101.3</ele>
        <time>2015-01-12T21:18:03.663Z</time>
      </trkpt>
      <trkpt lat="48.87612" lon="2.33191">
        <ele>101.2</ele>
        <time>2015-01-12T21:18:04.570Z</time>
      </trkpt>
      <trkpt lat="48.87603" lon="2.33193">
        <ele>100.9</ele>
        <time>2015-01-12T21:18:06.602Z</time>
      </trkpt>
      <trkpt lat="48.87597" lon="2.33195">
        <ele>100.3</ele>
        <time>2015-01-12T21:18:07.844Z</time>
      </trkpt>
      <trkpt lat="48.87588" lon="2.33196">
        <ele>99.5</ele>
        <time>2015-01-12T21:18:09.564Z</time>
      </trkpt>
      <trkpt lat="48.87522" lon="2.33233">
        <ele>100.7</ele>
        <time>2015-01-12T21:18:23.542Z</time>
      </trkpt>
      <trkpt lat="48.87515" lon="2.33236">
        <ele>100.9</ele>
        <time>2015-01-12T21:18:24.555Z</time>
      </trkpt>
      <trkpt lat="48.875" lon="2.33245">
        <ele>101.1</ele>
        <time>2015-01-12T21:18:26.506Z</time>
      </trkpt>
      <trkpt lat="48.87492" lon="2.33247">
        <ele>101</ele>
        <time>2015-01-12T21:18:27.616Z</time>
      </trkpt>
      <trkpt lat="48.87485" lon="2.33249">
        <ele>100.9</ele>
        <time>2015-01-12T21:18:28.636Z</time>
      </trkpt>
      <trkpt lat="48.87477" lon="2.33248">
        <ele>100.6</ele>
        <time>2015-01-12T21:18:29.528Z</time>
      </trkpt>
      <trkpt lat="48.8747" lon="2.33248">
        <ele>100.2</ele>
        <time>2015-01-12T21:18:30.527Z</time>
      </trkpt>
      <trkpt lat="48.87464" lon="2.33253">
        <ele>99.7</ele>
        <time>2015-01-12T21:18:31.638Z</time>
      </trkpt>
      <trkpt lat="48.87458" lon="2.33257">
        <ele>99.4</ele>
        <time>2015-01-12T21:18:32.651Z</time>
      </trkpt>
      <trkpt lat="48.87452" lon="2.33261">
        <ele>99.2</ele>
        <time>2015-01-12T21:18:33.535Z</time>
      </trkpt>
      <trkpt lat="48.87444" lon="2.33265">
        <ele>99.2</ele>
        <time>2015-01-12T21:18:34.538Z</time>
      </trkpt>
      <trkpt lat="48.87437" lon="2.33268">
        <ele>99.2</ele>
        <time>2015-01-12T21:18:35.636Z</time>
      </trkpt>
      <trkpt lat="48.8743" lon="2.33271">
        <ele>98.9</ele>
        <time>2015-01-12T21:18:36.650Z</time>
      </trkpt>
      <trkpt lat="48.87423" lon="2.33274">
        <ele>98.6</ele>
        <time>2015-01-12T21:18:37.578Z</time>
      </trkpt>
      <trkpt lat="48.87416" lon="2.33278">
        <ele>98.5</ele>
        <time>2015-01-12T21:18:38.576Z</time>
      </trkpt>
      <trkpt lat="48.8741" lon="2.33283">
        <ele>98.3</ele>
        <time>2015-01-12T21:18:39.618Z</time>
      </trkpt>
      <trkpt lat="48.87403" lon="2.33284">
        <ele>98.3</ele>
        <time>2015-01-12T21:18:40.623Z</time>
      </trkpt>
      <trkpt lat="48.87398" lon="2.33285">
        <ele>98.1</ele>
        <time>2015-01-12T21:18:41.544Z</time>
      </trkpt>
      <trkpt lat="48.87392" lon="2.33289">
        <ele>98</ele>
        <time>2015-01-12T21:18:42.543Z</time>
      </trkpt>
      <trkpt lat="48.87386" lon="2.33292">
        <ele>98</ele>
        <time>2015-01-12T21:18:43.553Z</time>
      </trkpt>
      <trkpt lat="48.87379" lon="2.33295">
        <ele>98.1</ele>
        <time>2015-01-12T21:18:44.558Z</time>
      </trkpt>
      <trkpt lat="48.87372" lon="2.33299">
        <ele>98</ele>
        <time>2015-01-12T21:18:45.570Z</time>
      </trkpt>
      <trkpt lat="48.87358" lon="2.33309">
        <ele>98.8</ele>
        <time>2015-01-12T21:18:48.602Z</time>
      </trkpt>
      <trkpt lat="48.87353" lon="2.33311">
        <ele>99.4</ele>
        <time>2015-01-12T21:18:49.635Z</time>
      </trkpt>
      <trkpt lat="48.8733" lon="2.33316">
        <ele>99.4</ele>
        <time>2015-01-12T21:18:53.581Z</time>
      </trkpt>
      <trkpt lat="48.87322" lon="2.33318">
        <ele>98.9</ele>
        <time>2015-01-12T21:18:55.606Z</time>
      </trkpt>
      <trkpt lat="48.87319" lon="2.33319">
        <ele>98.3</ele>
        <time>2015-01-12T21:18:56.705Z</time>
      </trkpt>
      <trkpt lat="48.87311" lon="2.33318">
        <ele>103.7</ele>
        <time>2015-01-12T21:19:13.652Z</time>
      </trkpt>
      <trkpt lat="48.87289" lon="2.33321">
        <ele>112.9</ele>
        <time>2015-01-12T21:19:14.578Z</time>
      </trkpt>
      <trkpt lat="48.87281" lon="2.33328">
        <ele>113.8</ele>
        <time>2015-01-12T21:19:16.557Z</time>
      </trkpt>
      <trkpt lat="48.87278" lon="2.33331">
        <ele>113.7</ele>
        <time>2015-01-12T21:19:17.587Z</time>
      </trkpt>
      <trkpt lat="48.87274" lon="2.33338">
        <ele>112.4</ele>
        <time>2015-01-12T21:19:20.626Z</time>
      </trkpt>
      <trkpt lat="48.87271" lon="2.33339">
        <ele>112.3</ele>
        <time>2015-01-12T21:19:21.648Z</time>
      </trkpt>
      <trkpt lat="48.87264" lon="2.33339">
        <ele>112.2</ele>
        <time>2015-01-12T21:19:23.568Z</time>
      </trkpt>
      <trkpt lat="48.87261" lon="2.33339">
        <ele>112</ele>
        <time>2015-01-12T21:19:24.576Z</time>
      </trkpt>
      <trkpt lat="48.87255" lon="2.33339">
        <ele>111.3</ele>
        <time>2015-01-12T21:19:25.635Z</time>
      </trkpt>
      <trkpt lat="48.8725" lon="2.33341">
        <ele>111.2</ele>
        <time>2015-01-12T21:19:26.546Z</time>
      </trkpt>
      <trkpt lat="48.87246" lon="2.33343">
        <ele>110.8</ele>
        <time>2015-01-12T21:19:27.548Z</time>
      </trkpt>
      <trkpt lat="48.87241" lon="2.33344">
        <ele>110.2</ele>
        <time>2015-01-12T21:19:28.551Z</time>
      </trkpt>
      <trkpt lat="48.87235" lon="2.33344">
        <ele>109.6</ele>
        <time>2015-01-12T21:19:29.559Z</time>
      </trkpt>
      <trkpt lat="48.87229" lon="2.33343">
        <ele>108.7</ele>
        <time>2015-01-12T21:19:30.575Z</time>
      </trkpt>
      <trkpt lat="48.87223" lon="2.33342">
        <ele>108.2</ele>
        <time>2015-01-12T21:19:31.586Z</time>
      </trkpt>
      <trkpt lat="48.87218" lon="2.33343">
        <ele>107.3</ele>
        <time>2015-01-12T21:19:32.601Z</time>
      </trkpt>
      <trkpt lat="48.87214" lon="2.33346">
        <ele>106.8</ele>
        <time>2015-01-12T21:19:33.608Z</time>
      </trkpt>
      <trkpt lat="48.87208" lon="2.33348">
        <ele>106.2</ele>
        <time>2015-01-12T21:19:34.618Z</time>
      </trkpt>
      <trkpt lat="48.87203" lon="2.3335">
        <ele>105.2</ele>
        <time>2015-01-12T21:19:35.536Z</time>
      </trkpt>
      <trkpt lat="48.87198" lon="2.33352">
        <ele>104.5</ele>
        <time>2015-01-12T21:19:36.540Z</time>
      </trkpt>
      <trkpt lat="48.87192" lon="2.33354">
        <ele>104.2</ele>
        <time>2015-01-12T21:19:37.558Z</time>
      </trkpt>
      <trkpt lat="48.87186" lon="2.33357">
        <ele>103.9</ele>
        <time>2015-01-12T21:19:38.559Z</time>
      </trkpt>
      <trkpt lat="48.87181" lon="2.33362">
        <ele>104.2</ele>
        <time>2015-01-12T21:19:39.577Z</time>
      </trkpt>
      <trkpt lat="48.87176" lon="2.33368">
        <ele>104.4</ele>
        <time>2015-01-12T21:19:40.586Z</time>
      </trkpt>
      <trkpt lat="48.87172" lon="2.33372">
        <ele>104.8</ele>
        <time>2015-01-12T21:19:41.596Z</time>
      </trkpt>
      <trkpt lat="48.87167" lon="2.33376">
        <ele>105</ele>
        <time>2015-01-12T21:19:42.595Z</time>
      </trkpt>
      <trkpt lat="48.87162" lon="2.33382">
        <ele>105.1</ele>
        <time>2015-01-12T21:19:43.609Z</time>
      </trkpt>
      <trkpt lat="48.87157" lon="2.33387">
        <ele>105.3</ele>
        <time>2015-01-12T21:19:44.618Z</time>
      </trkpt>
      <trkpt lat="48.87152" lon="2.33389">
        <ele>105.6</ele>
        <time>2015-01-12T21:19:45.629Z</time>
      </trkpt>
      <trkpt lat="48.87144" lon="2.33394">
        <ele>105.2</ele>
        <time>2015-01-12T21:19:46.632Z</time>
      </trkpt>
      <trkpt lat="48.87138" lon="2.33395">
        <ele>105</ele>
        <time>2015-01-12T21:19:47.680Z</time>
      </trkpt>
      <trkpt lat="48.87133" lon="2.33395">
        <ele>104.8</ele>
        <time>2015-01-12T21:19:48.565Z</time>
      </trkpt>
      <trkpt lat="48.87128" lon="2.33395">
        <ele>104.5</ele>
        <time>2015-01-12T21:19:49.732Z</time>
      </trkpt>
      <trkpt lat="48.87123" lon="2.33396">
        <ele>104.4</ele>
        <time>2015-01-12T21:19:50.587Z</time>
      </trkpt>
      <trkpt lat="48.87117" lon="2.33399">
        <ele>105.5</ele>
        <time>2015-01-12T21:19:52.596Z</time>
      </trkpt>
      <trkpt lat="48.87113" lon="2.33397">
        <ele>106.1</ele>
        <time>2015-01-12T21:19:53.606Z</time>
      </trkpt>
      <trkpt lat="48.87107" lon="2.33402">
        <ele>108.3</ele>
        <time>2015-01-12T21:19:56.643Z</time>
      </trkpt>
      <trkpt lat="48.87105" lon="2.33405">
        <ele>108.5</ele>
        <time>2015-01-12T21:19:57.666Z</time>
      </trkpt>
      <trkpt lat="48.871" lon="2.33406">
        <ele>109.7</ele>
        <time>2015-01-12T21:20:03.565Z</time>
      </trkpt>
      <trkpt lat="48.87095" lon="2.33407">
        <ele>111.4</ele>
        <time>2015-01-12T21:20:04.552Z</time>
      </trkpt>
      <trkpt lat="48.87096" lon="2.33407">
        <ele>111.3</ele>
        <time>2015-01-12T21:20:21.565Z</time>
      </trkpt>
      <trkpt lat="48.87091" lon="2.33433">
        <ele>116.7</ele>
        <time>2015-01-12T21:20:22.587Z</time>
      </trkpt>
      <trkpt lat="48.87096" lon="2.33444">
        <ele>118.1</ele>
        <time>2015-01-12T21:20:27.667Z</time>
      </trkpt>
      <trkpt lat="48.87097" lon="2.33447">
        <ele>118.6</ele>
        <time>2015-01-12T21:20:28.568Z</time>
      </trkpt>
      <trkpt lat="48.871" lon="2.33459">
        <ele>119.4</ele>
        <time>2015-01-12T21:20:32.607Z</time>
      </trkpt>
      <trkpt lat="48.87101" lon="2.3346">
        <ele>119.5</ele>
        <time>2015-01-12T21:20:33.640Z</time>
      </trkpt>
      <trkpt lat="48.87094" lon="2.3346">
        <ele>118.3</ele>
        <time>2015-01-12T21:20:35.538Z</time>
      </trkpt>
      <trkpt lat="48.87089" lon="2.33458">
        <ele>117.3</ele>
        <time>2015-01-12T21:20:36.561Z</time>
      </trkpt>
      <trkpt lat="48.87081" lon="2.3346">
        <ele>116.2</ele>
        <time>2015-01-12T21:20:38.590Z</time>
      </trkpt>
      <trkpt lat="48.87077" lon="2.33462">
        <ele>115.5</ele>
        <time>2015-01-12T21:20:39.592Z</time>
      </trkpt>
      <trkpt lat="48.8707" lon="2.33461">
        <ele>114.2</ele>
        <time>2015-01-12T21:20:40.643Z</time>
      </trkpt>
      <trkpt lat="48.87065" lon="2.33459">
        <ele>113.4</ele>
        <time>2015-01-12T21:20:41.631Z</time>
      </trkpt>
      <trkpt lat="48.8706" lon="2.33461">
        <ele>112.8</ele>
        <time>2015-01-12T21:20:42.553Z</time>
      </trkpt>
      <trkpt lat="48.87054" lon="2.33462">
        <ele>111.6</ele>
        <time>2015-01-12T21:20:43.647Z</time>
      </trkpt>
      <trkpt lat="48.87047" lon="2.33465">
        <ele>110.2</ele>
        <time>2015-01-12T21:20:45.780Z</time>
      </trkpt>
      <trkpt lat="48.87044" lon="2.33467">
        <ele>109.4</ele>
        <time>2015-01-12T21:20:46.562Z</time>
      </trkpt>
      <trkpt lat="48.87038" lon="2.33471">
        <ele>108</ele>
        <time>2015-01-12T21:20:49.692Z</time>
      </trkpt>
      <trkpt lat="48.87035" lon="2.33475">
        <ele>107.2</ele>
        <time>2015-01-12T21:20:49.736Z</time>
      </trkpt>
      <trkpt lat="48.87021" lon="2.33483">
        <ele>107.5</ele>
        <time>2015-01-12T21:20:53.613Z</time>
      </trkpt>
      <trkpt lat="48.87013" lon="2.3348">
        <ele>107.9</ele>
        <time>2015-01-12T21:20:56.575Z</time>
      </trkpt>
      <trkpt lat="48.87012" lon="2.33479">
        <ele>108</ele>
        <time>2015-01-12T21:20:57.616Z</time>
      </trkpt>
      <trkpt lat="48.87003" lon="2.33477">
        <ele>108.4</ele>
        <time>2015-01-12T21:21:10.568Z</time>
      </trkpt>
      <trkpt lat="48.87" lon="2.3348">
        <ele>109.7</ele>
        <time>2015-01-12T21:21:11.583Z</time>
      </trkpt>
      <trkpt lat="48.86992" lon="2.33478">
        <ele>110.1</ele>
        <time>2015-01-12T21:21:15.108Z</time>
      </trkpt>
      <trkpt lat="48.86894" lon="2.33438">
        <ele>107.7</ele>
        <time>2015-01-12T21:21:39.531Z</time>
      </trkpt>
      <trkpt lat="48.86889" lon="2.33447">
        <ele>107.2</ele>
        <time>2015-01-12T21:21:42.566Z</time>
      </trkpt>
      <trkpt lat="48.86887" lon="2.33452">
        <ele>107.2</ele>
        <time>2015-01-12T21:21:43.582Z</time>
      </trkpt>
      <trkpt lat="48.86883" lon="2.33463">
        <ele>106.8</ele>
        <time>2015-01-12T21:21:45.531Z</time>
      </trkpt>
      <trkpt lat="48.86879" lon="2.33483">
        <ele>106.1</ele>
        <time>2015-01-12T21:21:48.576Z</time>
      </trkpt>
      <trkpt lat="48.86871" lon="2.33537">
        <ele>106.3</ele>
        <time>2015-01-12T21:21:56.538Z</time>
      </trkpt>
      <trkpt lat="48.86865" lon="2.33538">
        <ele>106.1</ele>
        <time>2015-01-12T21:21:58.558Z</time>
      </trkpt>
      <trkpt lat="48.86859" lon="2.33537">
        <ele>105.7</ele>
        <time>2015-01-12T21:21:59.582Z</time>
      </trkpt>
      <trkpt lat="48.86852" lon="2.33534">
        <ele>106.3</ele>
        <time>2015-01-12T21:22:03.559Z</time>
      </trkpt>
      <trkpt lat="48.8685" lon="2.33532">
        <ele>106.3</ele>
        <time>2015-01-12T21:22:04.571Z</time>
      </trkpt>
      <trkpt lat="48.86846" lon="2.33525">
        <ele>106.2</ele>
        <time>2015-01-12T21:22:07.612Z</time>
      </trkpt>
      <trkpt lat="48.86839" lon="2.33516">
        <ele>106.6</ele>
        <time>2015-01-12T21:22:18.579Z</time>
      </trkpt>
      <trkpt lat="48.86839" lon="2.33516">
        <ele>106.6</ele>
        <time>2015-01-12T21:22:26.527Z</time>
      </trkpt>
      <trkpt lat="48.86824" lon="2.33505">
        <ele>109.9</ele>
        <time>2015-01-12T21:22:27.546Z</time>
      </trkpt>
      <trkpt lat="48.86825" lon="2.33494">
        <ele>110.8</ele>
        <time>2015-01-12T21:22:31.617Z</time>
      </trkpt>
      <trkpt lat="48.86825" lon="2.3349">
        <ele>110.9</ele>
        <time>2015-01-12T21:22:32.628Z</time>
      </trkpt>
      <trkpt lat="48.8683" lon="2.33479">
        <ele>111.4</ele>
        <time>2015-01-12T21:22:35.544Z</time>
      </trkpt>
      <trkpt lat="48.86832" lon="2.33475">
        <ele>111.3</ele>
        <time>2015-01-12T21:22:36.543Z</time>
      </trkpt>
      <trkpt lat="48.86831" lon="2.33466">
        <ele>110.1</ele>
        <time>2015-01-12T21:22:48.550Z</time>
      </trkpt>
      <trkpt lat="48.8682" lon="2.33461">
        <ele>108.6</ele>
        <time>2015-01-12T21:22:49.577Z</time>
      </trkpt>
      <trkpt lat="48.86814" lon="2.33466">
        <ele>107.7</ele>
        <time>2015-01-12T21:22:51.555Z</time>
      </trkpt>
      <trkpt lat="48.86811" lon="2.33469">
        <ele>107.3</ele>
        <time>2015-01-12T21:22:52.568Z</time>
      </trkpt>
      <trkpt lat="48.86803" lon="2.33474">
        <ele>106.1</ele>
        <time>2015-01-12T21:22:54.598Z</time>
      </trkpt>
      <trkpt lat="48.86801" lon="2.33478">
        <ele>105.7</ele>
        <time>2015-01-12T21:22:55.610Z</time>
      </trkpt>
      <trkpt lat="48.86796" lon="2.33485">
        <ele>104.5</ele>
        <time>2015-01-12T21:22:58.551Z</time>
      </trkpt>
      <trkpt lat="48.86792" lon="2.33485">
        <ele>103.9</ele>
        <time>2015-01-12T21:22:59.597Z</time>
      </trkpt>
      <trkpt lat="48.86785" lon="2.33484">
        <ele>103.1</ele>
        <time>2015-01-12T21:23:01.558Z</time>
      </trkpt>
      <trkpt lat="48.86779" lon="2.33481">
        <ele>103.1</ele>
        <time>2015-01-12T21:23:02.571Z</time>
      </trkpt>
      <trkpt lat="48.86771" lon="2.33476">
        <ele>102.3</ele>
        <time>2015-01-12T21:23:04.589Z</time>
      </trkpt>
      <trkpt lat="48.86768" lon="2.33474">
        <ele>102.5</ele>
        <time>2015-01-12T21:23:05.580Z</time>
      </trkpt>
      <trkpt lat="48.86763" lon="2.33472">
        <ele>102.5</ele>
        <time>2015-01-12T21:23:06.666Z</time>
      </trkpt>
      <trkpt lat="48.86758" lon="2.33473">
        <ele>102.5</ele>
        <time>2015-01-12T21:23:07.548Z</time>
      </trkpt>
      <trkpt lat="48.86749" lon="2.33476">
        <ele>102.6</ele>
        <time>2015-01-12T21:23:10.526Z</time>
      </trkpt>
      <trkpt lat="48.86747" lon="2.33479">
        <ele>102.7</ele>
        <time>2015-01-12T21:23:11.533Z</time>
      </trkpt>
      <trkpt lat="48.86742" lon="2.33483">
        <ele>102.7</ele>
        <time>2015-01-12T21:23:14.582Z</time>
      </trkpt>
      <trkpt lat="48.86737" lon="2.33487">
        <ele>103.2</ele>
        <time>2015-01-12T21:23:15.670Z</time>
      </trkpt>
      <trkpt lat="48.8673" lon="2.33494">
        <ele>103.5</ele>
        <time>2015-01-12T21:23:17.525Z</time>
      </trkpt>
      <trkpt lat="48.86722" lon="2.33504">
        <ele>103.7</ele>
        <time>2015-01-12T21:23:20.536Z</time>
      </trkpt>
      <trkpt lat="48.86714" lon="2.3351">
        <ele>103.9</ele>
        <time>2015-01-12T21:23:23.559Z</time>
      </trkpt>
      <trkpt lat="48.86708" lon="2.3351">
        <ele>104.9</ele>
        <time>2015-01-12T21:23:24.567Z</time>
      </trkpt>
      <trkpt lat="48.86641" lon="2.33491">
        <ele>105.2</ele>
        <time>2015-01-12T21:23:48.578Z</time>
      </trkpt>
      <trkpt lat="48.86633" lon="2.33491">
        <ele>105.3</ele>
        <time>2015-01-12T21:23:52.509Z</time>
      </trkpt>
      <trkpt lat="48.8663" lon="2.33492">
        <ele>105.2</ele>
        <time>2015-01-12T21:23:53.538Z</time>
      </trkpt>
      <trkpt lat="48.86538" lon="2.3368">
        <ele>104</ele>
        <time>2015-01-12T21:24:44.612Z</time>
      </trkpt>
      <trkpt lat="48.8653" lon="2.3368">
        <ele>103.6</ele>
        <time>2015-01-12T21:24:45.980Z</time>
      </trkpt>
      <trkpt lat="48.86523" lon="2.33677">
        <ele>103.7</ele>
        <time>2015-01-12T21:24:46.534Z</time>
      </trkpt>
      <trkpt lat="48.86516" lon="2.33674">
        <ele>103.6</ele>
        <time>2015-01-12T21:24:47.543Z</time>
      </trkpt>
      <trkpt lat="48.86511" lon="2.33672">
        <ele>103.5</ele>
        <time>2015-01-12T21:24:48.554Z</time>
      </trkpt>
      <trkpt lat="48.86503" lon="2.33669">
        <ele>103.4</ele>
        <time>2015-01-12T21:24:50.546Z</time>
      </trkpt>
      <trkpt lat="48.865" lon="2.33668">
        <ele>103.4</ele>
        <time>2015-01-12T21:24:51.554Z</time>
      </trkpt>
      <trkpt lat="48.86493" lon="2.33665">
        <ele>103.6</ele>
        <time>2015-01-12T21:24:53.623Z</time>
      </trkpt>
      <trkpt lat="48.86491" lon="2.33663">
        <ele>103.6</ele>
        <time>2015-01-12T21:24:54.554Z</time>
      </trkpt>
      <trkpt lat="48.86484" lon="2.33655">
        <ele>101.8</ele>
        <time>2015-01-12T21:24:58.587Z</time>
      </trkpt>
      <trkpt lat="48.86482" lon="2.33651">
        <ele>101.6</ele>
        <time>2015-01-12T21:24:59.601Z</time>
      </trkpt>
      <trkpt lat="48.86478" lon="2.33643">
        <ele>101.7</ele>
        <time>2015-01-12T21:25:01.565Z</time>
      </trkpt>
      <trkpt lat="48.86476" lon="2.33637">
        <ele>101.6</ele>
        <time>2015-01-12T21:25:02.596Z</time>
      </trkpt>
      <trkpt lat="48.8647" lon="2.33629">
        <ele>101.2</ele>
        <time>2015-01-12T21:25:04.640Z</time>
      </trkpt>
      <trkpt lat="48.86468" lon="2.33628">
        <ele>101</ele>
        <time>2015-01-12T21:25:06.580Z</time>
      </trkpt>
      <trkpt lat="48.86462" lon="2.33626">
        <ele>100.5</ele>
        <time>2015-01-12T21:25:09.619Z</time>
      </trkpt>
      <trkpt lat="48.86303" lon="2.33834">
        <ele>100</ele>
        <time>2015-01-12T21:29:17.521Z</time>
      </trkpt>
      <trkpt lat="48.86303" lon="2.33834">
        <ele>100</ele>
        <time>2015-01-12T21:29:21.572Z</time>
      </trkpt>
      <trkpt lat="48.86301" lon="2.33867">
        <ele>111</ele>
        <time>2015-01-12T21:29:22.483Z</time>
      </trkpt>
      <trkpt lat="48.86305" lon="2.33873">
        <ele>112.6</ele>
        <time>2015-01-12T21:29:23.488Z</time>
      </trkpt>
      <trkpt lat="48.86308" lon="2.33879">
        <ele>114.5</ele>
        <time>2015-01-12T21:29:24.503Z</time>
      </trkpt>
      <trkpt lat="48.86313" lon="2.33889">
        <ele>117.2</ele>
        <time>2015-01-12T21:29:26.549Z</time>
      </trkpt>
      <trkpt lat="48.86313" lon="2.33895">
        <ele>114.9</ele>
        <time>2015-01-12T21:29:27.465Z</time>
      </trkpt>
      <trkpt lat="48.8631" lon="2.33903">
        <ele>111.8</ele>
        <time>2015-01-12T21:29:29.676Z</time>
      </trkpt>
      <trkpt lat="48.86308" lon="2.33909">
        <ele>109.3</ele>
        <time>2015-01-12T21:29:30.471Z</time>
      </trkpt>
      <trkpt lat="48.86306" lon="2.3392">
        <ele>106.8</ele>
        <time>2015-01-12T21:29:32.492Z</time>
      </trkpt>
      <trkpt lat="48.86305" lon="2.33924">
        <ele>105.2</ele>
        <time>2015-01-12T21:29:33.506Z</time>
      </trkpt>
      <trkpt lat="48.86302" lon="2.33935">
        <ele>110.7</ele>
        <time>2015-01-12T21:29:37.555Z</time>
      </trkpt>
      <trkpt lat="48.86299" lon="2.33937">
        <ele>111.4</ele>
        <time>2015-01-12T21:29:38.560Z</time>
      </trkpt>
      <trkpt lat="48.86291" lon="2.33938">
        <ele>112.7</ele>
        <time>2015-01-12T21:29:41.695Z</time>
      </trkpt>
      <trkpt lat="48.86288" lon="2.33938">
        <ele>112.8</ele>
        <time>2015-01-12T21:29:42.476Z</time>
      </trkpt>
      <trkpt lat="48.86279" lon="2.33937">
        <ele>112.6</ele>
        <time>2015-01-12T21:29:45.542Z</time>
      </trkpt>
      <trkpt lat="48.86276" lon="2.33937">
        <ele>112.8</ele>
        <time>2015-01-12T21:29:46.448Z</time>
      </trkpt>
      <trkpt lat="48.86268" lon="2.33942">
        <ele>112.9</ele>
        <time>2015-01-12T21:29:49.525Z</time>
      </trkpt>
      <trkpt lat="48.86266" lon="2.33945">
        <ele>112.8</ele>
        <time>2015-01-12T21:29:50.544Z</time>
      </trkpt>
      <trkpt lat="48.86261" lon="2.33952">
        <ele>112.9</ele>
        <time>2015-01-12T21:29:52.467Z</time>
      </trkpt>
      <trkpt lat="48.86259" lon="2.33956">
        <ele>113</ele>
        <time>2015-01-12T21:29:53.462Z</time>
      </trkpt>
      <trkpt lat="48.86254" lon="2.33962">
        <ele>114.9</ele>
        <time>2015-01-12T21:29:56.538Z</time>
      </trkpt>
      <trkpt lat="48.86251" lon="2.33964">
        <ele>115.6</ele>
        <time>2015-01-12T21:29:57.430Z</time>
      </trkpt>
      <trkpt lat="48.86197" lon="2.33965">
        <ele>110.5</ele>
        <time>2015-01-12T21:30:32.570Z</time>
      </trkpt>
      <trkpt lat="48.8618" lon="2.33997">
        <ele>106.8</ele>
        <time>2015-01-12T21:30:39.535Z</time>
      </trkpt>
      <trkpt lat="48.86177" lon="2.34001">
        <ele>106.3</ele>
        <time>2015-01-12T21:30:40.453Z</time>
      </trkpt>
      <trkpt lat="48.86173" lon="2.34006">
        <ele>106.5</ele>
        <time>2015-01-12T21:30:41.469Z</time>
      </trkpt>
      <trkpt lat="48.86169" lon="2.34016">
        <ele>106.8</ele>
        <time>2015-01-12T21:30:43.505Z</time>
      </trkpt>
      <trkpt lat="48.86165" lon="2.3402">
        <ele>107.1</ele>
        <time>2015-01-12T21:30:44.549Z</time>
      </trkpt>
      <trkpt lat="48.86119" lon="2.34055">
        <ele>107.4</ele>
        <time>2015-01-12T21:30:52.466Z</time>
      </trkpt>
      <trkpt lat="48.86116" lon="2.34064">
        <ele>108.2</ele>
        <time>2015-01-12T21:30:54.540Z</time>
      </trkpt>
      <trkpt lat="48.86113" lon="2.34068">
        <ele>108.4</ele>
        <time>2015-01-12T21:30:55.454Z</time>
      </trkpt>
      <trkpt lat="48.8611" lon="2.34078">
        <ele>109.6</ele>
        <time>2015-01-12T21:31:02.510Z</time>
      </trkpt>
      <trkpt lat="48.86111" lon="2.34082">
        <ele>109.1</ele>
        <time>2015-01-12T21:31:03.542Z</time>
      </trkpt>
      <trkpt lat="48.86113" lon="2.34087">
        <ele>108.5</ele>
        <time>2015-01-12T21:31:06.482Z</time>
      </trkpt>
      <trkpt lat="48.86124" lon="2.34106">
        <ele>108.3</ele>
        <time>2015-01-12T21:31:07.505Z</time>
      </trkpt>
      <trkpt lat="48.86129" lon="2.34113">
        <ele>108.3</ele>
        <time>2015-01-12T21:31:08.563Z</time>
      </trkpt>
      <trkpt lat="48.86131" lon="2.34122">
        <ele>107.4</ele>
        <time>2015-01-12T21:31:09.451Z</time>
      </trkpt>
      <trkpt lat="48.86133" lon="2.34129">
        <ele>106.8</ele>
        <time>2015-01-12T21:31:10.464Z</time>
      </trkpt>
      <trkpt lat="48.86134" lon="2.34135">
        <ele>106.5</ele>
        <time>2015-01-12T21:31:11.532Z</time>
      </trkpt>
      <trkpt lat="48.86135" lon="2.34147">
        <ele>106.6</ele>
        <time>2015-01-12T21:31:13.471Z</time>
      </trkpt>
      <trkpt lat="48.86134" lon="2.34151">
        <ele>106.9</ele>
        <time>2015-01-12T21:31:14.569Z</time>
      </trkpt>
      <trkpt lat="48.86101" lon="2.34196">
        <ele>107.1</ele>
        <time>2015-01-12T21:31:22.461Z</time>
      </trkpt>
      <trkpt lat="48.86105" lon="2.34208">
        <ele>108.7</ele>
        <time>2015-01-12T21:31:24.493Z</time>
      </trkpt>
      <trkpt lat="48.86109" lon="2.34217">
        <ele>109.3</ele>
        <time>2015-01-12T21:31:25.664Z</time>
      </trkpt>
      <trkpt lat="48.86112" lon="2.34227">
        <ele>109.7</ele>
        <time>2015-01-12T21:31:26.488Z</time>
      </trkpt>
      <trkpt lat="48.86112" lon="2.34233">
        <ele>109.9</ele>
        <time>2015-01-12T21:31:27.500Z</time>
      </trkpt>
      <trkpt lat="48.86112" lon="2.34241">
        <ele>110.1</ele>
        <time>2015-01-12T21:31:28.520Z</time>
      </trkpt>
      <trkpt lat="48.86112" lon="2.3425">
        <ele>110.6</ele>
        <time>2015-01-12T21:31:29.549Z</time>
      </trkpt>
      <trkpt lat="48.8611" lon="2.3426">
        <ele>112.7</ele>
        <time>2015-01-12T21:31:30.466Z</time>
      </trkpt>
      <trkpt lat="48.86111" lon="2.34267">
        <ele>113.4</ele>
        <time>2015-01-12T21:31:31.459Z</time>
      </trkpt>
      <trkpt lat="48.86113" lon="2.34274">
        <ele>113.9</ele>
        <time>2015-01-12T21:31:32.485Z</time>
      </trkpt>
      <trkpt lat="48.86116" lon="2.34281">
        <ele>114.2</ele>
        <time>2015-01-12T21:31:33.496Z</time>
      </trkpt>
      <trkpt lat="48.86116" lon="2.34281">
        <ele>114.2</ele>
        <time>2015-01-12T21:31:33.818Z</time>
      </trkpt>
      <trkpt lat="48.8614" lon="2.34318">
        <ele>112.6</ele>
        <time>2015-01-12T21:31:41.542Z</time>
      </trkpt>
      <trkpt lat="48.86143" lon="2.34326">
        <ele>112.5</ele>
        <time>2015-01-12T21:31:42.416Z</time>
      </trkpt>
      <trkpt lat="48.86145" lon="2.34333">
        <ele>112.5</ele>
        <time>2015-01-12T21:31:43.445Z</time>
      </trkpt>
      <trkpt lat="48.86165" lon="2.34402">
        <ele>109.5</ele>
        <time>2015-01-12T21:32:00.434Z</time>
      </trkpt>
      <trkpt lat="48.8616" lon="2.34405">
        <ele>108.9</ele>
        <time>2015-01-12T21:32:03.488Z</time>
      </trkpt>
      <trkpt lat="48.86155" lon="2.34405">
        <ele>109.4</ele>
        <time>2015-01-12T21:32:04.509Z</time>
      </trkpt>
      <trkpt lat="48.86155" lon="2.34405">
        <ele>109.4</ele>
        <time>2015-01-12T21:32:09.550Z</time>
      </trkpt>
      <trkpt lat="48.86136" lon="2.34424">
        <ele>107.4</ele>
        <time>2015-01-12T21:32:10.549Z</time>
      </trkpt>
      <trkpt lat="48.86131" lon="2.34428">
        <ele>107.2</ele>
        <time>2015-01-12T21:32:11.484Z</time>
      </trkpt>
      <trkpt lat="48.86126" lon="2.34433">
        <ele>107.2</ele>
        <time>2015-01-12T21:32:12.480Z</time>
      </trkpt>
      <trkpt lat="48.86121" lon="2.34438">
        <ele>107</ele>
        <time>2015-01-12T21:32:13.490Z</time>
      </trkpt>
      <trkpt lat="48.86116" lon="2.34443">
        <ele>106.9</ele>
        <time>2015-01-12T21:32:14.499Z</time>
      </trkpt>
      <trkpt lat="48.86111" lon="2.34447">
        <ele>107</ele>
        <time>2015-01-12T21:32:15.505Z</time>
      </trkpt>
      <trkpt lat="48.86107" lon="2.34452">
        <ele>107.5</ele>
        <time>2015-01-12T21:32:16.518Z</time>
      </trkpt>
      <trkpt lat="48.86103" lon="2.34458">
        <ele>107.8</ele>
        <time>2015-01-12T21:32:17.531Z</time>
      </trkpt>
      <trkpt lat="48.86098" lon="2.34465">
        <ele>108.1</ele>
        <time>2015-01-12T21:32:18.556Z</time>
      </trkpt>
      <trkpt lat="48.86093" lon="2.34471">
        <ele>108.5</ele>
        <time>2015-01-12T21:32:19.545Z</time>
      </trkpt>
      <trkpt lat="48.86088" lon="2.34476">
        <ele>109</ele>
        <time>2015-01-12T21:32:20.555Z</time>
      </trkpt>
      <trkpt lat="48.86083" lon="2.34484">
        <ele>109.4</ele>
        <time>2015-01-12T21:32:21.584Z</time>
      </trkpt>
      <trkpt lat="48.8608" lon="2.34494">
        <ele>109.7</ele>
        <time>2015-01-12T21:32:22.460Z</time>
      </trkpt>
      <trkpt lat="48.86078" lon="2.34502">
        <ele>110.1</ele>
        <time>2015-01-12T21:32:23.474Z</time>
      </trkpt>
      <trkpt lat="48.86076" lon="2.3451">
        <ele>110.8</ele>
        <time>2015-01-12T21:32:24.479Z</time>
      </trkpt>
      <trkpt lat="48.86075" lon="2.3452">
        <ele>111.4</ele>
        <time>2015-01-12T21:32:25.494Z</time>
      </trkpt>
      <trkpt lat="48.86074" lon="2.34531">
        <ele>111.7</ele>
        <time>2015-01-12T21:32:26.502Z</time>
      </trkpt>
      <trkpt lat="48.86074" lon="2.34541">
        <ele>112.3</ele>
        <time>2015-01-12T21:32:27.512Z</time>
      </trkpt>
      <trkpt lat="48.86074" lon="2.34549">
        <ele>112.7</ele>
        <time>2015-01-12T21:32:28.520Z</time>
      </trkpt>
      <trkpt lat="48.86073" lon="2.34559">
        <ele>113.1</ele>
        <time>2015-01-12T21:32:29.529Z</time>
      </trkpt>
      <trkpt lat="48.86074" lon="2.3457">
        <ele>113.7</ele>
        <time>2015-01-12T21:32:30.534Z</time>
      </trkpt>
      <trkpt lat="48.86073" lon="2.3458">
        <ele>114</ele>
        <time>2015-01-12T21:32:31.557Z</time>
      </trkpt>
      <trkpt lat="48.86071" lon="2.34591">
        <ele>113.8</ele>
        <time>2015-01-12T21:32:32.547Z</time>
      </trkpt>
      <trkpt lat="48.86071" lon="2.346">
        <ele>113.8</ele>
        <time>2015-01-12T21:32:33.457Z</time>
      </trkpt>
      <trkpt lat="48.86071" lon="2.34611">
        <ele>113.1</ele>
        <time>2015-01-12T21:32:34.471Z</time>
      </trkpt>
      <trkpt lat="48.86067" lon="2.34621">
        <ele>112.5</ele>
        <time>2015-01-12T21:32:35.532Z</time>
      </trkpt>
      <trkpt lat="48.86062" lon="2.34628">
        <ele>112.3</ele>
        <time>2015-01-12T21:32:36.441Z</time>
      </trkpt>
      <trkpt lat="48.86057" lon="2.34637">
        <ele>112.3</ele>
        <time>2015-01-12T21:32:37.452Z</time>
      </trkpt>
      <trkpt lat="48.86053" lon="2.34646">
        <ele>112.5</ele>
        <time>2015-01-12T21:32:38.490Z</time>
      </trkpt>
      <trkpt lat="48.86047" lon="2.34653">
        <ele>112.8</ele>
        <time>2015-01-12T21:32:39.463Z</time>
      </trkpt>
      <trkpt lat="48.8604" lon="2.34658">
        <ele>112.9</ele>
        <time>2015-01-12T21:32:40.464Z</time>
      </trkpt>
      <trkpt lat="48.8603" lon="2.34657">
        <ele>112</ele>
        <time>2015-01-12T21:32:41.474Z</time>
      </trkpt>
      <trkpt lat="48.86022" lon="2.34657">
        <ele>111.1</ele>
        <time>2015-01-12T21:32:42.490Z</time>
      </trkpt>
      <trkpt lat="48.86017" lon="2.34663">
        <ele>110.7</ele>
        <time>2015-01-12T21:32:43.500Z</time>
      </trkpt>
      <trkpt lat="48.86013" lon="2.34666">
        <ele>110.4</ele>
        <time>2015-01-12T21:32:44.520Z</time>
      </trkpt>
      <trkpt lat="48.86009" lon="2.34668">
        <ele>110.3</ele>
        <time>2015-01-12T21:32:45.535Z</time>
      </trkpt>
      <trkpt lat="48.86002" lon="2.34676">
        <ele>109.9</ele>
        <time>2015-01-12T21:32:48.462Z</time>
      </trkpt>
      <trkpt lat="48.85998" lon="2.34677">
        <ele>109.6</ele>
        <time>2015-01-12T21:32:49.498Z</time>
      </trkpt>
      <trkpt lat="48.85992" lon="2.34681">
        <ele>109.3</ele>
        <time>2015-01-12T21:32:51.546Z</time>
      </trkpt>
      <trkpt lat="48.85987" lon="2.34684">
        <ele>109.3</ele>
        <time>2015-01-12T21:32:52.559Z</time>
      </trkpt>
      <trkpt lat="48.85979" lon="2.34689">
        <ele>109.1</ele>
        <time>2015-01-12T21:32:54.454Z</time>
      </trkpt>
      <trkpt lat="48.85975" lon="2.34691">
        <ele>108.9</ele>
        <time>2015-01-12T21:32:55.451Z</time>
      </trkpt>
      <trkpt lat="48.85972" lon="2.34693">
        <ele>108.9</ele>
        <time>2015-01-12T21:32:56.548Z</time>
      </trkpt>
      <trkpt lat="48.85967" lon="2.34697">
        <ele>109.1</ele>
        <time>2015-01-12T21:32:57.458Z</time>
      </trkpt>
      <trkpt lat="48.85968" lon="2.34708">
        <ele>110.4</ele>
        <time>2015-01-12T21:33:32.481Z</time>
      </trkpt>
      <trkpt lat="48.85984" lon="2.34741">
        <ele>113.3</ele>
        <time>2015-01-12T21:33:33.415Z</time>
      </trkpt>
    </trkseg>
  </trk>
</gpx>